<?xml version="1.0" encoding="UTF-8" standalone="no" ?>
<gpx xmlns="http://www.topografix.com/GPX/1/1" xmlns:xsi="http://www.w3.org/2001/XMLSchema-instance" xsi:schemaLocation="http://www.topografix.com/GPX/1/1 http://www.topografix.com/GPX/1/1/gpx.xsd" version="1.1" creator="VisuGPX - https://www.visugpx.com">
  <metadata>
    <name>Tour de la Moselle J01</name>
  </metadata>
  <wpt lat="48.74166" lon="7.51339">
    <ele>167</ele>
    <name><![CDATA[Pause à 08/08 16:30]]></name>
    <desc><![CDATA[Pause de 2min 8s]]></desc>
  </wpt>
  <wpt lat="48.74366" lon="7.47422">
    <ele>169</ele>
    <name><![CDATA[Pause à 08/08 16:43]]></name>
    <desc><![CDATA[Pause de 2min 42s]]></desc>
  </wpt>
  <wpt lat="48.74168" lon="7.36918">
    <ele>186</ele>
    <name><![CDATA[Pause à 08/08 17:20]]></name>
    <desc><![CDATA[Pause de 18min 0s]]></desc>
  </wpt>
  <wpt lat="48.74222" lon="7.3618">
    <ele>188</ele>
    <name><![CDATA[Pause à 08/08 17:40]]></name>
    <desc><![CDATA[Pause de 5min 55s]]></desc>
  </wpt>
  <wpt lat="48.72438" lon="7.32337">
    <ele>198</ele>
    <name><![CDATA[Pause à 08/08 19:00]]></name>
    <desc><![CDATA[Pause de 3min 10s]]></desc>
  </wpt>
  <wpt lat="48.73522" lon="7.25104">
    <ele>219</ele>
    <name><![CDATA[Pause à 08/08 19:30]]></name>
  </wpt>
  <wpt lat="48.71967" lon="7.22671">
    <ele>221</ele>
    <name><![CDATA[Pause à 08/08 20:07]]></name>
    <desc><![CDATA[Pause de 15min 7s]]></desc>
  </wpt>
  <wpt lat="48.72045" lon="7.22736">
    <ele>245</ele>
    <name><![CDATA[Pause à 08/08 20:30]]></name>
    <desc><![CDATA[Pause de 2h 19min]]></desc>
  </wpt>
  <wpt lat="48.71453" lon="7.68994">
    <ele>146</ele>
    <name><![CDATA[Pause à 08/08 14:53]]></name>
    <desc><![CDATA[Pause de 14min 6s]]></desc>
  </wpt>
  <wpt lat="48.74831" lon="7.56685">
    <ele>160</ele>
    <name><![CDATA[Pause à 08/08 15:43]]></name>
    <desc><![CDATA[Pause de 33min 35s]]></desc>
  </wpt>
  <trk>
    <name><![CDATA[J1]]></name>
    <trkseg>
      <trkpt lat="48.61784" lon="7.75965">
        <ele>137</ele>
        <time>2020-08-08T12:04:57Z</time>
      </trkpt>
      <trkpt lat="48.61784" lon="7.75958">
        <ele>137</ele>
        <time>2020-08-08T12:05:16Z</time>
      </trkpt>
      <trkpt lat="48.61789" lon="7.75955">
        <ele>137</ele>
        <time>2020-08-08T12:05:20Z</time>
      </trkpt>
      <trkpt lat="48.61791" lon="7.75949">
        <ele>137</ele>
        <time>2020-08-08T12:05:24Z</time>
      </trkpt>
      <trkpt lat="48.61796" lon="7.75949">
        <ele>137</ele>
        <time>2020-08-08T12:05:27Z</time>
      </trkpt>
      <trkpt lat="48.61801" lon="7.75953">
        <ele>137</ele>
        <time>2020-08-08T12:05:30Z</time>
      </trkpt>
      <trkpt lat="48.61805" lon="7.75958">
        <ele>137</ele>
        <time>2020-08-08T12:05:33Z</time>
      </trkpt>
      <trkpt lat="48.61809" lon="7.75961">
        <ele>138</ele>
        <time>2020-08-08T12:05:35Z</time>
      </trkpt>
      <trkpt lat="48.61817" lon="7.75971">
        <ele>138</ele>
        <time>2020-08-08T12:05:40Z</time>
      </trkpt>
      <trkpt lat="48.61821" lon="7.75976">
        <ele>137</ele>
        <time>2020-08-08T12:05:42Z</time>
      </trkpt>
      <trkpt lat="48.61825" lon="7.75981">
        <ele>137</ele>
        <time>2020-08-08T12:05:44Z</time>
      </trkpt>
      <trkpt lat="48.61829" lon="7.75986">
        <ele>137</ele>
        <time>2020-08-08T12:05:46Z</time>
      </trkpt>
      <trkpt lat="48.61833" lon="7.75992">
        <ele>137</ele>
        <time>2020-08-08T12:05:48Z</time>
      </trkpt>
      <trkpt lat="48.61836" lon="7.75999">
        <ele>137</ele>
        <time>2020-08-08T12:05:50Z</time>
      </trkpt>
      <trkpt lat="48.6184" lon="7.76008">
        <ele>137</ele>
        <time>2020-08-08T12:05:52Z</time>
      </trkpt>
      <trkpt lat="48.61844" lon="7.76018">
        <ele>137</ele>
        <time>2020-08-08T12:05:54Z</time>
      </trkpt>
      <trkpt lat="48.61847" lon="7.76029">
        <ele>137</ele>
        <time>2020-08-08T12:05:56Z</time>
      </trkpt>
      <trkpt lat="48.61849" lon="7.76041">
        <ele>137</ele>
        <time>2020-08-08T12:05:58Z</time>
      </trkpt>
      <trkpt lat="48.6185" lon="7.76052">
        <ele>137</ele>
        <time>2020-08-08T12:06:00Z</time>
      </trkpt>
      <trkpt lat="48.61853" lon="7.76061">
        <ele>136</ele>
        <time>2020-08-08T12:06:02Z</time>
      </trkpt>
      <trkpt lat="48.61859" lon="7.76065">
        <ele>136</ele>
        <time>2020-08-08T12:06:04Z</time>
      </trkpt>
      <trkpt lat="48.61866" lon="7.76065">
        <ele>136</ele>
        <time>2020-08-08T12:06:06Z</time>
      </trkpt>
      <trkpt lat="48.61875" lon="7.76064">
        <ele>136</ele>
        <time>2020-08-08T12:06:08Z</time>
      </trkpt>
      <trkpt lat="48.61884" lon="7.76064">
        <ele>136</ele>
        <time>2020-08-08T12:06:10Z</time>
      </trkpt>
      <trkpt lat="48.61892" lon="7.76061">
        <ele>136</ele>
        <time>2020-08-08T12:06:12Z</time>
      </trkpt>
      <trkpt lat="48.61901" lon="7.76059">
        <ele>136</ele>
        <time>2020-08-08T12:06:14Z</time>
      </trkpt>
      <trkpt lat="48.6191" lon="7.76057">
        <ele>136</ele>
        <time>2020-08-08T12:06:16Z</time>
      </trkpt>
      <trkpt lat="48.61919" lon="7.76055">
        <ele>136</ele>
        <time>2020-08-08T12:06:18Z</time>
      </trkpt>
      <trkpt lat="48.61927" lon="7.76055">
        <ele>136</ele>
        <time>2020-08-08T12:06:20Z</time>
      </trkpt>
      <trkpt lat="48.61936" lon="7.76053">
        <ele>136</ele>
        <time>2020-08-08T12:06:22Z</time>
      </trkpt>
      <trkpt lat="48.61943" lon="7.76051">
        <ele>136</ele>
        <time>2020-08-08T12:06:24Z</time>
      </trkpt>
      <trkpt lat="48.61948" lon="7.7605">
        <ele>136</ele>
        <time>2020-08-08T12:06:27Z</time>
      </trkpt>
      <trkpt lat="48.61953" lon="7.76048">
        <ele>136</ele>
        <time>2020-08-08T12:06:30Z</time>
      </trkpt>
      <trkpt lat="48.61959" lon="7.76048">
        <ele>136</ele>
        <time>2020-08-08T12:06:32Z</time>
      </trkpt>
      <trkpt lat="48.61966" lon="7.76047">
        <ele>136</ele>
        <time>2020-08-08T12:06:34Z</time>
      </trkpt>
      <trkpt lat="48.61973" lon="7.76046">
        <ele>136</ele>
        <time>2020-08-08T12:06:36Z</time>
      </trkpt>
      <trkpt lat="48.61981" lon="7.76045">
        <ele>136</ele>
        <time>2020-08-08T12:06:38Z</time>
      </trkpt>
      <trkpt lat="48.61988" lon="7.76043">
        <ele>136</ele>
        <time>2020-08-08T12:06:40Z</time>
      </trkpt>
      <trkpt lat="48.61996" lon="7.76043">
        <ele>136</ele>
        <time>2020-08-08T12:06:42Z</time>
      </trkpt>
      <trkpt lat="48.62003" lon="7.76042">
        <ele>136</ele>
        <time>2020-08-08T12:06:44Z</time>
      </trkpt>
      <trkpt lat="48.62011" lon="7.76041">
        <ele>136</ele>
        <time>2020-08-08T12:06:46Z</time>
      </trkpt>
      <trkpt lat="48.62019" lon="7.76038">
        <ele>136</ele>
        <time>2020-08-08T12:06:48Z</time>
      </trkpt>
      <trkpt lat="48.62027" lon="7.76036">
        <ele>136</ele>
        <time>2020-08-08T12:06:50Z</time>
      </trkpt>
      <trkpt lat="48.62032" lon="7.76034">
        <ele>136</ele>
        <time>2020-08-08T12:06:51Z</time>
      </trkpt>
      <trkpt lat="48.62037" lon="7.76033">
        <ele>136</ele>
        <time>2020-08-08T12:06:52Z</time>
      </trkpt>
      <trkpt lat="48.62048" lon="7.76023">
        <ele>136</ele>
        <time>2020-08-08T12:06:55Z</time>
      </trkpt>
      <trkpt lat="48.6205" lon="7.7601">
        <ele>137</ele>
        <time>2020-08-08T12:06:57Z</time>
      </trkpt>
      <trkpt lat="48.62049" lon="7.76003">
        <ele>137</ele>
        <time>2020-08-08T12:06:58Z</time>
      </trkpt>
      <trkpt lat="48.62048" lon="7.75996">
        <ele>137</ele>
        <time>2020-08-08T12:06:59Z</time>
      </trkpt>
      <trkpt lat="48.62048" lon="7.75983">
        <ele>137</ele>
        <time>2020-08-08T12:07:01Z</time>
      </trkpt>
      <trkpt lat="48.62048" lon="7.75976">
        <ele>137</ele>
        <time>2020-08-08T12:07:02Z</time>
      </trkpt>
      <trkpt lat="48.62048" lon="7.75963">
        <ele>137</ele>
        <time>2020-08-08T12:07:04Z</time>
      </trkpt>
      <trkpt lat="48.62047" lon="7.7595">
        <ele>137</ele>
        <time>2020-08-08T12:07:06Z</time>
      </trkpt>
      <trkpt lat="48.62046" lon="7.75942">
        <ele>137</ele>
        <time>2020-08-08T12:07:07Z</time>
      </trkpt>
      <trkpt lat="48.62046" lon="7.75935">
        <ele>137</ele>
        <time>2020-08-08T12:07:08Z</time>
      </trkpt>
      <trkpt lat="48.62046" lon="7.75922">
        <ele>137</ele>
        <time>2020-08-08T12:07:10Z</time>
      </trkpt>
      <trkpt lat="48.62046" lon="7.75915">
        <ele>137</ele>
        <time>2020-08-08T12:07:11Z</time>
      </trkpt>
      <trkpt lat="48.62049" lon="7.75904">
        <ele>137</ele>
        <time>2020-08-08T12:07:13Z</time>
      </trkpt>
      <trkpt lat="48.62056" lon="7.75898">
        <ele>137</ele>
        <time>2020-08-08T12:07:15Z</time>
      </trkpt>
      <trkpt lat="48.62063" lon="7.75896">
        <ele>137</ele>
        <time>2020-08-08T12:07:17Z</time>
      </trkpt>
      <trkpt lat="48.6207" lon="7.75896">
        <ele>137</ele>
        <time>2020-08-08T12:07:19Z</time>
      </trkpt>
      <trkpt lat="48.62078" lon="7.75896">
        <ele>137</ele>
        <time>2020-08-08T12:07:21Z</time>
      </trkpt>
      <trkpt lat="48.62086" lon="7.75893">
        <ele>137</ele>
        <time>2020-08-08T12:07:23Z</time>
      </trkpt>
      <trkpt lat="48.62094" lon="7.75893">
        <ele>136</ele>
        <time>2020-08-08T12:07:25Z</time>
      </trkpt>
      <trkpt lat="48.62101" lon="7.75897">
        <ele>136</ele>
        <time>2020-08-08T12:07:27Z</time>
      </trkpt>
      <trkpt lat="48.62104" lon="7.75906">
        <ele>136</ele>
        <time>2020-08-08T12:07:29Z</time>
      </trkpt>
      <trkpt lat="48.62107" lon="7.75917">
        <ele>137</ele>
        <time>2020-08-08T12:07:31Z</time>
      </trkpt>
      <trkpt lat="48.62108" lon="7.75929">
        <ele>137</ele>
        <time>2020-08-08T12:07:33Z</time>
      </trkpt>
      <trkpt lat="48.62111" lon="7.75941">
        <ele>137</ele>
        <time>2020-08-08T12:07:35Z</time>
      </trkpt>
      <trkpt lat="48.62112" lon="7.75951">
        <ele>137</ele>
        <time>2020-08-08T12:07:37Z</time>
      </trkpt>
      <trkpt lat="48.62113" lon="7.75962">
        <ele>137</ele>
        <time>2020-08-08T12:07:39Z</time>
      </trkpt>
      <trkpt lat="48.62114" lon="7.75969">
        <ele>137</ele>
        <time>2020-08-08T12:07:41Z</time>
      </trkpt>
      <trkpt lat="48.62116" lon="7.75976">
        <ele>138</ele>
        <time>2020-08-08T12:07:43Z</time>
      </trkpt>
      <trkpt lat="48.62119" lon="7.75982">
        <ele>138</ele>
        <time>2020-08-08T12:07:45Z</time>
      </trkpt>
      <trkpt lat="48.6212" lon="7.75989">
        <ele>138</ele>
        <time>2020-08-08T12:07:47Z</time>
      </trkpt>
      <trkpt lat="48.62121" lon="7.75998">
        <ele>138</ele>
        <time>2020-08-08T12:07:49Z</time>
      </trkpt>
      <trkpt lat="48.62122" lon="7.76006">
        <ele>138</ele>
        <time>2020-08-08T12:07:51Z</time>
      </trkpt>
      <trkpt lat="48.62122" lon="7.76014">
        <ele>138</ele>
        <time>2020-08-08T12:07:53Z</time>
      </trkpt>
      <trkpt lat="48.62123" lon="7.76022">
        <ele>138</ele>
        <time>2020-08-08T12:07:55Z</time>
      </trkpt>
      <trkpt lat="48.62124" lon="7.7603">
        <ele>138</ele>
        <time>2020-08-08T12:07:57Z</time>
      </trkpt>
      <trkpt lat="48.62124" lon="7.76038">
        <ele>137</ele>
        <time>2020-08-08T12:07:59Z</time>
      </trkpt>
      <trkpt lat="48.62125" lon="7.76045">
        <ele>137</ele>
        <time>2020-08-08T12:08:01Z</time>
      </trkpt>
      <trkpt lat="48.62126" lon="7.76052">
        <ele>136</ele>
        <time>2020-08-08T12:08:03Z</time>
      </trkpt>
      <trkpt lat="48.62127" lon="7.7606">
        <ele>136</ele>
        <time>2020-08-08T12:08:05Z</time>
      </trkpt>
      <trkpt lat="48.62128" lon="7.76068">
        <ele>136</ele>
        <time>2020-08-08T12:08:07Z</time>
      </trkpt>
      <trkpt lat="48.62129" lon="7.76077">
        <ele>136</ele>
        <time>2020-08-08T12:08:09Z</time>
      </trkpt>
      <trkpt lat="48.62129" lon="7.76087">
        <ele>137</ele>
        <time>2020-08-08T12:08:11Z</time>
      </trkpt>
      <trkpt lat="48.6213" lon="7.76098">
        <ele>137</ele>
        <time>2020-08-08T12:08:13Z</time>
      </trkpt>
      <trkpt lat="48.62131" lon="7.7611">
        <ele>137</ele>
        <time>2020-08-08T12:08:15Z</time>
      </trkpt>
      <trkpt lat="48.62132" lon="7.76122">
        <ele>137</ele>
        <time>2020-08-08T12:08:17Z</time>
      </trkpt>
      <trkpt lat="48.62132" lon="7.76133">
        <ele>137</ele>
        <time>2020-08-08T12:08:19Z</time>
      </trkpt>
      <trkpt lat="48.62134" lon="7.76146">
        <ele>137</ele>
        <time>2020-08-08T12:08:21Z</time>
      </trkpt>
      <trkpt lat="48.62135" lon="7.7616">
        <ele>137</ele>
        <time>2020-08-08T12:08:23Z</time>
      </trkpt>
      <trkpt lat="48.62136" lon="7.76172">
        <ele>137</ele>
        <time>2020-08-08T12:08:25Z</time>
      </trkpt>
      <trkpt lat="48.62137" lon="7.76182">
        <ele>137</ele>
        <time>2020-08-08T12:08:27Z</time>
      </trkpt>
      <trkpt lat="48.62138" lon="7.76189">
        <ele>137</ele>
        <time>2020-08-08T12:08:29Z</time>
      </trkpt>
      <trkpt lat="48.62141" lon="7.76183">
        <ele>137</ele>
        <time>2020-08-08T12:08:32Z</time>
      </trkpt>
      <trkpt lat="48.62141" lon="7.76172">
        <ele>137</ele>
        <time>2020-08-08T12:08:34Z</time>
      </trkpt>
      <trkpt lat="48.6214" lon="7.76159">
        <ele>137</ele>
        <time>2020-08-08T12:08:36Z</time>
      </trkpt>
      <trkpt lat="48.62139" lon="7.76146">
        <ele>137</ele>
        <time>2020-08-08T12:08:38Z</time>
      </trkpt>
      <trkpt lat="48.6214" lon="7.76139">
        <ele>137</ele>
        <time>2020-08-08T12:08:39Z</time>
      </trkpt>
      <trkpt lat="48.6214" lon="7.76132">
        <ele>137</ele>
        <time>2020-08-08T12:08:40Z</time>
      </trkpt>
      <trkpt lat="48.6214" lon="7.76124">
        <ele>137</ele>
        <time>2020-08-08T12:08:41Z</time>
      </trkpt>
      <trkpt lat="48.6214" lon="7.76117">
        <ele>137</ele>
        <time>2020-08-08T12:08:42Z</time>
      </trkpt>
      <trkpt lat="48.62141" lon="7.7611">
        <ele>137</ele>
        <time>2020-08-08T12:08:43Z</time>
      </trkpt>
      <trkpt lat="48.62141" lon="7.76103">
        <ele>137</ele>
        <time>2020-08-08T12:08:44Z</time>
      </trkpt>
      <trkpt lat="48.62142" lon="7.76089">
        <ele>136</ele>
        <time>2020-08-08T12:08:46Z</time>
      </trkpt>
      <trkpt lat="48.62146" lon="7.76079">
        <ele>136</ele>
        <time>2020-08-08T12:08:48Z</time>
      </trkpt>
      <trkpt lat="48.62151" lon="7.76072">
        <ele>136</ele>
        <time>2020-08-08T12:08:50Z</time>
      </trkpt>
      <trkpt lat="48.62157" lon="7.76068">
        <ele>136</ele>
        <time>2020-08-08T12:08:52Z</time>
      </trkpt>
      <trkpt lat="48.62162" lon="7.76066">
        <ele>136</ele>
        <time>2020-08-08T12:08:54Z</time>
      </trkpt>
      <trkpt lat="48.62167" lon="7.76062">
        <ele>136</ele>
        <time>2020-08-08T12:08:56Z</time>
      </trkpt>
      <trkpt lat="48.62173" lon="7.76058">
        <ele>136</ele>
        <time>2020-08-08T12:08:58Z</time>
      </trkpt>
      <trkpt lat="48.62178" lon="7.76054">
        <ele>136</ele>
        <time>2020-08-08T12:09:00Z</time>
      </trkpt>
      <trkpt lat="48.62184" lon="7.7605">
        <ele>136</ele>
        <time>2020-08-08T12:09:02Z</time>
      </trkpt>
      <trkpt lat="48.62189" lon="7.76046">
        <ele>137</ele>
        <time>2020-08-08T12:09:04Z</time>
      </trkpt>
      <trkpt lat="48.62193" lon="7.76042">
        <ele>136</ele>
        <time>2020-08-08T12:09:06Z</time>
      </trkpt>
      <trkpt lat="48.62198" lon="7.7604">
        <ele>136</ele>
        <time>2020-08-08T12:09:09Z</time>
      </trkpt>
      <trkpt lat="48.62201" lon="7.76045">
        <ele>137</ele>
        <time>2020-08-08T12:09:15Z</time>
      </trkpt>
      <trkpt lat="48.62201" lon="7.76037">
        <ele>136</ele>
        <time>2020-08-08T12:09:35Z</time>
      </trkpt>
      <trkpt lat="48.62196" lon="7.76038">
        <ele>136</ele>
        <time>2020-08-08T12:09:39Z</time>
      </trkpt>
      <trkpt lat="48.62191" lon="7.76041">
        <ele>136</ele>
        <time>2020-08-08T12:09:51Z</time>
      </trkpt>
      <trkpt lat="48.62188" lon="7.76046">
        <ele>136</ele>
        <time>2020-08-08T12:09:54Z</time>
      </trkpt>
      <trkpt lat="48.62182" lon="7.76051">
        <ele>136</ele>
        <time>2020-08-08T12:09:57Z</time>
      </trkpt>
      <trkpt lat="48.62177" lon="7.76054">
        <ele>136</ele>
        <time>2020-08-08T12:09:59Z</time>
      </trkpt>
      <trkpt lat="48.62172" lon="7.76058">
        <ele>136</ele>
        <time>2020-08-08T12:10:01Z</time>
      </trkpt>
      <trkpt lat="48.62166" lon="7.76062">
        <ele>136</ele>
        <time>2020-08-08T12:10:03Z</time>
      </trkpt>
      <trkpt lat="48.62161" lon="7.76066">
        <ele>136</ele>
        <time>2020-08-08T12:10:05Z</time>
      </trkpt>
      <trkpt lat="48.62156" lon="7.7607">
        <ele>136</ele>
        <time>2020-08-08T12:10:07Z</time>
      </trkpt>
      <trkpt lat="48.62151" lon="7.76074">
        <ele>136</ele>
        <time>2020-08-08T12:10:09Z</time>
      </trkpt>
      <trkpt lat="48.62146" lon="7.76078">
        <ele>136</ele>
        <time>2020-08-08T12:10:11Z</time>
      </trkpt>
      <trkpt lat="48.62143" lon="7.76085">
        <ele>136</ele>
        <time>2020-08-08T12:10:14Z</time>
      </trkpt>
      <trkpt lat="48.62138" lon="7.76081">
        <ele>137</ele>
        <time>2020-08-08T12:10:23Z</time>
      </trkpt>
      <trkpt lat="48.62137" lon="7.76074">
        <ele>136</ele>
        <time>2020-08-08T12:10:30Z</time>
      </trkpt>
      <trkpt lat="48.62141" lon="7.76071">
        <ele>136</ele>
        <time>2020-08-08T12:10:35Z</time>
      </trkpt>
      <trkpt lat="48.62146" lon="7.76068">
        <ele>136</ele>
        <time>2020-08-08T12:10:46Z</time>
      </trkpt>
      <trkpt lat="48.62151" lon="7.76063">
        <ele>136</ele>
        <time>2020-08-08T12:10:49Z</time>
      </trkpt>
      <trkpt lat="48.62157" lon="7.76059">
        <ele>136</ele>
        <time>2020-08-08T12:10:51Z</time>
      </trkpt>
      <trkpt lat="48.62164" lon="7.76057">
        <ele>136</ele>
        <time>2020-08-08T12:10:53Z</time>
      </trkpt>
      <trkpt lat="48.62172" lon="7.76052">
        <ele>136</ele>
        <time>2020-08-08T12:10:55Z</time>
      </trkpt>
      <trkpt lat="48.6218" lon="7.76049">
        <ele>136</ele>
        <time>2020-08-08T12:10:57Z</time>
      </trkpt>
      <trkpt lat="48.62186" lon="7.76044">
        <ele>136</ele>
        <time>2020-08-08T12:10:59Z</time>
      </trkpt>
      <trkpt lat="48.62194" lon="7.76037">
        <ele>136</ele>
        <time>2020-08-08T12:11:01Z</time>
      </trkpt>
      <trkpt lat="48.622" lon="7.7603">
        <ele>136</ele>
        <time>2020-08-08T12:11:03Z</time>
      </trkpt>
      <trkpt lat="48.62207" lon="7.76024">
        <ele>136</ele>
        <time>2020-08-08T12:11:05Z</time>
      </trkpt>
      <trkpt lat="48.62214" lon="7.76017">
        <ele>136</ele>
        <time>2020-08-08T12:11:07Z</time>
      </trkpt>
      <trkpt lat="48.62221" lon="7.7601">
        <ele>136</ele>
        <time>2020-08-08T12:11:09Z</time>
      </trkpt>
      <trkpt lat="48.62228" lon="7.76002">
        <ele>136</ele>
        <time>2020-08-08T12:11:11Z</time>
      </trkpt>
      <trkpt lat="48.62235" lon="7.75994">
        <ele>136</ele>
        <time>2020-08-08T12:11:13Z</time>
      </trkpt>
      <trkpt lat="48.62238" lon="7.75989">
        <ele>136</ele>
        <time>2020-08-08T12:11:14Z</time>
      </trkpt>
      <trkpt lat="48.62242" lon="7.75985">
        <ele>137</ele>
        <time>2020-08-08T12:11:15Z</time>
      </trkpt>
      <trkpt lat="48.62247" lon="7.7598">
        <ele>137</ele>
        <time>2020-08-08T12:11:16Z</time>
      </trkpt>
      <trkpt lat="48.62256" lon="7.75972">
        <ele>137</ele>
        <time>2020-08-08T12:11:18Z</time>
      </trkpt>
      <trkpt lat="48.62259" lon="7.75966">
        <ele>136</ele>
        <time>2020-08-08T12:11:19Z</time>
      </trkpt>
      <trkpt lat="48.62262" lon="7.75961">
        <ele>136</ele>
        <time>2020-08-08T12:11:20Z</time>
      </trkpt>
      <trkpt lat="48.62265" lon="7.75955">
        <ele>136</ele>
        <time>2020-08-08T12:11:21Z</time>
      </trkpt>
      <trkpt lat="48.62268" lon="7.75948">
        <ele>136</ele>
        <time>2020-08-08T12:11:22Z</time>
      </trkpt>
      <trkpt lat="48.62277" lon="7.75944">
        <ele>136</ele>
        <time>2020-08-08T12:11:24Z</time>
      </trkpt>
      <trkpt lat="48.62281" lon="7.7594">
        <ele>136</ele>
        <time>2020-08-08T12:11:25Z</time>
      </trkpt>
      <trkpt lat="48.62284" lon="7.75934">
        <ele>136</ele>
        <time>2020-08-08T12:11:26Z</time>
      </trkpt>
      <trkpt lat="48.62288" lon="7.75929">
        <ele>136</ele>
        <time>2020-08-08T12:11:27Z</time>
      </trkpt>
      <trkpt lat="48.62292" lon="7.75923">
        <ele>136</ele>
        <time>2020-08-08T12:11:28Z</time>
      </trkpt>
      <trkpt lat="48.62299" lon="7.75916">
        <ele>136</ele>
        <time>2020-08-08T12:11:30Z</time>
      </trkpt>
      <trkpt lat="48.62303" lon="7.75912">
        <ele>136</ele>
        <time>2020-08-08T12:11:31Z</time>
      </trkpt>
      <trkpt lat="48.62307" lon="7.75907">
        <ele>137</ele>
        <time>2020-08-08T12:11:32Z</time>
      </trkpt>
      <trkpt lat="48.6231" lon="7.75902">
        <ele>137</ele>
        <time>2020-08-08T12:11:33Z</time>
      </trkpt>
      <trkpt lat="48.62314" lon="7.75897">
        <ele>137</ele>
        <time>2020-08-08T12:11:34Z</time>
      </trkpt>
      <trkpt lat="48.6232" lon="7.75889">
        <ele>138</ele>
        <time>2020-08-08T12:11:36Z</time>
      </trkpt>
      <trkpt lat="48.62325" lon="7.75883">
        <ele>138</ele>
        <time>2020-08-08T12:11:37Z</time>
      </trkpt>
      <trkpt lat="48.62328" lon="7.75879">
        <ele>138</ele>
        <time>2020-08-08T12:11:38Z</time>
      </trkpt>
      <trkpt lat="48.62338" lon="7.7587">
        <ele>138</ele>
        <time>2020-08-08T12:11:41Z</time>
      </trkpt>
      <trkpt lat="48.62345" lon="7.75862">
        <ele>139</ele>
        <time>2020-08-08T12:11:43Z</time>
      </trkpt>
      <trkpt lat="48.62351" lon="7.75853">
        <ele>138</ele>
        <time>2020-08-08T12:11:45Z</time>
      </trkpt>
      <trkpt lat="48.62355" lon="7.75844">
        <ele>138</ele>
        <time>2020-08-08T12:11:47Z</time>
      </trkpt>
      <trkpt lat="48.62361" lon="7.75838">
        <ele>138</ele>
        <time>2020-08-08T12:11:49Z</time>
      </trkpt>
      <trkpt lat="48.62367" lon="7.75829">
        <ele>138</ele>
        <time>2020-08-08T12:11:51Z</time>
      </trkpt>
      <trkpt lat="48.62373" lon="7.75821">
        <ele>138</ele>
        <time>2020-08-08T12:11:53Z</time>
      </trkpt>
      <trkpt lat="48.62379" lon="7.75813">
        <ele>138</ele>
        <time>2020-08-08T12:11:55Z</time>
      </trkpt>
      <trkpt lat="48.62386" lon="7.75804">
        <ele>138</ele>
        <time>2020-08-08T12:11:57Z</time>
      </trkpt>
      <trkpt lat="48.62389" lon="7.75799">
        <ele>138</ele>
        <time>2020-08-08T12:11:58Z</time>
      </trkpt>
      <trkpt lat="48.62396" lon="7.7579">
        <ele>138</ele>
        <time>2020-08-08T12:12:00Z</time>
      </trkpt>
      <trkpt lat="48.62399" lon="7.75784">
        <ele>138</ele>
        <time>2020-08-08T12:12:01Z</time>
      </trkpt>
      <trkpt lat="48.62402" lon="7.75779">
        <ele>138</ele>
        <time>2020-08-08T12:12:02Z</time>
      </trkpt>
      <trkpt lat="48.6241" lon="7.75772">
        <ele>138</ele>
        <time>2020-08-08T12:12:04Z</time>
      </trkpt>
      <trkpt lat="48.62417" lon="7.75763">
        <ele>137</ele>
        <time>2020-08-08T12:12:06Z</time>
      </trkpt>
      <trkpt lat="48.62425" lon="7.75756">
        <ele>137</ele>
        <time>2020-08-08T12:12:08Z</time>
      </trkpt>
      <trkpt lat="48.62429" lon="7.75753">
        <ele>138</ele>
        <time>2020-08-08T12:12:09Z</time>
      </trkpt>
      <trkpt lat="48.62433" lon="7.75748">
        <ele>138</ele>
        <time>2020-08-08T12:12:10Z</time>
      </trkpt>
      <trkpt lat="48.62436" lon="7.75742">
        <ele>138</ele>
        <time>2020-08-08T12:12:11Z</time>
      </trkpt>
      <trkpt lat="48.6244" lon="7.75737">
        <ele>138</ele>
        <time>2020-08-08T12:12:12Z</time>
      </trkpt>
      <trkpt lat="48.62443" lon="7.75731">
        <ele>137</ele>
        <time>2020-08-08T12:12:13Z</time>
      </trkpt>
      <trkpt lat="48.62447" lon="7.75727">
        <ele>138</ele>
        <time>2020-08-08T12:12:14Z</time>
      </trkpt>
      <trkpt lat="48.62451" lon="7.75721">
        <ele>138</ele>
        <time>2020-08-08T12:12:15Z</time>
      </trkpt>
      <trkpt lat="48.62454" lon="7.75714">
        <ele>137</ele>
        <time>2020-08-08T12:12:16Z</time>
      </trkpt>
      <trkpt lat="48.62458" lon="7.75708">
        <ele>137</ele>
        <time>2020-08-08T12:12:17Z</time>
      </trkpt>
      <trkpt lat="48.62466" lon="7.75699">
        <ele>137</ele>
        <time>2020-08-08T12:12:19Z</time>
      </trkpt>
      <trkpt lat="48.6247" lon="7.75695">
        <ele>137</ele>
        <time>2020-08-08T12:12:20Z</time>
      </trkpt>
      <trkpt lat="48.62473" lon="7.7569">
        <ele>137</ele>
        <time>2020-08-08T12:12:21Z</time>
      </trkpt>
      <trkpt lat="48.62478" lon="7.75684">
        <ele>137</ele>
        <time>2020-08-08T12:12:22Z</time>
      </trkpt>
      <trkpt lat="48.62482" lon="7.75679">
        <ele>137</ele>
        <time>2020-08-08T12:12:23Z</time>
      </trkpt>
      <trkpt lat="48.62486" lon="7.75675">
        <ele>137</ele>
        <time>2020-08-08T12:12:24Z</time>
      </trkpt>
      <trkpt lat="48.62489" lon="7.75669">
        <ele>137</ele>
        <time>2020-08-08T12:12:25Z</time>
      </trkpt>
      <trkpt lat="48.62494" lon="7.75664">
        <ele>137</ele>
        <time>2020-08-08T12:12:26Z</time>
      </trkpt>
      <trkpt lat="48.62498" lon="7.75661">
        <ele>137</ele>
        <time>2020-08-08T12:12:27Z</time>
      </trkpt>
      <trkpt lat="48.62502" lon="7.75656">
        <ele>136</ele>
        <time>2020-08-08T12:12:28Z</time>
      </trkpt>
      <trkpt lat="48.62508" lon="7.75649">
        <ele>136</ele>
        <time>2020-08-08T12:12:30Z</time>
      </trkpt>
      <trkpt lat="48.62512" lon="7.75644">
        <ele>136</ele>
        <time>2020-08-08T12:12:31Z</time>
      </trkpt>
      <trkpt lat="48.62515" lon="7.75638">
        <ele>136</ele>
        <time>2020-08-08T12:12:32Z</time>
      </trkpt>
      <trkpt lat="48.62523" lon="7.75628">
        <ele>135</ele>
        <time>2020-08-08T12:12:34Z</time>
      </trkpt>
      <trkpt lat="48.6253" lon="7.75621">
        <ele>135</ele>
        <time>2020-08-08T12:12:36Z</time>
      </trkpt>
      <trkpt lat="48.62535" lon="7.75616">
        <ele>135</ele>
        <time>2020-08-08T12:12:37Z</time>
      </trkpt>
      <trkpt lat="48.62539" lon="7.75611">
        <ele>136</ele>
        <time>2020-08-08T12:12:38Z</time>
      </trkpt>
      <trkpt lat="48.62545" lon="7.75601">
        <ele>137</ele>
        <time>2020-08-08T12:12:40Z</time>
      </trkpt>
      <trkpt lat="48.62548" lon="7.75594">
        <ele>137</ele>
        <time>2020-08-08T12:12:41Z</time>
      </trkpt>
      <trkpt lat="48.62552" lon="7.75588">
        <ele>137</ele>
        <time>2020-08-08T12:12:42Z</time>
      </trkpt>
      <trkpt lat="48.62555" lon="7.75583">
        <ele>138</ele>
        <time>2020-08-08T12:12:43Z</time>
      </trkpt>
      <trkpt lat="48.62561" lon="7.75576">
        <ele>139</ele>
        <time>2020-08-08T12:12:45Z</time>
      </trkpt>
      <trkpt lat="48.6256" lon="7.75568">
        <ele>138</ele>
        <time>2020-08-08T12:12:46Z</time>
      </trkpt>
      <trkpt lat="48.62563" lon="7.75559">
        <ele>138</ele>
        <time>2020-08-08T12:12:48Z</time>
      </trkpt>
      <trkpt lat="48.62571" lon="7.75554">
        <ele>139</ele>
        <time>2020-08-08T12:12:51Z</time>
      </trkpt>
      <trkpt lat="48.62576" lon="7.75553">
        <ele>140</ele>
        <time>2020-08-08T12:12:52Z</time>
      </trkpt>
      <trkpt lat="48.62582" lon="7.75554">
        <ele>140</ele>
        <time>2020-08-08T12:12:53Z</time>
      </trkpt>
      <trkpt lat="48.62584" lon="7.75547">
        <ele>139</ele>
        <time>2020-08-08T12:12:54Z</time>
      </trkpt>
      <trkpt lat="48.62588" lon="7.75537">
        <ele>138</ele>
        <time>2020-08-08T12:12:56Z</time>
      </trkpt>
      <trkpt lat="48.62593" lon="7.75532">
        <ele>138</ele>
        <time>2020-08-08T12:12:57Z</time>
      </trkpt>
      <trkpt lat="48.62597" lon="7.75527">
        <ele>137</ele>
        <time>2020-08-08T12:12:58Z</time>
      </trkpt>
      <trkpt lat="48.62602" lon="7.75519">
        <ele>137</ele>
        <time>2020-08-08T12:13:00Z</time>
      </trkpt>
      <trkpt lat="48.62606" lon="7.75514">
        <ele>137</ele>
        <time>2020-08-08T12:13:01Z</time>
      </trkpt>
      <trkpt lat="48.6261" lon="7.75509">
        <ele>137</ele>
        <time>2020-08-08T12:13:02Z</time>
      </trkpt>
      <trkpt lat="48.62618" lon="7.75503">
        <ele>137</ele>
        <time>2020-08-08T12:13:04Z</time>
      </trkpt>
      <trkpt lat="48.62626" lon="7.75495">
        <ele>137</ele>
        <time>2020-08-08T12:13:06Z</time>
      </trkpt>
      <trkpt lat="48.6263" lon="7.75491">
        <ele>138</ele>
        <time>2020-08-08T12:13:07Z</time>
      </trkpt>
      <trkpt lat="48.62638" lon="7.75487">
        <ele>139</ele>
        <time>2020-08-08T12:13:09Z</time>
      </trkpt>
      <trkpt lat="48.62642" lon="7.75483">
        <ele>139</ele>
        <time>2020-08-08T12:13:10Z</time>
      </trkpt>
      <trkpt lat="48.62646" lon="7.7548">
        <ele>139</ele>
        <time>2020-08-08T12:13:11Z</time>
      </trkpt>
      <trkpt lat="48.62651" lon="7.75478">
        <ele>139</ele>
        <time>2020-08-08T12:13:12Z</time>
      </trkpt>
      <trkpt lat="48.62655" lon="7.75473">
        <ele>138</ele>
        <time>2020-08-08T12:13:13Z</time>
      </trkpt>
      <trkpt lat="48.62659" lon="7.7547">
        <ele>138</ele>
        <time>2020-08-08T12:13:14Z</time>
      </trkpt>
      <trkpt lat="48.62661" lon="7.7546">
        <ele>138</ele>
        <time>2020-08-08T12:13:15Z</time>
      </trkpt>
      <trkpt lat="48.62664" lon="7.75454">
        <ele>138</ele>
        <time>2020-08-08T12:13:16Z</time>
      </trkpt>
      <trkpt lat="48.62668" lon="7.7545">
        <ele>138</ele>
        <time>2020-08-08T12:13:17Z</time>
      </trkpt>
      <trkpt lat="48.62675" lon="7.75446">
        <ele>139</ele>
        <time>2020-08-08T12:13:18Z</time>
      </trkpt>
      <trkpt lat="48.62682" lon="7.75448">
        <ele>140</ele>
        <time>2020-08-08T12:13:20Z</time>
      </trkpt>
      <trkpt lat="48.62688" lon="7.75449">
        <ele>141</ele>
        <time>2020-08-08T12:13:22Z</time>
      </trkpt>
      <trkpt lat="48.62696" lon="7.75445">
        <ele>140</ele>
        <time>2020-08-08T12:13:24Z</time>
      </trkpt>
      <trkpt lat="48.62705" lon="7.75444">
        <ele>140</ele>
        <time>2020-08-08T12:13:26Z</time>
      </trkpt>
      <trkpt lat="48.62709" lon="7.75443">
        <ele>140</ele>
        <time>2020-08-08T12:13:27Z</time>
      </trkpt>
      <trkpt lat="48.62715" lon="7.75446">
        <ele>141</ele>
        <time>2020-08-08T12:13:28Z</time>
      </trkpt>
      <trkpt lat="48.62719" lon="7.75444">
        <ele>140</ele>
        <time>2020-08-08T12:13:29Z</time>
      </trkpt>
      <trkpt lat="48.62724" lon="7.75444">
        <ele>140</ele>
        <time>2020-08-08T12:13:30Z</time>
      </trkpt>
      <trkpt lat="48.6273" lon="7.75443">
        <ele>140</ele>
        <time>2020-08-08T12:13:31Z</time>
      </trkpt>
      <trkpt lat="48.62734" lon="7.75441">
        <ele>140</ele>
        <time>2020-08-08T12:13:32Z</time>
      </trkpt>
      <trkpt lat="48.6274" lon="7.7544">
        <ele>140</ele>
        <time>2020-08-08T12:13:33Z</time>
      </trkpt>
      <trkpt lat="48.62746" lon="7.75443">
        <ele>141</ele>
        <time>2020-08-08T12:13:34Z</time>
      </trkpt>
      <trkpt lat="48.62754" lon="7.75442">
        <ele>141</ele>
        <time>2020-08-08T12:13:36Z</time>
      </trkpt>
      <trkpt lat="48.62759" lon="7.75442">
        <ele>141</ele>
        <time>2020-08-08T12:13:37Z</time>
      </trkpt>
      <trkpt lat="48.62769" lon="7.75444">
        <ele>142</ele>
        <time>2020-08-08T12:13:39Z</time>
      </trkpt>
      <trkpt lat="48.62774" lon="7.75445">
        <ele>142</ele>
        <time>2020-08-08T12:13:40Z</time>
      </trkpt>
      <trkpt lat="48.62779" lon="7.75445">
        <ele>143</ele>
        <time>2020-08-08T12:13:41Z</time>
      </trkpt>
      <trkpt lat="48.62787" lon="7.75444">
        <ele>143</ele>
        <time>2020-08-08T12:13:43Z</time>
      </trkpt>
      <trkpt lat="48.62792" lon="7.75443">
        <ele>142</ele>
        <time>2020-08-08T12:13:44Z</time>
      </trkpt>
      <trkpt lat="48.62802" lon="7.75443">
        <ele>142</ele>
        <time>2020-08-08T12:13:46Z</time>
      </trkpt>
      <trkpt lat="48.62811" lon="7.75445">
        <ele>141</ele>
        <time>2020-08-08T12:13:48Z</time>
      </trkpt>
      <trkpt lat="48.6282" lon="7.75448">
        <ele>140</ele>
        <time>2020-08-08T12:13:50Z</time>
      </trkpt>
      <trkpt lat="48.62828" lon="7.7545">
        <ele>140</ele>
        <time>2020-08-08T12:13:52Z</time>
      </trkpt>
      <trkpt lat="48.62833" lon="7.75455">
        <ele>141</ele>
        <time>2020-08-08T12:13:53Z</time>
      </trkpt>
      <trkpt lat="48.62837" lon="7.75456">
        <ele>142</ele>
        <time>2020-08-08T12:13:54Z</time>
      </trkpt>
      <trkpt lat="48.62842" lon="7.75459">
        <ele>142</ele>
        <time>2020-08-08T12:13:55Z</time>
      </trkpt>
      <trkpt lat="48.62846" lon="7.75462">
        <ele>142</ele>
        <time>2020-08-08T12:13:56Z</time>
      </trkpt>
      <trkpt lat="48.62853" lon="7.75466">
        <ele>141</ele>
        <time>2020-08-08T12:13:58Z</time>
      </trkpt>
      <trkpt lat="48.62857" lon="7.75469">
        <ele>141</ele>
        <time>2020-08-08T12:13:59Z</time>
      </trkpt>
      <trkpt lat="48.62865" lon="7.75472">
        <ele>140</ele>
        <time>2020-08-08T12:14:01Z</time>
      </trkpt>
      <trkpt lat="48.62874" lon="7.7548">
        <ele>140</ele>
        <time>2020-08-08T12:14:03Z</time>
      </trkpt>
      <trkpt lat="48.62885" lon="7.75488">
        <ele>140</ele>
        <time>2020-08-08T12:14:06Z</time>
      </trkpt>
      <trkpt lat="48.62893" lon="7.75494">
        <ele>139</ele>
        <time>2020-08-08T12:14:08Z</time>
      </trkpt>
      <trkpt lat="48.62904" lon="7.75502">
        <ele>139</ele>
        <time>2020-08-08T12:14:11Z</time>
      </trkpt>
      <trkpt lat="48.62911" lon="7.75509">
        <ele>139</ele>
        <time>2020-08-08T12:14:13Z</time>
      </trkpt>
      <trkpt lat="48.62915" lon="7.75513">
        <ele>138</ele>
        <time>2020-08-08T12:14:14Z</time>
      </trkpt>
      <trkpt lat="48.62924" lon="7.75521">
        <ele>138</ele>
        <time>2020-08-08T12:14:16Z</time>
      </trkpt>
      <trkpt lat="48.62931" lon="7.75529">
        <ele>138</ele>
        <time>2020-08-08T12:14:18Z</time>
      </trkpt>
      <trkpt lat="48.62939" lon="7.75537">
        <ele>138</ele>
        <time>2020-08-08T12:14:20Z</time>
      </trkpt>
      <trkpt lat="48.62946" lon="7.75544">
        <ele>137</ele>
        <time>2020-08-08T12:14:22Z</time>
      </trkpt>
      <trkpt lat="48.62954" lon="7.75551">
        <ele>138</ele>
        <time>2020-08-08T12:14:24Z</time>
      </trkpt>
      <trkpt lat="48.62962" lon="7.75558">
        <ele>138</ele>
        <time>2020-08-08T12:14:26Z</time>
      </trkpt>
      <trkpt lat="48.62966" lon="7.75561">
        <ele>137</ele>
        <time>2020-08-08T12:14:27Z</time>
      </trkpt>
      <trkpt lat="48.62974" lon="7.75567">
        <ele>137</ele>
        <time>2020-08-08T12:14:29Z</time>
      </trkpt>
      <trkpt lat="48.62978" lon="7.7557">
        <ele>137</ele>
        <time>2020-08-08T12:14:30Z</time>
      </trkpt>
      <trkpt lat="48.62986" lon="7.75575">
        <ele>138</ele>
        <time>2020-08-08T12:14:32Z</time>
      </trkpt>
      <trkpt lat="48.62994" lon="7.7558">
        <ele>138</ele>
        <time>2020-08-08T12:14:34Z</time>
      </trkpt>
      <trkpt lat="48.63007" lon="7.75586">
        <ele>138</ele>
        <time>2020-08-08T12:14:37Z</time>
      </trkpt>
      <trkpt lat="48.63015" lon="7.7559">
        <ele>138</ele>
        <time>2020-08-08T12:14:39Z</time>
      </trkpt>
      <trkpt lat="48.63019" lon="7.75592">
        <ele>138</ele>
        <time>2020-08-08T12:14:40Z</time>
      </trkpt>
      <trkpt lat="48.63027" lon="7.75597">
        <ele>138</ele>
        <time>2020-08-08T12:14:42Z</time>
      </trkpt>
      <trkpt lat="48.63035" lon="7.75601">
        <ele>139</ele>
        <time>2020-08-08T12:14:44Z</time>
      </trkpt>
      <trkpt lat="48.6304" lon="7.75603">
        <ele>139</ele>
        <time>2020-08-08T12:14:45Z</time>
      </trkpt>
      <trkpt lat="48.63049" lon="7.75604">
        <ele>138</ele>
        <time>2020-08-08T12:14:47Z</time>
      </trkpt>
      <trkpt lat="48.63053" lon="7.75605">
        <ele>138</ele>
        <time>2020-08-08T12:14:48Z</time>
      </trkpt>
      <trkpt lat="48.63062" lon="7.75607">
        <ele>138</ele>
        <time>2020-08-08T12:14:50Z</time>
      </trkpt>
      <trkpt lat="48.63071" lon="7.75609">
        <ele>138</ele>
        <time>2020-08-08T12:14:52Z</time>
      </trkpt>
      <trkpt lat="48.6308" lon="7.75612">
        <ele>138</ele>
        <time>2020-08-08T12:14:54Z</time>
      </trkpt>
      <trkpt lat="48.63088" lon="7.75613">
        <ele>138</ele>
        <time>2020-08-08T12:14:56Z</time>
      </trkpt>
      <trkpt lat="48.63093" lon="7.75614">
        <ele>138</ele>
        <time>2020-08-08T12:14:57Z</time>
      </trkpt>
      <trkpt lat="48.63102" lon="7.75613">
        <ele>138</ele>
        <time>2020-08-08T12:14:59Z</time>
      </trkpt>
      <trkpt lat="48.63107" lon="7.75614">
        <ele>138</ele>
        <time>2020-08-08T12:15:00Z</time>
      </trkpt>
      <trkpt lat="48.63115" lon="7.75613">
        <ele>138</ele>
        <time>2020-08-08T12:15:02Z</time>
      </trkpt>
      <trkpt lat="48.63123" lon="7.75614">
        <ele>138</ele>
        <time>2020-08-08T12:15:04Z</time>
      </trkpt>
      <trkpt lat="48.63135" lon="7.7562">
        <ele>138</ele>
        <time>2020-08-08T12:15:07Z</time>
      </trkpt>
      <trkpt lat="48.63139" lon="7.75618">
        <ele>137</ele>
        <time>2020-08-08T12:15:08Z</time>
      </trkpt>
      <trkpt lat="48.63148" lon="7.75618">
        <ele>137</ele>
        <time>2020-08-08T12:15:10Z</time>
      </trkpt>
      <trkpt lat="48.63153" lon="7.75616">
        <ele>137</ele>
        <time>2020-08-08T12:15:11Z</time>
      </trkpt>
      <trkpt lat="48.63158" lon="7.75618">
        <ele>137</ele>
        <time>2020-08-08T12:15:12Z</time>
      </trkpt>
      <trkpt lat="48.63166" lon="7.75614">
        <ele>138</ele>
        <time>2020-08-08T12:15:14Z</time>
      </trkpt>
      <trkpt lat="48.63174" lon="7.75611">
        <ele>138</ele>
        <time>2020-08-08T12:15:16Z</time>
      </trkpt>
      <trkpt lat="48.63183" lon="7.75613">
        <ele>137</ele>
        <time>2020-08-08T12:15:18Z</time>
      </trkpt>
      <trkpt lat="48.63191" lon="7.75609">
        <ele>137</ele>
        <time>2020-08-08T12:15:20Z</time>
      </trkpt>
      <trkpt lat="48.632" lon="7.75605">
        <ele>136</ele>
        <time>2020-08-08T12:15:22Z</time>
      </trkpt>
      <trkpt lat="48.63205" lon="7.75603">
        <ele>136</ele>
        <time>2020-08-08T12:15:23Z</time>
      </trkpt>
      <trkpt lat="48.63209" lon="7.756">
        <ele>135</ele>
        <time>2020-08-08T12:15:24Z</time>
      </trkpt>
      <trkpt lat="48.63214" lon="7.75595">
        <ele>135</ele>
        <time>2020-08-08T12:15:25Z</time>
      </trkpt>
      <trkpt lat="48.63219" lon="7.75595">
        <ele>135</ele>
        <time>2020-08-08T12:15:26Z</time>
      </trkpt>
      <trkpt lat="48.63224" lon="7.75592">
        <ele>135</ele>
        <time>2020-08-08T12:15:27Z</time>
      </trkpt>
      <trkpt lat="48.63229" lon="7.75589">
        <ele>135</ele>
        <time>2020-08-08T12:15:28Z</time>
      </trkpt>
      <trkpt lat="48.63233" lon="7.75585">
        <ele>136</ele>
        <time>2020-08-08T12:15:29Z</time>
      </trkpt>
      <trkpt lat="48.63244" lon="7.75577">
        <ele>136</ele>
        <time>2020-08-08T12:15:32Z</time>
      </trkpt>
      <trkpt lat="48.63248" lon="7.75574">
        <ele>137</ele>
        <time>2020-08-08T12:15:33Z</time>
      </trkpt>
      <trkpt lat="48.63255" lon="7.75567">
        <ele>138</ele>
        <time>2020-08-08T12:15:35Z</time>
      </trkpt>
      <trkpt lat="48.63262" lon="7.75562">
        <ele>138</ele>
        <time>2020-08-08T12:15:37Z</time>
      </trkpt>
      <trkpt lat="48.63269" lon="7.75555">
        <ele>139</ele>
        <time>2020-08-08T12:15:39Z</time>
      </trkpt>
      <trkpt lat="48.63276" lon="7.75547">
        <ele>139</ele>
        <time>2020-08-08T12:15:41Z</time>
      </trkpt>
      <trkpt lat="48.63279" lon="7.75543">
        <ele>139</ele>
        <time>2020-08-08T12:15:42Z</time>
      </trkpt>
      <trkpt lat="48.63287" lon="7.75534">
        <ele>138</ele>
        <time>2020-08-08T12:15:44Z</time>
      </trkpt>
      <trkpt lat="48.63292" lon="7.7553">
        <ele>138</ele>
        <time>2020-08-08T12:15:45Z</time>
      </trkpt>
      <trkpt lat="48.63294" lon="7.75523">
        <ele>137</ele>
        <time>2020-08-08T12:15:46Z</time>
      </trkpt>
      <trkpt lat="48.63298" lon="7.75519">
        <ele>137</ele>
        <time>2020-08-08T12:15:47Z</time>
      </trkpt>
      <trkpt lat="48.63302" lon="7.75514">
        <ele>137</ele>
        <time>2020-08-08T12:15:48Z</time>
      </trkpt>
      <trkpt lat="48.63307" lon="7.7551">
        <ele>137</ele>
        <time>2020-08-08T12:15:49Z</time>
      </trkpt>
      <trkpt lat="48.63314" lon="7.75504">
        <ele>136</ele>
        <time>2020-08-08T12:15:51Z</time>
      </trkpt>
      <trkpt lat="48.63317" lon="7.75498">
        <ele>136</ele>
        <time>2020-08-08T12:15:52Z</time>
      </trkpt>
      <trkpt lat="48.63323" lon="7.75501">
        <ele>136</ele>
        <time>2020-08-08T12:15:53Z</time>
      </trkpt>
      <trkpt lat="48.63326" lon="7.75496">
        <ele>136</ele>
        <time>2020-08-08T12:15:54Z</time>
      </trkpt>
      <trkpt lat="48.63332" lon="7.75488">
        <ele>136</ele>
        <time>2020-08-08T12:15:56Z</time>
      </trkpt>
      <trkpt lat="48.6334" lon="7.75481">
        <ele>137</ele>
        <time>2020-08-08T12:15:58Z</time>
      </trkpt>
      <trkpt lat="48.63345" lon="7.75473">
        <ele>136</ele>
        <time>2020-08-08T12:16:00Z</time>
      </trkpt>
      <trkpt lat="48.63352" lon="7.75464">
        <ele>136</ele>
        <time>2020-08-08T12:16:02Z</time>
      </trkpt>
      <trkpt lat="48.63357" lon="7.75456">
        <ele>137</ele>
        <time>2020-08-08T12:16:04Z</time>
      </trkpt>
      <trkpt lat="48.63363" lon="7.75448">
        <ele>138</ele>
        <time>2020-08-08T12:16:06Z</time>
      </trkpt>
      <trkpt lat="48.63367" lon="7.75443">
        <ele>138</ele>
        <time>2020-08-08T12:16:08Z</time>
      </trkpt>
      <trkpt lat="48.63371" lon="7.75436">
        <ele>138</ele>
        <time>2020-08-08T12:16:10Z</time>
      </trkpt>
      <trkpt lat="48.63375" lon="7.75432">
        <ele>138</ele>
        <time>2020-08-08T12:16:12Z</time>
      </trkpt>
      <trkpt lat="48.63377" lon="7.75423">
        <ele>139</ele>
        <time>2020-08-08T12:16:15Z</time>
      </trkpt>
      <trkpt lat="48.6338" lon="7.75418">
        <ele>139</ele>
        <time>2020-08-08T12:16:17Z</time>
      </trkpt>
      <trkpt lat="48.63385" lon="7.75409">
        <ele>139</ele>
        <time>2020-08-08T12:16:19Z</time>
      </trkpt>
      <trkpt lat="48.63389" lon="7.75399">
        <ele>140</ele>
        <time>2020-08-08T12:16:21Z</time>
      </trkpt>
      <trkpt lat="48.63392" lon="7.75393">
        <ele>140</ele>
        <time>2020-08-08T12:16:22Z</time>
      </trkpt>
      <trkpt lat="48.63395" lon="7.75385">
        <ele>140</ele>
        <time>2020-08-08T12:16:23Z</time>
      </trkpt>
      <trkpt lat="48.63398" lon="7.75382">
        <ele>140</ele>
        <time>2020-08-08T12:16:24Z</time>
      </trkpt>
      <trkpt lat="48.63401" lon="7.75376">
        <ele>140</ele>
        <time>2020-08-08T12:16:25Z</time>
      </trkpt>
      <trkpt lat="48.63405" lon="7.7537">
        <ele>139</ele>
        <time>2020-08-08T12:16:26Z</time>
      </trkpt>
      <trkpt lat="48.63411" lon="7.75363">
        <ele>139</ele>
        <time>2020-08-08T12:16:28Z</time>
      </trkpt>
      <trkpt lat="48.63416" lon="7.75353">
        <ele>139</ele>
        <time>2020-08-08T12:16:30Z</time>
      </trkpt>
      <trkpt lat="48.63421" lon="7.75345">
        <ele>139</ele>
        <time>2020-08-08T12:16:32Z</time>
      </trkpt>
      <trkpt lat="48.63425" lon="7.75337">
        <ele>139</ele>
        <time>2020-08-08T12:16:34Z</time>
      </trkpt>
      <trkpt lat="48.6343" lon="7.75331">
        <ele>139</ele>
        <time>2020-08-08T12:16:36Z</time>
      </trkpt>
      <trkpt lat="48.63434" lon="7.75322">
        <ele>139</ele>
        <time>2020-08-08T12:16:38Z</time>
      </trkpt>
      <trkpt lat="48.63438" lon="7.75314">
        <ele>139</ele>
        <time>2020-08-08T12:16:40Z</time>
      </trkpt>
      <trkpt lat="48.63444" lon="7.75305">
        <ele>139</ele>
        <time>2020-08-08T12:16:42Z</time>
      </trkpt>
      <trkpt lat="48.63448" lon="7.75295">
        <ele>139</ele>
        <time>2020-08-08T12:16:44Z</time>
      </trkpt>
      <trkpt lat="48.6345" lon="7.75286">
        <ele>139</ele>
        <time>2020-08-08T12:16:46Z</time>
      </trkpt>
      <trkpt lat="48.63452" lon="7.75278">
        <ele>138</ele>
        <time>2020-08-08T12:16:48Z</time>
      </trkpt>
      <trkpt lat="48.63456" lon="7.75269">
        <ele>138</ele>
        <time>2020-08-08T12:16:50Z</time>
      </trkpt>
      <trkpt lat="48.63459" lon="7.75258">
        <ele>138</ele>
        <time>2020-08-08T12:16:52Z</time>
      </trkpt>
      <trkpt lat="48.63462" lon="7.75247">
        <ele>137</ele>
        <time>2020-08-08T12:16:54Z</time>
      </trkpt>
      <trkpt lat="48.63466" lon="7.75236">
        <ele>137</ele>
        <time>2020-08-08T12:16:56Z</time>
      </trkpt>
      <trkpt lat="48.63471" lon="7.75229">
        <ele>137</ele>
        <time>2020-08-08T12:16:58Z</time>
      </trkpt>
      <trkpt lat="48.63474" lon="7.75219">
        <ele>138</ele>
        <time>2020-08-08T12:17:00Z</time>
      </trkpt>
      <trkpt lat="48.63478" lon="7.7521">
        <ele>138</ele>
        <time>2020-08-08T12:17:02Z</time>
      </trkpt>
      <trkpt lat="48.63483" lon="7.752">
        <ele>138</ele>
        <time>2020-08-08T12:17:04Z</time>
      </trkpt>
      <trkpt lat="48.63488" lon="7.75192">
        <ele>138</ele>
        <time>2020-08-08T12:17:06Z</time>
      </trkpt>
      <trkpt lat="48.63491" lon="7.75187">
        <ele>137</ele>
        <time>2020-08-08T12:17:07Z</time>
      </trkpt>
      <trkpt lat="48.63496" lon="7.75177">
        <ele>137</ele>
        <time>2020-08-08T12:17:09Z</time>
      </trkpt>
      <trkpt lat="48.635" lon="7.75171">
        <ele>137</ele>
        <time>2020-08-08T12:17:10Z</time>
      </trkpt>
      <trkpt lat="48.63503" lon="7.75166">
        <ele>137</ele>
        <time>2020-08-08T12:17:11Z</time>
      </trkpt>
      <trkpt lat="48.63506" lon="7.75161">
        <ele>137</ele>
        <time>2020-08-08T12:17:12Z</time>
      </trkpt>
      <trkpt lat="48.63512" lon="7.75152">
        <ele>137</ele>
        <time>2020-08-08T12:17:14Z</time>
      </trkpt>
      <trkpt lat="48.63518" lon="7.75143">
        <ele>137</ele>
        <time>2020-08-08T12:17:16Z</time>
      </trkpt>
      <trkpt lat="48.63522" lon="7.75137">
        <ele>137</ele>
        <time>2020-08-08T12:17:17Z</time>
      </trkpt>
      <trkpt lat="48.63525" lon="7.75132">
        <ele>137</ele>
        <time>2020-08-08T12:17:18Z</time>
      </trkpt>
      <trkpt lat="48.63532" lon="7.75123">
        <ele>137</ele>
        <time>2020-08-08T12:17:20Z</time>
      </trkpt>
      <trkpt lat="48.63539" lon="7.75115">
        <ele>137</ele>
        <time>2020-08-08T12:17:22Z</time>
      </trkpt>
      <trkpt lat="48.63547" lon="7.7511">
        <ele>137</ele>
        <time>2020-08-08T12:17:24Z</time>
      </trkpt>
      <trkpt lat="48.63554" lon="7.75101">
        <ele>137</ele>
        <time>2020-08-08T12:17:26Z</time>
      </trkpt>
      <trkpt lat="48.63558" lon="7.75097">
        <ele>137</ele>
        <time>2020-08-08T12:17:27Z</time>
      </trkpt>
      <trkpt lat="48.63563" lon="7.75096">
        <ele>137</ele>
        <time>2020-08-08T12:17:28Z</time>
      </trkpt>
      <trkpt lat="48.63567" lon="7.75092">
        <ele>137</ele>
        <time>2020-08-08T12:17:29Z</time>
      </trkpt>
      <trkpt lat="48.63571" lon="7.75089">
        <ele>138</ele>
        <time>2020-08-08T12:17:30Z</time>
      </trkpt>
      <trkpt lat="48.63575" lon="7.75085">
        <ele>138</ele>
        <time>2020-08-08T12:17:31Z</time>
      </trkpt>
      <trkpt lat="48.63578" lon="7.75078">
        <ele>138</ele>
        <time>2020-08-08T12:17:32Z</time>
      </trkpt>
      <trkpt lat="48.63583" lon="7.75075">
        <ele>138</ele>
        <time>2020-08-08T12:17:34Z</time>
      </trkpt>
      <trkpt lat="48.6359" lon="7.7507">
        <ele>139</ele>
        <time>2020-08-08T12:17:36Z</time>
      </trkpt>
      <trkpt lat="48.63598" lon="7.75065">
        <ele>139</ele>
        <time>2020-08-08T12:17:38Z</time>
      </trkpt>
      <trkpt lat="48.63605" lon="7.75058">
        <ele>139</ele>
        <time>2020-08-08T12:17:40Z</time>
      </trkpt>
      <trkpt lat="48.63611" lon="7.75053">
        <ele>138</ele>
        <time>2020-08-08T12:17:42Z</time>
      </trkpt>
      <trkpt lat="48.63617" lon="7.75046">
        <ele>138</ele>
        <time>2020-08-08T12:17:44Z</time>
      </trkpt>
      <trkpt lat="48.63625" lon="7.75042">
        <ele>139</ele>
        <time>2020-08-08T12:17:46Z</time>
      </trkpt>
      <trkpt lat="48.63633" lon="7.75036">
        <ele>138</ele>
        <time>2020-08-08T12:17:48Z</time>
      </trkpt>
      <trkpt lat="48.6364" lon="7.75032">
        <ele>139</ele>
        <time>2020-08-08T12:17:50Z</time>
      </trkpt>
      <trkpt lat="48.63648" lon="7.75029">
        <ele>139</ele>
        <time>2020-08-08T12:17:52Z</time>
      </trkpt>
      <trkpt lat="48.63652" lon="7.75026">
        <ele>139</ele>
        <time>2020-08-08T12:17:53Z</time>
      </trkpt>
      <trkpt lat="48.63657" lon="7.75022">
        <ele>139</ele>
        <time>2020-08-08T12:17:55Z</time>
      </trkpt>
      <trkpt lat="48.63662" lon="7.7502">
        <ele>139</ele>
        <time>2020-08-08T12:17:57Z</time>
      </trkpt>
      <trkpt lat="48.63668" lon="7.75016">
        <ele>139</ele>
        <time>2020-08-08T12:17:59Z</time>
      </trkpt>
      <trkpt lat="48.63674" lon="7.75012">
        <ele>139</ele>
        <time>2020-08-08T12:18:01Z</time>
      </trkpt>
      <trkpt lat="48.63681" lon="7.75009">
        <ele>140</ele>
        <time>2020-08-08T12:18:03Z</time>
      </trkpt>
      <trkpt lat="48.63686" lon="7.75006">
        <ele>140</ele>
        <time>2020-08-08T12:18:04Z</time>
      </trkpt>
      <trkpt lat="48.63693" lon="7.75001">
        <ele>141</ele>
        <time>2020-08-08T12:18:06Z</time>
      </trkpt>
      <trkpt lat="48.63701" lon="7.74997">
        <ele>141</ele>
        <time>2020-08-08T12:18:08Z</time>
      </trkpt>
      <trkpt lat="48.63705" lon="7.74994">
        <ele>141</ele>
        <time>2020-08-08T12:18:09Z</time>
      </trkpt>
      <trkpt lat="48.63714" lon="7.74989">
        <ele>141</ele>
        <time>2020-08-08T12:18:11Z</time>
      </trkpt>
      <trkpt lat="48.63722" lon="7.74984">
        <ele>141</ele>
        <time>2020-08-08T12:18:13Z</time>
      </trkpt>
      <trkpt lat="48.63729" lon="7.74979">
        <ele>141</ele>
        <time>2020-08-08T12:18:15Z</time>
      </trkpt>
      <trkpt lat="48.63737" lon="7.74974">
        <ele>141</ele>
        <time>2020-08-08T12:18:17Z</time>
      </trkpt>
      <trkpt lat="48.63745" lon="7.7497">
        <ele>141</ele>
        <time>2020-08-08T12:18:19Z</time>
      </trkpt>
      <trkpt lat="48.6375" lon="7.74966">
        <ele>141</ele>
        <time>2020-08-08T12:18:20Z</time>
      </trkpt>
      <trkpt lat="48.63758" lon="7.74961">
        <ele>141</ele>
        <time>2020-08-08T12:18:22Z</time>
      </trkpt>
      <trkpt lat="48.63762" lon="7.74958">
        <ele>141</ele>
        <time>2020-08-08T12:18:23Z</time>
      </trkpt>
      <trkpt lat="48.6377" lon="7.74951">
        <ele>140</ele>
        <time>2020-08-08T12:18:25Z</time>
      </trkpt>
      <trkpt lat="48.63775" lon="7.74947">
        <ele>140</ele>
        <time>2020-08-08T12:18:26Z</time>
      </trkpt>
      <trkpt lat="48.63779" lon="7.74943">
        <ele>140</ele>
        <time>2020-08-08T12:18:27Z</time>
      </trkpt>
      <trkpt lat="48.63784" lon="7.74939">
        <ele>140</ele>
        <time>2020-08-08T12:18:28Z</time>
      </trkpt>
      <trkpt lat="48.63788" lon="7.74934">
        <ele>140</ele>
        <time>2020-08-08T12:18:29Z</time>
      </trkpt>
      <trkpt lat="48.63793" lon="7.7493">
        <ele>140</ele>
        <time>2020-08-08T12:18:30Z</time>
      </trkpt>
      <trkpt lat="48.63797" lon="7.74924">
        <ele>140</ele>
        <time>2020-08-08T12:18:31Z</time>
      </trkpt>
      <trkpt lat="48.63802" lon="7.74921">
        <ele>140</ele>
        <time>2020-08-08T12:18:32Z</time>
      </trkpt>
      <trkpt lat="48.63807" lon="7.74916">
        <ele>139</ele>
        <time>2020-08-08T12:18:33Z</time>
      </trkpt>
      <trkpt lat="48.63815" lon="7.74909">
        <ele>139</ele>
        <time>2020-08-08T12:18:35Z</time>
      </trkpt>
      <trkpt lat="48.63823" lon="7.74902">
        <ele>138</ele>
        <time>2020-08-08T12:18:37Z</time>
      </trkpt>
      <trkpt lat="48.63827" lon="7.74898">
        <ele>138</ele>
        <time>2020-08-08T12:18:38Z</time>
      </trkpt>
      <trkpt lat="48.63831" lon="7.74894">
        <ele>137</ele>
        <time>2020-08-08T12:18:39Z</time>
      </trkpt>
      <trkpt lat="48.63835" lon="7.74889">
        <ele>137</ele>
        <time>2020-08-08T12:18:40Z</time>
      </trkpt>
      <trkpt lat="48.63839" lon="7.74886">
        <ele>137</ele>
        <time>2020-08-08T12:18:41Z</time>
      </trkpt>
      <trkpt lat="48.63847" lon="7.74879">
        <ele>137</ele>
        <time>2020-08-08T12:18:43Z</time>
      </trkpt>
      <trkpt lat="48.63851" lon="7.74874">
        <ele>138</ele>
        <time>2020-08-08T12:18:44Z</time>
      </trkpt>
      <trkpt lat="48.63855" lon="7.7487">
        <ele>138</ele>
        <time>2020-08-08T12:18:45Z</time>
      </trkpt>
      <trkpt lat="48.63863" lon="7.74863">
        <ele>139</ele>
        <time>2020-08-08T12:18:47Z</time>
      </trkpt>
      <trkpt lat="48.63867" lon="7.74859">
        <ele>139</ele>
        <time>2020-08-08T12:18:48Z</time>
      </trkpt>
      <trkpt lat="48.63872" lon="7.74856">
        <ele>139</ele>
        <time>2020-08-08T12:18:49Z</time>
      </trkpt>
      <trkpt lat="48.63876" lon="7.74853">
        <ele>139</ele>
        <time>2020-08-08T12:18:50Z</time>
      </trkpt>
      <trkpt lat="48.6388" lon="7.7485">
        <ele>139</ele>
        <time>2020-08-08T12:18:51Z</time>
      </trkpt>
      <trkpt lat="48.63885" lon="7.74847">
        <ele>139</ele>
        <time>2020-08-08T12:18:52Z</time>
      </trkpt>
      <trkpt lat="48.6389" lon="7.74842">
        <ele>139</ele>
        <time>2020-08-08T12:18:53Z</time>
      </trkpt>
      <trkpt lat="48.63894" lon="7.74838">
        <ele>139</ele>
        <time>2020-08-08T12:18:54Z</time>
      </trkpt>
      <trkpt lat="48.63899" lon="7.74833">
        <ele>139</ele>
        <time>2020-08-08T12:18:55Z</time>
      </trkpt>
      <trkpt lat="48.63904" lon="7.74831">
        <ele>139</ele>
        <time>2020-08-08T12:18:56Z</time>
      </trkpt>
      <trkpt lat="48.63908" lon="7.74827">
        <ele>139</ele>
        <time>2020-08-08T12:18:57Z</time>
      </trkpt>
      <trkpt lat="48.63912" lon="7.74822">
        <ele>138</ele>
        <time>2020-08-08T12:18:58Z</time>
      </trkpt>
      <trkpt lat="48.63917" lon="7.74818">
        <ele>138</ele>
        <time>2020-08-08T12:18:59Z</time>
      </trkpt>
      <trkpt lat="48.63921" lon="7.74813">
        <ele>138</ele>
        <time>2020-08-08T12:19:00Z</time>
      </trkpt>
      <trkpt lat="48.63925" lon="7.74808">
        <ele>138</ele>
        <time>2020-08-08T12:19:01Z</time>
      </trkpt>
      <trkpt lat="48.63928" lon="7.74802">
        <ele>137</ele>
        <time>2020-08-08T12:19:02Z</time>
      </trkpt>
      <trkpt lat="48.63932" lon="7.74798">
        <ele>137</ele>
        <time>2020-08-08T12:19:03Z</time>
      </trkpt>
      <trkpt lat="48.63941" lon="7.7479">
        <ele>137</ele>
        <time>2020-08-08T12:19:05Z</time>
      </trkpt>
      <trkpt lat="48.63945" lon="7.74786">
        <ele>137</ele>
        <time>2020-08-08T12:19:06Z</time>
      </trkpt>
      <trkpt lat="48.6395" lon="7.74782">
        <ele>137</ele>
        <time>2020-08-08T12:19:07Z</time>
      </trkpt>
      <trkpt lat="48.63954" lon="7.74778">
        <ele>137</ele>
        <time>2020-08-08T12:19:08Z</time>
      </trkpt>
      <trkpt lat="48.63958" lon="7.74774">
        <ele>137</ele>
        <time>2020-08-08T12:19:09Z</time>
      </trkpt>
      <trkpt lat="48.63962" lon="7.74769">
        <ele>137</ele>
        <time>2020-08-08T12:19:10Z</time>
      </trkpt>
      <trkpt lat="48.63966" lon="7.74764">
        <ele>137</ele>
        <time>2020-08-08T12:19:11Z</time>
      </trkpt>
      <trkpt lat="48.63971" lon="7.74761">
        <ele>137</ele>
        <time>2020-08-08T12:19:12Z</time>
      </trkpt>
      <trkpt lat="48.63975" lon="7.74756">
        <ele>137</ele>
        <time>2020-08-08T12:19:13Z</time>
      </trkpt>
      <trkpt lat="48.63983" lon="7.74751">
        <ele>137</ele>
        <time>2020-08-08T12:19:15Z</time>
      </trkpt>
      <trkpt lat="48.63988" lon="7.74747">
        <ele>137</ele>
        <time>2020-08-08T12:19:16Z</time>
      </trkpt>
      <trkpt lat="48.63993" lon="7.74743">
        <ele>137</ele>
        <time>2020-08-08T12:19:17Z</time>
      </trkpt>
      <trkpt lat="48.64" lon="7.74736">
        <ele>137</ele>
        <time>2020-08-08T12:19:19Z</time>
      </trkpt>
      <trkpt lat="48.64005" lon="7.74733">
        <ele>137</ele>
        <time>2020-08-08T12:19:20Z</time>
      </trkpt>
      <trkpt lat="48.64012" lon="7.74728">
        <ele>137</ele>
        <time>2020-08-08T12:19:22Z</time>
      </trkpt>
      <trkpt lat="48.64021" lon="7.74721">
        <ele>138</ele>
        <time>2020-08-08T12:19:24Z</time>
      </trkpt>
      <trkpt lat="48.64028" lon="7.74712">
        <ele>138</ele>
        <time>2020-08-08T12:19:26Z</time>
      </trkpt>
      <trkpt lat="48.64036" lon="7.74705">
        <ele>139</ele>
        <time>2020-08-08T12:19:28Z</time>
      </trkpt>
      <trkpt lat="48.6404" lon="7.747">
        <ele>139</ele>
        <time>2020-08-08T12:19:29Z</time>
      </trkpt>
      <trkpt lat="48.64045" lon="7.74695">
        <ele>139</ele>
        <time>2020-08-08T12:19:30Z</time>
      </trkpt>
      <trkpt lat="48.64049" lon="7.74691">
        <ele>139</ele>
        <time>2020-08-08T12:19:31Z</time>
      </trkpt>
      <trkpt lat="48.64053" lon="7.74687">
        <ele>139</ele>
        <time>2020-08-08T12:19:32Z</time>
      </trkpt>
      <trkpt lat="48.64061" lon="7.74681">
        <ele>139</ele>
        <time>2020-08-08T12:19:34Z</time>
      </trkpt>
      <trkpt lat="48.6407" lon="7.74677">
        <ele>139</ele>
        <time>2020-08-08T12:19:36Z</time>
      </trkpt>
      <trkpt lat="48.64074" lon="7.74674">
        <ele>139</ele>
        <time>2020-08-08T12:19:37Z</time>
      </trkpt>
      <trkpt lat="48.64079" lon="7.74673">
        <ele>139</ele>
        <time>2020-08-08T12:19:38Z</time>
      </trkpt>
      <trkpt lat="48.64083" lon="7.74669">
        <ele>139</ele>
        <time>2020-08-08T12:19:39Z</time>
      </trkpt>
      <trkpt lat="48.64086" lon="7.74665">
        <ele>139</ele>
        <time>2020-08-08T12:19:40Z</time>
      </trkpt>
      <trkpt lat="48.6409" lon="7.7466">
        <ele>139</ele>
        <time>2020-08-08T12:19:41Z</time>
      </trkpt>
      <trkpt lat="48.64094" lon="7.74655">
        <ele>139</ele>
        <time>2020-08-08T12:19:42Z</time>
      </trkpt>
      <trkpt lat="48.641" lon="7.74652">
        <ele>139</ele>
        <time>2020-08-08T12:19:43Z</time>
      </trkpt>
      <trkpt lat="48.64104" lon="7.74648">
        <ele>139</ele>
        <time>2020-08-08T12:19:44Z</time>
      </trkpt>
      <trkpt lat="48.64108" lon="7.74644">
        <ele>139</ele>
        <time>2020-08-08T12:19:45Z</time>
      </trkpt>
      <trkpt lat="48.64113" lon="7.74639">
        <ele>139</ele>
        <time>2020-08-08T12:19:46Z</time>
      </trkpt>
      <trkpt lat="48.64116" lon="7.74635">
        <ele>139</ele>
        <time>2020-08-08T12:19:47Z</time>
      </trkpt>
      <trkpt lat="48.64121" lon="7.74632">
        <ele>140</ele>
        <time>2020-08-08T12:19:48Z</time>
      </trkpt>
      <trkpt lat="48.64125" lon="7.74628">
        <ele>140</ele>
        <time>2020-08-08T12:19:49Z</time>
      </trkpt>
      <trkpt lat="48.64129" lon="7.74623">
        <ele>140</ele>
        <time>2020-08-08T12:19:50Z</time>
      </trkpt>
      <trkpt lat="48.64138" lon="7.7462">
        <ele>141</ele>
        <time>2020-08-08T12:19:52Z</time>
      </trkpt>
      <trkpt lat="48.64142" lon="7.74616">
        <ele>140</ele>
        <time>2020-08-08T12:19:53Z</time>
      </trkpt>
      <trkpt lat="48.64146" lon="7.74611">
        <ele>140</ele>
        <time>2020-08-08T12:19:54Z</time>
      </trkpt>
      <trkpt lat="48.64151" lon="7.74607">
        <ele>140</ele>
        <time>2020-08-08T12:19:55Z</time>
      </trkpt>
      <trkpt lat="48.64159" lon="7.74601">
        <ele>140</ele>
        <time>2020-08-08T12:19:57Z</time>
      </trkpt>
      <trkpt lat="48.64167" lon="7.74593">
        <ele>140</ele>
        <time>2020-08-08T12:19:59Z</time>
      </trkpt>
      <trkpt lat="48.64171" lon="7.74589">
        <ele>140</ele>
        <time>2020-08-08T12:20:00Z</time>
      </trkpt>
      <trkpt lat="48.64179" lon="7.74582">
        <ele>140</ele>
        <time>2020-08-08T12:20:02Z</time>
      </trkpt>
      <trkpt lat="48.64183" lon="7.74579">
        <ele>140</ele>
        <time>2020-08-08T12:20:03Z</time>
      </trkpt>
      <trkpt lat="48.64187" lon="7.74575">
        <ele>140</ele>
        <time>2020-08-08T12:20:04Z</time>
      </trkpt>
      <trkpt lat="48.64192" lon="7.74571">
        <ele>140</ele>
        <time>2020-08-08T12:20:05Z</time>
      </trkpt>
      <trkpt lat="48.64196" lon="7.74567">
        <ele>139</ele>
        <time>2020-08-08T12:20:06Z</time>
      </trkpt>
      <trkpt lat="48.64201" lon="7.74563">
        <ele>139</ele>
        <time>2020-08-08T12:20:07Z</time>
      </trkpt>
      <trkpt lat="48.64206" lon="7.74562">
        <ele>140</ele>
        <time>2020-08-08T12:20:08Z</time>
      </trkpt>
      <trkpt lat="48.64209" lon="7.74557">
        <ele>139</ele>
        <time>2020-08-08T12:20:09Z</time>
      </trkpt>
      <trkpt lat="48.64213" lon="7.74553">
        <ele>139</ele>
        <time>2020-08-08T12:20:10Z</time>
      </trkpt>
      <trkpt lat="48.64217" lon="7.74547">
        <ele>139</ele>
        <time>2020-08-08T12:20:11Z</time>
      </trkpt>
      <trkpt lat="48.64221" lon="7.74543">
        <ele>140</ele>
        <time>2020-08-08T12:20:12Z</time>
      </trkpt>
      <trkpt lat="48.64225" lon="7.74539">
        <ele>140</ele>
        <time>2020-08-08T12:20:13Z</time>
      </trkpt>
      <trkpt lat="48.6423" lon="7.74535">
        <ele>140</ele>
        <time>2020-08-08T12:20:14Z</time>
      </trkpt>
      <trkpt lat="48.64234" lon="7.74531">
        <ele>140</ele>
        <time>2020-08-08T12:20:15Z</time>
      </trkpt>
      <trkpt lat="48.64239" lon="7.74528">
        <ele>140</ele>
        <time>2020-08-08T12:20:16Z</time>
      </trkpt>
      <trkpt lat="48.64244" lon="7.74524">
        <ele>140</ele>
        <time>2020-08-08T12:20:17Z</time>
      </trkpt>
      <trkpt lat="48.64249" lon="7.74519">
        <ele>140</ele>
        <time>2020-08-08T12:20:18Z</time>
      </trkpt>
      <trkpt lat="48.64254" lon="7.74515">
        <ele>140</ele>
        <time>2020-08-08T12:20:19Z</time>
      </trkpt>
      <trkpt lat="48.64258" lon="7.74512">
        <ele>140</ele>
        <time>2020-08-08T12:20:20Z</time>
      </trkpt>
      <trkpt lat="48.64267" lon="7.74506">
        <ele>141</ele>
        <time>2020-08-08T12:20:22Z</time>
      </trkpt>
      <trkpt lat="48.64278" lon="7.74497">
        <ele>140</ele>
        <time>2020-08-08T12:20:25Z</time>
      </trkpt>
      <trkpt lat="48.64283" lon="7.74494">
        <ele>141</ele>
        <time>2020-08-08T12:20:26Z</time>
      </trkpt>
      <trkpt lat="48.64288" lon="7.74488">
        <ele>140</ele>
        <time>2020-08-08T12:20:28Z</time>
      </trkpt>
      <trkpt lat="48.64291" lon="7.74481">
        <ele>140</ele>
        <time>2020-08-08T12:20:31Z</time>
      </trkpt>
      <trkpt lat="48.64295" lon="7.74476">
        <ele>139</ele>
        <time>2020-08-08T12:20:34Z</time>
      </trkpt>
      <trkpt lat="48.643" lon="7.74476">
        <ele>140</ele>
        <time>2020-08-08T12:20:36Z</time>
      </trkpt>
      <trkpt lat="48.64305" lon="7.74474">
        <ele>140</ele>
        <time>2020-08-08T12:20:38Z</time>
      </trkpt>
      <trkpt lat="48.64311" lon="7.7447">
        <ele>140</ele>
        <time>2020-08-08T12:20:40Z</time>
      </trkpt>
      <trkpt lat="48.64316" lon="7.74465">
        <ele>140</ele>
        <time>2020-08-08T12:20:42Z</time>
      </trkpt>
      <trkpt lat="48.64322" lon="7.7446">
        <ele>141</ele>
        <time>2020-08-08T12:20:44Z</time>
      </trkpt>
      <trkpt lat="48.64328" lon="7.74454">
        <ele>141</ele>
        <time>2020-08-08T12:20:46Z</time>
      </trkpt>
      <trkpt lat="48.64334" lon="7.7445">
        <ele>141</ele>
        <time>2020-08-08T12:20:48Z</time>
      </trkpt>
      <trkpt lat="48.64339" lon="7.74444">
        <ele>141</ele>
        <time>2020-08-08T12:20:50Z</time>
      </trkpt>
      <trkpt lat="48.64343" lon="7.7444">
        <ele>142</ele>
        <time>2020-08-08T12:20:52Z</time>
      </trkpt>
      <trkpt lat="48.64348" lon="7.74437">
        <ele>141</ele>
        <time>2020-08-08T12:20:54Z</time>
      </trkpt>
      <trkpt lat="48.64352" lon="7.74435">
        <ele>142</ele>
        <time>2020-08-08T12:20:56Z</time>
      </trkpt>
      <trkpt lat="48.64353" lon="7.74427">
        <ele>141</ele>
        <time>2020-08-08T12:20:59Z</time>
      </trkpt>
      <trkpt lat="48.6435" lon="7.74421">
        <ele>139</ele>
        <time>2020-08-08T12:21:01Z</time>
      </trkpt>
      <trkpt lat="48.64348" lon="7.74414">
        <ele>137</ele>
        <time>2020-08-08T12:21:04Z</time>
      </trkpt>
      <trkpt lat="48.64344" lon="7.74408">
        <ele>137</ele>
        <time>2020-08-08T12:21:07Z</time>
      </trkpt>
      <trkpt lat="48.6434" lon="7.74402">
        <ele>138</ele>
        <time>2020-08-08T12:21:09Z</time>
      </trkpt>
      <trkpt lat="48.64339" lon="7.74395">
        <ele>139</ele>
        <time>2020-08-08T12:21:11Z</time>
      </trkpt>
      <trkpt lat="48.64344" lon="7.7439">
        <ele>140</ele>
        <time>2020-08-08T12:21:15Z</time>
      </trkpt>
      <trkpt lat="48.6435" lon="7.74389">
        <ele>139</ele>
        <time>2020-08-08T12:21:17Z</time>
      </trkpt>
      <trkpt lat="48.64357" lon="7.74387">
        <ele>138</ele>
        <time>2020-08-08T12:21:19Z</time>
      </trkpt>
      <trkpt lat="48.64362" lon="7.74381">
        <ele>138</ele>
        <time>2020-08-08T12:21:21Z</time>
      </trkpt>
      <trkpt lat="48.64368" lon="7.74378">
        <ele>138</ele>
        <time>2020-08-08T12:21:23Z</time>
      </trkpt>
      <trkpt lat="48.64373" lon="7.74372">
        <ele>138</ele>
        <time>2020-08-08T12:21:25Z</time>
      </trkpt>
      <trkpt lat="48.64378" lon="7.74366">
        <ele>139</ele>
        <time>2020-08-08T12:21:27Z</time>
      </trkpt>
      <trkpt lat="48.64384" lon="7.74361">
        <ele>138</ele>
        <time>2020-08-08T12:21:29Z</time>
      </trkpt>
      <trkpt lat="48.6439" lon="7.74355">
        <ele>138</ele>
        <time>2020-08-08T12:21:31Z</time>
      </trkpt>
      <trkpt lat="48.64396" lon="7.74347">
        <ele>139</ele>
        <time>2020-08-08T12:21:33Z</time>
      </trkpt>
      <trkpt lat="48.64404" lon="7.74343">
        <ele>138</ele>
        <time>2020-08-08T12:21:35Z</time>
      </trkpt>
      <trkpt lat="48.64411" lon="7.74336">
        <ele>138</ele>
        <time>2020-08-08T12:21:37Z</time>
      </trkpt>
      <trkpt lat="48.64419" lon="7.74328">
        <ele>138</ele>
        <time>2020-08-08T12:21:39Z</time>
      </trkpt>
      <trkpt lat="48.64426" lon="7.74323">
        <ele>138</ele>
        <time>2020-08-08T12:21:41Z</time>
      </trkpt>
      <trkpt lat="48.64434" lon="7.74316">
        <ele>138</ele>
        <time>2020-08-08T12:21:43Z</time>
      </trkpt>
      <trkpt lat="48.64438" lon="7.74312">
        <ele>138</ele>
        <time>2020-08-08T12:21:44Z</time>
      </trkpt>
      <trkpt lat="48.64444" lon="7.74304">
        <ele>139</ele>
        <time>2020-08-08T12:21:46Z</time>
      </trkpt>
      <trkpt lat="48.64451" lon="7.74296">
        <ele>139</ele>
        <time>2020-08-08T12:21:48Z</time>
      </trkpt>
      <trkpt lat="48.64455" lon="7.74292">
        <ele>139</ele>
        <time>2020-08-08T12:21:49Z</time>
      </trkpt>
      <trkpt lat="48.64463" lon="7.74286">
        <ele>139</ele>
        <time>2020-08-08T12:21:51Z</time>
      </trkpt>
      <trkpt lat="48.64471" lon="7.74281">
        <ele>139</ele>
        <time>2020-08-08T12:21:53Z</time>
      </trkpt>
      <trkpt lat="48.64478" lon="7.74274">
        <ele>139</ele>
        <time>2020-08-08T12:21:55Z</time>
      </trkpt>
      <trkpt lat="48.64486" lon="7.74268">
        <ele>139</ele>
        <time>2020-08-08T12:21:57Z</time>
      </trkpt>
      <trkpt lat="48.64489" lon="7.74264">
        <ele>139</ele>
        <time>2020-08-08T12:21:58Z</time>
      </trkpt>
      <trkpt lat="48.64494" lon="7.74261">
        <ele>138</ele>
        <time>2020-08-08T12:21:59Z</time>
      </trkpt>
      <trkpt lat="48.64498" lon="7.74257">
        <ele>139</ele>
        <time>2020-08-08T12:22:00Z</time>
      </trkpt>
      <trkpt lat="48.64506" lon="7.7425">
        <ele>139</ele>
        <time>2020-08-08T12:22:02Z</time>
      </trkpt>
      <trkpt lat="48.64514" lon="7.74242">
        <ele>139</ele>
        <time>2020-08-08T12:22:04Z</time>
      </trkpt>
      <trkpt lat="48.64521" lon="7.74235">
        <ele>139</ele>
        <time>2020-08-08T12:22:06Z</time>
      </trkpt>
      <trkpt lat="48.64526" lon="7.74231">
        <ele>139</ele>
        <time>2020-08-08T12:22:07Z</time>
      </trkpt>
      <trkpt lat="48.64531" lon="7.74228">
        <ele>138</ele>
        <time>2020-08-08T12:22:08Z</time>
      </trkpt>
      <trkpt lat="48.64538" lon="7.74222">
        <ele>139</ele>
        <time>2020-08-08T12:22:10Z</time>
      </trkpt>
      <trkpt lat="48.64544" lon="7.74219">
        <ele>138</ele>
        <time>2020-08-08T12:22:11Z</time>
      </trkpt>
      <trkpt lat="48.64548" lon="7.74214">
        <ele>138</ele>
        <time>2020-08-08T12:22:12Z</time>
      </trkpt>
      <trkpt lat="48.64556" lon="7.7421">
        <ele>138</ele>
        <time>2020-08-08T12:22:14Z</time>
      </trkpt>
      <trkpt lat="48.6456" lon="7.74205">
        <ele>138</ele>
        <time>2020-08-08T12:22:15Z</time>
      </trkpt>
      <trkpt lat="48.64567" lon="7.74199">
        <ele>138</ele>
        <time>2020-08-08T12:22:17Z</time>
      </trkpt>
      <trkpt lat="48.64576" lon="7.74193">
        <ele>138</ele>
        <time>2020-08-08T12:22:19Z</time>
      </trkpt>
      <trkpt lat="48.64579" lon="7.74188">
        <ele>138</ele>
        <time>2020-08-08T12:22:20Z</time>
      </trkpt>
      <trkpt lat="48.64584" lon="7.74185">
        <ele>138</ele>
        <time>2020-08-08T12:22:21Z</time>
      </trkpt>
      <trkpt lat="48.64588" lon="7.7418">
        <ele>138</ele>
        <time>2020-08-08T12:22:22Z</time>
      </trkpt>
      <trkpt lat="48.64592" lon="7.74175">
        <ele>138</ele>
        <time>2020-08-08T12:22:23Z</time>
      </trkpt>
      <trkpt lat="48.64597" lon="7.74171">
        <ele>138</ele>
        <time>2020-08-08T12:22:24Z</time>
      </trkpt>
      <trkpt lat="48.64602" lon="7.74168">
        <ele>138</ele>
        <time>2020-08-08T12:22:25Z</time>
      </trkpt>
      <trkpt lat="48.64607" lon="7.74162">
        <ele>139</ele>
        <time>2020-08-08T12:22:26Z</time>
      </trkpt>
      <trkpt lat="48.64611" lon="7.74157">
        <ele>139</ele>
        <time>2020-08-08T12:22:27Z</time>
      </trkpt>
      <trkpt lat="48.64616" lon="7.74153">
        <ele>139</ele>
        <time>2020-08-08T12:22:28Z</time>
      </trkpt>
      <trkpt lat="48.64623" lon="7.74144">
        <ele>139</ele>
        <time>2020-08-08T12:22:30Z</time>
      </trkpt>
      <trkpt lat="48.64627" lon="7.7414">
        <ele>139</ele>
        <time>2020-08-08T12:22:31Z</time>
      </trkpt>
      <trkpt lat="48.64631" lon="7.74137">
        <ele>139</ele>
        <time>2020-08-08T12:22:32Z</time>
      </trkpt>
      <trkpt lat="48.64636" lon="7.74133">
        <ele>139</ele>
        <time>2020-08-08T12:22:33Z</time>
      </trkpt>
      <trkpt lat="48.6464" lon="7.74129">
        <ele>139</ele>
        <time>2020-08-08T12:22:34Z</time>
      </trkpt>
      <trkpt lat="48.64645" lon="7.74124">
        <ele>139</ele>
        <time>2020-08-08T12:22:35Z</time>
      </trkpt>
      <trkpt lat="48.64648" lon="7.74121">
        <ele>139</ele>
        <time>2020-08-08T12:22:36Z</time>
      </trkpt>
      <trkpt lat="48.64653" lon="7.74118">
        <ele>139</ele>
        <time>2020-08-08T12:22:37Z</time>
      </trkpt>
      <trkpt lat="48.64658" lon="7.74114">
        <ele>139</ele>
        <time>2020-08-08T12:22:38Z</time>
      </trkpt>
      <trkpt lat="48.64663" lon="7.74109">
        <ele>139</ele>
        <time>2020-08-08T12:22:39Z</time>
      </trkpt>
      <trkpt lat="48.64668" lon="7.74106">
        <ele>139</ele>
        <time>2020-08-08T12:22:40Z</time>
      </trkpt>
      <trkpt lat="48.64673" lon="7.74103">
        <ele>139</ele>
        <time>2020-08-08T12:22:41Z</time>
      </trkpt>
      <trkpt lat="48.64681" lon="7.74095">
        <ele>139</ele>
        <time>2020-08-08T12:22:43Z</time>
      </trkpt>
      <trkpt lat="48.64686" lon="7.7409">
        <ele>138</ele>
        <time>2020-08-08T12:22:44Z</time>
      </trkpt>
      <trkpt lat="48.6469" lon="7.74086">
        <ele>139</ele>
        <time>2020-08-08T12:22:45Z</time>
      </trkpt>
      <trkpt lat="48.64694" lon="7.74082">
        <ele>138</ele>
        <time>2020-08-08T12:22:46Z</time>
      </trkpt>
      <trkpt lat="48.647" lon="7.74081">
        <ele>138</ele>
        <time>2020-08-08T12:22:47Z</time>
      </trkpt>
      <trkpt lat="48.64704" lon="7.74077">
        <ele>138</ele>
        <time>2020-08-08T12:22:48Z</time>
      </trkpt>
      <trkpt lat="48.64709" lon="7.74072">
        <ele>138</ele>
        <time>2020-08-08T12:22:49Z</time>
      </trkpt>
      <trkpt lat="48.64713" lon="7.74068">
        <ele>138</ele>
        <time>2020-08-08T12:22:50Z</time>
      </trkpt>
      <trkpt lat="48.64718" lon="7.74066">
        <ele>138</ele>
        <time>2020-08-08T12:22:51Z</time>
      </trkpt>
      <trkpt lat="48.64726" lon="7.7406">
        <ele>138</ele>
        <time>2020-08-08T12:22:53Z</time>
      </trkpt>
      <trkpt lat="48.6473" lon="7.74055">
        <ele>138</ele>
        <time>2020-08-08T12:22:54Z</time>
      </trkpt>
      <trkpt lat="48.64735" lon="7.74053">
        <ele>138</ele>
        <time>2020-08-08T12:22:55Z</time>
      </trkpt>
      <trkpt lat="48.64739" lon="7.7405">
        <ele>138</ele>
        <time>2020-08-08T12:22:56Z</time>
      </trkpt>
      <trkpt lat="48.64743" lon="7.74045">
        <ele>138</ele>
        <time>2020-08-08T12:22:57Z</time>
      </trkpt>
      <trkpt lat="48.64749" lon="7.74038">
        <ele>138</ele>
        <time>2020-08-08T12:22:59Z</time>
      </trkpt>
      <trkpt lat="48.64755" lon="7.74029">
        <ele>139</ele>
        <time>2020-08-08T12:23:01Z</time>
      </trkpt>
      <trkpt lat="48.6476" lon="7.74024">
        <ele>140</ele>
        <time>2020-08-08T12:23:03Z</time>
      </trkpt>
      <trkpt lat="48.64764" lon="7.74019">
        <ele>140</ele>
        <time>2020-08-08T12:23:05Z</time>
      </trkpt>
      <trkpt lat="48.64768" lon="7.74013">
        <ele>141</ele>
        <time>2020-08-08T12:23:07Z</time>
      </trkpt>
      <trkpt lat="48.64772" lon="7.74008">
        <ele>141</ele>
        <time>2020-08-08T12:23:09Z</time>
      </trkpt>
      <trkpt lat="48.64777" lon="7.74004">
        <ele>141</ele>
        <time>2020-08-08T12:23:11Z</time>
      </trkpt>
      <trkpt lat="48.64784" lon="7.74">
        <ele>140</ele>
        <time>2020-08-08T12:23:13Z</time>
      </trkpt>
      <trkpt lat="48.64789" lon="7.73997">
        <ele>140</ele>
        <time>2020-08-08T12:23:14Z</time>
      </trkpt>
      <trkpt lat="48.64794" lon="7.73993">
        <ele>140</ele>
        <time>2020-08-08T12:23:15Z</time>
      </trkpt>
      <trkpt lat="48.648" lon="7.73989">
        <ele>140</ele>
        <time>2020-08-08T12:23:16Z</time>
      </trkpt>
      <trkpt lat="48.64804" lon="7.73984">
        <ele>140</ele>
        <time>2020-08-08T12:23:17Z</time>
      </trkpt>
      <trkpt lat="48.6481" lon="7.7398">
        <ele>139</ele>
        <time>2020-08-08T12:23:18Z</time>
      </trkpt>
      <trkpt lat="48.64816" lon="7.73975">
        <ele>139</ele>
        <time>2020-08-08T12:23:19Z</time>
      </trkpt>
      <trkpt lat="48.64822" lon="7.73972">
        <ele>139</ele>
        <time>2020-08-08T12:23:20Z</time>
      </trkpt>
      <trkpt lat="48.64827" lon="7.73967">
        <ele>139</ele>
        <time>2020-08-08T12:23:21Z</time>
      </trkpt>
      <trkpt lat="48.64833" lon="7.73963">
        <ele>139</ele>
        <time>2020-08-08T12:23:22Z</time>
      </trkpt>
      <trkpt lat="48.64838" lon="7.73958">
        <ele>139</ele>
        <time>2020-08-08T12:23:23Z</time>
      </trkpt>
      <trkpt lat="48.64844" lon="7.73953">
        <ele>139</ele>
        <time>2020-08-08T12:23:24Z</time>
      </trkpt>
      <trkpt lat="48.64848" lon="7.73949">
        <ele>139</ele>
        <time>2020-08-08T12:23:25Z</time>
      </trkpt>
      <trkpt lat="48.64855" lon="7.73943">
        <ele>139</ele>
        <time>2020-08-08T12:23:27Z</time>
      </trkpt>
      <trkpt lat="48.64859" lon="7.73938">
        <ele>139</ele>
        <time>2020-08-08T12:23:28Z</time>
      </trkpt>
      <trkpt lat="48.64863" lon="7.73935">
        <ele>139</ele>
        <time>2020-08-08T12:23:29Z</time>
      </trkpt>
      <trkpt lat="48.64868" lon="7.73926">
        <ele>140</ele>
        <time>2020-08-08T12:23:30Z</time>
      </trkpt>
      <trkpt lat="48.64873" lon="7.73922">
        <ele>140</ele>
        <time>2020-08-08T12:23:31Z</time>
      </trkpt>
      <trkpt lat="48.64877" lon="7.73918">
        <ele>140</ele>
        <time>2020-08-08T12:23:32Z</time>
      </trkpt>
      <trkpt lat="48.64882" lon="7.73915">
        <ele>140</ele>
        <time>2020-08-08T12:23:33Z</time>
      </trkpt>
      <trkpt lat="48.64886" lon="7.73911">
        <ele>140</ele>
        <time>2020-08-08T12:23:34Z</time>
      </trkpt>
      <trkpt lat="48.6489" lon="7.73907">
        <ele>140</ele>
        <time>2020-08-08T12:23:35Z</time>
      </trkpt>
      <trkpt lat="48.64896" lon="7.73898">
        <ele>140</ele>
        <time>2020-08-08T12:23:37Z</time>
      </trkpt>
      <trkpt lat="48.64904" lon="7.73891">
        <ele>141</ele>
        <time>2020-08-08T12:23:39Z</time>
      </trkpt>
      <trkpt lat="48.6491" lon="7.73887">
        <ele>140</ele>
        <time>2020-08-08T12:23:40Z</time>
      </trkpt>
      <trkpt lat="48.64918" lon="7.7388">
        <ele>140</ele>
        <time>2020-08-08T12:23:42Z</time>
      </trkpt>
      <trkpt lat="48.64923" lon="7.73876">
        <ele>140</ele>
        <time>2020-08-08T12:23:43Z</time>
      </trkpt>
      <trkpt lat="48.64931" lon="7.73868">
        <ele>140</ele>
        <time>2020-08-08T12:23:45Z</time>
      </trkpt>
      <trkpt lat="48.64936" lon="7.73865">
        <ele>140</ele>
        <time>2020-08-08T12:23:46Z</time>
      </trkpt>
      <trkpt lat="48.64941" lon="7.73863">
        <ele>140</ele>
        <time>2020-08-08T12:23:47Z</time>
      </trkpt>
      <trkpt lat="48.64946" lon="7.73858">
        <ele>139</ele>
        <time>2020-08-08T12:23:48Z</time>
      </trkpt>
      <trkpt lat="48.6495" lon="7.73855">
        <ele>139</ele>
        <time>2020-08-08T12:23:49Z</time>
      </trkpt>
      <trkpt lat="48.64956" lon="7.7385">
        <ele>140</ele>
        <time>2020-08-08T12:23:50Z</time>
      </trkpt>
      <trkpt lat="48.6496" lon="7.73846">
        <ele>140</ele>
        <time>2020-08-08T12:23:51Z</time>
      </trkpt>
      <trkpt lat="48.64968" lon="7.73839">
        <ele>140</ele>
        <time>2020-08-08T12:23:53Z</time>
      </trkpt>
      <trkpt lat="48.64975" lon="7.73833">
        <ele>140</ele>
        <time>2020-08-08T12:23:55Z</time>
      </trkpt>
      <trkpt lat="48.6498" lon="7.73828">
        <ele>140</ele>
        <time>2020-08-08T12:23:56Z</time>
      </trkpt>
      <trkpt lat="48.64983" lon="7.73824">
        <ele>140</ele>
        <time>2020-08-08T12:23:57Z</time>
      </trkpt>
      <trkpt lat="48.64988" lon="7.73821">
        <ele>139</ele>
        <time>2020-08-08T12:23:58Z</time>
      </trkpt>
      <trkpt lat="48.64993" lon="7.73816">
        <ele>140</ele>
        <time>2020-08-08T12:23:59Z</time>
      </trkpt>
      <trkpt lat="48.64998" lon="7.73811">
        <ele>140</ele>
        <time>2020-08-08T12:24:00Z</time>
      </trkpt>
      <trkpt lat="48.65003" lon="7.73806">
        <ele>140</ele>
        <time>2020-08-08T12:24:01Z</time>
      </trkpt>
      <trkpt lat="48.65011" lon="7.73798">
        <ele>140</ele>
        <time>2020-08-08T12:24:03Z</time>
      </trkpt>
      <trkpt lat="48.65015" lon="7.73796">
        <ele>140</ele>
        <time>2020-08-08T12:24:04Z</time>
      </trkpt>
      <trkpt lat="48.65019" lon="7.73792">
        <ele>140</ele>
        <time>2020-08-08T12:24:05Z</time>
      </trkpt>
      <trkpt lat="48.65023" lon="7.73788">
        <ele>140</ele>
        <time>2020-08-08T12:24:06Z</time>
      </trkpt>
      <trkpt lat="48.65029" lon="7.73784">
        <ele>139</ele>
        <time>2020-08-08T12:24:07Z</time>
      </trkpt>
      <trkpt lat="48.65034" lon="7.7378">
        <ele>139</ele>
        <time>2020-08-08T12:24:08Z</time>
      </trkpt>
      <trkpt lat="48.65038" lon="7.73776">
        <ele>140</ele>
        <time>2020-08-08T12:24:09Z</time>
      </trkpt>
      <trkpt lat="48.65043" lon="7.73772">
        <ele>140</ele>
        <time>2020-08-08T12:24:10Z</time>
      </trkpt>
      <trkpt lat="48.65046" lon="7.73767">
        <ele>140</ele>
        <time>2020-08-08T12:24:11Z</time>
      </trkpt>
      <trkpt lat="48.65051" lon="7.73763">
        <ele>140</ele>
        <time>2020-08-08T12:24:12Z</time>
      </trkpt>
      <trkpt lat="48.65056" lon="7.73759">
        <ele>140</ele>
        <time>2020-08-08T12:24:13Z</time>
      </trkpt>
      <trkpt lat="48.6506" lon="7.73755">
        <ele>140</ele>
        <time>2020-08-08T12:24:14Z</time>
      </trkpt>
      <trkpt lat="48.65064" lon="7.7375">
        <ele>140</ele>
        <time>2020-08-08T12:24:15Z</time>
      </trkpt>
      <trkpt lat="48.65071" lon="7.73742">
        <ele>140</ele>
        <time>2020-08-08T12:24:17Z</time>
      </trkpt>
      <trkpt lat="48.65075" lon="7.73739">
        <ele>140</ele>
        <time>2020-08-08T12:24:18Z</time>
      </trkpt>
      <trkpt lat="48.6508" lon="7.73734">
        <ele>140</ele>
        <time>2020-08-08T12:24:19Z</time>
      </trkpt>
      <trkpt lat="48.65088" lon="7.73725">
        <ele>140</ele>
        <time>2020-08-08T12:24:21Z</time>
      </trkpt>
      <trkpt lat="48.65093" lon="7.73722">
        <ele>140</ele>
        <time>2020-08-08T12:24:22Z</time>
      </trkpt>
      <trkpt lat="48.65098" lon="7.73718">
        <ele>140</ele>
        <time>2020-08-08T12:24:23Z</time>
      </trkpt>
      <trkpt lat="48.65107" lon="7.73712">
        <ele>139</ele>
        <time>2020-08-08T12:24:25Z</time>
      </trkpt>
      <trkpt lat="48.65111" lon="7.73708">
        <ele>140</ele>
        <time>2020-08-08T12:24:26Z</time>
      </trkpt>
      <trkpt lat="48.65116" lon="7.73704">
        <ele>140</ele>
        <time>2020-08-08T12:24:27Z</time>
      </trkpt>
      <trkpt lat="48.6512" lon="7.73699">
        <ele>140</ele>
        <time>2020-08-08T12:24:28Z</time>
      </trkpt>
      <trkpt lat="48.65124" lon="7.73694">
        <ele>140</ele>
        <time>2020-08-08T12:24:29Z</time>
      </trkpt>
      <trkpt lat="48.65128" lon="7.7369">
        <ele>140</ele>
        <time>2020-08-08T12:24:30Z</time>
      </trkpt>
      <trkpt lat="48.65132" lon="7.73687">
        <ele>140</ele>
        <time>2020-08-08T12:24:31Z</time>
      </trkpt>
      <trkpt lat="48.65136" lon="7.73682">
        <ele>141</ele>
        <time>2020-08-08T12:24:32Z</time>
      </trkpt>
      <trkpt lat="48.65145" lon="7.73675">
        <ele>140</ele>
        <time>2020-08-08T12:24:34Z</time>
      </trkpt>
      <trkpt lat="48.65149" lon="7.7367">
        <ele>141</ele>
        <time>2020-08-08T12:24:35Z</time>
      </trkpt>
      <trkpt lat="48.65154" lon="7.73667">
        <ele>140</ele>
        <time>2020-08-08T12:24:36Z</time>
      </trkpt>
      <trkpt lat="48.65159" lon="7.73663">
        <ele>141</ele>
        <time>2020-08-08T12:24:37Z</time>
      </trkpt>
      <trkpt lat="48.65163" lon="7.73659">
        <ele>140</ele>
        <time>2020-08-08T12:24:38Z</time>
      </trkpt>
      <trkpt lat="48.65168" lon="7.73655">
        <ele>140</ele>
        <time>2020-08-08T12:24:39Z</time>
      </trkpt>
      <trkpt lat="48.65172" lon="7.73652">
        <ele>140</ele>
        <time>2020-08-08T12:24:40Z</time>
      </trkpt>
      <trkpt lat="48.65176" lon="7.73648">
        <ele>140</ele>
        <time>2020-08-08T12:24:41Z</time>
      </trkpt>
      <trkpt lat="48.65182" lon="7.73645">
        <ele>140</ele>
        <time>2020-08-08T12:24:42Z</time>
      </trkpt>
      <trkpt lat="48.65186" lon="7.73643">
        <ele>139</ele>
        <time>2020-08-08T12:24:43Z</time>
      </trkpt>
      <trkpt lat="48.65191" lon="7.73638">
        <ele>139</ele>
        <time>2020-08-08T12:24:44Z</time>
      </trkpt>
      <trkpt lat="48.65196" lon="7.73633">
        <ele>139</ele>
        <time>2020-08-08T12:24:45Z</time>
      </trkpt>
      <trkpt lat="48.652" lon="7.73628">
        <ele>140</ele>
        <time>2020-08-08T12:24:46Z</time>
      </trkpt>
      <trkpt lat="48.65208" lon="7.73621">
        <ele>140</ele>
        <time>2020-08-08T12:24:48Z</time>
      </trkpt>
      <trkpt lat="48.65213" lon="7.73617">
        <ele>140</ele>
        <time>2020-08-08T12:24:49Z</time>
      </trkpt>
      <trkpt lat="48.65217" lon="7.73614">
        <ele>140</ele>
        <time>2020-08-08T12:24:50Z</time>
      </trkpt>
      <trkpt lat="48.65221" lon="7.7361">
        <ele>140</ele>
        <time>2020-08-08T12:24:51Z</time>
      </trkpt>
      <trkpt lat="48.65229" lon="7.73603">
        <ele>140</ele>
        <time>2020-08-08T12:24:53Z</time>
      </trkpt>
      <trkpt lat="48.65237" lon="7.73595">
        <ele>140</ele>
        <time>2020-08-08T12:24:55Z</time>
      </trkpt>
      <trkpt lat="48.65244" lon="7.73589">
        <ele>140</ele>
        <time>2020-08-08T12:24:57Z</time>
      </trkpt>
      <trkpt lat="48.65248" lon="7.73586">
        <ele>140</ele>
        <time>2020-08-08T12:24:58Z</time>
      </trkpt>
      <trkpt lat="48.65252" lon="7.73583">
        <ele>140</ele>
        <time>2020-08-08T12:24:59Z</time>
      </trkpt>
      <trkpt lat="48.65257" lon="7.73579">
        <ele>140</ele>
        <time>2020-08-08T12:25:00Z</time>
      </trkpt>
      <trkpt lat="48.65262" lon="7.73576">
        <ele>140</ele>
        <time>2020-08-08T12:25:01Z</time>
      </trkpt>
      <trkpt lat="48.65266" lon="7.73572">
        <ele>140</ele>
        <time>2020-08-08T12:25:02Z</time>
      </trkpt>
      <trkpt lat="48.65271" lon="7.73569">
        <ele>139</ele>
        <time>2020-08-08T12:25:03Z</time>
      </trkpt>
      <trkpt lat="48.65276" lon="7.73565">
        <ele>139</ele>
        <time>2020-08-08T12:25:04Z</time>
      </trkpt>
      <trkpt lat="48.65281" lon="7.73561">
        <ele>139</ele>
        <time>2020-08-08T12:25:05Z</time>
      </trkpt>
      <trkpt lat="48.65286" lon="7.73555">
        <ele>139</ele>
        <time>2020-08-08T12:25:06Z</time>
      </trkpt>
      <trkpt lat="48.6529" lon="7.73544">
        <ele>140</ele>
        <time>2020-08-08T12:25:08Z</time>
      </trkpt>
      <trkpt lat="48.65295" lon="7.7354">
        <ele>140</ele>
        <time>2020-08-08T12:25:09Z</time>
      </trkpt>
      <trkpt lat="48.653" lon="7.73535">
        <ele>140</ele>
        <time>2020-08-08T12:25:10Z</time>
      </trkpt>
      <trkpt lat="48.65303" lon="7.7353">
        <ele>141</ele>
        <time>2020-08-08T12:25:11Z</time>
      </trkpt>
      <trkpt lat="48.65308" lon="7.73526">
        <ele>141</ele>
        <time>2020-08-08T12:25:12Z</time>
      </trkpt>
      <trkpt lat="48.65312" lon="7.73523">
        <ele>140</ele>
        <time>2020-08-08T12:25:13Z</time>
      </trkpt>
      <trkpt lat="48.65316" lon="7.73519">
        <ele>140</ele>
        <time>2020-08-08T12:25:14Z</time>
      </trkpt>
      <trkpt lat="48.65324" lon="7.73514">
        <ele>140</ele>
        <time>2020-08-08T12:25:16Z</time>
      </trkpt>
      <trkpt lat="48.65328" lon="7.7351">
        <ele>140</ele>
        <time>2020-08-08T12:25:17Z</time>
      </trkpt>
      <trkpt lat="48.65336" lon="7.73503">
        <ele>140</ele>
        <time>2020-08-08T12:25:19Z</time>
      </trkpt>
      <trkpt lat="48.65344" lon="7.73497">
        <ele>140</ele>
        <time>2020-08-08T12:25:21Z</time>
      </trkpt>
      <trkpt lat="48.65348" lon="7.73494">
        <ele>140</ele>
        <time>2020-08-08T12:25:22Z</time>
      </trkpt>
      <trkpt lat="48.65353" lon="7.73491">
        <ele>139</ele>
        <time>2020-08-08T12:25:23Z</time>
      </trkpt>
      <trkpt lat="48.65357" lon="7.73488">
        <ele>139</ele>
        <time>2020-08-08T12:25:24Z</time>
      </trkpt>
      <trkpt lat="48.65365" lon="7.73479">
        <ele>139</ele>
        <time>2020-08-08T12:25:26Z</time>
      </trkpt>
      <trkpt lat="48.65369" lon="7.73475">
        <ele>140</ele>
        <time>2020-08-08T12:25:27Z</time>
      </trkpt>
      <trkpt lat="48.65373" lon="7.73471">
        <ele>140</ele>
        <time>2020-08-08T12:25:28Z</time>
      </trkpt>
      <trkpt lat="48.65378" lon="7.73468">
        <ele>140</ele>
        <time>2020-08-08T12:25:29Z</time>
      </trkpt>
      <trkpt lat="48.65385" lon="7.73463">
        <ele>139</ele>
        <time>2020-08-08T12:25:31Z</time>
      </trkpt>
      <trkpt lat="48.6539" lon="7.7346">
        <ele>139</ele>
        <time>2020-08-08T12:25:32Z</time>
      </trkpt>
      <trkpt lat="48.65393" lon="7.73455">
        <ele>139</ele>
        <time>2020-08-08T12:25:33Z</time>
      </trkpt>
      <trkpt lat="48.65403" lon="7.73449">
        <ele>139</ele>
        <time>2020-08-08T12:25:35Z</time>
      </trkpt>
      <trkpt lat="48.65407" lon="7.73445">
        <ele>139</ele>
        <time>2020-08-08T12:25:36Z</time>
      </trkpt>
      <trkpt lat="48.65411" lon="7.73442">
        <ele>139</ele>
        <time>2020-08-08T12:25:37Z</time>
      </trkpt>
      <trkpt lat="48.65418" lon="7.73434">
        <ele>139</ele>
        <time>2020-08-08T12:25:39Z</time>
      </trkpt>
      <trkpt lat="48.65426" lon="7.73426">
        <ele>139</ele>
        <time>2020-08-08T12:25:41Z</time>
      </trkpt>
      <trkpt lat="48.6543" lon="7.73423">
        <ele>139</ele>
        <time>2020-08-08T12:25:42Z</time>
      </trkpt>
      <trkpt lat="48.65434" lon="7.73422">
        <ele>139</ele>
        <time>2020-08-08T12:25:43Z</time>
      </trkpt>
      <trkpt lat="48.65442" lon="7.73415">
        <ele>139</ele>
        <time>2020-08-08T12:25:45Z</time>
      </trkpt>
      <trkpt lat="48.65451" lon="7.73408">
        <ele>139</ele>
        <time>2020-08-08T12:25:47Z</time>
      </trkpt>
      <trkpt lat="48.65459" lon="7.734">
        <ele>139</ele>
        <time>2020-08-08T12:25:49Z</time>
      </trkpt>
      <trkpt lat="48.65463" lon="7.73395">
        <ele>139</ele>
        <time>2020-08-08T12:25:50Z</time>
      </trkpt>
      <trkpt lat="48.65467" lon="7.73391">
        <ele>139</ele>
        <time>2020-08-08T12:25:51Z</time>
      </trkpt>
      <trkpt lat="48.65472" lon="7.73389">
        <ele>139</ele>
        <time>2020-08-08T12:25:52Z</time>
      </trkpt>
      <trkpt lat="48.65476" lon="7.73384">
        <ele>139</ele>
        <time>2020-08-08T12:25:53Z</time>
      </trkpt>
      <trkpt lat="48.6548" lon="7.7338">
        <ele>139</ele>
        <time>2020-08-08T12:25:54Z</time>
      </trkpt>
      <trkpt lat="48.65484" lon="7.73376">
        <ele>139</ele>
        <time>2020-08-08T12:25:55Z</time>
      </trkpt>
      <trkpt lat="48.65488" lon="7.73372">
        <ele>139</ele>
        <time>2020-08-08T12:25:56Z</time>
      </trkpt>
      <trkpt lat="48.65496" lon="7.73366">
        <ele>139</ele>
        <time>2020-08-08T12:25:58Z</time>
      </trkpt>
      <trkpt lat="48.65505" lon="7.73359">
        <ele>139</ele>
        <time>2020-08-08T12:26:00Z</time>
      </trkpt>
      <trkpt lat="48.65508" lon="7.73354">
        <ele>139</ele>
        <time>2020-08-08T12:26:01Z</time>
      </trkpt>
      <trkpt lat="48.65513" lon="7.73351">
        <ele>139</ele>
        <time>2020-08-08T12:26:02Z</time>
      </trkpt>
      <trkpt lat="48.65521" lon="7.73344">
        <ele>139</ele>
        <time>2020-08-08T12:26:04Z</time>
      </trkpt>
      <trkpt lat="48.65526" lon="7.73341">
        <ele>139</ele>
        <time>2020-08-08T12:26:05Z</time>
      </trkpt>
      <trkpt lat="48.6553" lon="7.73338">
        <ele>139</ele>
        <time>2020-08-08T12:26:06Z</time>
      </trkpt>
      <trkpt lat="48.65538" lon="7.73331">
        <ele>139</ele>
        <time>2020-08-08T12:26:08Z</time>
      </trkpt>
      <trkpt lat="48.65542" lon="7.73327">
        <ele>139</ele>
        <time>2020-08-08T12:26:09Z</time>
      </trkpt>
      <trkpt lat="48.65551" lon="7.7332">
        <ele>139</ele>
        <time>2020-08-08T12:26:11Z</time>
      </trkpt>
      <trkpt lat="48.65555" lon="7.73316">
        <ele>139</ele>
        <time>2020-08-08T12:26:12Z</time>
      </trkpt>
      <trkpt lat="48.65562" lon="7.73308">
        <ele>139</ele>
        <time>2020-08-08T12:26:14Z</time>
      </trkpt>
      <trkpt lat="48.65567" lon="7.73304">
        <ele>139</ele>
        <time>2020-08-08T12:26:15Z</time>
      </trkpt>
      <trkpt lat="48.65572" lon="7.733">
        <ele>139</ele>
        <time>2020-08-08T12:26:16Z</time>
      </trkpt>
      <trkpt lat="48.65579" lon="7.73293">
        <ele>139</ele>
        <time>2020-08-08T12:26:18Z</time>
      </trkpt>
      <trkpt lat="48.65587" lon="7.73285">
        <ele>139</ele>
        <time>2020-08-08T12:26:20Z</time>
      </trkpt>
      <trkpt lat="48.6559" lon="7.73281">
        <ele>139</ele>
        <time>2020-08-08T12:26:21Z</time>
      </trkpt>
      <trkpt lat="48.65599" lon="7.73275">
        <ele>139</ele>
        <time>2020-08-08T12:26:23Z</time>
      </trkpt>
      <trkpt lat="48.65603" lon="7.73271">
        <ele>139</ele>
        <time>2020-08-08T12:26:24Z</time>
      </trkpt>
      <trkpt lat="48.6561" lon="7.73265">
        <ele>139</ele>
        <time>2020-08-08T12:26:26Z</time>
      </trkpt>
      <trkpt lat="48.65614" lon="7.73261">
        <ele>139</ele>
        <time>2020-08-08T12:26:27Z</time>
      </trkpt>
      <trkpt lat="48.65619" lon="7.73256">
        <ele>139</ele>
        <time>2020-08-08T12:26:28Z</time>
      </trkpt>
      <trkpt lat="48.65624" lon="7.73253">
        <ele>139</ele>
        <time>2020-08-08T12:26:29Z</time>
      </trkpt>
      <trkpt lat="48.65627" lon="7.73248">
        <ele>139</ele>
        <time>2020-08-08T12:26:30Z</time>
      </trkpt>
      <trkpt lat="48.65634" lon="7.7324">
        <ele>139</ele>
        <time>2020-08-08T12:26:32Z</time>
      </trkpt>
      <trkpt lat="48.65638" lon="7.73236">
        <ele>139</ele>
        <time>2020-08-08T12:26:33Z</time>
      </trkpt>
      <trkpt lat="48.65641" lon="7.73232">
        <ele>139</ele>
        <time>2020-08-08T12:26:34Z</time>
      </trkpt>
      <trkpt lat="48.65646" lon="7.73228">
        <ele>139</ele>
        <time>2020-08-08T12:26:35Z</time>
      </trkpt>
      <trkpt lat="48.6565" lon="7.73224">
        <ele>139</ele>
        <time>2020-08-08T12:26:36Z</time>
      </trkpt>
      <trkpt lat="48.65655" lon="7.73219">
        <ele>139</ele>
        <time>2020-08-08T12:26:37Z</time>
      </trkpt>
      <trkpt lat="48.65662" lon="7.73212">
        <ele>140</ele>
        <time>2020-08-08T12:26:39Z</time>
      </trkpt>
      <trkpt lat="48.65671" lon="7.73205">
        <ele>140</ele>
        <time>2020-08-08T12:26:41Z</time>
      </trkpt>
      <trkpt lat="48.65682" lon="7.73194">
        <ele>140</ele>
        <time>2020-08-08T12:26:44Z</time>
      </trkpt>
      <trkpt lat="48.65686" lon="7.7319">
        <ele>140</ele>
        <time>2020-08-08T12:26:45Z</time>
      </trkpt>
      <trkpt lat="48.65691" lon="7.73187">
        <ele>140</ele>
        <time>2020-08-08T12:26:46Z</time>
      </trkpt>
      <trkpt lat="48.65695" lon="7.73184">
        <ele>140</ele>
        <time>2020-08-08T12:26:47Z</time>
      </trkpt>
      <trkpt lat="48.65703" lon="7.73177">
        <ele>139</ele>
        <time>2020-08-08T12:26:49Z</time>
      </trkpt>
      <trkpt lat="48.65707" lon="7.73174">
        <ele>139</ele>
        <time>2020-08-08T12:26:50Z</time>
      </trkpt>
      <trkpt lat="48.65712" lon="7.73171">
        <ele>139</ele>
        <time>2020-08-08T12:26:51Z</time>
      </trkpt>
      <trkpt lat="48.65715" lon="7.73167">
        <ele>139</ele>
        <time>2020-08-08T12:26:52Z</time>
      </trkpt>
      <trkpt lat="48.6572" lon="7.73163">
        <ele>139</ele>
        <time>2020-08-08T12:26:53Z</time>
      </trkpt>
      <trkpt lat="48.65728" lon="7.73157">
        <ele>139</ele>
        <time>2020-08-08T12:26:55Z</time>
      </trkpt>
      <trkpt lat="48.65736" lon="7.73152">
        <ele>139</ele>
        <time>2020-08-08T12:26:57Z</time>
      </trkpt>
      <trkpt lat="48.6574" lon="7.73149">
        <ele>139</ele>
        <time>2020-08-08T12:26:58Z</time>
      </trkpt>
      <trkpt lat="48.65747" lon="7.73142">
        <ele>139</ele>
        <time>2020-08-08T12:27:00Z</time>
      </trkpt>
      <trkpt lat="48.65752" lon="7.73139">
        <ele>139</ele>
        <time>2020-08-08T12:27:01Z</time>
      </trkpt>
      <trkpt lat="48.65756" lon="7.73135">
        <ele>139</ele>
        <time>2020-08-08T12:27:02Z</time>
      </trkpt>
      <trkpt lat="48.65763" lon="7.73129">
        <ele>139</ele>
        <time>2020-08-08T12:27:04Z</time>
      </trkpt>
      <trkpt lat="48.6577" lon="7.73124">
        <ele>139</ele>
        <time>2020-08-08T12:27:06Z</time>
      </trkpt>
      <trkpt lat="48.65774" lon="7.7312">
        <ele>139</ele>
        <time>2020-08-08T12:27:07Z</time>
      </trkpt>
      <trkpt lat="48.6578" lon="7.73116">
        <ele>139</ele>
        <time>2020-08-08T12:27:09Z</time>
      </trkpt>
      <trkpt lat="48.65784" lon="7.73112">
        <ele>139</ele>
        <time>2020-08-08T12:27:11Z</time>
      </trkpt>
      <trkpt lat="48.65789" lon="7.73106">
        <ele>140</ele>
        <time>2020-08-08T12:27:13Z</time>
      </trkpt>
      <trkpt lat="48.65793" lon="7.73102">
        <ele>140</ele>
        <time>2020-08-08T12:27:15Z</time>
      </trkpt>
      <trkpt lat="48.65797" lon="7.73096">
        <ele>141</ele>
        <time>2020-08-08T12:27:16Z</time>
      </trkpt>
      <trkpt lat="48.65803" lon="7.73089">
        <ele>141</ele>
        <time>2020-08-08T12:27:18Z</time>
      </trkpt>
      <trkpt lat="48.65807" lon="7.73082">
        <ele>141</ele>
        <time>2020-08-08T12:27:20Z</time>
      </trkpt>
      <trkpt lat="48.65812" lon="7.73074">
        <ele>141</ele>
        <time>2020-08-08T12:27:22Z</time>
      </trkpt>
      <trkpt lat="48.65818" lon="7.73068">
        <ele>141</ele>
        <time>2020-08-08T12:27:24Z</time>
      </trkpt>
      <trkpt lat="48.65825" lon="7.73062">
        <ele>141</ele>
        <time>2020-08-08T12:27:26Z</time>
      </trkpt>
      <trkpt lat="48.6583" lon="7.73056">
        <ele>142</ele>
        <time>2020-08-08T12:27:28Z</time>
      </trkpt>
      <trkpt lat="48.65833" lon="7.73052">
        <ele>142</ele>
        <time>2020-08-08T12:27:30Z</time>
      </trkpt>
      <trkpt lat="48.65839" lon="7.73046">
        <ele>142</ele>
        <time>2020-08-08T12:27:32Z</time>
      </trkpt>
      <trkpt lat="48.65846" lon="7.7304">
        <ele>142</ele>
        <time>2020-08-08T12:27:34Z</time>
      </trkpt>
      <trkpt lat="48.65851" lon="7.73037">
        <ele>142</ele>
        <time>2020-08-08T12:27:35Z</time>
      </trkpt>
      <trkpt lat="48.65855" lon="7.73033">
        <ele>142</ele>
        <time>2020-08-08T12:27:36Z</time>
      </trkpt>
      <trkpt lat="48.65862" lon="7.73032">
        <ele>140</ele>
        <time>2020-08-08T12:27:38Z</time>
      </trkpt>
      <trkpt lat="48.65869" lon="7.73028">
        <ele>140</ele>
        <time>2020-08-08T12:27:40Z</time>
      </trkpt>
      <trkpt lat="48.65876" lon="7.73022">
        <ele>140</ele>
        <time>2020-08-08T12:27:42Z</time>
      </trkpt>
      <trkpt lat="48.65883" lon="7.73016">
        <ele>140</ele>
        <time>2020-08-08T12:27:44Z</time>
      </trkpt>
      <trkpt lat="48.65888" lon="7.73009">
        <ele>141</ele>
        <time>2020-08-08T12:27:46Z</time>
      </trkpt>
      <trkpt lat="48.65896" lon="7.73002">
        <ele>141</ele>
        <time>2020-08-08T12:27:48Z</time>
      </trkpt>
      <trkpt lat="48.65902" lon="7.72995">
        <ele>141</ele>
        <time>2020-08-08T12:27:50Z</time>
      </trkpt>
      <trkpt lat="48.65907" lon="7.72988">
        <ele>141</ele>
        <time>2020-08-08T12:27:52Z</time>
      </trkpt>
      <trkpt lat="48.65912" lon="7.72983">
        <ele>141</ele>
        <time>2020-08-08T12:27:53Z</time>
      </trkpt>
      <trkpt lat="48.6592" lon="7.72977">
        <ele>141</ele>
        <time>2020-08-08T12:27:55Z</time>
      </trkpt>
      <trkpt lat="48.65926" lon="7.72971">
        <ele>141</ele>
        <time>2020-08-08T12:27:57Z</time>
      </trkpt>
      <trkpt lat="48.65933" lon="7.72962">
        <ele>141</ele>
        <time>2020-08-08T12:27:59Z</time>
      </trkpt>
      <trkpt lat="48.65936" lon="7.72957">
        <ele>142</ele>
        <time>2020-08-08T12:28:00Z</time>
      </trkpt>
      <trkpt lat="48.65942" lon="7.7295">
        <ele>142</ele>
        <time>2020-08-08T12:28:02Z</time>
      </trkpt>
      <trkpt lat="48.65946" lon="7.72946">
        <ele>142</ele>
        <time>2020-08-08T12:28:03Z</time>
      </trkpt>
      <trkpt lat="48.6595" lon="7.72942">
        <ele>142</ele>
        <time>2020-08-08T12:28:04Z</time>
      </trkpt>
      <trkpt lat="48.65954" lon="7.72938">
        <ele>142</ele>
        <time>2020-08-08T12:28:05Z</time>
      </trkpt>
      <trkpt lat="48.65962" lon="7.72931">
        <ele>142</ele>
        <time>2020-08-08T12:28:07Z</time>
      </trkpt>
      <trkpt lat="48.65965" lon="7.72926">
        <ele>142</ele>
        <time>2020-08-08T12:28:08Z</time>
      </trkpt>
      <trkpt lat="48.65971" lon="7.72918">
        <ele>142</ele>
        <time>2020-08-08T12:28:10Z</time>
      </trkpt>
      <trkpt lat="48.6598" lon="7.72908">
        <ele>142</ele>
        <time>2020-08-08T12:28:12Z</time>
      </trkpt>
      <trkpt lat="48.65985" lon="7.72903">
        <ele>142</ele>
        <time>2020-08-08T12:28:13Z</time>
      </trkpt>
      <trkpt lat="48.6599" lon="7.729">
        <ele>141</ele>
        <time>2020-08-08T12:28:14Z</time>
      </trkpt>
      <trkpt lat="48.65997" lon="7.72888">
        <ele>142</ele>
        <time>2020-08-08T12:28:16Z</time>
      </trkpt>
      <trkpt lat="48.66003" lon="7.72879">
        <ele>142</ele>
        <time>2020-08-08T12:28:18Z</time>
      </trkpt>
      <trkpt lat="48.66008" lon="7.72876">
        <ele>142</ele>
        <time>2020-08-08T12:28:19Z</time>
      </trkpt>
      <trkpt lat="48.66012" lon="7.72871">
        <ele>142</ele>
        <time>2020-08-08T12:28:20Z</time>
      </trkpt>
      <trkpt lat="48.66021" lon="7.72863">
        <ele>142</ele>
        <time>2020-08-08T12:28:22Z</time>
      </trkpt>
      <trkpt lat="48.66028" lon="7.72855">
        <ele>142</ele>
        <time>2020-08-08T12:28:24Z</time>
      </trkpt>
      <trkpt lat="48.66032" lon="7.7285">
        <ele>142</ele>
        <time>2020-08-08T12:28:25Z</time>
      </trkpt>
      <trkpt lat="48.66037" lon="7.72846">
        <ele>141</ele>
        <time>2020-08-08T12:28:26Z</time>
      </trkpt>
      <trkpt lat="48.66041" lon="7.72841">
        <ele>141</ele>
        <time>2020-08-08T12:28:27Z</time>
      </trkpt>
      <trkpt lat="48.66045" lon="7.72837">
        <ele>141</ele>
        <time>2020-08-08T12:28:28Z</time>
      </trkpt>
      <trkpt lat="48.66048" lon="7.72832">
        <ele>141</ele>
        <time>2020-08-08T12:28:29Z</time>
      </trkpt>
      <trkpt lat="48.66053" lon="7.72828">
        <ele>141</ele>
        <time>2020-08-08T12:28:30Z</time>
      </trkpt>
      <trkpt lat="48.66057" lon="7.72823">
        <ele>141</ele>
        <time>2020-08-08T12:28:31Z</time>
      </trkpt>
      <trkpt lat="48.66061" lon="7.72818">
        <ele>141</ele>
        <time>2020-08-08T12:28:32Z</time>
      </trkpt>
      <trkpt lat="48.66065" lon="7.72814">
        <ele>141</ele>
        <time>2020-08-08T12:28:33Z</time>
      </trkpt>
      <trkpt lat="48.66069" lon="7.7281">
        <ele>142</ele>
        <time>2020-08-08T12:28:34Z</time>
      </trkpt>
      <trkpt lat="48.66077" lon="7.72802">
        <ele>142</ele>
        <time>2020-08-08T12:28:36Z</time>
      </trkpt>
      <trkpt lat="48.66081" lon="7.72797">
        <ele>142</ele>
        <time>2020-08-08T12:28:37Z</time>
      </trkpt>
      <trkpt lat="48.66087" lon="7.7279">
        <ele>142</ele>
        <time>2020-08-08T12:28:39Z</time>
      </trkpt>
      <trkpt lat="48.66092" lon="7.72784">
        <ele>142</ele>
        <time>2020-08-08T12:28:41Z</time>
      </trkpt>
      <trkpt lat="48.66097" lon="7.72777">
        <ele>142</ele>
        <time>2020-08-08T12:28:43Z</time>
      </trkpt>
      <trkpt lat="48.66103" lon="7.72769">
        <ele>142</ele>
        <time>2020-08-08T12:28:45Z</time>
      </trkpt>
      <trkpt lat="48.66111" lon="7.72763">
        <ele>141</ele>
        <time>2020-08-08T12:28:47Z</time>
      </trkpt>
      <trkpt lat="48.66118" lon="7.72756">
        <ele>141</ele>
        <time>2020-08-08T12:28:49Z</time>
      </trkpt>
      <trkpt lat="48.66125" lon="7.72749">
        <ele>141</ele>
        <time>2020-08-08T12:28:51Z</time>
      </trkpt>
      <trkpt lat="48.66129" lon="7.72745">
        <ele>142</ele>
        <time>2020-08-08T12:28:52Z</time>
      </trkpt>
      <trkpt lat="48.66136" lon="7.72739">
        <ele>141</ele>
        <time>2020-08-08T12:28:54Z</time>
      </trkpt>
      <trkpt lat="48.6614" lon="7.72733">
        <ele>141</ele>
        <time>2020-08-08T12:28:55Z</time>
      </trkpt>
      <trkpt lat="48.66147" lon="7.72725">
        <ele>141</ele>
        <time>2020-08-08T12:28:57Z</time>
      </trkpt>
      <trkpt lat="48.66151" lon="7.72722">
        <ele>141</ele>
        <time>2020-08-08T12:28:58Z</time>
      </trkpt>
      <trkpt lat="48.66156" lon="7.72717">
        <ele>141</ele>
        <time>2020-08-08T12:28:59Z</time>
      </trkpt>
      <trkpt lat="48.66163" lon="7.72709">
        <ele>141</ele>
        <time>2020-08-08T12:29:01Z</time>
      </trkpt>
      <trkpt lat="48.6617" lon="7.72701">
        <ele>141</ele>
        <time>2020-08-08T12:29:03Z</time>
      </trkpt>
      <trkpt lat="48.66173" lon="7.72696">
        <ele>141</ele>
        <time>2020-08-08T12:29:04Z</time>
      </trkpt>
      <trkpt lat="48.66177" lon="7.72692">
        <ele>141</ele>
        <time>2020-08-08T12:29:05Z</time>
      </trkpt>
      <trkpt lat="48.66182" lon="7.72687">
        <ele>141</ele>
        <time>2020-08-08T12:29:06Z</time>
      </trkpt>
      <trkpt lat="48.66185" lon="7.72683">
        <ele>141</ele>
        <time>2020-08-08T12:29:07Z</time>
      </trkpt>
      <trkpt lat="48.66188" lon="7.72678">
        <ele>141</ele>
        <time>2020-08-08T12:29:08Z</time>
      </trkpt>
      <trkpt lat="48.66193" lon="7.72672">
        <ele>141</ele>
        <time>2020-08-08T12:29:09Z</time>
      </trkpt>
      <trkpt lat="48.66198" lon="7.72669">
        <ele>140</ele>
        <time>2020-08-08T12:29:10Z</time>
      </trkpt>
      <trkpt lat="48.66203" lon="7.72665">
        <ele>140</ele>
        <time>2020-08-08T12:29:11Z</time>
      </trkpt>
      <trkpt lat="48.66206" lon="7.72661">
        <ele>140</ele>
        <time>2020-08-08T12:29:12Z</time>
      </trkpt>
      <trkpt lat="48.66211" lon="7.72656">
        <ele>141</ele>
        <time>2020-08-08T12:29:13Z</time>
      </trkpt>
      <trkpt lat="48.66216" lon="7.72651">
        <ele>141</ele>
        <time>2020-08-08T12:29:14Z</time>
      </trkpt>
      <trkpt lat="48.66222" lon="7.72643">
        <ele>141</ele>
        <time>2020-08-08T12:29:16Z</time>
      </trkpt>
      <trkpt lat="48.66226" lon="7.72639">
        <ele>141</ele>
        <time>2020-08-08T12:29:17Z</time>
      </trkpt>
      <trkpt lat="48.66234" lon="7.72631">
        <ele>141</ele>
        <time>2020-08-08T12:29:19Z</time>
      </trkpt>
      <trkpt lat="48.66237" lon="7.72626">
        <ele>141</ele>
        <time>2020-08-08T12:29:20Z</time>
      </trkpt>
      <trkpt lat="48.66246" lon="7.72617">
        <ele>141</ele>
        <time>2020-08-08T12:29:22Z</time>
      </trkpt>
      <trkpt lat="48.66254" lon="7.72607">
        <ele>142</ele>
        <time>2020-08-08T12:29:24Z</time>
      </trkpt>
      <trkpt lat="48.66258" lon="7.72604">
        <ele>142</ele>
        <time>2020-08-08T12:29:25Z</time>
      </trkpt>
      <trkpt lat="48.66266" lon="7.72596">
        <ele>141</ele>
        <time>2020-08-08T12:29:27Z</time>
      </trkpt>
      <trkpt lat="48.66272" lon="7.72589">
        <ele>142</ele>
        <time>2020-08-08T12:29:29Z</time>
      </trkpt>
      <trkpt lat="48.66281" lon="7.72584">
        <ele>140</ele>
        <time>2020-08-08T12:29:31Z</time>
      </trkpt>
      <trkpt lat="48.66288" lon="7.72572">
        <ele>141</ele>
        <time>2020-08-08T12:29:33Z</time>
      </trkpt>
      <trkpt lat="48.66292" lon="7.72567">
        <ele>142</ele>
        <time>2020-08-08T12:29:34Z</time>
      </trkpt>
      <trkpt lat="48.66295" lon="7.72562">
        <ele>142</ele>
        <time>2020-08-08T12:29:35Z</time>
      </trkpt>
      <trkpt lat="48.663" lon="7.72558">
        <ele>142</ele>
        <time>2020-08-08T12:29:36Z</time>
      </trkpt>
      <trkpt lat="48.66304" lon="7.72554">
        <ele>142</ele>
        <time>2020-08-08T12:29:37Z</time>
      </trkpt>
      <trkpt lat="48.6631" lon="7.72547">
        <ele>142</ele>
        <time>2020-08-08T12:29:38Z</time>
      </trkpt>
      <trkpt lat="48.66317" lon="7.72538">
        <ele>142</ele>
        <time>2020-08-08T12:29:40Z</time>
      </trkpt>
      <trkpt lat="48.66324" lon="7.72529">
        <ele>142</ele>
        <time>2020-08-08T12:29:42Z</time>
      </trkpt>
      <trkpt lat="48.66329" lon="7.72525">
        <ele>142</ele>
        <time>2020-08-08T12:29:43Z</time>
      </trkpt>
      <trkpt lat="48.66333" lon="7.72519">
        <ele>142</ele>
        <time>2020-08-08T12:29:44Z</time>
      </trkpt>
      <trkpt lat="48.66337" lon="7.72516">
        <ele>142</ele>
        <time>2020-08-08T12:29:45Z</time>
      </trkpt>
      <trkpt lat="48.66342" lon="7.7251">
        <ele>142</ele>
        <time>2020-08-08T12:29:47Z</time>
      </trkpt>
      <trkpt lat="48.66346" lon="7.72505">
        <ele>142</ele>
        <time>2020-08-08T12:29:48Z</time>
      </trkpt>
      <trkpt lat="48.66353" lon="7.72496">
        <ele>142</ele>
        <time>2020-08-08T12:29:50Z</time>
      </trkpt>
      <trkpt lat="48.66358" lon="7.72491">
        <ele>141</ele>
        <time>2020-08-08T12:29:51Z</time>
      </trkpt>
      <trkpt lat="48.66363" lon="7.72487">
        <ele>140</ele>
        <time>2020-08-08T12:29:52Z</time>
      </trkpt>
      <trkpt lat="48.66371" lon="7.72479">
        <ele>140</ele>
        <time>2020-08-08T12:29:54Z</time>
      </trkpt>
      <trkpt lat="48.66375" lon="7.72475">
        <ele>140</ele>
        <time>2020-08-08T12:29:55Z</time>
      </trkpt>
      <trkpt lat="48.66383" lon="7.72466">
        <ele>140</ele>
        <time>2020-08-08T12:29:57Z</time>
      </trkpt>
      <trkpt lat="48.6639" lon="7.72458">
        <ele>141</ele>
        <time>2020-08-08T12:29:59Z</time>
      </trkpt>
      <trkpt lat="48.66398" lon="7.72451">
        <ele>141</ele>
        <time>2020-08-08T12:30:01Z</time>
      </trkpt>
      <trkpt lat="48.66402" lon="7.72445">
        <ele>141</ele>
        <time>2020-08-08T12:30:02Z</time>
      </trkpt>
      <trkpt lat="48.66406" lon="7.7244">
        <ele>141</ele>
        <time>2020-08-08T12:30:03Z</time>
      </trkpt>
      <trkpt lat="48.6641" lon="7.72435">
        <ele>142</ele>
        <time>2020-08-08T12:30:04Z</time>
      </trkpt>
      <trkpt lat="48.66414" lon="7.7243">
        <ele>142</ele>
        <time>2020-08-08T12:30:05Z</time>
      </trkpt>
      <trkpt lat="48.66421" lon="7.72421">
        <ele>142</ele>
        <time>2020-08-08T12:30:07Z</time>
      </trkpt>
      <trkpt lat="48.66425" lon="7.72416">
        <ele>142</ele>
        <time>2020-08-08T12:30:08Z</time>
      </trkpt>
      <trkpt lat="48.66429" lon="7.72412">
        <ele>142</ele>
        <time>2020-08-08T12:30:09Z</time>
      </trkpt>
      <trkpt lat="48.66433" lon="7.72408">
        <ele>141</ele>
        <time>2020-08-08T12:30:10Z</time>
      </trkpt>
      <trkpt lat="48.66437" lon="7.72403">
        <ele>141</ele>
        <time>2020-08-08T12:30:11Z</time>
      </trkpt>
      <trkpt lat="48.66441" lon="7.72398">
        <ele>141</ele>
        <time>2020-08-08T12:30:12Z</time>
      </trkpt>
      <trkpt lat="48.66445" lon="7.72394">
        <ele>141</ele>
        <time>2020-08-08T12:30:13Z</time>
      </trkpt>
      <trkpt lat="48.66449" lon="7.72389">
        <ele>141</ele>
        <time>2020-08-08T12:30:14Z</time>
      </trkpt>
      <trkpt lat="48.66453" lon="7.72384">
        <ele>141</ele>
        <time>2020-08-08T12:30:15Z</time>
      </trkpt>
      <trkpt lat="48.66457" lon="7.7238">
        <ele>141</ele>
        <time>2020-08-08T12:30:16Z</time>
      </trkpt>
      <trkpt lat="48.6646" lon="7.72376">
        <ele>141</ele>
        <time>2020-08-08T12:30:17Z</time>
      </trkpt>
      <trkpt lat="48.66465" lon="7.72371">
        <ele>141</ele>
        <time>2020-08-08T12:30:18Z</time>
      </trkpt>
      <trkpt lat="48.66468" lon="7.72367">
        <ele>141</ele>
        <time>2020-08-08T12:30:19Z</time>
      </trkpt>
      <trkpt lat="48.66473" lon="7.72362">
        <ele>142</ele>
        <time>2020-08-08T12:30:20Z</time>
      </trkpt>
      <trkpt lat="48.66477" lon="7.72358">
        <ele>142</ele>
        <time>2020-08-08T12:30:21Z</time>
      </trkpt>
      <trkpt lat="48.66481" lon="7.72354">
        <ele>142</ele>
        <time>2020-08-08T12:30:22Z</time>
      </trkpt>
      <trkpt lat="48.66485" lon="7.72349">
        <ele>142</ele>
        <time>2020-08-08T12:30:23Z</time>
      </trkpt>
      <trkpt lat="48.66489" lon="7.72344">
        <ele>142</ele>
        <time>2020-08-08T12:30:24Z</time>
      </trkpt>
      <trkpt lat="48.66493" lon="7.7234">
        <ele>142</ele>
        <time>2020-08-08T12:30:25Z</time>
      </trkpt>
      <trkpt lat="48.66497" lon="7.72336">
        <ele>142</ele>
        <time>2020-08-08T12:30:26Z</time>
      </trkpt>
      <trkpt lat="48.66501" lon="7.72332">
        <ele>142</ele>
        <time>2020-08-08T12:30:27Z</time>
      </trkpt>
      <trkpt lat="48.66505" lon="7.72328">
        <ele>142</ele>
        <time>2020-08-08T12:30:28Z</time>
      </trkpt>
      <trkpt lat="48.66509" lon="7.72324">
        <ele>142</ele>
        <time>2020-08-08T12:30:29Z</time>
      </trkpt>
      <trkpt lat="48.66513" lon="7.72319">
        <ele>142</ele>
        <time>2020-08-08T12:30:30Z</time>
      </trkpt>
      <trkpt lat="48.66517" lon="7.72315">
        <ele>142</ele>
        <time>2020-08-08T12:30:31Z</time>
      </trkpt>
      <trkpt lat="48.66521" lon="7.7231">
        <ele>142</ele>
        <time>2020-08-08T12:30:32Z</time>
      </trkpt>
      <trkpt lat="48.66525" lon="7.72305">
        <ele>142</ele>
        <time>2020-08-08T12:30:33Z</time>
      </trkpt>
      <trkpt lat="48.66528" lon="7.723">
        <ele>142</ele>
        <time>2020-08-08T12:30:34Z</time>
      </trkpt>
      <trkpt lat="48.66532" lon="7.72296">
        <ele>142</ele>
        <time>2020-08-08T12:30:35Z</time>
      </trkpt>
      <trkpt lat="48.66536" lon="7.72292">
        <ele>142</ele>
        <time>2020-08-08T12:30:36Z</time>
      </trkpt>
      <trkpt lat="48.66541" lon="7.72288">
        <ele>142</ele>
        <time>2020-08-08T12:30:37Z</time>
      </trkpt>
      <trkpt lat="48.66549" lon="7.7228">
        <ele>142</ele>
        <time>2020-08-08T12:30:39Z</time>
      </trkpt>
      <trkpt lat="48.66552" lon="7.72275">
        <ele>142</ele>
        <time>2020-08-08T12:30:40Z</time>
      </trkpt>
      <trkpt lat="48.66557" lon="7.7227">
        <ele>142</ele>
        <time>2020-08-08T12:30:41Z</time>
      </trkpt>
      <trkpt lat="48.6656" lon="7.72266">
        <ele>142</ele>
        <time>2020-08-08T12:30:42Z</time>
      </trkpt>
      <trkpt lat="48.66565" lon="7.72262">
        <ele>141</ele>
        <time>2020-08-08T12:30:43Z</time>
      </trkpt>
      <trkpt lat="48.66569" lon="7.72257">
        <ele>142</ele>
        <time>2020-08-08T12:30:44Z</time>
      </trkpt>
      <trkpt lat="48.66573" lon="7.72252">
        <ele>142</ele>
        <time>2020-08-08T12:30:45Z</time>
      </trkpt>
      <trkpt lat="48.66577" lon="7.72247">
        <ele>142</ele>
        <time>2020-08-08T12:30:46Z</time>
      </trkpt>
      <trkpt lat="48.66581" lon="7.72243">
        <ele>142</ele>
        <time>2020-08-08T12:30:47Z</time>
      </trkpt>
      <trkpt lat="48.66584" lon="7.72239">
        <ele>142</ele>
        <time>2020-08-08T12:30:48Z</time>
      </trkpt>
      <trkpt lat="48.66588" lon="7.72234">
        <ele>142</ele>
        <time>2020-08-08T12:30:49Z</time>
      </trkpt>
      <trkpt lat="48.66592" lon="7.7223">
        <ele>142</ele>
        <time>2020-08-08T12:30:50Z</time>
      </trkpt>
      <trkpt lat="48.66596" lon="7.72226">
        <ele>142</ele>
        <time>2020-08-08T12:30:51Z</time>
      </trkpt>
      <trkpt lat="48.666" lon="7.72222">
        <ele>142</ele>
        <time>2020-08-08T12:30:52Z</time>
      </trkpt>
      <trkpt lat="48.66607" lon="7.72211">
        <ele>142</ele>
        <time>2020-08-08T12:30:54Z</time>
      </trkpt>
      <trkpt lat="48.66611" lon="7.72206">
        <ele>142</ele>
        <time>2020-08-08T12:30:55Z</time>
      </trkpt>
      <trkpt lat="48.66619" lon="7.72198">
        <ele>142</ele>
        <time>2020-08-08T12:30:57Z</time>
      </trkpt>
      <trkpt lat="48.66622" lon="7.72193">
        <ele>143</ele>
        <time>2020-08-08T12:30:58Z</time>
      </trkpt>
      <trkpt lat="48.66628" lon="7.72188">
        <ele>143</ele>
        <time>2020-08-08T12:30:59Z</time>
      </trkpt>
      <trkpt lat="48.66632" lon="7.72184">
        <ele>143</ele>
        <time>2020-08-08T12:31:00Z</time>
      </trkpt>
      <trkpt lat="48.66636" lon="7.72179">
        <ele>143</ele>
        <time>2020-08-08T12:31:01Z</time>
      </trkpt>
      <trkpt lat="48.6664" lon="7.72175">
        <ele>143</ele>
        <time>2020-08-08T12:31:02Z</time>
      </trkpt>
      <trkpt lat="48.66644" lon="7.7217">
        <ele>143</ele>
        <time>2020-08-08T12:31:03Z</time>
      </trkpt>
      <trkpt lat="48.66648" lon="7.72166">
        <ele>142</ele>
        <time>2020-08-08T12:31:04Z</time>
      </trkpt>
      <trkpt lat="48.66652" lon="7.72161">
        <ele>142</ele>
        <time>2020-08-08T12:31:05Z</time>
      </trkpt>
      <trkpt lat="48.66656" lon="7.72156">
        <ele>142</ele>
        <time>2020-08-08T12:31:06Z</time>
      </trkpt>
      <trkpt lat="48.6666" lon="7.7215">
        <ele>143</ele>
        <time>2020-08-08T12:31:07Z</time>
      </trkpt>
      <trkpt lat="48.66665" lon="7.72146">
        <ele>143</ele>
        <time>2020-08-08T12:31:08Z</time>
      </trkpt>
      <trkpt lat="48.6667" lon="7.72142">
        <ele>143</ele>
        <time>2020-08-08T12:31:09Z</time>
      </trkpt>
      <trkpt lat="48.66674" lon="7.72138">
        <ele>142</ele>
        <time>2020-08-08T12:31:10Z</time>
      </trkpt>
      <trkpt lat="48.66678" lon="7.72133">
        <ele>142</ele>
        <time>2020-08-08T12:31:11Z</time>
      </trkpt>
      <trkpt lat="48.66682" lon="7.72129">
        <ele>141</ele>
        <time>2020-08-08T12:31:12Z</time>
      </trkpt>
      <trkpt lat="48.66686" lon="7.72124">
        <ele>141</ele>
        <time>2020-08-08T12:31:13Z</time>
      </trkpt>
      <trkpt lat="48.6669" lon="7.72119">
        <ele>141</ele>
        <time>2020-08-08T12:31:14Z</time>
      </trkpt>
      <trkpt lat="48.66695" lon="7.72114">
        <ele>141</ele>
        <time>2020-08-08T12:31:15Z</time>
      </trkpt>
      <trkpt lat="48.66699" lon="7.72109">
        <ele>141</ele>
        <time>2020-08-08T12:31:16Z</time>
      </trkpt>
      <trkpt lat="48.66703" lon="7.72104">
        <ele>142</ele>
        <time>2020-08-08T12:31:17Z</time>
      </trkpt>
      <trkpt lat="48.66711" lon="7.72096">
        <ele>141</ele>
        <time>2020-08-08T12:31:19Z</time>
      </trkpt>
      <trkpt lat="48.66715" lon="7.72092">
        <ele>141</ele>
        <time>2020-08-08T12:31:20Z</time>
      </trkpt>
      <trkpt lat="48.66719" lon="7.72087">
        <ele>141</ele>
        <time>2020-08-08T12:31:21Z</time>
      </trkpt>
      <trkpt lat="48.66726" lon="7.72079">
        <ele>141</ele>
        <time>2020-08-08T12:31:23Z</time>
      </trkpt>
      <trkpt lat="48.66728" lon="7.72072">
        <ele>141</ele>
        <time>2020-08-08T12:31:24Z</time>
      </trkpt>
      <trkpt lat="48.66729" lon="7.72063">
        <ele>142</ele>
        <time>2020-08-08T12:31:25Z</time>
      </trkpt>
      <trkpt lat="48.66732" lon="7.72055">
        <ele>142</ele>
        <time>2020-08-08T12:31:26Z</time>
      </trkpt>
      <trkpt lat="48.66735" lon="7.72049">
        <ele>142</ele>
        <time>2020-08-08T12:31:27Z</time>
      </trkpt>
      <trkpt lat="48.66738" lon="7.72044">
        <ele>142</ele>
        <time>2020-08-08T12:31:28Z</time>
      </trkpt>
      <trkpt lat="48.66741" lon="7.72039">
        <ele>142</ele>
        <time>2020-08-08T12:31:29Z</time>
      </trkpt>
      <trkpt lat="48.66744" lon="7.72033">
        <ele>143</ele>
        <time>2020-08-08T12:31:30Z</time>
      </trkpt>
      <trkpt lat="48.66748" lon="7.72028">
        <ele>143</ele>
        <time>2020-08-08T12:31:31Z</time>
      </trkpt>
      <trkpt lat="48.66752" lon="7.72022">
        <ele>143</ele>
        <time>2020-08-08T12:31:32Z</time>
      </trkpt>
      <trkpt lat="48.66758" lon="7.72014">
        <ele>143</ele>
        <time>2020-08-08T12:31:34Z</time>
      </trkpt>
      <trkpt lat="48.66761" lon="7.72009">
        <ele>143</ele>
        <time>2020-08-08T12:31:35Z</time>
      </trkpt>
      <trkpt lat="48.66765" lon="7.72002">
        <ele>143</ele>
        <time>2020-08-08T12:31:36Z</time>
      </trkpt>
      <trkpt lat="48.66768" lon="7.71997">
        <ele>143</ele>
        <time>2020-08-08T12:31:37Z</time>
      </trkpt>
      <trkpt lat="48.66771" lon="7.71992">
        <ele>143</ele>
        <time>2020-08-08T12:31:38Z</time>
      </trkpt>
      <trkpt lat="48.66774" lon="7.71987">
        <ele>143</ele>
        <time>2020-08-08T12:31:39Z</time>
      </trkpt>
      <trkpt lat="48.66778" lon="7.71982">
        <ele>143</ele>
        <time>2020-08-08T12:31:40Z</time>
      </trkpt>
      <trkpt lat="48.66784" lon="7.71974">
        <ele>143</ele>
        <time>2020-08-08T12:31:42Z</time>
      </trkpt>
      <trkpt lat="48.66791" lon="7.71968">
        <ele>143</ele>
        <time>2020-08-08T12:31:44Z</time>
      </trkpt>
      <trkpt lat="48.66798" lon="7.71963">
        <ele>143</ele>
        <time>2020-08-08T12:31:46Z</time>
      </trkpt>
      <trkpt lat="48.66805" lon="7.71957">
        <ele>143</ele>
        <time>2020-08-08T12:31:48Z</time>
      </trkpt>
      <trkpt lat="48.66813" lon="7.71951">
        <ele>142</ele>
        <time>2020-08-08T12:31:50Z</time>
      </trkpt>
      <trkpt lat="48.66819" lon="7.71945">
        <ele>142</ele>
        <time>2020-08-08T12:31:52Z</time>
      </trkpt>
      <trkpt lat="48.66825" lon="7.71934">
        <ele>143</ele>
        <time>2020-08-08T12:31:54Z</time>
      </trkpt>
      <trkpt lat="48.66828" lon="7.71927">
        <ele>144</ele>
        <time>2020-08-08T12:31:55Z</time>
      </trkpt>
      <trkpt lat="48.66832" lon="7.71918">
        <ele>143</ele>
        <time>2020-08-08T12:31:57Z</time>
      </trkpt>
      <trkpt lat="48.66835" lon="7.71912">
        <ele>143</ele>
        <time>2020-08-08T12:31:58Z</time>
      </trkpt>
      <trkpt lat="48.66838" lon="7.71905">
        <ele>142</ele>
        <time>2020-08-08T12:31:59Z</time>
      </trkpt>
      <trkpt lat="48.66843" lon="7.71893">
        <ele>142</ele>
        <time>2020-08-08T12:32:01Z</time>
      </trkpt>
      <trkpt lat="48.66848" lon="7.71882">
        <ele>142</ele>
        <time>2020-08-08T12:32:03Z</time>
      </trkpt>
      <trkpt lat="48.6685" lon="7.71876">
        <ele>142</ele>
        <time>2020-08-08T12:32:04Z</time>
      </trkpt>
      <trkpt lat="48.66853" lon="7.71871">
        <ele>142</ele>
        <time>2020-08-08T12:32:05Z</time>
      </trkpt>
      <trkpt lat="48.66856" lon="7.71865">
        <ele>142</ele>
        <time>2020-08-08T12:32:06Z</time>
      </trkpt>
      <trkpt lat="48.66862" lon="7.71854">
        <ele>141</ele>
        <time>2020-08-08T12:32:08Z</time>
      </trkpt>
      <trkpt lat="48.66865" lon="7.71849">
        <ele>141</ele>
        <time>2020-08-08T12:32:09Z</time>
      </trkpt>
      <trkpt lat="48.66867" lon="7.71843">
        <ele>141</ele>
        <time>2020-08-08T12:32:10Z</time>
      </trkpt>
      <trkpt lat="48.66874" lon="7.71834">
        <ele>141</ele>
        <time>2020-08-08T12:32:12Z</time>
      </trkpt>
      <trkpt lat="48.66877" lon="7.71829">
        <ele>141</ele>
        <time>2020-08-08T12:32:13Z</time>
      </trkpt>
      <trkpt lat="48.66882" lon="7.71818">
        <ele>141</ele>
        <time>2020-08-08T12:32:15Z</time>
      </trkpt>
      <trkpt lat="48.66885" lon="7.71813">
        <ele>141</ele>
        <time>2020-08-08T12:32:16Z</time>
      </trkpt>
      <trkpt lat="48.6689" lon="7.71802">
        <ele>141</ele>
        <time>2020-08-08T12:32:18Z</time>
      </trkpt>
      <trkpt lat="48.66893" lon="7.71797">
        <ele>141</ele>
        <time>2020-08-08T12:32:19Z</time>
      </trkpt>
      <trkpt lat="48.66896" lon="7.71791">
        <ele>141</ele>
        <time>2020-08-08T12:32:20Z</time>
      </trkpt>
      <trkpt lat="48.66903" lon="7.71781">
        <ele>141</ele>
        <time>2020-08-08T12:32:22Z</time>
      </trkpt>
      <trkpt lat="48.6691" lon="7.71774">
        <ele>141</ele>
        <time>2020-08-08T12:32:24Z</time>
      </trkpt>
      <trkpt lat="48.66916" lon="7.71764">
        <ele>141</ele>
        <time>2020-08-08T12:32:26Z</time>
      </trkpt>
      <trkpt lat="48.66921" lon="7.71758">
        <ele>141</ele>
        <time>2020-08-08T12:32:28Z</time>
      </trkpt>
      <trkpt lat="48.66925" lon="7.71752">
        <ele>140</ele>
        <time>2020-08-08T12:32:30Z</time>
      </trkpt>
      <trkpt lat="48.66927" lon="7.71745">
        <ele>140</ele>
        <time>2020-08-08T12:32:31Z</time>
      </trkpt>
      <trkpt lat="48.66932" lon="7.71732">
        <ele>141</ele>
        <time>2020-08-08T12:32:33Z</time>
      </trkpt>
      <trkpt lat="48.66934" lon="7.71725">
        <ele>141</ele>
        <time>2020-08-08T12:32:34Z</time>
      </trkpt>
      <trkpt lat="48.66936" lon="7.71719">
        <ele>141</ele>
        <time>2020-08-08T12:32:35Z</time>
      </trkpt>
      <trkpt lat="48.66939" lon="7.71713">
        <ele>141</ele>
        <time>2020-08-08T12:32:36Z</time>
      </trkpt>
      <trkpt lat="48.66942" lon="7.71706">
        <ele>141</ele>
        <time>2020-08-08T12:32:37Z</time>
      </trkpt>
      <trkpt lat="48.66945" lon="7.71701">
        <ele>141</ele>
        <time>2020-08-08T12:32:38Z</time>
      </trkpt>
      <trkpt lat="48.66948" lon="7.71695">
        <ele>141</ele>
        <time>2020-08-08T12:32:39Z</time>
      </trkpt>
      <trkpt lat="48.66954" lon="7.71685">
        <ele>140</ele>
        <time>2020-08-08T12:32:41Z</time>
      </trkpt>
      <trkpt lat="48.66958" lon="7.7168">
        <ele>140</ele>
        <time>2020-08-08T12:32:42Z</time>
      </trkpt>
      <trkpt lat="48.66964" lon="7.71672">
        <ele>140</ele>
        <time>2020-08-08T12:32:44Z</time>
      </trkpt>
      <trkpt lat="48.66971" lon="7.71662">
        <ele>140</ele>
        <time>2020-08-08T12:32:46Z</time>
      </trkpt>
      <trkpt lat="48.66975" lon="7.71655">
        <ele>140</ele>
        <time>2020-08-08T12:32:47Z</time>
      </trkpt>
      <trkpt lat="48.66983" lon="7.71646">
        <ele>140</ele>
        <time>2020-08-08T12:32:49Z</time>
      </trkpt>
      <trkpt lat="48.66987" lon="7.71641">
        <ele>140</ele>
        <time>2020-08-08T12:32:50Z</time>
      </trkpt>
      <trkpt lat="48.6699" lon="7.71636">
        <ele>140</ele>
        <time>2020-08-08T12:32:51Z</time>
      </trkpt>
      <trkpt lat="48.66994" lon="7.71631">
        <ele>140</ele>
        <time>2020-08-08T12:32:52Z</time>
      </trkpt>
      <trkpt lat="48.66997" lon="7.71625">
        <ele>140</ele>
        <time>2020-08-08T12:32:53Z</time>
      </trkpt>
      <trkpt lat="48.67004" lon="7.71618">
        <ele>140</ele>
        <time>2020-08-08T12:32:55Z</time>
      </trkpt>
      <trkpt lat="48.67009" lon="7.71613">
        <ele>140</ele>
        <time>2020-08-08T12:32:56Z</time>
      </trkpt>
      <trkpt lat="48.67013" lon="7.71608">
        <ele>140</ele>
        <time>2020-08-08T12:32:57Z</time>
      </trkpt>
      <trkpt lat="48.67021" lon="7.71602">
        <ele>140</ele>
        <time>2020-08-08T12:32:59Z</time>
      </trkpt>
      <trkpt lat="48.67025" lon="7.71598">
        <ele>140</ele>
        <time>2020-08-08T12:33:00Z</time>
      </trkpt>
      <trkpt lat="48.6703" lon="7.71594">
        <ele>140</ele>
        <time>2020-08-08T12:33:01Z</time>
      </trkpt>
      <trkpt lat="48.67034" lon="7.71589">
        <ele>140</ele>
        <time>2020-08-08T12:33:02Z</time>
      </trkpt>
      <trkpt lat="48.6704" lon="7.71586">
        <ele>140</ele>
        <time>2020-08-08T12:33:03Z</time>
      </trkpt>
      <trkpt lat="48.67044" lon="7.71582">
        <ele>140</ele>
        <time>2020-08-08T12:33:04Z</time>
      </trkpt>
      <trkpt lat="48.67048" lon="7.71578">
        <ele>140</ele>
        <time>2020-08-08T12:33:05Z</time>
      </trkpt>
      <trkpt lat="48.67052" lon="7.71575">
        <ele>140</ele>
        <time>2020-08-08T12:33:06Z</time>
      </trkpt>
      <trkpt lat="48.67056" lon="7.71571">
        <ele>140</ele>
        <time>2020-08-08T12:33:07Z</time>
      </trkpt>
      <trkpt lat="48.67063" lon="7.71567">
        <ele>140</ele>
        <time>2020-08-08T12:33:09Z</time>
      </trkpt>
      <trkpt lat="48.6707" lon="7.71562">
        <ele>140</ele>
        <time>2020-08-08T12:33:11Z</time>
      </trkpt>
      <trkpt lat="48.67078" lon="7.71559">
        <ele>140</ele>
        <time>2020-08-08T12:33:13Z</time>
      </trkpt>
      <trkpt lat="48.67082" lon="7.71553">
        <ele>140</ele>
        <time>2020-08-08T12:33:15Z</time>
      </trkpt>
      <trkpt lat="48.67088" lon="7.71548">
        <ele>141</ele>
        <time>2020-08-08T12:33:17Z</time>
      </trkpt>
      <trkpt lat="48.67092" lon="7.71545">
        <ele>141</ele>
        <time>2020-08-08T12:33:19Z</time>
      </trkpt>
      <trkpt lat="48.67094" lon="7.71551">
        <ele>140</ele>
        <time>2020-08-08T12:33:38Z</time>
      </trkpt>
      <trkpt lat="48.67096" lon="7.7156">
        <ele>140</ele>
        <time>2020-08-08T12:33:41Z</time>
      </trkpt>
      <trkpt lat="48.67098" lon="7.71567">
        <ele>140</ele>
        <time>2020-08-08T12:33:43Z</time>
      </trkpt>
      <trkpt lat="48.67103" lon="7.7157">
        <ele>141</ele>
        <time>2020-08-08T12:33:47Z</time>
      </trkpt>
      <trkpt lat="48.67111" lon="7.71566">
        <ele>141</ele>
        <time>2020-08-08T12:33:50Z</time>
      </trkpt>
      <trkpt lat="48.67116" lon="7.71562">
        <ele>141</ele>
        <time>2020-08-08T12:33:52Z</time>
      </trkpt>
      <trkpt lat="48.67123" lon="7.71559">
        <ele>140</ele>
        <time>2020-08-08T12:33:54Z</time>
      </trkpt>
      <trkpt lat="48.6713" lon="7.71557">
        <ele>140</ele>
        <time>2020-08-08T12:33:56Z</time>
      </trkpt>
      <trkpt lat="48.67136" lon="7.71556">
        <ele>140</ele>
        <time>2020-08-08T12:33:58Z</time>
      </trkpt>
      <trkpt lat="48.67144" lon="7.71552">
        <ele>140</ele>
        <time>2020-08-08T12:34:00Z</time>
      </trkpt>
      <trkpt lat="48.67151" lon="7.71549">
        <ele>140</ele>
        <time>2020-08-08T12:34:02Z</time>
      </trkpt>
      <trkpt lat="48.67159" lon="7.71547">
        <ele>140</ele>
        <time>2020-08-08T12:34:04Z</time>
      </trkpt>
      <trkpt lat="48.67163" lon="7.71545">
        <ele>140</ele>
        <time>2020-08-08T12:34:05Z</time>
      </trkpt>
      <trkpt lat="48.67171" lon="7.7154">
        <ele>140</ele>
        <time>2020-08-08T12:34:07Z</time>
      </trkpt>
      <trkpt lat="48.67179" lon="7.71536">
        <ele>140</ele>
        <time>2020-08-08T12:34:09Z</time>
      </trkpt>
      <trkpt lat="48.67186" lon="7.71532">
        <ele>140</ele>
        <time>2020-08-08T12:34:11Z</time>
      </trkpt>
      <trkpt lat="48.67195" lon="7.71527">
        <ele>141</ele>
        <time>2020-08-08T12:34:13Z</time>
      </trkpt>
      <trkpt lat="48.67203" lon="7.71524">
        <ele>141</ele>
        <time>2020-08-08T12:34:15Z</time>
      </trkpt>
      <trkpt lat="48.67212" lon="7.71522">
        <ele>141</ele>
        <time>2020-08-08T12:34:17Z</time>
      </trkpt>
      <trkpt lat="48.67223" lon="7.71514">
        <ele>141</ele>
        <time>2020-08-08T12:34:20Z</time>
      </trkpt>
      <trkpt lat="48.67232" lon="7.71509">
        <ele>141</ele>
        <time>2020-08-08T12:34:22Z</time>
      </trkpt>
      <trkpt lat="48.67236" lon="7.71506">
        <ele>141</ele>
        <time>2020-08-08T12:34:23Z</time>
      </trkpt>
      <trkpt lat="48.67241" lon="7.71504">
        <ele>141</ele>
        <time>2020-08-08T12:34:24Z</time>
      </trkpt>
      <trkpt lat="48.67246" lon="7.71502">
        <ele>141</ele>
        <time>2020-08-08T12:34:25Z</time>
      </trkpt>
      <trkpt lat="48.67254" lon="7.71498">
        <ele>141</ele>
        <time>2020-08-08T12:34:27Z</time>
      </trkpt>
      <trkpt lat="48.67262" lon="7.71493">
        <ele>141</ele>
        <time>2020-08-08T12:34:29Z</time>
      </trkpt>
      <trkpt lat="48.6727" lon="7.7149">
        <ele>141</ele>
        <time>2020-08-08T12:34:31Z</time>
      </trkpt>
      <trkpt lat="48.67275" lon="7.71487">
        <ele>141</ele>
        <time>2020-08-08T12:34:32Z</time>
      </trkpt>
      <trkpt lat="48.67283" lon="7.71484">
        <ele>142</ele>
        <time>2020-08-08T12:34:34Z</time>
      </trkpt>
      <trkpt lat="48.67291" lon="7.7148">
        <ele>143</ele>
        <time>2020-08-08T12:34:36Z</time>
      </trkpt>
      <trkpt lat="48.67297" lon="7.71477">
        <ele>143</ele>
        <time>2020-08-08T12:34:38Z</time>
      </trkpt>
      <trkpt lat="48.67303" lon="7.71475">
        <ele>144</ele>
        <time>2020-08-08T12:34:40Z</time>
      </trkpt>
      <trkpt lat="48.67308" lon="7.71472">
        <ele>145</ele>
        <time>2020-08-08T12:34:42Z</time>
      </trkpt>
      <trkpt lat="48.67312" lon="7.71467">
        <ele>145</ele>
        <time>2020-08-08T12:34:44Z</time>
      </trkpt>
      <trkpt lat="48.67316" lon="7.7146">
        <ele>145</ele>
        <time>2020-08-08T12:34:46Z</time>
      </trkpt>
      <trkpt lat="48.6732" lon="7.71457">
        <ele>145</ele>
        <time>2020-08-08T12:34:48Z</time>
      </trkpt>
      <trkpt lat="48.67325" lon="7.71455">
        <ele>145</ele>
        <time>2020-08-08T12:34:50Z</time>
      </trkpt>
      <trkpt lat="48.67331" lon="7.71452">
        <ele>144</ele>
        <time>2020-08-08T12:34:52Z</time>
      </trkpt>
      <trkpt lat="48.67339" lon="7.7145">
        <ele>143</ele>
        <time>2020-08-08T12:34:54Z</time>
      </trkpt>
      <trkpt lat="48.67346" lon="7.71448">
        <ele>143</ele>
        <time>2020-08-08T12:34:56Z</time>
      </trkpt>
      <trkpt lat="48.67353" lon="7.71446">
        <ele>143</ele>
        <time>2020-08-08T12:34:58Z</time>
      </trkpt>
      <trkpt lat="48.67358" lon="7.71442">
        <ele>143</ele>
        <time>2020-08-08T12:35:00Z</time>
      </trkpt>
      <trkpt lat="48.67365" lon="7.71438">
        <ele>144</ele>
        <time>2020-08-08T12:35:02Z</time>
      </trkpt>
      <trkpt lat="48.67371" lon="7.71435">
        <ele>144</ele>
        <time>2020-08-08T12:35:04Z</time>
      </trkpt>
      <trkpt lat="48.67378" lon="7.7143">
        <ele>144</ele>
        <time>2020-08-08T12:35:06Z</time>
      </trkpt>
      <trkpt lat="48.67385" lon="7.71426">
        <ele>144</ele>
        <time>2020-08-08T12:35:08Z</time>
      </trkpt>
      <trkpt lat="48.67393" lon="7.71423">
        <ele>143</ele>
        <time>2020-08-08T12:35:10Z</time>
      </trkpt>
      <trkpt lat="48.674" lon="7.71421">
        <ele>143</ele>
        <time>2020-08-08T12:35:12Z</time>
      </trkpt>
      <trkpt lat="48.67408" lon="7.71418">
        <ele>143</ele>
        <time>2020-08-08T12:35:14Z</time>
      </trkpt>
      <trkpt lat="48.67415" lon="7.71413">
        <ele>143</ele>
        <time>2020-08-08T12:35:16Z</time>
      </trkpt>
      <trkpt lat="48.67423" lon="7.7141">
        <ele>143</ele>
        <time>2020-08-08T12:35:18Z</time>
      </trkpt>
      <trkpt lat="48.67431" lon="7.71405">
        <ele>142</ele>
        <time>2020-08-08T12:35:20Z</time>
      </trkpt>
      <trkpt lat="48.67439" lon="7.71402">
        <ele>142</ele>
        <time>2020-08-08T12:35:22Z</time>
      </trkpt>
      <trkpt lat="48.67444" lon="7.714">
        <ele>142</ele>
        <time>2020-08-08T12:35:23Z</time>
      </trkpt>
      <trkpt lat="48.67451" lon="7.71395">
        <ele>143</ele>
        <time>2020-08-08T12:35:25Z</time>
      </trkpt>
      <trkpt lat="48.67457" lon="7.71391">
        <ele>142</ele>
        <time>2020-08-08T12:35:26Z</time>
      </trkpt>
      <trkpt lat="48.67469" lon="7.71383">
        <ele>143</ele>
        <time>2020-08-08T12:35:29Z</time>
      </trkpt>
      <trkpt lat="48.67474" lon="7.7138">
        <ele>143</ele>
        <time>2020-08-08T12:35:30Z</time>
      </trkpt>
      <trkpt lat="48.67482" lon="7.71376">
        <ele>143</ele>
        <time>2020-08-08T12:35:32Z</time>
      </trkpt>
      <trkpt lat="48.6749" lon="7.71371">
        <ele>142</ele>
        <time>2020-08-08T12:35:34Z</time>
      </trkpt>
      <trkpt lat="48.67497" lon="7.71369">
        <ele>142</ele>
        <time>2020-08-08T12:35:36Z</time>
      </trkpt>
      <trkpt lat="48.67505" lon="7.71364">
        <ele>142</ele>
        <time>2020-08-08T12:35:38Z</time>
      </trkpt>
      <trkpt lat="48.67513" lon="7.71361">
        <ele>142</ele>
        <time>2020-08-08T12:35:40Z</time>
      </trkpt>
      <trkpt lat="48.67518" lon="7.71358">
        <ele>142</ele>
        <time>2020-08-08T12:35:41Z</time>
      </trkpt>
      <trkpt lat="48.67522" lon="7.71356">
        <ele>142</ele>
        <time>2020-08-08T12:35:42Z</time>
      </trkpt>
      <trkpt lat="48.67527" lon="7.71353">
        <ele>142</ele>
        <time>2020-08-08T12:35:43Z</time>
      </trkpt>
      <trkpt lat="48.67535" lon="7.71348">
        <ele>142</ele>
        <time>2020-08-08T12:35:45Z</time>
      </trkpt>
      <trkpt lat="48.67543" lon="7.71343">
        <ele>143</ele>
        <time>2020-08-08T12:35:47Z</time>
      </trkpt>
      <trkpt lat="48.67551" lon="7.7134">
        <ele>144</ele>
        <time>2020-08-08T12:35:49Z</time>
      </trkpt>
      <trkpt lat="48.67559" lon="7.71339">
        <ele>143</ele>
        <time>2020-08-08T12:35:51Z</time>
      </trkpt>
      <trkpt lat="48.67567" lon="7.71333">
        <ele>144</ele>
        <time>2020-08-08T12:35:53Z</time>
      </trkpt>
      <trkpt lat="48.67571" lon="7.71331">
        <ele>144</ele>
        <time>2020-08-08T12:35:54Z</time>
      </trkpt>
      <trkpt lat="48.67576" lon="7.71328">
        <ele>144</ele>
        <time>2020-08-08T12:35:55Z</time>
      </trkpt>
      <trkpt lat="48.6758" lon="7.71325">
        <ele>144</ele>
        <time>2020-08-08T12:35:56Z</time>
      </trkpt>
      <trkpt lat="48.67585" lon="7.71324">
        <ele>143</ele>
        <time>2020-08-08T12:35:57Z</time>
      </trkpt>
      <trkpt lat="48.67589" lon="7.71323">
        <ele>143</ele>
        <time>2020-08-08T12:35:58Z</time>
      </trkpt>
      <trkpt lat="48.67594" lon="7.71321">
        <ele>143</ele>
        <time>2020-08-08T12:35:59Z</time>
      </trkpt>
      <trkpt lat="48.67602" lon="7.71317">
        <ele>143</ele>
        <time>2020-08-08T12:36:01Z</time>
      </trkpt>
      <trkpt lat="48.67607" lon="7.71314">
        <ele>143</ele>
        <time>2020-08-08T12:36:02Z</time>
      </trkpt>
      <trkpt lat="48.67613" lon="7.71312">
        <ele>144</ele>
        <time>2020-08-08T12:36:03Z</time>
      </trkpt>
      <trkpt lat="48.67621" lon="7.71307">
        <ele>144</ele>
        <time>2020-08-08T12:36:05Z</time>
      </trkpt>
      <trkpt lat="48.67629" lon="7.71304">
        <ele>143</ele>
        <time>2020-08-08T12:36:07Z</time>
      </trkpt>
      <trkpt lat="48.67633" lon="7.71301">
        <ele>143</ele>
        <time>2020-08-08T12:36:08Z</time>
      </trkpt>
      <trkpt lat="48.67642" lon="7.71297">
        <ele>143</ele>
        <time>2020-08-08T12:36:10Z</time>
      </trkpt>
      <trkpt lat="48.67651" lon="7.71292">
        <ele>144</ele>
        <time>2020-08-08T12:36:12Z</time>
      </trkpt>
      <trkpt lat="48.67656" lon="7.71288">
        <ele>144</ele>
        <time>2020-08-08T12:36:13Z</time>
      </trkpt>
      <trkpt lat="48.67665" lon="7.71282">
        <ele>144</ele>
        <time>2020-08-08T12:36:15Z</time>
      </trkpt>
      <trkpt lat="48.67669" lon="7.71279">
        <ele>144</ele>
        <time>2020-08-08T12:36:16Z</time>
      </trkpt>
      <trkpt lat="48.67674" lon="7.71275">
        <ele>144</ele>
        <time>2020-08-08T12:36:17Z</time>
      </trkpt>
      <trkpt lat="48.67683" lon="7.7127">
        <ele>144</ele>
        <time>2020-08-08T12:36:19Z</time>
      </trkpt>
      <trkpt lat="48.67691" lon="7.71264">
        <ele>144</ele>
        <time>2020-08-08T12:36:21Z</time>
      </trkpt>
      <trkpt lat="48.67696" lon="7.7126">
        <ele>144</ele>
        <time>2020-08-08T12:36:22Z</time>
      </trkpt>
      <trkpt lat="48.67701" lon="7.71257">
        <ele>144</ele>
        <time>2020-08-08T12:36:23Z</time>
      </trkpt>
      <trkpt lat="48.67708" lon="7.71252">
        <ele>144</ele>
        <time>2020-08-08T12:36:25Z</time>
      </trkpt>
      <trkpt lat="48.67717" lon="7.7125">
        <ele>144</ele>
        <time>2020-08-08T12:36:27Z</time>
      </trkpt>
      <trkpt lat="48.67723" lon="7.71248">
        <ele>144</ele>
        <time>2020-08-08T12:36:28Z</time>
      </trkpt>
      <trkpt lat="48.67727" lon="7.71246">
        <ele>143</ele>
        <time>2020-08-08T12:36:29Z</time>
      </trkpt>
      <trkpt lat="48.67736" lon="7.71242">
        <ele>143</ele>
        <time>2020-08-08T12:36:31Z</time>
      </trkpt>
      <trkpt lat="48.67742" lon="7.71236">
        <ele>143</ele>
        <time>2020-08-08T12:36:33Z</time>
      </trkpt>
      <trkpt lat="48.67746" lon="7.71229">
        <ele>143</ele>
        <time>2020-08-08T12:36:34Z</time>
      </trkpt>
      <trkpt lat="48.67757" lon="7.71224">
        <ele>143</ele>
        <time>2020-08-08T12:36:36Z</time>
      </trkpt>
      <trkpt lat="48.67759" lon="7.71217">
        <ele>143</ele>
        <time>2020-08-08T12:36:37Z</time>
      </trkpt>
      <trkpt lat="48.67769" lon="7.71214">
        <ele>143</ele>
        <time>2020-08-08T12:36:39Z</time>
      </trkpt>
      <trkpt lat="48.67778" lon="7.71211">
        <ele>144</ele>
        <time>2020-08-08T12:36:41Z</time>
      </trkpt>
      <trkpt lat="48.67784" lon="7.71208">
        <ele>144</ele>
        <time>2020-08-08T12:36:42Z</time>
      </trkpt>
      <trkpt lat="48.67788" lon="7.71205">
        <ele>144</ele>
        <time>2020-08-08T12:36:43Z</time>
      </trkpt>
      <trkpt lat="48.67793" lon="7.71202">
        <ele>144</ele>
        <time>2020-08-08T12:36:44Z</time>
      </trkpt>
      <trkpt lat="48.67801" lon="7.71198">
        <ele>144</ele>
        <time>2020-08-08T12:36:46Z</time>
      </trkpt>
      <trkpt lat="48.67812" lon="7.71191">
        <ele>143</ele>
        <time>2020-08-08T12:36:48Z</time>
      </trkpt>
      <trkpt lat="48.67821" lon="7.7119">
        <ele>143</ele>
        <time>2020-08-08T12:36:50Z</time>
      </trkpt>
      <trkpt lat="48.67834" lon="7.71185">
        <ele>143</ele>
        <time>2020-08-08T12:36:53Z</time>
      </trkpt>
      <trkpt lat="48.67839" lon="7.71182">
        <ele>143</ele>
        <time>2020-08-08T12:36:54Z</time>
      </trkpt>
      <trkpt lat="48.67844" lon="7.71179">
        <ele>143</ele>
        <time>2020-08-08T12:36:55Z</time>
      </trkpt>
      <trkpt lat="48.67848" lon="7.71177">
        <ele>143</ele>
        <time>2020-08-08T12:36:56Z</time>
      </trkpt>
      <trkpt lat="48.67857" lon="7.71173">
        <ele>143</ele>
        <time>2020-08-08T12:36:58Z</time>
      </trkpt>
      <trkpt lat="48.67862" lon="7.7117">
        <ele>143</ele>
        <time>2020-08-08T12:36:59Z</time>
      </trkpt>
      <trkpt lat="48.67866" lon="7.71167">
        <ele>143</ele>
        <time>2020-08-08T12:37:00Z</time>
      </trkpt>
      <trkpt lat="48.67875" lon="7.71162">
        <ele>143</ele>
        <time>2020-08-08T12:37:02Z</time>
      </trkpt>
      <trkpt lat="48.6788" lon="7.71161">
        <ele>143</ele>
        <time>2020-08-08T12:37:03Z</time>
      </trkpt>
      <trkpt lat="48.67884" lon="7.71158">
        <ele>143</ele>
        <time>2020-08-08T12:37:04Z</time>
      </trkpt>
      <trkpt lat="48.67889" lon="7.71156">
        <ele>143</ele>
        <time>2020-08-08T12:37:05Z</time>
      </trkpt>
      <trkpt lat="48.67899" lon="7.71151">
        <ele>143</ele>
        <time>2020-08-08T12:37:07Z</time>
      </trkpt>
      <trkpt lat="48.67903" lon="7.71148">
        <ele>143</ele>
        <time>2020-08-08T12:37:08Z</time>
      </trkpt>
      <trkpt lat="48.67908" lon="7.71145">
        <ele>143</ele>
        <time>2020-08-08T12:37:09Z</time>
      </trkpt>
      <trkpt lat="48.67912" lon="7.71142">
        <ele>143</ele>
        <time>2020-08-08T12:37:10Z</time>
      </trkpt>
      <trkpt lat="48.67917" lon="7.71139">
        <ele>143</ele>
        <time>2020-08-08T12:37:11Z</time>
      </trkpt>
      <trkpt lat="48.67922" lon="7.71136">
        <ele>143</ele>
        <time>2020-08-08T12:37:12Z</time>
      </trkpt>
      <trkpt lat="48.67927" lon="7.71134">
        <ele>143</ele>
        <time>2020-08-08T12:37:13Z</time>
      </trkpt>
      <trkpt lat="48.67932" lon="7.71131">
        <ele>143</ele>
        <time>2020-08-08T12:37:14Z</time>
      </trkpt>
      <trkpt lat="48.67941" lon="7.71125">
        <ele>143</ele>
        <time>2020-08-08T12:37:16Z</time>
      </trkpt>
      <trkpt lat="48.67946" lon="7.71123">
        <ele>143</ele>
        <time>2020-08-08T12:37:17Z</time>
      </trkpt>
      <trkpt lat="48.6795" lon="7.71121">
        <ele>143</ele>
        <time>2020-08-08T12:37:18Z</time>
      </trkpt>
      <trkpt lat="48.67954" lon="7.71118">
        <ele>143</ele>
        <time>2020-08-08T12:37:19Z</time>
      </trkpt>
      <trkpt lat="48.67963" lon="7.71115">
        <ele>143</ele>
        <time>2020-08-08T12:37:21Z</time>
      </trkpt>
      <trkpt lat="48.67971" lon="7.71112">
        <ele>143</ele>
        <time>2020-08-08T12:37:23Z</time>
      </trkpt>
      <trkpt lat="48.67981" lon="7.71107">
        <ele>143</ele>
        <time>2020-08-08T12:37:25Z</time>
      </trkpt>
      <trkpt lat="48.6799" lon="7.711">
        <ele>144</ele>
        <time>2020-08-08T12:37:27Z</time>
      </trkpt>
      <trkpt lat="48.67994" lon="7.71099">
        <ele>144</ele>
        <time>2020-08-08T12:37:28Z</time>
      </trkpt>
      <trkpt lat="48.67999" lon="7.71096">
        <ele>144</ele>
        <time>2020-08-08T12:37:29Z</time>
      </trkpt>
      <trkpt lat="48.68003" lon="7.71093">
        <ele>144</ele>
        <time>2020-08-08T12:37:30Z</time>
      </trkpt>
      <trkpt lat="48.68008" lon="7.71091">
        <ele>144</ele>
        <time>2020-08-08T12:37:31Z</time>
      </trkpt>
      <trkpt lat="48.68013" lon="7.71088">
        <ele>144</ele>
        <time>2020-08-08T12:37:32Z</time>
      </trkpt>
      <trkpt lat="48.68021" lon="7.71085">
        <ele>143</ele>
        <time>2020-08-08T12:37:34Z</time>
      </trkpt>
      <trkpt lat="48.68026" lon="7.71082">
        <ele>143</ele>
        <time>2020-08-08T12:37:35Z</time>
      </trkpt>
      <trkpt lat="48.68034" lon="7.71078">
        <ele>143</ele>
        <time>2020-08-08T12:37:37Z</time>
      </trkpt>
      <trkpt lat="48.68039" lon="7.71075">
        <ele>143</ele>
        <time>2020-08-08T12:37:38Z</time>
      </trkpt>
      <trkpt lat="48.68047" lon="7.7107">
        <ele>143</ele>
        <time>2020-08-08T12:37:40Z</time>
      </trkpt>
      <trkpt lat="48.68051" lon="7.71068">
        <ele>143</ele>
        <time>2020-08-08T12:37:41Z</time>
      </trkpt>
      <trkpt lat="48.68058" lon="7.71064">
        <ele>143</ele>
        <time>2020-08-08T12:37:43Z</time>
      </trkpt>
      <trkpt lat="48.68066" lon="7.7106">
        <ele>143</ele>
        <time>2020-08-08T12:37:45Z</time>
      </trkpt>
      <trkpt lat="48.6807" lon="7.71057">
        <ele>143</ele>
        <time>2020-08-08T12:37:46Z</time>
      </trkpt>
      <trkpt lat="48.68078" lon="7.71052">
        <ele>143</ele>
        <time>2020-08-08T12:37:48Z</time>
      </trkpt>
      <trkpt lat="48.68085" lon="7.71047">
        <ele>143</ele>
        <time>2020-08-08T12:37:50Z</time>
      </trkpt>
      <trkpt lat="48.6809" lon="7.71045">
        <ele>143</ele>
        <time>2020-08-08T12:37:51Z</time>
      </trkpt>
      <trkpt lat="48.68094" lon="7.71044">
        <ele>144</ele>
        <time>2020-08-08T12:37:52Z</time>
      </trkpt>
      <trkpt lat="48.68099" lon="7.71041">
        <ele>144</ele>
        <time>2020-08-08T12:37:53Z</time>
      </trkpt>
      <trkpt lat="48.68104" lon="7.71039">
        <ele>144</ele>
        <time>2020-08-08T12:37:54Z</time>
      </trkpt>
      <trkpt lat="48.68109" lon="7.71036">
        <ele>144</ele>
        <time>2020-08-08T12:37:55Z</time>
      </trkpt>
      <trkpt lat="48.68113" lon="7.71034">
        <ele>144</ele>
        <time>2020-08-08T12:37:56Z</time>
      </trkpt>
      <trkpt lat="48.68122" lon="7.7103">
        <ele>144</ele>
        <time>2020-08-08T12:37:58Z</time>
      </trkpt>
      <trkpt lat="48.68126" lon="7.71027">
        <ele>144</ele>
        <time>2020-08-08T12:37:59Z</time>
      </trkpt>
      <trkpt lat="48.68134" lon="7.71021">
        <ele>144</ele>
        <time>2020-08-08T12:38:01Z</time>
      </trkpt>
      <trkpt lat="48.68139" lon="7.71018">
        <ele>144</ele>
        <time>2020-08-08T12:38:02Z</time>
      </trkpt>
      <trkpt lat="48.68144" lon="7.71017">
        <ele>144</ele>
        <time>2020-08-08T12:38:03Z</time>
      </trkpt>
      <trkpt lat="48.68148" lon="7.71014">
        <ele>144</ele>
        <time>2020-08-08T12:38:04Z</time>
      </trkpt>
      <trkpt lat="48.68154" lon="7.71011">
        <ele>144</ele>
        <time>2020-08-08T12:38:05Z</time>
      </trkpt>
      <trkpt lat="48.68158" lon="7.71009">
        <ele>144</ele>
        <time>2020-08-08T12:38:06Z</time>
      </trkpt>
      <trkpt lat="48.68163" lon="7.71006">
        <ele>144</ele>
        <time>2020-08-08T12:38:07Z</time>
      </trkpt>
      <trkpt lat="48.68167" lon="7.71003">
        <ele>144</ele>
        <time>2020-08-08T12:38:08Z</time>
      </trkpt>
      <trkpt lat="48.68172" lon="7.71001">
        <ele>143</ele>
        <time>2020-08-08T12:38:09Z</time>
      </trkpt>
      <trkpt lat="48.68176" lon="7.70998">
        <ele>143</ele>
        <time>2020-08-08T12:38:10Z</time>
      </trkpt>
      <trkpt lat="48.68182" lon="7.70997">
        <ele>143</ele>
        <time>2020-08-08T12:38:11Z</time>
      </trkpt>
      <trkpt lat="48.68187" lon="7.70994">
        <ele>143</ele>
        <time>2020-08-08T12:38:12Z</time>
      </trkpt>
      <trkpt lat="48.68191" lon="7.70991">
        <ele>143</ele>
        <time>2020-08-08T12:38:13Z</time>
      </trkpt>
      <trkpt lat="48.68198" lon="7.70987">
        <ele>143</ele>
        <time>2020-08-08T12:38:15Z</time>
      </trkpt>
      <trkpt lat="48.68203" lon="7.70986">
        <ele>143</ele>
        <time>2020-08-08T12:38:16Z</time>
      </trkpt>
      <trkpt lat="48.68213" lon="7.70979">
        <ele>144</ele>
        <time>2020-08-08T12:38:18Z</time>
      </trkpt>
      <trkpt lat="48.68221" lon="7.70974">
        <ele>144</ele>
        <time>2020-08-08T12:38:20Z</time>
      </trkpt>
      <trkpt lat="48.68229" lon="7.7097">
        <ele>144</ele>
        <time>2020-08-08T12:38:22Z</time>
      </trkpt>
      <trkpt lat="48.68238" lon="7.70967">
        <ele>144</ele>
        <time>2020-08-08T12:38:24Z</time>
      </trkpt>
      <trkpt lat="48.68245" lon="7.70963">
        <ele>144</ele>
        <time>2020-08-08T12:38:26Z</time>
      </trkpt>
      <trkpt lat="48.68252" lon="7.70961">
        <ele>146</ele>
        <time>2020-08-08T12:38:28Z</time>
      </trkpt>
      <trkpt lat="48.68258" lon="7.70957">
        <ele>146</ele>
        <time>2020-08-08T12:38:30Z</time>
      </trkpt>
      <trkpt lat="48.68263" lon="7.70955">
        <ele>147</ele>
        <time>2020-08-08T12:38:32Z</time>
      </trkpt>
      <trkpt lat="48.68268" lon="7.70951">
        <ele>147</ele>
        <time>2020-08-08T12:38:34Z</time>
      </trkpt>
      <trkpt lat="48.68274" lon="7.70946">
        <ele>147</ele>
        <time>2020-08-08T12:38:36Z</time>
      </trkpt>
      <trkpt lat="48.6828" lon="7.70941">
        <ele>147</ele>
        <time>2020-08-08T12:38:38Z</time>
      </trkpt>
      <trkpt lat="48.68288" lon="7.70939">
        <ele>147</ele>
        <time>2020-08-08T12:38:40Z</time>
      </trkpt>
      <trkpt lat="48.68295" lon="7.70935">
        <ele>146</ele>
        <time>2020-08-08T12:38:42Z</time>
      </trkpt>
      <trkpt lat="48.68303" lon="7.70931">
        <ele>146</ele>
        <time>2020-08-08T12:38:44Z</time>
      </trkpt>
      <trkpt lat="48.6831" lon="7.70929">
        <ele>146</ele>
        <time>2020-08-08T12:38:46Z</time>
      </trkpt>
      <trkpt lat="48.68317" lon="7.70925">
        <ele>146</ele>
        <time>2020-08-08T12:38:48Z</time>
      </trkpt>
      <trkpt lat="48.68325" lon="7.7092">
        <ele>146</ele>
        <time>2020-08-08T12:38:50Z</time>
      </trkpt>
      <trkpt lat="48.68332" lon="7.70917">
        <ele>146</ele>
        <time>2020-08-08T12:38:52Z</time>
      </trkpt>
      <trkpt lat="48.6834" lon="7.70913">
        <ele>146</ele>
        <time>2020-08-08T12:38:54Z</time>
      </trkpt>
      <trkpt lat="48.68347" lon="7.70912">
        <ele>146</ele>
        <time>2020-08-08T12:38:56Z</time>
      </trkpt>
      <trkpt lat="48.68354" lon="7.70907">
        <ele>147</ele>
        <time>2020-08-08T12:38:58Z</time>
      </trkpt>
      <trkpt lat="48.68362" lon="7.70903">
        <ele>147</ele>
        <time>2020-08-08T12:39:00Z</time>
      </trkpt>
      <trkpt lat="48.68372" lon="7.709">
        <ele>147</ele>
        <time>2020-08-08T12:39:02Z</time>
      </trkpt>
      <trkpt lat="48.68376" lon="7.70897">
        <ele>147</ele>
        <time>2020-08-08T12:39:03Z</time>
      </trkpt>
      <trkpt lat="48.68385" lon="7.70892">
        <ele>146</ele>
        <time>2020-08-08T12:39:05Z</time>
      </trkpt>
      <trkpt lat="48.68389" lon="7.70889">
        <ele>145</ele>
        <time>2020-08-08T12:39:06Z</time>
      </trkpt>
      <trkpt lat="48.68397" lon="7.70885">
        <ele>146</ele>
        <time>2020-08-08T12:39:08Z</time>
      </trkpt>
      <trkpt lat="48.68405" lon="7.70882">
        <ele>146</ele>
        <time>2020-08-08T12:39:10Z</time>
      </trkpt>
      <trkpt lat="48.6841" lon="7.7088">
        <ele>146</ele>
        <time>2020-08-08T12:39:11Z</time>
      </trkpt>
      <trkpt lat="48.68414" lon="7.70877">
        <ele>146</ele>
        <time>2020-08-08T12:39:12Z</time>
      </trkpt>
      <trkpt lat="48.68423" lon="7.70872">
        <ele>145</ele>
        <time>2020-08-08T12:39:14Z</time>
      </trkpt>
      <trkpt lat="48.68428" lon="7.70868">
        <ele>145</ele>
        <time>2020-08-08T12:39:15Z</time>
      </trkpt>
      <trkpt lat="48.68432" lon="7.70866">
        <ele>145</ele>
        <time>2020-08-08T12:39:16Z</time>
      </trkpt>
      <trkpt lat="48.68441" lon="7.70861">
        <ele>145</ele>
        <time>2020-08-08T12:39:18Z</time>
      </trkpt>
      <trkpt lat="48.68446" lon="7.70857">
        <ele>145</ele>
        <time>2020-08-08T12:39:19Z</time>
      </trkpt>
      <trkpt lat="48.68451" lon="7.70856">
        <ele>145</ele>
        <time>2020-08-08T12:39:20Z</time>
      </trkpt>
      <trkpt lat="48.68456" lon="7.70854">
        <ele>145</ele>
        <time>2020-08-08T12:39:21Z</time>
      </trkpt>
      <trkpt lat="48.68461" lon="7.70851">
        <ele>145</ele>
        <time>2020-08-08T12:39:22Z</time>
      </trkpt>
      <trkpt lat="48.68465" lon="7.70848">
        <ele>145</ele>
        <time>2020-08-08T12:39:23Z</time>
      </trkpt>
      <trkpt lat="48.68474" lon="7.70843">
        <ele>145</ele>
        <time>2020-08-08T12:39:25Z</time>
      </trkpt>
      <trkpt lat="48.68479" lon="7.7084">
        <ele>145</ele>
        <time>2020-08-08T12:39:26Z</time>
      </trkpt>
      <trkpt lat="48.68484" lon="7.70838">
        <ele>145</ele>
        <time>2020-08-08T12:39:27Z</time>
      </trkpt>
      <trkpt lat="48.68488" lon="7.70836">
        <ele>145</ele>
        <time>2020-08-08T12:39:28Z</time>
      </trkpt>
      <trkpt lat="48.68493" lon="7.70833">
        <ele>145</ele>
        <time>2020-08-08T12:39:29Z</time>
      </trkpt>
      <trkpt lat="48.68502" lon="7.7083">
        <ele>146</ele>
        <time>2020-08-08T12:39:31Z</time>
      </trkpt>
      <trkpt lat="48.68509" lon="7.70823">
        <ele>147</ele>
        <time>2020-08-08T12:39:33Z</time>
      </trkpt>
      <trkpt lat="48.68515" lon="7.70817">
        <ele>147</ele>
        <time>2020-08-08T12:39:35Z</time>
      </trkpt>
      <trkpt lat="48.68522" lon="7.70813">
        <ele>147</ele>
        <time>2020-08-08T12:39:37Z</time>
      </trkpt>
      <trkpt lat="48.68527" lon="7.70815">
        <ele>148</ele>
        <time>2020-08-08T12:39:38Z</time>
      </trkpt>
      <trkpt lat="48.68536" lon="7.70812">
        <ele>149</ele>
        <time>2020-08-08T12:39:40Z</time>
      </trkpt>
      <trkpt lat="48.6854" lon="7.70809">
        <ele>149</ele>
        <time>2020-08-08T12:39:41Z</time>
      </trkpt>
      <trkpt lat="48.68544" lon="7.70806">
        <ele>148</ele>
        <time>2020-08-08T12:39:42Z</time>
      </trkpt>
      <trkpt lat="48.68549" lon="7.70803">
        <ele>147</ele>
        <time>2020-08-08T12:39:43Z</time>
      </trkpt>
      <trkpt lat="48.68557" lon="7.708">
        <ele>146</ele>
        <time>2020-08-08T12:39:45Z</time>
      </trkpt>
      <trkpt lat="48.68565" lon="7.70796">
        <ele>145</ele>
        <time>2020-08-08T12:39:47Z</time>
      </trkpt>
      <trkpt lat="48.68569" lon="7.70794">
        <ele>145</ele>
        <time>2020-08-08T12:39:48Z</time>
      </trkpt>
      <trkpt lat="48.68573" lon="7.70791">
        <ele>145</ele>
        <time>2020-08-08T12:39:49Z</time>
      </trkpt>
      <trkpt lat="48.68578" lon="7.70788">
        <ele>145</ele>
        <time>2020-08-08T12:39:50Z</time>
      </trkpt>
      <trkpt lat="48.68583" lon="7.70786">
        <ele>145</ele>
        <time>2020-08-08T12:39:51Z</time>
      </trkpt>
      <trkpt lat="48.68587" lon="7.70783">
        <ele>145</ele>
        <time>2020-08-08T12:39:52Z</time>
      </trkpt>
      <trkpt lat="48.68596" lon="7.70779">
        <ele>145</ele>
        <time>2020-08-08T12:39:54Z</time>
      </trkpt>
      <trkpt lat="48.68609" lon="7.70769">
        <ele>145</ele>
        <time>2020-08-08T12:39:57Z</time>
      </trkpt>
      <trkpt lat="48.68614" lon="7.70768">
        <ele>146</ele>
        <time>2020-08-08T12:39:58Z</time>
      </trkpt>
      <trkpt lat="48.68622" lon="7.70763">
        <ele>145</ele>
        <time>2020-08-08T12:40:00Z</time>
      </trkpt>
      <trkpt lat="48.6863" lon="7.7076">
        <ele>145</ele>
        <time>2020-08-08T12:40:02Z</time>
      </trkpt>
      <trkpt lat="48.68635" lon="7.70758">
        <ele>145</ele>
        <time>2020-08-08T12:40:03Z</time>
      </trkpt>
      <trkpt lat="48.6864" lon="7.70754">
        <ele>145</ele>
        <time>2020-08-08T12:40:04Z</time>
      </trkpt>
      <trkpt lat="48.68645" lon="7.70752">
        <ele>145</ele>
        <time>2020-08-08T12:40:05Z</time>
      </trkpt>
      <trkpt lat="48.6865" lon="7.7075">
        <ele>146</ele>
        <time>2020-08-08T12:40:06Z</time>
      </trkpt>
      <trkpt lat="48.68655" lon="7.70745">
        <ele>145</ele>
        <time>2020-08-08T12:40:07Z</time>
      </trkpt>
      <trkpt lat="48.68664" lon="7.7074">
        <ele>146</ele>
        <time>2020-08-08T12:40:09Z</time>
      </trkpt>
      <trkpt lat="48.68668" lon="7.70737">
        <ele>145</ele>
        <time>2020-08-08T12:40:10Z</time>
      </trkpt>
      <trkpt lat="48.68677" lon="7.70733">
        <ele>146</ele>
        <time>2020-08-08T12:40:12Z</time>
      </trkpt>
      <trkpt lat="48.68686" lon="7.7073">
        <ele>146</ele>
        <time>2020-08-08T12:40:14Z</time>
      </trkpt>
      <trkpt lat="48.68695" lon="7.70724">
        <ele>146</ele>
        <time>2020-08-08T12:40:16Z</time>
      </trkpt>
      <trkpt lat="48.687" lon="7.70723">
        <ele>146</ele>
        <time>2020-08-08T12:40:17Z</time>
      </trkpt>
      <trkpt lat="48.68705" lon="7.70721">
        <ele>146</ele>
        <time>2020-08-08T12:40:18Z</time>
      </trkpt>
      <trkpt lat="48.6871" lon="7.70718">
        <ele>146</ele>
        <time>2020-08-08T12:40:19Z</time>
      </trkpt>
      <trkpt lat="48.68716" lon="7.70715">
        <ele>146</ele>
        <time>2020-08-08T12:40:20Z</time>
      </trkpt>
      <trkpt lat="48.6872" lon="7.70714">
        <ele>146</ele>
        <time>2020-08-08T12:40:21Z</time>
      </trkpt>
      <trkpt lat="48.68725" lon="7.7071">
        <ele>146</ele>
        <time>2020-08-08T12:40:22Z</time>
      </trkpt>
      <trkpt lat="48.6873" lon="7.70708">
        <ele>146</ele>
        <time>2020-08-08T12:40:23Z</time>
      </trkpt>
      <trkpt lat="48.68734" lon="7.70706">
        <ele>146</ele>
        <time>2020-08-08T12:40:24Z</time>
      </trkpt>
      <trkpt lat="48.68743" lon="7.70702">
        <ele>146</ele>
        <time>2020-08-08T12:40:26Z</time>
      </trkpt>
      <trkpt lat="48.68752" lon="7.70696">
        <ele>146</ele>
        <time>2020-08-08T12:40:28Z</time>
      </trkpt>
      <trkpt lat="48.68757" lon="7.70694">
        <ele>146</ele>
        <time>2020-08-08T12:40:29Z</time>
      </trkpt>
      <trkpt lat="48.68762" lon="7.70691">
        <ele>146</ele>
        <time>2020-08-08T12:40:30Z</time>
      </trkpt>
      <trkpt lat="48.68766" lon="7.70689">
        <ele>146</ele>
        <time>2020-08-08T12:40:31Z</time>
      </trkpt>
      <trkpt lat="48.68771" lon="7.70688">
        <ele>146</ele>
        <time>2020-08-08T12:40:32Z</time>
      </trkpt>
      <trkpt lat="48.68776" lon="7.70685">
        <ele>146</ele>
        <time>2020-08-08T12:40:33Z</time>
      </trkpt>
      <trkpt lat="48.68781" lon="7.70682">
        <ele>146</ele>
        <time>2020-08-08T12:40:34Z</time>
      </trkpt>
      <trkpt lat="48.68789" lon="7.70676">
        <ele>146</ele>
        <time>2020-08-08T12:40:36Z</time>
      </trkpt>
      <trkpt lat="48.68798" lon="7.70672">
        <ele>146</ele>
        <time>2020-08-08T12:40:38Z</time>
      </trkpt>
      <trkpt lat="48.68803" lon="7.7067">
        <ele>146</ele>
        <time>2020-08-08T12:40:39Z</time>
      </trkpt>
      <trkpt lat="48.68811" lon="7.70665">
        <ele>146</ele>
        <time>2020-08-08T12:40:41Z</time>
      </trkpt>
      <trkpt lat="48.68816" lon="7.70663">
        <ele>146</ele>
        <time>2020-08-08T12:40:42Z</time>
      </trkpt>
      <trkpt lat="48.68821" lon="7.7066">
        <ele>146</ele>
        <time>2020-08-08T12:40:43Z</time>
      </trkpt>
      <trkpt lat="48.68829" lon="7.70655">
        <ele>146</ele>
        <time>2020-08-08T12:40:45Z</time>
      </trkpt>
      <trkpt lat="48.68838" lon="7.70651">
        <ele>146</ele>
        <time>2020-08-08T12:40:47Z</time>
      </trkpt>
      <trkpt lat="48.68844" lon="7.70649">
        <ele>146</ele>
        <time>2020-08-08T12:40:48Z</time>
      </trkpt>
      <trkpt lat="48.68852" lon="7.70643">
        <ele>146</ele>
        <time>2020-08-08T12:40:50Z</time>
      </trkpt>
      <trkpt lat="48.6886" lon="7.70639">
        <ele>147</ele>
        <time>2020-08-08T12:40:52Z</time>
      </trkpt>
      <trkpt lat="48.68864" lon="7.70637">
        <ele>147</ele>
        <time>2020-08-08T12:40:53Z</time>
      </trkpt>
      <trkpt lat="48.68869" lon="7.70634">
        <ele>146</ele>
        <time>2020-08-08T12:40:54Z</time>
      </trkpt>
      <trkpt lat="48.68877" lon="7.70629">
        <ele>146</ele>
        <time>2020-08-08T12:40:56Z</time>
      </trkpt>
      <trkpt lat="48.68884" lon="7.70624">
        <ele>145</ele>
        <time>2020-08-08T12:40:58Z</time>
      </trkpt>
      <trkpt lat="48.68893" lon="7.7062">
        <ele>145</ele>
        <time>2020-08-08T12:41:00Z</time>
      </trkpt>
      <trkpt lat="48.68901" lon="7.70616">
        <ele>145</ele>
        <time>2020-08-08T12:41:02Z</time>
      </trkpt>
      <trkpt lat="48.68906" lon="7.70613">
        <ele>146</ele>
        <time>2020-08-08T12:41:03Z</time>
      </trkpt>
      <trkpt lat="48.6891" lon="7.70611">
        <ele>146</ele>
        <time>2020-08-08T12:41:04Z</time>
      </trkpt>
      <trkpt lat="48.68915" lon="7.70608">
        <ele>146</ele>
        <time>2020-08-08T12:41:05Z</time>
      </trkpt>
      <trkpt lat="48.68919" lon="7.70606">
        <ele>146</ele>
        <time>2020-08-08T12:41:06Z</time>
      </trkpt>
      <trkpt lat="48.68929" lon="7.70601">
        <ele>147</ele>
        <time>2020-08-08T12:41:08Z</time>
      </trkpt>
      <trkpt lat="48.68933" lon="7.70599">
        <ele>147</ele>
        <time>2020-08-08T12:41:09Z</time>
      </trkpt>
      <trkpt lat="48.68938" lon="7.70597">
        <ele>147</ele>
        <time>2020-08-08T12:41:10Z</time>
      </trkpt>
      <trkpt lat="48.68946" lon="7.70594">
        <ele>147</ele>
        <time>2020-08-08T12:41:12Z</time>
      </trkpt>
      <trkpt lat="48.68951" lon="7.70593">
        <ele>147</ele>
        <time>2020-08-08T12:41:13Z</time>
      </trkpt>
      <trkpt lat="48.68955" lon="7.70589">
        <ele>147</ele>
        <time>2020-08-08T12:41:14Z</time>
      </trkpt>
      <trkpt lat="48.68959" lon="7.70586">
        <ele>146</ele>
        <time>2020-08-08T12:41:15Z</time>
      </trkpt>
      <trkpt lat="48.68964" lon="7.70583">
        <ele>146</ele>
        <time>2020-08-08T12:41:16Z</time>
      </trkpt>
      <trkpt lat="48.68971" lon="7.70576">
        <ele>146</ele>
        <time>2020-08-08T12:41:18Z</time>
      </trkpt>
      <trkpt lat="48.6898" lon="7.70571">
        <ele>145</ele>
        <time>2020-08-08T12:41:20Z</time>
      </trkpt>
      <trkpt lat="48.68987" lon="7.70564">
        <ele>145</ele>
        <time>2020-08-08T12:41:22Z</time>
      </trkpt>
      <trkpt lat="48.68995" lon="7.70559">
        <ele>145</ele>
        <time>2020-08-08T12:41:24Z</time>
      </trkpt>
      <trkpt lat="48.69" lon="7.70557">
        <ele>145</ele>
        <time>2020-08-08T12:41:25Z</time>
      </trkpt>
      <trkpt lat="48.69006" lon="7.70554">
        <ele>145</ele>
        <time>2020-08-08T12:41:26Z</time>
      </trkpt>
      <trkpt lat="48.69011" lon="7.70553">
        <ele>145</ele>
        <time>2020-08-08T12:41:27Z</time>
      </trkpt>
      <trkpt lat="48.6902" lon="7.7055">
        <ele>145</ele>
        <time>2020-08-08T12:41:29Z</time>
      </trkpt>
      <trkpt lat="48.69028" lon="7.70545">
        <ele>145</ele>
        <time>2020-08-08T12:41:31Z</time>
      </trkpt>
      <trkpt lat="48.69037" lon="7.70541">
        <ele>145</ele>
        <time>2020-08-08T12:41:33Z</time>
      </trkpt>
      <trkpt lat="48.69045" lon="7.70537">
        <ele>145</ele>
        <time>2020-08-08T12:41:35Z</time>
      </trkpt>
      <trkpt lat="48.6905" lon="7.70534">
        <ele>145</ele>
        <time>2020-08-08T12:41:36Z</time>
      </trkpt>
      <trkpt lat="48.69054" lon="7.70533">
        <ele>145</ele>
        <time>2020-08-08T12:41:37Z</time>
      </trkpt>
      <trkpt lat="48.69059" lon="7.70531">
        <ele>146</ele>
        <time>2020-08-08T12:41:38Z</time>
      </trkpt>
      <trkpt lat="48.69068" lon="7.70528">
        <ele>147</ele>
        <time>2020-08-08T12:41:40Z</time>
      </trkpt>
      <trkpt lat="48.69077" lon="7.70526">
        <ele>147</ele>
        <time>2020-08-08T12:41:42Z</time>
      </trkpt>
      <trkpt lat="48.69085" lon="7.70522">
        <ele>146</ele>
        <time>2020-08-08T12:41:44Z</time>
      </trkpt>
      <trkpt lat="48.69089" lon="7.70515">
        <ele>145</ele>
        <time>2020-08-08T12:41:45Z</time>
      </trkpt>
      <trkpt lat="48.69099" lon="7.7051">
        <ele>145</ele>
        <time>2020-08-08T12:41:47Z</time>
      </trkpt>
      <trkpt lat="48.69106" lon="7.70504">
        <ele>145</ele>
        <time>2020-08-08T12:41:49Z</time>
      </trkpt>
      <trkpt lat="48.69111" lon="7.70502">
        <ele>145</ele>
        <time>2020-08-08T12:41:50Z</time>
      </trkpt>
      <trkpt lat="48.69119" lon="7.70496">
        <ele>145</ele>
        <time>2020-08-08T12:41:52Z</time>
      </trkpt>
      <trkpt lat="48.69124" lon="7.70494">
        <ele>145</ele>
        <time>2020-08-08T12:41:53Z</time>
      </trkpt>
      <trkpt lat="48.69128" lon="7.70492">
        <ele>145</ele>
        <time>2020-08-08T12:41:54Z</time>
      </trkpt>
      <trkpt lat="48.69136" lon="7.70487">
        <ele>145</ele>
        <time>2020-08-08T12:41:56Z</time>
      </trkpt>
      <trkpt lat="48.69141" lon="7.70485">
        <ele>145</ele>
        <time>2020-08-08T12:41:57Z</time>
      </trkpt>
      <trkpt lat="48.69146" lon="7.70482">
        <ele>145</ele>
        <time>2020-08-08T12:41:58Z</time>
      </trkpt>
      <trkpt lat="48.69151" lon="7.70479">
        <ele>145</ele>
        <time>2020-08-08T12:41:59Z</time>
      </trkpt>
      <trkpt lat="48.69156" lon="7.70476">
        <ele>145</ele>
        <time>2020-08-08T12:42:00Z</time>
      </trkpt>
      <trkpt lat="48.69161" lon="7.70474">
        <ele>145</ele>
        <time>2020-08-08T12:42:01Z</time>
      </trkpt>
      <trkpt lat="48.69169" lon="7.7047">
        <ele>145</ele>
        <time>2020-08-08T12:42:03Z</time>
      </trkpt>
      <trkpt lat="48.69177" lon="7.70465">
        <ele>145</ele>
        <time>2020-08-08T12:42:05Z</time>
      </trkpt>
      <trkpt lat="48.69181" lon="7.70462">
        <ele>145</ele>
        <time>2020-08-08T12:42:06Z</time>
      </trkpt>
      <trkpt lat="48.69186" lon="7.7046">
        <ele>145</ele>
        <time>2020-08-08T12:42:07Z</time>
      </trkpt>
      <trkpt lat="48.69199" lon="7.70454">
        <ele>145</ele>
        <time>2020-08-08T12:42:10Z</time>
      </trkpt>
      <trkpt lat="48.69207" lon="7.70448">
        <ele>145</ele>
        <time>2020-08-08T12:42:12Z</time>
      </trkpt>
      <trkpt lat="48.69212" lon="7.70445">
        <ele>145</ele>
        <time>2020-08-08T12:42:13Z</time>
      </trkpt>
      <trkpt lat="48.69217" lon="7.70443">
        <ele>145</ele>
        <time>2020-08-08T12:42:14Z</time>
      </trkpt>
      <trkpt lat="48.69225" lon="7.70438">
        <ele>145</ele>
        <time>2020-08-08T12:42:16Z</time>
      </trkpt>
      <trkpt lat="48.6923" lon="7.70437">
        <ele>145</ele>
        <time>2020-08-08T12:42:17Z</time>
      </trkpt>
      <trkpt lat="48.69239" lon="7.70432">
        <ele>145</ele>
        <time>2020-08-08T12:42:19Z</time>
      </trkpt>
      <trkpt lat="48.69244" lon="7.70429">
        <ele>145</ele>
        <time>2020-08-08T12:42:20Z</time>
      </trkpt>
      <trkpt lat="48.69249" lon="7.70427">
        <ele>145</ele>
        <time>2020-08-08T12:42:21Z</time>
      </trkpt>
      <trkpt lat="48.69254" lon="7.70425">
        <ele>145</ele>
        <time>2020-08-08T12:42:22Z</time>
      </trkpt>
      <trkpt lat="48.69264" lon="7.70421">
        <ele>145</ele>
        <time>2020-08-08T12:42:24Z</time>
      </trkpt>
      <trkpt lat="48.69268" lon="7.70418">
        <ele>145</ele>
        <time>2020-08-08T12:42:25Z</time>
      </trkpt>
      <trkpt lat="48.69273" lon="7.70417">
        <ele>145</ele>
        <time>2020-08-08T12:42:26Z</time>
      </trkpt>
      <trkpt lat="48.69281" lon="7.70412">
        <ele>145</ele>
        <time>2020-08-08T12:42:28Z</time>
      </trkpt>
      <trkpt lat="48.69289" lon="7.70408">
        <ele>145</ele>
        <time>2020-08-08T12:42:30Z</time>
      </trkpt>
      <trkpt lat="48.69297" lon="7.70402">
        <ele>146</ele>
        <time>2020-08-08T12:42:32Z</time>
      </trkpt>
      <trkpt lat="48.69305" lon="7.70398">
        <ele>147</ele>
        <time>2020-08-08T12:42:34Z</time>
      </trkpt>
      <trkpt lat="48.6931" lon="7.70395">
        <ele>147</ele>
        <time>2020-08-08T12:42:35Z</time>
      </trkpt>
      <trkpt lat="48.69315" lon="7.70394">
        <ele>146</ele>
        <time>2020-08-08T12:42:36Z</time>
      </trkpt>
      <trkpt lat="48.69324" lon="7.70388">
        <ele>146</ele>
        <time>2020-08-08T12:42:38Z</time>
      </trkpt>
      <trkpt lat="48.69331" lon="7.70383">
        <ele>145</ele>
        <time>2020-08-08T12:42:40Z</time>
      </trkpt>
      <trkpt lat="48.69336" lon="7.70379">
        <ele>145</ele>
        <time>2020-08-08T12:42:41Z</time>
      </trkpt>
      <trkpt lat="48.69341" lon="7.70377">
        <ele>145</ele>
        <time>2020-08-08T12:42:42Z</time>
      </trkpt>
      <trkpt lat="48.69346" lon="7.70374">
        <ele>145</ele>
        <time>2020-08-08T12:42:43Z</time>
      </trkpt>
      <trkpt lat="48.69355" lon="7.70372">
        <ele>146</ele>
        <time>2020-08-08T12:42:45Z</time>
      </trkpt>
      <trkpt lat="48.6936" lon="7.70369">
        <ele>146</ele>
        <time>2020-08-08T12:42:46Z</time>
      </trkpt>
      <trkpt lat="48.69365" lon="7.70367">
        <ele>146</ele>
        <time>2020-08-08T12:42:47Z</time>
      </trkpt>
      <trkpt lat="48.6937" lon="7.70364">
        <ele>145</ele>
        <time>2020-08-08T12:42:48Z</time>
      </trkpt>
      <trkpt lat="48.69379" lon="7.70359">
        <ele>145</ele>
        <time>2020-08-08T12:42:50Z</time>
      </trkpt>
      <trkpt lat="48.69383" lon="7.70356">
        <ele>145</ele>
        <time>2020-08-08T12:42:51Z</time>
      </trkpt>
      <trkpt lat="48.69387" lon="7.70354">
        <ele>145</ele>
        <time>2020-08-08T12:42:52Z</time>
      </trkpt>
      <trkpt lat="48.69395" lon="7.70349">
        <ele>145</ele>
        <time>2020-08-08T12:42:54Z</time>
      </trkpt>
      <trkpt lat="48.69401" lon="7.70347">
        <ele>145</ele>
        <time>2020-08-08T12:42:55Z</time>
      </trkpt>
      <trkpt lat="48.6941" lon="7.70345">
        <ele>146</ele>
        <time>2020-08-08T12:42:57Z</time>
      </trkpt>
      <trkpt lat="48.69415" lon="7.70341">
        <ele>146</ele>
        <time>2020-08-08T12:42:58Z</time>
      </trkpt>
      <trkpt lat="48.69419" lon="7.70339">
        <ele>146</ele>
        <time>2020-08-08T12:42:59Z</time>
      </trkpt>
      <trkpt lat="48.69424" lon="7.70336">
        <ele>146</ele>
        <time>2020-08-08T12:43:00Z</time>
      </trkpt>
      <trkpt lat="48.69428" lon="7.70334">
        <ele>146</ele>
        <time>2020-08-08T12:43:01Z</time>
      </trkpt>
      <trkpt lat="48.69441" lon="7.70328">
        <ele>146</ele>
        <time>2020-08-08T12:43:04Z</time>
      </trkpt>
      <trkpt lat="48.69446" lon="7.70326">
        <ele>146</ele>
        <time>2020-08-08T12:43:05Z</time>
      </trkpt>
      <trkpt lat="48.6945" lon="7.70323">
        <ele>146</ele>
        <time>2020-08-08T12:43:06Z</time>
      </trkpt>
      <trkpt lat="48.69454" lon="7.7032">
        <ele>146</ele>
        <time>2020-08-08T12:43:07Z</time>
      </trkpt>
      <trkpt lat="48.69459" lon="7.70319">
        <ele>145</ele>
        <time>2020-08-08T12:43:08Z</time>
      </trkpt>
      <trkpt lat="48.69467" lon="7.70315">
        <ele>145</ele>
        <time>2020-08-08T12:43:10Z</time>
      </trkpt>
      <trkpt lat="48.69472" lon="7.70312">
        <ele>145</ele>
        <time>2020-08-08T12:43:11Z</time>
      </trkpt>
      <trkpt lat="48.69477" lon="7.70308">
        <ele>145</ele>
        <time>2020-08-08T12:43:12Z</time>
      </trkpt>
      <trkpt lat="48.69481" lon="7.70305">
        <ele>145</ele>
        <time>2020-08-08T12:43:13Z</time>
      </trkpt>
      <trkpt lat="48.69486" lon="7.70302">
        <ele>146</ele>
        <time>2020-08-08T12:43:14Z</time>
      </trkpt>
      <trkpt lat="48.6949" lon="7.70299">
        <ele>146</ele>
        <time>2020-08-08T12:43:15Z</time>
      </trkpt>
      <trkpt lat="48.69495" lon="7.70296">
        <ele>146</ele>
        <time>2020-08-08T12:43:16Z</time>
      </trkpt>
      <trkpt lat="48.69504" lon="7.7029">
        <ele>146</ele>
        <time>2020-08-08T12:43:18Z</time>
      </trkpt>
      <trkpt lat="48.69512" lon="7.70288">
        <ele>147</ele>
        <time>2020-08-08T12:43:20Z</time>
      </trkpt>
      <trkpt lat="48.69517" lon="7.70285">
        <ele>147</ele>
        <time>2020-08-08T12:43:21Z</time>
      </trkpt>
      <trkpt lat="48.69522" lon="7.70281">
        <ele>146</ele>
        <time>2020-08-08T12:43:22Z</time>
      </trkpt>
      <trkpt lat="48.69527" lon="7.70278">
        <ele>146</ele>
        <time>2020-08-08T12:43:23Z</time>
      </trkpt>
      <trkpt lat="48.69532" lon="7.70275">
        <ele>145</ele>
        <time>2020-08-08T12:43:24Z</time>
      </trkpt>
      <trkpt lat="48.6954" lon="7.70269">
        <ele>145</ele>
        <time>2020-08-08T12:43:26Z</time>
      </trkpt>
      <trkpt lat="48.69546" lon="7.70268">
        <ele>146</ele>
        <time>2020-08-08T12:43:27Z</time>
      </trkpt>
      <trkpt lat="48.6955" lon="7.70266">
        <ele>146</ele>
        <time>2020-08-08T12:43:28Z</time>
      </trkpt>
      <trkpt lat="48.69556" lon="7.70263">
        <ele>146</ele>
        <time>2020-08-08T12:43:29Z</time>
      </trkpt>
      <trkpt lat="48.69561" lon="7.7026">
        <ele>147</ele>
        <time>2020-08-08T12:43:30Z</time>
      </trkpt>
      <trkpt lat="48.6957" lon="7.70255">
        <ele>147</ele>
        <time>2020-08-08T12:43:32Z</time>
      </trkpt>
      <trkpt lat="48.69574" lon="7.70252">
        <ele>147</ele>
        <time>2020-08-08T12:43:33Z</time>
      </trkpt>
      <trkpt lat="48.69582" lon="7.70248">
        <ele>146</ele>
        <time>2020-08-08T12:43:35Z</time>
      </trkpt>
      <trkpt lat="48.69586" lon="7.70245">
        <ele>146</ele>
        <time>2020-08-08T12:43:36Z</time>
      </trkpt>
      <trkpt lat="48.69591" lon="7.70243">
        <ele>146</ele>
        <time>2020-08-08T12:43:37Z</time>
      </trkpt>
      <trkpt lat="48.69596" lon="7.70241">
        <ele>146</ele>
        <time>2020-08-08T12:43:38Z</time>
      </trkpt>
      <trkpt lat="48.69601" lon="7.70239">
        <ele>146</ele>
        <time>2020-08-08T12:43:39Z</time>
      </trkpt>
      <trkpt lat="48.69606" lon="7.70236">
        <ele>146</ele>
        <time>2020-08-08T12:43:40Z</time>
      </trkpt>
      <trkpt lat="48.6961" lon="7.70233">
        <ele>146</ele>
        <time>2020-08-08T12:43:41Z</time>
      </trkpt>
      <trkpt lat="48.69619" lon="7.70228">
        <ele>146</ele>
        <time>2020-08-08T12:43:43Z</time>
      </trkpt>
      <trkpt lat="48.69623" lon="7.70225">
        <ele>146</ele>
        <time>2020-08-08T12:43:44Z</time>
      </trkpt>
      <trkpt lat="48.69632" lon="7.70222">
        <ele>147</ele>
        <time>2020-08-08T12:43:46Z</time>
      </trkpt>
      <trkpt lat="48.6964" lon="7.70216">
        <ele>147</ele>
        <time>2020-08-08T12:43:48Z</time>
      </trkpt>
      <trkpt lat="48.69645" lon="7.70213">
        <ele>147</ele>
        <time>2020-08-08T12:43:49Z</time>
      </trkpt>
      <trkpt lat="48.6965" lon="7.7021">
        <ele>146</ele>
        <time>2020-08-08T12:43:50Z</time>
      </trkpt>
      <trkpt lat="48.69658" lon="7.70204">
        <ele>146</ele>
        <time>2020-08-08T12:43:52Z</time>
      </trkpt>
      <trkpt lat="48.69667" lon="7.702">
        <ele>146</ele>
        <time>2020-08-08T12:43:54Z</time>
      </trkpt>
      <trkpt lat="48.69671" lon="7.70197">
        <ele>146</ele>
        <time>2020-08-08T12:43:55Z</time>
      </trkpt>
      <trkpt lat="48.69676" lon="7.70195">
        <ele>146</ele>
        <time>2020-08-08T12:43:56Z</time>
      </trkpt>
      <trkpt lat="48.69681" lon="7.70192">
        <ele>146</ele>
        <time>2020-08-08T12:43:57Z</time>
      </trkpt>
      <trkpt lat="48.69685" lon="7.7019">
        <ele>146</ele>
        <time>2020-08-08T12:43:58Z</time>
      </trkpt>
      <trkpt lat="48.6969" lon="7.70186">
        <ele>146</ele>
        <time>2020-08-08T12:43:59Z</time>
      </trkpt>
      <trkpt lat="48.69694" lon="7.70184">
        <ele>146</ele>
        <time>2020-08-08T12:44:00Z</time>
      </trkpt>
      <trkpt lat="48.69703" lon="7.70181">
        <ele>147</ele>
        <time>2020-08-08T12:44:02Z</time>
      </trkpt>
      <trkpt lat="48.69708" lon="7.70179">
        <ele>147</ele>
        <time>2020-08-08T12:44:03Z</time>
      </trkpt>
      <trkpt lat="48.69716" lon="7.70176">
        <ele>147</ele>
        <time>2020-08-08T12:44:05Z</time>
      </trkpt>
      <trkpt lat="48.69724" lon="7.70173">
        <ele>147</ele>
        <time>2020-08-08T12:44:07Z</time>
      </trkpt>
      <trkpt lat="48.69729" lon="7.70171">
        <ele>147</ele>
        <time>2020-08-08T12:44:08Z</time>
      </trkpt>
      <trkpt lat="48.69734" lon="7.7017">
        <ele>147</ele>
        <time>2020-08-08T12:44:09Z</time>
      </trkpt>
      <trkpt lat="48.69738" lon="7.70167">
        <ele>147</ele>
        <time>2020-08-08T12:44:10Z</time>
      </trkpt>
      <trkpt lat="48.69743" lon="7.70163">
        <ele>147</ele>
        <time>2020-08-08T12:44:11Z</time>
      </trkpt>
      <trkpt lat="48.69748" lon="7.7016">
        <ele>147</ele>
        <time>2020-08-08T12:44:12Z</time>
      </trkpt>
      <trkpt lat="48.69752" lon="7.70157">
        <ele>147</ele>
        <time>2020-08-08T12:44:13Z</time>
      </trkpt>
      <trkpt lat="48.69756" lon="7.70154">
        <ele>147</ele>
        <time>2020-08-08T12:44:14Z</time>
      </trkpt>
      <trkpt lat="48.69761" lon="7.70151">
        <ele>147</ele>
        <time>2020-08-08T12:44:15Z</time>
      </trkpt>
      <trkpt lat="48.69766" lon="7.70148">
        <ele>148</ele>
        <time>2020-08-08T12:44:16Z</time>
      </trkpt>
      <trkpt lat="48.69772" lon="7.70146">
        <ele>149</ele>
        <time>2020-08-08T12:44:17Z</time>
      </trkpt>
      <trkpt lat="48.69777" lon="7.70143">
        <ele>149</ele>
        <time>2020-08-08T12:44:18Z</time>
      </trkpt>
      <trkpt lat="48.69781" lon="7.7014">
        <ele>150</ele>
        <time>2020-08-08T12:44:19Z</time>
      </trkpt>
      <trkpt lat="48.69786" lon="7.70137">
        <ele>150</ele>
        <time>2020-08-08T12:44:20Z</time>
      </trkpt>
      <trkpt lat="48.6979" lon="7.70135">
        <ele>150</ele>
        <time>2020-08-08T12:44:21Z</time>
      </trkpt>
      <trkpt lat="48.69799" lon="7.7013">
        <ele>151</ele>
        <time>2020-08-08T12:44:23Z</time>
      </trkpt>
      <trkpt lat="48.69804" lon="7.70128">
        <ele>152</ele>
        <time>2020-08-08T12:44:24Z</time>
      </trkpt>
      <trkpt lat="48.69809" lon="7.70125">
        <ele>153</ele>
        <time>2020-08-08T12:44:25Z</time>
      </trkpt>
      <trkpt lat="48.69813" lon="7.70123">
        <ele>154</ele>
        <time>2020-08-08T12:44:26Z</time>
      </trkpt>
      <trkpt lat="48.69818" lon="7.7012">
        <ele>153</ele>
        <time>2020-08-08T12:44:27Z</time>
      </trkpt>
      <trkpt lat="48.69823" lon="7.70117">
        <ele>155</ele>
        <time>2020-08-08T12:44:28Z</time>
      </trkpt>
      <trkpt lat="48.69827" lon="7.70114">
        <ele>155</ele>
        <time>2020-08-08T12:44:29Z</time>
      </trkpt>
      <trkpt lat="48.69832" lon="7.70112">
        <ele>155</ele>
        <time>2020-08-08T12:44:30Z</time>
      </trkpt>
      <trkpt lat="48.69836" lon="7.7011">
        <ele>155</ele>
        <time>2020-08-08T12:44:31Z</time>
      </trkpt>
      <trkpt lat="48.69841" lon="7.70107">
        <ele>154</ele>
        <time>2020-08-08T12:44:32Z</time>
      </trkpt>
      <trkpt lat="48.69846" lon="7.70104">
        <ele>154</ele>
        <time>2020-08-08T12:44:33Z</time>
      </trkpt>
      <trkpt lat="48.6985" lon="7.70101">
        <ele>153</ele>
        <time>2020-08-08T12:44:34Z</time>
      </trkpt>
      <trkpt lat="48.69855" lon="7.70099">
        <ele>153</ele>
        <time>2020-08-08T12:44:35Z</time>
      </trkpt>
      <trkpt lat="48.6986" lon="7.70096">
        <ele>152</ele>
        <time>2020-08-08T12:44:36Z</time>
      </trkpt>
      <trkpt lat="48.69864" lon="7.70093">
        <ele>151</ele>
        <time>2020-08-08T12:44:37Z</time>
      </trkpt>
      <trkpt lat="48.69869" lon="7.7009">
        <ele>151</ele>
        <time>2020-08-08T12:44:38Z</time>
      </trkpt>
      <trkpt lat="48.69874" lon="7.70088">
        <ele>151</ele>
        <time>2020-08-08T12:44:39Z</time>
      </trkpt>
      <trkpt lat="48.69879" lon="7.70085">
        <ele>150</ele>
        <time>2020-08-08T12:44:40Z</time>
      </trkpt>
      <trkpt lat="48.69883" lon="7.70082">
        <ele>150</ele>
        <time>2020-08-08T12:44:41Z</time>
      </trkpt>
      <trkpt lat="48.69888" lon="7.70079">
        <ele>151</ele>
        <time>2020-08-08T12:44:42Z</time>
      </trkpt>
      <trkpt lat="48.69893" lon="7.70077">
        <ele>152</ele>
        <time>2020-08-08T12:44:43Z</time>
      </trkpt>
      <trkpt lat="48.69897" lon="7.70074">
        <ele>151</ele>
        <time>2020-08-08T12:44:44Z</time>
      </trkpt>
      <trkpt lat="48.69902" lon="7.70072">
        <ele>152</ele>
        <time>2020-08-08T12:44:45Z</time>
      </trkpt>
      <trkpt lat="48.6991" lon="7.70067">
        <ele>151</ele>
        <time>2020-08-08T12:44:47Z</time>
      </trkpt>
      <trkpt lat="48.69919" lon="7.70062">
        <ele>150</ele>
        <time>2020-08-08T12:44:49Z</time>
      </trkpt>
      <trkpt lat="48.69923" lon="7.7006">
        <ele>149</ele>
        <time>2020-08-08T12:44:50Z</time>
      </trkpt>
      <trkpt lat="48.69928" lon="7.70057">
        <ele>149</ele>
        <time>2020-08-08T12:44:51Z</time>
      </trkpt>
      <trkpt lat="48.69932" lon="7.70054">
        <ele>149</ele>
        <time>2020-08-08T12:44:52Z</time>
      </trkpt>
      <trkpt lat="48.69937" lon="7.70052">
        <ele>149</ele>
        <time>2020-08-08T12:44:53Z</time>
      </trkpt>
      <trkpt lat="48.69945" lon="7.70047">
        <ele>149</ele>
        <time>2020-08-08T12:44:55Z</time>
      </trkpt>
      <trkpt lat="48.69953" lon="7.70044">
        <ele>150</ele>
        <time>2020-08-08T12:44:57Z</time>
      </trkpt>
      <trkpt lat="48.69958" lon="7.70042">
        <ele>150</ele>
        <time>2020-08-08T12:44:58Z</time>
      </trkpt>
      <trkpt lat="48.69966" lon="7.70039">
        <ele>151</ele>
        <time>2020-08-08T12:45:00Z</time>
      </trkpt>
      <trkpt lat="48.69971" lon="7.70036">
        <ele>151</ele>
        <time>2020-08-08T12:45:01Z</time>
      </trkpt>
      <trkpt lat="48.69975" lon="7.70033">
        <ele>151</ele>
        <time>2020-08-08T12:45:02Z</time>
      </trkpt>
      <trkpt lat="48.69983" lon="7.7003">
        <ele>152</ele>
        <time>2020-08-08T12:45:04Z</time>
      </trkpt>
      <trkpt lat="48.69988" lon="7.70027">
        <ele>152</ele>
        <time>2020-08-08T12:45:05Z</time>
      </trkpt>
      <trkpt lat="48.69993" lon="7.70023">
        <ele>151</ele>
        <time>2020-08-08T12:45:06Z</time>
      </trkpt>
      <trkpt lat="48.69999" lon="7.7002">
        <ele>152</ele>
        <time>2020-08-08T12:45:07Z</time>
      </trkpt>
      <trkpt lat="48.70004" lon="7.70018">
        <ele>152</ele>
        <time>2020-08-08T12:45:08Z</time>
      </trkpt>
      <trkpt lat="48.70008" lon="7.70014">
        <ele>151</ele>
        <time>2020-08-08T12:45:09Z</time>
      </trkpt>
      <trkpt lat="48.70013" lon="7.70012">
        <ele>153</ele>
        <time>2020-08-08T12:45:10Z</time>
      </trkpt>
      <trkpt lat="48.70017" lon="7.70009">
        <ele>153</ele>
        <time>2020-08-08T12:45:11Z</time>
      </trkpt>
      <trkpt lat="48.70022" lon="7.70008">
        <ele>153</ele>
        <time>2020-08-08T12:45:12Z</time>
      </trkpt>
      <trkpt lat="48.70027" lon="7.70008">
        <ele>155</ele>
        <time>2020-08-08T12:45:13Z</time>
      </trkpt>
      <trkpt lat="48.70033" lon="7.70006">
        <ele>155</ele>
        <time>2020-08-08T12:45:14Z</time>
      </trkpt>
      <trkpt lat="48.70041" lon="7.70002">
        <ele>156</ele>
        <time>2020-08-08T12:45:16Z</time>
      </trkpt>
      <trkpt lat="48.7005" lon="7.69997">
        <ele>156</ele>
        <time>2020-08-08T12:45:18Z</time>
      </trkpt>
      <trkpt lat="48.70058" lon="7.69994">
        <ele>157</ele>
        <time>2020-08-08T12:45:20Z</time>
      </trkpt>
      <trkpt lat="48.70063" lon="7.6999">
        <ele>156</ele>
        <time>2020-08-08T12:45:21Z</time>
      </trkpt>
      <trkpt lat="48.70067" lon="7.69988">
        <ele>157</ele>
        <time>2020-08-08T12:45:22Z</time>
      </trkpt>
      <trkpt lat="48.70072" lon="7.69985">
        <ele>156</ele>
        <time>2020-08-08T12:45:23Z</time>
      </trkpt>
      <trkpt lat="48.70076" lon="7.69983">
        <ele>156</ele>
        <time>2020-08-08T12:45:24Z</time>
      </trkpt>
      <trkpt lat="48.70081" lon="7.69978">
        <ele>155</ele>
        <time>2020-08-08T12:45:25Z</time>
      </trkpt>
      <trkpt lat="48.70089" lon="7.69975">
        <ele>156</ele>
        <time>2020-08-08T12:45:27Z</time>
      </trkpt>
      <trkpt lat="48.70094" lon="7.69973">
        <ele>155</ele>
        <time>2020-08-08T12:45:28Z</time>
      </trkpt>
      <trkpt lat="48.70098" lon="7.69969">
        <ele>154</ele>
        <time>2020-08-08T12:45:29Z</time>
      </trkpt>
      <trkpt lat="48.70102" lon="7.69965">
        <ele>153</ele>
        <time>2020-08-08T12:45:30Z</time>
      </trkpt>
      <trkpt lat="48.70107" lon="7.69962">
        <ele>152</ele>
        <time>2020-08-08T12:45:31Z</time>
      </trkpt>
      <trkpt lat="48.70116" lon="7.69958">
        <ele>151</ele>
        <time>2020-08-08T12:45:33Z</time>
      </trkpt>
      <trkpt lat="48.70121" lon="7.69956">
        <ele>152</ele>
        <time>2020-08-08T12:45:34Z</time>
      </trkpt>
      <trkpt lat="48.70126" lon="7.69953">
        <ele>152</ele>
        <time>2020-08-08T12:45:35Z</time>
      </trkpt>
      <trkpt lat="48.7013" lon="7.6995">
        <ele>151</ele>
        <time>2020-08-08T12:45:36Z</time>
      </trkpt>
      <trkpt lat="48.70135" lon="7.69948">
        <ele>151</ele>
        <time>2020-08-08T12:45:37Z</time>
      </trkpt>
      <trkpt lat="48.7014" lon="7.69947">
        <ele>153</ele>
        <time>2020-08-08T12:45:38Z</time>
      </trkpt>
      <trkpt lat="48.70148" lon="7.69942">
        <ele>153</ele>
        <time>2020-08-08T12:45:40Z</time>
      </trkpt>
      <trkpt lat="48.70153" lon="7.69941">
        <ele>155</ele>
        <time>2020-08-08T12:45:41Z</time>
      </trkpt>
      <trkpt lat="48.70162" lon="7.69939">
        <ele>156</ele>
        <time>2020-08-08T12:45:43Z</time>
      </trkpt>
      <trkpt lat="48.70167" lon="7.69936">
        <ele>155</ele>
        <time>2020-08-08T12:45:44Z</time>
      </trkpt>
      <trkpt lat="48.70171" lon="7.69933">
        <ele>155</ele>
        <time>2020-08-08T12:45:45Z</time>
      </trkpt>
      <trkpt lat="48.70176" lon="7.69929">
        <ele>153</ele>
        <time>2020-08-08T12:45:46Z</time>
      </trkpt>
      <trkpt lat="48.70181" lon="7.69926">
        <ele>153</ele>
        <time>2020-08-08T12:45:47Z</time>
      </trkpt>
      <trkpt lat="48.70186" lon="7.69922">
        <ele>151</ele>
        <time>2020-08-08T12:45:48Z</time>
      </trkpt>
      <trkpt lat="48.7019" lon="7.6992">
        <ele>151</ele>
        <time>2020-08-08T12:45:49Z</time>
      </trkpt>
      <trkpt lat="48.70195" lon="7.69918">
        <ele>152</ele>
        <time>2020-08-08T12:45:50Z</time>
      </trkpt>
      <trkpt lat="48.70204" lon="7.69913">
        <ele>152</ele>
        <time>2020-08-08T12:45:52Z</time>
      </trkpt>
      <trkpt lat="48.7021" lon="7.69911">
        <ele>153</ele>
        <time>2020-08-08T12:45:53Z</time>
      </trkpt>
      <trkpt lat="48.70215" lon="7.69909">
        <ele>154</ele>
        <time>2020-08-08T12:45:54Z</time>
      </trkpt>
      <trkpt lat="48.70224" lon="7.69905">
        <ele>154</ele>
        <time>2020-08-08T12:45:56Z</time>
      </trkpt>
      <trkpt lat="48.70228" lon="7.69902">
        <ele>154</ele>
        <time>2020-08-08T12:45:57Z</time>
      </trkpt>
      <trkpt lat="48.70233" lon="7.699">
        <ele>155</ele>
        <time>2020-08-08T12:45:58Z</time>
      </trkpt>
      <trkpt lat="48.70237" lon="7.69896">
        <ele>153</ele>
        <time>2020-08-08T12:45:59Z</time>
      </trkpt>
      <trkpt lat="48.70241" lon="7.69893">
        <ele>152</ele>
        <time>2020-08-08T12:46:00Z</time>
      </trkpt>
      <trkpt lat="48.70248" lon="7.69888">
        <ele>151</ele>
        <time>2020-08-08T12:46:02Z</time>
      </trkpt>
      <trkpt lat="48.70253" lon="7.69885">
        <ele>151</ele>
        <time>2020-08-08T12:46:03Z</time>
      </trkpt>
      <trkpt lat="48.70258" lon="7.69883">
        <ele>152</ele>
        <time>2020-08-08T12:46:04Z</time>
      </trkpt>
      <trkpt lat="48.70263" lon="7.69881">
        <ele>152</ele>
        <time>2020-08-08T12:46:05Z</time>
      </trkpt>
      <trkpt lat="48.70267" lon="7.69879">
        <ele>152</ele>
        <time>2020-08-08T12:46:06Z</time>
      </trkpt>
      <trkpt lat="48.70272" lon="7.69877">
        <ele>153</ele>
        <time>2020-08-08T12:46:07Z</time>
      </trkpt>
      <trkpt lat="48.70281" lon="7.69871">
        <ele>152</ele>
        <time>2020-08-08T12:46:09Z</time>
      </trkpt>
      <trkpt lat="48.70285" lon="7.69868">
        <ele>150</ele>
        <time>2020-08-08T12:46:10Z</time>
      </trkpt>
      <trkpt lat="48.7029" lon="7.69866">
        <ele>150</ele>
        <time>2020-08-08T12:46:11Z</time>
      </trkpt>
      <trkpt lat="48.70298" lon="7.69862">
        <ele>151</ele>
        <time>2020-08-08T12:46:13Z</time>
      </trkpt>
      <trkpt lat="48.70304" lon="7.69859">
        <ele>150</ele>
        <time>2020-08-08T12:46:14Z</time>
      </trkpt>
      <trkpt lat="48.70309" lon="7.69858">
        <ele>150</ele>
        <time>2020-08-08T12:46:15Z</time>
      </trkpt>
      <trkpt lat="48.70319" lon="7.69856">
        <ele>150</ele>
        <time>2020-08-08T12:46:17Z</time>
      </trkpt>
      <trkpt lat="48.70323" lon="7.69857">
        <ele>151</ele>
        <time>2020-08-08T12:46:18Z</time>
      </trkpt>
      <trkpt lat="48.70329" lon="7.69855">
        <ele>151</ele>
        <time>2020-08-08T12:46:19Z</time>
      </trkpt>
      <trkpt lat="48.70334" lon="7.69853">
        <ele>150</ele>
        <time>2020-08-08T12:46:20Z</time>
      </trkpt>
      <trkpt lat="48.7034" lon="7.69853">
        <ele>151</ele>
        <time>2020-08-08T12:46:21Z</time>
      </trkpt>
      <trkpt lat="48.70345" lon="7.69849">
        <ele>150</ele>
        <time>2020-08-08T12:46:22Z</time>
      </trkpt>
      <trkpt lat="48.70351" lon="7.69846">
        <ele>151</ele>
        <time>2020-08-08T12:46:23Z</time>
      </trkpt>
      <trkpt lat="48.70356" lon="7.69845">
        <ele>151</ele>
        <time>2020-08-08T12:46:24Z</time>
      </trkpt>
      <trkpt lat="48.70361" lon="7.69842">
        <ele>151</ele>
        <time>2020-08-08T12:46:25Z</time>
      </trkpt>
      <trkpt lat="48.70366" lon="7.69838">
        <ele>151</ele>
        <time>2020-08-08T12:46:26Z</time>
      </trkpt>
      <trkpt lat="48.7037" lon="7.69835">
        <ele>150</ele>
        <time>2020-08-08T12:46:27Z</time>
      </trkpt>
      <trkpt lat="48.70379" lon="7.69832">
        <ele>150</ele>
        <time>2020-08-08T12:46:29Z</time>
      </trkpt>
      <trkpt lat="48.70384" lon="7.6983">
        <ele>150</ele>
        <time>2020-08-08T12:46:30Z</time>
      </trkpt>
      <trkpt lat="48.70388" lon="7.69827">
        <ele>150</ele>
        <time>2020-08-08T12:46:31Z</time>
      </trkpt>
      <trkpt lat="48.70397" lon="7.69821">
        <ele>149</ele>
        <time>2020-08-08T12:46:33Z</time>
      </trkpt>
      <trkpt lat="48.70403" lon="7.6982">
        <ele>150</ele>
        <time>2020-08-08T12:46:34Z</time>
      </trkpt>
      <trkpt lat="48.70407" lon="7.69817">
        <ele>150</ele>
        <time>2020-08-08T12:46:35Z</time>
      </trkpt>
      <trkpt lat="48.70412" lon="7.69815">
        <ele>150</ele>
        <time>2020-08-08T12:46:36Z</time>
      </trkpt>
      <trkpt lat="48.70416" lon="7.69811">
        <ele>150</ele>
        <time>2020-08-08T12:46:37Z</time>
      </trkpt>
      <trkpt lat="48.70421" lon="7.6981">
        <ele>150</ele>
        <time>2020-08-08T12:46:38Z</time>
      </trkpt>
      <trkpt lat="48.70426" lon="7.69807">
        <ele>150</ele>
        <time>2020-08-08T12:46:39Z</time>
      </trkpt>
      <trkpt lat="48.7043" lon="7.69805">
        <ele>150</ele>
        <time>2020-08-08T12:46:40Z</time>
      </trkpt>
      <trkpt lat="48.70435" lon="7.69803">
        <ele>150</ele>
        <time>2020-08-08T12:46:41Z</time>
      </trkpt>
      <trkpt lat="48.7044" lon="7.69801">
        <ele>150</ele>
        <time>2020-08-08T12:46:42Z</time>
      </trkpt>
      <trkpt lat="48.70445" lon="7.69798">
        <ele>150</ele>
        <time>2020-08-08T12:46:43Z</time>
      </trkpt>
      <trkpt lat="48.7045" lon="7.69795">
        <ele>150</ele>
        <time>2020-08-08T12:46:44Z</time>
      </trkpt>
      <trkpt lat="48.70458" lon="7.6979">
        <ele>150</ele>
        <time>2020-08-08T12:46:46Z</time>
      </trkpt>
      <trkpt lat="48.70463" lon="7.69788">
        <ele>150</ele>
        <time>2020-08-08T12:46:47Z</time>
      </trkpt>
      <trkpt lat="48.70468" lon="7.69787">
        <ele>150</ele>
        <time>2020-08-08T12:46:48Z</time>
      </trkpt>
      <trkpt lat="48.70472" lon="7.69785">
        <ele>150</ele>
        <time>2020-08-08T12:46:49Z</time>
      </trkpt>
      <trkpt lat="48.70477" lon="7.69782">
        <ele>150</ele>
        <time>2020-08-08T12:46:50Z</time>
      </trkpt>
      <trkpt lat="48.70482" lon="7.69781">
        <ele>150</ele>
        <time>2020-08-08T12:46:51Z</time>
      </trkpt>
      <trkpt lat="48.70487" lon="7.69778">
        <ele>150</ele>
        <time>2020-08-08T12:46:52Z</time>
      </trkpt>
      <trkpt lat="48.70491" lon="7.69776">
        <ele>150</ele>
        <time>2020-08-08T12:46:53Z</time>
      </trkpt>
      <trkpt lat="48.70496" lon="7.69774">
        <ele>150</ele>
        <time>2020-08-08T12:46:54Z</time>
      </trkpt>
      <trkpt lat="48.70501" lon="7.69772">
        <ele>151</ele>
        <time>2020-08-08T12:46:55Z</time>
      </trkpt>
      <trkpt lat="48.70506" lon="7.69768">
        <ele>150</ele>
        <time>2020-08-08T12:46:56Z</time>
      </trkpt>
      <trkpt lat="48.70511" lon="7.69765">
        <ele>150</ele>
        <time>2020-08-08T12:46:57Z</time>
      </trkpt>
      <trkpt lat="48.70516" lon="7.69762">
        <ele>150</ele>
        <time>2020-08-08T12:46:58Z</time>
      </trkpt>
      <trkpt lat="48.70525" lon="7.69757">
        <ele>150</ele>
        <time>2020-08-08T12:47:00Z</time>
      </trkpt>
      <trkpt lat="48.7053" lon="7.69756">
        <ele>151</ele>
        <time>2020-08-08T12:47:01Z</time>
      </trkpt>
      <trkpt lat="48.70535" lon="7.69753">
        <ele>151</ele>
        <time>2020-08-08T12:47:02Z</time>
      </trkpt>
      <trkpt lat="48.7054" lon="7.6975">
        <ele>151</ele>
        <time>2020-08-08T12:47:03Z</time>
      </trkpt>
      <trkpt lat="48.70545" lon="7.69747">
        <ele>151</ele>
        <time>2020-08-08T12:47:04Z</time>
      </trkpt>
      <trkpt lat="48.70549" lon="7.69744">
        <ele>151</ele>
        <time>2020-08-08T12:47:05Z</time>
      </trkpt>
      <trkpt lat="48.70556" lon="7.69741">
        <ele>152</ele>
        <time>2020-08-08T12:47:06Z</time>
      </trkpt>
      <trkpt lat="48.70565" lon="7.69737">
        <ele>152</ele>
        <time>2020-08-08T12:47:08Z</time>
      </trkpt>
      <trkpt lat="48.70569" lon="7.69733">
        <ele>152</ele>
        <time>2020-08-08T12:47:09Z</time>
      </trkpt>
      <trkpt lat="48.70574" lon="7.6973">
        <ele>152</ele>
        <time>2020-08-08T12:47:10Z</time>
      </trkpt>
      <trkpt lat="48.70578" lon="7.69727">
        <ele>152</ele>
        <time>2020-08-08T12:47:11Z</time>
      </trkpt>
      <trkpt lat="48.70583" lon="7.69725">
        <ele>152</ele>
        <time>2020-08-08T12:47:12Z</time>
      </trkpt>
      <trkpt lat="48.70588" lon="7.69723">
        <ele>152</ele>
        <time>2020-08-08T12:47:13Z</time>
      </trkpt>
      <trkpt lat="48.70594" lon="7.6972">
        <ele>153</ele>
        <time>2020-08-08T12:47:14Z</time>
      </trkpt>
      <trkpt lat="48.70599" lon="7.69716">
        <ele>152</ele>
        <time>2020-08-08T12:47:15Z</time>
      </trkpt>
      <trkpt lat="48.70605" lon="7.69713">
        <ele>152</ele>
        <time>2020-08-08T12:47:16Z</time>
      </trkpt>
      <trkpt lat="48.70609" lon="7.69711">
        <ele>151</ele>
        <time>2020-08-08T12:47:17Z</time>
      </trkpt>
      <trkpt lat="48.70614" lon="7.69706">
        <ele>151</ele>
        <time>2020-08-08T12:47:18Z</time>
      </trkpt>
      <trkpt lat="48.70619" lon="7.69702">
        <ele>151</ele>
        <time>2020-08-08T12:47:19Z</time>
      </trkpt>
      <trkpt lat="48.70625" lon="7.69699">
        <ele>152</ele>
        <time>2020-08-08T12:47:20Z</time>
      </trkpt>
      <trkpt lat="48.7063" lon="7.69695">
        <ele>152</ele>
        <time>2020-08-08T12:47:21Z</time>
      </trkpt>
      <trkpt lat="48.70635" lon="7.69692">
        <ele>152</ele>
        <time>2020-08-08T12:47:22Z</time>
      </trkpt>
      <trkpt lat="48.70639" lon="7.69688">
        <ele>151</ele>
        <time>2020-08-08T12:47:23Z</time>
      </trkpt>
      <trkpt lat="48.70644" lon="7.69684">
        <ele>151</ele>
        <time>2020-08-08T12:47:24Z</time>
      </trkpt>
      <trkpt lat="48.70648" lon="7.6968">
        <ele>151</ele>
        <time>2020-08-08T12:47:25Z</time>
      </trkpt>
      <trkpt lat="48.70653" lon="7.69676">
        <ele>150</ele>
        <time>2020-08-08T12:47:26Z</time>
      </trkpt>
      <trkpt lat="48.70658" lon="7.69672">
        <ele>151</ele>
        <time>2020-08-08T12:47:27Z</time>
      </trkpt>
      <trkpt lat="48.70663" lon="7.69669">
        <ele>151</ele>
        <time>2020-08-08T12:47:28Z</time>
      </trkpt>
      <trkpt lat="48.70668" lon="7.69665">
        <ele>151</ele>
        <time>2020-08-08T12:47:29Z</time>
      </trkpt>
      <trkpt lat="48.70672" lon="7.69661">
        <ele>151</ele>
        <time>2020-08-08T12:47:30Z</time>
      </trkpt>
      <trkpt lat="48.70676" lon="7.69657">
        <ele>150</ele>
        <time>2020-08-08T12:47:31Z</time>
      </trkpt>
      <trkpt lat="48.70681" lon="7.69652">
        <ele>149</ele>
        <time>2020-08-08T12:47:32Z</time>
      </trkpt>
      <trkpt lat="48.70686" lon="7.69648">
        <ele>149</ele>
        <time>2020-08-08T12:47:33Z</time>
      </trkpt>
      <trkpt lat="48.7069" lon="7.69644">
        <ele>149</ele>
        <time>2020-08-08T12:47:34Z</time>
      </trkpt>
      <trkpt lat="48.70695" lon="7.6964">
        <ele>149</ele>
        <time>2020-08-08T12:47:35Z</time>
      </trkpt>
      <trkpt lat="48.70704" lon="7.69635">
        <ele>149</ele>
        <time>2020-08-08T12:47:37Z</time>
      </trkpt>
      <trkpt lat="48.70708" lon="7.69632">
        <ele>148</ele>
        <time>2020-08-08T12:47:38Z</time>
      </trkpt>
      <trkpt lat="48.70713" lon="7.69628">
        <ele>148</ele>
        <time>2020-08-08T12:47:39Z</time>
      </trkpt>
      <trkpt lat="48.70718" lon="7.69625">
        <ele>148</ele>
        <time>2020-08-08T12:47:40Z</time>
      </trkpt>
      <trkpt lat="48.70721" lon="7.6962">
        <ele>147</ele>
        <time>2020-08-08T12:47:41Z</time>
      </trkpt>
      <trkpt lat="48.70726" lon="7.69616">
        <ele>147</ele>
        <time>2020-08-08T12:47:42Z</time>
      </trkpt>
      <trkpt lat="48.70731" lon="7.69611">
        <ele>147</ele>
        <time>2020-08-08T12:47:43Z</time>
      </trkpt>
      <trkpt lat="48.70734" lon="7.69605">
        <ele>147</ele>
        <time>2020-08-08T12:47:44Z</time>
      </trkpt>
      <trkpt lat="48.70738" lon="7.69601">
        <ele>147</ele>
        <time>2020-08-08T12:47:45Z</time>
      </trkpt>
      <trkpt lat="48.70742" lon="7.69597">
        <ele>146</ele>
        <time>2020-08-08T12:47:46Z</time>
      </trkpt>
      <trkpt lat="48.70747" lon="7.69593">
        <ele>146</ele>
        <time>2020-08-08T12:47:47Z</time>
      </trkpt>
      <trkpt lat="48.70752" lon="7.69592">
        <ele>146</ele>
        <time>2020-08-08T12:47:48Z</time>
      </trkpt>
      <trkpt lat="48.70756" lon="7.69588">
        <ele>147</ele>
        <time>2020-08-08T12:47:49Z</time>
      </trkpt>
      <trkpt lat="48.70762" lon="7.69585">
        <ele>147</ele>
        <time>2020-08-08T12:47:50Z</time>
      </trkpt>
      <trkpt lat="48.70769" lon="7.69578">
        <ele>147</ele>
        <time>2020-08-08T12:47:52Z</time>
      </trkpt>
      <trkpt lat="48.70773" lon="7.69575">
        <ele>147</ele>
        <time>2020-08-08T12:47:53Z</time>
      </trkpt>
      <trkpt lat="48.70778" lon="7.69572">
        <ele>148</ele>
        <time>2020-08-08T12:47:54Z</time>
      </trkpt>
      <trkpt lat="48.70782" lon="7.69569">
        <ele>148</ele>
        <time>2020-08-08T12:47:55Z</time>
      </trkpt>
      <trkpt lat="48.7079" lon="7.69565">
        <ele>148</ele>
        <time>2020-08-08T12:47:57Z</time>
      </trkpt>
      <trkpt lat="48.70797" lon="7.6956">
        <ele>149</ele>
        <time>2020-08-08T12:47:59Z</time>
      </trkpt>
      <trkpt lat="48.70805" lon="7.69553">
        <ele>149</ele>
        <time>2020-08-08T12:48:01Z</time>
      </trkpt>
      <trkpt lat="48.70811" lon="7.69545">
        <ele>148</ele>
        <time>2020-08-08T12:48:03Z</time>
      </trkpt>
      <trkpt lat="48.70818" lon="7.69541">
        <ele>148</ele>
        <time>2020-08-08T12:48:05Z</time>
      </trkpt>
      <trkpt lat="48.70826" lon="7.69535">
        <ele>148</ele>
        <time>2020-08-08T12:48:07Z</time>
      </trkpt>
      <trkpt lat="48.7083" lon="7.69532">
        <ele>148</ele>
        <time>2020-08-08T12:48:08Z</time>
      </trkpt>
      <trkpt lat="48.70837" lon="7.69526">
        <ele>148</ele>
        <time>2020-08-08T12:48:10Z</time>
      </trkpt>
      <trkpt lat="48.70842" lon="7.69521">
        <ele>148</ele>
        <time>2020-08-08T12:48:11Z</time>
      </trkpt>
      <trkpt lat="48.70848" lon="7.69515">
        <ele>147</ele>
        <time>2020-08-08T12:48:13Z</time>
      </trkpt>
      <trkpt lat="48.70854" lon="7.69507">
        <ele>147</ele>
        <time>2020-08-08T12:48:15Z</time>
      </trkpt>
      <trkpt lat="48.70857" lon="7.69496">
        <ele>146</ele>
        <time>2020-08-08T12:48:17Z</time>
      </trkpt>
      <trkpt lat="48.70859" lon="7.69488">
        <ele>146</ele>
        <time>2020-08-08T12:48:19Z</time>
      </trkpt>
      <trkpt lat="48.70863" lon="7.6948">
        <ele>146</ele>
        <time>2020-08-08T12:48:21Z</time>
      </trkpt>
      <trkpt lat="48.70868" lon="7.69476">
        <ele>146</ele>
        <time>2020-08-08T12:48:23Z</time>
      </trkpt>
      <trkpt lat="48.70874" lon="7.6948">
        <ele>146</ele>
        <time>2020-08-08T12:48:25Z</time>
      </trkpt>
      <trkpt lat="48.70882" lon="7.69482">
        <ele>148</ele>
        <time>2020-08-08T12:48:27Z</time>
      </trkpt>
      <trkpt lat="48.70887" lon="7.69474">
        <ele>148</ele>
        <time>2020-08-08T12:48:29Z</time>
      </trkpt>
      <trkpt lat="48.70892" lon="7.69468">
        <ele>148</ele>
        <time>2020-08-08T12:48:31Z</time>
      </trkpt>
      <trkpt lat="48.70899" lon="7.69462">
        <ele>147</ele>
        <time>2020-08-08T12:48:33Z</time>
      </trkpt>
      <trkpt lat="48.70907" lon="7.69458">
        <ele>148</ele>
        <time>2020-08-08T12:48:35Z</time>
      </trkpt>
      <trkpt lat="48.70914" lon="7.69454">
        <ele>148</ele>
        <time>2020-08-08T12:48:37Z</time>
      </trkpt>
      <trkpt lat="48.70921" lon="7.69447">
        <ele>148</ele>
        <time>2020-08-08T12:48:39Z</time>
      </trkpt>
      <trkpt lat="48.70928" lon="7.69443">
        <ele>149</ele>
        <time>2020-08-08T12:48:41Z</time>
      </trkpt>
      <trkpt lat="48.70935" lon="7.69436">
        <ele>148</ele>
        <time>2020-08-08T12:48:43Z</time>
      </trkpt>
      <trkpt lat="48.70942" lon="7.69431">
        <ele>148</ele>
        <time>2020-08-08T12:48:45Z</time>
      </trkpt>
      <trkpt lat="48.70951" lon="7.69427">
        <ele>149</ele>
        <time>2020-08-08T12:48:47Z</time>
      </trkpt>
      <trkpt lat="48.70959" lon="7.6942">
        <ele>149</ele>
        <time>2020-08-08T12:48:49Z</time>
      </trkpt>
      <trkpt lat="48.70966" lon="7.69412">
        <ele>149</ele>
        <time>2020-08-08T12:48:51Z</time>
      </trkpt>
      <trkpt lat="48.70973" lon="7.69406">
        <ele>148</ele>
        <time>2020-08-08T12:48:53Z</time>
      </trkpt>
      <trkpt lat="48.7098" lon="7.694">
        <ele>148</ele>
        <time>2020-08-08T12:48:55Z</time>
      </trkpt>
      <trkpt lat="48.70988" lon="7.69394">
        <ele>147</ele>
        <time>2020-08-08T12:48:57Z</time>
      </trkpt>
      <trkpt lat="48.70995" lon="7.69388">
        <ele>147</ele>
        <time>2020-08-08T12:48:59Z</time>
      </trkpt>
      <trkpt lat="48.71003" lon="7.69383">
        <ele>147</ele>
        <time>2020-08-08T12:49:01Z</time>
      </trkpt>
      <trkpt lat="48.71009" lon="7.69376">
        <ele>147</ele>
        <time>2020-08-08T12:49:03Z</time>
      </trkpt>
      <trkpt lat="48.71014" lon="7.69374">
        <ele>148</ele>
        <time>2020-08-08T12:49:04Z</time>
      </trkpt>
      <trkpt lat="48.71018" lon="7.6937">
        <ele>147</ele>
        <time>2020-08-08T12:49:05Z</time>
      </trkpt>
      <trkpt lat="48.71022" lon="7.69366">
        <ele>147</ele>
        <time>2020-08-08T12:49:06Z</time>
      </trkpt>
      <trkpt lat="48.71029" lon="7.69359">
        <ele>147</ele>
        <time>2020-08-08T12:49:08Z</time>
      </trkpt>
      <trkpt lat="48.71036" lon="7.69352">
        <ele>147</ele>
        <time>2020-08-08T12:49:10Z</time>
      </trkpt>
      <trkpt lat="48.7104" lon="7.69347">
        <ele>147</ele>
        <time>2020-08-08T12:49:11Z</time>
      </trkpt>
      <trkpt lat="48.71044" lon="7.69344">
        <ele>147</ele>
        <time>2020-08-08T12:49:12Z</time>
      </trkpt>
      <trkpt lat="48.71052" lon="7.69338">
        <ele>147</ele>
        <time>2020-08-08T12:49:14Z</time>
      </trkpt>
      <trkpt lat="48.71056" lon="7.69334">
        <ele>147</ele>
        <time>2020-08-08T12:49:15Z</time>
      </trkpt>
      <trkpt lat="48.71063" lon="7.69327">
        <ele>147</ele>
        <time>2020-08-08T12:49:17Z</time>
      </trkpt>
      <trkpt lat="48.71068" lon="7.69323">
        <ele>147</ele>
        <time>2020-08-08T12:49:18Z</time>
      </trkpt>
      <trkpt lat="48.71075" lon="7.6932">
        <ele>147</ele>
        <time>2020-08-08T12:49:20Z</time>
      </trkpt>
      <trkpt lat="48.7108" lon="7.69321">
        <ele>148</ele>
        <time>2020-08-08T12:49:21Z</time>
      </trkpt>
      <trkpt lat="48.71086" lon="7.69316">
        <ele>148</ele>
        <time>2020-08-08T12:49:23Z</time>
      </trkpt>
      <trkpt lat="48.71092" lon="7.69313">
        <ele>148</ele>
        <time>2020-08-08T12:49:25Z</time>
      </trkpt>
      <trkpt lat="48.71096" lon="7.69309">
        <ele>148</ele>
        <time>2020-08-08T12:49:26Z</time>
      </trkpt>
      <trkpt lat="48.711" lon="7.69307">
        <ele>148</ele>
        <time>2020-08-08T12:49:27Z</time>
      </trkpt>
      <trkpt lat="48.71108" lon="7.69303">
        <ele>148</ele>
        <time>2020-08-08T12:49:29Z</time>
      </trkpt>
      <trkpt lat="48.71115" lon="7.69296">
        <ele>148</ele>
        <time>2020-08-08T12:49:31Z</time>
      </trkpt>
      <trkpt lat="48.71123" lon="7.69289">
        <ele>148</ele>
        <time>2020-08-08T12:49:33Z</time>
      </trkpt>
      <trkpt lat="48.71129" lon="7.69281">
        <ele>148</ele>
        <time>2020-08-08T12:49:35Z</time>
      </trkpt>
      <trkpt lat="48.71137" lon="7.69276">
        <ele>148</ele>
        <time>2020-08-08T12:49:37Z</time>
      </trkpt>
      <trkpt lat="48.71144" lon="7.6927">
        <ele>148</ele>
        <time>2020-08-08T12:49:39Z</time>
      </trkpt>
      <trkpt lat="48.71149" lon="7.69267">
        <ele>148</ele>
        <time>2020-08-08T12:49:40Z</time>
      </trkpt>
      <trkpt lat="48.71156" lon="7.69264">
        <ele>148</ele>
        <time>2020-08-08T12:49:42Z</time>
      </trkpt>
      <trkpt lat="48.7116" lon="7.69259">
        <ele>148</ele>
        <time>2020-08-08T12:49:43Z</time>
      </trkpt>
      <trkpt lat="48.71164" lon="7.69255">
        <ele>148</ele>
        <time>2020-08-08T12:49:44Z</time>
      </trkpt>
      <trkpt lat="48.71168" lon="7.69251">
        <ele>148</ele>
        <time>2020-08-08T12:49:45Z</time>
      </trkpt>
      <trkpt lat="48.71172" lon="7.69247">
        <ele>147</ele>
        <time>2020-08-08T12:49:46Z</time>
      </trkpt>
      <trkpt lat="48.7118" lon="7.69241">
        <ele>147</ele>
        <time>2020-08-08T12:49:48Z</time>
      </trkpt>
      <trkpt lat="48.71184" lon="7.69236">
        <ele>147</ele>
        <time>2020-08-08T12:49:49Z</time>
      </trkpt>
      <trkpt lat="48.71191" lon="7.69229">
        <ele>147</ele>
        <time>2020-08-08T12:49:51Z</time>
      </trkpt>
      <trkpt lat="48.71196" lon="7.69225">
        <ele>147</ele>
        <time>2020-08-08T12:49:52Z</time>
      </trkpt>
      <trkpt lat="48.712" lon="7.69222">
        <ele>147</ele>
        <time>2020-08-08T12:49:53Z</time>
      </trkpt>
      <trkpt lat="48.71207" lon="7.69213">
        <ele>147</ele>
        <time>2020-08-08T12:49:55Z</time>
      </trkpt>
      <trkpt lat="48.71214" lon="7.6921">
        <ele>147</ele>
        <time>2020-08-08T12:49:57Z</time>
      </trkpt>
      <trkpt lat="48.71219" lon="7.69207">
        <ele>147</ele>
        <time>2020-08-08T12:49:58Z</time>
      </trkpt>
      <trkpt lat="48.71224" lon="7.69204">
        <ele>148</ele>
        <time>2020-08-08T12:49:59Z</time>
      </trkpt>
      <trkpt lat="48.71233" lon="7.69193">
        <ele>147</ele>
        <time>2020-08-08T12:50:02Z</time>
      </trkpt>
      <trkpt lat="48.7124" lon="7.69185">
        <ele>147</ele>
        <time>2020-08-08T12:50:04Z</time>
      </trkpt>
      <trkpt lat="48.71248" lon="7.69179">
        <ele>147</ele>
        <time>2020-08-08T12:50:06Z</time>
      </trkpt>
      <trkpt lat="48.71259" lon="7.69171">
        <ele>147</ele>
        <time>2020-08-08T12:50:09Z</time>
      </trkpt>
      <trkpt lat="48.71268" lon="7.69164">
        <ele>147</ele>
        <time>2020-08-08T12:50:11Z</time>
      </trkpt>
      <trkpt lat="48.71272" lon="7.69159">
        <ele>147</ele>
        <time>2020-08-08T12:50:12Z</time>
      </trkpt>
      <trkpt lat="48.7128" lon="7.69155">
        <ele>147</ele>
        <time>2020-08-08T12:50:14Z</time>
      </trkpt>
      <trkpt lat="48.71288" lon="7.6915">
        <ele>147</ele>
        <time>2020-08-08T12:50:16Z</time>
      </trkpt>
      <trkpt lat="48.71295" lon="7.69145">
        <ele>147</ele>
        <time>2020-08-08T12:50:18Z</time>
      </trkpt>
      <trkpt lat="48.71302" lon="7.69139">
        <ele>147</ele>
        <time>2020-08-08T12:50:20Z</time>
      </trkpt>
      <trkpt lat="48.71309" lon="7.69135">
        <ele>147</ele>
        <time>2020-08-08T12:50:22Z</time>
      </trkpt>
      <trkpt lat="48.71317" lon="7.69131">
        <ele>147</ele>
        <time>2020-08-08T12:50:24Z</time>
      </trkpt>
      <trkpt lat="48.71324" lon="7.69125">
        <ele>147</ele>
        <time>2020-08-08T12:50:26Z</time>
      </trkpt>
      <trkpt lat="48.71331" lon="7.6912">
        <ele>147</ele>
        <time>2020-08-08T12:50:28Z</time>
      </trkpt>
      <trkpt lat="48.71338" lon="7.69115">
        <ele>147</ele>
        <time>2020-08-08T12:50:30Z</time>
      </trkpt>
      <trkpt lat="48.71345" lon="7.69109">
        <ele>147</ele>
        <time>2020-08-08T12:50:32Z</time>
      </trkpt>
      <trkpt lat="48.71353" lon="7.69103">
        <ele>147</ele>
        <time>2020-08-08T12:50:34Z</time>
      </trkpt>
      <trkpt lat="48.71361" lon="7.69098">
        <ele>147</ele>
        <time>2020-08-08T12:50:36Z</time>
      </trkpt>
      <trkpt lat="48.71368" lon="7.69091">
        <ele>147</ele>
        <time>2020-08-08T12:50:38Z</time>
      </trkpt>
      <trkpt lat="48.71372" lon="7.69087">
        <ele>147</ele>
        <time>2020-08-08T12:50:39Z</time>
      </trkpt>
      <trkpt lat="48.7138" lon="7.6908">
        <ele>147</ele>
        <time>2020-08-08T12:50:41Z</time>
      </trkpt>
      <trkpt lat="48.71387" lon="7.69073">
        <ele>147</ele>
        <time>2020-08-08T12:50:43Z</time>
      </trkpt>
      <trkpt lat="48.71395" lon="7.69066">
        <ele>147</ele>
        <time>2020-08-08T12:50:45Z</time>
      </trkpt>
      <trkpt lat="48.71399" lon="7.69062">
        <ele>146</ele>
        <time>2020-08-08T12:50:46Z</time>
      </trkpt>
      <trkpt lat="48.71402" lon="7.69058">
        <ele>146</ele>
        <time>2020-08-08T12:50:47Z</time>
      </trkpt>
      <trkpt lat="48.71406" lon="7.69054">
        <ele>146</ele>
        <time>2020-08-08T12:50:48Z</time>
      </trkpt>
      <trkpt lat="48.7141" lon="7.6905">
        <ele>146</ele>
        <time>2020-08-08T12:50:49Z</time>
      </trkpt>
      <trkpt lat="48.71418" lon="7.69043">
        <ele>147</ele>
        <time>2020-08-08T12:50:51Z</time>
      </trkpt>
      <trkpt lat="48.71425" lon="7.69036">
        <ele>147</ele>
        <time>2020-08-08T12:50:53Z</time>
      </trkpt>
      <trkpt lat="48.71431" lon="7.69028">
        <ele>147</ele>
        <time>2020-08-08T12:50:55Z</time>
      </trkpt>
      <trkpt lat="48.71438" lon="7.69021">
        <ele>147</ele>
        <time>2020-08-08T12:50:57Z</time>
      </trkpt>
      <trkpt lat="48.71445" lon="7.69015">
        <ele>147</ele>
        <time>2020-08-08T12:50:59Z</time>
      </trkpt>
      <trkpt lat="48.71449" lon="7.69011">
        <ele>147</ele>
        <time>2020-08-08T12:51:01Z</time>
      </trkpt>
      <trkpt lat="48.71452" lon="7.69006">
        <ele>147</ele>
        <time>2020-08-08T12:51:03Z</time>
      </trkpt>
      <trkpt lat="48.71454" lon="7.68997">
        <ele>146</ele>
        <time>2020-08-08T12:51:07Z</time>
      </trkpt>
      <trkpt lat="48.715" lon="7.68977">
        <ele>153</ele>
        <time>2020-08-08T13:05:32Z</time>
      </trkpt>
      <trkpt lat="48.71506" lon="7.68973">
        <ele>153</ele>
        <time>2020-08-08T13:05:34Z</time>
      </trkpt>
      <trkpt lat="48.71511" lon="7.68968">
        <ele>153</ele>
        <time>2020-08-08T13:05:36Z</time>
      </trkpt>
      <trkpt lat="48.71516" lon="7.68964">
        <ele>153</ele>
        <time>2020-08-08T13:05:38Z</time>
      </trkpt>
      <trkpt lat="48.71523" lon="7.68959">
        <ele>153</ele>
        <time>2020-08-08T13:05:40Z</time>
      </trkpt>
      <trkpt lat="48.71529" lon="7.68953">
        <ele>152</ele>
        <time>2020-08-08T13:05:42Z</time>
      </trkpt>
      <trkpt lat="48.71536" lon="7.68948">
        <ele>153</ele>
        <time>2020-08-08T13:05:44Z</time>
      </trkpt>
      <trkpt lat="48.71543" lon="7.6894">
        <ele>152</ele>
        <time>2020-08-08T13:05:46Z</time>
      </trkpt>
      <trkpt lat="48.71551" lon="7.68935">
        <ele>152</ele>
        <time>2020-08-08T13:05:48Z</time>
      </trkpt>
      <trkpt lat="48.71558" lon="7.68929">
        <ele>152</ele>
        <time>2020-08-08T13:05:50Z</time>
      </trkpt>
      <trkpt lat="48.71566" lon="7.68925">
        <ele>153</ele>
        <time>2020-08-08T13:05:52Z</time>
      </trkpt>
      <trkpt lat="48.71573" lon="7.6892">
        <ele>153</ele>
        <time>2020-08-08T13:05:54Z</time>
      </trkpt>
      <trkpt lat="48.71579" lon="7.68914">
        <ele>152</ele>
        <time>2020-08-08T13:05:56Z</time>
      </trkpt>
      <trkpt lat="48.71586" lon="7.68909">
        <ele>153</ele>
        <time>2020-08-08T13:05:58Z</time>
      </trkpt>
      <trkpt lat="48.71594" lon="7.68901">
        <ele>152</ele>
        <time>2020-08-08T13:06:00Z</time>
      </trkpt>
      <trkpt lat="48.71598" lon="7.68897">
        <ele>151</ele>
        <time>2020-08-08T13:06:01Z</time>
      </trkpt>
      <trkpt lat="48.71605" lon="7.68893">
        <ele>151</ele>
        <time>2020-08-08T13:06:03Z</time>
      </trkpt>
      <trkpt lat="48.71612" lon="7.68886">
        <ele>150</ele>
        <time>2020-08-08T13:06:05Z</time>
      </trkpt>
      <trkpt lat="48.71619" lon="7.6888">
        <ele>150</ele>
        <time>2020-08-08T13:06:07Z</time>
      </trkpt>
      <trkpt lat="48.71626" lon="7.68873">
        <ele>150</ele>
        <time>2020-08-08T13:06:09Z</time>
      </trkpt>
      <trkpt lat="48.71634" lon="7.68868">
        <ele>150</ele>
        <time>2020-08-08T13:06:11Z</time>
      </trkpt>
      <trkpt lat="48.71641" lon="7.68861">
        <ele>150</ele>
        <time>2020-08-08T13:06:13Z</time>
      </trkpt>
      <trkpt lat="48.71648" lon="7.68857">
        <ele>149</ele>
        <time>2020-08-08T13:06:15Z</time>
      </trkpt>
      <trkpt lat="48.71656" lon="7.68852">
        <ele>149</ele>
        <time>2020-08-08T13:06:17Z</time>
      </trkpt>
      <trkpt lat="48.7166" lon="7.68849">
        <ele>150</ele>
        <time>2020-08-08T13:06:18Z</time>
      </trkpt>
      <trkpt lat="48.71668" lon="7.68843">
        <ele>152</ele>
        <time>2020-08-08T13:06:20Z</time>
      </trkpt>
      <trkpt lat="48.71674" lon="7.68837">
        <ele>152</ele>
        <time>2020-08-08T13:06:22Z</time>
      </trkpt>
      <trkpt lat="48.71681" lon="7.68831">
        <ele>152</ele>
        <time>2020-08-08T13:06:24Z</time>
      </trkpt>
      <trkpt lat="48.71685" lon="7.68828">
        <ele>153</ele>
        <time>2020-08-08T13:06:25Z</time>
      </trkpt>
      <trkpt lat="48.71693" lon="7.68823">
        <ele>152</ele>
        <time>2020-08-08T13:06:27Z</time>
      </trkpt>
      <trkpt lat="48.717" lon="7.68815">
        <ele>151</ele>
        <time>2020-08-08T13:06:29Z</time>
      </trkpt>
      <trkpt lat="48.71707" lon="7.68809">
        <ele>151</ele>
        <time>2020-08-08T13:06:31Z</time>
      </trkpt>
      <trkpt lat="48.71719" lon="7.688">
        <ele>151</ele>
        <time>2020-08-08T13:06:34Z</time>
      </trkpt>
      <trkpt lat="48.71725" lon="7.68793">
        <ele>149</ele>
        <time>2020-08-08T13:06:36Z</time>
      </trkpt>
      <trkpt lat="48.71733" lon="7.68787">
        <ele>149</ele>
        <time>2020-08-08T13:06:38Z</time>
      </trkpt>
      <trkpt lat="48.71738" lon="7.68783">
        <ele>150</ele>
        <time>2020-08-08T13:06:39Z</time>
      </trkpt>
      <trkpt lat="48.71745" lon="7.68777">
        <ele>150</ele>
        <time>2020-08-08T13:06:41Z</time>
      </trkpt>
      <trkpt lat="48.7175" lon="7.68774">
        <ele>151</ele>
        <time>2020-08-08T13:06:42Z</time>
      </trkpt>
      <trkpt lat="48.71757" lon="7.68767">
        <ele>150</ele>
        <time>2020-08-08T13:06:44Z</time>
      </trkpt>
      <trkpt lat="48.71761" lon="7.68764">
        <ele>150</ele>
        <time>2020-08-08T13:06:45Z</time>
      </trkpt>
      <trkpt lat="48.71766" lon="7.68761">
        <ele>151</ele>
        <time>2020-08-08T13:06:46Z</time>
      </trkpt>
      <trkpt lat="48.7177" lon="7.68758">
        <ele>151</ele>
        <time>2020-08-08T13:06:47Z</time>
      </trkpt>
      <trkpt lat="48.71777" lon="7.68752">
        <ele>152</ele>
        <time>2020-08-08T13:06:49Z</time>
      </trkpt>
      <trkpt lat="48.71781" lon="7.68749">
        <ele>152</ele>
        <time>2020-08-08T13:06:50Z</time>
      </trkpt>
      <trkpt lat="48.71789" lon="7.68744">
        <ele>153</ele>
        <time>2020-08-08T13:06:52Z</time>
      </trkpt>
      <trkpt lat="48.71796" lon="7.68737">
        <ele>153</ele>
        <time>2020-08-08T13:06:54Z</time>
      </trkpt>
      <trkpt lat="48.71803" lon="7.68731">
        <ele>153</ele>
        <time>2020-08-08T13:06:56Z</time>
      </trkpt>
      <trkpt lat="48.7181" lon="7.68727">
        <ele>155</ele>
        <time>2020-08-08T13:06:58Z</time>
      </trkpt>
      <trkpt lat="48.71817" lon="7.68721">
        <ele>154</ele>
        <time>2020-08-08T13:07:00Z</time>
      </trkpt>
      <trkpt lat="48.71821" lon="7.68716">
        <ele>154</ele>
        <time>2020-08-08T13:07:01Z</time>
      </trkpt>
      <trkpt lat="48.71826" lon="7.68713">
        <ele>154</ele>
        <time>2020-08-08T13:07:02Z</time>
      </trkpt>
      <trkpt lat="48.71831" lon="7.6871">
        <ele>154</ele>
        <time>2020-08-08T13:07:03Z</time>
      </trkpt>
      <trkpt lat="48.71838" lon="7.68704">
        <ele>153</ele>
        <time>2020-08-08T13:07:05Z</time>
      </trkpt>
      <trkpt lat="48.71846" lon="7.68698">
        <ele>153</ele>
        <time>2020-08-08T13:07:07Z</time>
      </trkpt>
      <trkpt lat="48.71853" lon="7.68692">
        <ele>154</ele>
        <time>2020-08-08T13:07:09Z</time>
      </trkpt>
      <trkpt lat="48.71859" lon="7.68685">
        <ele>153</ele>
        <time>2020-08-08T13:07:11Z</time>
      </trkpt>
      <trkpt lat="48.71864" lon="7.68679">
        <ele>153</ele>
        <time>2020-08-08T13:07:12Z</time>
      </trkpt>
      <trkpt lat="48.71868" lon="7.68677">
        <ele>154</ele>
        <time>2020-08-08T13:07:13Z</time>
      </trkpt>
      <trkpt lat="48.71873" lon="7.68675">
        <ele>155</ele>
        <time>2020-08-08T13:07:14Z</time>
      </trkpt>
      <trkpt lat="48.7188" lon="7.68668">
        <ele>154</ele>
        <time>2020-08-08T13:07:16Z</time>
      </trkpt>
      <trkpt lat="48.71886" lon="7.68663">
        <ele>154</ele>
        <time>2020-08-08T13:07:18Z</time>
      </trkpt>
      <trkpt lat="48.71894" lon="7.68657">
        <ele>153</ele>
        <time>2020-08-08T13:07:20Z</time>
      </trkpt>
      <trkpt lat="48.71899" lon="7.68655">
        <ele>153</ele>
        <time>2020-08-08T13:07:21Z</time>
      </trkpt>
      <trkpt lat="48.71903" lon="7.68652">
        <ele>154</ele>
        <time>2020-08-08T13:07:22Z</time>
      </trkpt>
      <trkpt lat="48.71907" lon="7.68648">
        <ele>154</ele>
        <time>2020-08-08T13:07:23Z</time>
      </trkpt>
      <trkpt lat="48.71915" lon="7.6864">
        <ele>154</ele>
        <time>2020-08-08T13:07:25Z</time>
      </trkpt>
      <trkpt lat="48.71919" lon="7.68636">
        <ele>154</ele>
        <time>2020-08-08T13:07:26Z</time>
      </trkpt>
      <trkpt lat="48.71926" lon="7.68629">
        <ele>154</ele>
        <time>2020-08-08T13:07:28Z</time>
      </trkpt>
      <trkpt lat="48.7193" lon="7.68625">
        <ele>155</ele>
        <time>2020-08-08T13:07:29Z</time>
      </trkpt>
      <trkpt lat="48.71934" lon="7.68622">
        <ele>155</ele>
        <time>2020-08-08T13:07:30Z</time>
      </trkpt>
      <trkpt lat="48.71942" lon="7.68616">
        <ele>156</ele>
        <time>2020-08-08T13:07:32Z</time>
      </trkpt>
      <trkpt lat="48.7195" lon="7.6861">
        <ele>155</ele>
        <time>2020-08-08T13:07:34Z</time>
      </trkpt>
      <trkpt lat="48.71954" lon="7.68606">
        <ele>154</ele>
        <time>2020-08-08T13:07:35Z</time>
      </trkpt>
      <trkpt lat="48.71962" lon="7.68598">
        <ele>152</ele>
        <time>2020-08-08T13:07:37Z</time>
      </trkpt>
      <trkpt lat="48.7197" lon="7.68594">
        <ele>152</ele>
        <time>2020-08-08T13:07:39Z</time>
      </trkpt>
      <trkpt lat="48.71978" lon="7.68589">
        <ele>151</ele>
        <time>2020-08-08T13:07:41Z</time>
      </trkpt>
      <trkpt lat="48.71985" lon="7.68582">
        <ele>150</ele>
        <time>2020-08-08T13:07:43Z</time>
      </trkpt>
      <trkpt lat="48.71989" lon="7.68578">
        <ele>149</ele>
        <time>2020-08-08T13:07:44Z</time>
      </trkpt>
      <trkpt lat="48.71993" lon="7.68574">
        <ele>149</ele>
        <time>2020-08-08T13:07:45Z</time>
      </trkpt>
      <trkpt lat="48.72001" lon="7.68568">
        <ele>149</ele>
        <time>2020-08-08T13:07:47Z</time>
      </trkpt>
      <trkpt lat="48.72009" lon="7.68562">
        <ele>149</ele>
        <time>2020-08-08T13:07:49Z</time>
      </trkpt>
      <trkpt lat="48.72015" lon="7.68555">
        <ele>149</ele>
        <time>2020-08-08T13:07:51Z</time>
      </trkpt>
      <trkpt lat="48.7202" lon="7.68553">
        <ele>150</ele>
        <time>2020-08-08T13:07:52Z</time>
      </trkpt>
      <trkpt lat="48.72028" lon="7.68546">
        <ele>151</ele>
        <time>2020-08-08T13:07:54Z</time>
      </trkpt>
      <trkpt lat="48.72035" lon="7.68541">
        <ele>151</ele>
        <time>2020-08-08T13:07:56Z</time>
      </trkpt>
      <trkpt lat="48.72039" lon="7.68536">
        <ele>151</ele>
        <time>2020-08-08T13:07:57Z</time>
      </trkpt>
      <trkpt lat="48.72043" lon="7.68532">
        <ele>151</ele>
        <time>2020-08-08T13:07:58Z</time>
      </trkpt>
      <trkpt lat="48.72048" lon="7.68529">
        <ele>151</ele>
        <time>2020-08-08T13:07:59Z</time>
      </trkpt>
      <trkpt lat="48.72052" lon="7.68525">
        <ele>152</ele>
        <time>2020-08-08T13:08:00Z</time>
      </trkpt>
      <trkpt lat="48.72056" lon="7.68521">
        <ele>151</ele>
        <time>2020-08-08T13:08:01Z</time>
      </trkpt>
      <trkpt lat="48.7206" lon="7.68517">
        <ele>151</ele>
        <time>2020-08-08T13:08:02Z</time>
      </trkpt>
      <trkpt lat="48.72068" lon="7.6851">
        <ele>152</ele>
        <time>2020-08-08T13:08:04Z</time>
      </trkpt>
      <trkpt lat="48.72072" lon="7.68506">
        <ele>152</ele>
        <time>2020-08-08T13:08:05Z</time>
      </trkpt>
      <trkpt lat="48.72081" lon="7.68499">
        <ele>153</ele>
        <time>2020-08-08T13:08:07Z</time>
      </trkpt>
      <trkpt lat="48.72088" lon="7.68491">
        <ele>152</ele>
        <time>2020-08-08T13:08:09Z</time>
      </trkpt>
      <trkpt lat="48.72092" lon="7.68488">
        <ele>153</ele>
        <time>2020-08-08T13:08:10Z</time>
      </trkpt>
      <trkpt lat="48.72097" lon="7.68482">
        <ele>153</ele>
        <time>2020-08-08T13:08:11Z</time>
      </trkpt>
      <trkpt lat="48.721" lon="7.68477">
        <ele>152</ele>
        <time>2020-08-08T13:08:12Z</time>
      </trkpt>
      <trkpt lat="48.72105" lon="7.68473">
        <ele>153</ele>
        <time>2020-08-08T13:08:13Z</time>
      </trkpt>
      <trkpt lat="48.72109" lon="7.68468">
        <ele>153</ele>
        <time>2020-08-08T13:08:14Z</time>
      </trkpt>
      <trkpt lat="48.72112" lon="7.68463">
        <ele>152</ele>
        <time>2020-08-08T13:08:15Z</time>
      </trkpt>
      <trkpt lat="48.72117" lon="7.68458">
        <ele>152</ele>
        <time>2020-08-08T13:08:16Z</time>
      </trkpt>
      <trkpt lat="48.7212" lon="7.68453">
        <ele>152</ele>
        <time>2020-08-08T13:08:17Z</time>
      </trkpt>
      <trkpt lat="48.72124" lon="7.68448">
        <ele>152</ele>
        <time>2020-08-08T13:08:18Z</time>
      </trkpt>
      <trkpt lat="48.72128" lon="7.68444">
        <ele>153</ele>
        <time>2020-08-08T13:08:19Z</time>
      </trkpt>
      <trkpt lat="48.72132" lon="7.68439">
        <ele>153</ele>
        <time>2020-08-08T13:08:20Z</time>
      </trkpt>
      <trkpt lat="48.72136" lon="7.68435">
        <ele>153</ele>
        <time>2020-08-08T13:08:21Z</time>
      </trkpt>
      <trkpt lat="48.72139" lon="7.6843">
        <ele>152</ele>
        <time>2020-08-08T13:08:22Z</time>
      </trkpt>
      <trkpt lat="48.72142" lon="7.68425">
        <ele>151</ele>
        <time>2020-08-08T13:08:23Z</time>
      </trkpt>
      <trkpt lat="48.72146" lon="7.6842">
        <ele>152</ele>
        <time>2020-08-08T13:08:24Z</time>
      </trkpt>
      <trkpt lat="48.72149" lon="7.68414">
        <ele>151</ele>
        <time>2020-08-08T13:08:25Z</time>
      </trkpt>
      <trkpt lat="48.72153" lon="7.68409">
        <ele>151</ele>
        <time>2020-08-08T13:08:26Z</time>
      </trkpt>
      <trkpt lat="48.72157" lon="7.68403">
        <ele>152</ele>
        <time>2020-08-08T13:08:27Z</time>
      </trkpt>
      <trkpt lat="48.7216" lon="7.68395">
        <ele>149</ele>
        <time>2020-08-08T13:08:28Z</time>
      </trkpt>
      <trkpt lat="48.72163" lon="7.68389">
        <ele>148</ele>
        <time>2020-08-08T13:08:29Z</time>
      </trkpt>
      <trkpt lat="48.72167" lon="7.68384">
        <ele>149</ele>
        <time>2020-08-08T13:08:30Z</time>
      </trkpt>
      <trkpt lat="48.7217" lon="7.68379">
        <ele>149</ele>
        <time>2020-08-08T13:08:31Z</time>
      </trkpt>
      <trkpt lat="48.72174" lon="7.68374">
        <ele>150</ele>
        <time>2020-08-08T13:08:32Z</time>
      </trkpt>
      <trkpt lat="48.72181" lon="7.68365">
        <ele>150</ele>
        <time>2020-08-08T13:08:34Z</time>
      </trkpt>
      <trkpt lat="48.72184" lon="7.68359">
        <ele>150</ele>
        <time>2020-08-08T13:08:35Z</time>
      </trkpt>
      <trkpt lat="48.72189" lon="7.6835">
        <ele>148</ele>
        <time>2020-08-08T13:08:37Z</time>
      </trkpt>
      <trkpt lat="48.72193" lon="7.68344">
        <ele>149</ele>
        <time>2020-08-08T13:08:38Z</time>
      </trkpt>
      <trkpt lat="48.72199" lon="7.68335">
        <ele>148</ele>
        <time>2020-08-08T13:08:40Z</time>
      </trkpt>
      <trkpt lat="48.72202" lon="7.68329">
        <ele>147</ele>
        <time>2020-08-08T13:08:41Z</time>
      </trkpt>
      <trkpt lat="48.72205" lon="7.68323">
        <ele>146</ele>
        <time>2020-08-08T13:08:42Z</time>
      </trkpt>
      <trkpt lat="48.72208" lon="7.68318">
        <ele>146</ele>
        <time>2020-08-08T13:08:43Z</time>
      </trkpt>
      <trkpt lat="48.72212" lon="7.68312">
        <ele>146</ele>
        <time>2020-08-08T13:08:44Z</time>
      </trkpt>
      <trkpt lat="48.72215" lon="7.68307">
        <ele>147</ele>
        <time>2020-08-08T13:08:45Z</time>
      </trkpt>
      <trkpt lat="48.72218" lon="7.68302">
        <ele>147</ele>
        <time>2020-08-08T13:08:46Z</time>
      </trkpt>
      <trkpt lat="48.72222" lon="7.68296">
        <ele>148</ele>
        <time>2020-08-08T13:08:47Z</time>
      </trkpt>
      <trkpt lat="48.72228" lon="7.68285">
        <ele>149</ele>
        <time>2020-08-08T13:08:49Z</time>
      </trkpt>
      <trkpt lat="48.72231" lon="7.6828">
        <ele>149</ele>
        <time>2020-08-08T13:08:50Z</time>
      </trkpt>
      <trkpt lat="48.72234" lon="7.68275">
        <ele>149</ele>
        <time>2020-08-08T13:08:51Z</time>
      </trkpt>
      <trkpt lat="48.72237" lon="7.68269">
        <ele>149</ele>
        <time>2020-08-08T13:08:52Z</time>
      </trkpt>
      <trkpt lat="48.72242" lon="7.68258">
        <ele>149</ele>
        <time>2020-08-08T13:08:54Z</time>
      </trkpt>
      <trkpt lat="48.72245" lon="7.68252">
        <ele>149</ele>
        <time>2020-08-08T13:08:55Z</time>
      </trkpt>
      <trkpt lat="48.72248" lon="7.68246">
        <ele>149</ele>
        <time>2020-08-08T13:08:56Z</time>
      </trkpt>
      <trkpt lat="48.72251" lon="7.6824">
        <ele>150</ele>
        <time>2020-08-08T13:08:57Z</time>
      </trkpt>
      <trkpt lat="48.72254" lon="7.68234">
        <ele>149</ele>
        <time>2020-08-08T13:08:58Z</time>
      </trkpt>
      <trkpt lat="48.72257" lon="7.68229">
        <ele>148</ele>
        <time>2020-08-08T13:08:59Z</time>
      </trkpt>
      <trkpt lat="48.7226" lon="7.68223">
        <ele>150</ele>
        <time>2020-08-08T13:09:00Z</time>
      </trkpt>
      <trkpt lat="48.72263" lon="7.68217">
        <ele>150</ele>
        <time>2020-08-08T13:09:01Z</time>
      </trkpt>
      <trkpt lat="48.72265" lon="7.68211">
        <ele>149</ele>
        <time>2020-08-08T13:09:02Z</time>
      </trkpt>
      <trkpt lat="48.72268" lon="7.68206">
        <ele>149</ele>
        <time>2020-08-08T13:09:03Z</time>
      </trkpt>
      <trkpt lat="48.72271" lon="7.682">
        <ele>149</ele>
        <time>2020-08-08T13:09:04Z</time>
      </trkpt>
      <trkpt lat="48.72279" lon="7.68183">
        <ele>149</ele>
        <time>2020-08-08T13:09:07Z</time>
      </trkpt>
      <trkpt lat="48.72282" lon="7.68178">
        <ele>149</ele>
        <time>2020-08-08T13:09:08Z</time>
      </trkpt>
      <trkpt lat="48.72286" lon="7.68172">
        <ele>149</ele>
        <time>2020-08-08T13:09:09Z</time>
      </trkpt>
      <trkpt lat="48.72288" lon="7.68166">
        <ele>149</ele>
        <time>2020-08-08T13:09:10Z</time>
      </trkpt>
      <trkpt lat="48.72293" lon="7.68155">
        <ele>148</ele>
        <time>2020-08-08T13:09:12Z</time>
      </trkpt>
      <trkpt lat="48.72298" lon="7.68144">
        <ele>149</ele>
        <time>2020-08-08T13:09:14Z</time>
      </trkpt>
      <trkpt lat="48.723" lon="7.68138">
        <ele>148</ele>
        <time>2020-08-08T13:09:15Z</time>
      </trkpt>
      <trkpt lat="48.72306" lon="7.68128">
        <ele>149</ele>
        <time>2020-08-08T13:09:17Z</time>
      </trkpt>
      <trkpt lat="48.72308" lon="7.68121">
        <ele>148</ele>
        <time>2020-08-08T13:09:18Z</time>
      </trkpt>
      <trkpt lat="48.72311" lon="7.68114">
        <ele>148</ele>
        <time>2020-08-08T13:09:19Z</time>
      </trkpt>
      <trkpt lat="48.72314" lon="7.68108">
        <ele>148</ele>
        <time>2020-08-08T13:09:20Z</time>
      </trkpt>
      <trkpt lat="48.72316" lon="7.68102">
        <ele>147</ele>
        <time>2020-08-08T13:09:21Z</time>
      </trkpt>
      <trkpt lat="48.72322" lon="7.68091">
        <ele>148</ele>
        <time>2020-08-08T13:09:23Z</time>
      </trkpt>
      <trkpt lat="48.72325" lon="7.68086">
        <ele>147</ele>
        <time>2020-08-08T13:09:24Z</time>
      </trkpt>
      <trkpt lat="48.72328" lon="7.6808">
        <ele>148</ele>
        <time>2020-08-08T13:09:25Z</time>
      </trkpt>
      <trkpt lat="48.72331" lon="7.68074">
        <ele>148</ele>
        <time>2020-08-08T13:09:26Z</time>
      </trkpt>
      <trkpt lat="48.72334" lon="7.68068">
        <ele>148</ele>
        <time>2020-08-08T13:09:27Z</time>
      </trkpt>
      <trkpt lat="48.72337" lon="7.68062">
        <ele>149</ele>
        <time>2020-08-08T13:09:28Z</time>
      </trkpt>
      <trkpt lat="48.72339" lon="7.68056">
        <ele>148</ele>
        <time>2020-08-08T13:09:29Z</time>
      </trkpt>
      <trkpt lat="48.72345" lon="7.68044">
        <ele>149</ele>
        <time>2020-08-08T13:09:31Z</time>
      </trkpt>
      <trkpt lat="48.72347" lon="7.68039">
        <ele>148</ele>
        <time>2020-08-08T13:09:32Z</time>
      </trkpt>
      <trkpt lat="48.7235" lon="7.68033">
        <ele>148</ele>
        <time>2020-08-08T13:09:33Z</time>
      </trkpt>
      <trkpt lat="48.72355" lon="7.68023">
        <ele>149</ele>
        <time>2020-08-08T13:09:35Z</time>
      </trkpt>
      <trkpt lat="48.72358" lon="7.68017">
        <ele>149</ele>
        <time>2020-08-08T13:09:36Z</time>
      </trkpt>
      <trkpt lat="48.72361" lon="7.68012">
        <ele>149</ele>
        <time>2020-08-08T13:09:37Z</time>
      </trkpt>
      <trkpt lat="48.72364" lon="7.68006">
        <ele>149</ele>
        <time>2020-08-08T13:09:38Z</time>
      </trkpt>
      <trkpt lat="48.72369" lon="7.67995">
        <ele>148</ele>
        <time>2020-08-08T13:09:40Z</time>
      </trkpt>
      <trkpt lat="48.72372" lon="7.67989">
        <ele>149</ele>
        <time>2020-08-08T13:09:41Z</time>
      </trkpt>
      <trkpt lat="48.72377" lon="7.67979">
        <ele>149</ele>
        <time>2020-08-08T13:09:43Z</time>
      </trkpt>
      <trkpt lat="48.72382" lon="7.67968">
        <ele>149</ele>
        <time>2020-08-08T13:09:45Z</time>
      </trkpt>
      <trkpt lat="48.72388" lon="7.67957">
        <ele>149</ele>
        <time>2020-08-08T13:09:47Z</time>
      </trkpt>
      <trkpt lat="48.72396" lon="7.67941">
        <ele>149</ele>
        <time>2020-08-08T13:09:50Z</time>
      </trkpt>
      <trkpt lat="48.72398" lon="7.67935">
        <ele>149</ele>
        <time>2020-08-08T13:09:51Z</time>
      </trkpt>
      <trkpt lat="48.72403" lon="7.67924">
        <ele>149</ele>
        <time>2020-08-08T13:09:53Z</time>
      </trkpt>
      <trkpt lat="48.72406" lon="7.67918">
        <ele>149</ele>
        <time>2020-08-08T13:09:54Z</time>
      </trkpt>
      <trkpt lat="48.7241" lon="7.67912">
        <ele>149</ele>
        <time>2020-08-08T13:09:55Z</time>
      </trkpt>
      <trkpt lat="48.72412" lon="7.67906">
        <ele>149</ele>
        <time>2020-08-08T13:09:56Z</time>
      </trkpt>
      <trkpt lat="48.72418" lon="7.67895">
        <ele>149</ele>
        <time>2020-08-08T13:09:58Z</time>
      </trkpt>
      <trkpt lat="48.72424" lon="7.67884">
        <ele>150</ele>
        <time>2020-08-08T13:10:00Z</time>
      </trkpt>
      <trkpt lat="48.72426" lon="7.67878">
        <ele>149</ele>
        <time>2020-08-08T13:10:01Z</time>
      </trkpt>
      <trkpt lat="48.72428" lon="7.67872">
        <ele>149</ele>
        <time>2020-08-08T13:10:02Z</time>
      </trkpt>
      <trkpt lat="48.72431" lon="7.67866">
        <ele>149</ele>
        <time>2020-08-08T13:10:03Z</time>
      </trkpt>
      <trkpt lat="48.72434" lon="7.6786">
        <ele>149</ele>
        <time>2020-08-08T13:10:04Z</time>
      </trkpt>
      <trkpt lat="48.72437" lon="7.67854">
        <ele>149</ele>
        <time>2020-08-08T13:10:05Z</time>
      </trkpt>
      <trkpt lat="48.7244" lon="7.67848">
        <ele>149</ele>
        <time>2020-08-08T13:10:06Z</time>
      </trkpt>
      <trkpt lat="48.72443" lon="7.67843">
        <ele>149</ele>
        <time>2020-08-08T13:10:07Z</time>
      </trkpt>
      <trkpt lat="48.72446" lon="7.67837">
        <ele>149</ele>
        <time>2020-08-08T13:10:08Z</time>
      </trkpt>
      <trkpt lat="48.72448" lon="7.67831">
        <ele>149</ele>
        <time>2020-08-08T13:10:09Z</time>
      </trkpt>
      <trkpt lat="48.7245" lon="7.67824">
        <ele>149</ele>
        <time>2020-08-08T13:10:10Z</time>
      </trkpt>
      <trkpt lat="48.72456" lon="7.67814">
        <ele>149</ele>
        <time>2020-08-08T13:10:12Z</time>
      </trkpt>
      <trkpt lat="48.72459" lon="7.67808">
        <ele>149</ele>
        <time>2020-08-08T13:10:13Z</time>
      </trkpt>
      <trkpt lat="48.72465" lon="7.67797">
        <ele>149</ele>
        <time>2020-08-08T13:10:15Z</time>
      </trkpt>
      <trkpt lat="48.72468" lon="7.67791">
        <ele>149</ele>
        <time>2020-08-08T13:10:16Z</time>
      </trkpt>
      <trkpt lat="48.72471" lon="7.67785">
        <ele>149</ele>
        <time>2020-08-08T13:10:17Z</time>
      </trkpt>
      <trkpt lat="48.72473" lon="7.6778">
        <ele>149</ele>
        <time>2020-08-08T13:10:18Z</time>
      </trkpt>
      <trkpt lat="48.72476" lon="7.67774">
        <ele>149</ele>
        <time>2020-08-08T13:10:19Z</time>
      </trkpt>
      <trkpt lat="48.72479" lon="7.67767">
        <ele>149</ele>
        <time>2020-08-08T13:10:20Z</time>
      </trkpt>
      <trkpt lat="48.72482" lon="7.67762">
        <ele>149</ele>
        <time>2020-08-08T13:10:21Z</time>
      </trkpt>
      <trkpt lat="48.72485" lon="7.67756">
        <ele>150</ele>
        <time>2020-08-08T13:10:22Z</time>
      </trkpt>
      <trkpt lat="48.72491" lon="7.67744">
        <ele>150</ele>
        <time>2020-08-08T13:10:24Z</time>
      </trkpt>
      <trkpt lat="48.72496" lon="7.67734">
        <ele>150</ele>
        <time>2020-08-08T13:10:26Z</time>
      </trkpt>
      <trkpt lat="48.72499" lon="7.67728">
        <ele>150</ele>
        <time>2020-08-08T13:10:27Z</time>
      </trkpt>
      <trkpt lat="48.72502" lon="7.67722">
        <ele>150</ele>
        <time>2020-08-08T13:10:28Z</time>
      </trkpt>
      <trkpt lat="48.72505" lon="7.67716">
        <ele>150</ele>
        <time>2020-08-08T13:10:29Z</time>
      </trkpt>
      <trkpt lat="48.72508" lon="7.6771">
        <ele>149</ele>
        <time>2020-08-08T13:10:30Z</time>
      </trkpt>
      <trkpt lat="48.72511" lon="7.67704">
        <ele>149</ele>
        <time>2020-08-08T13:10:31Z</time>
      </trkpt>
      <trkpt lat="48.72514" lon="7.67698">
        <ele>149</ele>
        <time>2020-08-08T13:10:32Z</time>
      </trkpt>
      <trkpt lat="48.72517" lon="7.67691">
        <ele>149</ele>
        <time>2020-08-08T13:10:33Z</time>
      </trkpt>
      <trkpt lat="48.7252" lon="7.67685">
        <ele>149</ele>
        <time>2020-08-08T13:10:34Z</time>
      </trkpt>
      <trkpt lat="48.72523" lon="7.67678">
        <ele>149</ele>
        <time>2020-08-08T13:10:35Z</time>
      </trkpt>
      <trkpt lat="48.72526" lon="7.67673">
        <ele>149</ele>
        <time>2020-08-08T13:10:36Z</time>
      </trkpt>
      <trkpt lat="48.7253" lon="7.67667">
        <ele>150</ele>
        <time>2020-08-08T13:10:37Z</time>
      </trkpt>
      <trkpt lat="48.72533" lon="7.67661">
        <ele>150</ele>
        <time>2020-08-08T13:10:38Z</time>
      </trkpt>
      <trkpt lat="48.72536" lon="7.67655">
        <ele>150</ele>
        <time>2020-08-08T13:10:39Z</time>
      </trkpt>
      <trkpt lat="48.72538" lon="7.67649">
        <ele>150</ele>
        <time>2020-08-08T13:10:40Z</time>
      </trkpt>
      <trkpt lat="48.72541" lon="7.67643">
        <ele>149</ele>
        <time>2020-08-08T13:10:41Z</time>
      </trkpt>
      <trkpt lat="48.72544" lon="7.67636">
        <ele>149</ele>
        <time>2020-08-08T13:10:42Z</time>
      </trkpt>
      <trkpt lat="48.72547" lon="7.67631">
        <ele>150</ele>
        <time>2020-08-08T13:10:43Z</time>
      </trkpt>
      <trkpt lat="48.7255" lon="7.67624">
        <ele>149</ele>
        <time>2020-08-08T13:10:44Z</time>
      </trkpt>
      <trkpt lat="48.72553" lon="7.67618">
        <ele>149</ele>
        <time>2020-08-08T13:10:45Z</time>
      </trkpt>
      <trkpt lat="48.72555" lon="7.67612">
        <ele>149</ele>
        <time>2020-08-08T13:10:46Z</time>
      </trkpt>
      <trkpt lat="48.72557" lon="7.67605">
        <ele>148</ele>
        <time>2020-08-08T13:10:47Z</time>
      </trkpt>
      <trkpt lat="48.72561" lon="7.676">
        <ele>149</ele>
        <time>2020-08-08T13:10:48Z</time>
      </trkpt>
      <trkpt lat="48.72563" lon="7.67593">
        <ele>148</ele>
        <time>2020-08-08T13:10:49Z</time>
      </trkpt>
      <trkpt lat="48.72566" lon="7.67586">
        <ele>148</ele>
        <time>2020-08-08T13:10:50Z</time>
      </trkpt>
      <trkpt lat="48.72571" lon="7.67576">
        <ele>148</ele>
        <time>2020-08-08T13:10:52Z</time>
      </trkpt>
      <trkpt lat="48.72574" lon="7.6757">
        <ele>148</ele>
        <time>2020-08-08T13:10:53Z</time>
      </trkpt>
      <trkpt lat="48.72577" lon="7.67564">
        <ele>148</ele>
        <time>2020-08-08T13:10:54Z</time>
      </trkpt>
      <trkpt lat="48.7258" lon="7.67558">
        <ele>148</ele>
        <time>2020-08-08T13:10:55Z</time>
      </trkpt>
      <trkpt lat="48.72583" lon="7.67552">
        <ele>148</ele>
        <time>2020-08-08T13:10:56Z</time>
      </trkpt>
      <trkpt lat="48.72586" lon="7.67546">
        <ele>148</ele>
        <time>2020-08-08T13:10:57Z</time>
      </trkpt>
      <trkpt lat="48.72589" lon="7.6754">
        <ele>148</ele>
        <time>2020-08-08T13:10:58Z</time>
      </trkpt>
      <trkpt lat="48.72592" lon="7.67534">
        <ele>148</ele>
        <time>2020-08-08T13:10:59Z</time>
      </trkpt>
      <trkpt lat="48.72595" lon="7.67528">
        <ele>148</ele>
        <time>2020-08-08T13:11:00Z</time>
      </trkpt>
      <trkpt lat="48.72598" lon="7.67523">
        <ele>148</ele>
        <time>2020-08-08T13:11:01Z</time>
      </trkpt>
      <trkpt lat="48.72601" lon="7.67517">
        <ele>148</ele>
        <time>2020-08-08T13:11:02Z</time>
      </trkpt>
      <trkpt lat="48.72604" lon="7.67511">
        <ele>148</ele>
        <time>2020-08-08T13:11:03Z</time>
      </trkpt>
      <trkpt lat="48.72607" lon="7.67506">
        <ele>148</ele>
        <time>2020-08-08T13:11:04Z</time>
      </trkpt>
      <trkpt lat="48.72609" lon="7.67499">
        <ele>147</ele>
        <time>2020-08-08T13:11:05Z</time>
      </trkpt>
      <trkpt lat="48.72615" lon="7.67488">
        <ele>148</ele>
        <time>2020-08-08T13:11:07Z</time>
      </trkpt>
      <trkpt lat="48.72617" lon="7.67482">
        <ele>147</ele>
        <time>2020-08-08T13:11:08Z</time>
      </trkpt>
      <trkpt lat="48.7262" lon="7.67476">
        <ele>147</ele>
        <time>2020-08-08T13:11:09Z</time>
      </trkpt>
      <trkpt lat="48.72623" lon="7.67469">
        <ele>147</ele>
        <time>2020-08-08T13:11:10Z</time>
      </trkpt>
      <trkpt lat="48.72627" lon="7.67465">
        <ele>147</ele>
        <time>2020-08-08T13:11:11Z</time>
      </trkpt>
      <trkpt lat="48.7263" lon="7.67459">
        <ele>147</ele>
        <time>2020-08-08T13:11:12Z</time>
      </trkpt>
      <trkpt lat="48.72633" lon="7.67452">
        <ele>147</ele>
        <time>2020-08-08T13:11:13Z</time>
      </trkpt>
      <trkpt lat="48.72636" lon="7.67446">
        <ele>147</ele>
        <time>2020-08-08T13:11:14Z</time>
      </trkpt>
      <trkpt lat="48.72638" lon="7.67439">
        <ele>147</ele>
        <time>2020-08-08T13:11:15Z</time>
      </trkpt>
      <trkpt lat="48.72641" lon="7.67434">
        <ele>147</ele>
        <time>2020-08-08T13:11:16Z</time>
      </trkpt>
      <trkpt lat="48.72644" lon="7.67427">
        <ele>147</ele>
        <time>2020-08-08T13:11:17Z</time>
      </trkpt>
      <trkpt lat="48.72647" lon="7.6742">
        <ele>146</ele>
        <time>2020-08-08T13:11:18Z</time>
      </trkpt>
      <trkpt lat="48.7265" lon="7.67414">
        <ele>146</ele>
        <time>2020-08-08T13:11:19Z</time>
      </trkpt>
      <trkpt lat="48.72654" lon="7.67407">
        <ele>146</ele>
        <time>2020-08-08T13:11:20Z</time>
      </trkpt>
      <trkpt lat="48.72657" lon="7.674">
        <ele>146</ele>
        <time>2020-08-08T13:11:21Z</time>
      </trkpt>
      <trkpt lat="48.7266" lon="7.67395">
        <ele>146</ele>
        <time>2020-08-08T13:11:22Z</time>
      </trkpt>
      <trkpt lat="48.72663" lon="7.67388">
        <ele>146</ele>
        <time>2020-08-08T13:11:23Z</time>
      </trkpt>
      <trkpt lat="48.72666" lon="7.67382">
        <ele>146</ele>
        <time>2020-08-08T13:11:24Z</time>
      </trkpt>
      <trkpt lat="48.7267" lon="7.67376">
        <ele>146</ele>
        <time>2020-08-08T13:11:25Z</time>
      </trkpt>
      <trkpt lat="48.72673" lon="7.6737">
        <ele>146</ele>
        <time>2020-08-08T13:11:26Z</time>
      </trkpt>
      <trkpt lat="48.72675" lon="7.67364">
        <ele>146</ele>
        <time>2020-08-08T13:11:27Z</time>
      </trkpt>
      <trkpt lat="48.72678" lon="7.67357">
        <ele>146</ele>
        <time>2020-08-08T13:11:28Z</time>
      </trkpt>
      <trkpt lat="48.72681" lon="7.67352">
        <ele>146</ele>
        <time>2020-08-08T13:11:29Z</time>
      </trkpt>
      <trkpt lat="48.72684" lon="7.67346">
        <ele>146</ele>
        <time>2020-08-08T13:11:30Z</time>
      </trkpt>
      <trkpt lat="48.72687" lon="7.67339">
        <ele>146</ele>
        <time>2020-08-08T13:11:31Z</time>
      </trkpt>
      <trkpt lat="48.7269" lon="7.67333">
        <ele>146</ele>
        <time>2020-08-08T13:11:32Z</time>
      </trkpt>
      <trkpt lat="48.72693" lon="7.67326">
        <ele>146</ele>
        <time>2020-08-08T13:11:33Z</time>
      </trkpt>
      <trkpt lat="48.72696" lon="7.6732">
        <ele>146</ele>
        <time>2020-08-08T13:11:34Z</time>
      </trkpt>
      <trkpt lat="48.72699" lon="7.67314">
        <ele>146</ele>
        <time>2020-08-08T13:11:35Z</time>
      </trkpt>
      <trkpt lat="48.72703" lon="7.67308">
        <ele>146</ele>
        <time>2020-08-08T13:11:36Z</time>
      </trkpt>
      <trkpt lat="48.72706" lon="7.67301">
        <ele>146</ele>
        <time>2020-08-08T13:11:37Z</time>
      </trkpt>
      <trkpt lat="48.72709" lon="7.67295">
        <ele>146</ele>
        <time>2020-08-08T13:11:38Z</time>
      </trkpt>
      <trkpt lat="48.72712" lon="7.67289">
        <ele>146</ele>
        <time>2020-08-08T13:11:39Z</time>
      </trkpt>
      <trkpt lat="48.72715" lon="7.67283">
        <ele>146</ele>
        <time>2020-08-08T13:11:40Z</time>
      </trkpt>
      <trkpt lat="48.72718" lon="7.67277">
        <ele>145</ele>
        <time>2020-08-08T13:11:41Z</time>
      </trkpt>
      <trkpt lat="48.72721" lon="7.67271">
        <ele>145</ele>
        <time>2020-08-08T13:11:42Z</time>
      </trkpt>
      <trkpt lat="48.72724" lon="7.67265">
        <ele>146</ele>
        <time>2020-08-08T13:11:43Z</time>
      </trkpt>
      <trkpt lat="48.72727" lon="7.67258">
        <ele>146</ele>
        <time>2020-08-08T13:11:44Z</time>
      </trkpt>
      <trkpt lat="48.7273" lon="7.67251">
        <ele>145</ele>
        <time>2020-08-08T13:11:45Z</time>
      </trkpt>
      <trkpt lat="48.72733" lon="7.67245">
        <ele>145</ele>
        <time>2020-08-08T13:11:46Z</time>
      </trkpt>
      <trkpt lat="48.72737" lon="7.67238">
        <ele>145</ele>
        <time>2020-08-08T13:11:47Z</time>
      </trkpt>
      <trkpt lat="48.7274" lon="7.67232">
        <ele>145</ele>
        <time>2020-08-08T13:11:48Z</time>
      </trkpt>
      <trkpt lat="48.72743" lon="7.67226">
        <ele>145</ele>
        <time>2020-08-08T13:11:49Z</time>
      </trkpt>
      <trkpt lat="48.72746" lon="7.6722">
        <ele>145</ele>
        <time>2020-08-08T13:11:50Z</time>
      </trkpt>
      <trkpt lat="48.72749" lon="7.67213">
        <ele>145</ele>
        <time>2020-08-08T13:11:51Z</time>
      </trkpt>
      <trkpt lat="48.72752" lon="7.67207">
        <ele>145</ele>
        <time>2020-08-08T13:11:52Z</time>
      </trkpt>
      <trkpt lat="48.72755" lon="7.672">
        <ele>145</ele>
        <time>2020-08-08T13:11:53Z</time>
      </trkpt>
      <trkpt lat="48.72758" lon="7.67194">
        <ele>145</ele>
        <time>2020-08-08T13:11:54Z</time>
      </trkpt>
      <trkpt lat="48.72764" lon="7.67182">
        <ele>145</ele>
        <time>2020-08-08T13:11:56Z</time>
      </trkpt>
      <trkpt lat="48.72767" lon="7.67176">
        <ele>145</ele>
        <time>2020-08-08T13:11:57Z</time>
      </trkpt>
      <trkpt lat="48.7277" lon="7.6717">
        <ele>145</ele>
        <time>2020-08-08T13:11:58Z</time>
      </trkpt>
      <trkpt lat="48.72773" lon="7.67164">
        <ele>145</ele>
        <time>2020-08-08T13:11:59Z</time>
      </trkpt>
      <trkpt lat="48.72776" lon="7.67158">
        <ele>145</ele>
        <time>2020-08-08T13:12:00Z</time>
      </trkpt>
      <trkpt lat="48.7278" lon="7.6715">
        <ele>145</ele>
        <time>2020-08-08T13:12:01Z</time>
      </trkpt>
      <trkpt lat="48.72783" lon="7.67144">
        <ele>145</ele>
        <time>2020-08-08T13:12:02Z</time>
      </trkpt>
      <trkpt lat="48.72788" lon="7.67132">
        <ele>145</ele>
        <time>2020-08-08T13:12:04Z</time>
      </trkpt>
      <trkpt lat="48.72792" lon="7.67127">
        <ele>145</ele>
        <time>2020-08-08T13:12:05Z</time>
      </trkpt>
      <trkpt lat="48.72796" lon="7.67121">
        <ele>145</ele>
        <time>2020-08-08T13:12:06Z</time>
      </trkpt>
      <trkpt lat="48.72799" lon="7.67116">
        <ele>145</ele>
        <time>2020-08-08T13:12:07Z</time>
      </trkpt>
      <trkpt lat="48.72802" lon="7.6711">
        <ele>145</ele>
        <time>2020-08-08T13:12:08Z</time>
      </trkpt>
      <trkpt lat="48.72805" lon="7.67103">
        <ele>145</ele>
        <time>2020-08-08T13:12:09Z</time>
      </trkpt>
      <trkpt lat="48.72808" lon="7.67098">
        <ele>145</ele>
        <time>2020-08-08T13:12:10Z</time>
      </trkpt>
      <trkpt lat="48.7281" lon="7.67092">
        <ele>145</ele>
        <time>2020-08-08T13:12:11Z</time>
      </trkpt>
      <trkpt lat="48.72814" lon="7.67086">
        <ele>145</ele>
        <time>2020-08-08T13:12:12Z</time>
      </trkpt>
      <trkpt lat="48.72817" lon="7.67079">
        <ele>145</ele>
        <time>2020-08-08T13:12:13Z</time>
      </trkpt>
      <trkpt lat="48.72819" lon="7.67073">
        <ele>145</ele>
        <time>2020-08-08T13:12:14Z</time>
      </trkpt>
      <trkpt lat="48.72822" lon="7.67067">
        <ele>145</ele>
        <time>2020-08-08T13:12:15Z</time>
      </trkpt>
      <trkpt lat="48.72825" lon="7.6706">
        <ele>145</ele>
        <time>2020-08-08T13:12:16Z</time>
      </trkpt>
      <trkpt lat="48.7283" lon="7.67048">
        <ele>145</ele>
        <time>2020-08-08T13:12:18Z</time>
      </trkpt>
      <trkpt lat="48.72833" lon="7.67042">
        <ele>145</ele>
        <time>2020-08-08T13:12:19Z</time>
      </trkpt>
      <trkpt lat="48.72836" lon="7.67036">
        <ele>145</ele>
        <time>2020-08-08T13:12:20Z</time>
      </trkpt>
      <trkpt lat="48.72839" lon="7.6703">
        <ele>145</ele>
        <time>2020-08-08T13:12:21Z</time>
      </trkpt>
      <trkpt lat="48.72842" lon="7.67024">
        <ele>145</ele>
        <time>2020-08-08T13:12:22Z</time>
      </trkpt>
      <trkpt lat="48.72847" lon="7.67012">
        <ele>146</ele>
        <time>2020-08-08T13:12:24Z</time>
      </trkpt>
      <trkpt lat="48.7285" lon="7.67005">
        <ele>146</ele>
        <time>2020-08-08T13:12:25Z</time>
      </trkpt>
      <trkpt lat="48.72855" lon="7.66993">
        <ele>146</ele>
        <time>2020-08-08T13:12:27Z</time>
      </trkpt>
      <trkpt lat="48.7286" lon="7.66983">
        <ele>146</ele>
        <time>2020-08-08T13:12:29Z</time>
      </trkpt>
      <trkpt lat="48.72863" lon="7.66976">
        <ele>146</ele>
        <time>2020-08-08T13:12:30Z</time>
      </trkpt>
      <trkpt lat="48.72867" lon="7.6697">
        <ele>146</ele>
        <time>2020-08-08T13:12:31Z</time>
      </trkpt>
      <trkpt lat="48.7287" lon="7.66963">
        <ele>146</ele>
        <time>2020-08-08T13:12:32Z</time>
      </trkpt>
      <trkpt lat="48.72873" lon="7.66957">
        <ele>146</ele>
        <time>2020-08-08T13:12:33Z</time>
      </trkpt>
      <trkpt lat="48.72876" lon="7.66951">
        <ele>146</ele>
        <time>2020-08-08T13:12:34Z</time>
      </trkpt>
      <trkpt lat="48.72879" lon="7.66944">
        <ele>146</ele>
        <time>2020-08-08T13:12:35Z</time>
      </trkpt>
      <trkpt lat="48.72882" lon="7.66938">
        <ele>146</ele>
        <time>2020-08-08T13:12:36Z</time>
      </trkpt>
      <trkpt lat="48.72885" lon="7.66931">
        <ele>146</ele>
        <time>2020-08-08T13:12:37Z</time>
      </trkpt>
      <trkpt lat="48.72888" lon="7.66924">
        <ele>146</ele>
        <time>2020-08-08T13:12:38Z</time>
      </trkpt>
      <trkpt lat="48.72891" lon="7.66919">
        <ele>146</ele>
        <time>2020-08-08T13:12:39Z</time>
      </trkpt>
      <trkpt lat="48.72894" lon="7.66912">
        <ele>146</ele>
        <time>2020-08-08T13:12:40Z</time>
      </trkpt>
      <trkpt lat="48.72897" lon="7.66906">
        <ele>146</ele>
        <time>2020-08-08T13:12:41Z</time>
      </trkpt>
      <trkpt lat="48.72902" lon="7.66899">
        <ele>147</ele>
        <time>2020-08-08T13:12:42Z</time>
      </trkpt>
      <trkpt lat="48.72905" lon="7.66894">
        <ele>147</ele>
        <time>2020-08-08T13:12:43Z</time>
      </trkpt>
      <trkpt lat="48.72908" lon="7.66888">
        <ele>147</ele>
        <time>2020-08-08T13:12:44Z</time>
      </trkpt>
      <trkpt lat="48.72912" lon="7.66877">
        <ele>146</ele>
        <time>2020-08-08T13:12:46Z</time>
      </trkpt>
      <trkpt lat="48.72915" lon="7.6687">
        <ele>146</ele>
        <time>2020-08-08T13:12:47Z</time>
      </trkpt>
      <trkpt lat="48.72918" lon="7.66864">
        <ele>146</ele>
        <time>2020-08-08T13:12:48Z</time>
      </trkpt>
      <trkpt lat="48.72921" lon="7.66859">
        <ele>146</ele>
        <time>2020-08-08T13:12:49Z</time>
      </trkpt>
      <trkpt lat="48.72924" lon="7.66853">
        <ele>146</ele>
        <time>2020-08-08T13:12:50Z</time>
      </trkpt>
      <trkpt lat="48.72927" lon="7.66846">
        <ele>146</ele>
        <time>2020-08-08T13:12:51Z</time>
      </trkpt>
      <trkpt lat="48.7293" lon="7.6684">
        <ele>146</ele>
        <time>2020-08-08T13:12:52Z</time>
      </trkpt>
      <trkpt lat="48.72934" lon="7.66834">
        <ele>146</ele>
        <time>2020-08-08T13:12:53Z</time>
      </trkpt>
      <trkpt lat="48.72937" lon="7.66828">
        <ele>146</ele>
        <time>2020-08-08T13:12:54Z</time>
      </trkpt>
      <trkpt lat="48.7294" lon="7.66822">
        <ele>146</ele>
        <time>2020-08-08T13:12:55Z</time>
      </trkpt>
      <trkpt lat="48.72945" lon="7.66811">
        <ele>146</ele>
        <time>2020-08-08T13:12:57Z</time>
      </trkpt>
      <trkpt lat="48.72948" lon="7.66805">
        <ele>146</ele>
        <time>2020-08-08T13:12:58Z</time>
      </trkpt>
      <trkpt lat="48.7295" lon="7.66798">
        <ele>146</ele>
        <time>2020-08-08T13:12:59Z</time>
      </trkpt>
      <trkpt lat="48.72953" lon="7.66792">
        <ele>146</ele>
        <time>2020-08-08T13:13:00Z</time>
      </trkpt>
      <trkpt lat="48.72957" lon="7.66786">
        <ele>146</ele>
        <time>2020-08-08T13:13:01Z</time>
      </trkpt>
      <trkpt lat="48.7296" lon="7.66779">
        <ele>146</ele>
        <time>2020-08-08T13:13:02Z</time>
      </trkpt>
      <trkpt lat="48.72962" lon="7.66773">
        <ele>146</ele>
        <time>2020-08-08T13:13:03Z</time>
      </trkpt>
      <trkpt lat="48.72966" lon="7.66767">
        <ele>146</ele>
        <time>2020-08-08T13:13:04Z</time>
      </trkpt>
      <trkpt lat="48.7297" lon="7.66761">
        <ele>146</ele>
        <time>2020-08-08T13:13:05Z</time>
      </trkpt>
      <trkpt lat="48.72972" lon="7.66755">
        <ele>146</ele>
        <time>2020-08-08T13:13:06Z</time>
      </trkpt>
      <trkpt lat="48.72975" lon="7.66749">
        <ele>146</ele>
        <time>2020-08-08T13:13:07Z</time>
      </trkpt>
      <trkpt lat="48.72977" lon="7.66743">
        <ele>146</ele>
        <time>2020-08-08T13:13:08Z</time>
      </trkpt>
      <trkpt lat="48.72981" lon="7.66738">
        <ele>146</ele>
        <time>2020-08-08T13:13:09Z</time>
      </trkpt>
      <trkpt lat="48.72983" lon="7.66732">
        <ele>146</ele>
        <time>2020-08-08T13:13:10Z</time>
      </trkpt>
      <trkpt lat="48.72986" lon="7.66726">
        <ele>146</ele>
        <time>2020-08-08T13:13:11Z</time>
      </trkpt>
      <trkpt lat="48.7299" lon="7.66715">
        <ele>146</ele>
        <time>2020-08-08T13:13:13Z</time>
      </trkpt>
      <trkpt lat="48.72993" lon="7.66709">
        <ele>146</ele>
        <time>2020-08-08T13:13:14Z</time>
      </trkpt>
      <trkpt lat="48.72997" lon="7.66703">
        <ele>146</ele>
        <time>2020-08-08T13:13:15Z</time>
      </trkpt>
      <trkpt lat="48.73002" lon="7.66691">
        <ele>146</ele>
        <time>2020-08-08T13:13:17Z</time>
      </trkpt>
      <trkpt lat="48.73004" lon="7.66685">
        <ele>146</ele>
        <time>2020-08-08T13:13:18Z</time>
      </trkpt>
      <trkpt lat="48.7301" lon="7.66674">
        <ele>146</ele>
        <time>2020-08-08T13:13:20Z</time>
      </trkpt>
      <trkpt lat="48.73012" lon="7.66668">
        <ele>146</ele>
        <time>2020-08-08T13:13:21Z</time>
      </trkpt>
      <trkpt lat="48.73015" lon="7.66662">
        <ele>146</ele>
        <time>2020-08-08T13:13:22Z</time>
      </trkpt>
      <trkpt lat="48.73018" lon="7.66656">
        <ele>146</ele>
        <time>2020-08-08T13:13:23Z</time>
      </trkpt>
      <trkpt lat="48.73021" lon="7.6665">
        <ele>146</ele>
        <time>2020-08-08T13:13:24Z</time>
      </trkpt>
      <trkpt lat="48.73024" lon="7.66644">
        <ele>146</ele>
        <time>2020-08-08T13:13:25Z</time>
      </trkpt>
      <trkpt lat="48.7303" lon="7.66632">
        <ele>146</ele>
        <time>2020-08-08T13:13:27Z</time>
      </trkpt>
      <trkpt lat="48.73035" lon="7.66621">
        <ele>146</ele>
        <time>2020-08-08T13:13:29Z</time>
      </trkpt>
      <trkpt lat="48.73037" lon="7.66615">
        <ele>146</ele>
        <time>2020-08-08T13:13:30Z</time>
      </trkpt>
      <trkpt lat="48.7304" lon="7.66609">
        <ele>146</ele>
        <time>2020-08-08T13:13:31Z</time>
      </trkpt>
      <trkpt lat="48.73043" lon="7.66603">
        <ele>146</ele>
        <time>2020-08-08T13:13:32Z</time>
      </trkpt>
      <trkpt lat="48.73046" lon="7.66596">
        <ele>146</ele>
        <time>2020-08-08T13:13:33Z</time>
      </trkpt>
      <trkpt lat="48.73048" lon="7.6659">
        <ele>146</ele>
        <time>2020-08-08T13:13:34Z</time>
      </trkpt>
      <trkpt lat="48.73055" lon="7.6658">
        <ele>146</ele>
        <time>2020-08-08T13:13:36Z</time>
      </trkpt>
      <trkpt lat="48.73058" lon="7.66574">
        <ele>146</ele>
        <time>2020-08-08T13:13:37Z</time>
      </trkpt>
      <trkpt lat="48.73061" lon="7.66569">
        <ele>146</ele>
        <time>2020-08-08T13:13:38Z</time>
      </trkpt>
      <trkpt lat="48.73063" lon="7.66563">
        <ele>146</ele>
        <time>2020-08-08T13:13:39Z</time>
      </trkpt>
      <trkpt lat="48.73066" lon="7.66557">
        <ele>146</ele>
        <time>2020-08-08T13:13:40Z</time>
      </trkpt>
      <trkpt lat="48.73072" lon="7.66545">
        <ele>146</ele>
        <time>2020-08-08T13:13:42Z</time>
      </trkpt>
      <trkpt lat="48.73075" lon="7.66539">
        <ele>146</ele>
        <time>2020-08-08T13:13:43Z</time>
      </trkpt>
      <trkpt lat="48.73077" lon="7.66533">
        <ele>146</ele>
        <time>2020-08-08T13:13:44Z</time>
      </trkpt>
      <trkpt lat="48.73082" lon="7.66522">
        <ele>146</ele>
        <time>2020-08-08T13:13:46Z</time>
      </trkpt>
      <trkpt lat="48.73087" lon="7.66513">
        <ele>146</ele>
        <time>2020-08-08T13:13:48Z</time>
      </trkpt>
      <trkpt lat="48.7309" lon="7.66507">
        <ele>146</ele>
        <time>2020-08-08T13:13:49Z</time>
      </trkpt>
      <trkpt lat="48.73093" lon="7.66501">
        <ele>146</ele>
        <time>2020-08-08T13:13:50Z</time>
      </trkpt>
      <trkpt lat="48.73095" lon="7.66495">
        <ele>147</ele>
        <time>2020-08-08T13:13:51Z</time>
      </trkpt>
      <trkpt lat="48.73098" lon="7.66489">
        <ele>147</ele>
        <time>2020-08-08T13:13:52Z</time>
      </trkpt>
      <trkpt lat="48.73103" lon="7.66479">
        <ele>147</ele>
        <time>2020-08-08T13:13:54Z</time>
      </trkpt>
      <trkpt lat="48.73108" lon="7.6647">
        <ele>147</ele>
        <time>2020-08-08T13:13:56Z</time>
      </trkpt>
      <trkpt lat="48.73113" lon="7.66461">
        <ele>147</ele>
        <time>2020-08-08T13:13:58Z</time>
      </trkpt>
      <trkpt lat="48.73117" lon="7.66454">
        <ele>148</ele>
        <time>2020-08-08T13:14:00Z</time>
      </trkpt>
      <trkpt lat="48.73121" lon="7.66448">
        <ele>148</ele>
        <time>2020-08-08T13:14:02Z</time>
      </trkpt>
      <trkpt lat="48.73125" lon="7.66443">
        <ele>149</ele>
        <time>2020-08-08T13:14:04Z</time>
      </trkpt>
      <trkpt lat="48.73128" lon="7.66437">
        <ele>149</ele>
        <time>2020-08-08T13:14:07Z</time>
      </trkpt>
      <trkpt lat="48.73126" lon="7.66429">
        <ele>148</ele>
        <time>2020-08-08T13:14:10Z</time>
      </trkpt>
      <trkpt lat="48.73122" lon="7.66424">
        <ele>148</ele>
        <time>2020-08-08T13:14:12Z</time>
      </trkpt>
      <trkpt lat="48.73117" lon="7.66418">
        <ele>147</ele>
        <time>2020-08-08T13:14:15Z</time>
      </trkpt>
      <trkpt lat="48.73113" lon="7.66416">
        <ele>148</ele>
        <time>2020-08-08T13:14:17Z</time>
      </trkpt>
      <trkpt lat="48.73108" lon="7.66411">
        <ele>148</ele>
        <time>2020-08-08T13:14:19Z</time>
      </trkpt>
      <trkpt lat="48.73106" lon="7.66401">
        <ele>148</ele>
        <time>2020-08-08T13:14:21Z</time>
      </trkpt>
      <trkpt lat="48.73109" lon="7.66394">
        <ele>148</ele>
        <time>2020-08-08T13:14:23Z</time>
      </trkpt>
      <trkpt lat="48.73114" lon="7.66386">
        <ele>148</ele>
        <time>2020-08-08T13:14:25Z</time>
      </trkpt>
      <trkpt lat="48.73119" lon="7.66379">
        <ele>149</ele>
        <time>2020-08-08T13:14:27Z</time>
      </trkpt>
      <trkpt lat="48.73124" lon="7.6637">
        <ele>149</ele>
        <time>2020-08-08T13:14:29Z</time>
      </trkpt>
      <trkpt lat="48.73129" lon="7.66362">
        <ele>149</ele>
        <time>2020-08-08T13:14:31Z</time>
      </trkpt>
      <trkpt lat="48.73133" lon="7.66354">
        <ele>149</ele>
        <time>2020-08-08T13:14:33Z</time>
      </trkpt>
      <trkpt lat="48.73138" lon="7.66346">
        <ele>149</ele>
        <time>2020-08-08T13:14:35Z</time>
      </trkpt>
      <trkpt lat="48.73143" lon="7.66337">
        <ele>149</ele>
        <time>2020-08-08T13:14:37Z</time>
      </trkpt>
      <trkpt lat="48.73149" lon="7.66327">
        <ele>148</ele>
        <time>2020-08-08T13:14:39Z</time>
      </trkpt>
      <trkpt lat="48.73153" lon="7.66317">
        <ele>148</ele>
        <time>2020-08-08T13:14:41Z</time>
      </trkpt>
      <trkpt lat="48.73158" lon="7.66306">
        <ele>148</ele>
        <time>2020-08-08T13:14:43Z</time>
      </trkpt>
      <trkpt lat="48.73163" lon="7.66296">
        <ele>148</ele>
        <time>2020-08-08T13:14:45Z</time>
      </trkpt>
      <trkpt lat="48.73168" lon="7.66287">
        <ele>148</ele>
        <time>2020-08-08T13:14:47Z</time>
      </trkpt>
      <trkpt lat="48.73173" lon="7.66277">
        <ele>148</ele>
        <time>2020-08-08T13:14:49Z</time>
      </trkpt>
      <trkpt lat="48.73178" lon="7.66268">
        <ele>148</ele>
        <time>2020-08-08T13:14:51Z</time>
      </trkpt>
      <trkpt lat="48.7318" lon="7.66262">
        <ele>149</ele>
        <time>2020-08-08T13:14:52Z</time>
      </trkpt>
      <trkpt lat="48.73185" lon="7.6625">
        <ele>149</ele>
        <time>2020-08-08T13:14:54Z</time>
      </trkpt>
      <trkpt lat="48.73188" lon="7.6624">
        <ele>149</ele>
        <time>2020-08-08T13:14:56Z</time>
      </trkpt>
      <trkpt lat="48.73192" lon="7.66228">
        <ele>149</ele>
        <time>2020-08-08T13:14:58Z</time>
      </trkpt>
      <trkpt lat="48.73198" lon="7.66217">
        <ele>148</ele>
        <time>2020-08-08T13:15:00Z</time>
      </trkpt>
      <trkpt lat="48.73205" lon="7.66208">
        <ele>148</ele>
        <time>2020-08-08T13:15:02Z</time>
      </trkpt>
      <trkpt lat="48.7321" lon="7.66199">
        <ele>148</ele>
        <time>2020-08-08T13:15:04Z</time>
      </trkpt>
      <trkpt lat="48.73215" lon="7.66189">
        <ele>148</ele>
        <time>2020-08-08T13:15:06Z</time>
      </trkpt>
      <trkpt lat="48.7322" lon="7.6618">
        <ele>148</ele>
        <time>2020-08-08T13:15:08Z</time>
      </trkpt>
      <trkpt lat="48.73223" lon="7.66175">
        <ele>147</ele>
        <time>2020-08-08T13:15:09Z</time>
      </trkpt>
      <trkpt lat="48.73229" lon="7.66164">
        <ele>147</ele>
        <time>2020-08-08T13:15:11Z</time>
      </trkpt>
      <trkpt lat="48.73231" lon="7.66157">
        <ele>147</ele>
        <time>2020-08-08T13:15:12Z</time>
      </trkpt>
      <trkpt lat="48.73237" lon="7.66147">
        <ele>147</ele>
        <time>2020-08-08T13:15:14Z</time>
      </trkpt>
      <trkpt lat="48.73243" lon="7.66138">
        <ele>147</ele>
        <time>2020-08-08T13:15:16Z</time>
      </trkpt>
      <trkpt lat="48.73248" lon="7.66126">
        <ele>147</ele>
        <time>2020-08-08T13:15:18Z</time>
      </trkpt>
      <trkpt lat="48.73251" lon="7.6612">
        <ele>147</ele>
        <time>2020-08-08T13:15:19Z</time>
      </trkpt>
      <trkpt lat="48.73253" lon="7.66114">
        <ele>147</ele>
        <time>2020-08-08T13:15:20Z</time>
      </trkpt>
      <trkpt lat="48.73258" lon="7.66103">
        <ele>148</ele>
        <time>2020-08-08T13:15:22Z</time>
      </trkpt>
      <trkpt lat="48.73261" lon="7.66097">
        <ele>148</ele>
        <time>2020-08-08T13:15:23Z</time>
      </trkpt>
      <trkpt lat="48.73267" lon="7.66087">
        <ele>147</ele>
        <time>2020-08-08T13:15:25Z</time>
      </trkpt>
      <trkpt lat="48.73273" lon="7.66075">
        <ele>147</ele>
        <time>2020-08-08T13:15:27Z</time>
      </trkpt>
      <trkpt lat="48.73275" lon="7.6607">
        <ele>147</ele>
        <time>2020-08-08T13:15:28Z</time>
      </trkpt>
      <trkpt lat="48.73278" lon="7.66064">
        <ele>148</ele>
        <time>2020-08-08T13:15:29Z</time>
      </trkpt>
      <trkpt lat="48.7328" lon="7.66057">
        <ele>148</ele>
        <time>2020-08-08T13:15:30Z</time>
      </trkpt>
      <trkpt lat="48.73284" lon="7.66052">
        <ele>148</ele>
        <time>2020-08-08T13:15:31Z</time>
      </trkpt>
      <trkpt lat="48.73287" lon="7.66046">
        <ele>148</ele>
        <time>2020-08-08T13:15:32Z</time>
      </trkpt>
      <trkpt lat="48.7329" lon="7.6604">
        <ele>148</ele>
        <time>2020-08-08T13:15:33Z</time>
      </trkpt>
      <trkpt lat="48.73293" lon="7.66035">
        <ele>148</ele>
        <time>2020-08-08T13:15:34Z</time>
      </trkpt>
      <trkpt lat="48.73296" lon="7.66029">
        <ele>148</ele>
        <time>2020-08-08T13:15:35Z</time>
      </trkpt>
      <trkpt lat="48.73299" lon="7.66024">
        <ele>148</ele>
        <time>2020-08-08T13:15:36Z</time>
      </trkpt>
      <trkpt lat="48.73303" lon="7.66018">
        <ele>148</ele>
        <time>2020-08-08T13:15:37Z</time>
      </trkpt>
      <trkpt lat="48.73306" lon="7.66012">
        <ele>148</ele>
        <time>2020-08-08T13:15:38Z</time>
      </trkpt>
      <trkpt lat="48.73309" lon="7.66006">
        <ele>148</ele>
        <time>2020-08-08T13:15:39Z</time>
      </trkpt>
      <trkpt lat="48.73312" lon="7.66001">
        <ele>148</ele>
        <time>2020-08-08T13:15:40Z</time>
      </trkpt>
      <trkpt lat="48.73315" lon="7.65995">
        <ele>148</ele>
        <time>2020-08-08T13:15:41Z</time>
      </trkpt>
      <trkpt lat="48.73321" lon="7.65984">
        <ele>148</ele>
        <time>2020-08-08T13:15:43Z</time>
      </trkpt>
      <trkpt lat="48.73327" lon="7.65972">
        <ele>148</ele>
        <time>2020-08-08T13:15:45Z</time>
      </trkpt>
      <trkpt lat="48.7333" lon="7.65966">
        <ele>148</ele>
        <time>2020-08-08T13:15:46Z</time>
      </trkpt>
      <trkpt lat="48.73337" lon="7.65955">
        <ele>148</ele>
        <time>2020-08-08T13:15:48Z</time>
      </trkpt>
      <trkpt lat="48.7334" lon="7.65949">
        <ele>149</ele>
        <time>2020-08-08T13:15:49Z</time>
      </trkpt>
      <trkpt lat="48.73342" lon="7.65943">
        <ele>149</ele>
        <time>2020-08-08T13:15:50Z</time>
      </trkpt>
      <trkpt lat="48.73346" lon="7.65938">
        <ele>148</ele>
        <time>2020-08-08T13:15:51Z</time>
      </trkpt>
      <trkpt lat="48.73352" lon="7.65929">
        <ele>148</ele>
        <time>2020-08-08T13:15:53Z</time>
      </trkpt>
      <trkpt lat="48.73356" lon="7.65923">
        <ele>148</ele>
        <time>2020-08-08T13:15:54Z</time>
      </trkpt>
      <trkpt lat="48.73358" lon="7.65918">
        <ele>148</ele>
        <time>2020-08-08T13:15:55Z</time>
      </trkpt>
      <trkpt lat="48.73361" lon="7.65912">
        <ele>148</ele>
        <time>2020-08-08T13:15:56Z</time>
      </trkpt>
      <trkpt lat="48.73364" lon="7.65906">
        <ele>148</ele>
        <time>2020-08-08T13:15:57Z</time>
      </trkpt>
      <trkpt lat="48.73368" lon="7.65895">
        <ele>148</ele>
        <time>2020-08-08T13:15:59Z</time>
      </trkpt>
      <trkpt lat="48.73371" lon="7.65889">
        <ele>148</ele>
        <time>2020-08-08T13:16:00Z</time>
      </trkpt>
      <trkpt lat="48.73374" lon="7.65884">
        <ele>148</ele>
        <time>2020-08-08T13:16:01Z</time>
      </trkpt>
      <trkpt lat="48.73378" lon="7.65878">
        <ele>148</ele>
        <time>2020-08-08T13:16:02Z</time>
      </trkpt>
      <trkpt lat="48.73381" lon="7.65873">
        <ele>148</ele>
        <time>2020-08-08T13:16:03Z</time>
      </trkpt>
      <trkpt lat="48.73385" lon="7.65866">
        <ele>148</ele>
        <time>2020-08-08T13:16:04Z</time>
      </trkpt>
      <trkpt lat="48.73388" lon="7.6586">
        <ele>148</ele>
        <time>2020-08-08T13:16:05Z</time>
      </trkpt>
      <trkpt lat="48.73394" lon="7.65849">
        <ele>148</ele>
        <time>2020-08-08T13:16:07Z</time>
      </trkpt>
      <trkpt lat="48.73401" lon="7.65839">
        <ele>148</ele>
        <time>2020-08-08T13:16:09Z</time>
      </trkpt>
      <trkpt lat="48.73404" lon="7.65833">
        <ele>148</ele>
        <time>2020-08-08T13:16:10Z</time>
      </trkpt>
      <trkpt lat="48.73409" lon="7.65822">
        <ele>148</ele>
        <time>2020-08-08T13:16:12Z</time>
      </trkpt>
      <trkpt lat="48.73412" lon="7.65816">
        <ele>148</ele>
        <time>2020-08-08T13:16:13Z</time>
      </trkpt>
      <trkpt lat="48.73415" lon="7.65809">
        <ele>148</ele>
        <time>2020-08-08T13:16:14Z</time>
      </trkpt>
      <trkpt lat="48.73419" lon="7.65804">
        <ele>148</ele>
        <time>2020-08-08T13:16:15Z</time>
      </trkpt>
      <trkpt lat="48.73425" lon="7.65794">
        <ele>148</ele>
        <time>2020-08-08T13:16:17Z</time>
      </trkpt>
      <trkpt lat="48.73429" lon="7.65783">
        <ele>148</ele>
        <time>2020-08-08T13:16:19Z</time>
      </trkpt>
      <trkpt lat="48.73433" lon="7.65776">
        <ele>148</ele>
        <time>2020-08-08T13:16:20Z</time>
      </trkpt>
      <trkpt lat="48.73436" lon="7.6577">
        <ele>148</ele>
        <time>2020-08-08T13:16:21Z</time>
      </trkpt>
      <trkpt lat="48.73439" lon="7.65763">
        <ele>148</ele>
        <time>2020-08-08T13:16:22Z</time>
      </trkpt>
      <trkpt lat="48.73443" lon="7.65758">
        <ele>148</ele>
        <time>2020-08-08T13:16:23Z</time>
      </trkpt>
      <trkpt lat="48.73446" lon="7.65751">
        <ele>148</ele>
        <time>2020-08-08T13:16:24Z</time>
      </trkpt>
      <trkpt lat="48.73451" lon="7.65739">
        <ele>148</ele>
        <time>2020-08-08T13:16:26Z</time>
      </trkpt>
      <trkpt lat="48.73454" lon="7.65733">
        <ele>148</ele>
        <time>2020-08-08T13:16:27Z</time>
      </trkpt>
      <trkpt lat="48.73457" lon="7.65727">
        <ele>148</ele>
        <time>2020-08-08T13:16:28Z</time>
      </trkpt>
      <trkpt lat="48.7346" lon="7.6572">
        <ele>148</ele>
        <time>2020-08-08T13:16:29Z</time>
      </trkpt>
      <trkpt lat="48.73465" lon="7.65708">
        <ele>148</ele>
        <time>2020-08-08T13:16:31Z</time>
      </trkpt>
      <trkpt lat="48.73468" lon="7.65702">
        <ele>148</ele>
        <time>2020-08-08T13:16:32Z</time>
      </trkpt>
      <trkpt lat="48.73471" lon="7.65696">
        <ele>148</ele>
        <time>2020-08-08T13:16:33Z</time>
      </trkpt>
      <trkpt lat="48.73475" lon="7.65691">
        <ele>148</ele>
        <time>2020-08-08T13:16:34Z</time>
      </trkpt>
      <trkpt lat="48.73481" lon="7.6568">
        <ele>148</ele>
        <time>2020-08-08T13:16:36Z</time>
      </trkpt>
      <trkpt lat="48.73483" lon="7.65674">
        <ele>148</ele>
        <time>2020-08-08T13:16:37Z</time>
      </trkpt>
      <trkpt lat="48.73486" lon="7.65668">
        <ele>148</ele>
        <time>2020-08-08T13:16:38Z</time>
      </trkpt>
      <trkpt lat="48.73493" lon="7.65659">
        <ele>148</ele>
        <time>2020-08-08T13:16:40Z</time>
      </trkpt>
      <trkpt lat="48.73496" lon="7.65653">
        <ele>148</ele>
        <time>2020-08-08T13:16:41Z</time>
      </trkpt>
      <trkpt lat="48.73499" lon="7.65647">
        <ele>148</ele>
        <time>2020-08-08T13:16:42Z</time>
      </trkpt>
      <trkpt lat="48.73502" lon="7.65642">
        <ele>148</ele>
        <time>2020-08-08T13:16:43Z</time>
      </trkpt>
      <trkpt lat="48.73505" lon="7.65636">
        <ele>148</ele>
        <time>2020-08-08T13:16:44Z</time>
      </trkpt>
      <trkpt lat="48.73507" lon="7.65629">
        <ele>148</ele>
        <time>2020-08-08T13:16:45Z</time>
      </trkpt>
      <trkpt lat="48.7351" lon="7.65622">
        <ele>148</ele>
        <time>2020-08-08T13:16:46Z</time>
      </trkpt>
      <trkpt lat="48.73513" lon="7.65616">
        <ele>148</ele>
        <time>2020-08-08T13:16:47Z</time>
      </trkpt>
      <trkpt lat="48.73517" lon="7.65609">
        <ele>148</ele>
        <time>2020-08-08T13:16:48Z</time>
      </trkpt>
      <trkpt lat="48.7352" lon="7.65603">
        <ele>148</ele>
        <time>2020-08-08T13:16:49Z</time>
      </trkpt>
      <trkpt lat="48.73523" lon="7.65597">
        <ele>148</ele>
        <time>2020-08-08T13:16:50Z</time>
      </trkpt>
      <trkpt lat="48.73529" lon="7.65586">
        <ele>148</ele>
        <time>2020-08-08T13:16:52Z</time>
      </trkpt>
      <trkpt lat="48.73532" lon="7.6558">
        <ele>148</ele>
        <time>2020-08-08T13:16:53Z</time>
      </trkpt>
      <trkpt lat="48.73536" lon="7.65575">
        <ele>148</ele>
        <time>2020-08-08T13:16:54Z</time>
      </trkpt>
      <trkpt lat="48.7354" lon="7.65568">
        <ele>148</ele>
        <time>2020-08-08T13:16:55Z</time>
      </trkpt>
      <trkpt lat="48.73542" lon="7.65562">
        <ele>148</ele>
        <time>2020-08-08T13:16:56Z</time>
      </trkpt>
      <trkpt lat="48.73546" lon="7.65556">
        <ele>148</ele>
        <time>2020-08-08T13:16:57Z</time>
      </trkpt>
      <trkpt lat="48.73549" lon="7.65549">
        <ele>148</ele>
        <time>2020-08-08T13:16:58Z</time>
      </trkpt>
      <trkpt lat="48.73552" lon="7.65544">
        <ele>148</ele>
        <time>2020-08-08T13:16:59Z</time>
      </trkpt>
      <trkpt lat="48.73556" lon="7.65538">
        <ele>148</ele>
        <time>2020-08-08T13:17:00Z</time>
      </trkpt>
      <trkpt lat="48.73559" lon="7.65532">
        <ele>148</ele>
        <time>2020-08-08T13:17:01Z</time>
      </trkpt>
      <trkpt lat="48.73565" lon="7.6552">
        <ele>148</ele>
        <time>2020-08-08T13:17:03Z</time>
      </trkpt>
      <trkpt lat="48.73568" lon="7.65515">
        <ele>148</ele>
        <time>2020-08-08T13:17:04Z</time>
      </trkpt>
      <trkpt lat="48.73571" lon="7.65508">
        <ele>148</ele>
        <time>2020-08-08T13:17:05Z</time>
      </trkpt>
      <trkpt lat="48.73575" lon="7.65502">
        <ele>148</ele>
        <time>2020-08-08T13:17:06Z</time>
      </trkpt>
      <trkpt lat="48.73578" lon="7.65496">
        <ele>148</ele>
        <time>2020-08-08T13:17:07Z</time>
      </trkpt>
      <trkpt lat="48.73582" lon="7.65491">
        <ele>148</ele>
        <time>2020-08-08T13:17:08Z</time>
      </trkpt>
      <trkpt lat="48.73585" lon="7.65485">
        <ele>148</ele>
        <time>2020-08-08T13:17:09Z</time>
      </trkpt>
      <trkpt lat="48.73591" lon="7.65474">
        <ele>149</ele>
        <time>2020-08-08T13:17:11Z</time>
      </trkpt>
      <trkpt lat="48.73593" lon="7.65468">
        <ele>149</ele>
        <time>2020-08-08T13:17:12Z</time>
      </trkpt>
      <trkpt lat="48.73596" lon="7.65461">
        <ele>149</ele>
        <time>2020-08-08T13:17:13Z</time>
      </trkpt>
      <trkpt lat="48.73599" lon="7.65455">
        <ele>149</ele>
        <time>2020-08-08T13:17:14Z</time>
      </trkpt>
      <trkpt lat="48.73602" lon="7.65449">
        <ele>149</ele>
        <time>2020-08-08T13:17:15Z</time>
      </trkpt>
      <trkpt lat="48.7361" lon="7.65439">
        <ele>149</ele>
        <time>2020-08-08T13:17:17Z</time>
      </trkpt>
      <trkpt lat="48.73613" lon="7.65433">
        <ele>149</ele>
        <time>2020-08-08T13:17:18Z</time>
      </trkpt>
      <trkpt lat="48.73617" lon="7.65425">
        <ele>149</ele>
        <time>2020-08-08T13:17:19Z</time>
      </trkpt>
      <trkpt lat="48.7362" lon="7.65419">
        <ele>150</ele>
        <time>2020-08-08T13:17:20Z</time>
      </trkpt>
      <trkpt lat="48.73624" lon="7.65414">
        <ele>150</ele>
        <time>2020-08-08T13:17:21Z</time>
      </trkpt>
      <trkpt lat="48.73627" lon="7.65408">
        <ele>150</ele>
        <time>2020-08-08T13:17:22Z</time>
      </trkpt>
      <trkpt lat="48.7363" lon="7.65402">
        <ele>150</ele>
        <time>2020-08-08T13:17:23Z</time>
      </trkpt>
      <trkpt lat="48.73633" lon="7.65396">
        <ele>150</ele>
        <time>2020-08-08T13:17:24Z</time>
      </trkpt>
      <trkpt lat="48.73636" lon="7.65389">
        <ele>150</ele>
        <time>2020-08-08T13:17:25Z</time>
      </trkpt>
      <trkpt lat="48.73642" lon="7.65378">
        <ele>150</ele>
        <time>2020-08-08T13:17:27Z</time>
      </trkpt>
      <trkpt lat="48.73645" lon="7.65372">
        <ele>150</ele>
        <time>2020-08-08T13:17:28Z</time>
      </trkpt>
      <trkpt lat="48.73648" lon="7.65365">
        <ele>151</ele>
        <time>2020-08-08T13:17:29Z</time>
      </trkpt>
      <trkpt lat="48.73651" lon="7.6536">
        <ele>150</ele>
        <time>2020-08-08T13:17:30Z</time>
      </trkpt>
      <trkpt lat="48.73655" lon="7.65355">
        <ele>150</ele>
        <time>2020-08-08T13:17:31Z</time>
      </trkpt>
      <trkpt lat="48.73658" lon="7.65349">
        <ele>150</ele>
        <time>2020-08-08T13:17:32Z</time>
      </trkpt>
      <trkpt lat="48.73661" lon="7.65342">
        <ele>151</ele>
        <time>2020-08-08T13:17:33Z</time>
      </trkpt>
      <trkpt lat="48.73665" lon="7.65336">
        <ele>150</ele>
        <time>2020-08-08T13:17:34Z</time>
      </trkpt>
      <trkpt lat="48.73668" lon="7.65329">
        <ele>150</ele>
        <time>2020-08-08T13:17:35Z</time>
      </trkpt>
      <trkpt lat="48.73673" lon="7.65318">
        <ele>150</ele>
        <time>2020-08-08T13:17:37Z</time>
      </trkpt>
      <trkpt lat="48.73675" lon="7.65312">
        <ele>150</ele>
        <time>2020-08-08T13:17:38Z</time>
      </trkpt>
      <trkpt lat="48.73679" lon="7.65302">
        <ele>150</ele>
        <time>2020-08-08T13:17:40Z</time>
      </trkpt>
      <trkpt lat="48.73684" lon="7.65291">
        <ele>151</ele>
        <time>2020-08-08T13:17:42Z</time>
      </trkpt>
      <trkpt lat="48.73687" lon="7.65285">
        <ele>151</ele>
        <time>2020-08-08T13:17:43Z</time>
      </trkpt>
      <trkpt lat="48.73693" lon="7.65277">
        <ele>150</ele>
        <time>2020-08-08T13:17:45Z</time>
      </trkpt>
      <trkpt lat="48.73697" lon="7.65267">
        <ele>151</ele>
        <time>2020-08-08T13:17:47Z</time>
      </trkpt>
      <trkpt lat="48.73701" lon="7.65258">
        <ele>151</ele>
        <time>2020-08-08T13:17:49Z</time>
      </trkpt>
      <trkpt lat="48.73706" lon="7.65243">
        <ele>152</ele>
        <time>2020-08-08T13:17:52Z</time>
      </trkpt>
      <trkpt lat="48.7371" lon="7.65236">
        <ele>152</ele>
        <time>2020-08-08T13:17:54Z</time>
      </trkpt>
      <trkpt lat="48.73714" lon="7.65229">
        <ele>152</ele>
        <time>2020-08-08T13:17:56Z</time>
      </trkpt>
      <trkpt lat="48.73718" lon="7.65225">
        <ele>151</ele>
        <time>2020-08-08T13:17:57Z</time>
      </trkpt>
      <trkpt lat="48.73721" lon="7.6522">
        <ele>151</ele>
        <time>2020-08-08T13:17:58Z</time>
      </trkpt>
      <trkpt lat="48.73724" lon="7.65214">
        <ele>150</ele>
        <time>2020-08-08T13:17:59Z</time>
      </trkpt>
      <trkpt lat="48.73729" lon="7.6521">
        <ele>150</ele>
        <time>2020-08-08T13:18:00Z</time>
      </trkpt>
      <trkpt lat="48.73732" lon="7.65204">
        <ele>150</ele>
        <time>2020-08-08T13:18:01Z</time>
      </trkpt>
      <trkpt lat="48.73736" lon="7.65198">
        <ele>150</ele>
        <time>2020-08-08T13:18:02Z</time>
      </trkpt>
      <trkpt lat="48.7374" lon="7.65192">
        <ele>150</ele>
        <time>2020-08-08T13:18:03Z</time>
      </trkpt>
      <trkpt lat="48.73744" lon="7.65185">
        <ele>150</ele>
        <time>2020-08-08T13:18:04Z</time>
      </trkpt>
      <trkpt lat="48.73749" lon="7.65178">
        <ele>149</ele>
        <time>2020-08-08T13:18:05Z</time>
      </trkpt>
      <trkpt lat="48.73753" lon="7.65171">
        <ele>149</ele>
        <time>2020-08-08T13:18:06Z</time>
      </trkpt>
      <trkpt lat="48.73757" lon="7.65164">
        <ele>149</ele>
        <time>2020-08-08T13:18:07Z</time>
      </trkpt>
      <trkpt lat="48.73761" lon="7.65156">
        <ele>150</ele>
        <time>2020-08-08T13:18:08Z</time>
      </trkpt>
      <trkpt lat="48.73765" lon="7.65149">
        <ele>150</ele>
        <time>2020-08-08T13:18:09Z</time>
      </trkpt>
      <trkpt lat="48.73768" lon="7.65143">
        <ele>150</ele>
        <time>2020-08-08T13:18:10Z</time>
      </trkpt>
      <trkpt lat="48.73771" lon="7.65136">
        <ele>150</ele>
        <time>2020-08-08T13:18:11Z</time>
      </trkpt>
      <trkpt lat="48.73775" lon="7.65129">
        <ele>150</ele>
        <time>2020-08-08T13:18:12Z</time>
      </trkpt>
      <trkpt lat="48.73779" lon="7.65121">
        <ele>150</ele>
        <time>2020-08-08T13:18:13Z</time>
      </trkpt>
      <trkpt lat="48.73782" lon="7.65115">
        <ele>150</ele>
        <time>2020-08-08T13:18:14Z</time>
      </trkpt>
      <trkpt lat="48.73785" lon="7.65109">
        <ele>150</ele>
        <time>2020-08-08T13:18:15Z</time>
      </trkpt>
      <trkpt lat="48.7379" lon="7.65098">
        <ele>151</ele>
        <time>2020-08-08T13:18:17Z</time>
      </trkpt>
      <trkpt lat="48.73794" lon="7.65093">
        <ele>150</ele>
        <time>2020-08-08T13:18:18Z</time>
      </trkpt>
      <trkpt lat="48.738" lon="7.65083">
        <ele>150</ele>
        <time>2020-08-08T13:18:20Z</time>
      </trkpt>
      <trkpt lat="48.73803" lon="7.65077">
        <ele>150</ele>
        <time>2020-08-08T13:18:21Z</time>
      </trkpt>
      <trkpt lat="48.73806" lon="7.65071">
        <ele>150</ele>
        <time>2020-08-08T13:18:22Z</time>
      </trkpt>
      <trkpt lat="48.7381" lon="7.65066">
        <ele>150</ele>
        <time>2020-08-08T13:18:23Z</time>
      </trkpt>
      <trkpt lat="48.73814" lon="7.6506">
        <ele>149</ele>
        <time>2020-08-08T13:18:24Z</time>
      </trkpt>
      <trkpt lat="48.73817" lon="7.65054">
        <ele>149</ele>
        <time>2020-08-08T13:18:25Z</time>
      </trkpt>
      <trkpt lat="48.7382" lon="7.65048">
        <ele>150</ele>
        <time>2020-08-08T13:18:26Z</time>
      </trkpt>
      <trkpt lat="48.73823" lon="7.65041">
        <ele>150</ele>
        <time>2020-08-08T13:18:27Z</time>
      </trkpt>
      <trkpt lat="48.73826" lon="7.65035">
        <ele>150</ele>
        <time>2020-08-08T13:18:28Z</time>
      </trkpt>
      <trkpt lat="48.73829" lon="7.65029">
        <ele>150</ele>
        <time>2020-08-08T13:18:29Z</time>
      </trkpt>
      <trkpt lat="48.73832" lon="7.65024">
        <ele>150</ele>
        <time>2020-08-08T13:18:30Z</time>
      </trkpt>
      <trkpt lat="48.73835" lon="7.65017">
        <ele>150</ele>
        <time>2020-08-08T13:18:31Z</time>
      </trkpt>
      <trkpt lat="48.73838" lon="7.65011">
        <ele>150</ele>
        <time>2020-08-08T13:18:32Z</time>
      </trkpt>
      <trkpt lat="48.73842" lon="7.65005">
        <ele>150</ele>
        <time>2020-08-08T13:18:33Z</time>
      </trkpt>
      <trkpt lat="48.73845" lon="7.64999">
        <ele>150</ele>
        <time>2020-08-08T13:18:34Z</time>
      </trkpt>
      <trkpt lat="48.73848" lon="7.64994">
        <ele>150</ele>
        <time>2020-08-08T13:18:35Z</time>
      </trkpt>
      <trkpt lat="48.7385" lon="7.64987">
        <ele>150</ele>
        <time>2020-08-08T13:18:36Z</time>
      </trkpt>
      <trkpt lat="48.73853" lon="7.64979">
        <ele>150</ele>
        <time>2020-08-08T13:18:38Z</time>
      </trkpt>
      <trkpt lat="48.73857" lon="7.64973">
        <ele>150</ele>
        <time>2020-08-08T13:18:39Z</time>
      </trkpt>
      <trkpt lat="48.7386" lon="7.64967">
        <ele>150</ele>
        <time>2020-08-08T13:18:40Z</time>
      </trkpt>
      <trkpt lat="48.73863" lon="7.6496">
        <ele>150</ele>
        <time>2020-08-08T13:18:41Z</time>
      </trkpt>
      <trkpt lat="48.7387" lon="7.64952">
        <ele>149</ele>
        <time>2020-08-08T13:18:43Z</time>
      </trkpt>
      <trkpt lat="48.73875" lon="7.64942">
        <ele>149</ele>
        <time>2020-08-08T13:18:45Z</time>
      </trkpt>
      <trkpt lat="48.7388" lon="7.64933">
        <ele>150</ele>
        <time>2020-08-08T13:18:47Z</time>
      </trkpt>
      <trkpt lat="48.73884" lon="7.64928">
        <ele>149</ele>
        <time>2020-08-08T13:18:48Z</time>
      </trkpt>
      <trkpt lat="48.73888" lon="7.64922">
        <ele>149</ele>
        <time>2020-08-08T13:18:49Z</time>
      </trkpt>
      <trkpt lat="48.73891" lon="7.64917">
        <ele>149</ele>
        <time>2020-08-08T13:18:50Z</time>
      </trkpt>
      <trkpt lat="48.73895" lon="7.64906">
        <ele>149</ele>
        <time>2020-08-08T13:18:52Z</time>
      </trkpt>
      <trkpt lat="48.73898" lon="7.64901">
        <ele>149</ele>
        <time>2020-08-08T13:18:53Z</time>
      </trkpt>
      <trkpt lat="48.73904" lon="7.64891">
        <ele>149</ele>
        <time>2020-08-08T13:18:55Z</time>
      </trkpt>
      <trkpt lat="48.73909" lon="7.64879">
        <ele>149</ele>
        <time>2020-08-08T13:18:57Z</time>
      </trkpt>
      <trkpt lat="48.73911" lon="7.64872">
        <ele>149</ele>
        <time>2020-08-08T13:18:58Z</time>
      </trkpt>
      <trkpt lat="48.73915" lon="7.64866">
        <ele>149</ele>
        <time>2020-08-08T13:18:59Z</time>
      </trkpt>
      <trkpt lat="48.73919" lon="7.6486">
        <ele>149</ele>
        <time>2020-08-08T13:19:00Z</time>
      </trkpt>
      <trkpt lat="48.73922" lon="7.64854">
        <ele>149</ele>
        <time>2020-08-08T13:19:01Z</time>
      </trkpt>
      <trkpt lat="48.73926" lon="7.64848">
        <ele>149</ele>
        <time>2020-08-08T13:19:02Z</time>
      </trkpt>
      <trkpt lat="48.7393" lon="7.64842">
        <ele>149</ele>
        <time>2020-08-08T13:19:03Z</time>
      </trkpt>
      <trkpt lat="48.73933" lon="7.64837">
        <ele>149</ele>
        <time>2020-08-08T13:19:04Z</time>
      </trkpt>
      <trkpt lat="48.73937" lon="7.64831">
        <ele>149</ele>
        <time>2020-08-08T13:19:05Z</time>
      </trkpt>
      <trkpt lat="48.7394" lon="7.64826">
        <ele>149</ele>
        <time>2020-08-08T13:19:06Z</time>
      </trkpt>
      <trkpt lat="48.73945" lon="7.64814">
        <ele>149</ele>
        <time>2020-08-08T13:19:08Z</time>
      </trkpt>
      <trkpt lat="48.73948" lon="7.64809">
        <ele>149</ele>
        <time>2020-08-08T13:19:09Z</time>
      </trkpt>
      <trkpt lat="48.73954" lon="7.64798">
        <ele>149</ele>
        <time>2020-08-08T13:19:11Z</time>
      </trkpt>
      <trkpt lat="48.73957" lon="7.64791">
        <ele>149</ele>
        <time>2020-08-08T13:19:12Z</time>
      </trkpt>
      <trkpt lat="48.73963" lon="7.6478">
        <ele>149</ele>
        <time>2020-08-08T13:19:14Z</time>
      </trkpt>
      <trkpt lat="48.73966" lon="7.64775">
        <ele>149</ele>
        <time>2020-08-08T13:19:15Z</time>
      </trkpt>
      <trkpt lat="48.73969" lon="7.64768">
        <ele>149</ele>
        <time>2020-08-08T13:19:16Z</time>
      </trkpt>
      <trkpt lat="48.73975" lon="7.64757">
        <ele>149</ele>
        <time>2020-08-08T13:19:18Z</time>
      </trkpt>
      <trkpt lat="48.7398" lon="7.64746">
        <ele>149</ele>
        <time>2020-08-08T13:19:20Z</time>
      </trkpt>
      <trkpt lat="48.73983" lon="7.6474">
        <ele>149</ele>
        <time>2020-08-08T13:19:21Z</time>
      </trkpt>
      <trkpt lat="48.73989" lon="7.6473">
        <ele>149</ele>
        <time>2020-08-08T13:19:23Z</time>
      </trkpt>
      <trkpt lat="48.73995" lon="7.64717">
        <ele>149</ele>
        <time>2020-08-08T13:19:25Z</time>
      </trkpt>
      <trkpt lat="48.73997" lon="7.64712">
        <ele>149</ele>
        <time>2020-08-08T13:19:26Z</time>
      </trkpt>
      <trkpt lat="48.74" lon="7.64705">
        <ele>149</ele>
        <time>2020-08-08T13:19:27Z</time>
      </trkpt>
      <trkpt lat="48.74003" lon="7.64699">
        <ele>149</ele>
        <time>2020-08-08T13:19:28Z</time>
      </trkpt>
      <trkpt lat="48.74006" lon="7.64693">
        <ele>149</ele>
        <time>2020-08-08T13:19:29Z</time>
      </trkpt>
      <trkpt lat="48.74009" lon="7.64688">
        <ele>149</ele>
        <time>2020-08-08T13:19:30Z</time>
      </trkpt>
      <trkpt lat="48.74015" lon="7.64677">
        <ele>149</ele>
        <time>2020-08-08T13:19:32Z</time>
      </trkpt>
      <trkpt lat="48.74017" lon="7.64671">
        <ele>149</ele>
        <time>2020-08-08T13:19:33Z</time>
      </trkpt>
      <trkpt lat="48.74021" lon="7.64665">
        <ele>149</ele>
        <time>2020-08-08T13:19:34Z</time>
      </trkpt>
      <trkpt lat="48.74024" lon="7.64659">
        <ele>149</ele>
        <time>2020-08-08T13:19:35Z</time>
      </trkpt>
      <trkpt lat="48.74027" lon="7.64654">
        <ele>149</ele>
        <time>2020-08-08T13:19:36Z</time>
      </trkpt>
      <trkpt lat="48.7403" lon="7.64648">
        <ele>149</ele>
        <time>2020-08-08T13:19:37Z</time>
      </trkpt>
      <trkpt lat="48.74034" lon="7.64642">
        <ele>149</ele>
        <time>2020-08-08T13:19:38Z</time>
      </trkpt>
      <trkpt lat="48.74037" lon="7.64636">
        <ele>149</ele>
        <time>2020-08-08T13:19:39Z</time>
      </trkpt>
      <trkpt lat="48.74041" lon="7.6463">
        <ele>149</ele>
        <time>2020-08-08T13:19:40Z</time>
      </trkpt>
      <trkpt lat="48.74044" lon="7.64624">
        <ele>149</ele>
        <time>2020-08-08T13:19:41Z</time>
      </trkpt>
      <trkpt lat="48.74048" lon="7.64619">
        <ele>149</ele>
        <time>2020-08-08T13:19:42Z</time>
      </trkpt>
      <trkpt lat="48.7405" lon="7.64613">
        <ele>149</ele>
        <time>2020-08-08T13:19:43Z</time>
      </trkpt>
      <trkpt lat="48.74054" lon="7.64606">
        <ele>149</ele>
        <time>2020-08-08T13:19:44Z</time>
      </trkpt>
      <trkpt lat="48.74057" lon="7.646">
        <ele>149</ele>
        <time>2020-08-08T13:19:45Z</time>
      </trkpt>
      <trkpt lat="48.74059" lon="7.64594">
        <ele>149</ele>
        <time>2020-08-08T13:19:46Z</time>
      </trkpt>
      <trkpt lat="48.74062" lon="7.64587">
        <ele>149</ele>
        <time>2020-08-08T13:19:47Z</time>
      </trkpt>
      <trkpt lat="48.74066" lon="7.64581">
        <ele>149</ele>
        <time>2020-08-08T13:19:48Z</time>
      </trkpt>
      <trkpt lat="48.7407" lon="7.64575">
        <ele>149</ele>
        <time>2020-08-08T13:19:49Z</time>
      </trkpt>
      <trkpt lat="48.74074" lon="7.64569">
        <ele>149</ele>
        <time>2020-08-08T13:19:50Z</time>
      </trkpt>
      <trkpt lat="48.74078" lon="7.64562">
        <ele>150</ele>
        <time>2020-08-08T13:19:51Z</time>
      </trkpt>
      <trkpt lat="48.74081" lon="7.64555">
        <ele>150</ele>
        <time>2020-08-08T13:19:52Z</time>
      </trkpt>
      <trkpt lat="48.74085" lon="7.6455">
        <ele>149</ele>
        <time>2020-08-08T13:19:53Z</time>
      </trkpt>
      <trkpt lat="48.74089" lon="7.64544">
        <ele>149</ele>
        <time>2020-08-08T13:19:54Z</time>
      </trkpt>
      <trkpt lat="48.74092" lon="7.64538">
        <ele>149</ele>
        <time>2020-08-08T13:19:55Z</time>
      </trkpt>
      <trkpt lat="48.74095" lon="7.64533">
        <ele>149</ele>
        <time>2020-08-08T13:19:56Z</time>
      </trkpt>
      <trkpt lat="48.74098" lon="7.64527">
        <ele>149</ele>
        <time>2020-08-08T13:19:57Z</time>
      </trkpt>
      <trkpt lat="48.74101" lon="7.64521">
        <ele>149</ele>
        <time>2020-08-08T13:19:58Z</time>
      </trkpt>
      <trkpt lat="48.74104" lon="7.64515">
        <ele>149</ele>
        <time>2020-08-08T13:19:59Z</time>
      </trkpt>
      <trkpt lat="48.74107" lon="7.64509">
        <ele>149</ele>
        <time>2020-08-08T13:20:00Z</time>
      </trkpt>
      <trkpt lat="48.74112" lon="7.64503">
        <ele>149</ele>
        <time>2020-08-08T13:20:01Z</time>
      </trkpt>
      <trkpt lat="48.74115" lon="7.64497">
        <ele>149</ele>
        <time>2020-08-08T13:20:02Z</time>
      </trkpt>
      <trkpt lat="48.74118" lon="7.64492">
        <ele>149</ele>
        <time>2020-08-08T13:20:03Z</time>
      </trkpt>
      <trkpt lat="48.74121" lon="7.64486">
        <ele>149</ele>
        <time>2020-08-08T13:20:04Z</time>
      </trkpt>
      <trkpt lat="48.74124" lon="7.6448">
        <ele>149</ele>
        <time>2020-08-08T13:20:05Z</time>
      </trkpt>
      <trkpt lat="48.74127" lon="7.64474">
        <ele>149</ele>
        <time>2020-08-08T13:20:06Z</time>
      </trkpt>
      <trkpt lat="48.74131" lon="7.64468">
        <ele>149</ele>
        <time>2020-08-08T13:20:07Z</time>
      </trkpt>
      <trkpt lat="48.74134" lon="7.64463">
        <ele>149</ele>
        <time>2020-08-08T13:20:08Z</time>
      </trkpt>
      <trkpt lat="48.74138" lon="7.64456">
        <ele>149</ele>
        <time>2020-08-08T13:20:09Z</time>
      </trkpt>
      <trkpt lat="48.74141" lon="7.6445">
        <ele>149</ele>
        <time>2020-08-08T13:20:10Z</time>
      </trkpt>
      <trkpt lat="48.74147" lon="7.64439">
        <ele>149</ele>
        <time>2020-08-08T13:20:12Z</time>
      </trkpt>
      <trkpt lat="48.74149" lon="7.64432">
        <ele>149</ele>
        <time>2020-08-08T13:20:13Z</time>
      </trkpt>
      <trkpt lat="48.74152" lon="7.64425">
        <ele>149</ele>
        <time>2020-08-08T13:20:14Z</time>
      </trkpt>
      <trkpt lat="48.74159" lon="7.64413">
        <ele>149</ele>
        <time>2020-08-08T13:20:16Z</time>
      </trkpt>
      <trkpt lat="48.74162" lon="7.64406">
        <ele>149</ele>
        <time>2020-08-08T13:20:17Z</time>
      </trkpt>
      <trkpt lat="48.74166" lon="7.64401">
        <ele>149</ele>
        <time>2020-08-08T13:20:18Z</time>
      </trkpt>
      <trkpt lat="48.74169" lon="7.64394">
        <ele>149</ele>
        <time>2020-08-08T13:20:19Z</time>
      </trkpt>
      <trkpt lat="48.74173" lon="7.64388">
        <ele>149</ele>
        <time>2020-08-08T13:20:20Z</time>
      </trkpt>
      <trkpt lat="48.74175" lon="7.64382">
        <ele>149</ele>
        <time>2020-08-08T13:20:21Z</time>
      </trkpt>
      <trkpt lat="48.74178" lon="7.64377">
        <ele>149</ele>
        <time>2020-08-08T13:20:22Z</time>
      </trkpt>
      <trkpt lat="48.74183" lon="7.64366">
        <ele>150</ele>
        <time>2020-08-08T13:20:24Z</time>
      </trkpt>
      <trkpt lat="48.74187" lon="7.64356">
        <ele>150</ele>
        <time>2020-08-08T13:20:26Z</time>
      </trkpt>
      <trkpt lat="48.74192" lon="7.64347">
        <ele>151</ele>
        <time>2020-08-08T13:20:28Z</time>
      </trkpt>
      <trkpt lat="48.74197" lon="7.6434">
        <ele>151</ele>
        <time>2020-08-08T13:20:30Z</time>
      </trkpt>
      <trkpt lat="48.74202" lon="7.64334">
        <ele>151</ele>
        <time>2020-08-08T13:20:32Z</time>
      </trkpt>
      <trkpt lat="48.74207" lon="7.64328">
        <ele>151</ele>
        <time>2020-08-08T13:20:34Z</time>
      </trkpt>
      <trkpt lat="48.7421" lon="7.64319">
        <ele>151</ele>
        <time>2020-08-08T13:20:36Z</time>
      </trkpt>
      <trkpt lat="48.74214" lon="7.6431">
        <ele>152</ele>
        <time>2020-08-08T13:20:38Z</time>
      </trkpt>
      <trkpt lat="48.74219" lon="7.64302">
        <ele>151</ele>
        <time>2020-08-08T13:20:40Z</time>
      </trkpt>
      <trkpt lat="48.74223" lon="7.64293">
        <ele>151</ele>
        <time>2020-08-08T13:20:42Z</time>
      </trkpt>
      <trkpt lat="48.74228" lon="7.64282">
        <ele>151</ele>
        <time>2020-08-08T13:20:44Z</time>
      </trkpt>
      <trkpt lat="48.74233" lon="7.64273">
        <ele>150</ele>
        <time>2020-08-08T13:20:46Z</time>
      </trkpt>
      <trkpt lat="48.74237" lon="7.64264">
        <ele>150</ele>
        <time>2020-08-08T13:20:48Z</time>
      </trkpt>
      <trkpt lat="48.74243" lon="7.64255">
        <ele>150</ele>
        <time>2020-08-08T13:20:50Z</time>
      </trkpt>
      <trkpt lat="48.74247" lon="7.64245">
        <ele>150</ele>
        <time>2020-08-08T13:20:52Z</time>
      </trkpt>
      <trkpt lat="48.74252" lon="7.64234">
        <ele>150</ele>
        <time>2020-08-08T13:20:54Z</time>
      </trkpt>
      <trkpt lat="48.74255" lon="7.6423">
        <ele>150</ele>
        <time>2020-08-08T13:20:55Z</time>
      </trkpt>
      <trkpt lat="48.74258" lon="7.64225">
        <ele>150</ele>
        <time>2020-08-08T13:20:56Z</time>
      </trkpt>
      <trkpt lat="48.74262" lon="7.6422">
        <ele>150</ele>
        <time>2020-08-08T13:20:57Z</time>
      </trkpt>
      <trkpt lat="48.74266" lon="7.64208">
        <ele>150</ele>
        <time>2020-08-08T13:20:59Z</time>
      </trkpt>
      <trkpt lat="48.74271" lon="7.64199">
        <ele>150</ele>
        <time>2020-08-08T13:21:01Z</time>
      </trkpt>
      <trkpt lat="48.74279" lon="7.64183">
        <ele>150</ele>
        <time>2020-08-08T13:21:04Z</time>
      </trkpt>
      <trkpt lat="48.74286" lon="7.64172">
        <ele>150</ele>
        <time>2020-08-08T13:21:06Z</time>
      </trkpt>
      <trkpt lat="48.74289" lon="7.64166">
        <ele>150</ele>
        <time>2020-08-08T13:21:07Z</time>
      </trkpt>
      <trkpt lat="48.74291" lon="7.6416">
        <ele>150</ele>
        <time>2020-08-08T13:21:08Z</time>
      </trkpt>
      <trkpt lat="48.74297" lon="7.64149">
        <ele>150</ele>
        <time>2020-08-08T13:21:10Z</time>
      </trkpt>
      <trkpt lat="48.743" lon="7.64144">
        <ele>150</ele>
        <time>2020-08-08T13:21:11Z</time>
      </trkpt>
      <trkpt lat="48.74303" lon="7.64138">
        <ele>150</ele>
        <time>2020-08-08T13:21:12Z</time>
      </trkpt>
      <trkpt lat="48.74307" lon="7.64132">
        <ele>150</ele>
        <time>2020-08-08T13:21:13Z</time>
      </trkpt>
      <trkpt lat="48.7431" lon="7.64126">
        <ele>150</ele>
        <time>2020-08-08T13:21:14Z</time>
      </trkpt>
      <trkpt lat="48.74313" lon="7.6412">
        <ele>150</ele>
        <time>2020-08-08T13:21:15Z</time>
      </trkpt>
      <trkpt lat="48.74316" lon="7.64114">
        <ele>150</ele>
        <time>2020-08-08T13:21:16Z</time>
      </trkpt>
      <trkpt lat="48.7432" lon="7.64108">
        <ele>150</ele>
        <time>2020-08-08T13:21:17Z</time>
      </trkpt>
      <trkpt lat="48.74326" lon="7.64098">
        <ele>150</ele>
        <time>2020-08-08T13:21:19Z</time>
      </trkpt>
      <trkpt lat="48.74331" lon="7.64086">
        <ele>150</ele>
        <time>2020-08-08T13:21:21Z</time>
      </trkpt>
      <trkpt lat="48.74337" lon="7.64076">
        <ele>150</ele>
        <time>2020-08-08T13:21:23Z</time>
      </trkpt>
      <trkpt lat="48.74341" lon="7.64071">
        <ele>150</ele>
        <time>2020-08-08T13:21:24Z</time>
      </trkpt>
      <trkpt lat="48.74347" lon="7.6406">
        <ele>150</ele>
        <time>2020-08-08T13:21:26Z</time>
      </trkpt>
      <trkpt lat="48.74349" lon="7.64054">
        <ele>150</ele>
        <time>2020-08-08T13:21:27Z</time>
      </trkpt>
      <trkpt lat="48.74353" lon="7.64049">
        <ele>150</ele>
        <time>2020-08-08T13:21:28Z</time>
      </trkpt>
      <trkpt lat="48.74357" lon="7.64043">
        <ele>150</ele>
        <time>2020-08-08T13:21:29Z</time>
      </trkpt>
      <trkpt lat="48.7436" lon="7.64038">
        <ele>150</ele>
        <time>2020-08-08T13:21:30Z</time>
      </trkpt>
      <trkpt lat="48.74363" lon="7.64031">
        <ele>150</ele>
        <time>2020-08-08T13:21:31Z</time>
      </trkpt>
      <trkpt lat="48.74366" lon="7.64026">
        <ele>150</ele>
        <time>2020-08-08T13:21:32Z</time>
      </trkpt>
      <trkpt lat="48.7437" lon="7.6402">
        <ele>150</ele>
        <time>2020-08-08T13:21:33Z</time>
      </trkpt>
      <trkpt lat="48.74376" lon="7.64008">
        <ele>150</ele>
        <time>2020-08-08T13:21:35Z</time>
      </trkpt>
      <trkpt lat="48.74379" lon="7.64002">
        <ele>150</ele>
        <time>2020-08-08T13:21:36Z</time>
      </trkpt>
      <trkpt lat="48.74384" lon="7.63992">
        <ele>150</ele>
        <time>2020-08-08T13:21:38Z</time>
      </trkpt>
      <trkpt lat="48.74387" lon="7.63986">
        <ele>150</ele>
        <time>2020-08-08T13:21:39Z</time>
      </trkpt>
      <trkpt lat="48.74389" lon="7.6398">
        <ele>150</ele>
        <time>2020-08-08T13:21:40Z</time>
      </trkpt>
      <trkpt lat="48.74392" lon="7.63973">
        <ele>150</ele>
        <time>2020-08-08T13:21:41Z</time>
      </trkpt>
      <trkpt lat="48.74396" lon="7.63968">
        <ele>150</ele>
        <time>2020-08-08T13:21:42Z</time>
      </trkpt>
      <trkpt lat="48.74398" lon="7.63961">
        <ele>150</ele>
        <time>2020-08-08T13:21:43Z</time>
      </trkpt>
      <trkpt lat="48.74404" lon="7.63953">
        <ele>150</ele>
        <time>2020-08-08T13:21:45Z</time>
      </trkpt>
      <trkpt lat="48.74407" lon="7.63947">
        <ele>150</ele>
        <time>2020-08-08T13:21:46Z</time>
      </trkpt>
      <trkpt lat="48.74413" lon="7.63938">
        <ele>150</ele>
        <time>2020-08-08T13:21:48Z</time>
      </trkpt>
      <trkpt lat="48.74419" lon="7.63929">
        <ele>150</ele>
        <time>2020-08-08T13:21:50Z</time>
      </trkpt>
      <trkpt lat="48.74424" lon="7.6392">
        <ele>150</ele>
        <time>2020-08-08T13:21:52Z</time>
      </trkpt>
      <trkpt lat="48.74431" lon="7.63912">
        <ele>150</ele>
        <time>2020-08-08T13:21:54Z</time>
      </trkpt>
      <trkpt lat="48.74436" lon="7.63901">
        <ele>150</ele>
        <time>2020-08-08T13:21:56Z</time>
      </trkpt>
      <trkpt lat="48.7444" lon="7.63897">
        <ele>150</ele>
        <time>2020-08-08T13:21:57Z</time>
      </trkpt>
      <trkpt lat="48.74447" lon="7.63886">
        <ele>150</ele>
        <time>2020-08-08T13:21:59Z</time>
      </trkpt>
      <trkpt lat="48.74451" lon="7.63881">
        <ele>150</ele>
        <time>2020-08-08T13:22:00Z</time>
      </trkpt>
      <trkpt lat="48.74458" lon="7.63872">
        <ele>150</ele>
        <time>2020-08-08T13:22:02Z</time>
      </trkpt>
      <trkpt lat="48.74462" lon="7.63867">
        <ele>150</ele>
        <time>2020-08-08T13:22:03Z</time>
      </trkpt>
      <trkpt lat="48.74465" lon="7.63862">
        <ele>150</ele>
        <time>2020-08-08T13:22:04Z</time>
      </trkpt>
      <trkpt lat="48.74469" lon="7.63857">
        <ele>150</ele>
        <time>2020-08-08T13:22:05Z</time>
      </trkpt>
      <trkpt lat="48.74472" lon="7.63852">
        <ele>150</ele>
        <time>2020-08-08T13:22:06Z</time>
      </trkpt>
      <trkpt lat="48.74477" lon="7.63849">
        <ele>150</ele>
        <time>2020-08-08T13:22:07Z</time>
      </trkpt>
      <trkpt lat="48.74484" lon="7.63839">
        <ele>150</ele>
        <time>2020-08-08T13:22:09Z</time>
      </trkpt>
      <trkpt lat="48.74488" lon="7.63834">
        <ele>150</ele>
        <time>2020-08-08T13:22:10Z</time>
      </trkpt>
      <trkpt lat="48.7449" lon="7.63828">
        <ele>150</ele>
        <time>2020-08-08T13:22:11Z</time>
      </trkpt>
      <trkpt lat="48.74495" lon="7.63823">
        <ele>150</ele>
        <time>2020-08-08T13:22:12Z</time>
      </trkpt>
      <trkpt lat="48.74498" lon="7.63818">
        <ele>151</ele>
        <time>2020-08-08T13:22:13Z</time>
      </trkpt>
      <trkpt lat="48.74502" lon="7.63814">
        <ele>150</ele>
        <time>2020-08-08T13:22:14Z</time>
      </trkpt>
      <trkpt lat="48.74506" lon="7.6381">
        <ele>150</ele>
        <time>2020-08-08T13:22:15Z</time>
      </trkpt>
      <trkpt lat="48.74511" lon="7.63805">
        <ele>150</ele>
        <time>2020-08-08T13:22:16Z</time>
      </trkpt>
      <trkpt lat="48.74514" lon="7.638">
        <ele>150</ele>
        <time>2020-08-08T13:22:17Z</time>
      </trkpt>
      <trkpt lat="48.74517" lon="7.63794">
        <ele>150</ele>
        <time>2020-08-08T13:22:18Z</time>
      </trkpt>
      <trkpt lat="48.74521" lon="7.6379">
        <ele>150</ele>
        <time>2020-08-08T13:22:19Z</time>
      </trkpt>
      <trkpt lat="48.74526" lon="7.63785">
        <ele>150</ele>
        <time>2020-08-08T13:22:20Z</time>
      </trkpt>
      <trkpt lat="48.7453" lon="7.6378">
        <ele>149</ele>
        <time>2020-08-08T13:22:21Z</time>
      </trkpt>
      <trkpt lat="48.74534" lon="7.63775">
        <ele>149</ele>
        <time>2020-08-08T13:22:22Z</time>
      </trkpt>
      <trkpt lat="48.74538" lon="7.6377">
        <ele>149</ele>
        <time>2020-08-08T13:22:23Z</time>
      </trkpt>
      <trkpt lat="48.74542" lon="7.63764">
        <ele>149</ele>
        <time>2020-08-08T13:22:24Z</time>
      </trkpt>
      <trkpt lat="48.74546" lon="7.63758">
        <ele>149</ele>
        <time>2020-08-08T13:22:25Z</time>
      </trkpt>
      <trkpt lat="48.74551" lon="7.63753">
        <ele>149</ele>
        <time>2020-08-08T13:22:26Z</time>
      </trkpt>
      <trkpt lat="48.74554" lon="7.63747">
        <ele>149</ele>
        <time>2020-08-08T13:22:27Z</time>
      </trkpt>
      <trkpt lat="48.74558" lon="7.63742">
        <ele>150</ele>
        <time>2020-08-08T13:22:28Z</time>
      </trkpt>
      <trkpt lat="48.74562" lon="7.63738">
        <ele>149</ele>
        <time>2020-08-08T13:22:29Z</time>
      </trkpt>
      <trkpt lat="48.74565" lon="7.63732">
        <ele>150</ele>
        <time>2020-08-08T13:22:30Z</time>
      </trkpt>
      <trkpt lat="48.74572" lon="7.63722">
        <ele>150</ele>
        <time>2020-08-08T13:22:32Z</time>
      </trkpt>
      <trkpt lat="48.74578" lon="7.63712">
        <ele>150</ele>
        <time>2020-08-08T13:22:34Z</time>
      </trkpt>
      <trkpt lat="48.74582" lon="7.63707">
        <ele>150</ele>
        <time>2020-08-08T13:22:35Z</time>
      </trkpt>
      <trkpt lat="48.74587" lon="7.63701">
        <ele>150</ele>
        <time>2020-08-08T13:22:36Z</time>
      </trkpt>
      <trkpt lat="48.74591" lon="7.63696">
        <ele>150</ele>
        <time>2020-08-08T13:22:37Z</time>
      </trkpt>
      <trkpt lat="48.74595" lon="7.63691">
        <ele>150</ele>
        <time>2020-08-08T13:22:38Z</time>
      </trkpt>
      <trkpt lat="48.74598" lon="7.63687">
        <ele>150</ele>
        <time>2020-08-08T13:22:39Z</time>
      </trkpt>
      <trkpt lat="48.74602" lon="7.63681">
        <ele>151</ele>
        <time>2020-08-08T13:22:40Z</time>
      </trkpt>
      <trkpt lat="48.74606" lon="7.63676">
        <ele>150</ele>
        <time>2020-08-08T13:22:41Z</time>
      </trkpt>
      <trkpt lat="48.74611" lon="7.63672">
        <ele>150</ele>
        <time>2020-08-08T13:22:42Z</time>
      </trkpt>
      <trkpt lat="48.74615" lon="7.63667">
        <ele>150</ele>
        <time>2020-08-08T13:22:43Z</time>
      </trkpt>
      <trkpt lat="48.74623" lon="7.63654">
        <ele>150</ele>
        <time>2020-08-08T13:22:46Z</time>
      </trkpt>
      <trkpt lat="48.74627" lon="7.6365">
        <ele>150</ele>
        <time>2020-08-08T13:22:47Z</time>
      </trkpt>
      <trkpt lat="48.74631" lon="7.63645">
        <ele>150</ele>
        <time>2020-08-08T13:22:48Z</time>
      </trkpt>
      <trkpt lat="48.74635" lon="7.6364">
        <ele>150</ele>
        <time>2020-08-08T13:22:49Z</time>
      </trkpt>
      <trkpt lat="48.74638" lon="7.63635">
        <ele>150</ele>
        <time>2020-08-08T13:22:50Z</time>
      </trkpt>
      <trkpt lat="48.74642" lon="7.6363">
        <ele>150</ele>
        <time>2020-08-08T13:22:51Z</time>
      </trkpt>
      <trkpt lat="48.74646" lon="7.63624">
        <ele>150</ele>
        <time>2020-08-08T13:22:52Z</time>
      </trkpt>
      <trkpt lat="48.74651" lon="7.63616">
        <ele>151</ele>
        <time>2020-08-08T13:22:54Z</time>
      </trkpt>
      <trkpt lat="48.74658" lon="7.63606">
        <ele>151</ele>
        <time>2020-08-08T13:22:56Z</time>
      </trkpt>
      <trkpt lat="48.74662" lon="7.63602">
        <ele>151</ele>
        <time>2020-08-08T13:22:57Z</time>
      </trkpt>
      <trkpt lat="48.74666" lon="7.63596">
        <ele>151</ele>
        <time>2020-08-08T13:22:58Z</time>
      </trkpt>
      <trkpt lat="48.7467" lon="7.63591">
        <ele>151</ele>
        <time>2020-08-08T13:22:59Z</time>
      </trkpt>
      <trkpt lat="48.74674" lon="7.63587">
        <ele>151</ele>
        <time>2020-08-08T13:23:00Z</time>
      </trkpt>
      <trkpt lat="48.74678" lon="7.63582">
        <ele>150</ele>
        <time>2020-08-08T13:23:01Z</time>
      </trkpt>
      <trkpt lat="48.74682" lon="7.63576">
        <ele>150</ele>
        <time>2020-08-08T13:23:02Z</time>
      </trkpt>
      <trkpt lat="48.74686" lon="7.63572">
        <ele>150</ele>
        <time>2020-08-08T13:23:03Z</time>
      </trkpt>
      <trkpt lat="48.7469" lon="7.63568">
        <ele>150</ele>
        <time>2020-08-08T13:23:04Z</time>
      </trkpt>
      <trkpt lat="48.74694" lon="7.63563">
        <ele>150</ele>
        <time>2020-08-08T13:23:05Z</time>
      </trkpt>
      <trkpt lat="48.74698" lon="7.63558">
        <ele>150</ele>
        <time>2020-08-08T13:23:06Z</time>
      </trkpt>
      <trkpt lat="48.74705" lon="7.6355">
        <ele>151</ele>
        <time>2020-08-08T13:23:08Z</time>
      </trkpt>
      <trkpt lat="48.74709" lon="7.63545">
        <ele>151</ele>
        <time>2020-08-08T13:23:09Z</time>
      </trkpt>
      <trkpt lat="48.74715" lon="7.63536">
        <ele>151</ele>
        <time>2020-08-08T13:23:11Z</time>
      </trkpt>
      <trkpt lat="48.74719" lon="7.63531">
        <ele>151</ele>
        <time>2020-08-08T13:23:12Z</time>
      </trkpt>
      <trkpt lat="48.74723" lon="7.63526">
        <ele>151</ele>
        <time>2020-08-08T13:23:13Z</time>
      </trkpt>
      <trkpt lat="48.74727" lon="7.63521">
        <ele>151</ele>
        <time>2020-08-08T13:23:14Z</time>
      </trkpt>
      <trkpt lat="48.7473" lon="7.63516">
        <ele>150</ele>
        <time>2020-08-08T13:23:15Z</time>
      </trkpt>
      <trkpt lat="48.74737" lon="7.63508">
        <ele>151</ele>
        <time>2020-08-08T13:23:17Z</time>
      </trkpt>
      <trkpt lat="48.74741" lon="7.63504">
        <ele>151</ele>
        <time>2020-08-08T13:23:18Z</time>
      </trkpt>
      <trkpt lat="48.74748" lon="7.63497">
        <ele>151</ele>
        <time>2020-08-08T13:23:20Z</time>
      </trkpt>
      <trkpt lat="48.74755" lon="7.63483">
        <ele>152</ele>
        <time>2020-08-08T13:23:23Z</time>
      </trkpt>
      <trkpt lat="48.74761" lon="7.63477">
        <ele>151</ele>
        <time>2020-08-08T13:23:25Z</time>
      </trkpt>
      <trkpt lat="48.74767" lon="7.63471">
        <ele>151</ele>
        <time>2020-08-08T13:23:27Z</time>
      </trkpt>
      <trkpt lat="48.74772" lon="7.63468">
        <ele>151</ele>
        <time>2020-08-08T13:23:28Z</time>
      </trkpt>
      <trkpt lat="48.74779" lon="7.63459">
        <ele>151</ele>
        <time>2020-08-08T13:23:30Z</time>
      </trkpt>
      <trkpt lat="48.74785" lon="7.6345">
        <ele>152</ele>
        <time>2020-08-08T13:23:32Z</time>
      </trkpt>
      <trkpt lat="48.74792" lon="7.63442">
        <ele>152</ele>
        <time>2020-08-08T13:23:34Z</time>
      </trkpt>
      <trkpt lat="48.74796" lon="7.63438">
        <ele>152</ele>
        <time>2020-08-08T13:23:35Z</time>
      </trkpt>
      <trkpt lat="48.74799" lon="7.63433">
        <ele>152</ele>
        <time>2020-08-08T13:23:36Z</time>
      </trkpt>
      <trkpt lat="48.74807" lon="7.63424">
        <ele>152</ele>
        <time>2020-08-08T13:23:38Z</time>
      </trkpt>
      <trkpt lat="48.7481" lon="7.63418">
        <ele>153</ele>
        <time>2020-08-08T13:23:39Z</time>
      </trkpt>
      <trkpt lat="48.74815" lon="7.63414">
        <ele>153</ele>
        <time>2020-08-08T13:23:40Z</time>
      </trkpt>
      <trkpt lat="48.74822" lon="7.63408">
        <ele>152</ele>
        <time>2020-08-08T13:23:42Z</time>
      </trkpt>
      <trkpt lat="48.74828" lon="7.63401">
        <ele>152</ele>
        <time>2020-08-08T13:23:44Z</time>
      </trkpt>
      <trkpt lat="48.74834" lon="7.63393">
        <ele>152</ele>
        <time>2020-08-08T13:23:46Z</time>
      </trkpt>
      <trkpt lat="48.74839" lon="7.63387">
        <ele>151</ele>
        <time>2020-08-08T13:23:47Z</time>
      </trkpt>
      <trkpt lat="48.74842" lon="7.63382">
        <ele>151</ele>
        <time>2020-08-08T13:23:48Z</time>
      </trkpt>
      <trkpt lat="48.74849" lon="7.63371">
        <ele>151</ele>
        <time>2020-08-08T13:23:50Z</time>
      </trkpt>
      <trkpt lat="48.74851" lon="7.63365">
        <ele>152</ele>
        <time>2020-08-08T13:23:51Z</time>
      </trkpt>
      <trkpt lat="48.74854" lon="7.63358">
        <ele>152</ele>
        <time>2020-08-08T13:23:52Z</time>
      </trkpt>
      <trkpt lat="48.74859" lon="7.63351">
        <ele>152</ele>
        <time>2020-08-08T13:23:53Z</time>
      </trkpt>
      <trkpt lat="48.74862" lon="7.63345">
        <ele>152</ele>
        <time>2020-08-08T13:23:54Z</time>
      </trkpt>
      <trkpt lat="48.74867" lon="7.63334">
        <ele>153</ele>
        <time>2020-08-08T13:23:56Z</time>
      </trkpt>
      <trkpt lat="48.7487" lon="7.63328">
        <ele>153</ele>
        <time>2020-08-08T13:23:57Z</time>
      </trkpt>
      <trkpt lat="48.74873" lon="7.63318">
        <ele>153</ele>
        <time>2020-08-08T13:23:59Z</time>
      </trkpt>
      <trkpt lat="48.74877" lon="7.6331">
        <ele>154</ele>
        <time>2020-08-08T13:24:01Z</time>
      </trkpt>
      <trkpt lat="48.74881" lon="7.63302">
        <ele>154</ele>
        <time>2020-08-08T13:24:03Z</time>
      </trkpt>
      <trkpt lat="48.74884" lon="7.63294">
        <ele>155</ele>
        <time>2020-08-08T13:24:05Z</time>
      </trkpt>
      <trkpt lat="48.74888" lon="7.63287">
        <ele>155</ele>
        <time>2020-08-08T13:24:07Z</time>
      </trkpt>
      <trkpt lat="48.74891" lon="7.63282">
        <ele>156</ele>
        <time>2020-08-08T13:24:09Z</time>
      </trkpt>
      <trkpt lat="48.74894" lon="7.63276">
        <ele>155</ele>
        <time>2020-08-08T13:24:12Z</time>
      </trkpt>
      <trkpt lat="48.74897" lon="7.63266">
        <ele>156</ele>
        <time>2020-08-08T13:24:15Z</time>
      </trkpt>
      <trkpt lat="48.749" lon="7.63257">
        <ele>156</ele>
        <time>2020-08-08T13:24:17Z</time>
      </trkpt>
      <trkpt lat="48.74902" lon="7.6325">
        <ele>156</ele>
        <time>2020-08-08T13:24:19Z</time>
      </trkpt>
      <trkpt lat="48.74905" lon="7.63242">
        <ele>156</ele>
        <time>2020-08-08T13:24:21Z</time>
      </trkpt>
      <trkpt lat="48.7491" lon="7.63233">
        <ele>156</ele>
        <time>2020-08-08T13:24:23Z</time>
      </trkpt>
      <trkpt lat="48.74914" lon="7.63225">
        <ele>157</ele>
        <time>2020-08-08T13:24:25Z</time>
      </trkpt>
      <trkpt lat="48.74918" lon="7.63217">
        <ele>156</ele>
        <time>2020-08-08T13:24:27Z</time>
      </trkpt>
      <trkpt lat="48.74921" lon="7.63208">
        <ele>156</ele>
        <time>2020-08-08T13:24:29Z</time>
      </trkpt>
      <trkpt lat="48.74925" lon="7.63199">
        <ele>155</ele>
        <time>2020-08-08T13:24:31Z</time>
      </trkpt>
      <trkpt lat="48.74926" lon="7.63188">
        <ele>155</ele>
        <time>2020-08-08T13:24:33Z</time>
      </trkpt>
      <trkpt lat="48.74927" lon="7.63176">
        <ele>154</ele>
        <time>2020-08-08T13:24:35Z</time>
      </trkpt>
      <trkpt lat="48.74929" lon="7.63165">
        <ele>154</ele>
        <time>2020-08-08T13:24:37Z</time>
      </trkpt>
      <trkpt lat="48.74932" lon="7.63155">
        <ele>154</ele>
        <time>2020-08-08T13:24:39Z</time>
      </trkpt>
      <trkpt lat="48.74935" lon="7.63141">
        <ele>154</ele>
        <time>2020-08-08T13:24:41Z</time>
      </trkpt>
      <trkpt lat="48.74936" lon="7.63134">
        <ele>154</ele>
        <time>2020-08-08T13:24:42Z</time>
      </trkpt>
      <trkpt lat="48.74938" lon="7.63122">
        <ele>154</ele>
        <time>2020-08-08T13:24:44Z</time>
      </trkpt>
      <trkpt lat="48.74941" lon="7.63116">
        <ele>154</ele>
        <time>2020-08-08T13:24:45Z</time>
      </trkpt>
      <trkpt lat="48.74942" lon="7.63109">
        <ele>155</ele>
        <time>2020-08-08T13:24:46Z</time>
      </trkpt>
      <trkpt lat="48.74943" lon="7.63102">
        <ele>155</ele>
        <time>2020-08-08T13:24:47Z</time>
      </trkpt>
      <trkpt lat="48.74946" lon="7.6309">
        <ele>155</ele>
        <time>2020-08-08T13:24:49Z</time>
      </trkpt>
      <trkpt lat="48.74948" lon="7.63084">
        <ele>155</ele>
        <time>2020-08-08T13:24:50Z</time>
      </trkpt>
      <trkpt lat="48.7495" lon="7.63077">
        <ele>156</ele>
        <time>2020-08-08T13:24:51Z</time>
      </trkpt>
      <trkpt lat="48.74954" lon="7.63065">
        <ele>156</ele>
        <time>2020-08-08T13:24:53Z</time>
      </trkpt>
      <trkpt lat="48.74962" lon="7.63047">
        <ele>156</ele>
        <time>2020-08-08T13:24:56Z</time>
      </trkpt>
      <trkpt lat="48.74965" lon="7.63035">
        <ele>156</ele>
        <time>2020-08-08T13:24:58Z</time>
      </trkpt>
      <trkpt lat="48.74968" lon="7.63023">
        <ele>156</ele>
        <time>2020-08-08T13:25:00Z</time>
      </trkpt>
      <trkpt lat="48.7497" lon="7.63016">
        <ele>156</ele>
        <time>2020-08-08T13:25:01Z</time>
      </trkpt>
      <trkpt lat="48.74973" lon="7.63003">
        <ele>156</ele>
        <time>2020-08-08T13:25:03Z</time>
      </trkpt>
      <trkpt lat="48.74974" lon="7.62996">
        <ele>156</ele>
        <time>2020-08-08T13:25:04Z</time>
      </trkpt>
      <trkpt lat="48.74977" lon="7.6299">
        <ele>156</ele>
        <time>2020-08-08T13:25:05Z</time>
      </trkpt>
      <trkpt lat="48.74979" lon="7.62984">
        <ele>156</ele>
        <time>2020-08-08T13:25:06Z</time>
      </trkpt>
      <trkpt lat="48.74984" lon="7.62973">
        <ele>155</ele>
        <time>2020-08-08T13:25:08Z</time>
      </trkpt>
      <trkpt lat="48.74987" lon="7.62963">
        <ele>155</ele>
        <time>2020-08-08T13:25:10Z</time>
      </trkpt>
      <trkpt lat="48.74988" lon="7.62953">
        <ele>155</ele>
        <time>2020-08-08T13:25:12Z</time>
      </trkpt>
      <trkpt lat="48.7499" lon="7.62944">
        <ele>155</ele>
        <time>2020-08-08T13:25:14Z</time>
      </trkpt>
      <trkpt lat="48.74991" lon="7.62935">
        <ele>155</ele>
        <time>2020-08-08T13:25:16Z</time>
      </trkpt>
      <trkpt lat="48.74992" lon="7.62926">
        <ele>155</ele>
        <time>2020-08-08T13:25:18Z</time>
      </trkpt>
      <trkpt lat="48.74991" lon="7.62918">
        <ele>156</ele>
        <time>2020-08-08T13:25:20Z</time>
      </trkpt>
      <trkpt lat="48.74991" lon="7.62908">
        <ele>156</ele>
        <time>2020-08-08T13:25:23Z</time>
      </trkpt>
      <trkpt lat="48.74992" lon="7.629">
        <ele>155</ele>
        <time>2020-08-08T13:25:25Z</time>
      </trkpt>
      <trkpt lat="48.74993" lon="7.62893">
        <ele>154</ele>
        <time>2020-08-08T13:25:26Z</time>
      </trkpt>
      <trkpt lat="48.74994" lon="7.62886">
        <ele>154</ele>
        <time>2020-08-08T13:25:27Z</time>
      </trkpt>
      <trkpt lat="48.74995" lon="7.62879">
        <ele>154</ele>
        <time>2020-08-08T13:25:28Z</time>
      </trkpt>
      <trkpt lat="48.74996" lon="7.62869">
        <ele>153</ele>
        <time>2020-08-08T13:25:29Z</time>
      </trkpt>
      <trkpt lat="48.74997" lon="7.6286">
        <ele>153</ele>
        <time>2020-08-08T13:25:30Z</time>
      </trkpt>
      <trkpt lat="48.74999" lon="7.6285">
        <ele>152</ele>
        <time>2020-08-08T13:25:31Z</time>
      </trkpt>
      <trkpt lat="48.75" lon="7.62841">
        <ele>152</ele>
        <time>2020-08-08T13:25:32Z</time>
      </trkpt>
      <trkpt lat="48.74999" lon="7.62832">
        <ele>152</ele>
        <time>2020-08-08T13:25:33Z</time>
      </trkpt>
      <trkpt lat="48.74999" lon="7.62823">
        <ele>152</ele>
        <time>2020-08-08T13:25:34Z</time>
      </trkpt>
      <trkpt lat="48.74998" lon="7.62813">
        <ele>152</ele>
        <time>2020-08-08T13:25:35Z</time>
      </trkpt>
      <trkpt lat="48.74997" lon="7.62804">
        <ele>152</ele>
        <time>2020-08-08T13:25:36Z</time>
      </trkpt>
      <trkpt lat="48.74997" lon="7.62795">
        <ele>152</ele>
        <time>2020-08-08T13:25:37Z</time>
      </trkpt>
      <trkpt lat="48.74998" lon="7.62787">
        <ele>152</ele>
        <time>2020-08-08T13:25:38Z</time>
      </trkpt>
      <trkpt lat="48.74998" lon="7.62779">
        <ele>152</ele>
        <time>2020-08-08T13:25:39Z</time>
      </trkpt>
      <trkpt lat="48.74997" lon="7.62771">
        <ele>152</ele>
        <time>2020-08-08T13:25:40Z</time>
      </trkpt>
      <trkpt lat="48.74996" lon="7.62762">
        <ele>152</ele>
        <time>2020-08-08T13:25:41Z</time>
      </trkpt>
      <trkpt lat="48.74996" lon="7.62755">
        <ele>152</ele>
        <time>2020-08-08T13:25:42Z</time>
      </trkpt>
      <trkpt lat="48.74995" lon="7.62743">
        <ele>152</ele>
        <time>2020-08-08T13:25:44Z</time>
      </trkpt>
      <trkpt lat="48.74996" lon="7.62733">
        <ele>152</ele>
        <time>2020-08-08T13:25:46Z</time>
      </trkpt>
      <trkpt lat="48.74995" lon="7.62726">
        <ele>152</ele>
        <time>2020-08-08T13:25:47Z</time>
      </trkpt>
      <trkpt lat="48.74994" lon="7.62719">
        <ele>152</ele>
        <time>2020-08-08T13:25:48Z</time>
      </trkpt>
      <trkpt lat="48.74994" lon="7.62707">
        <ele>152</ele>
        <time>2020-08-08T13:25:50Z</time>
      </trkpt>
      <trkpt lat="48.74992" lon="7.62694">
        <ele>152</ele>
        <time>2020-08-08T13:25:52Z</time>
      </trkpt>
      <trkpt lat="48.7499" lon="7.62681">
        <ele>152</ele>
        <time>2020-08-08T13:25:54Z</time>
      </trkpt>
      <trkpt lat="48.74988" lon="7.62673">
        <ele>153</ele>
        <time>2020-08-08T13:25:55Z</time>
      </trkpt>
      <trkpt lat="48.74987" lon="7.62667">
        <ele>153</ele>
        <time>2020-08-08T13:25:56Z</time>
      </trkpt>
      <trkpt lat="48.74987" lon="7.62659">
        <ele>153</ele>
        <time>2020-08-08T13:25:57Z</time>
      </trkpt>
      <trkpt lat="48.74988" lon="7.62646">
        <ele>152</ele>
        <time>2020-08-08T13:25:59Z</time>
      </trkpt>
      <trkpt lat="48.74987" lon="7.62638">
        <ele>152</ele>
        <time>2020-08-08T13:26:00Z</time>
      </trkpt>
      <trkpt lat="48.74987" lon="7.62631">
        <ele>152</ele>
        <time>2020-08-08T13:26:01Z</time>
      </trkpt>
      <trkpt lat="48.74987" lon="7.62621">
        <ele>152</ele>
        <time>2020-08-08T13:26:02Z</time>
      </trkpt>
      <trkpt lat="48.74986" lon="7.62614">
        <ele>152</ele>
        <time>2020-08-08T13:26:03Z</time>
      </trkpt>
      <trkpt lat="48.74984" lon="7.626">
        <ele>153</ele>
        <time>2020-08-08T13:26:05Z</time>
      </trkpt>
      <trkpt lat="48.74984" lon="7.62592">
        <ele>153</ele>
        <time>2020-08-08T13:26:06Z</time>
      </trkpt>
      <trkpt lat="48.74984" lon="7.62584">
        <ele>152</ele>
        <time>2020-08-08T13:26:07Z</time>
      </trkpt>
      <trkpt lat="48.74983" lon="7.62577">
        <ele>153</ele>
        <time>2020-08-08T13:26:08Z</time>
      </trkpt>
      <trkpt lat="48.74982" lon="7.6257">
        <ele>153</ele>
        <time>2020-08-08T13:26:09Z</time>
      </trkpt>
      <trkpt lat="48.7498" lon="7.62556">
        <ele>153</ele>
        <time>2020-08-08T13:26:11Z</time>
      </trkpt>
      <trkpt lat="48.74979" lon="7.62549">
        <ele>154</ele>
        <time>2020-08-08T13:26:12Z</time>
      </trkpt>
      <trkpt lat="48.74979" lon="7.62542">
        <ele>153</ele>
        <time>2020-08-08T13:26:13Z</time>
      </trkpt>
      <trkpt lat="48.74978" lon="7.62535">
        <ele>154</ele>
        <time>2020-08-08T13:26:14Z</time>
      </trkpt>
      <trkpt lat="48.74976" lon="7.62521">
        <ele>153</ele>
        <time>2020-08-08T13:26:16Z</time>
      </trkpt>
      <trkpt lat="48.74974" lon="7.62509">
        <ele>153</ele>
        <time>2020-08-08T13:26:18Z</time>
      </trkpt>
      <trkpt lat="48.74971" lon="7.62497">
        <ele>154</ele>
        <time>2020-08-08T13:26:20Z</time>
      </trkpt>
      <trkpt lat="48.74971" lon="7.62484">
        <ele>154</ele>
        <time>2020-08-08T13:26:22Z</time>
      </trkpt>
      <trkpt lat="48.74971" lon="7.62477">
        <ele>153</ele>
        <time>2020-08-08T13:26:23Z</time>
      </trkpt>
      <trkpt lat="48.7497" lon="7.6247">
        <ele>153</ele>
        <time>2020-08-08T13:26:24Z</time>
      </trkpt>
      <trkpt lat="48.74969" lon="7.62463">
        <ele>153</ele>
        <time>2020-08-08T13:26:25Z</time>
      </trkpt>
      <trkpt lat="48.74968" lon="7.6245">
        <ele>153</ele>
        <time>2020-08-08T13:26:27Z</time>
      </trkpt>
      <trkpt lat="48.74966" lon="7.62441">
        <ele>153</ele>
        <time>2020-08-08T13:26:28Z</time>
      </trkpt>
      <trkpt lat="48.74965" lon="7.62427">
        <ele>153</ele>
        <time>2020-08-08T13:26:30Z</time>
      </trkpt>
      <trkpt lat="48.74965" lon="7.6242">
        <ele>153</ele>
        <time>2020-08-08T13:26:31Z</time>
      </trkpt>
      <trkpt lat="48.74963" lon="7.62413">
        <ele>154</ele>
        <time>2020-08-08T13:26:32Z</time>
      </trkpt>
      <trkpt lat="48.74964" lon="7.62406">
        <ele>153</ele>
        <time>2020-08-08T13:26:33Z</time>
      </trkpt>
      <trkpt lat="48.74963" lon="7.62393">
        <ele>153</ele>
        <time>2020-08-08T13:26:35Z</time>
      </trkpt>
      <trkpt lat="48.74963" lon="7.62386">
        <ele>154</ele>
        <time>2020-08-08T13:26:36Z</time>
      </trkpt>
      <trkpt lat="48.74962" lon="7.62379">
        <ele>154</ele>
        <time>2020-08-08T13:26:37Z</time>
      </trkpt>
      <trkpt lat="48.74962" lon="7.62366">
        <ele>154</ele>
        <time>2020-08-08T13:26:39Z</time>
      </trkpt>
      <trkpt lat="48.74963" lon="7.62359">
        <ele>154</ele>
        <time>2020-08-08T13:26:40Z</time>
      </trkpt>
      <trkpt lat="48.74961" lon="7.62349">
        <ele>156</ele>
        <time>2020-08-08T13:26:41Z</time>
      </trkpt>
      <trkpt lat="48.74959" lon="7.62339">
        <ele>159</ele>
        <time>2020-08-08T13:26:42Z</time>
      </trkpt>
      <trkpt lat="48.74958" lon="7.62332">
        <ele>160</ele>
        <time>2020-08-08T13:26:43Z</time>
      </trkpt>
      <trkpt lat="48.74961" lon="7.62319">
        <ele>157</ele>
        <time>2020-08-08T13:26:45Z</time>
      </trkpt>
      <trkpt lat="48.7496" lon="7.62311">
        <ele>158</ele>
        <time>2020-08-08T13:26:46Z</time>
      </trkpt>
      <trkpt lat="48.74961" lon="7.62302">
        <ele>157</ele>
        <time>2020-08-08T13:26:47Z</time>
      </trkpt>
      <trkpt lat="48.74961" lon="7.62295">
        <ele>157</ele>
        <time>2020-08-08T13:26:48Z</time>
      </trkpt>
      <trkpt lat="48.74962" lon="7.62287">
        <ele>158</ele>
        <time>2020-08-08T13:26:49Z</time>
      </trkpt>
      <trkpt lat="48.74963" lon="7.6228">
        <ele>157</ele>
        <time>2020-08-08T13:26:50Z</time>
      </trkpt>
      <trkpt lat="48.74964" lon="7.62273">
        <ele>157</ele>
        <time>2020-08-08T13:26:51Z</time>
      </trkpt>
      <trkpt lat="48.74965" lon="7.62266">
        <ele>157</ele>
        <time>2020-08-08T13:26:52Z</time>
      </trkpt>
      <trkpt lat="48.74964" lon="7.62258">
        <ele>160</ele>
        <time>2020-08-08T13:26:53Z</time>
      </trkpt>
      <trkpt lat="48.74966" lon="7.62243">
        <ele>159</ele>
        <time>2020-08-08T13:26:55Z</time>
      </trkpt>
      <trkpt lat="48.74967" lon="7.62237">
        <ele>159</ele>
        <time>2020-08-08T13:26:56Z</time>
      </trkpt>
      <trkpt lat="48.74969" lon="7.62224">
        <ele>159</ele>
        <time>2020-08-08T13:26:58Z</time>
      </trkpt>
      <trkpt lat="48.74969" lon="7.62216">
        <ele>160</ele>
        <time>2020-08-08T13:26:59Z</time>
      </trkpt>
      <trkpt lat="48.74971" lon="7.62203">
        <ele>160</ele>
        <time>2020-08-08T13:27:01Z</time>
      </trkpt>
      <trkpt lat="48.74973" lon="7.6219">
        <ele>159</ele>
        <time>2020-08-08T13:27:03Z</time>
      </trkpt>
      <trkpt lat="48.74973" lon="7.62182">
        <ele>160</ele>
        <time>2020-08-08T13:27:04Z</time>
      </trkpt>
      <trkpt lat="48.74974" lon="7.62175">
        <ele>159</ele>
        <time>2020-08-08T13:27:05Z</time>
      </trkpt>
      <trkpt lat="48.74976" lon="7.62167">
        <ele>157</ele>
        <time>2020-08-08T13:27:06Z</time>
      </trkpt>
      <trkpt lat="48.74977" lon="7.6216">
        <ele>158</ele>
        <time>2020-08-08T13:27:07Z</time>
      </trkpt>
      <trkpt lat="48.74979" lon="7.62152">
        <ele>158</ele>
        <time>2020-08-08T13:27:08Z</time>
      </trkpt>
      <trkpt lat="48.74981" lon="7.62145">
        <ele>156</ele>
        <time>2020-08-08T13:27:09Z</time>
      </trkpt>
      <trkpt lat="48.74984" lon="7.62128">
        <ele>155</ele>
        <time>2020-08-08T13:27:12Z</time>
      </trkpt>
      <trkpt lat="48.74986" lon="7.62121">
        <ele>155</ele>
        <time>2020-08-08T13:27:13Z</time>
      </trkpt>
      <trkpt lat="48.74987" lon="7.62108">
        <ele>155</ele>
        <time>2020-08-08T13:27:15Z</time>
      </trkpt>
      <trkpt lat="48.74988" lon="7.621">
        <ele>154</ele>
        <time>2020-08-08T13:27:16Z</time>
      </trkpt>
      <trkpt lat="48.74987" lon="7.62093">
        <ele>154</ele>
        <time>2020-08-08T13:27:17Z</time>
      </trkpt>
      <trkpt lat="48.74988" lon="7.62086">
        <ele>154</ele>
        <time>2020-08-08T13:27:18Z</time>
      </trkpt>
      <trkpt lat="48.74987" lon="7.62078">
        <ele>154</ele>
        <time>2020-08-08T13:27:19Z</time>
      </trkpt>
      <trkpt lat="48.74989" lon="7.62069">
        <ele>153</ele>
        <time>2020-08-08T13:27:21Z</time>
      </trkpt>
      <trkpt lat="48.7499" lon="7.62061">
        <ele>153</ele>
        <time>2020-08-08T13:27:22Z</time>
      </trkpt>
      <trkpt lat="48.74989" lon="7.6205">
        <ele>153</ele>
        <time>2020-08-08T13:27:24Z</time>
      </trkpt>
      <trkpt lat="48.74988" lon="7.62041">
        <ele>154</ele>
        <time>2020-08-08T13:27:25Z</time>
      </trkpt>
      <trkpt lat="48.74988" lon="7.62033">
        <ele>153</ele>
        <time>2020-08-08T13:27:26Z</time>
      </trkpt>
      <trkpt lat="48.74987" lon="7.6202">
        <ele>153</ele>
        <time>2020-08-08T13:27:28Z</time>
      </trkpt>
      <trkpt lat="48.74986" lon="7.62012">
        <ele>153</ele>
        <time>2020-08-08T13:27:29Z</time>
      </trkpt>
      <trkpt lat="48.74987" lon="7.61999">
        <ele>153</ele>
        <time>2020-08-08T13:27:31Z</time>
      </trkpt>
      <trkpt lat="48.74987" lon="7.61992">
        <ele>152</ele>
        <time>2020-08-08T13:27:32Z</time>
      </trkpt>
      <trkpt lat="48.74985" lon="7.61984">
        <ele>152</ele>
        <time>2020-08-08T13:27:33Z</time>
      </trkpt>
      <trkpt lat="48.74983" lon="7.61971">
        <ele>153</ele>
        <time>2020-08-08T13:27:35Z</time>
      </trkpt>
      <trkpt lat="48.74982" lon="7.61959">
        <ele>154</ele>
        <time>2020-08-08T13:27:37Z</time>
      </trkpt>
      <trkpt lat="48.74981" lon="7.61945">
        <ele>154</ele>
        <time>2020-08-08T13:27:39Z</time>
      </trkpt>
      <trkpt lat="48.74978" lon="7.61935">
        <ele>156</ele>
        <time>2020-08-08T13:27:41Z</time>
      </trkpt>
      <trkpt lat="48.74976" lon="7.61928">
        <ele>156</ele>
        <time>2020-08-08T13:27:42Z</time>
      </trkpt>
      <trkpt lat="48.74975" lon="7.61921">
        <ele>156</ele>
        <time>2020-08-08T13:27:43Z</time>
      </trkpt>
      <trkpt lat="48.74973" lon="7.61914">
        <ele>157</ele>
        <time>2020-08-08T13:27:44Z</time>
      </trkpt>
      <trkpt lat="48.74971" lon="7.61906">
        <ele>157</ele>
        <time>2020-08-08T13:27:45Z</time>
      </trkpt>
      <trkpt lat="48.7497" lon="7.61899">
        <ele>157</ele>
        <time>2020-08-08T13:27:46Z</time>
      </trkpt>
      <trkpt lat="48.74968" lon="7.61892">
        <ele>157</ele>
        <time>2020-08-08T13:27:47Z</time>
      </trkpt>
      <trkpt lat="48.74966" lon="7.61885">
        <ele>157</ele>
        <time>2020-08-08T13:27:48Z</time>
      </trkpt>
      <trkpt lat="48.74963" lon="7.61874">
        <ele>157</ele>
        <time>2020-08-08T13:27:50Z</time>
      </trkpt>
      <trkpt lat="48.7496" lon="7.61868">
        <ele>158</ele>
        <time>2020-08-08T13:27:51Z</time>
      </trkpt>
      <trkpt lat="48.74957" lon="7.61862">
        <ele>158</ele>
        <time>2020-08-08T13:27:52Z</time>
      </trkpt>
      <trkpt lat="48.74955" lon="7.61856">
        <ele>158</ele>
        <time>2020-08-08T13:27:53Z</time>
      </trkpt>
      <trkpt lat="48.74954" lon="7.61849">
        <ele>159</ele>
        <time>2020-08-08T13:27:54Z</time>
      </trkpt>
      <trkpt lat="48.74952" lon="7.61843">
        <ele>158</ele>
        <time>2020-08-08T13:27:55Z</time>
      </trkpt>
      <trkpt lat="48.7495" lon="7.61835">
        <ele>156</ele>
        <time>2020-08-08T13:27:56Z</time>
      </trkpt>
      <trkpt lat="48.74946" lon="7.61822">
        <ele>157</ele>
        <time>2020-08-08T13:27:58Z</time>
      </trkpt>
      <trkpt lat="48.74943" lon="7.61816">
        <ele>158</ele>
        <time>2020-08-08T13:27:59Z</time>
      </trkpt>
      <trkpt lat="48.74941" lon="7.61809">
        <ele>157</ele>
        <time>2020-08-08T13:28:00Z</time>
      </trkpt>
      <trkpt lat="48.74939" lon="7.61803">
        <ele>158</ele>
        <time>2020-08-08T13:28:01Z</time>
      </trkpt>
      <trkpt lat="48.74935" lon="7.61788">
        <ele>156</ele>
        <time>2020-08-08T13:28:03Z</time>
      </trkpt>
      <trkpt lat="48.74932" lon="7.61783">
        <ele>157</ele>
        <time>2020-08-08T13:28:04Z</time>
      </trkpt>
      <trkpt lat="48.74929" lon="7.61776">
        <ele>157</ele>
        <time>2020-08-08T13:28:05Z</time>
      </trkpt>
      <trkpt lat="48.74927" lon="7.61769">
        <ele>157</ele>
        <time>2020-08-08T13:28:06Z</time>
      </trkpt>
      <trkpt lat="48.74923" lon="7.61757">
        <ele>156</ele>
        <time>2020-08-08T13:28:08Z</time>
      </trkpt>
      <trkpt lat="48.74921" lon="7.61749">
        <ele>155</ele>
        <time>2020-08-08T13:28:09Z</time>
      </trkpt>
      <trkpt lat="48.7492" lon="7.61742">
        <ele>154</ele>
        <time>2020-08-08T13:28:10Z</time>
      </trkpt>
      <trkpt lat="48.74918" lon="7.61736">
        <ele>153</ele>
        <time>2020-08-08T13:28:11Z</time>
      </trkpt>
      <trkpt lat="48.74916" lon="7.61729">
        <ele>153</ele>
        <time>2020-08-08T13:28:12Z</time>
      </trkpt>
      <trkpt lat="48.74915" lon="7.61722">
        <ele>153</ele>
        <time>2020-08-08T13:28:13Z</time>
      </trkpt>
      <trkpt lat="48.74913" lon="7.61715">
        <ele>154</ele>
        <time>2020-08-08T13:28:14Z</time>
      </trkpt>
      <trkpt lat="48.74912" lon="7.61708">
        <ele>155</ele>
        <time>2020-08-08T13:28:15Z</time>
      </trkpt>
      <trkpt lat="48.7491" lon="7.61701">
        <ele>154</ele>
        <time>2020-08-08T13:28:16Z</time>
      </trkpt>
      <trkpt lat="48.74907" lon="7.61695">
        <ele>155</ele>
        <time>2020-08-08T13:28:17Z</time>
      </trkpt>
      <trkpt lat="48.74904" lon="7.61683">
        <ele>157</ele>
        <time>2020-08-08T13:28:19Z</time>
      </trkpt>
      <trkpt lat="48.74901" lon="7.6167">
        <ele>158</ele>
        <time>2020-08-08T13:28:21Z</time>
      </trkpt>
      <trkpt lat="48.74897" lon="7.61653">
        <ele>157</ele>
        <time>2020-08-08T13:28:24Z</time>
      </trkpt>
      <trkpt lat="48.74894" lon="7.61641">
        <ele>159</ele>
        <time>2020-08-08T13:28:26Z</time>
      </trkpt>
      <trkpt lat="48.74892" lon="7.61628">
        <ele>160</ele>
        <time>2020-08-08T13:28:28Z</time>
      </trkpt>
      <trkpt lat="48.7489" lon="7.61621">
        <ele>160</ele>
        <time>2020-08-08T13:28:29Z</time>
      </trkpt>
      <trkpt lat="48.74889" lon="7.61614">
        <ele>160</ele>
        <time>2020-08-08T13:28:30Z</time>
      </trkpt>
      <trkpt lat="48.74889" lon="7.61606">
        <ele>159</ele>
        <time>2020-08-08T13:28:31Z</time>
      </trkpt>
      <trkpt lat="48.74889" lon="7.616">
        <ele>158</ele>
        <time>2020-08-08T13:28:32Z</time>
      </trkpt>
      <trkpt lat="48.74888" lon="7.61592">
        <ele>159</ele>
        <time>2020-08-08T13:28:33Z</time>
      </trkpt>
      <trkpt lat="48.74888" lon="7.61584">
        <ele>159</ele>
        <time>2020-08-08T13:28:34Z</time>
      </trkpt>
      <trkpt lat="48.74887" lon="7.61577">
        <ele>159</ele>
        <time>2020-08-08T13:28:35Z</time>
      </trkpt>
      <trkpt lat="48.74886" lon="7.6157">
        <ele>161</ele>
        <time>2020-08-08T13:28:36Z</time>
      </trkpt>
      <trkpt lat="48.74886" lon="7.61562">
        <ele>160</ele>
        <time>2020-08-08T13:28:37Z</time>
      </trkpt>
      <trkpt lat="48.74885" lon="7.61555">
        <ele>162</ele>
        <time>2020-08-08T13:28:38Z</time>
      </trkpt>
      <trkpt lat="48.74884" lon="7.6154">
        <ele>163</ele>
        <time>2020-08-08T13:28:40Z</time>
      </trkpt>
      <trkpt lat="48.74884" lon="7.61532">
        <ele>163</ele>
        <time>2020-08-08T13:28:41Z</time>
      </trkpt>
      <trkpt lat="48.74884" lon="7.61523">
        <ele>163</ele>
        <time>2020-08-08T13:28:42Z</time>
      </trkpt>
      <trkpt lat="48.74884" lon="7.61515">
        <ele>162</ele>
        <time>2020-08-08T13:28:43Z</time>
      </trkpt>
      <trkpt lat="48.74884" lon="7.61501">
        <ele>161</ele>
        <time>2020-08-08T13:28:45Z</time>
      </trkpt>
      <trkpt lat="48.74883" lon="7.61494">
        <ele>162</ele>
        <time>2020-08-08T13:28:46Z</time>
      </trkpt>
      <trkpt lat="48.74883" lon="7.61481">
        <ele>160</ele>
        <time>2020-08-08T13:28:48Z</time>
      </trkpt>
      <trkpt lat="48.74883" lon="7.61468">
        <ele>159</ele>
        <time>2020-08-08T13:28:50Z</time>
      </trkpt>
      <trkpt lat="48.74883" lon="7.6146">
        <ele>158</ele>
        <time>2020-08-08T13:28:51Z</time>
      </trkpt>
      <trkpt lat="48.74883" lon="7.61453">
        <ele>157</ele>
        <time>2020-08-08T13:28:52Z</time>
      </trkpt>
      <trkpt lat="48.74882" lon="7.61446">
        <ele>157</ele>
        <time>2020-08-08T13:28:53Z</time>
      </trkpt>
      <trkpt lat="48.74882" lon="7.61439">
        <ele>156</ele>
        <time>2020-08-08T13:28:54Z</time>
      </trkpt>
      <trkpt lat="48.74882" lon="7.61432">
        <ele>155</ele>
        <time>2020-08-08T13:28:55Z</time>
      </trkpt>
      <trkpt lat="48.74882" lon="7.61425">
        <ele>154</ele>
        <time>2020-08-08T13:28:56Z</time>
      </trkpt>
      <trkpt lat="48.74882" lon="7.61418">
        <ele>154</ele>
        <time>2020-08-08T13:28:57Z</time>
      </trkpt>
      <trkpt lat="48.74881" lon="7.6141">
        <ele>154</ele>
        <time>2020-08-08T13:28:58Z</time>
      </trkpt>
      <trkpt lat="48.74881" lon="7.61403">
        <ele>154</ele>
        <time>2020-08-08T13:28:59Z</time>
      </trkpt>
      <trkpt lat="48.74881" lon="7.61395">
        <ele>153</ele>
        <time>2020-08-08T13:29:00Z</time>
      </trkpt>
      <trkpt lat="48.74881" lon="7.61387">
        <ele>153</ele>
        <time>2020-08-08T13:29:01Z</time>
      </trkpt>
      <trkpt lat="48.74879" lon="7.61372">
        <ele>154</ele>
        <time>2020-08-08T13:29:03Z</time>
      </trkpt>
      <trkpt lat="48.7488" lon="7.61359">
        <ele>154</ele>
        <time>2020-08-08T13:29:05Z</time>
      </trkpt>
      <trkpt lat="48.74879" lon="7.61351">
        <ele>153</ele>
        <time>2020-08-08T13:29:06Z</time>
      </trkpt>
      <trkpt lat="48.74879" lon="7.61342">
        <ele>153</ele>
        <time>2020-08-08T13:29:07Z</time>
      </trkpt>
      <trkpt lat="48.74878" lon="7.61334">
        <ele>154</ele>
        <time>2020-08-08T13:29:08Z</time>
      </trkpt>
      <trkpt lat="48.74878" lon="7.61327">
        <ele>153</ele>
        <time>2020-08-08T13:29:09Z</time>
      </trkpt>
      <trkpt lat="48.74878" lon="7.61319">
        <ele>153</ele>
        <time>2020-08-08T13:29:10Z</time>
      </trkpt>
      <trkpt lat="48.74877" lon="7.61304">
        <ele>154</ele>
        <time>2020-08-08T13:29:12Z</time>
      </trkpt>
      <trkpt lat="48.74877" lon="7.61296">
        <ele>154</ele>
        <time>2020-08-08T13:29:13Z</time>
      </trkpt>
      <trkpt lat="48.74877" lon="7.61289">
        <ele>154</ele>
        <time>2020-08-08T13:29:14Z</time>
      </trkpt>
      <trkpt lat="48.74876" lon="7.61277">
        <ele>154</ele>
        <time>2020-08-08T13:29:16Z</time>
      </trkpt>
      <trkpt lat="48.74876" lon="7.61269">
        <ele>154</ele>
        <time>2020-08-08T13:29:17Z</time>
      </trkpt>
      <trkpt lat="48.74876" lon="7.61257">
        <ele>154</ele>
        <time>2020-08-08T13:29:19Z</time>
      </trkpt>
      <trkpt lat="48.74875" lon="7.61241">
        <ele>154</ele>
        <time>2020-08-08T13:29:21Z</time>
      </trkpt>
      <trkpt lat="48.74874" lon="7.61231">
        <ele>154</ele>
        <time>2020-08-08T13:29:22Z</time>
      </trkpt>
      <trkpt lat="48.74874" lon="7.61223">
        <ele>154</ele>
        <time>2020-08-08T13:29:23Z</time>
      </trkpt>
      <trkpt lat="48.74874" lon="7.61215">
        <ele>154</ele>
        <time>2020-08-08T13:29:24Z</time>
      </trkpt>
      <trkpt lat="48.74874" lon="7.61208">
        <ele>154</ele>
        <time>2020-08-08T13:29:25Z</time>
      </trkpt>
      <trkpt lat="48.74873" lon="7.61201">
        <ele>154</ele>
        <time>2020-08-08T13:29:26Z</time>
      </trkpt>
      <trkpt lat="48.74873" lon="7.61188">
        <ele>154</ele>
        <time>2020-08-08T13:29:28Z</time>
      </trkpt>
      <trkpt lat="48.74873" lon="7.61181">
        <ele>154</ele>
        <time>2020-08-08T13:29:29Z</time>
      </trkpt>
      <trkpt lat="48.74873" lon="7.61173">
        <ele>154</ele>
        <time>2020-08-08T13:29:30Z</time>
      </trkpt>
      <trkpt lat="48.74872" lon="7.61166">
        <ele>155</ele>
        <time>2020-08-08T13:29:31Z</time>
      </trkpt>
      <trkpt lat="48.74872" lon="7.61158">
        <ele>155</ele>
        <time>2020-08-08T13:29:32Z</time>
      </trkpt>
      <trkpt lat="48.74871" lon="7.6115">
        <ele>155</ele>
        <time>2020-08-08T13:29:33Z</time>
      </trkpt>
      <trkpt lat="48.7487" lon="7.61136">
        <ele>155</ele>
        <time>2020-08-08T13:29:35Z</time>
      </trkpt>
      <trkpt lat="48.7487" lon="7.61129">
        <ele>155</ele>
        <time>2020-08-08T13:29:36Z</time>
      </trkpt>
      <trkpt lat="48.7487" lon="7.61122">
        <ele>155</ele>
        <time>2020-08-08T13:29:37Z</time>
      </trkpt>
      <trkpt lat="48.7487" lon="7.61114">
        <ele>155</ele>
        <time>2020-08-08T13:29:38Z</time>
      </trkpt>
      <trkpt lat="48.7487" lon="7.61107">
        <ele>154</ele>
        <time>2020-08-08T13:29:39Z</time>
      </trkpt>
      <trkpt lat="48.74868" lon="7.61093">
        <ele>155</ele>
        <time>2020-08-08T13:29:41Z</time>
      </trkpt>
      <trkpt lat="48.74867" lon="7.61085">
        <ele>155</ele>
        <time>2020-08-08T13:29:42Z</time>
      </trkpt>
      <trkpt lat="48.74866" lon="7.61076">
        <ele>156</ele>
        <time>2020-08-08T13:29:43Z</time>
      </trkpt>
      <trkpt lat="48.74865" lon="7.61069">
        <ele>156</ele>
        <time>2020-08-08T13:29:44Z</time>
      </trkpt>
      <trkpt lat="48.74864" lon="7.61056">
        <ele>155</ele>
        <time>2020-08-08T13:29:46Z</time>
      </trkpt>
      <trkpt lat="48.74864" lon="7.61043">
        <ele>156</ele>
        <time>2020-08-08T13:29:48Z</time>
      </trkpt>
      <trkpt lat="48.74865" lon="7.61034">
        <ele>155</ele>
        <time>2020-08-08T13:29:50Z</time>
      </trkpt>
      <trkpt lat="48.74865" lon="7.61025">
        <ele>155</ele>
        <time>2020-08-08T13:29:51Z</time>
      </trkpt>
      <trkpt lat="48.74864" lon="7.61017">
        <ele>156</ele>
        <time>2020-08-08T13:29:52Z</time>
      </trkpt>
      <trkpt lat="48.74865" lon="7.61011">
        <ele>155</ele>
        <time>2020-08-08T13:29:53Z</time>
      </trkpt>
      <trkpt lat="48.74865" lon="7.61002">
        <ele>155</ele>
        <time>2020-08-08T13:29:54Z</time>
      </trkpt>
      <trkpt lat="48.74865" lon="7.60995">
        <ele>155</ele>
        <time>2020-08-08T13:29:55Z</time>
      </trkpt>
      <trkpt lat="48.74866" lon="7.60981">
        <ele>154</ele>
        <time>2020-08-08T13:29:57Z</time>
      </trkpt>
      <trkpt lat="48.74866" lon="7.60974">
        <ele>154</ele>
        <time>2020-08-08T13:29:58Z</time>
      </trkpt>
      <trkpt lat="48.74865" lon="7.6096">
        <ele>155</ele>
        <time>2020-08-08T13:30:00Z</time>
      </trkpt>
      <trkpt lat="48.74865" lon="7.60952">
        <ele>155</ele>
        <time>2020-08-08T13:30:01Z</time>
      </trkpt>
      <trkpt lat="48.74864" lon="7.60944">
        <ele>156</ele>
        <time>2020-08-08T13:30:02Z</time>
      </trkpt>
      <trkpt lat="48.74864" lon="7.60937">
        <ele>155</ele>
        <time>2020-08-08T13:30:03Z</time>
      </trkpt>
      <trkpt lat="48.74864" lon="7.6093">
        <ele>155</ele>
        <time>2020-08-08T13:30:04Z</time>
      </trkpt>
      <trkpt lat="48.74863" lon="7.60921">
        <ele>156</ele>
        <time>2020-08-08T13:30:05Z</time>
      </trkpt>
      <trkpt lat="48.74863" lon="7.60914">
        <ele>155</ele>
        <time>2020-08-08T13:30:06Z</time>
      </trkpt>
      <trkpt lat="48.74863" lon="7.60906">
        <ele>155</ele>
        <time>2020-08-08T13:30:07Z</time>
      </trkpt>
      <trkpt lat="48.74863" lon="7.60899">
        <ele>155</ele>
        <time>2020-08-08T13:30:08Z</time>
      </trkpt>
      <trkpt lat="48.74863" lon="7.60891">
        <ele>155</ele>
        <time>2020-08-08T13:30:09Z</time>
      </trkpt>
      <trkpt lat="48.74862" lon="7.60884">
        <ele>155</ele>
        <time>2020-08-08T13:30:10Z</time>
      </trkpt>
      <trkpt lat="48.74862" lon="7.60876">
        <ele>155</ele>
        <time>2020-08-08T13:30:11Z</time>
      </trkpt>
      <trkpt lat="48.74862" lon="7.60869">
        <ele>154</ele>
        <time>2020-08-08T13:30:12Z</time>
      </trkpt>
      <trkpt lat="48.74861" lon="7.60862">
        <ele>154</ele>
        <time>2020-08-08T13:30:13Z</time>
      </trkpt>
      <trkpt lat="48.7486" lon="7.60855">
        <ele>154</ele>
        <time>2020-08-08T13:30:14Z</time>
      </trkpt>
      <trkpt lat="48.7486" lon="7.60848">
        <ele>154</ele>
        <time>2020-08-08T13:30:15Z</time>
      </trkpt>
      <trkpt lat="48.7486" lon="7.6084">
        <ele>154</ele>
        <time>2020-08-08T13:30:16Z</time>
      </trkpt>
      <trkpt lat="48.7486" lon="7.60833">
        <ele>154</ele>
        <time>2020-08-08T13:30:17Z</time>
      </trkpt>
      <trkpt lat="48.7486" lon="7.60825">
        <ele>154</ele>
        <time>2020-08-08T13:30:18Z</time>
      </trkpt>
      <trkpt lat="48.7486" lon="7.60817">
        <ele>154</ele>
        <time>2020-08-08T13:30:19Z</time>
      </trkpt>
      <trkpt lat="48.74859" lon="7.6081">
        <ele>154</ele>
        <time>2020-08-08T13:30:20Z</time>
      </trkpt>
      <trkpt lat="48.74859" lon="7.60803">
        <ele>155</ele>
        <time>2020-08-08T13:30:21Z</time>
      </trkpt>
      <trkpt lat="48.74858" lon="7.60789">
        <ele>155</ele>
        <time>2020-08-08T13:30:23Z</time>
      </trkpt>
      <trkpt lat="48.74857" lon="7.60776">
        <ele>156</ele>
        <time>2020-08-08T13:30:25Z</time>
      </trkpt>
      <trkpt lat="48.74857" lon="7.60765">
        <ele>156</ele>
        <time>2020-08-08T13:30:27Z</time>
      </trkpt>
      <trkpt lat="48.74856" lon="7.60755">
        <ele>157</ele>
        <time>2020-08-08T13:30:29Z</time>
      </trkpt>
      <trkpt lat="48.74857" lon="7.60745">
        <ele>157</ele>
        <time>2020-08-08T13:30:31Z</time>
      </trkpt>
      <trkpt lat="48.74858" lon="7.60736">
        <ele>157</ele>
        <time>2020-08-08T13:30:33Z</time>
      </trkpt>
      <trkpt lat="48.74858" lon="7.60728">
        <ele>157</ele>
        <time>2020-08-08T13:30:35Z</time>
      </trkpt>
      <trkpt lat="48.74858" lon="7.6072">
        <ele>157</ele>
        <time>2020-08-08T13:30:37Z</time>
      </trkpt>
      <trkpt lat="48.74857" lon="7.60712">
        <ele>158</ele>
        <time>2020-08-08T13:30:39Z</time>
      </trkpt>
      <trkpt lat="48.74857" lon="7.60703">
        <ele>158</ele>
        <time>2020-08-08T13:30:41Z</time>
      </trkpt>
      <trkpt lat="48.74857" lon="7.60693">
        <ele>158</ele>
        <time>2020-08-08T13:30:43Z</time>
      </trkpt>
      <trkpt lat="48.74856" lon="7.60684">
        <ele>158</ele>
        <time>2020-08-08T13:30:45Z</time>
      </trkpt>
      <trkpt lat="48.74855" lon="7.60673">
        <ele>157</ele>
        <time>2020-08-08T13:30:47Z</time>
      </trkpt>
      <trkpt lat="48.74854" lon="7.60662">
        <ele>156</ele>
        <time>2020-08-08T13:30:49Z</time>
      </trkpt>
      <trkpt lat="48.74854" lon="7.60652">
        <ele>156</ele>
        <time>2020-08-08T13:30:51Z</time>
      </trkpt>
      <trkpt lat="48.74853" lon="7.60641">
        <ele>156</ele>
        <time>2020-08-08T13:30:53Z</time>
      </trkpt>
      <trkpt lat="48.74852" lon="7.6063">
        <ele>156</ele>
        <time>2020-08-08T13:30:55Z</time>
      </trkpt>
      <trkpt lat="48.74852" lon="7.60619">
        <ele>156</ele>
        <time>2020-08-08T13:30:57Z</time>
      </trkpt>
      <trkpt lat="48.74849" lon="7.60609">
        <ele>157</ele>
        <time>2020-08-08T13:30:59Z</time>
      </trkpt>
      <trkpt lat="48.74848" lon="7.606">
        <ele>156</ele>
        <time>2020-08-08T13:31:01Z</time>
      </trkpt>
      <trkpt lat="48.74845" lon="7.60591">
        <ele>157</ele>
        <time>2020-08-08T13:31:03Z</time>
      </trkpt>
      <trkpt lat="48.74843" lon="7.6058">
        <ele>157</ele>
        <time>2020-08-08T13:31:05Z</time>
      </trkpt>
      <trkpt lat="48.7484" lon="7.60571">
        <ele>158</ele>
        <time>2020-08-08T13:31:07Z</time>
      </trkpt>
      <trkpt lat="48.74838" lon="7.60561">
        <ele>158</ele>
        <time>2020-08-08T13:31:09Z</time>
      </trkpt>
      <trkpt lat="48.74833" lon="7.6055">
        <ele>158</ele>
        <time>2020-08-08T13:31:11Z</time>
      </trkpt>
      <trkpt lat="48.7483" lon="7.60539">
        <ele>158</ele>
        <time>2020-08-08T13:31:13Z</time>
      </trkpt>
      <trkpt lat="48.74827" lon="7.60528">
        <ele>158</ele>
        <time>2020-08-08T13:31:15Z</time>
      </trkpt>
      <trkpt lat="48.74823" lon="7.6052">
        <ele>158</ele>
        <time>2020-08-08T13:31:17Z</time>
      </trkpt>
      <trkpt lat="48.7482" lon="7.60509">
        <ele>158</ele>
        <time>2020-08-08T13:31:19Z</time>
      </trkpt>
      <trkpt lat="48.74818" lon="7.60503">
        <ele>157</ele>
        <time>2020-08-08T13:31:20Z</time>
      </trkpt>
      <trkpt lat="48.74815" lon="7.60497">
        <ele>157</ele>
        <time>2020-08-08T13:31:21Z</time>
      </trkpt>
      <trkpt lat="48.74812" lon="7.60491">
        <ele>157</ele>
        <time>2020-08-08T13:31:22Z</time>
      </trkpt>
      <trkpt lat="48.74808" lon="7.60479">
        <ele>157</ele>
        <time>2020-08-08T13:31:24Z</time>
      </trkpt>
      <trkpt lat="48.74806" lon="7.60473">
        <ele>157</ele>
        <time>2020-08-08T13:31:25Z</time>
      </trkpt>
      <trkpt lat="48.74803" lon="7.60468">
        <ele>157</ele>
        <time>2020-08-08T13:31:26Z</time>
      </trkpt>
      <trkpt lat="48.74798" lon="7.60458">
        <ele>157</ele>
        <time>2020-08-08T13:31:28Z</time>
      </trkpt>
      <trkpt lat="48.74795" lon="7.60453">
        <ele>157</ele>
        <time>2020-08-08T13:31:29Z</time>
      </trkpt>
      <trkpt lat="48.74792" lon="7.60447">
        <ele>157</ele>
        <time>2020-08-08T13:31:30Z</time>
      </trkpt>
      <trkpt lat="48.74789" lon="7.60442">
        <ele>158</ele>
        <time>2020-08-08T13:31:31Z</time>
      </trkpt>
      <trkpt lat="48.74784" lon="7.60431">
        <ele>158</ele>
        <time>2020-08-08T13:31:33Z</time>
      </trkpt>
      <trkpt lat="48.74781" lon="7.60426">
        <ele>159</ele>
        <time>2020-08-08T13:31:34Z</time>
      </trkpt>
      <trkpt lat="48.74775" lon="7.60416">
        <ele>159</ele>
        <time>2020-08-08T13:31:36Z</time>
      </trkpt>
      <trkpt lat="48.7477" lon="7.60406">
        <ele>159</ele>
        <time>2020-08-08T13:31:38Z</time>
      </trkpt>
      <trkpt lat="48.74765" lon="7.60397">
        <ele>159</ele>
        <time>2020-08-08T13:31:40Z</time>
      </trkpt>
      <trkpt lat="48.74761" lon="7.60387">
        <ele>160</ele>
        <time>2020-08-08T13:31:42Z</time>
      </trkpt>
      <trkpt lat="48.74759" lon="7.60375">
        <ele>160</ele>
        <time>2020-08-08T13:31:44Z</time>
      </trkpt>
      <trkpt lat="48.74756" lon="7.60364">
        <ele>160</ele>
        <time>2020-08-08T13:31:46Z</time>
      </trkpt>
      <trkpt lat="48.74752" lon="7.60355">
        <ele>160</ele>
        <time>2020-08-08T13:31:48Z</time>
      </trkpt>
      <trkpt lat="48.74746" lon="7.60353">
        <ele>161</ele>
        <time>2020-08-08T13:31:51Z</time>
      </trkpt>
      <trkpt lat="48.74746" lon="7.60343">
        <ele>161</ele>
        <time>2020-08-08T13:31:54Z</time>
      </trkpt>
      <trkpt lat="48.74747" lon="7.60333">
        <ele>161</ele>
        <time>2020-08-08T13:31:57Z</time>
      </trkpt>
      <trkpt lat="48.74746" lon="7.60321">
        <ele>160</ele>
        <time>2020-08-08T13:32:00Z</time>
      </trkpt>
      <trkpt lat="48.74746" lon="7.60314">
        <ele>159</ele>
        <time>2020-08-08T13:32:01Z</time>
      </trkpt>
      <trkpt lat="48.74746" lon="7.60306">
        <ele>159</ele>
        <time>2020-08-08T13:32:02Z</time>
      </trkpt>
      <trkpt lat="48.74744" lon="7.60299">
        <ele>158</ele>
        <time>2020-08-08T13:32:03Z</time>
      </trkpt>
      <trkpt lat="48.74743" lon="7.60291">
        <ele>158</ele>
        <time>2020-08-08T13:32:04Z</time>
      </trkpt>
      <trkpt lat="48.74741" lon="7.60283">
        <ele>158</ele>
        <time>2020-08-08T13:32:05Z</time>
      </trkpt>
      <trkpt lat="48.7474" lon="7.60275">
        <ele>158</ele>
        <time>2020-08-08T13:32:06Z</time>
      </trkpt>
      <trkpt lat="48.74739" lon="7.60267">
        <ele>158</ele>
        <time>2020-08-08T13:32:07Z</time>
      </trkpt>
      <trkpt lat="48.74738" lon="7.60259">
        <ele>158</ele>
        <time>2020-08-08T13:32:08Z</time>
      </trkpt>
      <trkpt lat="48.74736" lon="7.60252">
        <ele>158</ele>
        <time>2020-08-08T13:32:09Z</time>
      </trkpt>
      <trkpt lat="48.74736" lon="7.60244">
        <ele>158</ele>
        <time>2020-08-08T13:32:10Z</time>
      </trkpt>
      <trkpt lat="48.74735" lon="7.60237">
        <ele>158</ele>
        <time>2020-08-08T13:32:11Z</time>
      </trkpt>
      <trkpt lat="48.74734" lon="7.6023">
        <ele>158</ele>
        <time>2020-08-08T13:32:12Z</time>
      </trkpt>
      <trkpt lat="48.74733" lon="7.60223">
        <ele>158</ele>
        <time>2020-08-08T13:32:13Z</time>
      </trkpt>
      <trkpt lat="48.74732" lon="7.60216">
        <ele>158</ele>
        <time>2020-08-08T13:32:14Z</time>
      </trkpt>
      <trkpt lat="48.74731" lon="7.60203">
        <ele>158</ele>
        <time>2020-08-08T13:32:16Z</time>
      </trkpt>
      <trkpt lat="48.7473" lon="7.6019">
        <ele>158</ele>
        <time>2020-08-08T13:32:18Z</time>
      </trkpt>
      <trkpt lat="48.74729" lon="7.60178">
        <ele>159</ele>
        <time>2020-08-08T13:32:20Z</time>
      </trkpt>
      <trkpt lat="48.74729" lon="7.60166">
        <ele>159</ele>
        <time>2020-08-08T13:32:22Z</time>
      </trkpt>
      <trkpt lat="48.74729" lon="7.60153">
        <ele>158</ele>
        <time>2020-08-08T13:32:24Z</time>
      </trkpt>
      <trkpt lat="48.74729" lon="7.6014">
        <ele>158</ele>
        <time>2020-08-08T13:32:26Z</time>
      </trkpt>
      <trkpt lat="48.74729" lon="7.60127">
        <ele>158</ele>
        <time>2020-08-08T13:32:28Z</time>
      </trkpt>
      <trkpt lat="48.74729" lon="7.60114">
        <ele>158</ele>
        <time>2020-08-08T13:32:30Z</time>
      </trkpt>
      <trkpt lat="48.7473" lon="7.60108">
        <ele>158</ele>
        <time>2020-08-08T13:32:31Z</time>
      </trkpt>
      <trkpt lat="48.7473" lon="7.601">
        <ele>158</ele>
        <time>2020-08-08T13:32:32Z</time>
      </trkpt>
      <trkpt lat="48.74731" lon="7.60087">
        <ele>157</ele>
        <time>2020-08-08T13:32:34Z</time>
      </trkpt>
      <trkpt lat="48.74731" lon="7.60076">
        <ele>157</ele>
        <time>2020-08-08T13:32:36Z</time>
      </trkpt>
      <trkpt lat="48.74731" lon="7.60065">
        <ele>157</ele>
        <time>2020-08-08T13:32:38Z</time>
      </trkpt>
      <trkpt lat="48.74733" lon="7.60054">
        <ele>157</ele>
        <time>2020-08-08T13:32:40Z</time>
      </trkpt>
      <trkpt lat="48.74735" lon="7.60044">
        <ele>157</ele>
        <time>2020-08-08T13:32:42Z</time>
      </trkpt>
      <trkpt lat="48.74736" lon="7.60035">
        <ele>157</ele>
        <time>2020-08-08T13:32:44Z</time>
      </trkpt>
      <trkpt lat="48.74738" lon="7.60026">
        <ele>157</ele>
        <time>2020-08-08T13:32:46Z</time>
      </trkpt>
      <trkpt lat="48.7474" lon="7.60016">
        <ele>157</ele>
        <time>2020-08-08T13:32:48Z</time>
      </trkpt>
      <trkpt lat="48.74741" lon="7.60008">
        <ele>157</ele>
        <time>2020-08-08T13:32:49Z</time>
      </trkpt>
      <trkpt lat="48.74743" lon="7.59997">
        <ele>157</ele>
        <time>2020-08-08T13:32:51Z</time>
      </trkpt>
      <trkpt lat="48.74743" lon="7.59989">
        <ele>157</ele>
        <time>2020-08-08T13:32:52Z</time>
      </trkpt>
      <trkpt lat="48.74746" lon="7.59979">
        <ele>157</ele>
        <time>2020-08-08T13:32:54Z</time>
      </trkpt>
      <trkpt lat="48.74749" lon="7.59966">
        <ele>157</ele>
        <time>2020-08-08T13:32:56Z</time>
      </trkpt>
      <trkpt lat="48.7475" lon="7.5996">
        <ele>157</ele>
        <time>2020-08-08T13:32:57Z</time>
      </trkpt>
      <trkpt lat="48.74753" lon="7.59948">
        <ele>157</ele>
        <time>2020-08-08T13:32:59Z</time>
      </trkpt>
      <trkpt lat="48.74754" lon="7.59934">
        <ele>158</ele>
        <time>2020-08-08T13:33:01Z</time>
      </trkpt>
      <trkpt lat="48.74756" lon="7.59925">
        <ele>157</ele>
        <time>2020-08-08T13:33:02Z</time>
      </trkpt>
      <trkpt lat="48.74758" lon="7.59919">
        <ele>157</ele>
        <time>2020-08-08T13:33:03Z</time>
      </trkpt>
      <trkpt lat="48.74761" lon="7.59905">
        <ele>157</ele>
        <time>2020-08-08T13:33:05Z</time>
      </trkpt>
      <trkpt lat="48.74763" lon="7.59893">
        <ele>157</ele>
        <time>2020-08-08T13:33:07Z</time>
      </trkpt>
      <trkpt lat="48.74766" lon="7.59881">
        <ele>157</ele>
        <time>2020-08-08T13:33:09Z</time>
      </trkpt>
      <trkpt lat="48.74767" lon="7.59873">
        <ele>157</ele>
        <time>2020-08-08T13:33:10Z</time>
      </trkpt>
      <trkpt lat="48.7477" lon="7.59861">
        <ele>157</ele>
        <time>2020-08-08T13:33:12Z</time>
      </trkpt>
      <trkpt lat="48.74772" lon="7.59855">
        <ele>157</ele>
        <time>2020-08-08T13:33:13Z</time>
      </trkpt>
      <trkpt lat="48.74774" lon="7.59848">
        <ele>157</ele>
        <time>2020-08-08T13:33:14Z</time>
      </trkpt>
      <trkpt lat="48.74775" lon="7.59841">
        <ele>157</ele>
        <time>2020-08-08T13:33:15Z</time>
      </trkpt>
      <trkpt lat="48.74779" lon="7.5983">
        <ele>157</ele>
        <time>2020-08-08T13:33:17Z</time>
      </trkpt>
      <trkpt lat="48.74781" lon="7.5982">
        <ele>157</ele>
        <time>2020-08-08T13:33:19Z</time>
      </trkpt>
      <trkpt lat="48.74785" lon="7.59811">
        <ele>157</ele>
        <time>2020-08-08T13:33:21Z</time>
      </trkpt>
      <trkpt lat="48.74788" lon="7.59802">
        <ele>156</ele>
        <time>2020-08-08T13:33:23Z</time>
      </trkpt>
      <trkpt lat="48.74789" lon="7.59789">
        <ele>157</ele>
        <time>2020-08-08T13:33:25Z</time>
      </trkpt>
      <trkpt lat="48.7479" lon="7.59782">
        <ele>157</ele>
        <time>2020-08-08T13:33:26Z</time>
      </trkpt>
      <trkpt lat="48.74792" lon="7.59773">
        <ele>157</ele>
        <time>2020-08-08T13:33:28Z</time>
      </trkpt>
      <trkpt lat="48.74795" lon="7.59768">
        <ele>156</ele>
        <time>2020-08-08T13:33:29Z</time>
      </trkpt>
      <trkpt lat="48.74796" lon="7.5976">
        <ele>156</ele>
        <time>2020-08-08T13:33:30Z</time>
      </trkpt>
      <trkpt lat="48.74797" lon="7.59749">
        <ele>157</ele>
        <time>2020-08-08T13:33:32Z</time>
      </trkpt>
      <trkpt lat="48.74801" lon="7.59738">
        <ele>156</ele>
        <time>2020-08-08T13:33:34Z</time>
      </trkpt>
      <trkpt lat="48.74803" lon="7.59726">
        <ele>156</ele>
        <time>2020-08-08T13:33:36Z</time>
      </trkpt>
      <trkpt lat="48.74804" lon="7.59714">
        <ele>157</ele>
        <time>2020-08-08T13:33:38Z</time>
      </trkpt>
      <trkpt lat="48.74806" lon="7.59704">
        <ele>157</ele>
        <time>2020-08-08T13:33:40Z</time>
      </trkpt>
      <trkpt lat="48.74802" lon="7.59695">
        <ele>157</ele>
        <time>2020-08-08T13:33:42Z</time>
      </trkpt>
      <trkpt lat="48.74797" lon="7.59687">
        <ele>157</ele>
        <time>2020-08-08T13:33:44Z</time>
      </trkpt>
      <trkpt lat="48.74796" lon="7.59678">
        <ele>157</ele>
        <time>2020-08-08T13:33:46Z</time>
      </trkpt>
      <trkpt lat="48.74797" lon="7.59667">
        <ele>157</ele>
        <time>2020-08-08T13:33:48Z</time>
      </trkpt>
      <trkpt lat="48.74799" lon="7.59661">
        <ele>157</ele>
        <time>2020-08-08T13:33:49Z</time>
      </trkpt>
      <trkpt lat="48.74802" lon="7.5965">
        <ele>157</ele>
        <time>2020-08-08T13:33:51Z</time>
      </trkpt>
      <trkpt lat="48.74804" lon="7.59639">
        <ele>157</ele>
        <time>2020-08-08T13:33:53Z</time>
      </trkpt>
      <trkpt lat="48.74807" lon="7.59627">
        <ele>157</ele>
        <time>2020-08-08T13:33:55Z</time>
      </trkpt>
      <trkpt lat="48.74807" lon="7.5962">
        <ele>157</ele>
        <time>2020-08-08T13:33:56Z</time>
      </trkpt>
      <trkpt lat="48.74809" lon="7.59614">
        <ele>157</ele>
        <time>2020-08-08T13:33:57Z</time>
      </trkpt>
      <trkpt lat="48.74812" lon="7.59601">
        <ele>157</ele>
        <time>2020-08-08T13:33:59Z</time>
      </trkpt>
      <trkpt lat="48.74816" lon="7.59591">
        <ele>157</ele>
        <time>2020-08-08T13:34:01Z</time>
      </trkpt>
      <trkpt lat="48.74818" lon="7.59581">
        <ele>157</ele>
        <time>2020-08-08T13:34:03Z</time>
      </trkpt>
      <trkpt lat="48.7482" lon="7.59572">
        <ele>157</ele>
        <time>2020-08-08T13:34:05Z</time>
      </trkpt>
      <trkpt lat="48.74821" lon="7.59565">
        <ele>157</ele>
        <time>2020-08-08T13:34:07Z</time>
      </trkpt>
      <trkpt lat="48.74822" lon="7.59556">
        <ele>157</ele>
        <time>2020-08-08T13:34:09Z</time>
      </trkpt>
      <trkpt lat="48.74825" lon="7.59548">
        <ele>157</ele>
        <time>2020-08-08T13:34:11Z</time>
      </trkpt>
      <trkpt lat="48.74828" lon="7.59538">
        <ele>157</ele>
        <time>2020-08-08T13:34:13Z</time>
      </trkpt>
      <trkpt lat="48.74829" lon="7.59527">
        <ele>157</ele>
        <time>2020-08-08T13:34:15Z</time>
      </trkpt>
      <trkpt lat="48.7483" lon="7.5952">
        <ele>157</ele>
        <time>2020-08-08T13:34:16Z</time>
      </trkpt>
      <trkpt lat="48.74832" lon="7.59509">
        <ele>157</ele>
        <time>2020-08-08T13:34:18Z</time>
      </trkpt>
      <trkpt lat="48.74834" lon="7.59497">
        <ele>157</ele>
        <time>2020-08-08T13:34:20Z</time>
      </trkpt>
      <trkpt lat="48.74837" lon="7.59486">
        <ele>157</ele>
        <time>2020-08-08T13:34:22Z</time>
      </trkpt>
      <trkpt lat="48.74839" lon="7.59475">
        <ele>157</ele>
        <time>2020-08-08T13:34:24Z</time>
      </trkpt>
      <trkpt lat="48.74842" lon="7.59464">
        <ele>158</ele>
        <time>2020-08-08T13:34:26Z</time>
      </trkpt>
      <trkpt lat="48.74845" lon="7.59453">
        <ele>158</ele>
        <time>2020-08-08T13:34:28Z</time>
      </trkpt>
      <trkpt lat="48.74846" lon="7.59439">
        <ele>158</ele>
        <time>2020-08-08T13:34:30Z</time>
      </trkpt>
      <trkpt lat="48.74849" lon="7.59431">
        <ele>158</ele>
        <time>2020-08-08T13:34:32Z</time>
      </trkpt>
      <trkpt lat="48.7485" lon="7.59422">
        <ele>159</ele>
        <time>2020-08-08T13:34:34Z</time>
      </trkpt>
      <trkpt lat="48.74853" lon="7.59415">
        <ele>159</ele>
        <time>2020-08-08T13:34:36Z</time>
      </trkpt>
      <trkpt lat="48.74856" lon="7.5941">
        <ele>159</ele>
        <time>2020-08-08T13:34:38Z</time>
      </trkpt>
      <trkpt lat="48.74861" lon="7.59409">
        <ele>159</ele>
        <time>2020-08-08T13:34:40Z</time>
      </trkpt>
      <trkpt lat="48.74865" lon="7.5941">
        <ele>159</ele>
        <time>2020-08-08T13:34:42Z</time>
      </trkpt>
      <trkpt lat="48.7487" lon="7.59407">
        <ele>159</ele>
        <time>2020-08-08T13:34:45Z</time>
      </trkpt>
      <trkpt lat="48.74871" lon="7.594">
        <ele>160</ele>
        <time>2020-08-08T13:34:48Z</time>
      </trkpt>
      <trkpt lat="48.74874" lon="7.59391">
        <ele>160</ele>
        <time>2020-08-08T13:34:50Z</time>
      </trkpt>
      <trkpt lat="48.74877" lon="7.59384">
        <ele>160</ele>
        <time>2020-08-08T13:34:52Z</time>
      </trkpt>
      <trkpt lat="48.74879" lon="7.59375">
        <ele>160</ele>
        <time>2020-08-08T13:34:54Z</time>
      </trkpt>
      <trkpt lat="48.74879" lon="7.59364">
        <ele>160</ele>
        <time>2020-08-08T13:34:56Z</time>
      </trkpt>
      <trkpt lat="48.7488" lon="7.59356">
        <ele>160</ele>
        <time>2020-08-08T13:34:58Z</time>
      </trkpt>
      <trkpt lat="48.74881" lon="7.59347">
        <ele>160</ele>
        <time>2020-08-08T13:35:00Z</time>
      </trkpt>
      <trkpt lat="48.74883" lon="7.59337">
        <ele>160</ele>
        <time>2020-08-08T13:35:02Z</time>
      </trkpt>
      <trkpt lat="48.74884" lon="7.59328">
        <ele>160</ele>
        <time>2020-08-08T13:35:04Z</time>
      </trkpt>
      <trkpt lat="48.74887" lon="7.59318">
        <ele>159</ele>
        <time>2020-08-08T13:35:06Z</time>
      </trkpt>
      <trkpt lat="48.74887" lon="7.59306">
        <ele>159</ele>
        <time>2020-08-08T13:35:08Z</time>
      </trkpt>
      <trkpt lat="48.74889" lon="7.59295">
        <ele>159</ele>
        <time>2020-08-08T13:35:10Z</time>
      </trkpt>
      <trkpt lat="48.7489" lon="7.59284">
        <ele>160</ele>
        <time>2020-08-08T13:35:12Z</time>
      </trkpt>
      <trkpt lat="48.74891" lon="7.59272">
        <ele>160</ele>
        <time>2020-08-08T13:35:14Z</time>
      </trkpt>
      <trkpt lat="48.74893" lon="7.59259">
        <ele>159</ele>
        <time>2020-08-08T13:35:16Z</time>
      </trkpt>
      <trkpt lat="48.74894" lon="7.59246">
        <ele>159</ele>
        <time>2020-08-08T13:35:18Z</time>
      </trkpt>
      <trkpt lat="48.74895" lon="7.59235">
        <ele>159</ele>
        <time>2020-08-08T13:35:20Z</time>
      </trkpt>
      <trkpt lat="48.74896" lon="7.59228">
        <ele>160</ele>
        <time>2020-08-08T13:35:21Z</time>
      </trkpt>
      <trkpt lat="48.74897" lon="7.59222">
        <ele>159</ele>
        <time>2020-08-08T13:35:22Z</time>
      </trkpt>
      <trkpt lat="48.74898" lon="7.59208">
        <ele>159</ele>
        <time>2020-08-08T13:35:24Z</time>
      </trkpt>
      <trkpt lat="48.74897" lon="7.59201">
        <ele>159</ele>
        <time>2020-08-08T13:35:25Z</time>
      </trkpt>
      <trkpt lat="48.74899" lon="7.59189">
        <ele>159</ele>
        <time>2020-08-08T13:35:27Z</time>
      </trkpt>
      <trkpt lat="48.74899" lon="7.59183">
        <ele>159</ele>
        <time>2020-08-08T13:35:28Z</time>
      </trkpt>
      <trkpt lat="48.74899" lon="7.59172">
        <ele>159</ele>
        <time>2020-08-08T13:35:30Z</time>
      </trkpt>
      <trkpt lat="48.74898" lon="7.59164">
        <ele>159</ele>
        <time>2020-08-08T13:35:31Z</time>
      </trkpt>
      <trkpt lat="48.74897" lon="7.59151">
        <ele>159</ele>
        <time>2020-08-08T13:35:33Z</time>
      </trkpt>
      <trkpt lat="48.74897" lon="7.59144">
        <ele>159</ele>
        <time>2020-08-08T13:35:34Z</time>
      </trkpt>
      <trkpt lat="48.74897" lon="7.59132">
        <ele>159</ele>
        <time>2020-08-08T13:35:36Z</time>
      </trkpt>
      <trkpt lat="48.74897" lon="7.59122">
        <ele>159</ele>
        <time>2020-08-08T13:35:38Z</time>
      </trkpt>
      <trkpt lat="48.74897" lon="7.59109">
        <ele>159</ele>
        <time>2020-08-08T13:35:40Z</time>
      </trkpt>
      <trkpt lat="48.74895" lon="7.59101">
        <ele>160</ele>
        <time>2020-08-08T13:35:41Z</time>
      </trkpt>
      <trkpt lat="48.74894" lon="7.59089">
        <ele>160</ele>
        <time>2020-08-08T13:35:43Z</time>
      </trkpt>
      <trkpt lat="48.74894" lon="7.59082">
        <ele>160</ele>
        <time>2020-08-08T13:35:44Z</time>
      </trkpt>
      <trkpt lat="48.74894" lon="7.59069">
        <ele>160</ele>
        <time>2020-08-08T13:35:46Z</time>
      </trkpt>
      <trkpt lat="48.74892" lon="7.59063">
        <ele>160</ele>
        <time>2020-08-08T13:35:47Z</time>
      </trkpt>
      <trkpt lat="48.74891" lon="7.59052">
        <ele>161</ele>
        <time>2020-08-08T13:35:49Z</time>
      </trkpt>
      <trkpt lat="48.74891" lon="7.59039">
        <ele>161</ele>
        <time>2020-08-08T13:35:51Z</time>
      </trkpt>
      <trkpt lat="48.74892" lon="7.59026">
        <ele>161</ele>
        <time>2020-08-08T13:35:53Z</time>
      </trkpt>
      <trkpt lat="48.74892" lon="7.59019">
        <ele>161</ele>
        <time>2020-08-08T13:35:54Z</time>
      </trkpt>
      <trkpt lat="48.74893" lon="7.59006">
        <ele>160</ele>
        <time>2020-08-08T13:35:56Z</time>
      </trkpt>
      <trkpt lat="48.74894" lon="7.58996">
        <ele>160</ele>
        <time>2020-08-08T13:35:58Z</time>
      </trkpt>
      <trkpt lat="48.74893" lon="7.58988">
        <ele>161</ele>
        <time>2020-08-08T13:35:59Z</time>
      </trkpt>
      <trkpt lat="48.74892" lon="7.5898">
        <ele>161</ele>
        <time>2020-08-08T13:36:00Z</time>
      </trkpt>
      <trkpt lat="48.74892" lon="7.58972">
        <ele>161</ele>
        <time>2020-08-08T13:36:01Z</time>
      </trkpt>
      <trkpt lat="48.74891" lon="7.58957">
        <ele>161</ele>
        <time>2020-08-08T13:36:03Z</time>
      </trkpt>
      <trkpt lat="48.74892" lon="7.5895">
        <ele>160</ele>
        <time>2020-08-08T13:36:04Z</time>
      </trkpt>
      <trkpt lat="48.74891" lon="7.58936">
        <ele>161</ele>
        <time>2020-08-08T13:36:06Z</time>
      </trkpt>
      <trkpt lat="48.74891" lon="7.58929">
        <ele>161</ele>
        <time>2020-08-08T13:36:07Z</time>
      </trkpt>
      <trkpt lat="48.74889" lon="7.58922">
        <ele>162</ele>
        <time>2020-08-08T13:36:08Z</time>
      </trkpt>
      <trkpt lat="48.74888" lon="7.58909">
        <ele>162</ele>
        <time>2020-08-08T13:36:10Z</time>
      </trkpt>
      <trkpt lat="48.74888" lon="7.58896">
        <ele>162</ele>
        <time>2020-08-08T13:36:12Z</time>
      </trkpt>
      <trkpt lat="48.74888" lon="7.58889">
        <ele>161</ele>
        <time>2020-08-08T13:36:13Z</time>
      </trkpt>
      <trkpt lat="48.74888" lon="7.58882">
        <ele>161</ele>
        <time>2020-08-08T13:36:14Z</time>
      </trkpt>
      <trkpt lat="48.74888" lon="7.58869">
        <ele>160</ele>
        <time>2020-08-08T13:36:16Z</time>
      </trkpt>
      <trkpt lat="48.74886" lon="7.58863">
        <ele>160</ele>
        <time>2020-08-08T13:36:17Z</time>
      </trkpt>
      <trkpt lat="48.74886" lon="7.58855">
        <ele>160</ele>
        <time>2020-08-08T13:36:18Z</time>
      </trkpt>
      <trkpt lat="48.74885" lon="7.58847">
        <ele>161</ele>
        <time>2020-08-08T13:36:19Z</time>
      </trkpt>
      <trkpt lat="48.74885" lon="7.58838">
        <ele>160</ele>
        <time>2020-08-08T13:36:20Z</time>
      </trkpt>
      <trkpt lat="48.74885" lon="7.58831">
        <ele>160</ele>
        <time>2020-08-08T13:36:21Z</time>
      </trkpt>
      <trkpt lat="48.74884" lon="7.58822">
        <ele>161</ele>
        <time>2020-08-08T13:36:22Z</time>
      </trkpt>
      <trkpt lat="48.74887" lon="7.58814">
        <ele>160</ele>
        <time>2020-08-08T13:36:24Z</time>
      </trkpt>
      <trkpt lat="48.74887" lon="7.58801">
        <ele>160</ele>
        <time>2020-08-08T13:36:26Z</time>
      </trkpt>
      <trkpt lat="48.74888" lon="7.58788">
        <ele>159</ele>
        <time>2020-08-08T13:36:28Z</time>
      </trkpt>
      <trkpt lat="48.74889" lon="7.58774">
        <ele>159</ele>
        <time>2020-08-08T13:36:30Z</time>
      </trkpt>
      <trkpt lat="48.7489" lon="7.58767">
        <ele>159</ele>
        <time>2020-08-08T13:36:31Z</time>
      </trkpt>
      <trkpt lat="48.74891" lon="7.58752">
        <ele>159</ele>
        <time>2020-08-08T13:36:33Z</time>
      </trkpt>
      <trkpt lat="48.74891" lon="7.58742">
        <ele>159</ele>
        <time>2020-08-08T13:36:34Z</time>
      </trkpt>
      <trkpt lat="48.74892" lon="7.58734">
        <ele>159</ele>
        <time>2020-08-08T13:36:35Z</time>
      </trkpt>
      <trkpt lat="48.74892" lon="7.58726">
        <ele>159</ele>
        <time>2020-08-08T13:36:36Z</time>
      </trkpt>
      <trkpt lat="48.74891" lon="7.58716">
        <ele>159</ele>
        <time>2020-08-08T13:36:37Z</time>
      </trkpt>
      <trkpt lat="48.74892" lon="7.58703">
        <ele>159</ele>
        <time>2020-08-08T13:36:39Z</time>
      </trkpt>
      <trkpt lat="48.74894" lon="7.58695">
        <ele>159</ele>
        <time>2020-08-08T13:36:40Z</time>
      </trkpt>
      <trkpt lat="48.74896" lon="7.58682">
        <ele>158</ele>
        <time>2020-08-08T13:36:42Z</time>
      </trkpt>
      <trkpt lat="48.74897" lon="7.58675">
        <ele>158</ele>
        <time>2020-08-08T13:36:43Z</time>
      </trkpt>
      <trkpt lat="48.74899" lon="7.58668">
        <ele>158</ele>
        <time>2020-08-08T13:36:44Z</time>
      </trkpt>
      <trkpt lat="48.749" lon="7.58655">
        <ele>158</ele>
        <time>2020-08-08T13:36:46Z</time>
      </trkpt>
      <trkpt lat="48.749" lon="7.58646">
        <ele>159</ele>
        <time>2020-08-08T13:36:47Z</time>
      </trkpt>
      <trkpt lat="48.74901" lon="7.58639">
        <ele>158</ele>
        <time>2020-08-08T13:36:48Z</time>
      </trkpt>
      <trkpt lat="48.74902" lon="7.58632">
        <ele>158</ele>
        <time>2020-08-08T13:36:49Z</time>
      </trkpt>
      <trkpt lat="48.74904" lon="7.58619">
        <ele>158</ele>
        <time>2020-08-08T13:36:51Z</time>
      </trkpt>
      <trkpt lat="48.74905" lon="7.58612">
        <ele>158</ele>
        <time>2020-08-08T13:36:52Z</time>
      </trkpt>
      <trkpt lat="48.74906" lon="7.58606">
        <ele>158</ele>
        <time>2020-08-08T13:36:53Z</time>
      </trkpt>
      <trkpt lat="48.74907" lon="7.58591">
        <ele>158</ele>
        <time>2020-08-08T13:36:55Z</time>
      </trkpt>
      <trkpt lat="48.74908" lon="7.58584">
        <ele>158</ele>
        <time>2020-08-08T13:36:56Z</time>
      </trkpt>
      <trkpt lat="48.74909" lon="7.58576">
        <ele>158</ele>
        <time>2020-08-08T13:36:57Z</time>
      </trkpt>
      <trkpt lat="48.74909" lon="7.58568">
        <ele>158</ele>
        <time>2020-08-08T13:36:58Z</time>
      </trkpt>
      <trkpt lat="48.74911" lon="7.5856">
        <ele>158</ele>
        <time>2020-08-08T13:36:59Z</time>
      </trkpt>
      <trkpt lat="48.74912" lon="7.58546">
        <ele>158</ele>
        <time>2020-08-08T13:37:01Z</time>
      </trkpt>
      <trkpt lat="48.74914" lon="7.58533">
        <ele>158</ele>
        <time>2020-08-08T13:37:03Z</time>
      </trkpt>
      <trkpt lat="48.74915" lon="7.58525">
        <ele>158</ele>
        <time>2020-08-08T13:37:04Z</time>
      </trkpt>
      <trkpt lat="48.74916" lon="7.58518">
        <ele>158</ele>
        <time>2020-08-08T13:37:05Z</time>
      </trkpt>
      <trkpt lat="48.74917" lon="7.58509">
        <ele>158</ele>
        <time>2020-08-08T13:37:06Z</time>
      </trkpt>
      <trkpt lat="48.74917" lon="7.58501">
        <ele>158</ele>
        <time>2020-08-08T13:37:07Z</time>
      </trkpt>
      <trkpt lat="48.74918" lon="7.58493">
        <ele>158</ele>
        <time>2020-08-08T13:37:08Z</time>
      </trkpt>
      <trkpt lat="48.74918" lon="7.58487">
        <ele>158</ele>
        <time>2020-08-08T13:37:09Z</time>
      </trkpt>
      <trkpt lat="48.74919" lon="7.5848">
        <ele>158</ele>
        <time>2020-08-08T13:37:10Z</time>
      </trkpt>
      <trkpt lat="48.7492" lon="7.58472">
        <ele>158</ele>
        <time>2020-08-08T13:37:11Z</time>
      </trkpt>
      <trkpt lat="48.7492" lon="7.58462">
        <ele>158</ele>
        <time>2020-08-08T13:37:12Z</time>
      </trkpt>
      <trkpt lat="48.7492" lon="7.58455">
        <ele>158</ele>
        <time>2020-08-08T13:37:13Z</time>
      </trkpt>
      <trkpt lat="48.74922" lon="7.58443">
        <ele>158</ele>
        <time>2020-08-08T13:37:15Z</time>
      </trkpt>
      <trkpt lat="48.74923" lon="7.58435">
        <ele>158</ele>
        <time>2020-08-08T13:37:16Z</time>
      </trkpt>
      <trkpt lat="48.74924" lon="7.58428">
        <ele>158</ele>
        <time>2020-08-08T13:37:17Z</time>
      </trkpt>
      <trkpt lat="48.74925" lon="7.58415">
        <ele>159</ele>
        <time>2020-08-08T13:37:19Z</time>
      </trkpt>
      <trkpt lat="48.74926" lon="7.58407">
        <ele>159</ele>
        <time>2020-08-08T13:37:20Z</time>
      </trkpt>
      <trkpt lat="48.74926" lon="7.584">
        <ele>159</ele>
        <time>2020-08-08T13:37:21Z</time>
      </trkpt>
      <trkpt lat="48.74928" lon="7.58392">
        <ele>158</ele>
        <time>2020-08-08T13:37:22Z</time>
      </trkpt>
      <trkpt lat="48.74928" lon="7.58384">
        <ele>158</ele>
        <time>2020-08-08T13:37:23Z</time>
      </trkpt>
      <trkpt lat="48.7493" lon="7.58371">
        <ele>158</ele>
        <time>2020-08-08T13:37:25Z</time>
      </trkpt>
      <trkpt lat="48.74931" lon="7.58358">
        <ele>158</ele>
        <time>2020-08-08T13:37:27Z</time>
      </trkpt>
      <trkpt lat="48.74933" lon="7.58345">
        <ele>158</ele>
        <time>2020-08-08T13:37:29Z</time>
      </trkpt>
      <trkpt lat="48.74934" lon="7.58337">
        <ele>158</ele>
        <time>2020-08-08T13:37:30Z</time>
      </trkpt>
      <trkpt lat="48.74935" lon="7.58324">
        <ele>158</ele>
        <time>2020-08-08T13:37:32Z</time>
      </trkpt>
      <trkpt lat="48.74937" lon="7.58317">
        <ele>158</ele>
        <time>2020-08-08T13:37:33Z</time>
      </trkpt>
      <trkpt lat="48.74938" lon="7.58304">
        <ele>158</ele>
        <time>2020-08-08T13:37:35Z</time>
      </trkpt>
      <trkpt lat="48.74939" lon="7.5829">
        <ele>158</ele>
        <time>2020-08-08T13:37:37Z</time>
      </trkpt>
      <trkpt lat="48.74939" lon="7.58283">
        <ele>158</ele>
        <time>2020-08-08T13:37:38Z</time>
      </trkpt>
      <trkpt lat="48.74941" lon="7.58276">
        <ele>158</ele>
        <time>2020-08-08T13:37:39Z</time>
      </trkpt>
      <trkpt lat="48.74941" lon="7.58268">
        <ele>159</ele>
        <time>2020-08-08T13:37:40Z</time>
      </trkpt>
      <trkpt lat="48.74941" lon="7.58261">
        <ele>159</ele>
        <time>2020-08-08T13:37:41Z</time>
      </trkpt>
      <trkpt lat="48.74943" lon="7.5825">
        <ele>159</ele>
        <time>2020-08-08T13:37:43Z</time>
      </trkpt>
      <trkpt lat="48.74943" lon="7.58242">
        <ele>159</ele>
        <time>2020-08-08T13:37:44Z</time>
      </trkpt>
      <trkpt lat="48.74945" lon="7.58235">
        <ele>159</ele>
        <time>2020-08-08T13:37:45Z</time>
      </trkpt>
      <trkpt lat="48.74945" lon="7.58228">
        <ele>159</ele>
        <time>2020-08-08T13:37:46Z</time>
      </trkpt>
      <trkpt lat="48.74948" lon="7.58216">
        <ele>158</ele>
        <time>2020-08-08T13:37:48Z</time>
      </trkpt>
      <trkpt lat="48.74949" lon="7.58204">
        <ele>158</ele>
        <time>2020-08-08T13:37:50Z</time>
      </trkpt>
      <trkpt lat="48.74949" lon="7.58197">
        <ele>158</ele>
        <time>2020-08-08T13:37:51Z</time>
      </trkpt>
      <trkpt lat="48.74951" lon="7.58184">
        <ele>159</ele>
        <time>2020-08-08T13:37:53Z</time>
      </trkpt>
      <trkpt lat="48.74951" lon="7.58177">
        <ele>159</ele>
        <time>2020-08-08T13:37:54Z</time>
      </trkpt>
      <trkpt lat="48.74952" lon="7.5817">
        <ele>159</ele>
        <time>2020-08-08T13:37:55Z</time>
      </trkpt>
      <trkpt lat="48.74953" lon="7.58158">
        <ele>159</ele>
        <time>2020-08-08T13:37:57Z</time>
      </trkpt>
      <trkpt lat="48.74952" lon="7.58151">
        <ele>159</ele>
        <time>2020-08-08T13:37:58Z</time>
      </trkpt>
      <trkpt lat="48.74954" lon="7.58138">
        <ele>159</ele>
        <time>2020-08-08T13:38:00Z</time>
      </trkpt>
      <trkpt lat="48.74955" lon="7.58127">
        <ele>159</ele>
        <time>2020-08-08T13:38:02Z</time>
      </trkpt>
      <trkpt lat="48.74957" lon="7.58115">
        <ele>159</ele>
        <time>2020-08-08T13:38:04Z</time>
      </trkpt>
      <trkpt lat="48.74957" lon="7.58103">
        <ele>159</ele>
        <time>2020-08-08T13:38:06Z</time>
      </trkpt>
      <trkpt lat="48.74958" lon="7.58089">
        <ele>159</ele>
        <time>2020-08-08T13:38:08Z</time>
      </trkpt>
      <trkpt lat="48.74959" lon="7.58077">
        <ele>159</ele>
        <time>2020-08-08T13:38:10Z</time>
      </trkpt>
      <trkpt lat="48.74959" lon="7.58065">
        <ele>159</ele>
        <time>2020-08-08T13:38:12Z</time>
      </trkpt>
      <trkpt lat="48.74959" lon="7.58058">
        <ele>159</ele>
        <time>2020-08-08T13:38:13Z</time>
      </trkpt>
      <trkpt lat="48.7496" lon="7.58045">
        <ele>159</ele>
        <time>2020-08-08T13:38:15Z</time>
      </trkpt>
      <trkpt lat="48.74961" lon="7.58033">
        <ele>159</ele>
        <time>2020-08-08T13:38:17Z</time>
      </trkpt>
      <trkpt lat="48.7496" lon="7.58026">
        <ele>159</ele>
        <time>2020-08-08T13:38:18Z</time>
      </trkpt>
      <trkpt lat="48.7496" lon="7.58013">
        <ele>159</ele>
        <time>2020-08-08T13:38:20Z</time>
      </trkpt>
      <trkpt lat="48.7496" lon="7.58006">
        <ele>159</ele>
        <time>2020-08-08T13:38:21Z</time>
      </trkpt>
      <trkpt lat="48.74961" lon="7.57993">
        <ele>159</ele>
        <time>2020-08-08T13:38:23Z</time>
      </trkpt>
      <trkpt lat="48.7496" lon="7.57986">
        <ele>159</ele>
        <time>2020-08-08T13:38:24Z</time>
      </trkpt>
      <trkpt lat="48.74959" lon="7.57974">
        <ele>159</ele>
        <time>2020-08-08T13:38:26Z</time>
      </trkpt>
      <trkpt lat="48.74958" lon="7.57961">
        <ele>159</ele>
        <time>2020-08-08T13:38:28Z</time>
      </trkpt>
      <trkpt lat="48.74957" lon="7.57953">
        <ele>159</ele>
        <time>2020-08-08T13:38:29Z</time>
      </trkpt>
      <trkpt lat="48.74957" lon="7.57941">
        <ele>159</ele>
        <time>2020-08-08T13:38:31Z</time>
      </trkpt>
      <trkpt lat="48.74957" lon="7.57933">
        <ele>159</ele>
        <time>2020-08-08T13:38:32Z</time>
      </trkpt>
      <trkpt lat="48.74956" lon="7.57925">
        <ele>159</ele>
        <time>2020-08-08T13:38:33Z</time>
      </trkpt>
      <trkpt lat="48.74956" lon="7.57918">
        <ele>159</ele>
        <time>2020-08-08T13:38:34Z</time>
      </trkpt>
      <trkpt lat="48.74957" lon="7.57909">
        <ele>158</ele>
        <time>2020-08-08T13:38:35Z</time>
      </trkpt>
      <trkpt lat="48.74956" lon="7.57902">
        <ele>159</ele>
        <time>2020-08-08T13:38:36Z</time>
      </trkpt>
      <trkpt lat="48.74956" lon="7.57895">
        <ele>159</ele>
        <time>2020-08-08T13:38:37Z</time>
      </trkpt>
      <trkpt lat="48.74955" lon="7.57887">
        <ele>159</ele>
        <time>2020-08-08T13:38:38Z</time>
      </trkpt>
      <trkpt lat="48.74954" lon="7.57879">
        <ele>159</ele>
        <time>2020-08-08T13:38:39Z</time>
      </trkpt>
      <trkpt lat="48.74953" lon="7.57871">
        <ele>160</ele>
        <time>2020-08-08T13:38:40Z</time>
      </trkpt>
      <trkpt lat="48.74952" lon="7.57863">
        <ele>160</ele>
        <time>2020-08-08T13:38:41Z</time>
      </trkpt>
      <trkpt lat="48.74952" lon="7.57855">
        <ele>159</ele>
        <time>2020-08-08T13:38:42Z</time>
      </trkpt>
      <trkpt lat="48.74952" lon="7.57847">
        <ele>159</ele>
        <time>2020-08-08T13:38:43Z</time>
      </trkpt>
      <trkpt lat="48.74952" lon="7.57839">
        <ele>159</ele>
        <time>2020-08-08T13:38:44Z</time>
      </trkpt>
      <trkpt lat="48.74952" lon="7.57825">
        <ele>159</ele>
        <time>2020-08-08T13:38:46Z</time>
      </trkpt>
      <trkpt lat="48.74951" lon="7.57817">
        <ele>159</ele>
        <time>2020-08-08T13:38:47Z</time>
      </trkpt>
      <trkpt lat="48.74951" lon="7.5781">
        <ele>159</ele>
        <time>2020-08-08T13:38:48Z</time>
      </trkpt>
      <trkpt lat="48.74952" lon="7.57803">
        <ele>158</ele>
        <time>2020-08-08T13:38:49Z</time>
      </trkpt>
      <trkpt lat="48.74951" lon="7.57796">
        <ele>158</ele>
        <time>2020-08-08T13:38:50Z</time>
      </trkpt>
      <trkpt lat="48.7495" lon="7.57788">
        <ele>158</ele>
        <time>2020-08-08T13:38:51Z</time>
      </trkpt>
      <trkpt lat="48.74949" lon="7.57782">
        <ele>159</ele>
        <time>2020-08-08T13:38:52Z</time>
      </trkpt>
      <trkpt lat="48.74949" lon="7.57774">
        <ele>158</ele>
        <time>2020-08-08T13:38:53Z</time>
      </trkpt>
      <trkpt lat="48.74947" lon="7.5776">
        <ele>158</ele>
        <time>2020-08-08T13:38:55Z</time>
      </trkpt>
      <trkpt lat="48.74947" lon="7.57752">
        <ele>158</ele>
        <time>2020-08-08T13:38:56Z</time>
      </trkpt>
      <trkpt lat="48.74946" lon="7.57738">
        <ele>158</ele>
        <time>2020-08-08T13:38:58Z</time>
      </trkpt>
      <trkpt lat="48.74946" lon="7.57731">
        <ele>158</ele>
        <time>2020-08-08T13:38:59Z</time>
      </trkpt>
      <trkpt lat="48.74947" lon="7.57723">
        <ele>158</ele>
        <time>2020-08-08T13:39:00Z</time>
      </trkpt>
      <trkpt lat="48.74946" lon="7.57716">
        <ele>159</ele>
        <time>2020-08-08T13:39:01Z</time>
      </trkpt>
      <trkpt lat="48.74945" lon="7.57703">
        <ele>159</ele>
        <time>2020-08-08T13:39:03Z</time>
      </trkpt>
      <trkpt lat="48.74944" lon="7.57695">
        <ele>159</ele>
        <time>2020-08-08T13:39:04Z</time>
      </trkpt>
      <trkpt lat="48.74944" lon="7.57688">
        <ele>159</ele>
        <time>2020-08-08T13:39:05Z</time>
      </trkpt>
      <trkpt lat="48.74943" lon="7.57673">
        <ele>159</ele>
        <time>2020-08-08T13:39:07Z</time>
      </trkpt>
      <trkpt lat="48.74944" lon="7.57666">
        <ele>159</ele>
        <time>2020-08-08T13:39:08Z</time>
      </trkpt>
      <trkpt lat="48.74943" lon="7.57658">
        <ele>159</ele>
        <time>2020-08-08T13:39:09Z</time>
      </trkpt>
      <trkpt lat="48.74943" lon="7.57651">
        <ele>159</ele>
        <time>2020-08-08T13:39:10Z</time>
      </trkpt>
      <trkpt lat="48.74942" lon="7.57638">
        <ele>159</ele>
        <time>2020-08-08T13:39:12Z</time>
      </trkpt>
      <trkpt lat="48.74942" lon="7.57631">
        <ele>159</ele>
        <time>2020-08-08T13:39:13Z</time>
      </trkpt>
      <trkpt lat="48.74941" lon="7.57623">
        <ele>159</ele>
        <time>2020-08-08T13:39:14Z</time>
      </trkpt>
      <trkpt lat="48.74941" lon="7.57615">
        <ele>159</ele>
        <time>2020-08-08T13:39:15Z</time>
      </trkpt>
      <trkpt lat="48.7494" lon="7.57602">
        <ele>159</ele>
        <time>2020-08-08T13:39:17Z</time>
      </trkpt>
      <trkpt lat="48.7494" lon="7.57594">
        <ele>159</ele>
        <time>2020-08-08T13:39:18Z</time>
      </trkpt>
      <trkpt lat="48.7494" lon="7.57586">
        <ele>158</ele>
        <time>2020-08-08T13:39:19Z</time>
      </trkpt>
      <trkpt lat="48.74939" lon="7.57578">
        <ele>159</ele>
        <time>2020-08-08T13:39:20Z</time>
      </trkpt>
      <trkpt lat="48.74938" lon="7.57569">
        <ele>159</ele>
        <time>2020-08-08T13:39:21Z</time>
      </trkpt>
      <trkpt lat="48.74939" lon="7.57562">
        <ele>158</ele>
        <time>2020-08-08T13:39:22Z</time>
      </trkpt>
      <trkpt lat="48.74938" lon="7.57555">
        <ele>158</ele>
        <time>2020-08-08T13:39:23Z</time>
      </trkpt>
      <trkpt lat="48.74937" lon="7.57548">
        <ele>159</ele>
        <time>2020-08-08T13:39:24Z</time>
      </trkpt>
      <trkpt lat="48.74937" lon="7.5754">
        <ele>159</ele>
        <time>2020-08-08T13:39:25Z</time>
      </trkpt>
      <trkpt lat="48.74937" lon="7.57532">
        <ele>159</ele>
        <time>2020-08-08T13:39:26Z</time>
      </trkpt>
      <trkpt lat="48.74937" lon="7.57524">
        <ele>159</ele>
        <time>2020-08-08T13:39:27Z</time>
      </trkpt>
      <trkpt lat="48.74936" lon="7.57511">
        <ele>159</ele>
        <time>2020-08-08T13:39:29Z</time>
      </trkpt>
      <trkpt lat="48.74936" lon="7.57504">
        <ele>159</ele>
        <time>2020-08-08T13:39:30Z</time>
      </trkpt>
      <trkpt lat="48.74936" lon="7.57497">
        <ele>158</ele>
        <time>2020-08-08T13:39:31Z</time>
      </trkpt>
      <trkpt lat="48.74936" lon="7.57488">
        <ele>158</ele>
        <time>2020-08-08T13:39:32Z</time>
      </trkpt>
      <trkpt lat="48.74934" lon="7.5748">
        <ele>158</ele>
        <time>2020-08-08T13:39:33Z</time>
      </trkpt>
      <trkpt lat="48.74933" lon="7.57471">
        <ele>158</ele>
        <time>2020-08-08T13:39:34Z</time>
      </trkpt>
      <trkpt lat="48.74932" lon="7.57463">
        <ele>158</ele>
        <time>2020-08-08T13:39:35Z</time>
      </trkpt>
      <trkpt lat="48.7493" lon="7.57453">
        <ele>158</ele>
        <time>2020-08-08T13:39:36Z</time>
      </trkpt>
      <trkpt lat="48.74929" lon="7.57444">
        <ele>158</ele>
        <time>2020-08-08T13:39:37Z</time>
      </trkpt>
      <trkpt lat="48.74928" lon="7.57433">
        <ele>158</ele>
        <time>2020-08-08T13:39:38Z</time>
      </trkpt>
      <trkpt lat="48.74927" lon="7.57424">
        <ele>158</ele>
        <time>2020-08-08T13:39:39Z</time>
      </trkpt>
      <trkpt lat="48.74925" lon="7.57415">
        <ele>158</ele>
        <time>2020-08-08T13:39:40Z</time>
      </trkpt>
      <trkpt lat="48.74925" lon="7.57406">
        <ele>158</ele>
        <time>2020-08-08T13:39:41Z</time>
      </trkpt>
      <trkpt lat="48.74923" lon="7.57398">
        <ele>158</ele>
        <time>2020-08-08T13:39:42Z</time>
      </trkpt>
      <trkpt lat="48.74923" lon="7.57389">
        <ele>158</ele>
        <time>2020-08-08T13:39:43Z</time>
      </trkpt>
      <trkpt lat="48.74923" lon="7.57381">
        <ele>158</ele>
        <time>2020-08-08T13:39:44Z</time>
      </trkpt>
      <trkpt lat="48.74922" lon="7.57373">
        <ele>158</ele>
        <time>2020-08-08T13:39:45Z</time>
      </trkpt>
      <trkpt lat="48.7492" lon="7.57361">
        <ele>159</ele>
        <time>2020-08-08T13:39:47Z</time>
      </trkpt>
      <trkpt lat="48.74918" lon="7.57349">
        <ele>159</ele>
        <time>2020-08-08T13:39:49Z</time>
      </trkpt>
      <trkpt lat="48.74918" lon="7.57342">
        <ele>159</ele>
        <time>2020-08-08T13:39:50Z</time>
      </trkpt>
      <trkpt lat="48.74915" lon="7.57328">
        <ele>159</ele>
        <time>2020-08-08T13:39:52Z</time>
      </trkpt>
      <trkpt lat="48.74912" lon="7.57322">
        <ele>159</ele>
        <time>2020-08-08T13:39:53Z</time>
      </trkpt>
      <trkpt lat="48.74913" lon="7.57308">
        <ele>159</ele>
        <time>2020-08-08T13:39:55Z</time>
      </trkpt>
      <trkpt lat="48.74913" lon="7.57296">
        <ele>159</ele>
        <time>2020-08-08T13:39:57Z</time>
      </trkpt>
      <trkpt lat="48.74912" lon="7.57284">
        <ele>159</ele>
        <time>2020-08-08T13:39:59Z</time>
      </trkpt>
      <trkpt lat="48.74911" lon="7.57274">
        <ele>159</ele>
        <time>2020-08-08T13:40:01Z</time>
      </trkpt>
      <trkpt lat="48.74911" lon="7.57266">
        <ele>159</ele>
        <time>2020-08-08T13:40:02Z</time>
      </trkpt>
      <trkpt lat="48.74908" lon="7.57255">
        <ele>159</ele>
        <time>2020-08-08T13:40:04Z</time>
      </trkpt>
      <trkpt lat="48.74906" lon="7.57244">
        <ele>159</ele>
        <time>2020-08-08T13:40:06Z</time>
      </trkpt>
      <trkpt lat="48.74905" lon="7.57237">
        <ele>159</ele>
        <time>2020-08-08T13:40:07Z</time>
      </trkpt>
      <trkpt lat="48.74902" lon="7.57227">
        <ele>159</ele>
        <time>2020-08-08T13:40:09Z</time>
      </trkpt>
      <trkpt lat="48.74898" lon="7.57216">
        <ele>160</ele>
        <time>2020-08-08T13:40:11Z</time>
      </trkpt>
      <trkpt lat="48.74895" lon="7.57204">
        <ele>160</ele>
        <time>2020-08-08T13:40:13Z</time>
      </trkpt>
      <trkpt lat="48.74892" lon="7.57198">
        <ele>160</ele>
        <time>2020-08-08T13:40:14Z</time>
      </trkpt>
      <trkpt lat="48.74888" lon="7.57187">
        <ele>160</ele>
        <time>2020-08-08T13:40:16Z</time>
      </trkpt>
      <trkpt lat="48.74884" lon="7.57178">
        <ele>161</ele>
        <time>2020-08-08T13:40:18Z</time>
      </trkpt>
      <trkpt lat="48.74881" lon="7.57168">
        <ele>161</ele>
        <time>2020-08-08T13:40:20Z</time>
      </trkpt>
      <trkpt lat="48.74878" lon="7.57158">
        <ele>161</ele>
        <time>2020-08-08T13:40:22Z</time>
      </trkpt>
      <trkpt lat="48.74875" lon="7.57146">
        <ele>161</ele>
        <time>2020-08-08T13:40:24Z</time>
      </trkpt>
      <trkpt lat="48.74873" lon="7.57135">
        <ele>160</ele>
        <time>2020-08-08T13:40:26Z</time>
      </trkpt>
      <trkpt lat="48.74872" lon="7.57123">
        <ele>160</ele>
        <time>2020-08-08T13:40:28Z</time>
      </trkpt>
      <trkpt lat="48.7487" lon="7.57112">
        <ele>160</ele>
        <time>2020-08-08T13:40:30Z</time>
      </trkpt>
      <trkpt lat="48.74868" lon="7.571">
        <ele>160</ele>
        <time>2020-08-08T13:40:32Z</time>
      </trkpt>
      <trkpt lat="48.74867" lon="7.57087">
        <ele>160</ele>
        <time>2020-08-08T13:40:34Z</time>
      </trkpt>
      <trkpt lat="48.74865" lon="7.57075">
        <ele>161</ele>
        <time>2020-08-08T13:40:36Z</time>
      </trkpt>
      <trkpt lat="48.74863" lon="7.57062">
        <ele>161</ele>
        <time>2020-08-08T13:40:38Z</time>
      </trkpt>
      <trkpt lat="48.7486" lon="7.5705">
        <ele>161</ele>
        <time>2020-08-08T13:40:40Z</time>
      </trkpt>
      <trkpt lat="48.7486" lon="7.57038">
        <ele>161</ele>
        <time>2020-08-08T13:40:42Z</time>
      </trkpt>
      <trkpt lat="48.74859" lon="7.57031">
        <ele>160</ele>
        <time>2020-08-08T13:40:43Z</time>
      </trkpt>
      <trkpt lat="48.74859" lon="7.57017">
        <ele>160</ele>
        <time>2020-08-08T13:40:45Z</time>
      </trkpt>
      <trkpt lat="48.74858" lon="7.57004">
        <ele>160</ele>
        <time>2020-08-08T13:40:47Z</time>
      </trkpt>
      <trkpt lat="48.74857" lon="7.56996">
        <ele>160</ele>
        <time>2020-08-08T13:40:48Z</time>
      </trkpt>
      <trkpt lat="48.74858" lon="7.56984">
        <ele>160</ele>
        <time>2020-08-08T13:40:50Z</time>
      </trkpt>
      <trkpt lat="48.74857" lon="7.56977">
        <ele>160</ele>
        <time>2020-08-08T13:40:51Z</time>
      </trkpt>
      <trkpt lat="48.74857" lon="7.56969">
        <ele>160</ele>
        <time>2020-08-08T13:40:52Z</time>
      </trkpt>
      <trkpt lat="48.74854" lon="7.56957">
        <ele>160</ele>
        <time>2020-08-08T13:40:54Z</time>
      </trkpt>
      <trkpt lat="48.7485" lon="7.56944">
        <ele>160</ele>
        <time>2020-08-08T13:40:56Z</time>
      </trkpt>
      <trkpt lat="48.74848" lon="7.56937">
        <ele>160</ele>
        <time>2020-08-08T13:40:57Z</time>
      </trkpt>
      <trkpt lat="48.74847" lon="7.56925">
        <ele>160</ele>
        <time>2020-08-08T13:40:59Z</time>
      </trkpt>
      <trkpt lat="48.74845" lon="7.56918">
        <ele>160</ele>
        <time>2020-08-08T13:41:00Z</time>
      </trkpt>
      <trkpt lat="48.74843" lon="7.56905">
        <ele>160</ele>
        <time>2020-08-08T13:41:02Z</time>
      </trkpt>
      <trkpt lat="48.74843" lon="7.56891">
        <ele>160</ele>
        <time>2020-08-08T13:41:04Z</time>
      </trkpt>
      <trkpt lat="48.74845" lon="7.56884">
        <ele>160</ele>
        <time>2020-08-08T13:41:05Z</time>
      </trkpt>
      <trkpt lat="48.74847" lon="7.56872">
        <ele>160</ele>
        <time>2020-08-08T13:41:07Z</time>
      </trkpt>
      <trkpt lat="48.74851" lon="7.56863">
        <ele>160</ele>
        <time>2020-08-08T13:41:09Z</time>
      </trkpt>
      <trkpt lat="48.74857" lon="7.5686">
        <ele>160</ele>
        <time>2020-08-08T13:41:11Z</time>
      </trkpt>
      <trkpt lat="48.74861" lon="7.56854">
        <ele>159</ele>
        <time>2020-08-08T13:41:13Z</time>
      </trkpt>
      <trkpt lat="48.7486" lon="7.56846">
        <ele>160</ele>
        <time>2020-08-08T13:41:15Z</time>
      </trkpt>
      <trkpt lat="48.74859" lon="7.56835">
        <ele>161</ele>
        <time>2020-08-08T13:41:17Z</time>
      </trkpt>
      <trkpt lat="48.74858" lon="7.56823">
        <ele>161</ele>
        <time>2020-08-08T13:41:19Z</time>
      </trkpt>
      <trkpt lat="48.74853" lon="7.56813">
        <ele>161</ele>
        <time>2020-08-08T13:41:21Z</time>
      </trkpt>
      <trkpt lat="48.74849" lon="7.56802">
        <ele>160</ele>
        <time>2020-08-08T13:41:23Z</time>
      </trkpt>
      <trkpt lat="48.74845" lon="7.5679">
        <ele>160</ele>
        <time>2020-08-08T13:41:25Z</time>
      </trkpt>
      <trkpt lat="48.74844" lon="7.56778">
        <ele>160</ele>
        <time>2020-08-08T13:41:27Z</time>
      </trkpt>
      <trkpt lat="48.74841" lon="7.56765">
        <ele>160</ele>
        <time>2020-08-08T13:41:29Z</time>
      </trkpt>
      <trkpt lat="48.7484" lon="7.56758">
        <ele>160</ele>
        <time>2020-08-08T13:41:30Z</time>
      </trkpt>
      <trkpt lat="48.7484" lon="7.56745">
        <ele>160</ele>
        <time>2020-08-08T13:41:32Z</time>
      </trkpt>
      <trkpt lat="48.74839" lon="7.56733">
        <ele>160</ele>
        <time>2020-08-08T13:41:34Z</time>
      </trkpt>
      <trkpt lat="48.74837" lon="7.56719">
        <ele>160</ele>
        <time>2020-08-08T13:41:36Z</time>
      </trkpt>
      <trkpt lat="48.74836" lon="7.56712">
        <ele>160</ele>
        <time>2020-08-08T13:41:37Z</time>
      </trkpt>
      <trkpt lat="48.74836" lon="7.56705">
        <ele>160</ele>
        <time>2020-08-08T13:41:38Z</time>
      </trkpt>
      <trkpt lat="48.74837" lon="7.56695">
        <ele>159</ele>
        <time>2020-08-08T13:41:40Z</time>
      </trkpt>
      <trkpt lat="48.74835" lon="7.56688">
        <ele>160</ele>
        <time>2020-08-08T13:41:43Z</time>
      </trkpt>
      <trkpt lat="48.74831" lon="7.56685">
        <ele>161</ele>
        <time>2020-08-08T13:41:52Z</time>
      </trkpt>
      <trkpt lat="48.74832" lon="7.56677">
        <ele>160</ele>
        <time>2020-08-08T13:41:59Z</time>
      </trkpt>
      <trkpt lat="48.74824" lon="7.56612">
        <ele>160</ele>
        <time>2020-08-08T14:15:27Z</time>
      </trkpt>
      <trkpt lat="48.74823" lon="7.56604">
        <ele>159</ele>
        <time>2020-08-08T14:15:29Z</time>
      </trkpt>
      <trkpt lat="48.74822" lon="7.56594">
        <ele>159</ele>
        <time>2020-08-08T14:15:31Z</time>
      </trkpt>
      <trkpt lat="48.7482" lon="7.56587">
        <ele>159</ele>
        <time>2020-08-08T14:15:33Z</time>
      </trkpt>
      <trkpt lat="48.74818" lon="7.56578">
        <ele>159</ele>
        <time>2020-08-08T14:15:35Z</time>
      </trkpt>
      <trkpt lat="48.74815" lon="7.56568">
        <ele>160</ele>
        <time>2020-08-08T14:15:37Z</time>
      </trkpt>
      <trkpt lat="48.74813" lon="7.56557">
        <ele>159</ele>
        <time>2020-08-08T14:15:39Z</time>
      </trkpt>
      <trkpt lat="48.74812" lon="7.56548">
        <ele>159</ele>
        <time>2020-08-08T14:15:41Z</time>
      </trkpt>
      <trkpt lat="48.7481" lon="7.5654">
        <ele>159</ele>
        <time>2020-08-08T14:15:43Z</time>
      </trkpt>
      <trkpt lat="48.74807" lon="7.5653">
        <ele>159</ele>
        <time>2020-08-08T14:15:46Z</time>
      </trkpt>
      <trkpt lat="48.74805" lon="7.56522">
        <ele>159</ele>
        <time>2020-08-08T14:15:48Z</time>
      </trkpt>
      <trkpt lat="48.74803" lon="7.56514">
        <ele>159</ele>
        <time>2020-08-08T14:15:50Z</time>
      </trkpt>
      <trkpt lat="48.748" lon="7.56504">
        <ele>160</ele>
        <time>2020-08-08T14:15:52Z</time>
      </trkpt>
      <trkpt lat="48.74798" lon="7.56496">
        <ele>159</ele>
        <time>2020-08-08T14:15:54Z</time>
      </trkpt>
      <trkpt lat="48.74794" lon="7.56487">
        <ele>160</ele>
        <time>2020-08-08T14:15:56Z</time>
      </trkpt>
      <trkpt lat="48.74791" lon="7.56477">
        <ele>160</ele>
        <time>2020-08-08T14:15:58Z</time>
      </trkpt>
      <trkpt lat="48.74788" lon="7.56466">
        <ele>160</ele>
        <time>2020-08-08T14:16:00Z</time>
      </trkpt>
      <trkpt lat="48.74785" lon="7.56455">
        <ele>160</ele>
        <time>2020-08-08T14:16:02Z</time>
      </trkpt>
      <trkpt lat="48.74783" lon="7.56444">
        <ele>160</ele>
        <time>2020-08-08T14:16:04Z</time>
      </trkpt>
      <trkpt lat="48.74779" lon="7.56433">
        <ele>160</ele>
        <time>2020-08-08T14:16:06Z</time>
      </trkpt>
      <trkpt lat="48.74775" lon="7.56422">
        <ele>161</ele>
        <time>2020-08-08T14:16:08Z</time>
      </trkpt>
      <trkpt lat="48.74772" lon="7.56409">
        <ele>161</ele>
        <time>2020-08-08T14:16:10Z</time>
      </trkpt>
      <trkpt lat="48.74768" lon="7.56397">
        <ele>161</ele>
        <time>2020-08-08T14:16:12Z</time>
      </trkpt>
      <trkpt lat="48.74765" lon="7.56385">
        <ele>161</ele>
        <time>2020-08-08T14:16:14Z</time>
      </trkpt>
      <trkpt lat="48.74761" lon="7.56373">
        <ele>161</ele>
        <time>2020-08-08T14:16:16Z</time>
      </trkpt>
      <trkpt lat="48.74757" lon="7.56361">
        <ele>160</ele>
        <time>2020-08-08T14:16:18Z</time>
      </trkpt>
      <trkpt lat="48.74754" lon="7.56349">
        <ele>160</ele>
        <time>2020-08-08T14:16:20Z</time>
      </trkpt>
      <trkpt lat="48.74749" lon="7.5633">
        <ele>159</ele>
        <time>2020-08-08T14:16:23Z</time>
      </trkpt>
      <trkpt lat="48.74746" lon="7.56318">
        <ele>159</ele>
        <time>2020-08-08T14:16:25Z</time>
      </trkpt>
      <trkpt lat="48.74744" lon="7.56312">
        <ele>159</ele>
        <time>2020-08-08T14:16:26Z</time>
      </trkpt>
      <trkpt lat="48.74741" lon="7.56305">
        <ele>159</ele>
        <time>2020-08-08T14:16:27Z</time>
      </trkpt>
      <trkpt lat="48.74738" lon="7.56293">
        <ele>160</ele>
        <time>2020-08-08T14:16:29Z</time>
      </trkpt>
      <trkpt lat="48.74736" lon="7.56287">
        <ele>160</ele>
        <time>2020-08-08T14:16:30Z</time>
      </trkpt>
      <trkpt lat="48.74734" lon="7.5628">
        <ele>160</ele>
        <time>2020-08-08T14:16:31Z</time>
      </trkpt>
      <trkpt lat="48.74731" lon="7.56268">
        <ele>160</ele>
        <time>2020-08-08T14:16:33Z</time>
      </trkpt>
      <trkpt lat="48.74729" lon="7.56261">
        <ele>160</ele>
        <time>2020-08-08T14:16:34Z</time>
      </trkpt>
      <trkpt lat="48.74725" lon="7.56248">
        <ele>160</ele>
        <time>2020-08-08T14:16:36Z</time>
      </trkpt>
      <trkpt lat="48.74722" lon="7.56235">
        <ele>160</ele>
        <time>2020-08-08T14:16:38Z</time>
      </trkpt>
      <trkpt lat="48.7472" lon="7.56229">
        <ele>160</ele>
        <time>2020-08-08T14:16:39Z</time>
      </trkpt>
      <trkpt lat="48.74716" lon="7.56216">
        <ele>160</ele>
        <time>2020-08-08T14:16:41Z</time>
      </trkpt>
      <trkpt lat="48.74714" lon="7.56209">
        <ele>160</ele>
        <time>2020-08-08T14:16:42Z</time>
      </trkpt>
      <trkpt lat="48.74711" lon="7.56197">
        <ele>161</ele>
        <time>2020-08-08T14:16:44Z</time>
      </trkpt>
      <trkpt lat="48.74709" lon="7.5619">
        <ele>161</ele>
        <time>2020-08-08T14:16:45Z</time>
      </trkpt>
      <trkpt lat="48.74707" lon="7.56183">
        <ele>160</ele>
        <time>2020-08-08T14:16:46Z</time>
      </trkpt>
      <trkpt lat="48.74705" lon="7.56177">
        <ele>160</ele>
        <time>2020-08-08T14:16:47Z</time>
      </trkpt>
      <trkpt lat="48.74702" lon="7.56164">
        <ele>160</ele>
        <time>2020-08-08T14:16:49Z</time>
      </trkpt>
      <trkpt lat="48.74698" lon="7.56152">
        <ele>160</ele>
        <time>2020-08-08T14:16:51Z</time>
      </trkpt>
      <trkpt lat="48.74696" lon="7.56145">
        <ele>160</ele>
        <time>2020-08-08T14:16:52Z</time>
      </trkpt>
      <trkpt lat="48.74694" lon="7.56138">
        <ele>160</ele>
        <time>2020-08-08T14:16:53Z</time>
      </trkpt>
      <trkpt lat="48.74692" lon="7.56131">
        <ele>160</ele>
        <time>2020-08-08T14:16:54Z</time>
      </trkpt>
      <trkpt lat="48.74688" lon="7.56119">
        <ele>160</ele>
        <time>2020-08-08T14:16:56Z</time>
      </trkpt>
      <trkpt lat="48.74686" lon="7.56111">
        <ele>160</ele>
        <time>2020-08-08T14:16:57Z</time>
      </trkpt>
      <trkpt lat="48.74682" lon="7.56101">
        <ele>160</ele>
        <time>2020-08-08T14:16:59Z</time>
      </trkpt>
      <trkpt lat="48.74678" lon="7.56089">
        <ele>160</ele>
        <time>2020-08-08T14:17:01Z</time>
      </trkpt>
      <trkpt lat="48.74677" lon="7.56078">
        <ele>160</ele>
        <time>2020-08-08T14:17:03Z</time>
      </trkpt>
      <trkpt lat="48.74673" lon="7.56066">
        <ele>160</ele>
        <time>2020-08-08T14:17:05Z</time>
      </trkpt>
      <trkpt lat="48.7467" lon="7.56054">
        <ele>160</ele>
        <time>2020-08-08T14:17:07Z</time>
      </trkpt>
      <trkpt lat="48.74665" lon="7.56043">
        <ele>160</ele>
        <time>2020-08-08T14:17:09Z</time>
      </trkpt>
      <trkpt lat="48.74663" lon="7.56035">
        <ele>160</ele>
        <time>2020-08-08T14:17:10Z</time>
      </trkpt>
      <trkpt lat="48.74661" lon="7.56029">
        <ele>160</ele>
        <time>2020-08-08T14:17:11Z</time>
      </trkpt>
      <trkpt lat="48.74659" lon="7.56022">
        <ele>160</ele>
        <time>2020-08-08T14:17:12Z</time>
      </trkpt>
      <trkpt lat="48.74657" lon="7.56015">
        <ele>160</ele>
        <time>2020-08-08T14:17:13Z</time>
      </trkpt>
      <trkpt lat="48.74655" lon="7.56009">
        <ele>160</ele>
        <time>2020-08-08T14:17:14Z</time>
      </trkpt>
      <trkpt lat="48.74653" lon="7.56001">
        <ele>160</ele>
        <time>2020-08-08T14:17:15Z</time>
      </trkpt>
      <trkpt lat="48.74651" lon="7.55994">
        <ele>160</ele>
        <time>2020-08-08T14:17:16Z</time>
      </trkpt>
      <trkpt lat="48.74649" lon="7.55987">
        <ele>160</ele>
        <time>2020-08-08T14:17:17Z</time>
      </trkpt>
      <trkpt lat="48.74647" lon="7.5598">
        <ele>160</ele>
        <time>2020-08-08T14:17:18Z</time>
      </trkpt>
      <trkpt lat="48.74645" lon="7.55973">
        <ele>160</ele>
        <time>2020-08-08T14:17:19Z</time>
      </trkpt>
      <trkpt lat="48.74643" lon="7.55965">
        <ele>160</ele>
        <time>2020-08-08T14:17:20Z</time>
      </trkpt>
      <trkpt lat="48.74641" lon="7.55958">
        <ele>160</ele>
        <time>2020-08-08T14:17:21Z</time>
      </trkpt>
      <trkpt lat="48.74639" lon="7.55951">
        <ele>160</ele>
        <time>2020-08-08T14:17:22Z</time>
      </trkpt>
      <trkpt lat="48.74637" lon="7.55943">
        <ele>160</ele>
        <time>2020-08-08T14:17:23Z</time>
      </trkpt>
      <trkpt lat="48.74635" lon="7.55936">
        <ele>160</ele>
        <time>2020-08-08T14:17:24Z</time>
      </trkpt>
      <trkpt lat="48.74632" lon="7.55925">
        <ele>160</ele>
        <time>2020-08-08T14:17:26Z</time>
      </trkpt>
      <trkpt lat="48.74628" lon="7.55912">
        <ele>161</ele>
        <time>2020-08-08T14:17:28Z</time>
      </trkpt>
      <trkpt lat="48.74625" lon="7.55906">
        <ele>161</ele>
        <time>2020-08-08T14:17:29Z</time>
      </trkpt>
      <trkpt lat="48.74622" lon="7.55894">
        <ele>161</ele>
        <time>2020-08-08T14:17:31Z</time>
      </trkpt>
      <trkpt lat="48.74618" lon="7.55889">
        <ele>161</ele>
        <time>2020-08-08T14:17:32Z</time>
      </trkpt>
      <trkpt lat="48.74616" lon="7.55883">
        <ele>161</ele>
        <time>2020-08-08T14:17:33Z</time>
      </trkpt>
      <trkpt lat="48.7461" lon="7.55872">
        <ele>161</ele>
        <time>2020-08-08T14:17:35Z</time>
      </trkpt>
      <trkpt lat="48.74606" lon="7.55862">
        <ele>161</ele>
        <time>2020-08-08T14:17:37Z</time>
      </trkpt>
      <trkpt lat="48.74603" lon="7.55856">
        <ele>161</ele>
        <time>2020-08-08T14:17:38Z</time>
      </trkpt>
      <trkpt lat="48.74596" lon="7.55846">
        <ele>161</ele>
        <time>2020-08-08T14:17:40Z</time>
      </trkpt>
      <trkpt lat="48.74591" lon="7.55837">
        <ele>161</ele>
        <time>2020-08-08T14:17:42Z</time>
      </trkpt>
      <trkpt lat="48.74587" lon="7.55834">
        <ele>162</ele>
        <time>2020-08-08T14:17:43Z</time>
      </trkpt>
      <trkpt lat="48.74582" lon="7.55828">
        <ele>162</ele>
        <time>2020-08-08T14:17:44Z</time>
      </trkpt>
      <trkpt lat="48.74574" lon="7.55818">
        <ele>162</ele>
        <time>2020-08-08T14:17:46Z</time>
      </trkpt>
      <trkpt lat="48.74571" lon="7.55813">
        <ele>162</ele>
        <time>2020-08-08T14:17:47Z</time>
      </trkpt>
      <trkpt lat="48.74567" lon="7.55807">
        <ele>162</ele>
        <time>2020-08-08T14:17:48Z</time>
      </trkpt>
      <trkpt lat="48.74564" lon="7.55802">
        <ele>163</ele>
        <time>2020-08-08T14:17:49Z</time>
      </trkpt>
      <trkpt lat="48.74558" lon="7.55794">
        <ele>162</ele>
        <time>2020-08-08T14:17:51Z</time>
      </trkpt>
      <trkpt lat="48.74554" lon="7.55788">
        <ele>162</ele>
        <time>2020-08-08T14:17:52Z</time>
      </trkpt>
      <trkpt lat="48.7455" lon="7.55783">
        <ele>162</ele>
        <time>2020-08-08T14:17:53Z</time>
      </trkpt>
      <trkpt lat="48.74546" lon="7.55778">
        <ele>162</ele>
        <time>2020-08-08T14:17:54Z</time>
      </trkpt>
      <trkpt lat="48.74541" lon="7.55773">
        <ele>162</ele>
        <time>2020-08-08T14:17:55Z</time>
      </trkpt>
      <trkpt lat="48.74536" lon="7.55768">
        <ele>163</ele>
        <time>2020-08-08T14:17:56Z</time>
      </trkpt>
      <trkpt lat="48.74532" lon="7.55764">
        <ele>162</ele>
        <time>2020-08-08T14:17:57Z</time>
      </trkpt>
      <trkpt lat="48.74529" lon="7.55759">
        <ele>162</ele>
        <time>2020-08-08T14:17:58Z</time>
      </trkpt>
      <trkpt lat="48.74524" lon="7.55755">
        <ele>162</ele>
        <time>2020-08-08T14:17:59Z</time>
      </trkpt>
      <trkpt lat="48.74518" lon="7.55746">
        <ele>162</ele>
        <time>2020-08-08T14:18:01Z</time>
      </trkpt>
      <trkpt lat="48.74514" lon="7.55742">
        <ele>163</ele>
        <time>2020-08-08T14:18:02Z</time>
      </trkpt>
      <trkpt lat="48.74507" lon="7.55737">
        <ele>163</ele>
        <time>2020-08-08T14:18:04Z</time>
      </trkpt>
      <trkpt lat="48.745" lon="7.55729">
        <ele>163</ele>
        <time>2020-08-08T14:18:06Z</time>
      </trkpt>
      <trkpt lat="48.74495" lon="7.55725">
        <ele>163</ele>
        <time>2020-08-08T14:18:07Z</time>
      </trkpt>
      <trkpt lat="48.7449" lon="7.55714">
        <ele>162</ele>
        <time>2020-08-08T14:18:09Z</time>
      </trkpt>
      <trkpt lat="48.74486" lon="7.55709">
        <ele>162</ele>
        <time>2020-08-08T14:18:10Z</time>
      </trkpt>
      <trkpt lat="48.74482" lon="7.55704">
        <ele>163</ele>
        <time>2020-08-08T14:18:11Z</time>
      </trkpt>
      <trkpt lat="48.74476" lon="7.55693">
        <ele>163</ele>
        <time>2020-08-08T14:18:13Z</time>
      </trkpt>
      <trkpt lat="48.74473" lon="7.55686">
        <ele>163</ele>
        <time>2020-08-08T14:18:14Z</time>
      </trkpt>
      <trkpt lat="48.74468" lon="7.55681">
        <ele>163</ele>
        <time>2020-08-08T14:18:15Z</time>
      </trkpt>
      <trkpt lat="48.74463" lon="7.5567">
        <ele>161</ele>
        <time>2020-08-08T14:18:17Z</time>
      </trkpt>
      <trkpt lat="48.74458" lon="7.55663">
        <ele>163</ele>
        <time>2020-08-08T14:18:18Z</time>
      </trkpt>
      <trkpt lat="48.74455" lon="7.55658">
        <ele>165</ele>
        <time>2020-08-08T14:18:19Z</time>
      </trkpt>
      <trkpt lat="48.7445" lon="7.55646">
        <ele>164</ele>
        <time>2020-08-08T14:18:21Z</time>
      </trkpt>
      <trkpt lat="48.74447" lon="7.5564">
        <ele>163</ele>
        <time>2020-08-08T14:18:22Z</time>
      </trkpt>
      <trkpt lat="48.74442" lon="7.5563">
        <ele>162</ele>
        <time>2020-08-08T14:18:24Z</time>
      </trkpt>
      <trkpt lat="48.74439" lon="7.55624">
        <ele>162</ele>
        <time>2020-08-08T14:18:25Z</time>
      </trkpt>
      <trkpt lat="48.74435" lon="7.55614">
        <ele>162</ele>
        <time>2020-08-08T14:18:27Z</time>
      </trkpt>
      <trkpt lat="48.74431" lon="7.55604">
        <ele>163</ele>
        <time>2020-08-08T14:18:29Z</time>
      </trkpt>
      <trkpt lat="48.74427" lon="7.55598">
        <ele>164</ele>
        <time>2020-08-08T14:18:30Z</time>
      </trkpt>
      <trkpt lat="48.74424" lon="7.55591">
        <ele>165</ele>
        <time>2020-08-08T14:18:31Z</time>
      </trkpt>
      <trkpt lat="48.74422" lon="7.55579">
        <ele>165</ele>
        <time>2020-08-08T14:18:33Z</time>
      </trkpt>
      <trkpt lat="48.74418" lon="7.55568">
        <ele>165</ele>
        <time>2020-08-08T14:18:35Z</time>
      </trkpt>
      <trkpt lat="48.74416" lon="7.55562">
        <ele>166</ele>
        <time>2020-08-08T14:18:36Z</time>
      </trkpt>
      <trkpt lat="48.74414" lon="7.55554">
        <ele>165</ele>
        <time>2020-08-08T14:18:37Z</time>
      </trkpt>
      <trkpt lat="48.74411" lon="7.55547">
        <ele>165</ele>
        <time>2020-08-08T14:18:38Z</time>
      </trkpt>
      <trkpt lat="48.74409" lon="7.55541">
        <ele>165</ele>
        <time>2020-08-08T14:18:39Z</time>
      </trkpt>
      <trkpt lat="48.74408" lon="7.55532">
        <ele>164</ele>
        <time>2020-08-08T14:18:40Z</time>
      </trkpt>
      <trkpt lat="48.74406" lon="7.55525">
        <ele>164</ele>
        <time>2020-08-08T14:18:41Z</time>
      </trkpt>
      <trkpt lat="48.74402" lon="7.55514">
        <ele>164</ele>
        <time>2020-08-08T14:18:43Z</time>
      </trkpt>
      <trkpt lat="48.74399" lon="7.55507">
        <ele>164</ele>
        <time>2020-08-08T14:18:44Z</time>
      </trkpt>
      <trkpt lat="48.74398" lon="7.55499">
        <ele>163</ele>
        <time>2020-08-08T14:18:45Z</time>
      </trkpt>
      <trkpt lat="48.74395" lon="7.55492">
        <ele>163</ele>
        <time>2020-08-08T14:18:46Z</time>
      </trkpt>
      <trkpt lat="48.7439" lon="7.55482">
        <ele>164</ele>
        <time>2020-08-08T14:18:48Z</time>
      </trkpt>
      <trkpt lat="48.74386" lon="7.55472">
        <ele>165</ele>
        <time>2020-08-08T14:18:50Z</time>
      </trkpt>
      <trkpt lat="48.74382" lon="7.55467">
        <ele>165</ele>
        <time>2020-08-08T14:18:51Z</time>
      </trkpt>
      <trkpt lat="48.74379" lon="7.5546">
        <ele>166</ele>
        <time>2020-08-08T14:18:52Z</time>
      </trkpt>
      <trkpt lat="48.74376" lon="7.55447">
        <ele>165</ele>
        <time>2020-08-08T14:18:54Z</time>
      </trkpt>
      <trkpt lat="48.74374" lon="7.5544">
        <ele>164</ele>
        <time>2020-08-08T14:18:55Z</time>
      </trkpt>
      <trkpt lat="48.74371" lon="7.55433">
        <ele>164</ele>
        <time>2020-08-08T14:18:56Z</time>
      </trkpt>
      <trkpt lat="48.7437" lon="7.55427">
        <ele>164</ele>
        <time>2020-08-08T14:18:57Z</time>
      </trkpt>
      <trkpt lat="48.74368" lon="7.5542">
        <ele>164</ele>
        <time>2020-08-08T14:18:58Z</time>
      </trkpt>
      <trkpt lat="48.74363" lon="7.55408">
        <ele>165</ele>
        <time>2020-08-08T14:19:00Z</time>
      </trkpt>
      <trkpt lat="48.74361" lon="7.55401">
        <ele>165</ele>
        <time>2020-08-08T14:19:01Z</time>
      </trkpt>
      <trkpt lat="48.74358" lon="7.55389">
        <ele>165</ele>
        <time>2020-08-08T14:19:03Z</time>
      </trkpt>
      <trkpt lat="48.74357" lon="7.55381">
        <ele>166</ele>
        <time>2020-08-08T14:19:04Z</time>
      </trkpt>
      <trkpt lat="48.74356" lon="7.55373">
        <ele>166</ele>
        <time>2020-08-08T14:19:05Z</time>
      </trkpt>
      <trkpt lat="48.74355" lon="7.55364">
        <ele>166</ele>
        <time>2020-08-08T14:19:06Z</time>
      </trkpt>
      <trkpt lat="48.74355" lon="7.55357">
        <ele>166</ele>
        <time>2020-08-08T14:19:07Z</time>
      </trkpt>
      <trkpt lat="48.74355" lon="7.55351">
        <ele>166</ele>
        <time>2020-08-08T14:19:08Z</time>
      </trkpt>
      <trkpt lat="48.74355" lon="7.55343">
        <ele>165</ele>
        <time>2020-08-08T14:19:09Z</time>
      </trkpt>
      <trkpt lat="48.74355" lon="7.55334">
        <ele>165</ele>
        <time>2020-08-08T14:19:10Z</time>
      </trkpt>
      <trkpt lat="48.74354" lon="7.55327">
        <ele>165</ele>
        <time>2020-08-08T14:19:11Z</time>
      </trkpt>
      <trkpt lat="48.74353" lon="7.5532">
        <ele>165</ele>
        <time>2020-08-08T14:19:12Z</time>
      </trkpt>
      <trkpt lat="48.74354" lon="7.55311">
        <ele>164</ele>
        <time>2020-08-08T14:19:13Z</time>
      </trkpt>
      <trkpt lat="48.74354" lon="7.55304">
        <ele>164</ele>
        <time>2020-08-08T14:19:14Z</time>
      </trkpt>
      <trkpt lat="48.74354" lon="7.55291">
        <ele>163</ele>
        <time>2020-08-08T14:19:16Z</time>
      </trkpt>
      <trkpt lat="48.74353" lon="7.55282">
        <ele>163</ele>
        <time>2020-08-08T14:19:17Z</time>
      </trkpt>
      <trkpt lat="48.74353" lon="7.55275">
        <ele>163</ele>
        <time>2020-08-08T14:19:18Z</time>
      </trkpt>
      <trkpt lat="48.74354" lon="7.55267">
        <ele>162</ele>
        <time>2020-08-08T14:19:19Z</time>
      </trkpt>
      <trkpt lat="48.74354" lon="7.55259">
        <ele>162</ele>
        <time>2020-08-08T14:19:20Z</time>
      </trkpt>
      <trkpt lat="48.74358" lon="7.5525">
        <ele>160</ele>
        <time>2020-08-08T14:19:22Z</time>
      </trkpt>
      <trkpt lat="48.74358" lon="7.55241">
        <ele>161</ele>
        <time>2020-08-08T14:19:23Z</time>
      </trkpt>
      <trkpt lat="48.74359" lon="7.55233">
        <ele>161</ele>
        <time>2020-08-08T14:19:24Z</time>
      </trkpt>
      <trkpt lat="48.7436" lon="7.55225">
        <ele>162</ele>
        <time>2020-08-08T14:19:25Z</time>
      </trkpt>
      <trkpt lat="48.7436" lon="7.55216">
        <ele>162</ele>
        <time>2020-08-08T14:19:26Z</time>
      </trkpt>
      <trkpt lat="48.74361" lon="7.552">
        <ele>163</ele>
        <time>2020-08-08T14:19:28Z</time>
      </trkpt>
      <trkpt lat="48.74362" lon="7.55186">
        <ele>163</ele>
        <time>2020-08-08T14:19:30Z</time>
      </trkpt>
      <trkpt lat="48.74364" lon="7.5518">
        <ele>163</ele>
        <time>2020-08-08T14:19:31Z</time>
      </trkpt>
      <trkpt lat="48.74365" lon="7.55166">
        <ele>163</ele>
        <time>2020-08-08T14:19:33Z</time>
      </trkpt>
      <trkpt lat="48.74366" lon="7.55159">
        <ele>163</ele>
        <time>2020-08-08T14:19:34Z</time>
      </trkpt>
      <trkpt lat="48.74367" lon="7.55148">
        <ele>163</ele>
        <time>2020-08-08T14:19:36Z</time>
      </trkpt>
      <trkpt lat="48.74367" lon="7.55132">
        <ele>163</ele>
        <time>2020-08-08T14:19:38Z</time>
      </trkpt>
      <trkpt lat="48.74368" lon="7.55125">
        <ele>163</ele>
        <time>2020-08-08T14:19:39Z</time>
      </trkpt>
      <trkpt lat="48.74371" lon="7.55113">
        <ele>162</ele>
        <time>2020-08-08T14:19:41Z</time>
      </trkpt>
      <trkpt lat="48.74373" lon="7.551">
        <ele>162</ele>
        <time>2020-08-08T14:19:43Z</time>
      </trkpt>
      <trkpt lat="48.74376" lon="7.55093">
        <ele>162</ele>
        <time>2020-08-08T14:19:44Z</time>
      </trkpt>
      <trkpt lat="48.74377" lon="7.55086">
        <ele>162</ele>
        <time>2020-08-08T14:19:45Z</time>
      </trkpt>
      <trkpt lat="48.7438" lon="7.55072">
        <ele>162</ele>
        <time>2020-08-08T14:19:47Z</time>
      </trkpt>
      <trkpt lat="48.74382" lon="7.55059">
        <ele>162</ele>
        <time>2020-08-08T14:19:49Z</time>
      </trkpt>
      <trkpt lat="48.74383" lon="7.55051">
        <ele>162</ele>
        <time>2020-08-08T14:19:50Z</time>
      </trkpt>
      <trkpt lat="48.74384" lon="7.55043">
        <ele>162</ele>
        <time>2020-08-08T14:19:51Z</time>
      </trkpt>
      <trkpt lat="48.74384" lon="7.55034">
        <ele>162</ele>
        <time>2020-08-08T14:19:52Z</time>
      </trkpt>
      <trkpt lat="48.74386" lon="7.55027">
        <ele>162</ele>
        <time>2020-08-08T14:19:53Z</time>
      </trkpt>
      <trkpt lat="48.74386" lon="7.55013">
        <ele>162</ele>
        <time>2020-08-08T14:19:55Z</time>
      </trkpt>
      <trkpt lat="48.74389" lon="7.55007">
        <ele>161</ele>
        <time>2020-08-08T14:19:56Z</time>
      </trkpt>
      <trkpt lat="48.7439" lon="7.54999">
        <ele>161</ele>
        <time>2020-08-08T14:19:57Z</time>
      </trkpt>
      <trkpt lat="48.74391" lon="7.54992">
        <ele>161</ele>
        <time>2020-08-08T14:19:58Z</time>
      </trkpt>
      <trkpt lat="48.74391" lon="7.54984">
        <ele>161</ele>
        <time>2020-08-08T14:19:59Z</time>
      </trkpt>
      <trkpt lat="48.74392" lon="7.54975">
        <ele>160</ele>
        <time>2020-08-08T14:20:00Z</time>
      </trkpt>
      <trkpt lat="48.74392" lon="7.54967">
        <ele>160</ele>
        <time>2020-08-08T14:20:01Z</time>
      </trkpt>
      <trkpt lat="48.74392" lon="7.54959">
        <ele>160</ele>
        <time>2020-08-08T14:20:02Z</time>
      </trkpt>
      <trkpt lat="48.74393" lon="7.54951">
        <ele>160</ele>
        <time>2020-08-08T14:20:03Z</time>
      </trkpt>
      <trkpt lat="48.74394" lon="7.54943">
        <ele>160</ele>
        <time>2020-08-08T14:20:04Z</time>
      </trkpt>
      <trkpt lat="48.74394" lon="7.54935">
        <ele>161</ele>
        <time>2020-08-08T14:20:05Z</time>
      </trkpt>
      <trkpt lat="48.74396" lon="7.54923">
        <ele>161</ele>
        <time>2020-08-08T14:20:07Z</time>
      </trkpt>
      <trkpt lat="48.74398" lon="7.5491">
        <ele>161</ele>
        <time>2020-08-08T14:20:09Z</time>
      </trkpt>
      <trkpt lat="48.744" lon="7.54899">
        <ele>161</ele>
        <time>2020-08-08T14:20:11Z</time>
      </trkpt>
      <trkpt lat="48.74401" lon="7.54891">
        <ele>161</ele>
        <time>2020-08-08T14:20:12Z</time>
      </trkpt>
      <trkpt lat="48.74402" lon="7.54876">
        <ele>161</ele>
        <time>2020-08-08T14:20:14Z</time>
      </trkpt>
      <trkpt lat="48.74402" lon="7.54869">
        <ele>161</ele>
        <time>2020-08-08T14:20:15Z</time>
      </trkpt>
      <trkpt lat="48.74404" lon="7.54857">
        <ele>161</ele>
        <time>2020-08-08T14:20:17Z</time>
      </trkpt>
      <trkpt lat="48.74405" lon="7.54849">
        <ele>160</ele>
        <time>2020-08-08T14:20:18Z</time>
      </trkpt>
      <trkpt lat="48.74407" lon="7.54836">
        <ele>160</ele>
        <time>2020-08-08T14:20:20Z</time>
      </trkpt>
      <trkpt lat="48.74406" lon="7.54827">
        <ele>160</ele>
        <time>2020-08-08T14:20:21Z</time>
      </trkpt>
      <trkpt lat="48.74408" lon="7.54813">
        <ele>160</ele>
        <time>2020-08-08T14:20:23Z</time>
      </trkpt>
      <trkpt lat="48.74408" lon="7.54805">
        <ele>160</ele>
        <time>2020-08-08T14:20:24Z</time>
      </trkpt>
      <trkpt lat="48.74408" lon="7.54797">
        <ele>160</ele>
        <time>2020-08-08T14:20:25Z</time>
      </trkpt>
      <trkpt lat="48.74407" lon="7.54789">
        <ele>161</ele>
        <time>2020-08-08T14:20:26Z</time>
      </trkpt>
      <trkpt lat="48.74407" lon="7.54781">
        <ele>161</ele>
        <time>2020-08-08T14:20:27Z</time>
      </trkpt>
      <trkpt lat="48.74407" lon="7.54773">
        <ele>161</ele>
        <time>2020-08-08T14:20:28Z</time>
      </trkpt>
      <trkpt lat="48.74406" lon="7.5476">
        <ele>161</ele>
        <time>2020-08-08T14:20:30Z</time>
      </trkpt>
      <trkpt lat="48.74407" lon="7.54753">
        <ele>160</ele>
        <time>2020-08-08T14:20:31Z</time>
      </trkpt>
      <trkpt lat="48.74407" lon="7.54739">
        <ele>160</ele>
        <time>2020-08-08T14:20:33Z</time>
      </trkpt>
      <trkpt lat="48.74406" lon="7.54732">
        <ele>160</ele>
        <time>2020-08-08T14:20:34Z</time>
      </trkpt>
      <trkpt lat="48.74406" lon="7.54725">
        <ele>160</ele>
        <time>2020-08-08T14:20:35Z</time>
      </trkpt>
      <trkpt lat="48.74405" lon="7.54717">
        <ele>160</ele>
        <time>2020-08-08T14:20:36Z</time>
      </trkpt>
      <trkpt lat="48.74403" lon="7.54704">
        <ele>160</ele>
        <time>2020-08-08T14:20:38Z</time>
      </trkpt>
      <trkpt lat="48.74402" lon="7.54697">
        <ele>160</ele>
        <time>2020-08-08T14:20:39Z</time>
      </trkpt>
      <trkpt lat="48.744" lon="7.54684">
        <ele>160</ele>
        <time>2020-08-08T14:20:41Z</time>
      </trkpt>
      <trkpt lat="48.74399" lon="7.54671">
        <ele>160</ele>
        <time>2020-08-08T14:20:43Z</time>
      </trkpt>
      <trkpt lat="48.74398" lon="7.54664">
        <ele>160</ele>
        <time>2020-08-08T14:20:44Z</time>
      </trkpt>
      <trkpt lat="48.74395" lon="7.54651">
        <ele>160</ele>
        <time>2020-08-08T14:20:46Z</time>
      </trkpt>
      <trkpt lat="48.74393" lon="7.54644">
        <ele>160</ele>
        <time>2020-08-08T14:20:47Z</time>
      </trkpt>
      <trkpt lat="48.74391" lon="7.54632">
        <ele>160</ele>
        <time>2020-08-08T14:20:49Z</time>
      </trkpt>
      <trkpt lat="48.74389" lon="7.54622">
        <ele>160</ele>
        <time>2020-08-08T14:20:51Z</time>
      </trkpt>
      <trkpt lat="48.74386" lon="7.54609">
        <ele>160</ele>
        <time>2020-08-08T14:20:53Z</time>
      </trkpt>
      <trkpt lat="48.74384" lon="7.54596">
        <ele>160</ele>
        <time>2020-08-08T14:20:55Z</time>
      </trkpt>
      <trkpt lat="48.74382" lon="7.54585">
        <ele>160</ele>
        <time>2020-08-08T14:20:57Z</time>
      </trkpt>
      <trkpt lat="48.74379" lon="7.54571">
        <ele>160</ele>
        <time>2020-08-08T14:20:59Z</time>
      </trkpt>
      <trkpt lat="48.74378" lon="7.54564">
        <ele>160</ele>
        <time>2020-08-08T14:21:00Z</time>
      </trkpt>
      <trkpt lat="48.74376" lon="7.5455">
        <ele>159</ele>
        <time>2020-08-08T14:21:02Z</time>
      </trkpt>
      <trkpt lat="48.74374" lon="7.54543">
        <ele>159</ele>
        <time>2020-08-08T14:21:03Z</time>
      </trkpt>
      <trkpt lat="48.74373" lon="7.54535">
        <ele>159</ele>
        <time>2020-08-08T14:21:04Z</time>
      </trkpt>
      <trkpt lat="48.74371" lon="7.54522">
        <ele>159</ele>
        <time>2020-08-08T14:21:06Z</time>
      </trkpt>
      <trkpt lat="48.74368" lon="7.54515">
        <ele>159</ele>
        <time>2020-08-08T14:21:07Z</time>
      </trkpt>
      <trkpt lat="48.74368" lon="7.54508">
        <ele>159</ele>
        <time>2020-08-08T14:21:08Z</time>
      </trkpt>
      <trkpt lat="48.74366" lon="7.545">
        <ele>159</ele>
        <time>2020-08-08T14:21:09Z</time>
      </trkpt>
      <trkpt lat="48.74366" lon="7.54492">
        <ele>159</ele>
        <time>2020-08-08T14:21:10Z</time>
      </trkpt>
      <trkpt lat="48.74364" lon="7.54484">
        <ele>159</ele>
        <time>2020-08-08T14:21:11Z</time>
      </trkpt>
      <trkpt lat="48.74361" lon="7.54475">
        <ele>159</ele>
        <time>2020-08-08T14:21:12Z</time>
      </trkpt>
      <trkpt lat="48.7436" lon="7.54467">
        <ele>159</ele>
        <time>2020-08-08T14:21:13Z</time>
      </trkpt>
      <trkpt lat="48.74358" lon="7.5446">
        <ele>159</ele>
        <time>2020-08-08T14:21:14Z</time>
      </trkpt>
      <trkpt lat="48.74356" lon="7.54448">
        <ele>159</ele>
        <time>2020-08-08T14:21:16Z</time>
      </trkpt>
      <trkpt lat="48.74354" lon="7.54441">
        <ele>159</ele>
        <time>2020-08-08T14:21:17Z</time>
      </trkpt>
      <trkpt lat="48.74352" lon="7.54433">
        <ele>159</ele>
        <time>2020-08-08T14:21:18Z</time>
      </trkpt>
      <trkpt lat="48.74351" lon="7.54426">
        <ele>159</ele>
        <time>2020-08-08T14:21:19Z</time>
      </trkpt>
      <trkpt lat="48.74348" lon="7.54412">
        <ele>159</ele>
        <time>2020-08-08T14:21:21Z</time>
      </trkpt>
      <trkpt lat="48.74347" lon="7.54405">
        <ele>159</ele>
        <time>2020-08-08T14:21:22Z</time>
      </trkpt>
      <trkpt lat="48.74344" lon="7.54398">
        <ele>159</ele>
        <time>2020-08-08T14:21:23Z</time>
      </trkpt>
      <trkpt lat="48.74343" lon="7.5439">
        <ele>159</ele>
        <time>2020-08-08T14:21:24Z</time>
      </trkpt>
      <trkpt lat="48.74341" lon="7.54384">
        <ele>159</ele>
        <time>2020-08-08T14:21:25Z</time>
      </trkpt>
      <trkpt lat="48.7434" lon="7.54377">
        <ele>159</ele>
        <time>2020-08-08T14:21:26Z</time>
      </trkpt>
      <trkpt lat="48.74336" lon="7.54365">
        <ele>159</ele>
        <time>2020-08-08T14:21:28Z</time>
      </trkpt>
      <trkpt lat="48.74335" lon="7.54358">
        <ele>159</ele>
        <time>2020-08-08T14:21:29Z</time>
      </trkpt>
      <trkpt lat="48.74332" lon="7.54352">
        <ele>159</ele>
        <time>2020-08-08T14:21:30Z</time>
      </trkpt>
      <trkpt lat="48.74331" lon="7.54345">
        <ele>159</ele>
        <time>2020-08-08T14:21:31Z</time>
      </trkpt>
      <trkpt lat="48.74328" lon="7.54333">
        <ele>159</ele>
        <time>2020-08-08T14:21:33Z</time>
      </trkpt>
      <trkpt lat="48.74325" lon="7.54327">
        <ele>159</ele>
        <time>2020-08-08T14:21:34Z</time>
      </trkpt>
      <trkpt lat="48.74324" lon="7.5432">
        <ele>159</ele>
        <time>2020-08-08T14:21:35Z</time>
      </trkpt>
      <trkpt lat="48.74322" lon="7.54314">
        <ele>159</ele>
        <time>2020-08-08T14:21:36Z</time>
      </trkpt>
      <trkpt lat="48.74317" lon="7.54303">
        <ele>159</ele>
        <time>2020-08-08T14:21:38Z</time>
      </trkpt>
      <trkpt lat="48.74314" lon="7.54288">
        <ele>159</ele>
        <time>2020-08-08T14:21:40Z</time>
      </trkpt>
      <trkpt lat="48.74312" lon="7.54282">
        <ele>159</ele>
        <time>2020-08-08T14:21:41Z</time>
      </trkpt>
      <trkpt lat="48.7431" lon="7.5427">
        <ele>159</ele>
        <time>2020-08-08T14:21:43Z</time>
      </trkpt>
      <trkpt lat="48.74308" lon="7.54263">
        <ele>159</ele>
        <time>2020-08-08T14:21:44Z</time>
      </trkpt>
      <trkpt lat="48.74305" lon="7.54256">
        <ele>159</ele>
        <time>2020-08-08T14:21:45Z</time>
      </trkpt>
      <trkpt lat="48.74302" lon="7.54249">
        <ele>159</ele>
        <time>2020-08-08T14:21:46Z</time>
      </trkpt>
      <trkpt lat="48.743" lon="7.54242">
        <ele>159</ele>
        <time>2020-08-08T14:21:47Z</time>
      </trkpt>
      <trkpt lat="48.74297" lon="7.54236">
        <ele>159</ele>
        <time>2020-08-08T14:21:48Z</time>
      </trkpt>
      <trkpt lat="48.74294" lon="7.5423">
        <ele>159</ele>
        <time>2020-08-08T14:21:49Z</time>
      </trkpt>
      <trkpt lat="48.74291" lon="7.54223">
        <ele>159</ele>
        <time>2020-08-08T14:21:50Z</time>
      </trkpt>
      <trkpt lat="48.74289" lon="7.54216">
        <ele>159</ele>
        <time>2020-08-08T14:21:51Z</time>
      </trkpt>
      <trkpt lat="48.74284" lon="7.54205">
        <ele>159</ele>
        <time>2020-08-08T14:21:53Z</time>
      </trkpt>
      <trkpt lat="48.7428" lon="7.54193">
        <ele>159</ele>
        <time>2020-08-08T14:21:55Z</time>
      </trkpt>
      <trkpt lat="48.74277" lon="7.54187">
        <ele>159</ele>
        <time>2020-08-08T14:21:56Z</time>
      </trkpt>
      <trkpt lat="48.74275" lon="7.5418">
        <ele>160</ele>
        <time>2020-08-08T14:21:57Z</time>
      </trkpt>
      <trkpt lat="48.74273" lon="7.54174">
        <ele>160</ele>
        <time>2020-08-08T14:21:58Z</time>
      </trkpt>
      <trkpt lat="48.7427" lon="7.54167">
        <ele>160</ele>
        <time>2020-08-08T14:21:59Z</time>
      </trkpt>
      <trkpt lat="48.74267" lon="7.54161">
        <ele>160</ele>
        <time>2020-08-08T14:22:00Z</time>
      </trkpt>
      <trkpt lat="48.74263" lon="7.54149">
        <ele>160</ele>
        <time>2020-08-08T14:22:02Z</time>
      </trkpt>
      <trkpt lat="48.74261" lon="7.54142">
        <ele>160</ele>
        <time>2020-08-08T14:22:03Z</time>
      </trkpt>
      <trkpt lat="48.74258" lon="7.54135">
        <ele>160</ele>
        <time>2020-08-08T14:22:04Z</time>
      </trkpt>
      <trkpt lat="48.74256" lon="7.54128">
        <ele>160</ele>
        <time>2020-08-08T14:22:05Z</time>
      </trkpt>
      <trkpt lat="48.74254" lon="7.54121">
        <ele>160</ele>
        <time>2020-08-08T14:22:06Z</time>
      </trkpt>
      <trkpt lat="48.74249" lon="7.54108">
        <ele>160</ele>
        <time>2020-08-08T14:22:08Z</time>
      </trkpt>
      <trkpt lat="48.74247" lon="7.54102">
        <ele>160</ele>
        <time>2020-08-08T14:22:09Z</time>
      </trkpt>
      <trkpt lat="48.74245" lon="7.54095">
        <ele>159</ele>
        <time>2020-08-08T14:22:10Z</time>
      </trkpt>
      <trkpt lat="48.74242" lon="7.54088">
        <ele>159</ele>
        <time>2020-08-08T14:22:11Z</time>
      </trkpt>
      <trkpt lat="48.74239" lon="7.54082">
        <ele>159</ele>
        <time>2020-08-08T14:22:12Z</time>
      </trkpt>
      <trkpt lat="48.74236" lon="7.54074">
        <ele>159</ele>
        <time>2020-08-08T14:22:13Z</time>
      </trkpt>
      <trkpt lat="48.74231" lon="7.54062">
        <ele>159</ele>
        <time>2020-08-08T14:22:15Z</time>
      </trkpt>
      <trkpt lat="48.74229" lon="7.54055">
        <ele>160</ele>
        <time>2020-08-08T14:22:16Z</time>
      </trkpt>
      <trkpt lat="48.74227" lon="7.54049">
        <ele>160</ele>
        <time>2020-08-08T14:22:17Z</time>
      </trkpt>
      <trkpt lat="48.74224" lon="7.54043">
        <ele>159</ele>
        <time>2020-08-08T14:22:18Z</time>
      </trkpt>
      <trkpt lat="48.74221" lon="7.54036">
        <ele>159</ele>
        <time>2020-08-08T14:22:19Z</time>
      </trkpt>
      <trkpt lat="48.74217" lon="7.54024">
        <ele>159</ele>
        <time>2020-08-08T14:22:21Z</time>
      </trkpt>
      <trkpt lat="48.74213" lon="7.54012">
        <ele>159</ele>
        <time>2020-08-08T14:22:23Z</time>
      </trkpt>
      <trkpt lat="48.7421" lon="7.54005">
        <ele>159</ele>
        <time>2020-08-08T14:22:24Z</time>
      </trkpt>
      <trkpt lat="48.74207" lon="7.53997">
        <ele>159</ele>
        <time>2020-08-08T14:22:25Z</time>
      </trkpt>
      <trkpt lat="48.74204" lon="7.53991">
        <ele>159</ele>
        <time>2020-08-08T14:22:26Z</time>
      </trkpt>
      <trkpt lat="48.74202" lon="7.53985">
        <ele>159</ele>
        <time>2020-08-08T14:22:27Z</time>
      </trkpt>
      <trkpt lat="48.74197" lon="7.53972">
        <ele>159</ele>
        <time>2020-08-08T14:22:29Z</time>
      </trkpt>
      <trkpt lat="48.74193" lon="7.53961">
        <ele>159</ele>
        <time>2020-08-08T14:22:31Z</time>
      </trkpt>
      <trkpt lat="48.74191" lon="7.53954">
        <ele>159</ele>
        <time>2020-08-08T14:22:32Z</time>
      </trkpt>
      <trkpt lat="48.74189" lon="7.53947">
        <ele>159</ele>
        <time>2020-08-08T14:22:33Z</time>
      </trkpt>
      <trkpt lat="48.74187" lon="7.53939">
        <ele>159</ele>
        <time>2020-08-08T14:22:34Z</time>
      </trkpt>
      <trkpt lat="48.74184" lon="7.53931">
        <ele>159</ele>
        <time>2020-08-08T14:22:35Z</time>
      </trkpt>
      <trkpt lat="48.74182" lon="7.53924">
        <ele>159</ele>
        <time>2020-08-08T14:22:36Z</time>
      </trkpt>
      <trkpt lat="48.74178" lon="7.53911">
        <ele>159</ele>
        <time>2020-08-08T14:22:38Z</time>
      </trkpt>
      <trkpt lat="48.74175" lon="7.53905">
        <ele>159</ele>
        <time>2020-08-08T14:22:39Z</time>
      </trkpt>
      <trkpt lat="48.74173" lon="7.53897">
        <ele>159</ele>
        <time>2020-08-08T14:22:40Z</time>
      </trkpt>
      <trkpt lat="48.7417" lon="7.5389">
        <ele>159</ele>
        <time>2020-08-08T14:22:41Z</time>
      </trkpt>
      <trkpt lat="48.74167" lon="7.53884">
        <ele>159</ele>
        <time>2020-08-08T14:22:42Z</time>
      </trkpt>
      <trkpt lat="48.74165" lon="7.53877">
        <ele>159</ele>
        <time>2020-08-08T14:22:43Z</time>
      </trkpt>
      <trkpt lat="48.74162" lon="7.5387">
        <ele>159</ele>
        <time>2020-08-08T14:22:44Z</time>
      </trkpt>
      <trkpt lat="48.7416" lon="7.53864">
        <ele>159</ele>
        <time>2020-08-08T14:22:45Z</time>
      </trkpt>
      <trkpt lat="48.74157" lon="7.53856">
        <ele>159</ele>
        <time>2020-08-08T14:22:46Z</time>
      </trkpt>
      <trkpt lat="48.74154" lon="7.53848">
        <ele>159</ele>
        <time>2020-08-08T14:22:47Z</time>
      </trkpt>
      <trkpt lat="48.74151" lon="7.53841">
        <ele>159</ele>
        <time>2020-08-08T14:22:48Z</time>
      </trkpt>
      <trkpt lat="48.74148" lon="7.53834">
        <ele>159</ele>
        <time>2020-08-08T14:22:49Z</time>
      </trkpt>
      <trkpt lat="48.74145" lon="7.53827">
        <ele>159</ele>
        <time>2020-08-08T14:22:50Z</time>
      </trkpt>
      <trkpt lat="48.74142" lon="7.5382">
        <ele>159</ele>
        <time>2020-08-08T14:22:51Z</time>
      </trkpt>
      <trkpt lat="48.74138" lon="7.53807">
        <ele>159</ele>
        <time>2020-08-08T14:22:53Z</time>
      </trkpt>
      <trkpt lat="48.74133" lon="7.53795">
        <ele>159</ele>
        <time>2020-08-08T14:22:55Z</time>
      </trkpt>
      <trkpt lat="48.74127" lon="7.5378">
        <ele>159</ele>
        <time>2020-08-08T14:22:57Z</time>
      </trkpt>
      <trkpt lat="48.74123" lon="7.53773">
        <ele>158</ele>
        <time>2020-08-08T14:22:58Z</time>
      </trkpt>
      <trkpt lat="48.74122" lon="7.53765">
        <ele>158</ele>
        <time>2020-08-08T14:22:59Z</time>
      </trkpt>
      <trkpt lat="48.74121" lon="7.53758">
        <ele>159</ele>
        <time>2020-08-08T14:23:00Z</time>
      </trkpt>
      <trkpt lat="48.74118" lon="7.5375">
        <ele>159</ele>
        <time>2020-08-08T14:23:01Z</time>
      </trkpt>
      <trkpt lat="48.74115" lon="7.53738">
        <ele>160</ele>
        <time>2020-08-08T14:23:03Z</time>
      </trkpt>
      <trkpt lat="48.74113" lon="7.53732">
        <ele>161</ele>
        <time>2020-08-08T14:23:04Z</time>
      </trkpt>
      <trkpt lat="48.7411" lon="7.5372">
        <ele>161</ele>
        <time>2020-08-08T14:23:06Z</time>
      </trkpt>
      <trkpt lat="48.74106" lon="7.53711">
        <ele>161</ele>
        <time>2020-08-08T14:23:08Z</time>
      </trkpt>
      <trkpt lat="48.74103" lon="7.53703">
        <ele>162</ele>
        <time>2020-08-08T14:23:10Z</time>
      </trkpt>
      <trkpt lat="48.741" lon="7.53693">
        <ele>162</ele>
        <time>2020-08-08T14:23:12Z</time>
      </trkpt>
      <trkpt lat="48.74098" lon="7.53682">
        <ele>162</ele>
        <time>2020-08-08T14:23:14Z</time>
      </trkpt>
      <trkpt lat="48.74096" lon="7.5367">
        <ele>162</ele>
        <time>2020-08-08T14:23:16Z</time>
      </trkpt>
      <trkpt lat="48.74093" lon="7.53658">
        <ele>161</ele>
        <time>2020-08-08T14:23:18Z</time>
      </trkpt>
      <trkpt lat="48.74091" lon="7.53648">
        <ele>161</ele>
        <time>2020-08-08T14:23:20Z</time>
      </trkpt>
      <trkpt lat="48.74088" lon="7.53636">
        <ele>161</ele>
        <time>2020-08-08T14:23:22Z</time>
      </trkpt>
      <trkpt lat="48.74085" lon="7.53626">
        <ele>162</ele>
        <time>2020-08-08T14:23:24Z</time>
      </trkpt>
      <trkpt lat="48.74082" lon="7.5362">
        <ele>161</ele>
        <time>2020-08-08T14:23:25Z</time>
      </trkpt>
      <trkpt lat="48.74077" lon="7.5361">
        <ele>161</ele>
        <time>2020-08-08T14:23:27Z</time>
      </trkpt>
      <trkpt lat="48.74072" lon="7.53599">
        <ele>162</ele>
        <time>2020-08-08T14:23:29Z</time>
      </trkpt>
      <trkpt lat="48.7407" lon="7.53592">
        <ele>162</ele>
        <time>2020-08-08T14:23:30Z</time>
      </trkpt>
      <trkpt lat="48.74069" lon="7.53586">
        <ele>162</ele>
        <time>2020-08-08T14:23:31Z</time>
      </trkpt>
      <trkpt lat="48.74066" lon="7.53579">
        <ele>162</ele>
        <time>2020-08-08T14:23:32Z</time>
      </trkpt>
      <trkpt lat="48.74063" lon="7.53567">
        <ele>161</ele>
        <time>2020-08-08T14:23:34Z</time>
      </trkpt>
      <trkpt lat="48.74061" lon="7.5356">
        <ele>161</ele>
        <time>2020-08-08T14:23:35Z</time>
      </trkpt>
      <trkpt lat="48.74058" lon="7.53547">
        <ele>161</ele>
        <time>2020-08-08T14:23:37Z</time>
      </trkpt>
      <trkpt lat="48.74055" lon="7.53537">
        <ele>161</ele>
        <time>2020-08-08T14:23:39Z</time>
      </trkpt>
      <trkpt lat="48.74054" lon="7.53529">
        <ele>161</ele>
        <time>2020-08-08T14:23:40Z</time>
      </trkpt>
      <trkpt lat="48.74053" lon="7.53523">
        <ele>161</ele>
        <time>2020-08-08T14:23:41Z</time>
      </trkpt>
      <trkpt lat="48.74052" lon="7.53515">
        <ele>161</ele>
        <time>2020-08-08T14:23:42Z</time>
      </trkpt>
      <trkpt lat="48.74051" lon="7.53508">
        <ele>161</ele>
        <time>2020-08-08T14:23:43Z</time>
      </trkpt>
      <trkpt lat="48.74051" lon="7.53495">
        <ele>162</ele>
        <time>2020-08-08T14:23:45Z</time>
      </trkpt>
      <trkpt lat="48.74049" lon="7.53481">
        <ele>162</ele>
        <time>2020-08-08T14:23:47Z</time>
      </trkpt>
      <trkpt lat="48.74048" lon="7.53473">
        <ele>162</ele>
        <time>2020-08-08T14:23:48Z</time>
      </trkpt>
      <trkpt lat="48.74047" lon="7.53466">
        <ele>162</ele>
        <time>2020-08-08T14:23:49Z</time>
      </trkpt>
      <trkpt lat="48.74046" lon="7.53459">
        <ele>162</ele>
        <time>2020-08-08T14:23:50Z</time>
      </trkpt>
      <trkpt lat="48.74044" lon="7.53453">
        <ele>162</ele>
        <time>2020-08-08T14:23:51Z</time>
      </trkpt>
      <trkpt lat="48.74043" lon="7.53445">
        <ele>162</ele>
        <time>2020-08-08T14:23:52Z</time>
      </trkpt>
      <trkpt lat="48.74042" lon="7.53438">
        <ele>162</ele>
        <time>2020-08-08T14:23:53Z</time>
      </trkpt>
      <trkpt lat="48.7404" lon="7.53425">
        <ele>162</ele>
        <time>2020-08-08T14:23:55Z</time>
      </trkpt>
      <trkpt lat="48.74037" lon="7.53413">
        <ele>162</ele>
        <time>2020-08-08T14:23:57Z</time>
      </trkpt>
      <trkpt lat="48.74036" lon="7.53397">
        <ele>163</ele>
        <time>2020-08-08T14:23:59Z</time>
      </trkpt>
      <trkpt lat="48.74035" lon="7.53383">
        <ele>163</ele>
        <time>2020-08-08T14:24:01Z</time>
      </trkpt>
      <trkpt lat="48.74034" lon="7.53376">
        <ele>162</ele>
        <time>2020-08-08T14:24:02Z</time>
      </trkpt>
      <trkpt lat="48.74033" lon="7.53368">
        <ele>162</ele>
        <time>2020-08-08T14:24:03Z</time>
      </trkpt>
      <trkpt lat="48.74032" lon="7.53361">
        <ele>162</ele>
        <time>2020-08-08T14:24:04Z</time>
      </trkpt>
      <trkpt lat="48.7403" lon="7.53353">
        <ele>162</ele>
        <time>2020-08-08T14:24:05Z</time>
      </trkpt>
      <trkpt lat="48.7403" lon="7.53346">
        <ele>162</ele>
        <time>2020-08-08T14:24:06Z</time>
      </trkpt>
      <trkpt lat="48.74028" lon="7.53339">
        <ele>163</ele>
        <time>2020-08-08T14:24:07Z</time>
      </trkpt>
      <trkpt lat="48.74027" lon="7.53332">
        <ele>163</ele>
        <time>2020-08-08T14:24:08Z</time>
      </trkpt>
      <trkpt lat="48.74027" lon="7.53324">
        <ele>162</ele>
        <time>2020-08-08T14:24:09Z</time>
      </trkpt>
      <trkpt lat="48.74026" lon="7.53316">
        <ele>162</ele>
        <time>2020-08-08T14:24:10Z</time>
      </trkpt>
      <trkpt lat="48.74025" lon="7.53302">
        <ele>162</ele>
        <time>2020-08-08T14:24:12Z</time>
      </trkpt>
      <trkpt lat="48.74024" lon="7.53294">
        <ele>162</ele>
        <time>2020-08-08T14:24:13Z</time>
      </trkpt>
      <trkpt lat="48.74023" lon="7.53283">
        <ele>163</ele>
        <time>2020-08-08T14:24:15Z</time>
      </trkpt>
      <trkpt lat="48.74023" lon="7.53272">
        <ele>163</ele>
        <time>2020-08-08T14:24:17Z</time>
      </trkpt>
      <trkpt lat="48.74022" lon="7.53261">
        <ele>163</ele>
        <time>2020-08-08T14:24:19Z</time>
      </trkpt>
      <trkpt lat="48.74021" lon="7.53253">
        <ele>163</ele>
        <time>2020-08-08T14:24:20Z</time>
      </trkpt>
      <trkpt lat="48.74021" lon="7.53246">
        <ele>163</ele>
        <time>2020-08-08T14:24:21Z</time>
      </trkpt>
      <trkpt lat="48.7402" lon="7.53232">
        <ele>163</ele>
        <time>2020-08-08T14:24:23Z</time>
      </trkpt>
      <trkpt lat="48.74019" lon="7.53223">
        <ele>163</ele>
        <time>2020-08-08T14:24:24Z</time>
      </trkpt>
      <trkpt lat="48.74019" lon="7.53216">
        <ele>163</ele>
        <time>2020-08-08T14:24:25Z</time>
      </trkpt>
      <trkpt lat="48.74018" lon="7.53208">
        <ele>163</ele>
        <time>2020-08-08T14:24:26Z</time>
      </trkpt>
      <trkpt lat="48.74015" lon="7.53195">
        <ele>163</ele>
        <time>2020-08-08T14:24:28Z</time>
      </trkpt>
      <trkpt lat="48.74014" lon="7.53182">
        <ele>163</ele>
        <time>2020-08-08T14:24:30Z</time>
      </trkpt>
      <trkpt lat="48.74011" lon="7.5317">
        <ele>163</ele>
        <time>2020-08-08T14:24:32Z</time>
      </trkpt>
      <trkpt lat="48.7401" lon="7.53158">
        <ele>163</ele>
        <time>2020-08-08T14:24:34Z</time>
      </trkpt>
      <trkpt lat="48.74009" lon="7.53148">
        <ele>163</ele>
        <time>2020-08-08T14:24:36Z</time>
      </trkpt>
      <trkpt lat="48.74006" lon="7.53137">
        <ele>164</ele>
        <time>2020-08-08T14:24:38Z</time>
      </trkpt>
      <trkpt lat="48.74004" lon="7.53127">
        <ele>164</ele>
        <time>2020-08-08T14:24:40Z</time>
      </trkpt>
      <trkpt lat="48.74002" lon="7.53119">
        <ele>164</ele>
        <time>2020-08-08T14:24:42Z</time>
      </trkpt>
      <trkpt lat="48.73998" lon="7.53111">
        <ele>164</ele>
        <time>2020-08-08T14:24:45Z</time>
      </trkpt>
      <trkpt lat="48.73994" lon="7.531">
        <ele>164</ele>
        <time>2020-08-08T14:24:47Z</time>
      </trkpt>
      <trkpt lat="48.73993" lon="7.53093">
        <ele>163</ele>
        <time>2020-08-08T14:24:48Z</time>
      </trkpt>
      <trkpt lat="48.73992" lon="7.53084">
        <ele>163</ele>
        <time>2020-08-08T14:24:49Z</time>
      </trkpt>
      <trkpt lat="48.73992" lon="7.53077">
        <ele>162</ele>
        <time>2020-08-08T14:24:50Z</time>
      </trkpt>
      <trkpt lat="48.73993" lon="7.53068">
        <ele>162</ele>
        <time>2020-08-08T14:24:51Z</time>
      </trkpt>
      <trkpt lat="48.73993" lon="7.53059">
        <ele>162</ele>
        <time>2020-08-08T14:24:52Z</time>
      </trkpt>
      <trkpt lat="48.73994" lon="7.5305">
        <ele>162</ele>
        <time>2020-08-08T14:24:53Z</time>
      </trkpt>
      <trkpt lat="48.73995" lon="7.53041">
        <ele>162</ele>
        <time>2020-08-08T14:24:54Z</time>
      </trkpt>
      <trkpt lat="48.73998" lon="7.53033">
        <ele>162</ele>
        <time>2020-08-08T14:24:55Z</time>
      </trkpt>
      <trkpt lat="48.73998" lon="7.53026">
        <ele>162</ele>
        <time>2020-08-08T14:24:56Z</time>
      </trkpt>
      <trkpt lat="48.73998" lon="7.53018">
        <ele>162</ele>
        <time>2020-08-08T14:24:57Z</time>
      </trkpt>
      <trkpt lat="48.73998" lon="7.5301">
        <ele>162</ele>
        <time>2020-08-08T14:24:58Z</time>
      </trkpt>
      <trkpt lat="48.73998" lon="7.53">
        <ele>162</ele>
        <time>2020-08-08T14:24:59Z</time>
      </trkpt>
      <trkpt lat="48.73998" lon="7.52993">
        <ele>162</ele>
        <time>2020-08-08T14:25:00Z</time>
      </trkpt>
      <trkpt lat="48.73998" lon="7.52985">
        <ele>162</ele>
        <time>2020-08-08T14:25:01Z</time>
      </trkpt>
      <trkpt lat="48.73998" lon="7.52977">
        <ele>162</ele>
        <time>2020-08-08T14:25:02Z</time>
      </trkpt>
      <trkpt lat="48.73998" lon="7.52969">
        <ele>162</ele>
        <time>2020-08-08T14:25:03Z</time>
      </trkpt>
      <trkpt lat="48.73998" lon="7.52962">
        <ele>162</ele>
        <time>2020-08-08T14:25:04Z</time>
      </trkpt>
      <trkpt lat="48.73999" lon="7.52955">
        <ele>162</ele>
        <time>2020-08-08T14:25:05Z</time>
      </trkpt>
      <trkpt lat="48.73999" lon="7.52947">
        <ele>162</ele>
        <time>2020-08-08T14:25:06Z</time>
      </trkpt>
      <trkpt lat="48.74" lon="7.5294">
        <ele>162</ele>
        <time>2020-08-08T14:25:07Z</time>
      </trkpt>
      <trkpt lat="48.74001" lon="7.52933">
        <ele>162</ele>
        <time>2020-08-08T14:25:08Z</time>
      </trkpt>
      <trkpt lat="48.74003" lon="7.5292">
        <ele>162</ele>
        <time>2020-08-08T14:25:10Z</time>
      </trkpt>
      <trkpt lat="48.74003" lon="7.52911">
        <ele>162</ele>
        <time>2020-08-08T14:25:11Z</time>
      </trkpt>
      <trkpt lat="48.74003" lon="7.52904">
        <ele>162</ele>
        <time>2020-08-08T14:25:12Z</time>
      </trkpt>
      <trkpt lat="48.74004" lon="7.52896">
        <ele>162</ele>
        <time>2020-08-08T14:25:13Z</time>
      </trkpt>
      <trkpt lat="48.74004" lon="7.52888">
        <ele>162</ele>
        <time>2020-08-08T14:25:14Z</time>
      </trkpt>
      <trkpt lat="48.74005" lon="7.5288">
        <ele>162</ele>
        <time>2020-08-08T14:25:15Z</time>
      </trkpt>
      <trkpt lat="48.74006" lon="7.52872">
        <ele>162</ele>
        <time>2020-08-08T14:25:16Z</time>
      </trkpt>
      <trkpt lat="48.74009" lon="7.52858">
        <ele>162</ele>
        <time>2020-08-08T14:25:18Z</time>
      </trkpt>
      <trkpt lat="48.74009" lon="7.5285">
        <ele>162</ele>
        <time>2020-08-08T14:25:19Z</time>
      </trkpt>
      <trkpt lat="48.74011" lon="7.52843">
        <ele>162</ele>
        <time>2020-08-08T14:25:20Z</time>
      </trkpt>
      <trkpt lat="48.74012" lon="7.52837">
        <ele>162</ele>
        <time>2020-08-08T14:25:21Z</time>
      </trkpt>
      <trkpt lat="48.74013" lon="7.5283">
        <ele>163</ele>
        <time>2020-08-08T14:25:22Z</time>
      </trkpt>
      <trkpt lat="48.74014" lon="7.52822">
        <ele>163</ele>
        <time>2020-08-08T14:25:23Z</time>
      </trkpt>
      <trkpt lat="48.74015" lon="7.52814">
        <ele>163</ele>
        <time>2020-08-08T14:25:24Z</time>
      </trkpt>
      <trkpt lat="48.74016" lon="7.52806">
        <ele>163</ele>
        <time>2020-08-08T14:25:25Z</time>
      </trkpt>
      <trkpt lat="48.74016" lon="7.52798">
        <ele>163</ele>
        <time>2020-08-08T14:25:26Z</time>
      </trkpt>
      <trkpt lat="48.74017" lon="7.5279">
        <ele>163</ele>
        <time>2020-08-08T14:25:27Z</time>
      </trkpt>
      <trkpt lat="48.74017" lon="7.52782">
        <ele>163</ele>
        <time>2020-08-08T14:25:28Z</time>
      </trkpt>
      <trkpt lat="48.74018" lon="7.52773">
        <ele>163</ele>
        <time>2020-08-08T14:25:29Z</time>
      </trkpt>
      <trkpt lat="48.74019" lon="7.52764">
        <ele>163</ele>
        <time>2020-08-08T14:25:30Z</time>
      </trkpt>
      <trkpt lat="48.7402" lon="7.52757">
        <ele>163</ele>
        <time>2020-08-08T14:25:31Z</time>
      </trkpt>
      <trkpt lat="48.7402" lon="7.5275">
        <ele>162</ele>
        <time>2020-08-08T14:25:32Z</time>
      </trkpt>
      <trkpt lat="48.74021" lon="7.52742">
        <ele>162</ele>
        <time>2020-08-08T14:25:33Z</time>
      </trkpt>
      <trkpt lat="48.74022" lon="7.52734">
        <ele>162</ele>
        <time>2020-08-08T14:25:34Z</time>
      </trkpt>
      <trkpt lat="48.74023" lon="7.52725">
        <ele>162</ele>
        <time>2020-08-08T14:25:35Z</time>
      </trkpt>
      <trkpt lat="48.74025" lon="7.52717">
        <ele>161</ele>
        <time>2020-08-08T14:25:36Z</time>
      </trkpt>
      <trkpt lat="48.74025" lon="7.52709">
        <ele>161</ele>
        <time>2020-08-08T14:25:37Z</time>
      </trkpt>
      <trkpt lat="48.74026" lon="7.52702">
        <ele>161</ele>
        <time>2020-08-08T14:25:38Z</time>
      </trkpt>
      <trkpt lat="48.74028" lon="7.52694">
        <ele>161</ele>
        <time>2020-08-08T14:25:39Z</time>
      </trkpt>
      <trkpt lat="48.74029" lon="7.5268">
        <ele>161</ele>
        <time>2020-08-08T14:25:41Z</time>
      </trkpt>
      <trkpt lat="48.74029" lon="7.52673">
        <ele>161</ele>
        <time>2020-08-08T14:25:42Z</time>
      </trkpt>
      <trkpt lat="48.7403" lon="7.52665">
        <ele>161</ele>
        <time>2020-08-08T14:25:43Z</time>
      </trkpt>
      <trkpt lat="48.74031" lon="7.52659">
        <ele>161</ele>
        <time>2020-08-08T14:25:44Z</time>
      </trkpt>
      <trkpt lat="48.74032" lon="7.52652">
        <ele>161</ele>
        <time>2020-08-08T14:25:45Z</time>
      </trkpt>
      <trkpt lat="48.74032" lon="7.52644">
        <ele>161</ele>
        <time>2020-08-08T14:25:46Z</time>
      </trkpt>
      <trkpt lat="48.74033" lon="7.52636">
        <ele>161</ele>
        <time>2020-08-08T14:25:47Z</time>
      </trkpt>
      <trkpt lat="48.74034" lon="7.52628">
        <ele>161</ele>
        <time>2020-08-08T14:25:48Z</time>
      </trkpt>
      <trkpt lat="48.74035" lon="7.5262">
        <ele>161</ele>
        <time>2020-08-08T14:25:49Z</time>
      </trkpt>
      <trkpt lat="48.74035" lon="7.52613">
        <ele>161</ele>
        <time>2020-08-08T14:25:50Z</time>
      </trkpt>
      <trkpt lat="48.74036" lon="7.526">
        <ele>161</ele>
        <time>2020-08-08T14:25:52Z</time>
      </trkpt>
      <trkpt lat="48.74036" lon="7.52592">
        <ele>161</ele>
        <time>2020-08-08T14:25:53Z</time>
      </trkpt>
      <trkpt lat="48.74036" lon="7.52583">
        <ele>161</ele>
        <time>2020-08-08T14:25:54Z</time>
      </trkpt>
      <trkpt lat="48.74038" lon="7.52576">
        <ele>161</ele>
        <time>2020-08-08T14:25:55Z</time>
      </trkpt>
      <trkpt lat="48.7404" lon="7.52562">
        <ele>161</ele>
        <time>2020-08-08T14:25:57Z</time>
      </trkpt>
      <trkpt lat="48.7404" lon="7.52555">
        <ele>162</ele>
        <time>2020-08-08T14:25:58Z</time>
      </trkpt>
      <trkpt lat="48.74042" lon="7.52548">
        <ele>162</ele>
        <time>2020-08-08T14:25:59Z</time>
      </trkpt>
      <trkpt lat="48.74042" lon="7.52539">
        <ele>162</ele>
        <time>2020-08-08T14:26:00Z</time>
      </trkpt>
      <trkpt lat="48.74043" lon="7.52531">
        <ele>162</ele>
        <time>2020-08-08T14:26:01Z</time>
      </trkpt>
      <trkpt lat="48.74044" lon="7.52524">
        <ele>162</ele>
        <time>2020-08-08T14:26:02Z</time>
      </trkpt>
      <trkpt lat="48.74044" lon="7.52517">
        <ele>162</ele>
        <time>2020-08-08T14:26:03Z</time>
      </trkpt>
      <trkpt lat="48.74046" lon="7.5251">
        <ele>162</ele>
        <time>2020-08-08T14:26:04Z</time>
      </trkpt>
      <trkpt lat="48.74046" lon="7.52502">
        <ele>162</ele>
        <time>2020-08-08T14:26:05Z</time>
      </trkpt>
      <trkpt lat="48.74047" lon="7.52495">
        <ele>162</ele>
        <time>2020-08-08T14:26:06Z</time>
      </trkpt>
      <trkpt lat="48.74048" lon="7.52488">
        <ele>162</ele>
        <time>2020-08-08T14:26:07Z</time>
      </trkpt>
      <trkpt lat="48.74048" lon="7.52479">
        <ele>162</ele>
        <time>2020-08-08T14:26:08Z</time>
      </trkpt>
      <trkpt lat="48.74048" lon="7.52469">
        <ele>161</ele>
        <time>2020-08-08T14:26:09Z</time>
      </trkpt>
      <trkpt lat="48.74049" lon="7.52461">
        <ele>161</ele>
        <time>2020-08-08T14:26:10Z</time>
      </trkpt>
      <trkpt lat="48.74049" lon="7.52453">
        <ele>161</ele>
        <time>2020-08-08T14:26:11Z</time>
      </trkpt>
      <trkpt lat="48.74051" lon="7.52439">
        <ele>162</ele>
        <time>2020-08-08T14:26:13Z</time>
      </trkpt>
      <trkpt lat="48.74053" lon="7.52431">
        <ele>162</ele>
        <time>2020-08-08T14:26:14Z</time>
      </trkpt>
      <trkpt lat="48.74054" lon="7.52424">
        <ele>162</ele>
        <time>2020-08-08T14:26:15Z</time>
      </trkpt>
      <trkpt lat="48.74055" lon="7.52417">
        <ele>162</ele>
        <time>2020-08-08T14:26:16Z</time>
      </trkpt>
      <trkpt lat="48.74056" lon="7.52408">
        <ele>162</ele>
        <time>2020-08-08T14:26:17Z</time>
      </trkpt>
      <trkpt lat="48.74058" lon="7.524">
        <ele>161</ele>
        <time>2020-08-08T14:26:18Z</time>
      </trkpt>
      <trkpt lat="48.74059" lon="7.52392">
        <ele>161</ele>
        <time>2020-08-08T14:26:19Z</time>
      </trkpt>
      <trkpt lat="48.7406" lon="7.52385">
        <ele>161</ele>
        <time>2020-08-08T14:26:20Z</time>
      </trkpt>
      <trkpt lat="48.74061" lon="7.52378">
        <ele>161</ele>
        <time>2020-08-08T14:26:21Z</time>
      </trkpt>
      <trkpt lat="48.74062" lon="7.5237">
        <ele>161</ele>
        <time>2020-08-08T14:26:22Z</time>
      </trkpt>
      <trkpt lat="48.74063" lon="7.52362">
        <ele>161</ele>
        <time>2020-08-08T14:26:23Z</time>
      </trkpt>
      <trkpt lat="48.74063" lon="7.52353">
        <ele>161</ele>
        <time>2020-08-08T14:26:24Z</time>
      </trkpt>
      <trkpt lat="48.74063" lon="7.52346">
        <ele>161</ele>
        <time>2020-08-08T14:26:25Z</time>
      </trkpt>
      <trkpt lat="48.74064" lon="7.52338">
        <ele>162</ele>
        <time>2020-08-08T14:26:26Z</time>
      </trkpt>
      <trkpt lat="48.74065" lon="7.5233">
        <ele>162</ele>
        <time>2020-08-08T14:26:27Z</time>
      </trkpt>
      <trkpt lat="48.74066" lon="7.52323">
        <ele>161</ele>
        <time>2020-08-08T14:26:28Z</time>
      </trkpt>
      <trkpt lat="48.74067" lon="7.52316">
        <ele>161</ele>
        <time>2020-08-08T14:26:29Z</time>
      </trkpt>
      <trkpt lat="48.74068" lon="7.52309">
        <ele>161</ele>
        <time>2020-08-08T14:26:30Z</time>
      </trkpt>
      <trkpt lat="48.74068" lon="7.52301">
        <ele>161</ele>
        <time>2020-08-08T14:26:31Z</time>
      </trkpt>
      <trkpt lat="48.74069" lon="7.52292">
        <ele>161</ele>
        <time>2020-08-08T14:26:32Z</time>
      </trkpt>
      <trkpt lat="48.7407" lon="7.52286">
        <ele>161</ele>
        <time>2020-08-08T14:26:33Z</time>
      </trkpt>
      <trkpt lat="48.74071" lon="7.52278">
        <ele>161</ele>
        <time>2020-08-08T14:26:34Z</time>
      </trkpt>
      <trkpt lat="48.74071" lon="7.52271">
        <ele>161</ele>
        <time>2020-08-08T14:26:35Z</time>
      </trkpt>
      <trkpt lat="48.74072" lon="7.52262">
        <ele>161</ele>
        <time>2020-08-08T14:26:36Z</time>
      </trkpt>
      <trkpt lat="48.74074" lon="7.52242">
        <ele>161</ele>
        <time>2020-08-08T14:26:39Z</time>
      </trkpt>
      <trkpt lat="48.74075" lon="7.52234">
        <ele>162</ele>
        <time>2020-08-08T14:26:40Z</time>
      </trkpt>
      <trkpt lat="48.74075" lon="7.52225">
        <ele>161</ele>
        <time>2020-08-08T14:26:41Z</time>
      </trkpt>
      <trkpt lat="48.74075" lon="7.52217">
        <ele>161</ele>
        <time>2020-08-08T14:26:42Z</time>
      </trkpt>
      <trkpt lat="48.74075" lon="7.52209">
        <ele>162</ele>
        <time>2020-08-08T14:26:43Z</time>
      </trkpt>
      <trkpt lat="48.74077" lon="7.52202">
        <ele>161</ele>
        <time>2020-08-08T14:26:44Z</time>
      </trkpt>
      <trkpt lat="48.74078" lon="7.52187">
        <ele>161</ele>
        <time>2020-08-08T14:26:46Z</time>
      </trkpt>
      <trkpt lat="48.74078" lon="7.52179">
        <ele>161</ele>
        <time>2020-08-08T14:26:47Z</time>
      </trkpt>
      <trkpt lat="48.74079" lon="7.52171">
        <ele>161</ele>
        <time>2020-08-08T14:26:48Z</time>
      </trkpt>
      <trkpt lat="48.7408" lon="7.52164">
        <ele>161</ele>
        <time>2020-08-08T14:26:49Z</time>
      </trkpt>
      <trkpt lat="48.7408" lon="7.52157">
        <ele>160</ele>
        <time>2020-08-08T14:26:50Z</time>
      </trkpt>
      <trkpt lat="48.74081" lon="7.5215">
        <ele>160</ele>
        <time>2020-08-08T14:26:51Z</time>
      </trkpt>
      <trkpt lat="48.74082" lon="7.52142">
        <ele>161</ele>
        <time>2020-08-08T14:26:52Z</time>
      </trkpt>
      <trkpt lat="48.74084" lon="7.52131">
        <ele>161</ele>
        <time>2020-08-08T14:26:54Z</time>
      </trkpt>
      <trkpt lat="48.74085" lon="7.52123">
        <ele>161</ele>
        <time>2020-08-08T14:26:55Z</time>
      </trkpt>
      <trkpt lat="48.74088" lon="7.5211">
        <ele>161</ele>
        <time>2020-08-08T14:26:57Z</time>
      </trkpt>
      <trkpt lat="48.74089" lon="7.52097">
        <ele>161</ele>
        <time>2020-08-08T14:26:59Z</time>
      </trkpt>
      <trkpt lat="48.7409" lon="7.5209">
        <ele>162</ele>
        <time>2020-08-08T14:27:00Z</time>
      </trkpt>
      <trkpt lat="48.74091" lon="7.52082">
        <ele>162</ele>
        <time>2020-08-08T14:27:01Z</time>
      </trkpt>
      <trkpt lat="48.74093" lon="7.52069">
        <ele>162</ele>
        <time>2020-08-08T14:27:03Z</time>
      </trkpt>
      <trkpt lat="48.74096" lon="7.52055">
        <ele>162</ele>
        <time>2020-08-08T14:27:05Z</time>
      </trkpt>
      <trkpt lat="48.74096" lon="7.52047">
        <ele>162</ele>
        <time>2020-08-08T14:27:06Z</time>
      </trkpt>
      <trkpt lat="48.74097" lon="7.52034">
        <ele>162</ele>
        <time>2020-08-08T14:27:08Z</time>
      </trkpt>
      <trkpt lat="48.74098" lon="7.52026">
        <ele>162</ele>
        <time>2020-08-08T14:27:09Z</time>
      </trkpt>
      <trkpt lat="48.74099" lon="7.52019">
        <ele>161</ele>
        <time>2020-08-08T14:27:10Z</time>
      </trkpt>
      <trkpt lat="48.74101" lon="7.51998">
        <ele>162</ele>
        <time>2020-08-08T14:27:13Z</time>
      </trkpt>
      <trkpt lat="48.74102" lon="7.5199">
        <ele>162</ele>
        <time>2020-08-08T14:27:14Z</time>
      </trkpt>
      <trkpt lat="48.74103" lon="7.51983">
        <ele>162</ele>
        <time>2020-08-08T14:27:15Z</time>
      </trkpt>
      <trkpt lat="48.74103" lon="7.51975">
        <ele>162</ele>
        <time>2020-08-08T14:27:16Z</time>
      </trkpt>
      <trkpt lat="48.74104" lon="7.51967">
        <ele>162</ele>
        <time>2020-08-08T14:27:17Z</time>
      </trkpt>
      <trkpt lat="48.74104" lon="7.5196">
        <ele>162</ele>
        <time>2020-08-08T14:27:18Z</time>
      </trkpt>
      <trkpt lat="48.74106" lon="7.51953">
        <ele>162</ele>
        <time>2020-08-08T14:27:19Z</time>
      </trkpt>
      <trkpt lat="48.74107" lon="7.51945">
        <ele>161</ele>
        <time>2020-08-08T14:27:20Z</time>
      </trkpt>
      <trkpt lat="48.74108" lon="7.51937">
        <ele>161</ele>
        <time>2020-08-08T14:27:21Z</time>
      </trkpt>
      <trkpt lat="48.74109" lon="7.51929">
        <ele>161</ele>
        <time>2020-08-08T14:27:22Z</time>
      </trkpt>
      <trkpt lat="48.74109" lon="7.51922">
        <ele>161</ele>
        <time>2020-08-08T14:27:23Z</time>
      </trkpt>
      <trkpt lat="48.7411" lon="7.51915">
        <ele>161</ele>
        <time>2020-08-08T14:27:24Z</time>
      </trkpt>
      <trkpt lat="48.74111" lon="7.51907">
        <ele>161</ele>
        <time>2020-08-08T14:27:25Z</time>
      </trkpt>
      <trkpt lat="48.74111" lon="7.51899">
        <ele>162</ele>
        <time>2020-08-08T14:27:26Z</time>
      </trkpt>
      <trkpt lat="48.74112" lon="7.51892">
        <ele>162</ele>
        <time>2020-08-08T14:27:27Z</time>
      </trkpt>
      <trkpt lat="48.74114" lon="7.51884">
        <ele>162</ele>
        <time>2020-08-08T14:27:28Z</time>
      </trkpt>
      <trkpt lat="48.74114" lon="7.51876">
        <ele>162</ele>
        <time>2020-08-08T14:27:29Z</time>
      </trkpt>
      <trkpt lat="48.74115" lon="7.51869">
        <ele>162</ele>
        <time>2020-08-08T14:27:30Z</time>
      </trkpt>
      <trkpt lat="48.74115" lon="7.51861">
        <ele>162</ele>
        <time>2020-08-08T14:27:31Z</time>
      </trkpt>
      <trkpt lat="48.74116" lon="7.51853">
        <ele>162</ele>
        <time>2020-08-08T14:27:32Z</time>
      </trkpt>
      <trkpt lat="48.74117" lon="7.51845">
        <ele>162</ele>
        <time>2020-08-08T14:27:33Z</time>
      </trkpt>
      <trkpt lat="48.74117" lon="7.51838">
        <ele>162</ele>
        <time>2020-08-08T14:27:34Z</time>
      </trkpt>
      <trkpt lat="48.74118" lon="7.5183">
        <ele>162</ele>
        <time>2020-08-08T14:27:35Z</time>
      </trkpt>
      <trkpt lat="48.74119" lon="7.51822">
        <ele>162</ele>
        <time>2020-08-08T14:27:36Z</time>
      </trkpt>
      <trkpt lat="48.74119" lon="7.51814">
        <ele>162</ele>
        <time>2020-08-08T14:27:37Z</time>
      </trkpt>
      <trkpt lat="48.7412" lon="7.51806">
        <ele>162</ele>
        <time>2020-08-08T14:27:38Z</time>
      </trkpt>
      <trkpt lat="48.74121" lon="7.51799">
        <ele>162</ele>
        <time>2020-08-08T14:27:39Z</time>
      </trkpt>
      <trkpt lat="48.74121" lon="7.51791">
        <ele>162</ele>
        <time>2020-08-08T14:27:40Z</time>
      </trkpt>
      <trkpt lat="48.74122" lon="7.51783">
        <ele>162</ele>
        <time>2020-08-08T14:27:41Z</time>
      </trkpt>
      <trkpt lat="48.74123" lon="7.51776">
        <ele>162</ele>
        <time>2020-08-08T14:27:42Z</time>
      </trkpt>
      <trkpt lat="48.74123" lon="7.51768">
        <ele>162</ele>
        <time>2020-08-08T14:27:43Z</time>
      </trkpt>
      <trkpt lat="48.74124" lon="7.51761">
        <ele>162</ele>
        <time>2020-08-08T14:27:44Z</time>
      </trkpt>
      <trkpt lat="48.74125" lon="7.51752">
        <ele>162</ele>
        <time>2020-08-08T14:27:45Z</time>
      </trkpt>
      <trkpt lat="48.74125" lon="7.51744">
        <ele>161</ele>
        <time>2020-08-08T14:27:46Z</time>
      </trkpt>
      <trkpt lat="48.74127" lon="7.51736">
        <ele>161</ele>
        <time>2020-08-08T14:27:47Z</time>
      </trkpt>
      <trkpt lat="48.74127" lon="7.51728">
        <ele>161</ele>
        <time>2020-08-08T14:27:48Z</time>
      </trkpt>
      <trkpt lat="48.74128" lon="7.5172">
        <ele>161</ele>
        <time>2020-08-08T14:27:49Z</time>
      </trkpt>
      <trkpt lat="48.74128" lon="7.51713">
        <ele>160</ele>
        <time>2020-08-08T14:27:50Z</time>
      </trkpt>
      <trkpt lat="48.74129" lon="7.51706">
        <ele>160</ele>
        <time>2020-08-08T14:27:51Z</time>
      </trkpt>
      <trkpt lat="48.7413" lon="7.51699">
        <ele>160</ele>
        <time>2020-08-08T14:27:52Z</time>
      </trkpt>
      <trkpt lat="48.74132" lon="7.51692">
        <ele>160</ele>
        <time>2020-08-08T14:27:53Z</time>
      </trkpt>
      <trkpt lat="48.74133" lon="7.51678">
        <ele>160</ele>
        <time>2020-08-08T14:27:55Z</time>
      </trkpt>
      <trkpt lat="48.74134" lon="7.51671">
        <ele>160</ele>
        <time>2020-08-08T14:27:56Z</time>
      </trkpt>
      <trkpt lat="48.74136" lon="7.51656">
        <ele>160</ele>
        <time>2020-08-08T14:27:58Z</time>
      </trkpt>
      <trkpt lat="48.74137" lon="7.51642">
        <ele>161</ele>
        <time>2020-08-08T14:28:00Z</time>
      </trkpt>
      <trkpt lat="48.74139" lon="7.51629">
        <ele>162</ele>
        <time>2020-08-08T14:28:02Z</time>
      </trkpt>
      <trkpt lat="48.7414" lon="7.51622">
        <ele>162</ele>
        <time>2020-08-08T14:28:03Z</time>
      </trkpt>
      <trkpt lat="48.74141" lon="7.51615">
        <ele>162</ele>
        <time>2020-08-08T14:28:04Z</time>
      </trkpt>
      <trkpt lat="48.74142" lon="7.51607">
        <ele>162</ele>
        <time>2020-08-08T14:28:05Z</time>
      </trkpt>
      <trkpt lat="48.74143" lon="7.516">
        <ele>162</ele>
        <time>2020-08-08T14:28:06Z</time>
      </trkpt>
      <trkpt lat="48.74143" lon="7.51592">
        <ele>162</ele>
        <time>2020-08-08T14:28:07Z</time>
      </trkpt>
      <trkpt lat="48.74144" lon="7.51584">
        <ele>162</ele>
        <time>2020-08-08T14:28:08Z</time>
      </trkpt>
      <trkpt lat="48.74145" lon="7.51576">
        <ele>162</ele>
        <time>2020-08-08T14:28:09Z</time>
      </trkpt>
      <trkpt lat="48.74147" lon="7.51563">
        <ele>162</ele>
        <time>2020-08-08T14:28:11Z</time>
      </trkpt>
      <trkpt lat="48.74148" lon="7.51556">
        <ele>162</ele>
        <time>2020-08-08T14:28:12Z</time>
      </trkpt>
      <trkpt lat="48.74149" lon="7.5155">
        <ele>162</ele>
        <time>2020-08-08T14:28:13Z</time>
      </trkpt>
      <trkpt lat="48.74149" lon="7.51537">
        <ele>162</ele>
        <time>2020-08-08T14:28:15Z</time>
      </trkpt>
      <trkpt lat="48.74152" lon="7.51524">
        <ele>162</ele>
        <time>2020-08-08T14:28:17Z</time>
      </trkpt>
      <trkpt lat="48.74153" lon="7.51512">
        <ele>162</ele>
        <time>2020-08-08T14:28:19Z</time>
      </trkpt>
      <trkpt lat="48.74155" lon="7.51501">
        <ele>162</ele>
        <time>2020-08-08T14:28:21Z</time>
      </trkpt>
      <trkpt lat="48.74155" lon="7.51491">
        <ele>161</ele>
        <time>2020-08-08T14:28:23Z</time>
      </trkpt>
      <trkpt lat="48.74156" lon="7.51479">
        <ele>161</ele>
        <time>2020-08-08T14:28:25Z</time>
      </trkpt>
      <trkpt lat="48.74158" lon="7.51467">
        <ele>161</ele>
        <time>2020-08-08T14:28:27Z</time>
      </trkpt>
      <trkpt lat="48.74159" lon="7.5146">
        <ele>161</ele>
        <time>2020-08-08T14:28:28Z</time>
      </trkpt>
      <trkpt lat="48.7416" lon="7.51453">
        <ele>162</ele>
        <time>2020-08-08T14:28:29Z</time>
      </trkpt>
      <trkpt lat="48.7416" lon="7.51445">
        <ele>162</ele>
        <time>2020-08-08T14:28:30Z</time>
      </trkpt>
      <trkpt lat="48.74161" lon="7.51437">
        <ele>162</ele>
        <time>2020-08-08T14:28:31Z</time>
      </trkpt>
      <trkpt lat="48.74161" lon="7.51423">
        <ele>162</ele>
        <time>2020-08-08T14:28:33Z</time>
      </trkpt>
      <trkpt lat="48.74163" lon="7.51411">
        <ele>162</ele>
        <time>2020-08-08T14:28:35Z</time>
      </trkpt>
      <trkpt lat="48.74164" lon="7.51404">
        <ele>162</ele>
        <time>2020-08-08T14:28:36Z</time>
      </trkpt>
      <trkpt lat="48.74165" lon="7.5139">
        <ele>162</ele>
        <time>2020-08-08T14:28:38Z</time>
      </trkpt>
      <trkpt lat="48.74165" lon="7.51382">
        <ele>162</ele>
        <time>2020-08-08T14:28:39Z</time>
      </trkpt>
      <trkpt lat="48.74165" lon="7.51375">
        <ele>162</ele>
        <time>2020-08-08T14:28:40Z</time>
      </trkpt>
      <trkpt lat="48.74165" lon="7.51364">
        <ele>163</ele>
        <time>2020-08-08T14:28:42Z</time>
      </trkpt>
      <trkpt lat="48.74165" lon="7.51354">
        <ele>163</ele>
        <time>2020-08-08T14:28:44Z</time>
      </trkpt>
      <trkpt lat="48.74165" lon="7.51346">
        <ele>164</ele>
        <time>2020-08-08T14:28:46Z</time>
      </trkpt>
      <trkpt lat="48.74166" lon="7.51339">
        <ele>164</ele>
        <time>2020-08-08T14:28:48Z</time>
      </trkpt>
      <trkpt lat="48.74164" lon="7.51331">
        <ele>164</ele>
        <time>2020-08-08T14:28:58Z</time>
      </trkpt>
      <trkpt lat="48.74163" lon="7.51339">
        <ele>164</ele>
        <time>2020-08-08T14:29:38Z</time>
      </trkpt>
      <trkpt lat="48.74165" lon="7.51347">
        <ele>164</ele>
        <time>2020-08-08T14:29:39Z</time>
      </trkpt>
      <trkpt lat="48.74164" lon="7.51353">
        <ele>163</ele>
        <time>2020-08-08T14:29:40Z</time>
      </trkpt>
      <trkpt lat="48.74163" lon="7.51363">
        <ele>163</ele>
        <time>2020-08-08T14:29:42Z</time>
      </trkpt>
      <trkpt lat="48.74165" lon="7.51369">
        <ele>163</ele>
        <time>2020-08-08T14:29:47Z</time>
      </trkpt>
      <trkpt lat="48.74164" lon="7.51358">
        <ele>163</ele>
        <time>2020-08-08T14:30:14Z</time>
      </trkpt>
      <trkpt lat="48.74165" lon="7.5135">
        <ele>164</ele>
        <time>2020-08-08T14:30:18Z</time>
      </trkpt>
      <trkpt lat="48.74164" lon="7.51343">
        <ele>164</ele>
        <time>2020-08-08T14:30:22Z</time>
      </trkpt>
      <trkpt lat="48.74164" lon="7.51336">
        <ele>164</ele>
        <time>2020-08-08T14:30:26Z</time>
      </trkpt>
      <trkpt lat="48.74163" lon="7.51328">
        <ele>165</ele>
        <time>2020-08-08T14:30:31Z</time>
      </trkpt>
      <trkpt lat="48.74175" lon="7.51264">
        <ele>162</ele>
        <time>2020-08-08T14:30:56Z</time>
      </trkpt>
      <trkpt lat="48.74176" lon="7.51255">
        <ele>162</ele>
        <time>2020-08-08T14:30:57Z</time>
      </trkpt>
      <trkpt lat="48.74178" lon="7.51245">
        <ele>163</ele>
        <time>2020-08-08T14:30:58Z</time>
      </trkpt>
      <trkpt lat="48.7418" lon="7.51237">
        <ele>163</ele>
        <time>2020-08-08T14:30:59Z</time>
      </trkpt>
      <trkpt lat="48.74181" lon="7.51229">
        <ele>162</ele>
        <time>2020-08-08T14:31:00Z</time>
      </trkpt>
      <trkpt lat="48.74181" lon="7.51221">
        <ele>162</ele>
        <time>2020-08-08T14:31:01Z</time>
      </trkpt>
      <trkpt lat="48.74183" lon="7.51212">
        <ele>162</ele>
        <time>2020-08-08T14:31:02Z</time>
      </trkpt>
      <trkpt lat="48.74183" lon="7.51204">
        <ele>161</ele>
        <time>2020-08-08T14:31:03Z</time>
      </trkpt>
      <trkpt lat="48.74184" lon="7.51196">
        <ele>161</ele>
        <time>2020-08-08T14:31:04Z</time>
      </trkpt>
      <trkpt lat="48.74184" lon="7.51187">
        <ele>161</ele>
        <time>2020-08-08T14:31:05Z</time>
      </trkpt>
      <trkpt lat="48.74185" lon="7.51178">
        <ele>161</ele>
        <time>2020-08-08T14:31:06Z</time>
      </trkpt>
      <trkpt lat="48.74186" lon="7.51169">
        <ele>161</ele>
        <time>2020-08-08T14:31:07Z</time>
      </trkpt>
      <trkpt lat="48.74187" lon="7.51161">
        <ele>161</ele>
        <time>2020-08-08T14:31:08Z</time>
      </trkpt>
      <trkpt lat="48.74187" lon="7.51151">
        <ele>161</ele>
        <time>2020-08-08T14:31:09Z</time>
      </trkpt>
      <trkpt lat="48.74188" lon="7.51144">
        <ele>161</ele>
        <time>2020-08-08T14:31:10Z</time>
      </trkpt>
      <trkpt lat="48.74189" lon="7.51135">
        <ele>161</ele>
        <time>2020-08-08T14:31:11Z</time>
      </trkpt>
      <trkpt lat="48.7419" lon="7.51126">
        <ele>161</ele>
        <time>2020-08-08T14:31:12Z</time>
      </trkpt>
      <trkpt lat="48.74191" lon="7.51118">
        <ele>161</ele>
        <time>2020-08-08T14:31:13Z</time>
      </trkpt>
      <trkpt lat="48.74192" lon="7.5111">
        <ele>161</ele>
        <time>2020-08-08T14:31:14Z</time>
      </trkpt>
      <trkpt lat="48.74193" lon="7.51101">
        <ele>161</ele>
        <time>2020-08-08T14:31:15Z</time>
      </trkpt>
      <trkpt lat="48.74194" lon="7.51093">
        <ele>162</ele>
        <time>2020-08-08T14:31:16Z</time>
      </trkpt>
      <trkpt lat="48.74196" lon="7.51085">
        <ele>161</ele>
        <time>2020-08-08T14:31:17Z</time>
      </trkpt>
      <trkpt lat="48.74197" lon="7.51077">
        <ele>161</ele>
        <time>2020-08-08T14:31:18Z</time>
      </trkpt>
      <trkpt lat="48.74197" lon="7.5107">
        <ele>161</ele>
        <time>2020-08-08T14:31:19Z</time>
      </trkpt>
      <trkpt lat="48.74199" lon="7.51056">
        <ele>162</ele>
        <time>2020-08-08T14:31:21Z</time>
      </trkpt>
      <trkpt lat="48.742" lon="7.51048">
        <ele>162</ele>
        <time>2020-08-08T14:31:22Z</time>
      </trkpt>
      <trkpt lat="48.742" lon="7.51039">
        <ele>162</ele>
        <time>2020-08-08T14:31:23Z</time>
      </trkpt>
      <trkpt lat="48.74201" lon="7.51031">
        <ele>162</ele>
        <time>2020-08-08T14:31:24Z</time>
      </trkpt>
      <trkpt lat="48.74204" lon="7.51018">
        <ele>162</ele>
        <time>2020-08-08T14:31:26Z</time>
      </trkpt>
      <trkpt lat="48.74205" lon="7.5101">
        <ele>162</ele>
        <time>2020-08-08T14:31:27Z</time>
      </trkpt>
      <trkpt lat="48.74206" lon="7.51003">
        <ele>162</ele>
        <time>2020-08-08T14:31:28Z</time>
      </trkpt>
      <trkpt lat="48.74207" lon="7.50994">
        <ele>161</ele>
        <time>2020-08-08T14:31:29Z</time>
      </trkpt>
      <trkpt lat="48.74208" lon="7.50988">
        <ele>162</ele>
        <time>2020-08-08T14:31:30Z</time>
      </trkpt>
      <trkpt lat="48.74209" lon="7.50979">
        <ele>162</ele>
        <time>2020-08-08T14:31:31Z</time>
      </trkpt>
      <trkpt lat="48.7421" lon="7.5097">
        <ele>162</ele>
        <time>2020-08-08T14:31:32Z</time>
      </trkpt>
      <trkpt lat="48.7421" lon="7.50961">
        <ele>162</ele>
        <time>2020-08-08T14:31:33Z</time>
      </trkpt>
      <trkpt lat="48.7421" lon="7.50953">
        <ele>161</ele>
        <time>2020-08-08T14:31:34Z</time>
      </trkpt>
      <trkpt lat="48.74211" lon="7.50945">
        <ele>161</ele>
        <time>2020-08-08T14:31:35Z</time>
      </trkpt>
      <trkpt lat="48.74213" lon="7.50938">
        <ele>162</ele>
        <time>2020-08-08T14:31:36Z</time>
      </trkpt>
      <trkpt lat="48.74213" lon="7.50931">
        <ele>162</ele>
        <time>2020-08-08T14:31:37Z</time>
      </trkpt>
      <trkpt lat="48.74213" lon="7.50922">
        <ele>162</ele>
        <time>2020-08-08T14:31:38Z</time>
      </trkpt>
      <trkpt lat="48.74214" lon="7.50912">
        <ele>162</ele>
        <time>2020-08-08T14:31:39Z</time>
      </trkpt>
      <trkpt lat="48.74215" lon="7.50904">
        <ele>162</ele>
        <time>2020-08-08T14:31:40Z</time>
      </trkpt>
      <trkpt lat="48.74216" lon="7.50889">
        <ele>162</ele>
        <time>2020-08-08T14:31:42Z</time>
      </trkpt>
      <trkpt lat="48.74217" lon="7.50881">
        <ele>162</ele>
        <time>2020-08-08T14:31:43Z</time>
      </trkpt>
      <trkpt lat="48.74217" lon="7.50871">
        <ele>162</ele>
        <time>2020-08-08T14:31:44Z</time>
      </trkpt>
      <trkpt lat="48.74218" lon="7.50864">
        <ele>163</ele>
        <time>2020-08-08T14:31:45Z</time>
      </trkpt>
      <trkpt lat="48.7422" lon="7.50856">
        <ele>162</ele>
        <time>2020-08-08T14:31:46Z</time>
      </trkpt>
      <trkpt lat="48.74221" lon="7.50849">
        <ele>162</ele>
        <time>2020-08-08T14:31:47Z</time>
      </trkpt>
      <trkpt lat="48.74222" lon="7.50841">
        <ele>162</ele>
        <time>2020-08-08T14:31:48Z</time>
      </trkpt>
      <trkpt lat="48.74223" lon="7.50834">
        <ele>163</ele>
        <time>2020-08-08T14:31:49Z</time>
      </trkpt>
      <trkpt lat="48.74225" lon="7.50821">
        <ele>163</ele>
        <time>2020-08-08T14:31:51Z</time>
      </trkpt>
      <trkpt lat="48.74225" lon="7.50808">
        <ele>164</ele>
        <time>2020-08-08T14:31:53Z</time>
      </trkpt>
      <trkpt lat="48.74226" lon="7.50798">
        <ele>164</ele>
        <time>2020-08-08T14:31:55Z</time>
      </trkpt>
      <trkpt lat="48.74228" lon="7.5079">
        <ele>164</ele>
        <time>2020-08-08T14:31:57Z</time>
      </trkpt>
      <trkpt lat="48.74228" lon="7.50782">
        <ele>165</ele>
        <time>2020-08-08T14:31:59Z</time>
      </trkpt>
      <trkpt lat="48.74231" lon="7.50776">
        <ele>165</ele>
        <time>2020-08-08T14:32:01Z</time>
      </trkpt>
      <trkpt lat="48.74233" lon="7.50767">
        <ele>165</ele>
        <time>2020-08-08T14:32:03Z</time>
      </trkpt>
      <trkpt lat="48.74236" lon="7.50757">
        <ele>165</ele>
        <time>2020-08-08T14:32:05Z</time>
      </trkpt>
      <trkpt lat="48.74236" lon="7.50745">
        <ele>165</ele>
        <time>2020-08-08T14:32:07Z</time>
      </trkpt>
      <trkpt lat="48.74239" lon="7.50734">
        <ele>165</ele>
        <time>2020-08-08T14:32:09Z</time>
      </trkpt>
      <trkpt lat="48.74239" lon="7.50727">
        <ele>165</ele>
        <time>2020-08-08T14:32:10Z</time>
      </trkpt>
      <trkpt lat="48.74239" lon="7.5072">
        <ele>165</ele>
        <time>2020-08-08T14:32:11Z</time>
      </trkpt>
      <trkpt lat="48.7424" lon="7.50708">
        <ele>165</ele>
        <time>2020-08-08T14:32:13Z</time>
      </trkpt>
      <trkpt lat="48.7424" lon="7.50695">
        <ele>165</ele>
        <time>2020-08-08T14:32:15Z</time>
      </trkpt>
      <trkpt lat="48.74241" lon="7.50687">
        <ele>165</ele>
        <time>2020-08-08T14:32:16Z</time>
      </trkpt>
      <trkpt lat="48.74242" lon="7.50675">
        <ele>165</ele>
        <time>2020-08-08T14:32:18Z</time>
      </trkpt>
      <trkpt lat="48.74243" lon="7.50662">
        <ele>165</ele>
        <time>2020-08-08T14:32:20Z</time>
      </trkpt>
      <trkpt lat="48.74245" lon="7.50651">
        <ele>165</ele>
        <time>2020-08-08T14:32:22Z</time>
      </trkpt>
      <trkpt lat="48.74245" lon="7.50643">
        <ele>165</ele>
        <time>2020-08-08T14:32:23Z</time>
      </trkpt>
      <trkpt lat="48.74246" lon="7.50636">
        <ele>165</ele>
        <time>2020-08-08T14:32:24Z</time>
      </trkpt>
      <trkpt lat="48.74247" lon="7.50623">
        <ele>165</ele>
        <time>2020-08-08T14:32:26Z</time>
      </trkpt>
      <trkpt lat="48.74247" lon="7.50608">
        <ele>165</ele>
        <time>2020-08-08T14:32:28Z</time>
      </trkpt>
      <trkpt lat="48.74248" lon="7.506">
        <ele>165</ele>
        <time>2020-08-08T14:32:29Z</time>
      </trkpt>
      <trkpt lat="48.74249" lon="7.50593">
        <ele>164</ele>
        <time>2020-08-08T14:32:30Z</time>
      </trkpt>
      <trkpt lat="48.74249" lon="7.50586">
        <ele>164</ele>
        <time>2020-08-08T14:32:31Z</time>
      </trkpt>
      <trkpt lat="48.74249" lon="7.50578">
        <ele>164</ele>
        <time>2020-08-08T14:32:32Z</time>
      </trkpt>
      <trkpt lat="48.7425" lon="7.5057">
        <ele>164</ele>
        <time>2020-08-08T14:32:33Z</time>
      </trkpt>
      <trkpt lat="48.74249" lon="7.50563">
        <ele>164</ele>
        <time>2020-08-08T14:32:34Z</time>
      </trkpt>
      <trkpt lat="48.74249" lon="7.50555">
        <ele>164</ele>
        <time>2020-08-08T14:32:35Z</time>
      </trkpt>
      <trkpt lat="48.74248" lon="7.50547">
        <ele>164</ele>
        <time>2020-08-08T14:32:36Z</time>
      </trkpt>
      <trkpt lat="48.74248" lon="7.50539">
        <ele>165</ele>
        <time>2020-08-08T14:32:37Z</time>
      </trkpt>
      <trkpt lat="48.74248" lon="7.50531">
        <ele>165</ele>
        <time>2020-08-08T14:32:38Z</time>
      </trkpt>
      <trkpt lat="48.74248" lon="7.50524">
        <ele>165</ele>
        <time>2020-08-08T14:32:39Z</time>
      </trkpt>
      <trkpt lat="48.74248" lon="7.50517">
        <ele>165</ele>
        <time>2020-08-08T14:32:40Z</time>
      </trkpt>
      <trkpt lat="48.74247" lon="7.50508">
        <ele>165</ele>
        <time>2020-08-08T14:32:41Z</time>
      </trkpt>
      <trkpt lat="48.74246" lon="7.50494">
        <ele>166</ele>
        <time>2020-08-08T14:32:43Z</time>
      </trkpt>
      <trkpt lat="48.74246" lon="7.50481">
        <ele>166</ele>
        <time>2020-08-08T14:32:45Z</time>
      </trkpt>
      <trkpt lat="48.74246" lon="7.50473">
        <ele>166</ele>
        <time>2020-08-08T14:32:46Z</time>
      </trkpt>
      <trkpt lat="48.74245" lon="7.50466">
        <ele>166</ele>
        <time>2020-08-08T14:32:47Z</time>
      </trkpt>
      <trkpt lat="48.74244" lon="7.50457">
        <ele>166</ele>
        <time>2020-08-08T14:32:48Z</time>
      </trkpt>
      <trkpt lat="48.74244" lon="7.50448">
        <ele>166</ele>
        <time>2020-08-08T14:32:49Z</time>
      </trkpt>
      <trkpt lat="48.74244" lon="7.50435">
        <ele>165</ele>
        <time>2020-08-08T14:32:51Z</time>
      </trkpt>
      <trkpt lat="48.74243" lon="7.50421">
        <ele>165</ele>
        <time>2020-08-08T14:32:53Z</time>
      </trkpt>
      <trkpt lat="48.74242" lon="7.50408">
        <ele>165</ele>
        <time>2020-08-08T14:32:55Z</time>
      </trkpt>
      <trkpt lat="48.74242" lon="7.50401">
        <ele>165</ele>
        <time>2020-08-08T14:32:56Z</time>
      </trkpt>
      <trkpt lat="48.74241" lon="7.50393">
        <ele>165</ele>
        <time>2020-08-08T14:32:57Z</time>
      </trkpt>
      <trkpt lat="48.74239" lon="7.50386">
        <ele>165</ele>
        <time>2020-08-08T14:32:58Z</time>
      </trkpt>
      <trkpt lat="48.74238" lon="7.50379">
        <ele>165</ele>
        <time>2020-08-08T14:32:59Z</time>
      </trkpt>
      <trkpt lat="48.74238" lon="7.50372">
        <ele>165</ele>
        <time>2020-08-08T14:33:00Z</time>
      </trkpt>
      <trkpt lat="48.74238" lon="7.50364">
        <ele>165</ele>
        <time>2020-08-08T14:33:01Z</time>
      </trkpt>
      <trkpt lat="48.74237" lon="7.50351">
        <ele>166</ele>
        <time>2020-08-08T14:33:03Z</time>
      </trkpt>
      <trkpt lat="48.74236" lon="7.50342">
        <ele>166</ele>
        <time>2020-08-08T14:33:04Z</time>
      </trkpt>
      <trkpt lat="48.74235" lon="7.50335">
        <ele>166</ele>
        <time>2020-08-08T14:33:05Z</time>
      </trkpt>
      <trkpt lat="48.74233" lon="7.50322">
        <ele>166</ele>
        <time>2020-08-08T14:33:07Z</time>
      </trkpt>
      <trkpt lat="48.74233" lon="7.50315">
        <ele>165</ele>
        <time>2020-08-08T14:33:08Z</time>
      </trkpt>
      <trkpt lat="48.74231" lon="7.50308">
        <ele>166</ele>
        <time>2020-08-08T14:33:09Z</time>
      </trkpt>
      <trkpt lat="48.74229" lon="7.50295">
        <ele>166</ele>
        <time>2020-08-08T14:33:11Z</time>
      </trkpt>
      <trkpt lat="48.74228" lon="7.50288">
        <ele>166</ele>
        <time>2020-08-08T14:33:12Z</time>
      </trkpt>
      <trkpt lat="48.74228" lon="7.50281">
        <ele>167</ele>
        <time>2020-08-08T14:33:13Z</time>
      </trkpt>
      <trkpt lat="48.74227" lon="7.50274">
        <ele>167</ele>
        <time>2020-08-08T14:33:14Z</time>
      </trkpt>
      <trkpt lat="48.74226" lon="7.50267">
        <ele>168</ele>
        <time>2020-08-08T14:33:15Z</time>
      </trkpt>
      <trkpt lat="48.74223" lon="7.50254">
        <ele>168</ele>
        <time>2020-08-08T14:33:17Z</time>
      </trkpt>
      <trkpt lat="48.74223" lon="7.50247">
        <ele>167</ele>
        <time>2020-08-08T14:33:18Z</time>
      </trkpt>
      <trkpt lat="48.74221" lon="7.50237">
        <ele>167</ele>
        <time>2020-08-08T14:33:20Z</time>
      </trkpt>
      <trkpt lat="48.74219" lon="7.5023">
        <ele>168</ele>
        <time>2020-08-08T14:33:21Z</time>
      </trkpt>
      <trkpt lat="48.74219" lon="7.50224">
        <ele>168</ele>
        <time>2020-08-08T14:33:22Z</time>
      </trkpt>
      <trkpt lat="48.74217" lon="7.50211">
        <ele>168</ele>
        <time>2020-08-08T14:33:24Z</time>
      </trkpt>
      <trkpt lat="48.74215" lon="7.502">
        <ele>167</ele>
        <time>2020-08-08T14:33:26Z</time>
      </trkpt>
      <trkpt lat="48.74213" lon="7.50193">
        <ele>167</ele>
        <time>2020-08-08T14:33:27Z</time>
      </trkpt>
      <trkpt lat="48.74212" lon="7.50186">
        <ele>166</ele>
        <time>2020-08-08T14:33:28Z</time>
      </trkpt>
      <trkpt lat="48.74211" lon="7.50176">
        <ele>166</ele>
        <time>2020-08-08T14:33:30Z</time>
      </trkpt>
      <trkpt lat="48.74209" lon="7.50167">
        <ele>167</ele>
        <time>2020-08-08T14:33:32Z</time>
      </trkpt>
      <trkpt lat="48.74205" lon="7.50157">
        <ele>168</ele>
        <time>2020-08-08T14:33:34Z</time>
      </trkpt>
      <trkpt lat="48.74204" lon="7.5015">
        <ele>168</ele>
        <time>2020-08-08T14:33:36Z</time>
      </trkpt>
      <trkpt lat="48.74202" lon="7.50143">
        <ele>169</ele>
        <time>2020-08-08T14:33:37Z</time>
      </trkpt>
      <trkpt lat="48.74199" lon="7.50132">
        <ele>169</ele>
        <time>2020-08-08T14:33:38Z</time>
      </trkpt>
      <trkpt lat="48.74195" lon="7.50119">
        <ele>168</ele>
        <time>2020-08-08T14:33:40Z</time>
      </trkpt>
      <trkpt lat="48.74193" lon="7.50108">
        <ele>167</ele>
        <time>2020-08-08T14:33:41Z</time>
      </trkpt>
      <trkpt lat="48.74192" lon="7.50101">
        <ele>166</ele>
        <time>2020-08-08T14:33:42Z</time>
      </trkpt>
      <trkpt lat="48.7419" lon="7.50094">
        <ele>166</ele>
        <time>2020-08-08T14:33:43Z</time>
      </trkpt>
      <trkpt lat="48.74188" lon="7.50088">
        <ele>166</ele>
        <time>2020-08-08T14:33:44Z</time>
      </trkpt>
      <trkpt lat="48.74186" lon="7.50078">
        <ele>165</ele>
        <time>2020-08-08T14:33:46Z</time>
      </trkpt>
      <trkpt lat="48.74182" lon="7.50067">
        <ele>166</ele>
        <time>2020-08-08T14:33:48Z</time>
      </trkpt>
      <trkpt lat="48.74178" lon="7.5006">
        <ele>166</ele>
        <time>2020-08-08T14:33:49Z</time>
      </trkpt>
      <trkpt lat="48.74175" lon="7.50053">
        <ele>168</ele>
        <time>2020-08-08T14:33:51Z</time>
      </trkpt>
      <trkpt lat="48.74172" lon="7.50046">
        <ele>169</ele>
        <time>2020-08-08T14:33:52Z</time>
      </trkpt>
      <trkpt lat="48.74169" lon="7.50038">
        <ele>170</ele>
        <time>2020-08-08T14:33:54Z</time>
      </trkpt>
      <trkpt lat="48.74171" lon="7.50026">
        <ele>169</ele>
        <time>2020-08-08T14:33:56Z</time>
      </trkpt>
      <trkpt lat="48.74166" lon="7.5001">
        <ele>169</ele>
        <time>2020-08-08T14:33:58Z</time>
      </trkpt>
      <trkpt lat="48.7417" lon="7.49997">
        <ele>167</ele>
        <time>2020-08-08T14:34:00Z</time>
      </trkpt>
      <trkpt lat="48.74169" lon="7.4999">
        <ele>167</ele>
        <time>2020-08-08T14:34:01Z</time>
      </trkpt>
      <trkpt lat="48.74169" lon="7.49982">
        <ele>167</ele>
        <time>2020-08-08T14:34:02Z</time>
      </trkpt>
      <trkpt lat="48.7417" lon="7.49975">
        <ele>166</ele>
        <time>2020-08-08T14:34:04Z</time>
      </trkpt>
      <trkpt lat="48.74172" lon="7.49964">
        <ele>166</ele>
        <time>2020-08-08T14:34:06Z</time>
      </trkpt>
      <trkpt lat="48.74168" lon="7.49951">
        <ele>167</ele>
        <time>2020-08-08T14:34:08Z</time>
      </trkpt>
      <trkpt lat="48.74167" lon="7.49944">
        <ele>166</ele>
        <time>2020-08-08T14:34:09Z</time>
      </trkpt>
      <trkpt lat="48.74166" lon="7.4993">
        <ele>166</ele>
        <time>2020-08-08T14:34:11Z</time>
      </trkpt>
      <trkpt lat="48.74165" lon="7.49923">
        <ele>166</ele>
        <time>2020-08-08T14:34:12Z</time>
      </trkpt>
      <trkpt lat="48.74165" lon="7.49916">
        <ele>167</ele>
        <time>2020-08-08T14:34:13Z</time>
      </trkpt>
      <trkpt lat="48.74164" lon="7.49903">
        <ele>167</ele>
        <time>2020-08-08T14:34:15Z</time>
      </trkpt>
      <trkpt lat="48.74164" lon="7.49896">
        <ele>167</ele>
        <time>2020-08-08T14:34:16Z</time>
      </trkpt>
      <trkpt lat="48.74163" lon="7.49889">
        <ele>167</ele>
        <time>2020-08-08T14:34:17Z</time>
      </trkpt>
      <trkpt lat="48.74163" lon="7.49875">
        <ele>166</ele>
        <time>2020-08-08T14:34:19Z</time>
      </trkpt>
      <trkpt lat="48.74163" lon="7.49868">
        <ele>166</ele>
        <time>2020-08-08T14:34:20Z</time>
      </trkpt>
      <trkpt lat="48.74163" lon="7.49861">
        <ele>166</ele>
        <time>2020-08-08T14:34:21Z</time>
      </trkpt>
      <trkpt lat="48.74163" lon="7.49847">
        <ele>165</ele>
        <time>2020-08-08T14:34:23Z</time>
      </trkpt>
      <trkpt lat="48.74163" lon="7.4984">
        <ele>165</ele>
        <time>2020-08-08T14:34:24Z</time>
      </trkpt>
      <trkpt lat="48.74163" lon="7.49832">
        <ele>165</ele>
        <time>2020-08-08T14:34:25Z</time>
      </trkpt>
      <trkpt lat="48.74163" lon="7.49825">
        <ele>165</ele>
        <time>2020-08-08T14:34:26Z</time>
      </trkpt>
      <trkpt lat="48.74163" lon="7.49817">
        <ele>165</ele>
        <time>2020-08-08T14:34:27Z</time>
      </trkpt>
      <trkpt lat="48.74164" lon="7.49805">
        <ele>165</ele>
        <time>2020-08-08T14:34:29Z</time>
      </trkpt>
      <trkpt lat="48.74163" lon="7.49797">
        <ele>165</ele>
        <time>2020-08-08T14:34:30Z</time>
      </trkpt>
      <trkpt lat="48.74165" lon="7.4979">
        <ele>165</ele>
        <time>2020-08-08T14:34:31Z</time>
      </trkpt>
      <trkpt lat="48.74164" lon="7.49781">
        <ele>165</ele>
        <time>2020-08-08T14:34:32Z</time>
      </trkpt>
      <trkpt lat="48.74166" lon="7.49769">
        <ele>165</ele>
        <time>2020-08-08T14:34:34Z</time>
      </trkpt>
      <trkpt lat="48.74166" lon="7.49762">
        <ele>165</ele>
        <time>2020-08-08T14:34:35Z</time>
      </trkpt>
      <trkpt lat="48.74166" lon="7.49748">
        <ele>165</ele>
        <time>2020-08-08T14:34:37Z</time>
      </trkpt>
      <trkpt lat="48.74167" lon="7.49741">
        <ele>165</ele>
        <time>2020-08-08T14:34:38Z</time>
      </trkpt>
      <trkpt lat="48.74167" lon="7.49734">
        <ele>165</ele>
        <time>2020-08-08T14:34:39Z</time>
      </trkpt>
      <trkpt lat="48.74167" lon="7.49721">
        <ele>164</ele>
        <time>2020-08-08T14:34:41Z</time>
      </trkpt>
      <trkpt lat="48.74167" lon="7.49708">
        <ele>164</ele>
        <time>2020-08-08T14:34:43Z</time>
      </trkpt>
      <trkpt lat="48.74167" lon="7.49701">
        <ele>164</ele>
        <time>2020-08-08T14:34:44Z</time>
      </trkpt>
      <trkpt lat="48.74167" lon="7.49688">
        <ele>164</ele>
        <time>2020-08-08T14:34:46Z</time>
      </trkpt>
      <trkpt lat="48.74168" lon="7.49681">
        <ele>164</ele>
        <time>2020-08-08T14:34:47Z</time>
      </trkpt>
      <trkpt lat="48.74168" lon="7.49674">
        <ele>164</ele>
        <time>2020-08-08T14:34:48Z</time>
      </trkpt>
      <trkpt lat="48.74168" lon="7.49661">
        <ele>164</ele>
        <time>2020-08-08T14:34:50Z</time>
      </trkpt>
      <trkpt lat="48.74168" lon="7.49654">
        <ele>164</ele>
        <time>2020-08-08T14:34:51Z</time>
      </trkpt>
      <trkpt lat="48.74169" lon="7.49641">
        <ele>165</ele>
        <time>2020-08-08T14:34:53Z</time>
      </trkpt>
      <trkpt lat="48.74169" lon="7.49634">
        <ele>165</ele>
        <time>2020-08-08T14:34:54Z</time>
      </trkpt>
      <trkpt lat="48.7417" lon="7.49622">
        <ele>165</ele>
        <time>2020-08-08T14:34:56Z</time>
      </trkpt>
      <trkpt lat="48.7417" lon="7.49615">
        <ele>165</ele>
        <time>2020-08-08T14:34:57Z</time>
      </trkpt>
      <trkpt lat="48.74171" lon="7.49608">
        <ele>165</ele>
        <time>2020-08-08T14:34:58Z</time>
      </trkpt>
      <trkpt lat="48.74171" lon="7.49601">
        <ele>165</ele>
        <time>2020-08-08T14:34:59Z</time>
      </trkpt>
      <trkpt lat="48.74171" lon="7.49588">
        <ele>165</ele>
        <time>2020-08-08T14:35:01Z</time>
      </trkpt>
      <trkpt lat="48.74171" lon="7.49574">
        <ele>165</ele>
        <time>2020-08-08T14:35:03Z</time>
      </trkpt>
      <trkpt lat="48.74171" lon="7.49567">
        <ele>165</ele>
        <time>2020-08-08T14:35:04Z</time>
      </trkpt>
      <trkpt lat="48.74172" lon="7.49555">
        <ele>165</ele>
        <time>2020-08-08T14:35:06Z</time>
      </trkpt>
      <trkpt lat="48.74172" lon="7.49543">
        <ele>165</ele>
        <time>2020-08-08T14:35:08Z</time>
      </trkpt>
      <trkpt lat="48.74173" lon="7.49535">
        <ele>165</ele>
        <time>2020-08-08T14:35:09Z</time>
      </trkpt>
      <trkpt lat="48.74173" lon="7.49522">
        <ele>165</ele>
        <time>2020-08-08T14:35:11Z</time>
      </trkpt>
      <trkpt lat="48.74173" lon="7.4951">
        <ele>165</ele>
        <time>2020-08-08T14:35:13Z</time>
      </trkpt>
      <trkpt lat="48.74173" lon="7.49496">
        <ele>165</ele>
        <time>2020-08-08T14:35:15Z</time>
      </trkpt>
      <trkpt lat="48.74174" lon="7.49487">
        <ele>165</ele>
        <time>2020-08-08T14:35:16Z</time>
      </trkpt>
      <trkpt lat="48.74175" lon="7.4948">
        <ele>165</ele>
        <time>2020-08-08T14:35:17Z</time>
      </trkpt>
      <trkpt lat="48.74175" lon="7.49472">
        <ele>165</ele>
        <time>2020-08-08T14:35:18Z</time>
      </trkpt>
      <trkpt lat="48.74176" lon="7.49459">
        <ele>165</ele>
        <time>2020-08-08T14:35:20Z</time>
      </trkpt>
      <trkpt lat="48.74175" lon="7.49445">
        <ele>165</ele>
        <time>2020-08-08T14:35:22Z</time>
      </trkpt>
      <trkpt lat="48.74175" lon="7.49437">
        <ele>165</ele>
        <time>2020-08-08T14:35:23Z</time>
      </trkpt>
      <trkpt lat="48.74176" lon="7.49426">
        <ele>165</ele>
        <time>2020-08-08T14:35:25Z</time>
      </trkpt>
      <trkpt lat="48.74177" lon="7.49412">
        <ele>165</ele>
        <time>2020-08-08T14:35:27Z</time>
      </trkpt>
      <trkpt lat="48.74177" lon="7.49399">
        <ele>165</ele>
        <time>2020-08-08T14:35:29Z</time>
      </trkpt>
      <trkpt lat="48.74177" lon="7.49386">
        <ele>165</ele>
        <time>2020-08-08T14:35:31Z</time>
      </trkpt>
      <trkpt lat="48.74177" lon="7.49379">
        <ele>165</ele>
        <time>2020-08-08T14:35:32Z</time>
      </trkpt>
      <trkpt lat="48.74178" lon="7.49367">
        <ele>165</ele>
        <time>2020-08-08T14:35:34Z</time>
      </trkpt>
      <trkpt lat="48.74176" lon="7.49353">
        <ele>165</ele>
        <time>2020-08-08T14:35:36Z</time>
      </trkpt>
      <trkpt lat="48.74176" lon="7.49339">
        <ele>165</ele>
        <time>2020-08-08T14:35:38Z</time>
      </trkpt>
      <trkpt lat="48.74176" lon="7.49327">
        <ele>165</ele>
        <time>2020-08-08T14:35:40Z</time>
      </trkpt>
      <trkpt lat="48.74177" lon="7.49315">
        <ele>165</ele>
        <time>2020-08-08T14:35:42Z</time>
      </trkpt>
      <trkpt lat="48.74178" lon="7.49304">
        <ele>165</ele>
        <time>2020-08-08T14:35:44Z</time>
      </trkpt>
      <trkpt lat="48.74178" lon="7.4929">
        <ele>165</ele>
        <time>2020-08-08T14:35:46Z</time>
      </trkpt>
      <trkpt lat="48.74178" lon="7.49278">
        <ele>165</ele>
        <time>2020-08-08T14:35:48Z</time>
      </trkpt>
      <trkpt lat="48.74178" lon="7.49265">
        <ele>165</ele>
        <time>2020-08-08T14:35:50Z</time>
      </trkpt>
      <trkpt lat="48.74178" lon="7.49254">
        <ele>165</ele>
        <time>2020-08-08T14:35:52Z</time>
      </trkpt>
      <trkpt lat="48.74178" lon="7.49241">
        <ele>165</ele>
        <time>2020-08-08T14:35:54Z</time>
      </trkpt>
      <trkpt lat="48.74177" lon="7.49227">
        <ele>165</ele>
        <time>2020-08-08T14:35:56Z</time>
      </trkpt>
      <trkpt lat="48.74177" lon="7.4922">
        <ele>165</ele>
        <time>2020-08-08T14:35:57Z</time>
      </trkpt>
      <trkpt lat="48.74178" lon="7.49207">
        <ele>165</ele>
        <time>2020-08-08T14:35:59Z</time>
      </trkpt>
      <trkpt lat="48.74178" lon="7.492">
        <ele>165</ele>
        <time>2020-08-08T14:36:00Z</time>
      </trkpt>
      <trkpt lat="48.74179" lon="7.49187">
        <ele>165</ele>
        <time>2020-08-08T14:36:02Z</time>
      </trkpt>
      <trkpt lat="48.74178" lon="7.49173">
        <ele>165</ele>
        <time>2020-08-08T14:36:04Z</time>
      </trkpt>
      <trkpt lat="48.74178" lon="7.49166">
        <ele>165</ele>
        <time>2020-08-08T14:36:05Z</time>
      </trkpt>
      <trkpt lat="48.74178" lon="7.49158">
        <ele>165</ele>
        <time>2020-08-08T14:36:06Z</time>
      </trkpt>
      <trkpt lat="48.74177" lon="7.49144">
        <ele>165</ele>
        <time>2020-08-08T14:36:08Z</time>
      </trkpt>
      <trkpt lat="48.74177" lon="7.49137">
        <ele>165</ele>
        <time>2020-08-08T14:36:09Z</time>
      </trkpt>
      <trkpt lat="48.74177" lon="7.4913">
        <ele>165</ele>
        <time>2020-08-08T14:36:10Z</time>
      </trkpt>
      <trkpt lat="48.74177" lon="7.49123">
        <ele>165</ele>
        <time>2020-08-08T14:36:11Z</time>
      </trkpt>
      <trkpt lat="48.74176" lon="7.49114">
        <ele>165</ele>
        <time>2020-08-08T14:36:12Z</time>
      </trkpt>
      <trkpt lat="48.74175" lon="7.49107">
        <ele>165</ele>
        <time>2020-08-08T14:36:13Z</time>
      </trkpt>
      <trkpt lat="48.74175" lon="7.49099">
        <ele>165</ele>
        <time>2020-08-08T14:36:14Z</time>
      </trkpt>
      <trkpt lat="48.74175" lon="7.49093">
        <ele>165</ele>
        <time>2020-08-08T14:36:15Z</time>
      </trkpt>
      <trkpt lat="48.74174" lon="7.49086">
        <ele>165</ele>
        <time>2020-08-08T14:36:16Z</time>
      </trkpt>
      <trkpt lat="48.74174" lon="7.49074">
        <ele>165</ele>
        <time>2020-08-08T14:36:18Z</time>
      </trkpt>
      <trkpt lat="48.74173" lon="7.49063">
        <ele>166</ele>
        <time>2020-08-08T14:36:20Z</time>
      </trkpt>
      <trkpt lat="48.74172" lon="7.49053">
        <ele>166</ele>
        <time>2020-08-08T14:36:22Z</time>
      </trkpt>
      <trkpt lat="48.74171" lon="7.49044">
        <ele>166</ele>
        <time>2020-08-08T14:36:24Z</time>
      </trkpt>
      <trkpt lat="48.7417" lon="7.49034">
        <ele>166</ele>
        <time>2020-08-08T14:36:26Z</time>
      </trkpt>
      <trkpt lat="48.7417" lon="7.49027">
        <ele>167</ele>
        <time>2020-08-08T14:36:29Z</time>
      </trkpt>
      <trkpt lat="48.7417" lon="7.49018">
        <ele>167</ele>
        <time>2020-08-08T14:36:31Z</time>
      </trkpt>
      <trkpt lat="48.74171" lon="7.49006">
        <ele>166</ele>
        <time>2020-08-08T14:36:33Z</time>
      </trkpt>
      <trkpt lat="48.74171" lon="7.48999">
        <ele>166</ele>
        <time>2020-08-08T14:36:34Z</time>
      </trkpt>
      <trkpt lat="48.74171" lon="7.48991">
        <ele>166</ele>
        <time>2020-08-08T14:36:35Z</time>
      </trkpt>
      <trkpt lat="48.74173" lon="7.48983">
        <ele>166</ele>
        <time>2020-08-08T14:36:36Z</time>
      </trkpt>
      <trkpt lat="48.74173" lon="7.48976">
        <ele>166</ele>
        <time>2020-08-08T14:36:37Z</time>
      </trkpt>
      <trkpt lat="48.74174" lon="7.48968">
        <ele>165</ele>
        <time>2020-08-08T14:36:38Z</time>
      </trkpt>
      <trkpt lat="48.74174" lon="7.4896">
        <ele>165</ele>
        <time>2020-08-08T14:36:39Z</time>
      </trkpt>
      <trkpt lat="48.74175" lon="7.48951">
        <ele>165</ele>
        <time>2020-08-08T14:36:40Z</time>
      </trkpt>
      <trkpt lat="48.74176" lon="7.48942">
        <ele>165</ele>
        <time>2020-08-08T14:36:41Z</time>
      </trkpt>
      <trkpt lat="48.74176" lon="7.48933">
        <ele>165</ele>
        <time>2020-08-08T14:36:42Z</time>
      </trkpt>
      <trkpt lat="48.74175" lon="7.48924">
        <ele>165</ele>
        <time>2020-08-08T14:36:43Z</time>
      </trkpt>
      <trkpt lat="48.74176" lon="7.48915">
        <ele>165</ele>
        <time>2020-08-08T14:36:44Z</time>
      </trkpt>
      <trkpt lat="48.74176" lon="7.48907">
        <ele>165</ele>
        <time>2020-08-08T14:36:45Z</time>
      </trkpt>
      <trkpt lat="48.74176" lon="7.48898">
        <ele>165</ele>
        <time>2020-08-08T14:36:46Z</time>
      </trkpt>
      <trkpt lat="48.74176" lon="7.4889">
        <ele>165</ele>
        <time>2020-08-08T14:36:47Z</time>
      </trkpt>
      <trkpt lat="48.74175" lon="7.48883">
        <ele>165</ele>
        <time>2020-08-08T14:36:48Z</time>
      </trkpt>
      <trkpt lat="48.74175" lon="7.48875">
        <ele>165</ele>
        <time>2020-08-08T14:36:49Z</time>
      </trkpt>
      <trkpt lat="48.74175" lon="7.48867">
        <ele>165</ele>
        <time>2020-08-08T14:36:50Z</time>
      </trkpt>
      <trkpt lat="48.74175" lon="7.48859">
        <ele>165</ele>
        <time>2020-08-08T14:36:51Z</time>
      </trkpt>
      <trkpt lat="48.74175" lon="7.48852">
        <ele>165</ele>
        <time>2020-08-08T14:36:52Z</time>
      </trkpt>
      <trkpt lat="48.74175" lon="7.48844">
        <ele>165</ele>
        <time>2020-08-08T14:36:53Z</time>
      </trkpt>
      <trkpt lat="48.74175" lon="7.48831">
        <ele>165</ele>
        <time>2020-08-08T14:36:55Z</time>
      </trkpt>
      <trkpt lat="48.74174" lon="7.48822">
        <ele>165</ele>
        <time>2020-08-08T14:36:56Z</time>
      </trkpt>
      <trkpt lat="48.74174" lon="7.4881">
        <ele>165</ele>
        <time>2020-08-08T14:36:58Z</time>
      </trkpt>
      <trkpt lat="48.74175" lon="7.48797">
        <ele>165</ele>
        <time>2020-08-08T14:37:00Z</time>
      </trkpt>
      <trkpt lat="48.74174" lon="7.48788">
        <ele>165</ele>
        <time>2020-08-08T14:37:01Z</time>
      </trkpt>
      <trkpt lat="48.74173" lon="7.48781">
        <ele>165</ele>
        <time>2020-08-08T14:37:02Z</time>
      </trkpt>
      <trkpt lat="48.74173" lon="7.48772">
        <ele>165</ele>
        <time>2020-08-08T14:37:03Z</time>
      </trkpt>
      <trkpt lat="48.74173" lon="7.48764">
        <ele>165</ele>
        <time>2020-08-08T14:37:04Z</time>
      </trkpt>
      <trkpt lat="48.74173" lon="7.48757">
        <ele>165</ele>
        <time>2020-08-08T14:37:05Z</time>
      </trkpt>
      <trkpt lat="48.74173" lon="7.48748">
        <ele>165</ele>
        <time>2020-08-08T14:37:06Z</time>
      </trkpt>
      <trkpt lat="48.74173" lon="7.48741">
        <ele>165</ele>
        <time>2020-08-08T14:37:07Z</time>
      </trkpt>
      <trkpt lat="48.74172" lon="7.48733">
        <ele>165</ele>
        <time>2020-08-08T14:37:08Z</time>
      </trkpt>
      <trkpt lat="48.74172" lon="7.48724">
        <ele>165</ele>
        <time>2020-08-08T14:37:09Z</time>
      </trkpt>
      <trkpt lat="48.74173" lon="7.48717">
        <ele>165</ele>
        <time>2020-08-08T14:37:10Z</time>
      </trkpt>
      <trkpt lat="48.74172" lon="7.48709">
        <ele>165</ele>
        <time>2020-08-08T14:37:11Z</time>
      </trkpt>
      <trkpt lat="48.74173" lon="7.48702">
        <ele>165</ele>
        <time>2020-08-08T14:37:12Z</time>
      </trkpt>
      <trkpt lat="48.74171" lon="7.48687">
        <ele>165</ele>
        <time>2020-08-08T14:37:14Z</time>
      </trkpt>
      <trkpt lat="48.74171" lon="7.48673">
        <ele>165</ele>
        <time>2020-08-08T14:37:16Z</time>
      </trkpt>
      <trkpt lat="48.74171" lon="7.48665">
        <ele>165</ele>
        <time>2020-08-08T14:37:17Z</time>
      </trkpt>
      <trkpt lat="48.74171" lon="7.48656">
        <ele>165</ele>
        <time>2020-08-08T14:37:18Z</time>
      </trkpt>
      <trkpt lat="48.7417" lon="7.48648">
        <ele>165</ele>
        <time>2020-08-08T14:37:19Z</time>
      </trkpt>
      <trkpt lat="48.7417" lon="7.4864">
        <ele>165</ele>
        <time>2020-08-08T14:37:20Z</time>
      </trkpt>
      <trkpt lat="48.7417" lon="7.48625">
        <ele>165</ele>
        <time>2020-08-08T14:37:22Z</time>
      </trkpt>
      <trkpt lat="48.7417" lon="7.48619">
        <ele>166</ele>
        <time>2020-08-08T14:37:23Z</time>
      </trkpt>
      <trkpt lat="48.7417" lon="7.48606">
        <ele>166</ele>
        <time>2020-08-08T14:37:25Z</time>
      </trkpt>
      <trkpt lat="48.74172" lon="7.48595">
        <ele>166</ele>
        <time>2020-08-08T14:37:27Z</time>
      </trkpt>
      <trkpt lat="48.74172" lon="7.48586">
        <ele>167</ele>
        <time>2020-08-08T14:37:29Z</time>
      </trkpt>
      <trkpt lat="48.74174" lon="7.48579">
        <ele>167</ele>
        <time>2020-08-08T14:37:31Z</time>
      </trkpt>
      <trkpt lat="48.74174" lon="7.48571">
        <ele>167</ele>
        <time>2020-08-08T14:37:33Z</time>
      </trkpt>
      <trkpt lat="48.74175" lon="7.48563">
        <ele>166</ele>
        <time>2020-08-08T14:37:35Z</time>
      </trkpt>
      <trkpt lat="48.74175" lon="7.48554">
        <ele>166</ele>
        <time>2020-08-08T14:37:37Z</time>
      </trkpt>
      <trkpt lat="48.74175" lon="7.48544">
        <ele>166</ele>
        <time>2020-08-08T14:37:39Z</time>
      </trkpt>
      <trkpt lat="48.74175" lon="7.48533">
        <ele>165</ele>
        <time>2020-08-08T14:37:41Z</time>
      </trkpt>
      <trkpt lat="48.74174" lon="7.48522">
        <ele>165</ele>
        <time>2020-08-08T14:37:43Z</time>
      </trkpt>
      <trkpt lat="48.74174" lon="7.48514">
        <ele>165</ele>
        <time>2020-08-08T14:37:45Z</time>
      </trkpt>
      <trkpt lat="48.74173" lon="7.48506">
        <ele>165</ele>
        <time>2020-08-08T14:37:48Z</time>
      </trkpt>
      <trkpt lat="48.74173" lon="7.48496">
        <ele>165</ele>
        <time>2020-08-08T14:37:51Z</time>
      </trkpt>
      <trkpt lat="48.74173" lon="7.48488">
        <ele>165</ele>
        <time>2020-08-08T14:37:53Z</time>
      </trkpt>
      <trkpt lat="48.74171" lon="7.48479">
        <ele>165</ele>
        <time>2020-08-08T14:37:55Z</time>
      </trkpt>
      <trkpt lat="48.7417" lon="7.4847">
        <ele>165</ele>
        <time>2020-08-08T14:37:57Z</time>
      </trkpt>
      <trkpt lat="48.74171" lon="7.48462">
        <ele>166</ele>
        <time>2020-08-08T14:37:59Z</time>
      </trkpt>
      <trkpt lat="48.74172" lon="7.48453">
        <ele>166</ele>
        <time>2020-08-08T14:38:01Z</time>
      </trkpt>
      <trkpt lat="48.74171" lon="7.48442">
        <ele>166</ele>
        <time>2020-08-08T14:38:03Z</time>
      </trkpt>
      <trkpt lat="48.74171" lon="7.48433">
        <ele>166</ele>
        <time>2020-08-08T14:38:05Z</time>
      </trkpt>
      <trkpt lat="48.74171" lon="7.48423">
        <ele>166</ele>
        <time>2020-08-08T14:38:07Z</time>
      </trkpt>
      <trkpt lat="48.7417" lon="7.48412">
        <ele>166</ele>
        <time>2020-08-08T14:38:09Z</time>
      </trkpt>
      <trkpt lat="48.7417" lon="7.484">
        <ele>167</ele>
        <time>2020-08-08T14:38:11Z</time>
      </trkpt>
      <trkpt lat="48.7417" lon="7.48388">
        <ele>167</ele>
        <time>2020-08-08T14:38:13Z</time>
      </trkpt>
      <trkpt lat="48.74169" lon="7.48377">
        <ele>167</ele>
        <time>2020-08-08T14:38:15Z</time>
      </trkpt>
      <trkpt lat="48.74168" lon="7.48365">
        <ele>167</ele>
        <time>2020-08-08T14:38:17Z</time>
      </trkpt>
      <trkpt lat="48.74167" lon="7.48352">
        <ele>167</ele>
        <time>2020-08-08T14:38:19Z</time>
      </trkpt>
      <trkpt lat="48.74167" lon="7.48341">
        <ele>167</ele>
        <time>2020-08-08T14:38:21Z</time>
      </trkpt>
      <trkpt lat="48.74168" lon="7.48331">
        <ele>167</ele>
        <time>2020-08-08T14:38:23Z</time>
      </trkpt>
      <trkpt lat="48.74168" lon="7.48321">
        <ele>167</ele>
        <time>2020-08-08T14:38:25Z</time>
      </trkpt>
      <trkpt lat="48.74167" lon="7.48308">
        <ele>167</ele>
        <time>2020-08-08T14:38:27Z</time>
      </trkpt>
      <trkpt lat="48.74168" lon="7.48296">
        <ele>167</ele>
        <time>2020-08-08T14:38:29Z</time>
      </trkpt>
      <trkpt lat="48.74169" lon="7.48286">
        <ele>167</ele>
        <time>2020-08-08T14:38:31Z</time>
      </trkpt>
      <trkpt lat="48.74168" lon="7.48275">
        <ele>168</ele>
        <time>2020-08-08T14:38:33Z</time>
      </trkpt>
      <trkpt lat="48.74168" lon="7.48265">
        <ele>168</ele>
        <time>2020-08-08T14:38:35Z</time>
      </trkpt>
      <trkpt lat="48.74168" lon="7.48254">
        <ele>168</ele>
        <time>2020-08-08T14:38:37Z</time>
      </trkpt>
      <trkpt lat="48.74169" lon="7.48243">
        <ele>168</ele>
        <time>2020-08-08T14:38:39Z</time>
      </trkpt>
      <trkpt lat="48.74169" lon="7.48232">
        <ele>168</ele>
        <time>2020-08-08T14:38:41Z</time>
      </trkpt>
      <trkpt lat="48.74168" lon="7.48221">
        <ele>168</ele>
        <time>2020-08-08T14:38:43Z</time>
      </trkpt>
      <trkpt lat="48.74169" lon="7.48211">
        <ele>168</ele>
        <time>2020-08-08T14:38:45Z</time>
      </trkpt>
      <trkpt lat="48.74168" lon="7.48199">
        <ele>168</ele>
        <time>2020-08-08T14:38:47Z</time>
      </trkpt>
      <trkpt lat="48.74168" lon="7.48188">
        <ele>168</ele>
        <time>2020-08-08T14:38:49Z</time>
      </trkpt>
      <trkpt lat="48.74168" lon="7.48176">
        <ele>168</ele>
        <time>2020-08-08T14:38:51Z</time>
      </trkpt>
      <trkpt lat="48.74168" lon="7.48165">
        <ele>168</ele>
        <time>2020-08-08T14:38:53Z</time>
      </trkpt>
      <trkpt lat="48.7417" lon="7.48156">
        <ele>168</ele>
        <time>2020-08-08T14:38:55Z</time>
      </trkpt>
      <trkpt lat="48.7417" lon="7.48144">
        <ele>168</ele>
        <time>2020-08-08T14:38:57Z</time>
      </trkpt>
      <trkpt lat="48.74171" lon="7.48131">
        <ele>168</ele>
        <time>2020-08-08T14:38:59Z</time>
      </trkpt>
      <trkpt lat="48.74172" lon="7.48119">
        <ele>168</ele>
        <time>2020-08-08T14:39:01Z</time>
      </trkpt>
      <trkpt lat="48.74174" lon="7.48107">
        <ele>167</ele>
        <time>2020-08-08T14:39:03Z</time>
      </trkpt>
      <trkpt lat="48.74175" lon="7.48096">
        <ele>167</ele>
        <time>2020-08-08T14:39:05Z</time>
      </trkpt>
      <trkpt lat="48.74178" lon="7.48085">
        <ele>167</ele>
        <time>2020-08-08T14:39:07Z</time>
      </trkpt>
      <trkpt lat="48.74179" lon="7.48074">
        <ele>167</ele>
        <time>2020-08-08T14:39:09Z</time>
      </trkpt>
      <trkpt lat="48.74181" lon="7.48063">
        <ele>167</ele>
        <time>2020-08-08T14:39:11Z</time>
      </trkpt>
      <trkpt lat="48.74183" lon="7.48052">
        <ele>167</ele>
        <time>2020-08-08T14:39:13Z</time>
      </trkpt>
      <trkpt lat="48.74185" lon="7.48043">
        <ele>167</ele>
        <time>2020-08-08T14:39:15Z</time>
      </trkpt>
      <trkpt lat="48.74188" lon="7.48033">
        <ele>167</ele>
        <time>2020-08-08T14:39:17Z</time>
      </trkpt>
      <trkpt lat="48.74191" lon="7.48023">
        <ele>167</ele>
        <time>2020-08-08T14:39:19Z</time>
      </trkpt>
      <trkpt lat="48.74193" lon="7.48011">
        <ele>167</ele>
        <time>2020-08-08T14:39:21Z</time>
      </trkpt>
      <trkpt lat="48.74196" lon="7.48">
        <ele>167</ele>
        <time>2020-08-08T14:39:23Z</time>
      </trkpt>
      <trkpt lat="48.74199" lon="7.47989">
        <ele>167</ele>
        <time>2020-08-08T14:39:25Z</time>
      </trkpt>
      <trkpt lat="48.74202" lon="7.47978">
        <ele>167</ele>
        <time>2020-08-08T14:39:27Z</time>
      </trkpt>
      <trkpt lat="48.74204" lon="7.47968">
        <ele>167</ele>
        <time>2020-08-08T14:39:29Z</time>
      </trkpt>
      <trkpt lat="48.74207" lon="7.47959">
        <ele>167</ele>
        <time>2020-08-08T14:39:31Z</time>
      </trkpt>
      <trkpt lat="48.74209" lon="7.47949">
        <ele>167</ele>
        <time>2020-08-08T14:39:33Z</time>
      </trkpt>
      <trkpt lat="48.74211" lon="7.47937">
        <ele>167</ele>
        <time>2020-08-08T14:39:35Z</time>
      </trkpt>
      <trkpt lat="48.74212" lon="7.47926">
        <ele>168</ele>
        <time>2020-08-08T14:39:37Z</time>
      </trkpt>
      <trkpt lat="48.74215" lon="7.47914">
        <ele>168</ele>
        <time>2020-08-08T14:39:39Z</time>
      </trkpt>
      <trkpt lat="48.74217" lon="7.47905">
        <ele>168</ele>
        <time>2020-08-08T14:39:41Z</time>
      </trkpt>
      <trkpt lat="48.74218" lon="7.47898">
        <ele>168</ele>
        <time>2020-08-08T14:39:43Z</time>
      </trkpt>
      <trkpt lat="48.7422" lon="7.4789">
        <ele>168</ele>
        <time>2020-08-08T14:39:45Z</time>
      </trkpt>
      <trkpt lat="48.74223" lon="7.47882">
        <ele>169</ele>
        <time>2020-08-08T14:39:47Z</time>
      </trkpt>
      <trkpt lat="48.74224" lon="7.47876">
        <ele>169</ele>
        <time>2020-08-08T14:39:49Z</time>
      </trkpt>
      <trkpt lat="48.74226" lon="7.47866">
        <ele>169</ele>
        <time>2020-08-08T14:39:52Z</time>
      </trkpt>
      <trkpt lat="48.74229" lon="7.47859">
        <ele>169</ele>
        <time>2020-08-08T14:39:54Z</time>
      </trkpt>
      <trkpt lat="48.74233" lon="7.47851">
        <ele>169</ele>
        <time>2020-08-08T14:39:56Z</time>
      </trkpt>
      <trkpt lat="48.74238" lon="7.47843">
        <ele>168</ele>
        <time>2020-08-08T14:39:58Z</time>
      </trkpt>
      <trkpt lat="48.74243" lon="7.47831">
        <ele>168</ele>
        <time>2020-08-08T14:40:00Z</time>
      </trkpt>
      <trkpt lat="48.74245" lon="7.47824">
        <ele>168</ele>
        <time>2020-08-08T14:40:01Z</time>
      </trkpt>
      <trkpt lat="48.74249" lon="7.47817">
        <ele>168</ele>
        <time>2020-08-08T14:40:02Z</time>
      </trkpt>
      <trkpt lat="48.74252" lon="7.4781">
        <ele>168</ele>
        <time>2020-08-08T14:40:03Z</time>
      </trkpt>
      <trkpt lat="48.74254" lon="7.47802">
        <ele>168</ele>
        <time>2020-08-08T14:40:04Z</time>
      </trkpt>
      <trkpt lat="48.74258" lon="7.47796">
        <ele>168</ele>
        <time>2020-08-08T14:40:05Z</time>
      </trkpt>
      <trkpt lat="48.74261" lon="7.47789">
        <ele>168</ele>
        <time>2020-08-08T14:40:06Z</time>
      </trkpt>
      <trkpt lat="48.74264" lon="7.47781">
        <ele>168</ele>
        <time>2020-08-08T14:40:07Z</time>
      </trkpt>
      <trkpt lat="48.74266" lon="7.47773">
        <ele>168</ele>
        <time>2020-08-08T14:40:08Z</time>
      </trkpt>
      <trkpt lat="48.74269" lon="7.47767">
        <ele>168</ele>
        <time>2020-08-08T14:40:09Z</time>
      </trkpt>
      <trkpt lat="48.74274" lon="7.47756">
        <ele>168</ele>
        <time>2020-08-08T14:40:11Z</time>
      </trkpt>
      <trkpt lat="48.74276" lon="7.47749">
        <ele>168</ele>
        <time>2020-08-08T14:40:12Z</time>
      </trkpt>
      <trkpt lat="48.74278" lon="7.47741">
        <ele>168</ele>
        <time>2020-08-08T14:40:13Z</time>
      </trkpt>
      <trkpt lat="48.74281" lon="7.47736">
        <ele>168</ele>
        <time>2020-08-08T14:40:14Z</time>
      </trkpt>
      <trkpt lat="48.74282" lon="7.47728">
        <ele>168</ele>
        <time>2020-08-08T14:40:15Z</time>
      </trkpt>
      <trkpt lat="48.74284" lon="7.47721">
        <ele>168</ele>
        <time>2020-08-08T14:40:16Z</time>
      </trkpt>
      <trkpt lat="48.74286" lon="7.47715">
        <ele>168</ele>
        <time>2020-08-08T14:40:17Z</time>
      </trkpt>
      <trkpt lat="48.74287" lon="7.47708">
        <ele>168</ele>
        <time>2020-08-08T14:40:18Z</time>
      </trkpt>
      <trkpt lat="48.7429" lon="7.47702">
        <ele>168</ele>
        <time>2020-08-08T14:40:19Z</time>
      </trkpt>
      <trkpt lat="48.74293" lon="7.47691">
        <ele>168</ele>
        <time>2020-08-08T14:40:21Z</time>
      </trkpt>
      <trkpt lat="48.74296" lon="7.47679">
        <ele>168</ele>
        <time>2020-08-08T14:40:23Z</time>
      </trkpt>
      <trkpt lat="48.74299" lon="7.47667">
        <ele>168</ele>
        <time>2020-08-08T14:40:25Z</time>
      </trkpt>
      <trkpt lat="48.74305" lon="7.47656">
        <ele>168</ele>
        <time>2020-08-08T14:40:27Z</time>
      </trkpt>
      <trkpt lat="48.74307" lon="7.47649">
        <ele>168</ele>
        <time>2020-08-08T14:40:28Z</time>
      </trkpt>
      <trkpt lat="48.74309" lon="7.47643">
        <ele>168</ele>
        <time>2020-08-08T14:40:29Z</time>
      </trkpt>
      <trkpt lat="48.7431" lon="7.47635">
        <ele>168</ele>
        <time>2020-08-08T14:40:30Z</time>
      </trkpt>
      <trkpt lat="48.74311" lon="7.47628">
        <ele>168</ele>
        <time>2020-08-08T14:40:31Z</time>
      </trkpt>
      <trkpt lat="48.74314" lon="7.47614">
        <ele>168</ele>
        <time>2020-08-08T14:40:33Z</time>
      </trkpt>
      <trkpt lat="48.74316" lon="7.47606">
        <ele>168</ele>
        <time>2020-08-08T14:40:34Z</time>
      </trkpt>
      <trkpt lat="48.7432" lon="7.47594">
        <ele>168</ele>
        <time>2020-08-08T14:40:36Z</time>
      </trkpt>
      <trkpt lat="48.74322" lon="7.47587">
        <ele>168</ele>
        <time>2020-08-08T14:40:37Z</time>
      </trkpt>
      <trkpt lat="48.74326" lon="7.47574">
        <ele>167</ele>
        <time>2020-08-08T14:40:39Z</time>
      </trkpt>
      <trkpt lat="48.74328" lon="7.47567">
        <ele>167</ele>
        <time>2020-08-08T14:40:40Z</time>
      </trkpt>
      <trkpt lat="48.74332" lon="7.47554">
        <ele>167</ele>
        <time>2020-08-08T14:40:42Z</time>
      </trkpt>
      <trkpt lat="48.74333" lon="7.47546">
        <ele>167</ele>
        <time>2020-08-08T14:40:43Z</time>
      </trkpt>
      <trkpt lat="48.74336" lon="7.47538">
        <ele>167</ele>
        <time>2020-08-08T14:40:44Z</time>
      </trkpt>
      <trkpt lat="48.74337" lon="7.47531">
        <ele>167</ele>
        <time>2020-08-08T14:40:45Z</time>
      </trkpt>
      <trkpt lat="48.74338" lon="7.47523">
        <ele>167</ele>
        <time>2020-08-08T14:40:46Z</time>
      </trkpt>
      <trkpt lat="48.7434" lon="7.47516">
        <ele>167</ele>
        <time>2020-08-08T14:40:47Z</time>
      </trkpt>
      <trkpt lat="48.74342" lon="7.47508">
        <ele>167</ele>
        <time>2020-08-08T14:40:48Z</time>
      </trkpt>
      <trkpt lat="48.74345" lon="7.47495">
        <ele>168</ele>
        <time>2020-08-08T14:40:50Z</time>
      </trkpt>
      <trkpt lat="48.74348" lon="7.47484">
        <ele>168</ele>
        <time>2020-08-08T14:40:52Z</time>
      </trkpt>
      <trkpt lat="48.74352" lon="7.47474">
        <ele>169</ele>
        <time>2020-08-08T14:40:54Z</time>
      </trkpt>
      <trkpt lat="48.74353" lon="7.47466">
        <ele>169</ele>
        <time>2020-08-08T14:40:56Z</time>
      </trkpt>
      <trkpt lat="48.74355" lon="7.47459">
        <ele>169</ele>
        <time>2020-08-08T14:40:58Z</time>
      </trkpt>
      <trkpt lat="48.74357" lon="7.4745">
        <ele>169</ele>
        <time>2020-08-08T14:41:01Z</time>
      </trkpt>
      <trkpt lat="48.74359" lon="7.47444">
        <ele>169</ele>
        <time>2020-08-08T14:41:03Z</time>
      </trkpt>
      <trkpt lat="48.74362" lon="7.47436">
        <ele>169</ele>
        <time>2020-08-08T14:41:06Z</time>
      </trkpt>
      <trkpt lat="48.74365" lon="7.47429">
        <ele>169</ele>
        <time>2020-08-08T14:41:09Z</time>
      </trkpt>
      <trkpt lat="48.74366" lon="7.47422">
        <ele>169</ele>
        <time>2020-08-08T14:41:13Z</time>
      </trkpt>
      <trkpt lat="48.74361" lon="7.47422">
        <ele>170</ele>
        <time>2020-08-08T14:42:29Z</time>
      </trkpt>
      <trkpt lat="48.7439" lon="7.47357">
        <ele>169</ele>
        <time>2020-08-08T14:43:55Z</time>
      </trkpt>
      <trkpt lat="48.74394" lon="7.47347">
        <ele>169</ele>
        <time>2020-08-08T14:43:57Z</time>
      </trkpt>
      <trkpt lat="48.74397" lon="7.47336">
        <ele>169</ele>
        <time>2020-08-08T14:43:59Z</time>
      </trkpt>
      <trkpt lat="48.744" lon="7.47326">
        <ele>169</ele>
        <time>2020-08-08T14:44:01Z</time>
      </trkpt>
      <trkpt lat="48.74403" lon="7.47315">
        <ele>169</ele>
        <time>2020-08-08T14:44:03Z</time>
      </trkpt>
      <trkpt lat="48.74406" lon="7.47306">
        <ele>168</ele>
        <time>2020-08-08T14:44:05Z</time>
      </trkpt>
      <trkpt lat="48.7441" lon="7.47297">
        <ele>168</ele>
        <time>2020-08-08T14:44:07Z</time>
      </trkpt>
      <trkpt lat="48.74411" lon="7.47286">
        <ele>168</ele>
        <time>2020-08-08T14:44:09Z</time>
      </trkpt>
      <trkpt lat="48.74414" lon="7.47276">
        <ele>168</ele>
        <time>2020-08-08T14:44:11Z</time>
      </trkpt>
      <trkpt lat="48.74416" lon="7.47267">
        <ele>168</ele>
        <time>2020-08-08T14:44:13Z</time>
      </trkpt>
      <trkpt lat="48.74419" lon="7.47256">
        <ele>168</ele>
        <time>2020-08-08T14:44:15Z</time>
      </trkpt>
      <trkpt lat="48.74422" lon="7.47247">
        <ele>169</ele>
        <time>2020-08-08T14:44:17Z</time>
      </trkpt>
      <trkpt lat="48.74425" lon="7.47236">
        <ele>169</ele>
        <time>2020-08-08T14:44:19Z</time>
      </trkpt>
      <trkpt lat="48.74427" lon="7.47226">
        <ele>169</ele>
        <time>2020-08-08T14:44:21Z</time>
      </trkpt>
      <trkpt lat="48.74431" lon="7.47217">
        <ele>170</ele>
        <time>2020-08-08T14:44:23Z</time>
      </trkpt>
      <trkpt lat="48.74433" lon="7.47207">
        <ele>170</ele>
        <time>2020-08-08T14:44:25Z</time>
      </trkpt>
      <trkpt lat="48.74436" lon="7.47196">
        <ele>170</ele>
        <time>2020-08-08T14:44:27Z</time>
      </trkpt>
      <trkpt lat="48.74439" lon="7.47186">
        <ele>171</ele>
        <time>2020-08-08T14:44:29Z</time>
      </trkpt>
      <trkpt lat="48.74442" lon="7.47176">
        <ele>171</ele>
        <time>2020-08-08T14:44:31Z</time>
      </trkpt>
      <trkpt lat="48.74445" lon="7.47166">
        <ele>171</ele>
        <time>2020-08-08T14:44:33Z</time>
      </trkpt>
      <trkpt lat="48.74448" lon="7.47155">
        <ele>172</ele>
        <time>2020-08-08T14:44:35Z</time>
      </trkpt>
      <trkpt lat="48.74451" lon="7.47145">
        <ele>172</ele>
        <time>2020-08-08T14:44:37Z</time>
      </trkpt>
      <trkpt lat="48.74455" lon="7.47134">
        <ele>172</ele>
        <time>2020-08-08T14:44:39Z</time>
      </trkpt>
      <trkpt lat="48.74458" lon="7.47124">
        <ele>172</ele>
        <time>2020-08-08T14:44:41Z</time>
      </trkpt>
      <trkpt lat="48.74461" lon="7.47112">
        <ele>172</ele>
        <time>2020-08-08T14:44:43Z</time>
      </trkpt>
      <trkpt lat="48.74464" lon="7.47101">
        <ele>172</ele>
        <time>2020-08-08T14:44:45Z</time>
      </trkpt>
      <trkpt lat="48.74468" lon="7.4709">
        <ele>172</ele>
        <time>2020-08-08T14:44:47Z</time>
      </trkpt>
      <trkpt lat="48.74471" lon="7.47079">
        <ele>173</ele>
        <time>2020-08-08T14:44:49Z</time>
      </trkpt>
      <trkpt lat="48.74475" lon="7.47068">
        <ele>173</ele>
        <time>2020-08-08T14:44:51Z</time>
      </trkpt>
      <trkpt lat="48.74478" lon="7.47058">
        <ele>173</ele>
        <time>2020-08-08T14:44:53Z</time>
      </trkpt>
      <trkpt lat="48.74481" lon="7.47048">
        <ele>173</ele>
        <time>2020-08-08T14:44:55Z</time>
      </trkpt>
      <trkpt lat="48.74484" lon="7.47037">
        <ele>173</ele>
        <time>2020-08-08T14:44:57Z</time>
      </trkpt>
      <trkpt lat="48.74487" lon="7.47026">
        <ele>173</ele>
        <time>2020-08-08T14:44:59Z</time>
      </trkpt>
      <trkpt lat="48.74491" lon="7.47016">
        <ele>173</ele>
        <time>2020-08-08T14:45:01Z</time>
      </trkpt>
      <trkpt lat="48.74493" lon="7.4701">
        <ele>173</ele>
        <time>2020-08-08T14:45:02Z</time>
      </trkpt>
      <trkpt lat="48.74498" lon="7.46999">
        <ele>173</ele>
        <time>2020-08-08T14:45:04Z</time>
      </trkpt>
      <trkpt lat="48.74502" lon="7.46987">
        <ele>172</ele>
        <time>2020-08-08T14:45:06Z</time>
      </trkpt>
      <trkpt lat="48.74505" lon="7.46976">
        <ele>173</ele>
        <time>2020-08-08T14:45:08Z</time>
      </trkpt>
      <trkpt lat="48.74509" lon="7.46964">
        <ele>172</ele>
        <time>2020-08-08T14:45:10Z</time>
      </trkpt>
      <trkpt lat="48.74513" lon="7.46952">
        <ele>172</ele>
        <time>2020-08-08T14:45:12Z</time>
      </trkpt>
      <trkpt lat="48.74515" lon="7.4694">
        <ele>172</ele>
        <time>2020-08-08T14:45:14Z</time>
      </trkpt>
      <trkpt lat="48.74517" lon="7.46933">
        <ele>172</ele>
        <time>2020-08-08T14:45:15Z</time>
      </trkpt>
      <trkpt lat="48.7452" lon="7.4692">
        <ele>172</ele>
        <time>2020-08-08T14:45:17Z</time>
      </trkpt>
      <trkpt lat="48.74523" lon="7.46914">
        <ele>172</ele>
        <time>2020-08-08T14:45:18Z</time>
      </trkpt>
      <trkpt lat="48.74528" lon="7.46904">
        <ele>172</ele>
        <time>2020-08-08T14:45:20Z</time>
      </trkpt>
      <trkpt lat="48.7453" lon="7.46898">
        <ele>172</ele>
        <time>2020-08-08T14:45:21Z</time>
      </trkpt>
      <trkpt lat="48.74535" lon="7.46886">
        <ele>171</ele>
        <time>2020-08-08T14:45:23Z</time>
      </trkpt>
      <trkpt lat="48.7454" lon="7.46874">
        <ele>171</ele>
        <time>2020-08-08T14:45:25Z</time>
      </trkpt>
      <trkpt lat="48.74543" lon="7.46864">
        <ele>171</ele>
        <time>2020-08-08T14:45:27Z</time>
      </trkpt>
      <trkpt lat="48.74548" lon="7.46852">
        <ele>170</ele>
        <time>2020-08-08T14:45:29Z</time>
      </trkpt>
      <trkpt lat="48.74551" lon="7.46841">
        <ele>170</ele>
        <time>2020-08-08T14:45:31Z</time>
      </trkpt>
      <trkpt lat="48.74555" lon="7.46832">
        <ele>171</ele>
        <time>2020-08-08T14:45:33Z</time>
      </trkpt>
      <trkpt lat="48.74558" lon="7.46825">
        <ele>171</ele>
        <time>2020-08-08T14:45:34Z</time>
      </trkpt>
      <trkpt lat="48.74561" lon="7.46814">
        <ele>171</ele>
        <time>2020-08-08T14:45:36Z</time>
      </trkpt>
      <trkpt lat="48.74565" lon="7.46804">
        <ele>171</ele>
        <time>2020-08-08T14:45:38Z</time>
      </trkpt>
      <trkpt lat="48.74567" lon="7.46798">
        <ele>171</ele>
        <time>2020-08-08T14:45:39Z</time>
      </trkpt>
      <trkpt lat="48.74572" lon="7.46787">
        <ele>171</ele>
        <time>2020-08-08T14:45:41Z</time>
      </trkpt>
      <trkpt lat="48.74574" lon="7.46781">
        <ele>171</ele>
        <time>2020-08-08T14:45:42Z</time>
      </trkpt>
      <trkpt lat="48.74578" lon="7.46771">
        <ele>170</ele>
        <time>2020-08-08T14:45:44Z</time>
      </trkpt>
      <trkpt lat="48.74582" lon="7.46761">
        <ele>170</ele>
        <time>2020-08-08T14:45:46Z</time>
      </trkpt>
      <trkpt lat="48.74586" lon="7.46752">
        <ele>170</ele>
        <time>2020-08-08T14:45:48Z</time>
      </trkpt>
      <trkpt lat="48.7459" lon="7.46741">
        <ele>170</ele>
        <time>2020-08-08T14:45:50Z</time>
      </trkpt>
      <trkpt lat="48.74595" lon="7.46733">
        <ele>170</ele>
        <time>2020-08-08T14:45:52Z</time>
      </trkpt>
      <trkpt lat="48.74598" lon="7.46727">
        <ele>170</ele>
        <time>2020-08-08T14:45:53Z</time>
      </trkpt>
      <trkpt lat="48.74604" lon="7.46717">
        <ele>170</ele>
        <time>2020-08-08T14:45:55Z</time>
      </trkpt>
      <trkpt lat="48.74609" lon="7.46706">
        <ele>170</ele>
        <time>2020-08-08T14:45:57Z</time>
      </trkpt>
      <trkpt lat="48.74612" lon="7.46701">
        <ele>170</ele>
        <time>2020-08-08T14:45:58Z</time>
      </trkpt>
      <trkpt lat="48.74617" lon="7.46689">
        <ele>170</ele>
        <time>2020-08-08T14:46:00Z</time>
      </trkpt>
      <trkpt lat="48.74622" lon="7.46678">
        <ele>169</ele>
        <time>2020-08-08T14:46:02Z</time>
      </trkpt>
      <trkpt lat="48.74626" lon="7.46667">
        <ele>169</ele>
        <time>2020-08-08T14:46:04Z</time>
      </trkpt>
      <trkpt lat="48.74631" lon="7.46658">
        <ele>169</ele>
        <time>2020-08-08T14:46:06Z</time>
      </trkpt>
      <trkpt lat="48.74635" lon="7.46647">
        <ele>169</ele>
        <time>2020-08-08T14:46:08Z</time>
      </trkpt>
      <trkpt lat="48.74641" lon="7.46638">
        <ele>169</ele>
        <time>2020-08-08T14:46:10Z</time>
      </trkpt>
      <trkpt lat="48.74643" lon="7.46632">
        <ele>169</ele>
        <time>2020-08-08T14:46:11Z</time>
      </trkpt>
      <trkpt lat="48.74649" lon="7.46623">
        <ele>169</ele>
        <time>2020-08-08T14:46:13Z</time>
      </trkpt>
      <trkpt lat="48.74654" lon="7.46613">
        <ele>169</ele>
        <time>2020-08-08T14:46:15Z</time>
      </trkpt>
      <trkpt lat="48.74656" lon="7.46607">
        <ele>169</ele>
        <time>2020-08-08T14:46:16Z</time>
      </trkpt>
      <trkpt lat="48.74662" lon="7.46598">
        <ele>169</ele>
        <time>2020-08-08T14:46:18Z</time>
      </trkpt>
      <trkpt lat="48.74664" lon="7.46592">
        <ele>169</ele>
        <time>2020-08-08T14:46:19Z</time>
      </trkpt>
      <trkpt lat="48.74671" lon="7.46585">
        <ele>169</ele>
        <time>2020-08-08T14:46:21Z</time>
      </trkpt>
      <trkpt lat="48.74674" lon="7.4658">
        <ele>170</ele>
        <time>2020-08-08T14:46:22Z</time>
      </trkpt>
      <trkpt lat="48.74679" lon="7.46572">
        <ele>170</ele>
        <time>2020-08-08T14:46:24Z</time>
      </trkpt>
      <trkpt lat="48.74685" lon="7.46561">
        <ele>170</ele>
        <time>2020-08-08T14:46:26Z</time>
      </trkpt>
      <trkpt lat="48.74692" lon="7.46554">
        <ele>170</ele>
        <time>2020-08-08T14:46:28Z</time>
      </trkpt>
      <trkpt lat="48.74698" lon="7.46545">
        <ele>170</ele>
        <time>2020-08-08T14:46:30Z</time>
      </trkpt>
      <trkpt lat="48.74702" lon="7.4654">
        <ele>170</ele>
        <time>2020-08-08T14:46:31Z</time>
      </trkpt>
      <trkpt lat="48.74704" lon="7.46534">
        <ele>170</ele>
        <time>2020-08-08T14:46:32Z</time>
      </trkpt>
      <trkpt lat="48.74709" lon="7.46525">
        <ele>170</ele>
        <time>2020-08-08T14:46:34Z</time>
      </trkpt>
      <trkpt lat="48.74715" lon="7.46513">
        <ele>170</ele>
        <time>2020-08-08T14:46:36Z</time>
      </trkpt>
      <trkpt lat="48.7472" lon="7.46504">
        <ele>170</ele>
        <time>2020-08-08T14:46:38Z</time>
      </trkpt>
      <trkpt lat="48.74723" lon="7.46493">
        <ele>170</ele>
        <time>2020-08-08T14:46:40Z</time>
      </trkpt>
      <trkpt lat="48.74727" lon="7.46483">
        <ele>171</ele>
        <time>2020-08-08T14:46:42Z</time>
      </trkpt>
      <trkpt lat="48.7473" lon="7.46473">
        <ele>172</ele>
        <time>2020-08-08T14:46:44Z</time>
      </trkpt>
      <trkpt lat="48.74733" lon="7.46464">
        <ele>172</ele>
        <time>2020-08-08T14:46:46Z</time>
      </trkpt>
      <trkpt lat="48.74737" lon="7.46455">
        <ele>172</ele>
        <time>2020-08-08T14:46:48Z</time>
      </trkpt>
      <trkpt lat="48.7474" lon="7.46445">
        <ele>172</ele>
        <time>2020-08-08T14:46:50Z</time>
      </trkpt>
      <trkpt lat="48.74741" lon="7.46434">
        <ele>171</ele>
        <time>2020-08-08T14:46:52Z</time>
      </trkpt>
      <trkpt lat="48.74743" lon="7.46423">
        <ele>171</ele>
        <time>2020-08-08T14:46:54Z</time>
      </trkpt>
      <trkpt lat="48.74747" lon="7.46414">
        <ele>171</ele>
        <time>2020-08-08T14:46:56Z</time>
      </trkpt>
      <trkpt lat="48.74749" lon="7.46405">
        <ele>172</ele>
        <time>2020-08-08T14:46:58Z</time>
      </trkpt>
      <trkpt lat="48.74749" lon="7.46395">
        <ele>173</ele>
        <time>2020-08-08T14:47:00Z</time>
      </trkpt>
      <trkpt lat="48.74748" lon="7.46385">
        <ele>173</ele>
        <time>2020-08-08T14:47:03Z</time>
      </trkpt>
      <trkpt lat="48.74749" lon="7.46377">
        <ele>174</ele>
        <time>2020-08-08T14:47:05Z</time>
      </trkpt>
      <trkpt lat="48.74752" lon="7.46371">
        <ele>174</ele>
        <time>2020-08-08T14:47:07Z</time>
      </trkpt>
      <trkpt lat="48.74756" lon="7.46366">
        <ele>174</ele>
        <time>2020-08-08T14:47:19Z</time>
      </trkpt>
      <trkpt lat="48.74761" lon="7.46363">
        <ele>174</ele>
        <time>2020-08-08T14:47:22Z</time>
      </trkpt>
      <trkpt lat="48.74765" lon="7.46356">
        <ele>173</ele>
        <time>2020-08-08T14:47:24Z</time>
      </trkpt>
      <trkpt lat="48.7477" lon="7.46346">
        <ele>173</ele>
        <time>2020-08-08T14:47:26Z</time>
      </trkpt>
      <trkpt lat="48.74773" lon="7.46341">
        <ele>172</ele>
        <time>2020-08-08T14:47:27Z</time>
      </trkpt>
      <trkpt lat="48.74778" lon="7.46335">
        <ele>172</ele>
        <time>2020-08-08T14:47:28Z</time>
      </trkpt>
      <trkpt lat="48.74782" lon="7.46332">
        <ele>172</ele>
        <time>2020-08-08T14:47:29Z</time>
      </trkpt>
      <trkpt lat="48.74788" lon="7.4633">
        <ele>171</ele>
        <time>2020-08-08T14:47:30Z</time>
      </trkpt>
      <trkpt lat="48.74793" lon="7.46327">
        <ele>171</ele>
        <time>2020-08-08T14:47:31Z</time>
      </trkpt>
      <trkpt lat="48.74799" lon="7.46322">
        <ele>171</ele>
        <time>2020-08-08T14:47:32Z</time>
      </trkpt>
      <trkpt lat="48.74803" lon="7.46318">
        <ele>171</ele>
        <time>2020-08-08T14:47:33Z</time>
      </trkpt>
      <trkpt lat="48.74807" lon="7.46313">
        <ele>171</ele>
        <time>2020-08-08T14:47:34Z</time>
      </trkpt>
      <trkpt lat="48.7481" lon="7.46305">
        <ele>170</ele>
        <time>2020-08-08T14:47:35Z</time>
      </trkpt>
      <trkpt lat="48.74812" lon="7.46297">
        <ele>170</ele>
        <time>2020-08-08T14:47:36Z</time>
      </trkpt>
      <trkpt lat="48.74814" lon="7.46288">
        <ele>171</ele>
        <time>2020-08-08T14:47:37Z</time>
      </trkpt>
      <trkpt lat="48.74816" lon="7.46281">
        <ele>171</ele>
        <time>2020-08-08T14:47:38Z</time>
      </trkpt>
      <trkpt lat="48.74817" lon="7.46274">
        <ele>171</ele>
        <time>2020-08-08T14:47:39Z</time>
      </trkpt>
      <trkpt lat="48.74817" lon="7.46265">
        <ele>171</ele>
        <time>2020-08-08T14:47:40Z</time>
      </trkpt>
      <trkpt lat="48.74818" lon="7.46257">
        <ele>171</ele>
        <time>2020-08-08T14:47:41Z</time>
      </trkpt>
      <trkpt lat="48.7482" lon="7.46251">
        <ele>171</ele>
        <time>2020-08-08T14:47:42Z</time>
      </trkpt>
      <trkpt lat="48.74822" lon="7.46244">
        <ele>171</ele>
        <time>2020-08-08T14:47:43Z</time>
      </trkpt>
      <trkpt lat="48.74823" lon="7.46231">
        <ele>171</ele>
        <time>2020-08-08T14:47:45Z</time>
      </trkpt>
      <trkpt lat="48.74823" lon="7.46219">
        <ele>171</ele>
        <time>2020-08-08T14:47:47Z</time>
      </trkpt>
      <trkpt lat="48.74825" lon="7.46208">
        <ele>171</ele>
        <time>2020-08-08T14:47:49Z</time>
      </trkpt>
      <trkpt lat="48.74826" lon="7.46195">
        <ele>172</ele>
        <time>2020-08-08T14:47:51Z</time>
      </trkpt>
      <trkpt lat="48.74826" lon="7.46188">
        <ele>172</ele>
        <time>2020-08-08T14:47:52Z</time>
      </trkpt>
      <trkpt lat="48.74826" lon="7.46181">
        <ele>172</ele>
        <time>2020-08-08T14:47:53Z</time>
      </trkpt>
      <trkpt lat="48.74827" lon="7.46172">
        <ele>172</ele>
        <time>2020-08-08T14:47:54Z</time>
      </trkpt>
      <trkpt lat="48.74827" lon="7.46165">
        <ele>172</ele>
        <time>2020-08-08T14:47:55Z</time>
      </trkpt>
      <trkpt lat="48.74828" lon="7.4615">
        <ele>172</ele>
        <time>2020-08-08T14:47:57Z</time>
      </trkpt>
      <trkpt lat="48.74827" lon="7.46142">
        <ele>172</ele>
        <time>2020-08-08T14:47:58Z</time>
      </trkpt>
      <trkpt lat="48.74826" lon="7.46135">
        <ele>172</ele>
        <time>2020-08-08T14:47:59Z</time>
      </trkpt>
      <trkpt lat="48.74826" lon="7.46126">
        <ele>172</ele>
        <time>2020-08-08T14:48:00Z</time>
      </trkpt>
      <trkpt lat="48.74826" lon="7.46119">
        <ele>173</ele>
        <time>2020-08-08T14:48:01Z</time>
      </trkpt>
      <trkpt lat="48.74827" lon="7.4611">
        <ele>173</ele>
        <time>2020-08-08T14:48:02Z</time>
      </trkpt>
      <trkpt lat="48.74826" lon="7.46102">
        <ele>173</ele>
        <time>2020-08-08T14:48:03Z</time>
      </trkpt>
      <trkpt lat="48.74826" lon="7.46095">
        <ele>173</ele>
        <time>2020-08-08T14:48:04Z</time>
      </trkpt>
      <trkpt lat="48.74825" lon="7.46086">
        <ele>174</ele>
        <time>2020-08-08T14:48:05Z</time>
      </trkpt>
      <trkpt lat="48.74826" lon="7.46079">
        <ele>174</ele>
        <time>2020-08-08T14:48:06Z</time>
      </trkpt>
      <trkpt lat="48.74825" lon="7.46069">
        <ele>174</ele>
        <time>2020-08-08T14:48:07Z</time>
      </trkpt>
      <trkpt lat="48.74825" lon="7.46061">
        <ele>174</ele>
        <time>2020-08-08T14:48:08Z</time>
      </trkpt>
      <trkpt lat="48.74826" lon="7.46051">
        <ele>174</ele>
        <time>2020-08-08T14:48:10Z</time>
      </trkpt>
      <trkpt lat="48.74826" lon="7.46037">
        <ele>174</ele>
        <time>2020-08-08T14:48:12Z</time>
      </trkpt>
      <trkpt lat="48.74825" lon="7.4603">
        <ele>173</ele>
        <time>2020-08-08T14:48:13Z</time>
      </trkpt>
      <trkpt lat="48.74824" lon="7.46022">
        <ele>173</ele>
        <time>2020-08-08T14:48:14Z</time>
      </trkpt>
      <trkpt lat="48.74825" lon="7.46009">
        <ele>173</ele>
        <time>2020-08-08T14:48:16Z</time>
      </trkpt>
      <trkpt lat="48.74825" lon="7.45994">
        <ele>173</ele>
        <time>2020-08-08T14:48:18Z</time>
      </trkpt>
      <trkpt lat="48.74825" lon="7.45986">
        <ele>173</ele>
        <time>2020-08-08T14:48:19Z</time>
      </trkpt>
      <trkpt lat="48.74825" lon="7.45978">
        <ele>173</ele>
        <time>2020-08-08T14:48:20Z</time>
      </trkpt>
      <trkpt lat="48.74823" lon="7.45964">
        <ele>173</ele>
        <time>2020-08-08T14:48:22Z</time>
      </trkpt>
      <trkpt lat="48.74823" lon="7.45956">
        <ele>173</ele>
        <time>2020-08-08T14:48:23Z</time>
      </trkpt>
      <trkpt lat="48.74823" lon="7.45948">
        <ele>173</ele>
        <time>2020-08-08T14:48:24Z</time>
      </trkpt>
      <trkpt lat="48.74822" lon="7.45935">
        <ele>173</ele>
        <time>2020-08-08T14:48:26Z</time>
      </trkpt>
      <trkpt lat="48.74823" lon="7.45922">
        <ele>173</ele>
        <time>2020-08-08T14:48:28Z</time>
      </trkpt>
      <trkpt lat="48.74823" lon="7.45915">
        <ele>173</ele>
        <time>2020-08-08T14:48:29Z</time>
      </trkpt>
      <trkpt lat="48.74822" lon="7.45902">
        <ele>173</ele>
        <time>2020-08-08T14:48:31Z</time>
      </trkpt>
      <trkpt lat="48.74822" lon="7.45892">
        <ele>174</ele>
        <time>2020-08-08T14:48:33Z</time>
      </trkpt>
      <trkpt lat="48.74823" lon="7.45882">
        <ele>174</ele>
        <time>2020-08-08T14:48:35Z</time>
      </trkpt>
      <trkpt lat="48.74824" lon="7.45875">
        <ele>173</ele>
        <time>2020-08-08T14:48:37Z</time>
      </trkpt>
      <trkpt lat="48.74825" lon="7.45865">
        <ele>173</ele>
        <time>2020-08-08T14:48:39Z</time>
      </trkpt>
      <trkpt lat="48.74825" lon="7.45856">
        <ele>173</ele>
        <time>2020-08-08T14:48:41Z</time>
      </trkpt>
      <trkpt lat="48.74826" lon="7.45846">
        <ele>173</ele>
        <time>2020-08-08T14:48:43Z</time>
      </trkpt>
      <trkpt lat="48.74826" lon="7.45837">
        <ele>173</ele>
        <time>2020-08-08T14:48:45Z</time>
      </trkpt>
      <trkpt lat="48.74827" lon="7.45826">
        <ele>173</ele>
        <time>2020-08-08T14:48:47Z</time>
      </trkpt>
      <trkpt lat="48.74828" lon="7.45816">
        <ele>173</ele>
        <time>2020-08-08T14:48:49Z</time>
      </trkpt>
      <trkpt lat="48.74828" lon="7.45805">
        <ele>173</ele>
        <time>2020-08-08T14:48:51Z</time>
      </trkpt>
      <trkpt lat="48.74828" lon="7.45794">
        <ele>172</ele>
        <time>2020-08-08T14:48:53Z</time>
      </trkpt>
      <trkpt lat="48.74825" lon="7.45783">
        <ele>173</ele>
        <time>2020-08-08T14:48:55Z</time>
      </trkpt>
      <trkpt lat="48.74825" lon="7.45773">
        <ele>172</ele>
        <time>2020-08-08T14:48:57Z</time>
      </trkpt>
      <trkpt lat="48.74825" lon="7.45761">
        <ele>172</ele>
        <time>2020-08-08T14:48:59Z</time>
      </trkpt>
      <trkpt lat="48.74826" lon="7.4575">
        <ele>172</ele>
        <time>2020-08-08T14:49:01Z</time>
      </trkpt>
      <trkpt lat="48.74826" lon="7.45737">
        <ele>172</ele>
        <time>2020-08-08T14:49:03Z</time>
      </trkpt>
      <trkpt lat="48.74828" lon="7.45725">
        <ele>171</ele>
        <time>2020-08-08T14:49:05Z</time>
      </trkpt>
      <trkpt lat="48.74828" lon="7.45714">
        <ele>171</ele>
        <time>2020-08-08T14:49:07Z</time>
      </trkpt>
      <trkpt lat="48.7483" lon="7.45704">
        <ele>171</ele>
        <time>2020-08-08T14:49:09Z</time>
      </trkpt>
      <trkpt lat="48.7483" lon="7.4569">
        <ele>171</ele>
        <time>2020-08-08T14:49:11Z</time>
      </trkpt>
      <trkpt lat="48.74831" lon="7.45676">
        <ele>171</ele>
        <time>2020-08-08T14:49:13Z</time>
      </trkpt>
      <trkpt lat="48.74832" lon="7.45669">
        <ele>171</ele>
        <time>2020-08-08T14:49:14Z</time>
      </trkpt>
      <trkpt lat="48.74833" lon="7.45662">
        <ele>171</ele>
        <time>2020-08-08T14:49:15Z</time>
      </trkpt>
      <trkpt lat="48.74834" lon="7.4565">
        <ele>171</ele>
        <time>2020-08-08T14:49:17Z</time>
      </trkpt>
      <trkpt lat="48.74836" lon="7.45637">
        <ele>171</ele>
        <time>2020-08-08T14:49:19Z</time>
      </trkpt>
      <trkpt lat="48.74838" lon="7.45625">
        <ele>171</ele>
        <time>2020-08-08T14:49:21Z</time>
      </trkpt>
      <trkpt lat="48.7484" lon="7.45615">
        <ele>171</ele>
        <time>2020-08-08T14:49:23Z</time>
      </trkpt>
      <trkpt lat="48.74843" lon="7.45604">
        <ele>171</ele>
        <time>2020-08-08T14:49:25Z</time>
      </trkpt>
      <trkpt lat="48.74846" lon="7.45592">
        <ele>171</ele>
        <time>2020-08-08T14:49:27Z</time>
      </trkpt>
      <trkpt lat="48.74849" lon="7.45581">
        <ele>171</ele>
        <time>2020-08-08T14:49:29Z</time>
      </trkpt>
      <trkpt lat="48.74852" lon="7.4557">
        <ele>171</ele>
        <time>2020-08-08T14:49:31Z</time>
      </trkpt>
      <trkpt lat="48.74855" lon="7.45559">
        <ele>171</ele>
        <time>2020-08-08T14:49:33Z</time>
      </trkpt>
      <trkpt lat="48.74858" lon="7.45549">
        <ele>172</ele>
        <time>2020-08-08T14:49:35Z</time>
      </trkpt>
      <trkpt lat="48.7486" lon="7.45538">
        <ele>172</ele>
        <time>2020-08-08T14:49:37Z</time>
      </trkpt>
      <trkpt lat="48.74864" lon="7.45528">
        <ele>172</ele>
        <time>2020-08-08T14:49:39Z</time>
      </trkpt>
      <trkpt lat="48.74865" lon="7.45521">
        <ele>172</ele>
        <time>2020-08-08T14:49:40Z</time>
      </trkpt>
      <trkpt lat="48.74869" lon="7.4551">
        <ele>172</ele>
        <time>2020-08-08T14:49:42Z</time>
      </trkpt>
      <trkpt lat="48.74872" lon="7.45499">
        <ele>172</ele>
        <time>2020-08-08T14:49:44Z</time>
      </trkpt>
      <trkpt lat="48.74878" lon="7.4549">
        <ele>172</ele>
        <time>2020-08-08T14:49:46Z</time>
      </trkpt>
      <trkpt lat="48.74883" lon="7.45479">
        <ele>171</ele>
        <time>2020-08-08T14:49:48Z</time>
      </trkpt>
      <trkpt lat="48.74885" lon="7.45473">
        <ele>171</ele>
        <time>2020-08-08T14:49:49Z</time>
      </trkpt>
      <trkpt lat="48.74889" lon="7.45462">
        <ele>171</ele>
        <time>2020-08-08T14:49:51Z</time>
      </trkpt>
      <trkpt lat="48.74894" lon="7.45451">
        <ele>171</ele>
        <time>2020-08-08T14:49:53Z</time>
      </trkpt>
      <trkpt lat="48.74898" lon="7.4544">
        <ele>171</ele>
        <time>2020-08-08T14:49:55Z</time>
      </trkpt>
      <trkpt lat="48.74903" lon="7.45431">
        <ele>171</ele>
        <time>2020-08-08T14:49:57Z</time>
      </trkpt>
      <trkpt lat="48.74908" lon="7.45422">
        <ele>171</ele>
        <time>2020-08-08T14:49:59Z</time>
      </trkpt>
      <trkpt lat="48.74911" lon="7.45416">
        <ele>171</ele>
        <time>2020-08-08T14:50:00Z</time>
      </trkpt>
      <trkpt lat="48.74917" lon="7.45407">
        <ele>171</ele>
        <time>2020-08-08T14:50:02Z</time>
      </trkpt>
      <trkpt lat="48.74923" lon="7.454">
        <ele>171</ele>
        <time>2020-08-08T14:50:04Z</time>
      </trkpt>
      <trkpt lat="48.74929" lon="7.45392">
        <ele>171</ele>
        <time>2020-08-08T14:50:06Z</time>
      </trkpt>
      <trkpt lat="48.74936" lon="7.45384">
        <ele>171</ele>
        <time>2020-08-08T14:50:08Z</time>
      </trkpt>
      <trkpt lat="48.74942" lon="7.45375">
        <ele>171</ele>
        <time>2020-08-08T14:50:10Z</time>
      </trkpt>
      <trkpt lat="48.74949" lon="7.45368">
        <ele>172</ele>
        <time>2020-08-08T14:50:12Z</time>
      </trkpt>
      <trkpt lat="48.74952" lon="7.45364">
        <ele>172</ele>
        <time>2020-08-08T14:50:13Z</time>
      </trkpt>
      <trkpt lat="48.74959" lon="7.45357">
        <ele>172</ele>
        <time>2020-08-08T14:50:15Z</time>
      </trkpt>
      <trkpt lat="48.74966" lon="7.4535">
        <ele>172</ele>
        <time>2020-08-08T14:50:17Z</time>
      </trkpt>
      <trkpt lat="48.74973" lon="7.45342">
        <ele>172</ele>
        <time>2020-08-08T14:50:19Z</time>
      </trkpt>
      <trkpt lat="48.74979" lon="7.45333">
        <ele>172</ele>
        <time>2020-08-08T14:50:21Z</time>
      </trkpt>
      <trkpt lat="48.74985" lon="7.45324">
        <ele>172</ele>
        <time>2020-08-08T14:50:23Z</time>
      </trkpt>
      <trkpt lat="48.74989" lon="7.4532">
        <ele>172</ele>
        <time>2020-08-08T14:50:24Z</time>
      </trkpt>
      <trkpt lat="48.74995" lon="7.45312">
        <ele>172</ele>
        <time>2020-08-08T14:50:26Z</time>
      </trkpt>
      <trkpt lat="48.75002" lon="7.45305">
        <ele>172</ele>
        <time>2020-08-08T14:50:28Z</time>
      </trkpt>
      <trkpt lat="48.75006" lon="7.45301">
        <ele>172</ele>
        <time>2020-08-08T14:50:29Z</time>
      </trkpt>
      <trkpt lat="48.75012" lon="7.45294">
        <ele>172</ele>
        <time>2020-08-08T14:50:31Z</time>
      </trkpt>
      <trkpt lat="48.75016" lon="7.4529">
        <ele>172</ele>
        <time>2020-08-08T14:50:32Z</time>
      </trkpt>
      <trkpt lat="48.75025" lon="7.45279">
        <ele>172</ele>
        <time>2020-08-08T14:50:35Z</time>
      </trkpt>
      <trkpt lat="48.75029" lon="7.45267">
        <ele>173</ele>
        <time>2020-08-08T14:50:37Z</time>
      </trkpt>
      <trkpt lat="48.75031" lon="7.4526">
        <ele>173</ele>
        <time>2020-08-08T14:50:38Z</time>
      </trkpt>
      <trkpt lat="48.75028" lon="7.45248">
        <ele>173</ele>
        <time>2020-08-08T14:50:40Z</time>
      </trkpt>
      <trkpt lat="48.75025" lon="7.45237">
        <ele>173</ele>
        <time>2020-08-08T14:50:42Z</time>
      </trkpt>
      <trkpt lat="48.75023" lon="7.4523">
        <ele>173</ele>
        <time>2020-08-08T14:50:44Z</time>
      </trkpt>
      <trkpt lat="48.75022" lon="7.45219">
        <ele>173</ele>
        <time>2020-08-08T14:50:46Z</time>
      </trkpt>
      <trkpt lat="48.75025" lon="7.45209">
        <ele>174</ele>
        <time>2020-08-08T14:50:48Z</time>
      </trkpt>
      <trkpt lat="48.75028" lon="7.45199">
        <ele>174</ele>
        <time>2020-08-08T14:50:50Z</time>
      </trkpt>
      <trkpt lat="48.7503" lon="7.45188">
        <ele>174</ele>
        <time>2020-08-08T14:50:52Z</time>
      </trkpt>
      <trkpt lat="48.75035" lon="7.45179">
        <ele>174</ele>
        <time>2020-08-08T14:50:54Z</time>
      </trkpt>
      <trkpt lat="48.75041" lon="7.45171">
        <ele>174</ele>
        <time>2020-08-08T14:50:56Z</time>
      </trkpt>
      <trkpt lat="48.75048" lon="7.45165">
        <ele>174</ele>
        <time>2020-08-08T14:50:58Z</time>
      </trkpt>
      <trkpt lat="48.75055" lon="7.45156">
        <ele>174</ele>
        <time>2020-08-08T14:51:00Z</time>
      </trkpt>
      <trkpt lat="48.75063" lon="7.45149">
        <ele>173</ele>
        <time>2020-08-08T14:51:02Z</time>
      </trkpt>
      <trkpt lat="48.75069" lon="7.4514">
        <ele>173</ele>
        <time>2020-08-08T14:51:04Z</time>
      </trkpt>
      <trkpt lat="48.75076" lon="7.45133">
        <ele>173</ele>
        <time>2020-08-08T14:51:06Z</time>
      </trkpt>
      <trkpt lat="48.75084" lon="7.45125">
        <ele>174</ele>
        <time>2020-08-08T14:51:08Z</time>
      </trkpt>
      <trkpt lat="48.75089" lon="7.45123">
        <ele>174</ele>
        <time>2020-08-08T14:51:09Z</time>
      </trkpt>
      <trkpt lat="48.75093" lon="7.4512">
        <ele>174</ele>
        <time>2020-08-08T14:51:10Z</time>
      </trkpt>
      <trkpt lat="48.75097" lon="7.45116">
        <ele>174</ele>
        <time>2020-08-08T14:51:11Z</time>
      </trkpt>
      <trkpt lat="48.75101" lon="7.45111">
        <ele>174</ele>
        <time>2020-08-08T14:51:12Z</time>
      </trkpt>
      <trkpt lat="48.75104" lon="7.45107">
        <ele>174</ele>
        <time>2020-08-08T14:51:13Z</time>
      </trkpt>
      <trkpt lat="48.75112" lon="7.45101">
        <ele>174</ele>
        <time>2020-08-08T14:51:15Z</time>
      </trkpt>
      <trkpt lat="48.75117" lon="7.45098">
        <ele>173</ele>
        <time>2020-08-08T14:51:16Z</time>
      </trkpt>
      <trkpt lat="48.75121" lon="7.45093">
        <ele>173</ele>
        <time>2020-08-08T14:51:17Z</time>
      </trkpt>
      <trkpt lat="48.75124" lon="7.45089">
        <ele>173</ele>
        <time>2020-08-08T14:51:18Z</time>
      </trkpt>
      <trkpt lat="48.75132" lon="7.45082">
        <ele>173</ele>
        <time>2020-08-08T14:51:20Z</time>
      </trkpt>
      <trkpt lat="48.75135" lon="7.45076">
        <ele>174</ele>
        <time>2020-08-08T14:51:21Z</time>
      </trkpt>
      <trkpt lat="48.75139" lon="7.45071">
        <ele>174</ele>
        <time>2020-08-08T14:51:22Z</time>
      </trkpt>
      <trkpt lat="48.75147" lon="7.45064">
        <ele>174</ele>
        <time>2020-08-08T14:51:24Z</time>
      </trkpt>
      <trkpt lat="48.75151" lon="7.45059">
        <ele>175</ele>
        <time>2020-08-08T14:51:25Z</time>
      </trkpt>
      <trkpt lat="48.75161" lon="7.45057">
        <ele>175</ele>
        <time>2020-08-08T14:51:27Z</time>
      </trkpt>
      <trkpt lat="48.75165" lon="7.45056">
        <ele>175</ele>
        <time>2020-08-08T14:51:28Z</time>
      </trkpt>
      <trkpt lat="48.75174" lon="7.45055">
        <ele>175</ele>
        <time>2020-08-08T14:51:30Z</time>
      </trkpt>
      <trkpt lat="48.75178" lon="7.45056">
        <ele>175</ele>
        <time>2020-08-08T14:51:31Z</time>
      </trkpt>
      <trkpt lat="48.75183" lon="7.45054">
        <ele>175</ele>
        <time>2020-08-08T14:51:32Z</time>
      </trkpt>
      <trkpt lat="48.75188" lon="7.45053">
        <ele>175</ele>
        <time>2020-08-08T14:51:33Z</time>
      </trkpt>
      <trkpt lat="48.75196" lon="7.45049">
        <ele>175</ele>
        <time>2020-08-08T14:51:35Z</time>
      </trkpt>
      <trkpt lat="48.75201" lon="7.45048">
        <ele>175</ele>
        <time>2020-08-08T14:51:36Z</time>
      </trkpt>
      <trkpt lat="48.75209" lon="7.45044">
        <ele>175</ele>
        <time>2020-08-08T14:51:38Z</time>
      </trkpt>
      <trkpt lat="48.75214" lon="7.45044">
        <ele>174</ele>
        <time>2020-08-08T14:51:39Z</time>
      </trkpt>
      <trkpt lat="48.75221" lon="7.45041">
        <ele>174</ele>
        <time>2020-08-08T14:51:41Z</time>
      </trkpt>
      <trkpt lat="48.75225" lon="7.45041">
        <ele>174</ele>
        <time>2020-08-08T14:51:42Z</time>
      </trkpt>
      <trkpt lat="48.7523" lon="7.4504">
        <ele>174</ele>
        <time>2020-08-08T14:51:43Z</time>
      </trkpt>
      <trkpt lat="48.75237" lon="7.45036">
        <ele>174</ele>
        <time>2020-08-08T14:51:45Z</time>
      </trkpt>
      <trkpt lat="48.75245" lon="7.45032">
        <ele>174</ele>
        <time>2020-08-08T14:51:47Z</time>
      </trkpt>
      <trkpt lat="48.75251" lon="7.45025">
        <ele>174</ele>
        <time>2020-08-08T14:51:49Z</time>
      </trkpt>
      <trkpt lat="48.75256" lon="7.45023">
        <ele>174</ele>
        <time>2020-08-08T14:51:50Z</time>
      </trkpt>
      <trkpt lat="48.75261" lon="7.4502">
        <ele>174</ele>
        <time>2020-08-08T14:51:51Z</time>
      </trkpt>
      <trkpt lat="48.75266" lon="7.45011">
        <ele>174</ele>
        <time>2020-08-08T14:51:53Z</time>
      </trkpt>
      <trkpt lat="48.7527" lon="7.45007">
        <ele>174</ele>
        <time>2020-08-08T14:51:54Z</time>
      </trkpt>
      <trkpt lat="48.75274" lon="7.45002">
        <ele>174</ele>
        <time>2020-08-08T14:51:55Z</time>
      </trkpt>
      <trkpt lat="48.75277" lon="7.44999">
        <ele>174</ele>
        <time>2020-08-08T14:51:56Z</time>
      </trkpt>
      <trkpt lat="48.75284" lon="7.44991">
        <ele>174</ele>
        <time>2020-08-08T14:51:58Z</time>
      </trkpt>
      <trkpt lat="48.75288" lon="7.44987">
        <ele>174</ele>
        <time>2020-08-08T14:51:59Z</time>
      </trkpt>
      <trkpt lat="48.75295" lon="7.44979">
        <ele>174</ele>
        <time>2020-08-08T14:52:01Z</time>
      </trkpt>
      <trkpt lat="48.753" lon="7.44975">
        <ele>174</ele>
        <time>2020-08-08T14:52:02Z</time>
      </trkpt>
      <trkpt lat="48.75307" lon="7.44966">
        <ele>174</ele>
        <time>2020-08-08T14:52:04Z</time>
      </trkpt>
      <trkpt lat="48.75311" lon="7.44962">
        <ele>174</ele>
        <time>2020-08-08T14:52:05Z</time>
      </trkpt>
      <trkpt lat="48.75319" lon="7.44954">
        <ele>173</ele>
        <time>2020-08-08T14:52:07Z</time>
      </trkpt>
      <trkpt lat="48.75327" lon="7.44947">
        <ele>173</ele>
        <time>2020-08-08T14:52:09Z</time>
      </trkpt>
      <trkpt lat="48.7533" lon="7.44942">
        <ele>174</ele>
        <time>2020-08-08T14:52:10Z</time>
      </trkpt>
      <trkpt lat="48.75337" lon="7.44935">
        <ele>174</ele>
        <time>2020-08-08T14:52:12Z</time>
      </trkpt>
      <trkpt lat="48.75341" lon="7.4493">
        <ele>174</ele>
        <time>2020-08-08T14:52:13Z</time>
      </trkpt>
      <trkpt lat="48.75345" lon="7.44925">
        <ele>174</ele>
        <time>2020-08-08T14:52:14Z</time>
      </trkpt>
      <trkpt lat="48.75353" lon="7.44917">
        <ele>174</ele>
        <time>2020-08-08T14:52:16Z</time>
      </trkpt>
      <trkpt lat="48.75359" lon="7.4491">
        <ele>174</ele>
        <time>2020-08-08T14:52:18Z</time>
      </trkpt>
      <trkpt lat="48.75363" lon="7.44905">
        <ele>174</ele>
        <time>2020-08-08T14:52:19Z</time>
      </trkpt>
      <trkpt lat="48.75367" lon="7.44901">
        <ele>174</ele>
        <time>2020-08-08T14:52:20Z</time>
      </trkpt>
      <trkpt lat="48.75374" lon="7.44895">
        <ele>174</ele>
        <time>2020-08-08T14:52:22Z</time>
      </trkpt>
      <trkpt lat="48.7538" lon="7.44885">
        <ele>173</ele>
        <time>2020-08-08T14:52:24Z</time>
      </trkpt>
      <trkpt lat="48.75385" lon="7.44882">
        <ele>173</ele>
        <time>2020-08-08T14:52:25Z</time>
      </trkpt>
      <trkpt lat="48.75388" lon="7.44877">
        <ele>173</ele>
        <time>2020-08-08T14:52:26Z</time>
      </trkpt>
      <trkpt lat="48.75396" lon="7.44869">
        <ele>173</ele>
        <time>2020-08-08T14:52:28Z</time>
      </trkpt>
      <trkpt lat="48.754" lon="7.44865">
        <ele>173</ele>
        <time>2020-08-08T14:52:29Z</time>
      </trkpt>
      <trkpt lat="48.75404" lon="7.4486">
        <ele>173</ele>
        <time>2020-08-08T14:52:30Z</time>
      </trkpt>
      <trkpt lat="48.75412" lon="7.44851">
        <ele>173</ele>
        <time>2020-08-08T14:52:32Z</time>
      </trkpt>
      <trkpt lat="48.75416" lon="7.44846">
        <ele>173</ele>
        <time>2020-08-08T14:52:33Z</time>
      </trkpt>
      <trkpt lat="48.75421" lon="7.44843">
        <ele>173</ele>
        <time>2020-08-08T14:52:34Z</time>
      </trkpt>
      <trkpt lat="48.75425" lon="7.44839">
        <ele>173</ele>
        <time>2020-08-08T14:52:35Z</time>
      </trkpt>
      <trkpt lat="48.75429" lon="7.44835">
        <ele>173</ele>
        <time>2020-08-08T14:52:36Z</time>
      </trkpt>
      <trkpt lat="48.75435" lon="7.4483">
        <ele>173</ele>
        <time>2020-08-08T14:52:37Z</time>
      </trkpt>
      <trkpt lat="48.75439" lon="7.44825">
        <ele>174</ele>
        <time>2020-08-08T14:52:38Z</time>
      </trkpt>
      <trkpt lat="48.75444" lon="7.44823">
        <ele>174</ele>
        <time>2020-08-08T14:52:39Z</time>
      </trkpt>
      <trkpt lat="48.75451" lon="7.44818">
        <ele>174</ele>
        <time>2020-08-08T14:52:41Z</time>
      </trkpt>
      <trkpt lat="48.75458" lon="7.44812">
        <ele>174</ele>
        <time>2020-08-08T14:52:43Z</time>
      </trkpt>
      <trkpt lat="48.75462" lon="7.4481">
        <ele>174</ele>
        <time>2020-08-08T14:52:44Z</time>
      </trkpt>
      <trkpt lat="48.75475" lon="7.448">
        <ele>173</ele>
        <time>2020-08-08T14:52:47Z</time>
      </trkpt>
      <trkpt lat="48.7548" lon="7.44797">
        <ele>173</ele>
        <time>2020-08-08T14:52:48Z</time>
      </trkpt>
      <trkpt lat="48.75485" lon="7.44795">
        <ele>173</ele>
        <time>2020-08-08T14:52:49Z</time>
      </trkpt>
      <trkpt lat="48.75489" lon="7.44793">
        <ele>173</ele>
        <time>2020-08-08T14:52:50Z</time>
      </trkpt>
      <trkpt lat="48.75497" lon="7.44787">
        <ele>173</ele>
        <time>2020-08-08T14:52:52Z</time>
      </trkpt>
      <trkpt lat="48.75506" lon="7.44782">
        <ele>174</ele>
        <time>2020-08-08T14:52:54Z</time>
      </trkpt>
      <trkpt lat="48.7551" lon="7.44778">
        <ele>174</ele>
        <time>2020-08-08T14:52:55Z</time>
      </trkpt>
      <trkpt lat="48.75514" lon="7.44775">
        <ele>174</ele>
        <time>2020-08-08T14:52:56Z</time>
      </trkpt>
      <trkpt lat="48.75519" lon="7.44772">
        <ele>174</ele>
        <time>2020-08-08T14:52:57Z</time>
      </trkpt>
      <trkpt lat="48.75524" lon="7.4477">
        <ele>174</ele>
        <time>2020-08-08T14:52:58Z</time>
      </trkpt>
      <trkpt lat="48.75529" lon="7.44768">
        <ele>174</ele>
        <time>2020-08-08T14:52:59Z</time>
      </trkpt>
      <trkpt lat="48.75534" lon="7.44765">
        <ele>174</ele>
        <time>2020-08-08T14:53:00Z</time>
      </trkpt>
      <trkpt lat="48.75538" lon="7.44761">
        <ele>174</ele>
        <time>2020-08-08T14:53:01Z</time>
      </trkpt>
      <trkpt lat="48.75543" lon="7.44758">
        <ele>175</ele>
        <time>2020-08-08T14:53:02Z</time>
      </trkpt>
      <trkpt lat="48.75548" lon="7.44756">
        <ele>175</ele>
        <time>2020-08-08T14:53:03Z</time>
      </trkpt>
      <trkpt lat="48.75552" lon="7.44753">
        <ele>175</ele>
        <time>2020-08-08T14:53:04Z</time>
      </trkpt>
      <trkpt lat="48.75561" lon="7.44749">
        <ele>175</ele>
        <time>2020-08-08T14:53:06Z</time>
      </trkpt>
      <trkpt lat="48.75567" lon="7.44747">
        <ele>175</ele>
        <time>2020-08-08T14:53:07Z</time>
      </trkpt>
      <trkpt lat="48.75573" lon="7.44747">
        <ele>175</ele>
        <time>2020-08-08T14:53:08Z</time>
      </trkpt>
      <trkpt lat="48.75581" lon="7.44742">
        <ele>175</ele>
        <time>2020-08-08T14:53:10Z</time>
      </trkpt>
      <trkpt lat="48.7559" lon="7.44739">
        <ele>175</ele>
        <time>2020-08-08T14:53:12Z</time>
      </trkpt>
      <trkpt lat="48.75598" lon="7.44732">
        <ele>175</ele>
        <time>2020-08-08T14:53:14Z</time>
      </trkpt>
      <trkpt lat="48.75605" lon="7.44727">
        <ele>175</ele>
        <time>2020-08-08T14:53:16Z</time>
      </trkpt>
      <trkpt lat="48.7561" lon="7.44727">
        <ele>175</ele>
        <time>2020-08-08T14:53:17Z</time>
      </trkpt>
      <trkpt lat="48.7562" lon="7.44723">
        <ele>174</ele>
        <time>2020-08-08T14:53:19Z</time>
      </trkpt>
      <trkpt lat="48.75625" lon="7.44722">
        <ele>174</ele>
        <time>2020-08-08T14:53:20Z</time>
      </trkpt>
      <trkpt lat="48.75634" lon="7.44719">
        <ele>174</ele>
        <time>2020-08-08T14:53:22Z</time>
      </trkpt>
      <trkpt lat="48.75639" lon="7.44717">
        <ele>174</ele>
        <time>2020-08-08T14:53:23Z</time>
      </trkpt>
      <trkpt lat="48.75647" lon="7.44712">
        <ele>174</ele>
        <time>2020-08-08T14:53:25Z</time>
      </trkpt>
      <trkpt lat="48.75654" lon="7.44707">
        <ele>174</ele>
        <time>2020-08-08T14:53:27Z</time>
      </trkpt>
      <trkpt lat="48.7566" lon="7.44706">
        <ele>174</ele>
        <time>2020-08-08T14:53:28Z</time>
      </trkpt>
      <trkpt lat="48.75669" lon="7.44701">
        <ele>174</ele>
        <time>2020-08-08T14:53:30Z</time>
      </trkpt>
      <trkpt lat="48.75673" lon="7.447">
        <ele>174</ele>
        <time>2020-08-08T14:53:31Z</time>
      </trkpt>
      <trkpt lat="48.75679" lon="7.44698">
        <ele>174</ele>
        <time>2020-08-08T14:53:32Z</time>
      </trkpt>
      <trkpt lat="48.75683" lon="7.44695">
        <ele>174</ele>
        <time>2020-08-08T14:53:33Z</time>
      </trkpt>
      <trkpt lat="48.75691" lon="7.44689">
        <ele>175</ele>
        <time>2020-08-08T14:53:35Z</time>
      </trkpt>
      <trkpt lat="48.75697" lon="7.44682">
        <ele>175</ele>
        <time>2020-08-08T14:53:37Z</time>
      </trkpt>
      <trkpt lat="48.75702" lon="7.44681">
        <ele>175</ele>
        <time>2020-08-08T14:53:38Z</time>
      </trkpt>
      <trkpt lat="48.75706" lon="7.44677">
        <ele>175</ele>
        <time>2020-08-08T14:53:39Z</time>
      </trkpt>
      <trkpt lat="48.75711" lon="7.44674">
        <ele>175</ele>
        <time>2020-08-08T14:53:40Z</time>
      </trkpt>
      <trkpt lat="48.75715" lon="7.44672">
        <ele>175</ele>
        <time>2020-08-08T14:53:41Z</time>
      </trkpt>
      <trkpt lat="48.75723" lon="7.44665">
        <ele>175</ele>
        <time>2020-08-08T14:53:43Z</time>
      </trkpt>
      <trkpt lat="48.75732" lon="7.44661">
        <ele>174</ele>
        <time>2020-08-08T14:53:45Z</time>
      </trkpt>
      <trkpt lat="48.75736" lon="7.44658">
        <ele>174</ele>
        <time>2020-08-08T14:53:46Z</time>
      </trkpt>
      <trkpt lat="48.75744" lon="7.44653">
        <ele>174</ele>
        <time>2020-08-08T14:53:48Z</time>
      </trkpt>
      <trkpt lat="48.75751" lon="7.44646">
        <ele>174</ele>
        <time>2020-08-08T14:53:50Z</time>
      </trkpt>
      <trkpt lat="48.75758" lon="7.4464">
        <ele>175</ele>
        <time>2020-08-08T14:53:52Z</time>
      </trkpt>
      <trkpt lat="48.75763" lon="7.44636">
        <ele>175</ele>
        <time>2020-08-08T14:53:53Z</time>
      </trkpt>
      <trkpt lat="48.75767" lon="7.44633">
        <ele>175</ele>
        <time>2020-08-08T14:53:54Z</time>
      </trkpt>
      <trkpt lat="48.75774" lon="7.44625">
        <ele>175</ele>
        <time>2020-08-08T14:53:56Z</time>
      </trkpt>
      <trkpt lat="48.75779" lon="7.44624">
        <ele>175</ele>
        <time>2020-08-08T14:53:57Z</time>
      </trkpt>
      <trkpt lat="48.75784" lon="7.44623">
        <ele>175</ele>
        <time>2020-08-08T14:53:58Z</time>
      </trkpt>
      <trkpt lat="48.75792" lon="7.44617">
        <ele>175</ele>
        <time>2020-08-08T14:54:00Z</time>
      </trkpt>
      <trkpt lat="48.75797" lon="7.44615">
        <ele>176</ele>
        <time>2020-08-08T14:54:01Z</time>
      </trkpt>
      <trkpt lat="48.75802" lon="7.44607">
        <ele>175</ele>
        <time>2020-08-08T14:54:03Z</time>
      </trkpt>
      <trkpt lat="48.75808" lon="7.44599">
        <ele>175</ele>
        <time>2020-08-08T14:54:05Z</time>
      </trkpt>
      <trkpt lat="48.75813" lon="7.44594">
        <ele>174</ele>
        <time>2020-08-08T14:54:06Z</time>
      </trkpt>
      <trkpt lat="48.7582" lon="7.44587">
        <ele>174</ele>
        <time>2020-08-08T14:54:08Z</time>
      </trkpt>
      <trkpt lat="48.75825" lon="7.44584">
        <ele>174</ele>
        <time>2020-08-08T14:54:09Z</time>
      </trkpt>
      <trkpt lat="48.75828" lon="7.44579">
        <ele>174</ele>
        <time>2020-08-08T14:54:10Z</time>
      </trkpt>
      <trkpt lat="48.75836" lon="7.4457">
        <ele>173</ele>
        <time>2020-08-08T14:54:12Z</time>
      </trkpt>
      <trkpt lat="48.75842" lon="7.44562">
        <ele>173</ele>
        <time>2020-08-08T14:54:14Z</time>
      </trkpt>
      <trkpt lat="48.75849" lon="7.44553">
        <ele>173</ele>
        <time>2020-08-08T14:54:16Z</time>
      </trkpt>
      <trkpt lat="48.75854" lon="7.44543">
        <ele>173</ele>
        <time>2020-08-08T14:54:18Z</time>
      </trkpt>
      <trkpt lat="48.75859" lon="7.44542">
        <ele>173</ele>
        <time>2020-08-08T14:54:19Z</time>
      </trkpt>
      <trkpt lat="48.75862" lon="7.44537">
        <ele>173</ele>
        <time>2020-08-08T14:54:20Z</time>
      </trkpt>
      <trkpt lat="48.75867" lon="7.44525">
        <ele>173</ele>
        <time>2020-08-08T14:54:22Z</time>
      </trkpt>
      <trkpt lat="48.75873" lon="7.44515">
        <ele>173</ele>
        <time>2020-08-08T14:54:24Z</time>
      </trkpt>
      <trkpt lat="48.75876" lon="7.44508">
        <ele>173</ele>
        <time>2020-08-08T14:54:25Z</time>
      </trkpt>
      <trkpt lat="48.75879" lon="7.44503">
        <ele>173</ele>
        <time>2020-08-08T14:54:26Z</time>
      </trkpt>
      <trkpt lat="48.75885" lon="7.44496">
        <ele>173</ele>
        <time>2020-08-08T14:54:28Z</time>
      </trkpt>
      <trkpt lat="48.75891" lon="7.44484">
        <ele>173</ele>
        <time>2020-08-08T14:54:30Z</time>
      </trkpt>
      <trkpt lat="48.75893" lon="7.44478">
        <ele>173</ele>
        <time>2020-08-08T14:54:31Z</time>
      </trkpt>
      <trkpt lat="48.75895" lon="7.44472">
        <ele>173</ele>
        <time>2020-08-08T14:54:32Z</time>
      </trkpt>
      <trkpt lat="48.75898" lon="7.44465">
        <ele>173</ele>
        <time>2020-08-08T14:54:33Z</time>
      </trkpt>
      <trkpt lat="48.759" lon="7.44458">
        <ele>173</ele>
        <time>2020-08-08T14:54:34Z</time>
      </trkpt>
      <trkpt lat="48.75902" lon="7.44451">
        <ele>174</ele>
        <time>2020-08-08T14:54:35Z</time>
      </trkpt>
      <trkpt lat="48.75904" lon="7.44444">
        <ele>174</ele>
        <time>2020-08-08T14:54:36Z</time>
      </trkpt>
      <trkpt lat="48.75906" lon="7.44438">
        <ele>174</ele>
        <time>2020-08-08T14:54:37Z</time>
      </trkpt>
      <trkpt lat="48.7591" lon="7.44426">
        <ele>173</ele>
        <time>2020-08-08T14:54:39Z</time>
      </trkpt>
      <trkpt lat="48.75915" lon="7.44414">
        <ele>173</ele>
        <time>2020-08-08T14:54:41Z</time>
      </trkpt>
      <trkpt lat="48.75916" lon="7.44407">
        <ele>173</ele>
        <time>2020-08-08T14:54:42Z</time>
      </trkpt>
      <trkpt lat="48.75919" lon="7.44401">
        <ele>173</ele>
        <time>2020-08-08T14:54:43Z</time>
      </trkpt>
      <trkpt lat="48.75922" lon="7.44394">
        <ele>173</ele>
        <time>2020-08-08T14:54:44Z</time>
      </trkpt>
      <trkpt lat="48.75924" lon="7.44388">
        <ele>173</ele>
        <time>2020-08-08T14:54:45Z</time>
      </trkpt>
      <trkpt lat="48.75927" lon="7.4438">
        <ele>173</ele>
        <time>2020-08-08T14:54:46Z</time>
      </trkpt>
      <trkpt lat="48.75929" lon="7.44374">
        <ele>173</ele>
        <time>2020-08-08T14:54:47Z</time>
      </trkpt>
      <trkpt lat="48.75932" lon="7.44361">
        <ele>172</ele>
        <time>2020-08-08T14:54:49Z</time>
      </trkpt>
      <trkpt lat="48.75935" lon="7.44353">
        <ele>172</ele>
        <time>2020-08-08T14:54:50Z</time>
      </trkpt>
      <trkpt lat="48.75937" lon="7.44346">
        <ele>172</ele>
        <time>2020-08-08T14:54:51Z</time>
      </trkpt>
      <trkpt lat="48.75942" lon="7.44345">
        <ele>172</ele>
        <time>2020-08-08T14:54:52Z</time>
      </trkpt>
      <trkpt lat="48.75944" lon="7.44338">
        <ele>172</ele>
        <time>2020-08-08T14:54:53Z</time>
      </trkpt>
      <trkpt lat="48.75946" lon="7.4433">
        <ele>172</ele>
        <time>2020-08-08T14:54:54Z</time>
      </trkpt>
      <trkpt lat="48.7595" lon="7.44327">
        <ele>172</ele>
        <time>2020-08-08T14:54:55Z</time>
      </trkpt>
      <trkpt lat="48.75953" lon="7.4432">
        <ele>172</ele>
        <time>2020-08-08T14:54:56Z</time>
      </trkpt>
      <trkpt lat="48.75955" lon="7.44314">
        <ele>172</ele>
        <time>2020-08-08T14:54:57Z</time>
      </trkpt>
      <trkpt lat="48.75957" lon="7.44306">
        <ele>172</ele>
        <time>2020-08-08T14:54:58Z</time>
      </trkpt>
      <trkpt lat="48.75959" lon="7.44299">
        <ele>172</ele>
        <time>2020-08-08T14:54:59Z</time>
      </trkpt>
      <trkpt lat="48.75961" lon="7.44292">
        <ele>172</ele>
        <time>2020-08-08T14:55:00Z</time>
      </trkpt>
      <trkpt lat="48.75963" lon="7.44285">
        <ele>172</ele>
        <time>2020-08-08T14:55:01Z</time>
      </trkpt>
      <trkpt lat="48.75966" lon="7.4428">
        <ele>172</ele>
        <time>2020-08-08T14:55:02Z</time>
      </trkpt>
      <trkpt lat="48.75968" lon="7.44273">
        <ele>172</ele>
        <time>2020-08-08T14:55:03Z</time>
      </trkpt>
      <trkpt lat="48.75971" lon="7.44266">
        <ele>172</ele>
        <time>2020-08-08T14:55:04Z</time>
      </trkpt>
      <trkpt lat="48.75974" lon="7.44253">
        <ele>172</ele>
        <time>2020-08-08T14:55:06Z</time>
      </trkpt>
      <trkpt lat="48.7598" lon="7.44244">
        <ele>172</ele>
        <time>2020-08-08T14:55:08Z</time>
      </trkpt>
      <trkpt lat="48.75983" lon="7.44237">
        <ele>172</ele>
        <time>2020-08-08T14:55:09Z</time>
      </trkpt>
      <trkpt lat="48.75985" lon="7.4423">
        <ele>172</ele>
        <time>2020-08-08T14:55:10Z</time>
      </trkpt>
      <trkpt lat="48.75987" lon="7.44224">
        <ele>172</ele>
        <time>2020-08-08T14:55:11Z</time>
      </trkpt>
      <trkpt lat="48.7599" lon="7.44218">
        <ele>172</ele>
        <time>2020-08-08T14:55:12Z</time>
      </trkpt>
      <trkpt lat="48.75991" lon="7.44212">
        <ele>172</ele>
        <time>2020-08-08T14:55:13Z</time>
      </trkpt>
      <trkpt lat="48.75993" lon="7.44205">
        <ele>172</ele>
        <time>2020-08-08T14:55:14Z</time>
      </trkpt>
      <trkpt lat="48.75995" lon="7.44197">
        <ele>172</ele>
        <time>2020-08-08T14:55:15Z</time>
      </trkpt>
      <trkpt lat="48.75998" lon="7.4419">
        <ele>172</ele>
        <time>2020-08-08T14:55:16Z</time>
      </trkpt>
      <trkpt lat="48.76001" lon="7.44177">
        <ele>172</ele>
        <time>2020-08-08T14:55:18Z</time>
      </trkpt>
      <trkpt lat="48.76003" lon="7.4417">
        <ele>172</ele>
        <time>2020-08-08T14:55:19Z</time>
      </trkpt>
      <trkpt lat="48.76005" lon="7.44163">
        <ele>172</ele>
        <time>2020-08-08T14:55:20Z</time>
      </trkpt>
      <trkpt lat="48.76008" lon="7.44157">
        <ele>172</ele>
        <time>2020-08-08T14:55:21Z</time>
      </trkpt>
      <trkpt lat="48.76009" lon="7.44149">
        <ele>172</ele>
        <time>2020-08-08T14:55:22Z</time>
      </trkpt>
      <trkpt lat="48.76014" lon="7.44138">
        <ele>173</ele>
        <time>2020-08-08T14:55:24Z</time>
      </trkpt>
      <trkpt lat="48.76019" lon="7.44127">
        <ele>173</ele>
        <time>2020-08-08T14:55:26Z</time>
      </trkpt>
      <trkpt lat="48.7602" lon="7.4412">
        <ele>173</ele>
        <time>2020-08-08T14:55:27Z</time>
      </trkpt>
      <trkpt lat="48.76022" lon="7.44113">
        <ele>173</ele>
        <time>2020-08-08T14:55:28Z</time>
      </trkpt>
      <trkpt lat="48.76025" lon="7.44107">
        <ele>172</ele>
        <time>2020-08-08T14:55:29Z</time>
      </trkpt>
      <trkpt lat="48.76029" lon="7.44094">
        <ele>172</ele>
        <time>2020-08-08T14:55:31Z</time>
      </trkpt>
      <trkpt lat="48.7603" lon="7.44087">
        <ele>172</ele>
        <time>2020-08-08T14:55:32Z</time>
      </trkpt>
      <trkpt lat="48.76035" lon="7.44077">
        <ele>172</ele>
        <time>2020-08-08T14:55:34Z</time>
      </trkpt>
      <trkpt lat="48.76039" lon="7.44066">
        <ele>172</ele>
        <time>2020-08-08T14:55:36Z</time>
      </trkpt>
      <trkpt lat="48.76042" lon="7.4406">
        <ele>172</ele>
        <time>2020-08-08T14:55:37Z</time>
      </trkpt>
      <trkpt lat="48.76049" lon="7.4405">
        <ele>172</ele>
        <time>2020-08-08T14:55:39Z</time>
      </trkpt>
      <trkpt lat="48.76051" lon="7.44044">
        <ele>172</ele>
        <time>2020-08-08T14:55:40Z</time>
      </trkpt>
      <trkpt lat="48.76053" lon="7.44037">
        <ele>172</ele>
        <time>2020-08-08T14:55:41Z</time>
      </trkpt>
      <trkpt lat="48.76056" lon="7.4403">
        <ele>172</ele>
        <time>2020-08-08T14:55:42Z</time>
      </trkpt>
      <trkpt lat="48.76059" lon="7.44022">
        <ele>173</ele>
        <time>2020-08-08T14:55:43Z</time>
      </trkpt>
      <trkpt lat="48.76063" lon="7.44011">
        <ele>173</ele>
        <time>2020-08-08T14:55:45Z</time>
      </trkpt>
      <trkpt lat="48.76065" lon="7.44003">
        <ele>173</ele>
        <time>2020-08-08T14:55:46Z</time>
      </trkpt>
      <trkpt lat="48.76069" lon="7.43998">
        <ele>173</ele>
        <time>2020-08-08T14:55:47Z</time>
      </trkpt>
      <trkpt lat="48.76073" lon="7.43986">
        <ele>173</ele>
        <time>2020-08-08T14:55:49Z</time>
      </trkpt>
      <trkpt lat="48.76079" lon="7.43977">
        <ele>173</ele>
        <time>2020-08-08T14:55:51Z</time>
      </trkpt>
      <trkpt lat="48.76083" lon="7.43964">
        <ele>173</ele>
        <time>2020-08-08T14:55:53Z</time>
      </trkpt>
      <trkpt lat="48.76088" lon="7.4396">
        <ele>173</ele>
        <time>2020-08-08T14:55:54Z</time>
      </trkpt>
      <trkpt lat="48.7609" lon="7.43953">
        <ele>173</ele>
        <time>2020-08-08T14:55:55Z</time>
      </trkpt>
      <trkpt lat="48.76093" lon="7.4394">
        <ele>173</ele>
        <time>2020-08-08T14:55:57Z</time>
      </trkpt>
      <trkpt lat="48.76098" lon="7.43927">
        <ele>172</ele>
        <time>2020-08-08T14:55:59Z</time>
      </trkpt>
      <trkpt lat="48.761" lon="7.43919">
        <ele>172</ele>
        <time>2020-08-08T14:56:00Z</time>
      </trkpt>
      <trkpt lat="48.76104" lon="7.43914">
        <ele>172</ele>
        <time>2020-08-08T14:56:01Z</time>
      </trkpt>
      <trkpt lat="48.76108" lon="7.43903">
        <ele>172</ele>
        <time>2020-08-08T14:56:03Z</time>
      </trkpt>
      <trkpt lat="48.7611" lon="7.43897">
        <ele>172</ele>
        <time>2020-08-08T14:56:04Z</time>
      </trkpt>
      <trkpt lat="48.76111" lon="7.43888">
        <ele>173</ele>
        <time>2020-08-08T14:56:05Z</time>
      </trkpt>
      <trkpt lat="48.76115" lon="7.43876">
        <ele>172</ele>
        <time>2020-08-08T14:56:07Z</time>
      </trkpt>
      <trkpt lat="48.76118" lon="7.43869">
        <ele>172</ele>
        <time>2020-08-08T14:56:08Z</time>
      </trkpt>
      <trkpt lat="48.7612" lon="7.43863">
        <ele>172</ele>
        <time>2020-08-08T14:56:09Z</time>
      </trkpt>
      <trkpt lat="48.76122" lon="7.43856">
        <ele>172</ele>
        <time>2020-08-08T14:56:10Z</time>
      </trkpt>
      <trkpt lat="48.76124" lon="7.43849">
        <ele>172</ele>
        <time>2020-08-08T14:56:11Z</time>
      </trkpt>
      <trkpt lat="48.76127" lon="7.43843">
        <ele>173</ele>
        <time>2020-08-08T14:56:12Z</time>
      </trkpt>
      <trkpt lat="48.76133" lon="7.43826">
        <ele>172</ele>
        <time>2020-08-08T14:56:15Z</time>
      </trkpt>
      <trkpt lat="48.76135" lon="7.43819">
        <ele>172</ele>
        <time>2020-08-08T14:56:16Z</time>
      </trkpt>
      <trkpt lat="48.76138" lon="7.43812">
        <ele>172</ele>
        <time>2020-08-08T14:56:17Z</time>
      </trkpt>
      <trkpt lat="48.76139" lon="7.43805">
        <ele>172</ele>
        <time>2020-08-08T14:56:18Z</time>
      </trkpt>
      <trkpt lat="48.76141" lon="7.43798">
        <ele>172</ele>
        <time>2020-08-08T14:56:19Z</time>
      </trkpt>
      <trkpt lat="48.76143" lon="7.43791">
        <ele>172</ele>
        <time>2020-08-08T14:56:20Z</time>
      </trkpt>
      <trkpt lat="48.76148" lon="7.43779">
        <ele>172</ele>
        <time>2020-08-08T14:56:22Z</time>
      </trkpt>
      <trkpt lat="48.76153" lon="7.43768">
        <ele>172</ele>
        <time>2020-08-08T14:56:24Z</time>
      </trkpt>
      <trkpt lat="48.76157" lon="7.43758">
        <ele>172</ele>
        <time>2020-08-08T14:56:26Z</time>
      </trkpt>
      <trkpt lat="48.7616" lon="7.43747">
        <ele>172</ele>
        <time>2020-08-08T14:56:28Z</time>
      </trkpt>
      <trkpt lat="48.76165" lon="7.43737">
        <ele>172</ele>
        <time>2020-08-08T14:56:30Z</time>
      </trkpt>
      <trkpt lat="48.7617" lon="7.43727">
        <ele>172</ele>
        <time>2020-08-08T14:56:32Z</time>
      </trkpt>
      <trkpt lat="48.76175" lon="7.43718">
        <ele>173</ele>
        <time>2020-08-08T14:56:34Z</time>
      </trkpt>
      <trkpt lat="48.76179" lon="7.43707">
        <ele>173</ele>
        <time>2020-08-08T14:56:36Z</time>
      </trkpt>
      <trkpt lat="48.76181" lon="7.43701">
        <ele>173</ele>
        <time>2020-08-08T14:56:37Z</time>
      </trkpt>
      <trkpt lat="48.76185" lon="7.43695">
        <ele>173</ele>
        <time>2020-08-08T14:56:38Z</time>
      </trkpt>
      <trkpt lat="48.76188" lon="7.43685">
        <ele>173</ele>
        <time>2020-08-08T14:56:40Z</time>
      </trkpt>
      <trkpt lat="48.7619" lon="7.43673">
        <ele>173</ele>
        <time>2020-08-08T14:56:42Z</time>
      </trkpt>
      <trkpt lat="48.76194" lon="7.43662">
        <ele>173</ele>
        <time>2020-08-08T14:56:44Z</time>
      </trkpt>
      <trkpt lat="48.76198" lon="7.43649">
        <ele>173</ele>
        <time>2020-08-08T14:56:46Z</time>
      </trkpt>
      <trkpt lat="48.76202" lon="7.43637">
        <ele>173</ele>
        <time>2020-08-08T14:56:48Z</time>
      </trkpt>
      <trkpt lat="48.76206" lon="7.43624">
        <ele>173</ele>
        <time>2020-08-08T14:56:50Z</time>
      </trkpt>
      <trkpt lat="48.7621" lon="7.4362">
        <ele>173</ele>
        <time>2020-08-08T14:56:51Z</time>
      </trkpt>
      <trkpt lat="48.76212" lon="7.43613">
        <ele>173</ele>
        <time>2020-08-08T14:56:52Z</time>
      </trkpt>
      <trkpt lat="48.76215" lon="7.43601">
        <ele>173</ele>
        <time>2020-08-08T14:56:54Z</time>
      </trkpt>
      <trkpt lat="48.76218" lon="7.43588">
        <ele>173</ele>
        <time>2020-08-08T14:56:56Z</time>
      </trkpt>
      <trkpt lat="48.7622" lon="7.43582">
        <ele>173</ele>
        <time>2020-08-08T14:56:57Z</time>
      </trkpt>
      <trkpt lat="48.76222" lon="7.43574">
        <ele>174</ele>
        <time>2020-08-08T14:56:58Z</time>
      </trkpt>
      <trkpt lat="48.76225" lon="7.43568">
        <ele>174</ele>
        <time>2020-08-08T14:56:59Z</time>
      </trkpt>
      <trkpt lat="48.76226" lon="7.43555">
        <ele>174</ele>
        <time>2020-08-08T14:57:01Z</time>
      </trkpt>
      <trkpt lat="48.76229" lon="7.43544">
        <ele>175</ele>
        <time>2020-08-08T14:57:03Z</time>
      </trkpt>
      <trkpt lat="48.76231" lon="7.43533">
        <ele>175</ele>
        <time>2020-08-08T14:57:05Z</time>
      </trkpt>
      <trkpt lat="48.76233" lon="7.43526">
        <ele>174</ele>
        <time>2020-08-08T14:57:06Z</time>
      </trkpt>
      <trkpt lat="48.76235" lon="7.4352">
        <ele>174</ele>
        <time>2020-08-08T14:57:07Z</time>
      </trkpt>
      <trkpt lat="48.76237" lon="7.43513">
        <ele>174</ele>
        <time>2020-08-08T14:57:08Z</time>
      </trkpt>
      <trkpt lat="48.7624" lon="7.43502">
        <ele>173</ele>
        <time>2020-08-08T14:57:10Z</time>
      </trkpt>
      <trkpt lat="48.76243" lon="7.4349">
        <ele>174</ele>
        <time>2020-08-08T14:57:12Z</time>
      </trkpt>
      <trkpt lat="48.76246" lon="7.43479">
        <ele>174</ele>
        <time>2020-08-08T14:57:14Z</time>
      </trkpt>
      <trkpt lat="48.76247" lon="7.43472">
        <ele>174</ele>
        <time>2020-08-08T14:57:15Z</time>
      </trkpt>
      <trkpt lat="48.7625" lon="7.43458">
        <ele>174</ele>
        <time>2020-08-08T14:57:17Z</time>
      </trkpt>
      <trkpt lat="48.76251" lon="7.43451">
        <ele>174</ele>
        <time>2020-08-08T14:57:18Z</time>
      </trkpt>
      <trkpt lat="48.76252" lon="7.43444">
        <ele>175</ele>
        <time>2020-08-08T14:57:19Z</time>
      </trkpt>
      <trkpt lat="48.76255" lon="7.43432">
        <ele>174</ele>
        <time>2020-08-08T14:57:21Z</time>
      </trkpt>
      <trkpt lat="48.76256" lon="7.43425">
        <ele>174</ele>
        <time>2020-08-08T14:57:22Z</time>
      </trkpt>
      <trkpt lat="48.76259" lon="7.43413">
        <ele>174</ele>
        <time>2020-08-08T14:57:24Z</time>
      </trkpt>
      <trkpt lat="48.76261" lon="7.43407">
        <ele>174</ele>
        <time>2020-08-08T14:57:25Z</time>
      </trkpt>
      <trkpt lat="48.76265" lon="7.43395">
        <ele>174</ele>
        <time>2020-08-08T14:57:27Z</time>
      </trkpt>
      <trkpt lat="48.76266" lon="7.43389">
        <ele>174</ele>
        <time>2020-08-08T14:57:28Z</time>
      </trkpt>
      <trkpt lat="48.76269" lon="7.43377">
        <ele>174</ele>
        <time>2020-08-08T14:57:30Z</time>
      </trkpt>
      <trkpt lat="48.76271" lon="7.43371">
        <ele>173</ele>
        <time>2020-08-08T14:57:31Z</time>
      </trkpt>
      <trkpt lat="48.76274" lon="7.43358">
        <ele>173</ele>
        <time>2020-08-08T14:57:33Z</time>
      </trkpt>
      <trkpt lat="48.76277" lon="7.43345">
        <ele>173</ele>
        <time>2020-08-08T14:57:35Z</time>
      </trkpt>
      <trkpt lat="48.7628" lon="7.43333">
        <ele>173</ele>
        <time>2020-08-08T14:57:37Z</time>
      </trkpt>
      <trkpt lat="48.76281" lon="7.4332">
        <ele>173</ele>
        <time>2020-08-08T14:57:39Z</time>
      </trkpt>
      <trkpt lat="48.76282" lon="7.43312">
        <ele>173</ele>
        <time>2020-08-08T14:57:40Z</time>
      </trkpt>
      <trkpt lat="48.76283" lon="7.43305">
        <ele>173</ele>
        <time>2020-08-08T14:57:41Z</time>
      </trkpt>
      <trkpt lat="48.76286" lon="7.43293">
        <ele>173</ele>
        <time>2020-08-08T14:57:43Z</time>
      </trkpt>
      <trkpt lat="48.76289" lon="7.43281">
        <ele>173</ele>
        <time>2020-08-08T14:57:45Z</time>
      </trkpt>
      <trkpt lat="48.7629" lon="7.43267">
        <ele>173</ele>
        <time>2020-08-08T14:57:47Z</time>
      </trkpt>
      <trkpt lat="48.76291" lon="7.4326">
        <ele>174</ele>
        <time>2020-08-08T14:57:48Z</time>
      </trkpt>
      <trkpt lat="48.76291" lon="7.43248">
        <ele>174</ele>
        <time>2020-08-08T14:57:50Z</time>
      </trkpt>
      <trkpt lat="48.76294" lon="7.43235">
        <ele>174</ele>
        <time>2020-08-08T14:57:52Z</time>
      </trkpt>
      <trkpt lat="48.76296" lon="7.43224">
        <ele>174</ele>
        <time>2020-08-08T14:57:54Z</time>
      </trkpt>
      <trkpt lat="48.76299" lon="7.43212">
        <ele>173</ele>
        <time>2020-08-08T14:57:56Z</time>
      </trkpt>
      <trkpt lat="48.763" lon="7.43201">
        <ele>174</ele>
        <time>2020-08-08T14:57:58Z</time>
      </trkpt>
      <trkpt lat="48.76302" lon="7.43194">
        <ele>174</ele>
        <time>2020-08-08T14:57:59Z</time>
      </trkpt>
      <trkpt lat="48.76303" lon="7.43187">
        <ele>174</ele>
        <time>2020-08-08T14:58:00Z</time>
      </trkpt>
      <trkpt lat="48.76304" lon="7.43175">
        <ele>174</ele>
        <time>2020-08-08T14:58:02Z</time>
      </trkpt>
      <trkpt lat="48.76306" lon="7.43162">
        <ele>175</ele>
        <time>2020-08-08T14:58:04Z</time>
      </trkpt>
      <trkpt lat="48.76306" lon="7.43155">
        <ele>175</ele>
        <time>2020-08-08T14:58:05Z</time>
      </trkpt>
      <trkpt lat="48.76307" lon="7.43142">
        <ele>175</ele>
        <time>2020-08-08T14:58:07Z</time>
      </trkpt>
      <trkpt lat="48.76308" lon="7.43135">
        <ele>175</ele>
        <time>2020-08-08T14:58:08Z</time>
      </trkpt>
      <trkpt lat="48.76308" lon="7.43127">
        <ele>175</ele>
        <time>2020-08-08T14:58:09Z</time>
      </trkpt>
      <trkpt lat="48.7631" lon="7.43121">
        <ele>175</ele>
        <time>2020-08-08T14:58:10Z</time>
      </trkpt>
      <trkpt lat="48.76312" lon="7.43114">
        <ele>175</ele>
        <time>2020-08-08T14:58:11Z</time>
      </trkpt>
      <trkpt lat="48.76312" lon="7.43107">
        <ele>175</ele>
        <time>2020-08-08T14:58:12Z</time>
      </trkpt>
      <trkpt lat="48.76312" lon="7.431">
        <ele>175</ele>
        <time>2020-08-08T14:58:13Z</time>
      </trkpt>
      <trkpt lat="48.76315" lon="7.43088">
        <ele>175</ele>
        <time>2020-08-08T14:58:15Z</time>
      </trkpt>
      <trkpt lat="48.76316" lon="7.43077">
        <ele>175</ele>
        <time>2020-08-08T14:58:17Z</time>
      </trkpt>
      <trkpt lat="48.76316" lon="7.43064">
        <ele>175</ele>
        <time>2020-08-08T14:58:19Z</time>
      </trkpt>
      <trkpt lat="48.76318" lon="7.43052">
        <ele>174</ele>
        <time>2020-08-08T14:58:21Z</time>
      </trkpt>
      <trkpt lat="48.76318" lon="7.43041">
        <ele>174</ele>
        <time>2020-08-08T14:58:23Z</time>
      </trkpt>
      <trkpt lat="48.7632" lon="7.43027">
        <ele>174</ele>
        <time>2020-08-08T14:58:25Z</time>
      </trkpt>
      <trkpt lat="48.76321" lon="7.43021">
        <ele>174</ele>
        <time>2020-08-08T14:58:26Z</time>
      </trkpt>
      <trkpt lat="48.76322" lon="7.43014">
        <ele>174</ele>
        <time>2020-08-08T14:58:27Z</time>
      </trkpt>
      <trkpt lat="48.76323" lon="7.43001">
        <ele>174</ele>
        <time>2020-08-08T14:58:29Z</time>
      </trkpt>
      <trkpt lat="48.76325" lon="7.42988">
        <ele>173</ele>
        <time>2020-08-08T14:58:31Z</time>
      </trkpt>
      <trkpt lat="48.76327" lon="7.42976">
        <ele>173</ele>
        <time>2020-08-08T14:58:33Z</time>
      </trkpt>
      <trkpt lat="48.76328" lon="7.42969">
        <ele>173</ele>
        <time>2020-08-08T14:58:34Z</time>
      </trkpt>
      <trkpt lat="48.76328" lon="7.42961">
        <ele>173</ele>
        <time>2020-08-08T14:58:35Z</time>
      </trkpt>
      <trkpt lat="48.76328" lon="7.42953">
        <ele>173</ele>
        <time>2020-08-08T14:58:36Z</time>
      </trkpt>
      <trkpt lat="48.76328" lon="7.42946">
        <ele>173</ele>
        <time>2020-08-08T14:58:37Z</time>
      </trkpt>
      <trkpt lat="48.76328" lon="7.42939">
        <ele>173</ele>
        <time>2020-08-08T14:58:38Z</time>
      </trkpt>
      <trkpt lat="48.7633" lon="7.42932">
        <ele>173</ele>
        <time>2020-08-08T14:58:39Z</time>
      </trkpt>
      <trkpt lat="48.76329" lon="7.42925">
        <ele>173</ele>
        <time>2020-08-08T14:58:40Z</time>
      </trkpt>
      <trkpt lat="48.76331" lon="7.42918">
        <ele>173</ele>
        <time>2020-08-08T14:58:41Z</time>
      </trkpt>
      <trkpt lat="48.76332" lon="7.42904">
        <ele>173</ele>
        <time>2020-08-08T14:58:43Z</time>
      </trkpt>
      <trkpt lat="48.76331" lon="7.42892">
        <ele>173</ele>
        <time>2020-08-08T14:58:45Z</time>
      </trkpt>
      <trkpt lat="48.76331" lon="7.42879">
        <ele>173</ele>
        <time>2020-08-08T14:58:47Z</time>
      </trkpt>
      <trkpt lat="48.76331" lon="7.4287">
        <ele>173</ele>
        <time>2020-08-08T14:58:48Z</time>
      </trkpt>
      <trkpt lat="48.76331" lon="7.42862">
        <ele>173</ele>
        <time>2020-08-08T14:58:49Z</time>
      </trkpt>
      <trkpt lat="48.76331" lon="7.4285">
        <ele>173</ele>
        <time>2020-08-08T14:58:51Z</time>
      </trkpt>
      <trkpt lat="48.76331" lon="7.42843">
        <ele>173</ele>
        <time>2020-08-08T14:58:52Z</time>
      </trkpt>
      <trkpt lat="48.76331" lon="7.42835">
        <ele>173</ele>
        <time>2020-08-08T14:58:53Z</time>
      </trkpt>
      <trkpt lat="48.76331" lon="7.42823">
        <ele>173</ele>
        <time>2020-08-08T14:58:55Z</time>
      </trkpt>
      <trkpt lat="48.76331" lon="7.42815">
        <ele>173</ele>
        <time>2020-08-08T14:58:56Z</time>
      </trkpt>
      <trkpt lat="48.76331" lon="7.42807">
        <ele>174</ele>
        <time>2020-08-08T14:58:57Z</time>
      </trkpt>
      <trkpt lat="48.76331" lon="7.428">
        <ele>174</ele>
        <time>2020-08-08T14:58:58Z</time>
      </trkpt>
      <trkpt lat="48.76329" lon="7.42786">
        <ele>174</ele>
        <time>2020-08-08T14:59:00Z</time>
      </trkpt>
      <trkpt lat="48.76329" lon="7.42778">
        <ele>174</ele>
        <time>2020-08-08T14:59:01Z</time>
      </trkpt>
      <trkpt lat="48.76329" lon="7.42766">
        <ele>174</ele>
        <time>2020-08-08T14:59:03Z</time>
      </trkpt>
      <trkpt lat="48.76329" lon="7.42759">
        <ele>174</ele>
        <time>2020-08-08T14:59:04Z</time>
      </trkpt>
      <trkpt lat="48.76329" lon="7.42751">
        <ele>174</ele>
        <time>2020-08-08T14:59:05Z</time>
      </trkpt>
      <trkpt lat="48.76329" lon="7.42739">
        <ele>174</ele>
        <time>2020-08-08T14:59:07Z</time>
      </trkpt>
      <trkpt lat="48.76328" lon="7.42726">
        <ele>174</ele>
        <time>2020-08-08T14:59:09Z</time>
      </trkpt>
      <trkpt lat="48.76328" lon="7.42713">
        <ele>174</ele>
        <time>2020-08-08T14:59:11Z</time>
      </trkpt>
      <trkpt lat="48.76328" lon="7.42706">
        <ele>174</ele>
        <time>2020-08-08T14:59:12Z</time>
      </trkpt>
      <trkpt lat="48.76328" lon="7.42699">
        <ele>174</ele>
        <time>2020-08-08T14:59:13Z</time>
      </trkpt>
      <trkpt lat="48.76327" lon="7.42691">
        <ele>175</ele>
        <time>2020-08-08T14:59:14Z</time>
      </trkpt>
      <trkpt lat="48.76329" lon="7.42685">
        <ele>174</ele>
        <time>2020-08-08T14:59:15Z</time>
      </trkpt>
      <trkpt lat="48.76331" lon="7.42674">
        <ele>174</ele>
        <time>2020-08-08T14:59:17Z</time>
      </trkpt>
      <trkpt lat="48.7633" lon="7.42666">
        <ele>174</ele>
        <time>2020-08-08T14:59:18Z</time>
      </trkpt>
      <trkpt lat="48.76329" lon="7.42653">
        <ele>175</ele>
        <time>2020-08-08T14:59:20Z</time>
      </trkpt>
      <trkpt lat="48.76329" lon="7.42646">
        <ele>175</ele>
        <time>2020-08-08T14:59:21Z</time>
      </trkpt>
      <trkpt lat="48.76329" lon="7.42633">
        <ele>174</ele>
        <time>2020-08-08T14:59:23Z</time>
      </trkpt>
      <trkpt lat="48.76329" lon="7.4262">
        <ele>174</ele>
        <time>2020-08-08T14:59:25Z</time>
      </trkpt>
      <trkpt lat="48.76329" lon="7.42606">
        <ele>174</ele>
        <time>2020-08-08T14:59:27Z</time>
      </trkpt>
      <trkpt lat="48.76329" lon="7.42599">
        <ele>174</ele>
        <time>2020-08-08T14:59:28Z</time>
      </trkpt>
      <trkpt lat="48.76329" lon="7.42592">
        <ele>174</ele>
        <time>2020-08-08T14:59:29Z</time>
      </trkpt>
      <trkpt lat="48.76329" lon="7.42579">
        <ele>175</ele>
        <time>2020-08-08T14:59:31Z</time>
      </trkpt>
      <trkpt lat="48.7633" lon="7.42567">
        <ele>175</ele>
        <time>2020-08-08T14:59:33Z</time>
      </trkpt>
      <trkpt lat="48.76331" lon="7.4256">
        <ele>175</ele>
        <time>2020-08-08T14:59:34Z</time>
      </trkpt>
      <trkpt lat="48.76331" lon="7.42553">
        <ele>175</ele>
        <time>2020-08-08T14:59:35Z</time>
      </trkpt>
      <trkpt lat="48.7633" lon="7.42539">
        <ele>175</ele>
        <time>2020-08-08T14:59:37Z</time>
      </trkpt>
      <trkpt lat="48.7633" lon="7.42532">
        <ele>175</ele>
        <time>2020-08-08T14:59:38Z</time>
      </trkpt>
      <trkpt lat="48.76331" lon="7.42524">
        <ele>175</ele>
        <time>2020-08-08T14:59:39Z</time>
      </trkpt>
      <trkpt lat="48.7633" lon="7.42511">
        <ele>175</ele>
        <time>2020-08-08T14:59:41Z</time>
      </trkpt>
      <trkpt lat="48.7633" lon="7.42505">
        <ele>175</ele>
        <time>2020-08-08T14:59:42Z</time>
      </trkpt>
      <trkpt lat="48.76331" lon="7.42492">
        <ele>175</ele>
        <time>2020-08-08T14:59:44Z</time>
      </trkpt>
      <trkpt lat="48.76331" lon="7.42479">
        <ele>175</ele>
        <time>2020-08-08T14:59:46Z</time>
      </trkpt>
      <trkpt lat="48.76331" lon="7.42466">
        <ele>175</ele>
        <time>2020-08-08T14:59:48Z</time>
      </trkpt>
      <trkpt lat="48.76331" lon="7.42458">
        <ele>174</ele>
        <time>2020-08-08T14:59:49Z</time>
      </trkpt>
      <trkpt lat="48.76331" lon="7.42444">
        <ele>174</ele>
        <time>2020-08-08T14:59:51Z</time>
      </trkpt>
      <trkpt lat="48.76331" lon="7.42431">
        <ele>174</ele>
        <time>2020-08-08T14:59:53Z</time>
      </trkpt>
      <trkpt lat="48.76331" lon="7.42423">
        <ele>174</ele>
        <time>2020-08-08T14:59:54Z</time>
      </trkpt>
      <trkpt lat="48.7633" lon="7.42415">
        <ele>174</ele>
        <time>2020-08-08T14:59:55Z</time>
      </trkpt>
      <trkpt lat="48.76329" lon="7.42408">
        <ele>174</ele>
        <time>2020-08-08T14:59:56Z</time>
      </trkpt>
      <trkpt lat="48.76329" lon="7.42401">
        <ele>174</ele>
        <time>2020-08-08T14:59:57Z</time>
      </trkpt>
      <trkpt lat="48.76328" lon="7.42394">
        <ele>174</ele>
        <time>2020-08-08T14:59:58Z</time>
      </trkpt>
      <trkpt lat="48.76329" lon="7.42387">
        <ele>174</ele>
        <time>2020-08-08T14:59:59Z</time>
      </trkpt>
      <trkpt lat="48.76329" lon="7.42372">
        <ele>174</ele>
        <time>2020-08-08T15:00:01Z</time>
      </trkpt>
      <trkpt lat="48.76329" lon="7.42358">
        <ele>174</ele>
        <time>2020-08-08T15:00:03Z</time>
      </trkpt>
      <trkpt lat="48.76329" lon="7.4235">
        <ele>174</ele>
        <time>2020-08-08T15:00:04Z</time>
      </trkpt>
      <trkpt lat="48.76329" lon="7.42343">
        <ele>174</ele>
        <time>2020-08-08T15:00:05Z</time>
      </trkpt>
      <trkpt lat="48.76331" lon="7.42331">
        <ele>173</ele>
        <time>2020-08-08T15:00:07Z</time>
      </trkpt>
      <trkpt lat="48.76331" lon="7.42324">
        <ele>173</ele>
        <time>2020-08-08T15:00:08Z</time>
      </trkpt>
      <trkpt lat="48.76331" lon="7.42317">
        <ele>173</ele>
        <time>2020-08-08T15:00:09Z</time>
      </trkpt>
      <trkpt lat="48.76331" lon="7.42309">
        <ele>173</ele>
        <time>2020-08-08T15:00:10Z</time>
      </trkpt>
      <trkpt lat="48.76331" lon="7.42302">
        <ele>173</ele>
        <time>2020-08-08T15:00:11Z</time>
      </trkpt>
      <trkpt lat="48.76331" lon="7.42295">
        <ele>173</ele>
        <time>2020-08-08T15:00:12Z</time>
      </trkpt>
      <trkpt lat="48.7633" lon="7.42288">
        <ele>174</ele>
        <time>2020-08-08T15:00:13Z</time>
      </trkpt>
      <trkpt lat="48.7633" lon="7.42281">
        <ele>174</ele>
        <time>2020-08-08T15:00:14Z</time>
      </trkpt>
      <trkpt lat="48.7633" lon="7.42273">
        <ele>173</ele>
        <time>2020-08-08T15:00:15Z</time>
      </trkpt>
      <trkpt lat="48.7633" lon="7.42266">
        <ele>173</ele>
        <time>2020-08-08T15:00:16Z</time>
      </trkpt>
      <trkpt lat="48.76331" lon="7.42259">
        <ele>173</ele>
        <time>2020-08-08T15:00:17Z</time>
      </trkpt>
      <trkpt lat="48.76331" lon="7.42252">
        <ele>173</ele>
        <time>2020-08-08T15:00:18Z</time>
      </trkpt>
      <trkpt lat="48.76331" lon="7.42244">
        <ele>173</ele>
        <time>2020-08-08T15:00:19Z</time>
      </trkpt>
      <trkpt lat="48.76331" lon="7.42237">
        <ele>173</ele>
        <time>2020-08-08T15:00:20Z</time>
      </trkpt>
      <trkpt lat="48.76331" lon="7.42229">
        <ele>173</ele>
        <time>2020-08-08T15:00:21Z</time>
      </trkpt>
      <trkpt lat="48.76331" lon="7.42222">
        <ele>173</ele>
        <time>2020-08-08T15:00:22Z</time>
      </trkpt>
      <trkpt lat="48.76331" lon="7.42215">
        <ele>173</ele>
        <time>2020-08-08T15:00:23Z</time>
      </trkpt>
      <trkpt lat="48.76331" lon="7.42208">
        <ele>173</ele>
        <time>2020-08-08T15:00:24Z</time>
      </trkpt>
      <trkpt lat="48.76331" lon="7.422">
        <ele>173</ele>
        <time>2020-08-08T15:00:25Z</time>
      </trkpt>
      <trkpt lat="48.76331" lon="7.42193">
        <ele>173</ele>
        <time>2020-08-08T15:00:26Z</time>
      </trkpt>
      <trkpt lat="48.76331" lon="7.42186">
        <ele>173</ele>
        <time>2020-08-08T15:00:27Z</time>
      </trkpt>
      <trkpt lat="48.76331" lon="7.42178">
        <ele>173</ele>
        <time>2020-08-08T15:00:28Z</time>
      </trkpt>
      <trkpt lat="48.7633" lon="7.42171">
        <ele>173</ele>
        <time>2020-08-08T15:00:29Z</time>
      </trkpt>
      <trkpt lat="48.7633" lon="7.42163">
        <ele>173</ele>
        <time>2020-08-08T15:00:30Z</time>
      </trkpt>
      <trkpt lat="48.7633" lon="7.42156">
        <ele>173</ele>
        <time>2020-08-08T15:00:31Z</time>
      </trkpt>
      <trkpt lat="48.76331" lon="7.42149">
        <ele>173</ele>
        <time>2020-08-08T15:00:32Z</time>
      </trkpt>
      <trkpt lat="48.76331" lon="7.42141">
        <ele>173</ele>
        <time>2020-08-08T15:00:33Z</time>
      </trkpt>
      <trkpt lat="48.76331" lon="7.42134">
        <ele>173</ele>
        <time>2020-08-08T15:00:34Z</time>
      </trkpt>
      <trkpt lat="48.7633" lon="7.42127">
        <ele>173</ele>
        <time>2020-08-08T15:00:35Z</time>
      </trkpt>
      <trkpt lat="48.7633" lon="7.42119">
        <ele>172</ele>
        <time>2020-08-08T15:00:36Z</time>
      </trkpt>
      <trkpt lat="48.7633" lon="7.42112">
        <ele>172</ele>
        <time>2020-08-08T15:00:37Z</time>
      </trkpt>
      <trkpt lat="48.76331" lon="7.42104">
        <ele>172</ele>
        <time>2020-08-08T15:00:38Z</time>
      </trkpt>
      <trkpt lat="48.76331" lon="7.42097">
        <ele>172</ele>
        <time>2020-08-08T15:00:39Z</time>
      </trkpt>
      <trkpt lat="48.7633" lon="7.42089">
        <ele>173</ele>
        <time>2020-08-08T15:00:40Z</time>
      </trkpt>
      <trkpt lat="48.7633" lon="7.42081">
        <ele>173</ele>
        <time>2020-08-08T15:00:41Z</time>
      </trkpt>
      <trkpt lat="48.76331" lon="7.42074">
        <ele>173</ele>
        <time>2020-08-08T15:00:42Z</time>
      </trkpt>
      <trkpt lat="48.76331" lon="7.42066">
        <ele>173</ele>
        <time>2020-08-08T15:00:43Z</time>
      </trkpt>
      <trkpt lat="48.76331" lon="7.42059">
        <ele>173</ele>
        <time>2020-08-08T15:00:44Z</time>
      </trkpt>
      <trkpt lat="48.7633" lon="7.42052">
        <ele>173</ele>
        <time>2020-08-08T15:00:45Z</time>
      </trkpt>
      <trkpt lat="48.76331" lon="7.42044">
        <ele>173</ele>
        <time>2020-08-08T15:00:46Z</time>
      </trkpt>
      <trkpt lat="48.76331" lon="7.42038">
        <ele>173</ele>
        <time>2020-08-08T15:00:47Z</time>
      </trkpt>
      <trkpt lat="48.76331" lon="7.42024">
        <ele>173</ele>
        <time>2020-08-08T15:00:49Z</time>
      </trkpt>
      <trkpt lat="48.7633" lon="7.4201">
        <ele>173</ele>
        <time>2020-08-08T15:00:51Z</time>
      </trkpt>
      <trkpt lat="48.76331" lon="7.42003">
        <ele>173</ele>
        <time>2020-08-08T15:00:52Z</time>
      </trkpt>
      <trkpt lat="48.76331" lon="7.41989">
        <ele>173</ele>
        <time>2020-08-08T15:00:54Z</time>
      </trkpt>
      <trkpt lat="48.7633" lon="7.41982">
        <ele>173</ele>
        <time>2020-08-08T15:00:55Z</time>
      </trkpt>
      <trkpt lat="48.76331" lon="7.41968">
        <ele>173</ele>
        <time>2020-08-08T15:00:57Z</time>
      </trkpt>
      <trkpt lat="48.7633" lon="7.41961">
        <ele>173</ele>
        <time>2020-08-08T15:00:58Z</time>
      </trkpt>
      <trkpt lat="48.76331" lon="7.41948">
        <ele>172</ele>
        <time>2020-08-08T15:01:00Z</time>
      </trkpt>
      <trkpt lat="48.7633" lon="7.41941">
        <ele>172</ele>
        <time>2020-08-08T15:01:01Z</time>
      </trkpt>
      <trkpt lat="48.7633" lon="7.41934">
        <ele>172</ele>
        <time>2020-08-08T15:01:02Z</time>
      </trkpt>
      <trkpt lat="48.7633" lon="7.41926">
        <ele>172</ele>
        <time>2020-08-08T15:01:03Z</time>
      </trkpt>
      <trkpt lat="48.7633" lon="7.41919">
        <ele>172</ele>
        <time>2020-08-08T15:01:04Z</time>
      </trkpt>
      <trkpt lat="48.76329" lon="7.41907">
        <ele>173</ele>
        <time>2020-08-08T15:01:06Z</time>
      </trkpt>
      <trkpt lat="48.76329" lon="7.41899">
        <ele>173</ele>
        <time>2020-08-08T15:01:07Z</time>
      </trkpt>
      <trkpt lat="48.76328" lon="7.41892">
        <ele>173</ele>
        <time>2020-08-08T15:01:08Z</time>
      </trkpt>
      <trkpt lat="48.76325" lon="7.4188">
        <ele>173</ele>
        <time>2020-08-08T15:01:10Z</time>
      </trkpt>
      <trkpt lat="48.76319" lon="7.41881">
        <ele>173</ele>
        <time>2020-08-08T15:01:11Z</time>
      </trkpt>
      <trkpt lat="48.76315" lon="7.41881">
        <ele>173</ele>
        <time>2020-08-08T15:01:12Z</time>
      </trkpt>
      <trkpt lat="48.76306" lon="7.41884">
        <ele>173</ele>
        <time>2020-08-08T15:01:14Z</time>
      </trkpt>
      <trkpt lat="48.76302" lon="7.41886">
        <ele>173</ele>
        <time>2020-08-08T15:01:15Z</time>
      </trkpt>
      <trkpt lat="48.76296" lon="7.41887">
        <ele>173</ele>
        <time>2020-08-08T15:01:16Z</time>
      </trkpt>
      <trkpt lat="48.7629" lon="7.41877">
        <ele>172</ele>
        <time>2020-08-08T15:01:18Z</time>
      </trkpt>
      <trkpt lat="48.76287" lon="7.41872">
        <ele>172</ele>
        <time>2020-08-08T15:01:19Z</time>
      </trkpt>
      <trkpt lat="48.76285" lon="7.41865">
        <ele>172</ele>
        <time>2020-08-08T15:01:20Z</time>
      </trkpt>
      <trkpt lat="48.76283" lon="7.41858">
        <ele>172</ele>
        <time>2020-08-08T15:01:21Z</time>
      </trkpt>
      <trkpt lat="48.76281" lon="7.41851">
        <ele>172</ele>
        <time>2020-08-08T15:01:22Z</time>
      </trkpt>
      <trkpt lat="48.76279" lon="7.41845">
        <ele>172</ele>
        <time>2020-08-08T15:01:23Z</time>
      </trkpt>
      <trkpt lat="48.76277" lon="7.41838">
        <ele>173</ele>
        <time>2020-08-08T15:01:24Z</time>
      </trkpt>
      <trkpt lat="48.7627" lon="7.41821">
        <ele>174</ele>
        <time>2020-08-08T15:01:27Z</time>
      </trkpt>
      <trkpt lat="48.76268" lon="7.41814">
        <ele>173</ele>
        <time>2020-08-08T15:01:28Z</time>
      </trkpt>
      <trkpt lat="48.76264" lon="7.41803">
        <ele>173</ele>
        <time>2020-08-08T15:01:30Z</time>
      </trkpt>
      <trkpt lat="48.76262" lon="7.41796">
        <ele>173</ele>
        <time>2020-08-08T15:01:31Z</time>
      </trkpt>
      <trkpt lat="48.7626" lon="7.4179">
        <ele>173</ele>
        <time>2020-08-08T15:01:32Z</time>
      </trkpt>
      <trkpt lat="48.76257" lon="7.41779">
        <ele>173</ele>
        <time>2020-08-08T15:01:34Z</time>
      </trkpt>
      <trkpt lat="48.76254" lon="7.41771">
        <ele>173</ele>
        <time>2020-08-08T15:01:36Z</time>
      </trkpt>
      <trkpt lat="48.76254" lon="7.4176">
        <ele>173</ele>
        <time>2020-08-08T15:01:38Z</time>
      </trkpt>
      <trkpt lat="48.76258" lon="7.41755">
        <ele>174</ele>
        <time>2020-08-08T15:01:40Z</time>
      </trkpt>
      <trkpt lat="48.76265" lon="7.41753">
        <ele>174</ele>
        <time>2020-08-08T15:01:42Z</time>
      </trkpt>
      <trkpt lat="48.76271" lon="7.41747">
        <ele>174</ele>
        <time>2020-08-08T15:01:44Z</time>
      </trkpt>
      <trkpt lat="48.76276" lon="7.41741">
        <ele>174</ele>
        <time>2020-08-08T15:01:46Z</time>
      </trkpt>
      <trkpt lat="48.76281" lon="7.41734">
        <ele>174</ele>
        <time>2020-08-08T15:01:48Z</time>
      </trkpt>
      <trkpt lat="48.76287" lon="7.41727">
        <ele>174</ele>
        <time>2020-08-08T15:01:50Z</time>
      </trkpt>
      <trkpt lat="48.76291" lon="7.41718">
        <ele>174</ele>
        <time>2020-08-08T15:01:52Z</time>
      </trkpt>
      <trkpt lat="48.76288" lon="7.41711">
        <ele>174</ele>
        <time>2020-08-08T15:01:53Z</time>
      </trkpt>
      <trkpt lat="48.76283" lon="7.41701">
        <ele>174</ele>
        <time>2020-08-08T15:01:55Z</time>
      </trkpt>
      <trkpt lat="48.76279" lon="7.41693">
        <ele>174</ele>
        <time>2020-08-08T15:01:57Z</time>
      </trkpt>
      <trkpt lat="48.76275" lon="7.41687">
        <ele>174</ele>
        <time>2020-08-08T15:01:59Z</time>
      </trkpt>
      <trkpt lat="48.76273" lon="7.41677">
        <ele>175</ele>
        <time>2020-08-08T15:02:01Z</time>
      </trkpt>
      <trkpt lat="48.7627" lon="7.41668">
        <ele>175</ele>
        <time>2020-08-08T15:02:03Z</time>
      </trkpt>
      <trkpt lat="48.76267" lon="7.4166">
        <ele>176</ele>
        <time>2020-08-08T15:02:05Z</time>
      </trkpt>
      <trkpt lat="48.76267" lon="7.41652">
        <ele>176</ele>
        <time>2020-08-08T15:02:07Z</time>
      </trkpt>
      <trkpt lat="48.76268" lon="7.41644">
        <ele>176</ele>
        <time>2020-08-08T15:02:20Z</time>
      </trkpt>
      <trkpt lat="48.76266" lon="7.41636">
        <ele>176</ele>
        <time>2020-08-08T15:02:24Z</time>
      </trkpt>
      <trkpt lat="48.76263" lon="7.41627">
        <ele>176</ele>
        <time>2020-08-08T15:02:27Z</time>
      </trkpt>
      <trkpt lat="48.76262" lon="7.41619">
        <ele>175</ele>
        <time>2020-08-08T15:02:29Z</time>
      </trkpt>
      <trkpt lat="48.7626" lon="7.4161">
        <ele>175</ele>
        <time>2020-08-08T15:02:31Z</time>
      </trkpt>
      <trkpt lat="48.76258" lon="7.41602">
        <ele>175</ele>
        <time>2020-08-08T15:02:33Z</time>
      </trkpt>
      <trkpt lat="48.76255" lon="7.41592">
        <ele>175</ele>
        <time>2020-08-08T15:02:35Z</time>
      </trkpt>
      <trkpt lat="48.76255" lon="7.41583">
        <ele>175</ele>
        <time>2020-08-08T15:02:37Z</time>
      </trkpt>
      <trkpt lat="48.76252" lon="7.41574">
        <ele>175</ele>
        <time>2020-08-08T15:02:39Z</time>
      </trkpt>
      <trkpt lat="48.7625" lon="7.41565">
        <ele>175</ele>
        <time>2020-08-08T15:02:41Z</time>
      </trkpt>
      <trkpt lat="48.76247" lon="7.41554">
        <ele>175</ele>
        <time>2020-08-08T15:02:43Z</time>
      </trkpt>
      <trkpt lat="48.76243" lon="7.41546">
        <ele>175</ele>
        <time>2020-08-08T15:02:45Z</time>
      </trkpt>
      <trkpt lat="48.7624" lon="7.41537">
        <ele>175</ele>
        <time>2020-08-08T15:02:47Z</time>
      </trkpt>
      <trkpt lat="48.76238" lon="7.41527">
        <ele>175</ele>
        <time>2020-08-08T15:02:49Z</time>
      </trkpt>
      <trkpt lat="48.76235" lon="7.41517">
        <ele>175</ele>
        <time>2020-08-08T15:02:51Z</time>
      </trkpt>
      <trkpt lat="48.76233" lon="7.41507">
        <ele>175</ele>
        <time>2020-08-08T15:02:53Z</time>
      </trkpt>
      <trkpt lat="48.7623" lon="7.41495">
        <ele>175</ele>
        <time>2020-08-08T15:02:55Z</time>
      </trkpt>
      <trkpt lat="48.76226" lon="7.41484">
        <ele>176</ele>
        <time>2020-08-08T15:02:57Z</time>
      </trkpt>
      <trkpt lat="48.76223" lon="7.41473">
        <ele>176</ele>
        <time>2020-08-08T15:02:59Z</time>
      </trkpt>
      <trkpt lat="48.76221" lon="7.41466">
        <ele>176</ele>
        <time>2020-08-08T15:03:00Z</time>
      </trkpt>
      <trkpt lat="48.76217" lon="7.41454">
        <ele>176</ele>
        <time>2020-08-08T15:03:02Z</time>
      </trkpt>
      <trkpt lat="48.76213" lon="7.41443">
        <ele>176</ele>
        <time>2020-08-08T15:03:04Z</time>
      </trkpt>
      <trkpt lat="48.7621" lon="7.41437">
        <ele>176</ele>
        <time>2020-08-08T15:03:05Z</time>
      </trkpt>
      <trkpt lat="48.76209" lon="7.4143">
        <ele>176</ele>
        <time>2020-08-08T15:03:06Z</time>
      </trkpt>
      <trkpt lat="48.76206" lon="7.41424">
        <ele>176</ele>
        <time>2020-08-08T15:03:07Z</time>
      </trkpt>
      <trkpt lat="48.76204" lon="7.41417">
        <ele>176</ele>
        <time>2020-08-08T15:03:08Z</time>
      </trkpt>
      <trkpt lat="48.76202" lon="7.4141">
        <ele>176</ele>
        <time>2020-08-08T15:03:09Z</time>
      </trkpt>
      <trkpt lat="48.76198" lon="7.41399">
        <ele>176</ele>
        <time>2020-08-08T15:03:11Z</time>
      </trkpt>
      <trkpt lat="48.76194" lon="7.41387">
        <ele>176</ele>
        <time>2020-08-08T15:03:13Z</time>
      </trkpt>
      <trkpt lat="48.76192" lon="7.41381">
        <ele>176</ele>
        <time>2020-08-08T15:03:14Z</time>
      </trkpt>
      <trkpt lat="48.76188" lon="7.41369">
        <ele>176</ele>
        <time>2020-08-08T15:03:16Z</time>
      </trkpt>
      <trkpt lat="48.76184" lon="7.41358">
        <ele>176</ele>
        <time>2020-08-08T15:03:18Z</time>
      </trkpt>
      <trkpt lat="48.76181" lon="7.41346">
        <ele>176</ele>
        <time>2020-08-08T15:03:20Z</time>
      </trkpt>
      <trkpt lat="48.76179" lon="7.41339">
        <ele>177</ele>
        <time>2020-08-08T15:03:21Z</time>
      </trkpt>
      <trkpt lat="48.76177" lon="7.41333">
        <ele>177</ele>
        <time>2020-08-08T15:03:22Z</time>
      </trkpt>
      <trkpt lat="48.76173" lon="7.41319">
        <ele>177</ele>
        <time>2020-08-08T15:03:24Z</time>
      </trkpt>
      <trkpt lat="48.76172" lon="7.41312">
        <ele>177</ele>
        <time>2020-08-08T15:03:25Z</time>
      </trkpt>
      <trkpt lat="48.7617" lon="7.41306">
        <ele>177</ele>
        <time>2020-08-08T15:03:26Z</time>
      </trkpt>
      <trkpt lat="48.76168" lon="7.41299">
        <ele>177</ele>
        <time>2020-08-08T15:03:27Z</time>
      </trkpt>
      <trkpt lat="48.76165" lon="7.41293">
        <ele>177</ele>
        <time>2020-08-08T15:03:28Z</time>
      </trkpt>
      <trkpt lat="48.76163" lon="7.41286">
        <ele>177</ele>
        <time>2020-08-08T15:03:29Z</time>
      </trkpt>
      <trkpt lat="48.76161" lon="7.41279">
        <ele>177</ele>
        <time>2020-08-08T15:03:30Z</time>
      </trkpt>
      <trkpt lat="48.76159" lon="7.41272">
        <ele>176</ele>
        <time>2020-08-08T15:03:31Z</time>
      </trkpt>
      <trkpt lat="48.76156" lon="7.41265">
        <ele>176</ele>
        <time>2020-08-08T15:03:32Z</time>
      </trkpt>
      <trkpt lat="48.76155" lon="7.41257">
        <ele>176</ele>
        <time>2020-08-08T15:03:33Z</time>
      </trkpt>
      <trkpt lat="48.76153" lon="7.41249">
        <ele>176</ele>
        <time>2020-08-08T15:03:34Z</time>
      </trkpt>
      <trkpt lat="48.76149" lon="7.41238">
        <ele>175</ele>
        <time>2020-08-08T15:03:36Z</time>
      </trkpt>
      <trkpt lat="48.76148" lon="7.41231">
        <ele>175</ele>
        <time>2020-08-08T15:03:37Z</time>
      </trkpt>
      <trkpt lat="48.76145" lon="7.41224">
        <ele>176</ele>
        <time>2020-08-08T15:03:38Z</time>
      </trkpt>
      <trkpt lat="48.76143" lon="7.4121">
        <ele>176</ele>
        <time>2020-08-08T15:03:40Z</time>
      </trkpt>
      <trkpt lat="48.7614" lon="7.41204">
        <ele>176</ele>
        <time>2020-08-08T15:03:41Z</time>
      </trkpt>
      <trkpt lat="48.76138" lon="7.41197">
        <ele>176</ele>
        <time>2020-08-08T15:03:42Z</time>
      </trkpt>
      <trkpt lat="48.76136" lon="7.41191">
        <ele>176</ele>
        <time>2020-08-08T15:03:43Z</time>
      </trkpt>
      <trkpt lat="48.76135" lon="7.41184">
        <ele>176</ele>
        <time>2020-08-08T15:03:44Z</time>
      </trkpt>
      <trkpt lat="48.76131" lon="7.41171">
        <ele>176</ele>
        <time>2020-08-08T15:03:46Z</time>
      </trkpt>
      <trkpt lat="48.76127" lon="7.41159">
        <ele>176</ele>
        <time>2020-08-08T15:03:48Z</time>
      </trkpt>
      <trkpt lat="48.76124" lon="7.41148">
        <ele>176</ele>
        <time>2020-08-08T15:03:50Z</time>
      </trkpt>
      <trkpt lat="48.76119" lon="7.41136">
        <ele>176</ele>
        <time>2020-08-08T15:03:52Z</time>
      </trkpt>
      <trkpt lat="48.76117" lon="7.4113">
        <ele>176</ele>
        <time>2020-08-08T15:03:53Z</time>
      </trkpt>
      <trkpt lat="48.76116" lon="7.41123">
        <ele>176</ele>
        <time>2020-08-08T15:03:54Z</time>
      </trkpt>
      <trkpt lat="48.76114" lon="7.41117">
        <ele>176</ele>
        <time>2020-08-08T15:03:55Z</time>
      </trkpt>
      <trkpt lat="48.76112" lon="7.4111">
        <ele>176</ele>
        <time>2020-08-08T15:03:56Z</time>
      </trkpt>
      <trkpt lat="48.76106" lon="7.41091">
        <ele>176</ele>
        <time>2020-08-08T15:03:59Z</time>
      </trkpt>
      <trkpt lat="48.76105" lon="7.41085">
        <ele>176</ele>
        <time>2020-08-08T15:04:00Z</time>
      </trkpt>
      <trkpt lat="48.76101" lon="7.41073">
        <ele>176</ele>
        <time>2020-08-08T15:04:02Z</time>
      </trkpt>
      <trkpt lat="48.76098" lon="7.41061">
        <ele>177</ele>
        <time>2020-08-08T15:04:04Z</time>
      </trkpt>
      <trkpt lat="48.76093" lon="7.41049">
        <ele>176</ele>
        <time>2020-08-08T15:04:06Z</time>
      </trkpt>
      <trkpt lat="48.76091" lon="7.41042">
        <ele>176</ele>
        <time>2020-08-08T15:04:07Z</time>
      </trkpt>
      <trkpt lat="48.76089" lon="7.41036">
        <ele>176</ele>
        <time>2020-08-08T15:04:08Z</time>
      </trkpt>
      <trkpt lat="48.76087" lon="7.41029">
        <ele>176</ele>
        <time>2020-08-08T15:04:09Z</time>
      </trkpt>
      <trkpt lat="48.76086" lon="7.41022">
        <ele>176</ele>
        <time>2020-08-08T15:04:10Z</time>
      </trkpt>
      <trkpt lat="48.76081" lon="7.41011">
        <ele>176</ele>
        <time>2020-08-08T15:04:12Z</time>
      </trkpt>
      <trkpt lat="48.76078" lon="7.40997">
        <ele>176</ele>
        <time>2020-08-08T15:04:14Z</time>
      </trkpt>
      <trkpt lat="48.76077" lon="7.4099">
        <ele>176</ele>
        <time>2020-08-08T15:04:15Z</time>
      </trkpt>
      <trkpt lat="48.76072" lon="7.40979">
        <ele>175</ele>
        <time>2020-08-08T15:04:17Z</time>
      </trkpt>
      <trkpt lat="48.76068" lon="7.40969">
        <ele>176</ele>
        <time>2020-08-08T15:04:19Z</time>
      </trkpt>
      <trkpt lat="48.76065" lon="7.40963">
        <ele>176</ele>
        <time>2020-08-08T15:04:20Z</time>
      </trkpt>
      <trkpt lat="48.76063" lon="7.40956">
        <ele>176</ele>
        <time>2020-08-08T15:04:21Z</time>
      </trkpt>
      <trkpt lat="48.7606" lon="7.40944">
        <ele>176</ele>
        <time>2020-08-08T15:04:23Z</time>
      </trkpt>
      <trkpt lat="48.76058" lon="7.40937">
        <ele>176</ele>
        <time>2020-08-08T15:04:24Z</time>
      </trkpt>
      <trkpt lat="48.76055" lon="7.40925">
        <ele>176</ele>
        <time>2020-08-08T15:04:26Z</time>
      </trkpt>
      <trkpt lat="48.7605" lon="7.40912">
        <ele>176</ele>
        <time>2020-08-08T15:04:28Z</time>
      </trkpt>
      <trkpt lat="48.76048" lon="7.40905">
        <ele>176</ele>
        <time>2020-08-08T15:04:29Z</time>
      </trkpt>
      <trkpt lat="48.76045" lon="7.40893">
        <ele>177</ele>
        <time>2020-08-08T15:04:31Z</time>
      </trkpt>
      <trkpt lat="48.7604" lon="7.40875">
        <ele>177</ele>
        <time>2020-08-08T15:04:34Z</time>
      </trkpt>
      <trkpt lat="48.76037" lon="7.40868">
        <ele>177</ele>
        <time>2020-08-08T15:04:35Z</time>
      </trkpt>
      <trkpt lat="48.76036" lon="7.40862">
        <ele>177</ele>
        <time>2020-08-08T15:04:36Z</time>
      </trkpt>
      <trkpt lat="48.76034" lon="7.40855">
        <ele>177</ele>
        <time>2020-08-08T15:04:37Z</time>
      </trkpt>
      <trkpt lat="48.76032" lon="7.40848">
        <ele>176</ele>
        <time>2020-08-08T15:04:38Z</time>
      </trkpt>
      <trkpt lat="48.76029" lon="7.40836">
        <ele>176</ele>
        <time>2020-08-08T15:04:40Z</time>
      </trkpt>
      <trkpt lat="48.76026" lon="7.40829">
        <ele>177</ele>
        <time>2020-08-08T15:04:41Z</time>
      </trkpt>
      <trkpt lat="48.76024" lon="7.40822">
        <ele>177</ele>
        <time>2020-08-08T15:04:42Z</time>
      </trkpt>
      <trkpt lat="48.76022" lon="7.40815">
        <ele>177</ele>
        <time>2020-08-08T15:04:43Z</time>
      </trkpt>
      <trkpt lat="48.7602" lon="7.40808">
        <ele>177</ele>
        <time>2020-08-08T15:04:44Z</time>
      </trkpt>
      <trkpt lat="48.76017" lon="7.40796">
        <ele>176</ele>
        <time>2020-08-08T15:04:46Z</time>
      </trkpt>
      <trkpt lat="48.76014" lon="7.40783">
        <ele>176</ele>
        <time>2020-08-08T15:04:48Z</time>
      </trkpt>
      <trkpt lat="48.76011" lon="7.40777">
        <ele>176</ele>
        <time>2020-08-08T15:04:49Z</time>
      </trkpt>
      <trkpt lat="48.76009" lon="7.4077">
        <ele>177</ele>
        <time>2020-08-08T15:04:50Z</time>
      </trkpt>
      <trkpt lat="48.76008" lon="7.40763">
        <ele>177</ele>
        <time>2020-08-08T15:04:51Z</time>
      </trkpt>
      <trkpt lat="48.76003" lon="7.40757">
        <ele>177</ele>
        <time>2020-08-08T15:04:52Z</time>
      </trkpt>
      <trkpt lat="48.76001" lon="7.4075">
        <ele>177</ele>
        <time>2020-08-08T15:04:53Z</time>
      </trkpt>
      <trkpt lat="48.76" lon="7.40743">
        <ele>177</ele>
        <time>2020-08-08T15:04:54Z</time>
      </trkpt>
      <trkpt lat="48.75995" lon="7.40731">
        <ele>177</ele>
        <time>2020-08-08T15:04:56Z</time>
      </trkpt>
      <trkpt lat="48.75993" lon="7.40723">
        <ele>178</ele>
        <time>2020-08-08T15:04:57Z</time>
      </trkpt>
      <trkpt lat="48.75991" lon="7.40717">
        <ele>178</ele>
        <time>2020-08-08T15:04:58Z</time>
      </trkpt>
      <trkpt lat="48.75988" lon="7.4071">
        <ele>178</ele>
        <time>2020-08-08T15:04:59Z</time>
      </trkpt>
      <trkpt lat="48.75985" lon="7.40697">
        <ele>178</ele>
        <time>2020-08-08T15:05:01Z</time>
      </trkpt>
      <trkpt lat="48.75982" lon="7.4069">
        <ele>178</ele>
        <time>2020-08-08T15:05:02Z</time>
      </trkpt>
      <trkpt lat="48.75981" lon="7.40684">
        <ele>178</ele>
        <time>2020-08-08T15:05:03Z</time>
      </trkpt>
      <trkpt lat="48.7598" lon="7.40676">
        <ele>177</ele>
        <time>2020-08-08T15:05:04Z</time>
      </trkpt>
      <trkpt lat="48.75977" lon="7.40669">
        <ele>177</ele>
        <time>2020-08-08T15:05:05Z</time>
      </trkpt>
      <trkpt lat="48.75974" lon="7.40657">
        <ele>177</ele>
        <time>2020-08-08T15:05:07Z</time>
      </trkpt>
      <trkpt lat="48.75972" lon="7.40643">
        <ele>177</ele>
        <time>2020-08-08T15:05:09Z</time>
      </trkpt>
      <trkpt lat="48.75969" lon="7.40637">
        <ele>177</ele>
        <time>2020-08-08T15:05:10Z</time>
      </trkpt>
      <trkpt lat="48.75967" lon="7.4063">
        <ele>177</ele>
        <time>2020-08-08T15:05:11Z</time>
      </trkpt>
      <trkpt lat="48.75965" lon="7.40622">
        <ele>177</ele>
        <time>2020-08-08T15:05:12Z</time>
      </trkpt>
      <trkpt lat="48.75964" lon="7.40615">
        <ele>177</ele>
        <time>2020-08-08T15:05:13Z</time>
      </trkpt>
      <trkpt lat="48.75963" lon="7.40608">
        <ele>177</ele>
        <time>2020-08-08T15:05:14Z</time>
      </trkpt>
      <trkpt lat="48.7596" lon="7.40601">
        <ele>177</ele>
        <time>2020-08-08T15:05:15Z</time>
      </trkpt>
      <trkpt lat="48.75957" lon="7.40594">
        <ele>177</ele>
        <time>2020-08-08T15:05:16Z</time>
      </trkpt>
      <trkpt lat="48.75954" lon="7.40587">
        <ele>177</ele>
        <time>2020-08-08T15:05:17Z</time>
      </trkpt>
      <trkpt lat="48.75953" lon="7.4058">
        <ele>176</ele>
        <time>2020-08-08T15:05:18Z</time>
      </trkpt>
      <trkpt lat="48.75948" lon="7.40567">
        <ele>176</ele>
        <time>2020-08-08T15:05:20Z</time>
      </trkpt>
      <trkpt lat="48.75946" lon="7.40561">
        <ele>176</ele>
        <time>2020-08-08T15:05:21Z</time>
      </trkpt>
      <trkpt lat="48.75944" lon="7.40555">
        <ele>176</ele>
        <time>2020-08-08T15:05:22Z</time>
      </trkpt>
      <trkpt lat="48.75938" lon="7.40542">
        <ele>176</ele>
        <time>2020-08-08T15:05:24Z</time>
      </trkpt>
      <trkpt lat="48.75936" lon="7.40535">
        <ele>176</ele>
        <time>2020-08-08T15:05:25Z</time>
      </trkpt>
      <trkpt lat="48.75934" lon="7.40528">
        <ele>176</ele>
        <time>2020-08-08T15:05:26Z</time>
      </trkpt>
      <trkpt lat="48.75932" lon="7.40521">
        <ele>176</ele>
        <time>2020-08-08T15:05:27Z</time>
      </trkpt>
      <trkpt lat="48.7593" lon="7.40514">
        <ele>176</ele>
        <time>2020-08-08T15:05:28Z</time>
      </trkpt>
      <trkpt lat="48.75927" lon="7.40507">
        <ele>176</ele>
        <time>2020-08-08T15:05:29Z</time>
      </trkpt>
      <trkpt lat="48.75924" lon="7.40494">
        <ele>176</ele>
        <time>2020-08-08T15:05:31Z</time>
      </trkpt>
      <trkpt lat="48.75921" lon="7.40488">
        <ele>176</ele>
        <time>2020-08-08T15:05:32Z</time>
      </trkpt>
      <trkpt lat="48.7592" lon="7.4048">
        <ele>176</ele>
        <time>2020-08-08T15:05:33Z</time>
      </trkpt>
      <trkpt lat="48.75918" lon="7.40473">
        <ele>176</ele>
        <time>2020-08-08T15:05:34Z</time>
      </trkpt>
      <trkpt lat="48.75916" lon="7.40466">
        <ele>176</ele>
        <time>2020-08-08T15:05:35Z</time>
      </trkpt>
      <trkpt lat="48.75911" lon="7.40454">
        <ele>176</ele>
        <time>2020-08-08T15:05:37Z</time>
      </trkpt>
      <trkpt lat="48.75909" lon="7.40447">
        <ele>176</ele>
        <time>2020-08-08T15:05:38Z</time>
      </trkpt>
      <trkpt lat="48.75907" lon="7.40441">
        <ele>176</ele>
        <time>2020-08-08T15:05:39Z</time>
      </trkpt>
      <trkpt lat="48.75905" lon="7.40435">
        <ele>176</ele>
        <time>2020-08-08T15:05:40Z</time>
      </trkpt>
      <trkpt lat="48.75903" lon="7.40428">
        <ele>176</ele>
        <time>2020-08-08T15:05:41Z</time>
      </trkpt>
      <trkpt lat="48.75903" lon="7.4042">
        <ele>176</ele>
        <time>2020-08-08T15:05:42Z</time>
      </trkpt>
      <trkpt lat="48.759" lon="7.40413">
        <ele>176</ele>
        <time>2020-08-08T15:05:43Z</time>
      </trkpt>
      <trkpt lat="48.75898" lon="7.40407">
        <ele>176</ele>
        <time>2020-08-08T15:05:44Z</time>
      </trkpt>
      <trkpt lat="48.75895" lon="7.404">
        <ele>176</ele>
        <time>2020-08-08T15:05:45Z</time>
      </trkpt>
      <trkpt lat="48.75892" lon="7.40389">
        <ele>176</ele>
        <time>2020-08-08T15:05:47Z</time>
      </trkpt>
      <trkpt lat="48.75888" lon="7.40383">
        <ele>176</ele>
        <time>2020-08-08T15:05:48Z</time>
      </trkpt>
      <trkpt lat="48.75886" lon="7.40376">
        <ele>176</ele>
        <time>2020-08-08T15:05:49Z</time>
      </trkpt>
      <trkpt lat="48.75884" lon="7.40368">
        <ele>176</ele>
        <time>2020-08-08T15:05:50Z</time>
      </trkpt>
      <trkpt lat="48.75882" lon="7.40362">
        <ele>177</ele>
        <time>2020-08-08T15:05:51Z</time>
      </trkpt>
      <trkpt lat="48.75881" lon="7.40355">
        <ele>177</ele>
        <time>2020-08-08T15:05:52Z</time>
      </trkpt>
      <trkpt lat="48.75877" lon="7.40343">
        <ele>177</ele>
        <time>2020-08-08T15:05:54Z</time>
      </trkpt>
      <trkpt lat="48.75874" lon="7.4033">
        <ele>176</ele>
        <time>2020-08-08T15:05:56Z</time>
      </trkpt>
      <trkpt lat="48.7587" lon="7.40318">
        <ele>176</ele>
        <time>2020-08-08T15:05:58Z</time>
      </trkpt>
      <trkpt lat="48.75867" lon="7.40312">
        <ele>176</ele>
        <time>2020-08-08T15:05:59Z</time>
      </trkpt>
      <trkpt lat="48.75866" lon="7.40305">
        <ele>176</ele>
        <time>2020-08-08T15:06:00Z</time>
      </trkpt>
      <trkpt lat="48.75864" lon="7.40298">
        <ele>176</ele>
        <time>2020-08-08T15:06:01Z</time>
      </trkpt>
      <trkpt lat="48.7586" lon="7.40285">
        <ele>176</ele>
        <time>2020-08-08T15:06:03Z</time>
      </trkpt>
      <trkpt lat="48.75855" lon="7.40272">
        <ele>175</ele>
        <time>2020-08-08T15:06:05Z</time>
      </trkpt>
      <trkpt lat="48.75851" lon="7.40261">
        <ele>176</ele>
        <time>2020-08-08T15:06:07Z</time>
      </trkpt>
      <trkpt lat="48.75847" lon="7.40251">
        <ele>176</ele>
        <time>2020-08-08T15:06:09Z</time>
      </trkpt>
      <trkpt lat="48.75844" lon="7.40241">
        <ele>177</ele>
        <time>2020-08-08T15:06:11Z</time>
      </trkpt>
      <trkpt lat="48.7584" lon="7.40233">
        <ele>178</ele>
        <time>2020-08-08T15:06:13Z</time>
      </trkpt>
      <trkpt lat="48.75837" lon="7.40224">
        <ele>178</ele>
        <time>2020-08-08T15:06:15Z</time>
      </trkpt>
      <trkpt lat="48.75835" lon="7.40215">
        <ele>178</ele>
        <time>2020-08-08T15:06:17Z</time>
      </trkpt>
      <trkpt lat="48.75832" lon="7.40206">
        <ele>178</ele>
        <time>2020-08-08T15:06:19Z</time>
      </trkpt>
      <trkpt lat="48.75829" lon="7.40195">
        <ele>178</ele>
        <time>2020-08-08T15:06:21Z</time>
      </trkpt>
      <trkpt lat="48.75827" lon="7.40188">
        <ele>178</ele>
        <time>2020-08-08T15:06:23Z</time>
      </trkpt>
      <trkpt lat="48.75826" lon="7.4018">
        <ele>177</ele>
        <time>2020-08-08T15:06:25Z</time>
      </trkpt>
      <trkpt lat="48.75823" lon="7.4017">
        <ele>178</ele>
        <time>2020-08-08T15:06:27Z</time>
      </trkpt>
      <trkpt lat="48.7582" lon="7.40161">
        <ele>178</ele>
        <time>2020-08-08T15:06:29Z</time>
      </trkpt>
      <trkpt lat="48.75818" lon="7.40152">
        <ele>178</ele>
        <time>2020-08-08T15:06:31Z</time>
      </trkpt>
      <trkpt lat="48.75815" lon="7.40143">
        <ele>178</ele>
        <time>2020-08-08T15:06:33Z</time>
      </trkpt>
      <trkpt lat="48.75812" lon="7.40134">
        <ele>178</ele>
        <time>2020-08-08T15:06:35Z</time>
      </trkpt>
      <trkpt lat="48.75809" lon="7.40123">
        <ele>178</ele>
        <time>2020-08-08T15:06:37Z</time>
      </trkpt>
      <trkpt lat="48.75807" lon="7.40113">
        <ele>178</ele>
        <time>2020-08-08T15:06:39Z</time>
      </trkpt>
      <trkpt lat="48.75804" lon="7.40102">
        <ele>178</ele>
        <time>2020-08-08T15:06:41Z</time>
      </trkpt>
      <trkpt lat="48.758" lon="7.40092">
        <ele>178</ele>
        <time>2020-08-08T15:06:43Z</time>
      </trkpt>
      <trkpt lat="48.75797" lon="7.40082">
        <ele>178</ele>
        <time>2020-08-08T15:06:45Z</time>
      </trkpt>
      <trkpt lat="48.75793" lon="7.40073">
        <ele>178</ele>
        <time>2020-08-08T15:06:47Z</time>
      </trkpt>
      <trkpt lat="48.7579" lon="7.40063">
        <ele>178</ele>
        <time>2020-08-08T15:06:49Z</time>
      </trkpt>
      <trkpt lat="48.75787" lon="7.40052">
        <ele>179</ele>
        <time>2020-08-08T15:06:51Z</time>
      </trkpt>
      <trkpt lat="48.75785" lon="7.40045">
        <ele>179</ele>
        <time>2020-08-08T15:06:53Z</time>
      </trkpt>
      <trkpt lat="48.75782" lon="7.40035">
        <ele>179</ele>
        <time>2020-08-08T15:06:55Z</time>
      </trkpt>
      <trkpt lat="48.75781" lon="7.40026">
        <ele>178</ele>
        <time>2020-08-08T15:06:57Z</time>
      </trkpt>
      <trkpt lat="48.75778" lon="7.40016">
        <ele>178</ele>
        <time>2020-08-08T15:06:59Z</time>
      </trkpt>
      <trkpt lat="48.75775" lon="7.40005">
        <ele>178</ele>
        <time>2020-08-08T15:07:01Z</time>
      </trkpt>
      <trkpt lat="48.75772" lon="7.39995">
        <ele>178</ele>
        <time>2020-08-08T15:07:03Z</time>
      </trkpt>
      <trkpt lat="48.75768" lon="7.39984">
        <ele>179</ele>
        <time>2020-08-08T15:07:05Z</time>
      </trkpt>
      <trkpt lat="48.75764" lon="7.39973">
        <ele>179</ele>
        <time>2020-08-08T15:07:07Z</time>
      </trkpt>
      <trkpt lat="48.7576" lon="7.39961">
        <ele>179</ele>
        <time>2020-08-08T15:07:09Z</time>
      </trkpt>
      <trkpt lat="48.75757" lon="7.39952">
        <ele>179</ele>
        <time>2020-08-08T15:07:11Z</time>
      </trkpt>
      <trkpt lat="48.75753" lon="7.39943">
        <ele>179</ele>
        <time>2020-08-08T15:07:13Z</time>
      </trkpt>
      <trkpt lat="48.75751" lon="7.39937">
        <ele>179</ele>
        <time>2020-08-08T15:07:14Z</time>
      </trkpt>
      <trkpt lat="48.75749" lon="7.39927">
        <ele>179</ele>
        <time>2020-08-08T15:07:16Z</time>
      </trkpt>
      <trkpt lat="48.75745" lon="7.39916">
        <ele>179</ele>
        <time>2020-08-08T15:07:18Z</time>
      </trkpt>
      <trkpt lat="48.75741" lon="7.39905">
        <ele>179</ele>
        <time>2020-08-08T15:07:20Z</time>
      </trkpt>
      <trkpt lat="48.75738" lon="7.39895">
        <ele>179</ele>
        <time>2020-08-08T15:07:22Z</time>
      </trkpt>
      <trkpt lat="48.75734" lon="7.39883">
        <ele>179</ele>
        <time>2020-08-08T15:07:24Z</time>
      </trkpt>
      <trkpt lat="48.75732" lon="7.39877">
        <ele>179</ele>
        <time>2020-08-08T15:07:25Z</time>
      </trkpt>
      <trkpt lat="48.75728" lon="7.39867">
        <ele>180</ele>
        <time>2020-08-08T15:07:27Z</time>
      </trkpt>
      <trkpt lat="48.75726" lon="7.39858">
        <ele>180</ele>
        <time>2020-08-08T15:07:29Z</time>
      </trkpt>
      <trkpt lat="48.75723" lon="7.39848">
        <ele>180</ele>
        <time>2020-08-08T15:07:31Z</time>
      </trkpt>
      <trkpt lat="48.75721" lon="7.3984">
        <ele>181</ele>
        <time>2020-08-08T15:07:33Z</time>
      </trkpt>
      <trkpt lat="48.75719" lon="7.39834">
        <ele>181</ele>
        <time>2020-08-08T15:07:35Z</time>
      </trkpt>
      <trkpt lat="48.75717" lon="7.39826">
        <ele>182</ele>
        <time>2020-08-08T15:07:38Z</time>
      </trkpt>
      <trkpt lat="48.75717" lon="7.39818">
        <ele>181</ele>
        <time>2020-08-08T15:07:41Z</time>
      </trkpt>
      <trkpt lat="48.75715" lon="7.39809">
        <ele>181</ele>
        <time>2020-08-08T15:07:43Z</time>
      </trkpt>
      <trkpt lat="48.75712" lon="7.39801">
        <ele>181</ele>
        <time>2020-08-08T15:07:45Z</time>
      </trkpt>
      <trkpt lat="48.7571" lon="7.39793">
        <ele>181</ele>
        <time>2020-08-08T15:07:47Z</time>
      </trkpt>
      <trkpt lat="48.75707" lon="7.39784">
        <ele>181</ele>
        <time>2020-08-08T15:07:49Z</time>
      </trkpt>
      <trkpt lat="48.75705" lon="7.39774">
        <ele>181</ele>
        <time>2020-08-08T15:07:51Z</time>
      </trkpt>
      <trkpt lat="48.75702" lon="7.39766">
        <ele>181</ele>
        <time>2020-08-08T15:07:53Z</time>
      </trkpt>
      <trkpt lat="48.75699" lon="7.39758">
        <ele>181</ele>
        <time>2020-08-08T15:07:55Z</time>
      </trkpt>
      <trkpt lat="48.75698" lon="7.39749">
        <ele>181</ele>
        <time>2020-08-08T15:07:57Z</time>
      </trkpt>
      <trkpt lat="48.75697" lon="7.39742">
        <ele>181</ele>
        <time>2020-08-08T15:07:59Z</time>
      </trkpt>
      <trkpt lat="48.75694" lon="7.39734">
        <ele>181</ele>
        <time>2020-08-08T15:08:01Z</time>
      </trkpt>
      <trkpt lat="48.75692" lon="7.39726">
        <ele>181</ele>
        <time>2020-08-08T15:08:03Z</time>
      </trkpt>
      <trkpt lat="48.75689" lon="7.39717">
        <ele>181</ele>
        <time>2020-08-08T15:08:05Z</time>
      </trkpt>
      <trkpt lat="48.75686" lon="7.39708">
        <ele>181</ele>
        <time>2020-08-08T15:08:07Z</time>
      </trkpt>
      <trkpt lat="48.75682" lon="7.39698">
        <ele>181</ele>
        <time>2020-08-08T15:08:09Z</time>
      </trkpt>
      <trkpt lat="48.7568" lon="7.39688">
        <ele>181</ele>
        <time>2020-08-08T15:08:11Z</time>
      </trkpt>
      <trkpt lat="48.75677" lon="7.39677">
        <ele>181</ele>
        <time>2020-08-08T15:08:13Z</time>
      </trkpt>
      <trkpt lat="48.75674" lon="7.39665">
        <ele>181</ele>
        <time>2020-08-08T15:08:15Z</time>
      </trkpt>
      <trkpt lat="48.7567" lon="7.39653">
        <ele>181</ele>
        <time>2020-08-08T15:08:17Z</time>
      </trkpt>
      <trkpt lat="48.75666" lon="7.39642">
        <ele>181</ele>
        <time>2020-08-08T15:08:19Z</time>
      </trkpt>
      <trkpt lat="48.75663" lon="7.3963">
        <ele>182</ele>
        <time>2020-08-08T15:08:21Z</time>
      </trkpt>
      <trkpt lat="48.7566" lon="7.39617">
        <ele>182</ele>
        <time>2020-08-08T15:08:23Z</time>
      </trkpt>
      <trkpt lat="48.75657" lon="7.39605">
        <ele>182</ele>
        <time>2020-08-08T15:08:25Z</time>
      </trkpt>
      <trkpt lat="48.75654" lon="7.39593">
        <ele>182</ele>
        <time>2020-08-08T15:08:27Z</time>
      </trkpt>
      <trkpt lat="48.7565" lon="7.39587">
        <ele>182</ele>
        <time>2020-08-08T15:08:28Z</time>
      </trkpt>
      <trkpt lat="48.75647" lon="7.39575">
        <ele>181</ele>
        <time>2020-08-08T15:08:30Z</time>
      </trkpt>
      <trkpt lat="48.75643" lon="7.39562">
        <ele>182</ele>
        <time>2020-08-08T15:08:32Z</time>
      </trkpt>
      <trkpt lat="48.75641" lon="7.39556">
        <ele>182</ele>
        <time>2020-08-08T15:08:33Z</time>
      </trkpt>
      <trkpt lat="48.75639" lon="7.3955">
        <ele>181</ele>
        <time>2020-08-08T15:08:34Z</time>
      </trkpt>
      <trkpt lat="48.75635" lon="7.39537">
        <ele>182</ele>
        <time>2020-08-08T15:08:36Z</time>
      </trkpt>
      <trkpt lat="48.75631" lon="7.39525">
        <ele>182</ele>
        <time>2020-08-08T15:08:38Z</time>
      </trkpt>
      <trkpt lat="48.75629" lon="7.39518">
        <ele>182</ele>
        <time>2020-08-08T15:08:39Z</time>
      </trkpt>
      <trkpt lat="48.75628" lon="7.39512">
        <ele>182</ele>
        <time>2020-08-08T15:08:40Z</time>
      </trkpt>
      <trkpt lat="48.75624" lon="7.39499">
        <ele>182</ele>
        <time>2020-08-08T15:08:42Z</time>
      </trkpt>
      <trkpt lat="48.7562" lon="7.39487">
        <ele>183</ele>
        <time>2020-08-08T15:08:44Z</time>
      </trkpt>
      <trkpt lat="48.75617" lon="7.39475">
        <ele>183</ele>
        <time>2020-08-08T15:08:46Z</time>
      </trkpt>
      <trkpt lat="48.75615" lon="7.39468">
        <ele>183</ele>
        <time>2020-08-08T15:08:47Z</time>
      </trkpt>
      <trkpt lat="48.75613" lon="7.39462">
        <ele>183</ele>
        <time>2020-08-08T15:08:48Z</time>
      </trkpt>
      <trkpt lat="48.75611" lon="7.39456">
        <ele>183</ele>
        <time>2020-08-08T15:08:49Z</time>
      </trkpt>
      <trkpt lat="48.75607" lon="7.39443">
        <ele>184</ele>
        <time>2020-08-08T15:08:51Z</time>
      </trkpt>
      <trkpt lat="48.75605" lon="7.39437">
        <ele>183</ele>
        <time>2020-08-08T15:08:52Z</time>
      </trkpt>
      <trkpt lat="48.75602" lon="7.39425">
        <ele>183</ele>
        <time>2020-08-08T15:08:54Z</time>
      </trkpt>
      <trkpt lat="48.756" lon="7.39419">
        <ele>183</ele>
        <time>2020-08-08T15:08:55Z</time>
      </trkpt>
      <trkpt lat="48.75596" lon="7.39406">
        <ele>182</ele>
        <time>2020-08-08T15:08:57Z</time>
      </trkpt>
      <trkpt lat="48.75592" lon="7.39394">
        <ele>182</ele>
        <time>2020-08-08T15:08:59Z</time>
      </trkpt>
      <trkpt lat="48.75589" lon="7.39381">
        <ele>182</ele>
        <time>2020-08-08T15:09:01Z</time>
      </trkpt>
      <trkpt lat="48.75585" lon="7.39369">
        <ele>182</ele>
        <time>2020-08-08T15:09:03Z</time>
      </trkpt>
      <trkpt lat="48.75583" lon="7.39363">
        <ele>182</ele>
        <time>2020-08-08T15:09:04Z</time>
      </trkpt>
      <trkpt lat="48.75579" lon="7.3935">
        <ele>182</ele>
        <time>2020-08-08T15:09:06Z</time>
      </trkpt>
      <trkpt lat="48.75577" lon="7.39344">
        <ele>182</ele>
        <time>2020-08-08T15:09:07Z</time>
      </trkpt>
      <trkpt lat="48.75576" lon="7.39337">
        <ele>182</ele>
        <time>2020-08-08T15:09:08Z</time>
      </trkpt>
      <trkpt lat="48.75573" lon="7.39331">
        <ele>182</ele>
        <time>2020-08-08T15:09:09Z</time>
      </trkpt>
      <trkpt lat="48.7557" lon="7.39318">
        <ele>182</ele>
        <time>2020-08-08T15:09:11Z</time>
      </trkpt>
      <trkpt lat="48.75568" lon="7.39312">
        <ele>182</ele>
        <time>2020-08-08T15:09:12Z</time>
      </trkpt>
      <trkpt lat="48.75566" lon="7.39305">
        <ele>182</ele>
        <time>2020-08-08T15:09:13Z</time>
      </trkpt>
      <trkpt lat="48.75564" lon="7.39298">
        <ele>182</ele>
        <time>2020-08-08T15:09:14Z</time>
      </trkpt>
      <trkpt lat="48.75562" lon="7.39292">
        <ele>182</ele>
        <time>2020-08-08T15:09:15Z</time>
      </trkpt>
      <trkpt lat="48.7556" lon="7.39285">
        <ele>182</ele>
        <time>2020-08-08T15:09:16Z</time>
      </trkpt>
      <trkpt lat="48.75558" lon="7.39279">
        <ele>182</ele>
        <time>2020-08-08T15:09:17Z</time>
      </trkpt>
      <trkpt lat="48.75556" lon="7.39272">
        <ele>182</ele>
        <time>2020-08-08T15:09:18Z</time>
      </trkpt>
      <trkpt lat="48.75554" lon="7.39265">
        <ele>182</ele>
        <time>2020-08-08T15:09:19Z</time>
      </trkpt>
      <trkpt lat="48.75551" lon="7.39259">
        <ele>182</ele>
        <time>2020-08-08T15:09:20Z</time>
      </trkpt>
      <trkpt lat="48.75547" lon="7.39246">
        <ele>183</ele>
        <time>2020-08-08T15:09:22Z</time>
      </trkpt>
      <trkpt lat="48.75543" lon="7.39234">
        <ele>183</ele>
        <time>2020-08-08T15:09:24Z</time>
      </trkpt>
      <trkpt lat="48.75541" lon="7.39228">
        <ele>183</ele>
        <time>2020-08-08T15:09:25Z</time>
      </trkpt>
      <trkpt lat="48.75539" lon="7.39222">
        <ele>183</ele>
        <time>2020-08-08T15:09:26Z</time>
      </trkpt>
      <trkpt lat="48.75536" lon="7.3921">
        <ele>183</ele>
        <time>2020-08-08T15:09:28Z</time>
      </trkpt>
      <trkpt lat="48.75533" lon="7.39198">
        <ele>182</ele>
        <time>2020-08-08T15:09:30Z</time>
      </trkpt>
      <trkpt lat="48.75529" lon="7.39186">
        <ele>181</ele>
        <time>2020-08-08T15:09:32Z</time>
      </trkpt>
      <trkpt lat="48.75524" lon="7.39168">
        <ele>181</ele>
        <time>2020-08-08T15:09:35Z</time>
      </trkpt>
      <trkpt lat="48.75518" lon="7.39157">
        <ele>181</ele>
        <time>2020-08-08T15:09:37Z</time>
      </trkpt>
      <trkpt lat="48.75515" lon="7.39145">
        <ele>181</ele>
        <time>2020-08-08T15:09:39Z</time>
      </trkpt>
      <trkpt lat="48.75513" lon="7.39139">
        <ele>181</ele>
        <time>2020-08-08T15:09:40Z</time>
      </trkpt>
      <trkpt lat="48.75509" lon="7.39127">
        <ele>182</ele>
        <time>2020-08-08T15:09:42Z</time>
      </trkpt>
      <trkpt lat="48.75505" lon="7.39115">
        <ele>182</ele>
        <time>2020-08-08T15:09:44Z</time>
      </trkpt>
      <trkpt lat="48.75503" lon="7.39108">
        <ele>182</ele>
        <time>2020-08-08T15:09:45Z</time>
      </trkpt>
      <trkpt lat="48.755" lon="7.39096">
        <ele>182</ele>
        <time>2020-08-08T15:09:47Z</time>
      </trkpt>
      <trkpt lat="48.75497" lon="7.3909">
        <ele>181</ele>
        <time>2020-08-08T15:09:48Z</time>
      </trkpt>
      <trkpt lat="48.75494" lon="7.39078">
        <ele>181</ele>
        <time>2020-08-08T15:09:50Z</time>
      </trkpt>
      <trkpt lat="48.75491" lon="7.39067">
        <ele>181</ele>
        <time>2020-08-08T15:09:52Z</time>
      </trkpt>
      <trkpt lat="48.75485" lon="7.39048">
        <ele>182</ele>
        <time>2020-08-08T15:09:55Z</time>
      </trkpt>
      <trkpt lat="48.75481" lon="7.39036">
        <ele>182</ele>
        <time>2020-08-08T15:09:57Z</time>
      </trkpt>
      <trkpt lat="48.7548" lon="7.3903">
        <ele>182</ele>
        <time>2020-08-08T15:09:58Z</time>
      </trkpt>
      <trkpt lat="48.75477" lon="7.39024">
        <ele>182</ele>
        <time>2020-08-08T15:09:59Z</time>
      </trkpt>
      <trkpt lat="48.75475" lon="7.39017">
        <ele>182</ele>
        <time>2020-08-08T15:10:00Z</time>
      </trkpt>
      <trkpt lat="48.75474" lon="7.3901">
        <ele>182</ele>
        <time>2020-08-08T15:10:01Z</time>
      </trkpt>
      <trkpt lat="48.75472" lon="7.39004">
        <ele>182</ele>
        <time>2020-08-08T15:10:02Z</time>
      </trkpt>
      <trkpt lat="48.75469" lon="7.38998">
        <ele>182</ele>
        <time>2020-08-08T15:10:03Z</time>
      </trkpt>
      <trkpt lat="48.75467" lon="7.38992">
        <ele>182</ele>
        <time>2020-08-08T15:10:04Z</time>
      </trkpt>
      <trkpt lat="48.75465" lon="7.38986">
        <ele>182</ele>
        <time>2020-08-08T15:10:05Z</time>
      </trkpt>
      <trkpt lat="48.75463" lon="7.38979">
        <ele>182</ele>
        <time>2020-08-08T15:10:06Z</time>
      </trkpt>
      <trkpt lat="48.7546" lon="7.38973">
        <ele>183</ele>
        <time>2020-08-08T15:10:07Z</time>
      </trkpt>
      <trkpt lat="48.75456" lon="7.38961">
        <ele>184</ele>
        <time>2020-08-08T15:10:09Z</time>
      </trkpt>
      <trkpt lat="48.75452" lon="7.3895">
        <ele>185</ele>
        <time>2020-08-08T15:10:11Z</time>
      </trkpt>
      <trkpt lat="48.75449" lon="7.38944">
        <ele>185</ele>
        <time>2020-08-08T15:10:12Z</time>
      </trkpt>
      <trkpt lat="48.75447" lon="7.38938">
        <ele>185</ele>
        <time>2020-08-08T15:10:13Z</time>
      </trkpt>
      <trkpt lat="48.75442" lon="7.38926">
        <ele>185</ele>
        <time>2020-08-08T15:10:15Z</time>
      </trkpt>
      <trkpt lat="48.75439" lon="7.3892">
        <ele>185</ele>
        <time>2020-08-08T15:10:16Z</time>
      </trkpt>
      <trkpt lat="48.75435" lon="7.38909">
        <ele>186</ele>
        <time>2020-08-08T15:10:18Z</time>
      </trkpt>
      <trkpt lat="48.75428" lon="7.38892">
        <ele>186</ele>
        <time>2020-08-08T15:10:21Z</time>
      </trkpt>
      <trkpt lat="48.75423" lon="7.38882">
        <ele>187</ele>
        <time>2020-08-08T15:10:23Z</time>
      </trkpt>
      <trkpt lat="48.75419" lon="7.38871">
        <ele>187</ele>
        <time>2020-08-08T15:10:25Z</time>
      </trkpt>
      <trkpt lat="48.75415" lon="7.38865">
        <ele>187</ele>
        <time>2020-08-08T15:10:26Z</time>
      </trkpt>
      <trkpt lat="48.75413" lon="7.38859">
        <ele>187</ele>
        <time>2020-08-08T15:10:27Z</time>
      </trkpt>
      <trkpt lat="48.75407" lon="7.38849">
        <ele>187</ele>
        <time>2020-08-08T15:10:29Z</time>
      </trkpt>
      <trkpt lat="48.75402" lon="7.38838">
        <ele>187</ele>
        <time>2020-08-08T15:10:31Z</time>
      </trkpt>
      <trkpt lat="48.754" lon="7.38832">
        <ele>187</ele>
        <time>2020-08-08T15:10:32Z</time>
      </trkpt>
      <trkpt lat="48.75394" lon="7.38822">
        <ele>186</ele>
        <time>2020-08-08T15:10:34Z</time>
      </trkpt>
      <trkpt lat="48.75391" lon="7.38817">
        <ele>186</ele>
        <time>2020-08-08T15:10:35Z</time>
      </trkpt>
      <trkpt lat="48.75388" lon="7.38811">
        <ele>186</ele>
        <time>2020-08-08T15:10:36Z</time>
      </trkpt>
      <trkpt lat="48.75385" lon="7.38806">
        <ele>186</ele>
        <time>2020-08-08T15:10:37Z</time>
      </trkpt>
      <trkpt lat="48.75379" lon="7.38796">
        <ele>186</ele>
        <time>2020-08-08T15:10:39Z</time>
      </trkpt>
      <trkpt lat="48.75374" lon="7.38787">
        <ele>186</ele>
        <time>2020-08-08T15:10:41Z</time>
      </trkpt>
      <trkpt lat="48.75371" lon="7.38781">
        <ele>185</ele>
        <time>2020-08-08T15:10:42Z</time>
      </trkpt>
      <trkpt lat="48.75362" lon="7.38767">
        <ele>185</ele>
        <time>2020-08-08T15:10:45Z</time>
      </trkpt>
      <trkpt lat="48.75359" lon="7.38762">
        <ele>185</ele>
        <time>2020-08-08T15:10:46Z</time>
      </trkpt>
      <trkpt lat="48.75355" lon="7.38759">
        <ele>185</ele>
        <time>2020-08-08T15:10:47Z</time>
      </trkpt>
      <trkpt lat="48.75348" lon="7.38751">
        <ele>185</ele>
        <time>2020-08-08T15:10:49Z</time>
      </trkpt>
      <trkpt lat="48.75345" lon="7.38745">
        <ele>185</ele>
        <time>2020-08-08T15:10:50Z</time>
      </trkpt>
      <trkpt lat="48.75341" lon="7.3874">
        <ele>185</ele>
        <time>2020-08-08T15:10:51Z</time>
      </trkpt>
      <trkpt lat="48.75338" lon="7.38735">
        <ele>185</ele>
        <time>2020-08-08T15:10:52Z</time>
      </trkpt>
      <trkpt lat="48.75334" lon="7.38731">
        <ele>184</ele>
        <time>2020-08-08T15:10:53Z</time>
      </trkpt>
      <trkpt lat="48.75327" lon="7.38723">
        <ele>184</ele>
        <time>2020-08-08T15:10:55Z</time>
      </trkpt>
      <trkpt lat="48.75324" lon="7.38719">
        <ele>184</ele>
        <time>2020-08-08T15:10:56Z</time>
      </trkpt>
      <trkpt lat="48.75317" lon="7.38709">
        <ele>184</ele>
        <time>2020-08-08T15:10:58Z</time>
      </trkpt>
      <trkpt lat="48.75313" lon="7.38705">
        <ele>184</ele>
        <time>2020-08-08T15:10:59Z</time>
      </trkpt>
      <trkpt lat="48.7531" lon="7.387">
        <ele>184</ele>
        <time>2020-08-08T15:11:00Z</time>
      </trkpt>
      <trkpt lat="48.75306" lon="7.38695">
        <ele>184</ele>
        <time>2020-08-08T15:11:01Z</time>
      </trkpt>
      <trkpt lat="48.75302" lon="7.38691">
        <ele>184</ele>
        <time>2020-08-08T15:11:02Z</time>
      </trkpt>
      <trkpt lat="48.75295" lon="7.38681">
        <ele>184</ele>
        <time>2020-08-08T15:11:04Z</time>
      </trkpt>
      <trkpt lat="48.75291" lon="7.38677">
        <ele>184</ele>
        <time>2020-08-08T15:11:05Z</time>
      </trkpt>
      <trkpt lat="48.75288" lon="7.38672">
        <ele>184</ele>
        <time>2020-08-08T15:11:06Z</time>
      </trkpt>
      <trkpt lat="48.75281" lon="7.38664">
        <ele>184</ele>
        <time>2020-08-08T15:11:08Z</time>
      </trkpt>
      <trkpt lat="48.75277" lon="7.38659">
        <ele>183</ele>
        <time>2020-08-08T15:11:09Z</time>
      </trkpt>
      <trkpt lat="48.75273" lon="7.38655">
        <ele>183</ele>
        <time>2020-08-08T15:11:10Z</time>
      </trkpt>
      <trkpt lat="48.75269" lon="7.38651">
        <ele>183</ele>
        <time>2020-08-08T15:11:11Z</time>
      </trkpt>
      <trkpt lat="48.7526" lon="7.38643">
        <ele>183</ele>
        <time>2020-08-08T15:11:13Z</time>
      </trkpt>
      <trkpt lat="48.75256" lon="7.38639">
        <ele>183</ele>
        <time>2020-08-08T15:11:14Z</time>
      </trkpt>
      <trkpt lat="48.75248" lon="7.38631">
        <ele>183</ele>
        <time>2020-08-08T15:11:16Z</time>
      </trkpt>
      <trkpt lat="48.75244" lon="7.38627">
        <ele>183</ele>
        <time>2020-08-08T15:11:17Z</time>
      </trkpt>
      <trkpt lat="48.75239" lon="7.38623">
        <ele>183</ele>
        <time>2020-08-08T15:11:18Z</time>
      </trkpt>
      <trkpt lat="48.75235" lon="7.38619">
        <ele>183</ele>
        <time>2020-08-08T15:11:19Z</time>
      </trkpt>
      <trkpt lat="48.75231" lon="7.38615">
        <ele>183</ele>
        <time>2020-08-08T15:11:20Z</time>
      </trkpt>
      <trkpt lat="48.75226" lon="7.38611">
        <ele>183</ele>
        <time>2020-08-08T15:11:21Z</time>
      </trkpt>
      <trkpt lat="48.75222" lon="7.38607">
        <ele>183</ele>
        <time>2020-08-08T15:11:22Z</time>
      </trkpt>
      <trkpt lat="48.75218" lon="7.38603">
        <ele>184</ele>
        <time>2020-08-08T15:11:23Z</time>
      </trkpt>
      <trkpt lat="48.75214" lon="7.38599">
        <ele>184</ele>
        <time>2020-08-08T15:11:24Z</time>
      </trkpt>
      <trkpt lat="48.75206" lon="7.38591">
        <ele>183</ele>
        <time>2020-08-08T15:11:26Z</time>
      </trkpt>
      <trkpt lat="48.75202" lon="7.38587">
        <ele>183</ele>
        <time>2020-08-08T15:11:27Z</time>
      </trkpt>
      <trkpt lat="48.75198" lon="7.38583">
        <ele>183</ele>
        <time>2020-08-08T15:11:28Z</time>
      </trkpt>
      <trkpt lat="48.7519" lon="7.38576">
        <ele>183</ele>
        <time>2020-08-08T15:11:30Z</time>
      </trkpt>
      <trkpt lat="48.75183" lon="7.38567">
        <ele>183</ele>
        <time>2020-08-08T15:11:32Z</time>
      </trkpt>
      <trkpt lat="48.75179" lon="7.38564">
        <ele>183</ele>
        <time>2020-08-08T15:11:33Z</time>
      </trkpt>
      <trkpt lat="48.75171" lon="7.38557">
        <ele>183</ele>
        <time>2020-08-08T15:11:35Z</time>
      </trkpt>
      <trkpt lat="48.75167" lon="7.38555">
        <ele>183</ele>
        <time>2020-08-08T15:11:36Z</time>
      </trkpt>
      <trkpt lat="48.7516" lon="7.38548">
        <ele>183</ele>
        <time>2020-08-08T15:11:38Z</time>
      </trkpt>
      <trkpt lat="48.75155" lon="7.38542">
        <ele>183</ele>
        <time>2020-08-08T15:11:40Z</time>
      </trkpt>
      <trkpt lat="48.75148" lon="7.38535">
        <ele>183</ele>
        <time>2020-08-08T15:11:42Z</time>
      </trkpt>
      <trkpt lat="48.75143" lon="7.38532">
        <ele>183</ele>
        <time>2020-08-08T15:11:44Z</time>
      </trkpt>
      <trkpt lat="48.75139" lon="7.38529">
        <ele>184</ele>
        <time>2020-08-08T15:11:46Z</time>
      </trkpt>
      <trkpt lat="48.75134" lon="7.38526">
        <ele>184</ele>
        <time>2020-08-08T15:11:49Z</time>
      </trkpt>
      <trkpt lat="48.7513" lon="7.3852">
        <ele>185</ele>
        <time>2020-08-08T15:11:52Z</time>
      </trkpt>
      <trkpt lat="48.75126" lon="7.38515">
        <ele>185</ele>
        <time>2020-08-08T15:11:55Z</time>
      </trkpt>
      <trkpt lat="48.75123" lon="7.38509">
        <ele>185</ele>
        <time>2020-08-08T15:11:57Z</time>
      </trkpt>
      <trkpt lat="48.75118" lon="7.38502">
        <ele>185</ele>
        <time>2020-08-08T15:11:59Z</time>
      </trkpt>
      <trkpt lat="48.75116" lon="7.38496">
        <ele>185</ele>
        <time>2020-08-08T15:12:00Z</time>
      </trkpt>
      <trkpt lat="48.75113" lon="7.3849">
        <ele>185</ele>
        <time>2020-08-08T15:12:01Z</time>
      </trkpt>
      <trkpt lat="48.75108" lon="7.38485">
        <ele>185</ele>
        <time>2020-08-08T15:12:02Z</time>
      </trkpt>
      <trkpt lat="48.75104" lon="7.38481">
        <ele>185</ele>
        <time>2020-08-08T15:12:03Z</time>
      </trkpt>
      <trkpt lat="48.75096" lon="7.38475">
        <ele>184</ele>
        <time>2020-08-08T15:12:05Z</time>
      </trkpt>
      <trkpt lat="48.75088" lon="7.3847">
        <ele>184</ele>
        <time>2020-08-08T15:12:07Z</time>
      </trkpt>
      <trkpt lat="48.75082" lon="7.38463">
        <ele>184</ele>
        <time>2020-08-08T15:12:09Z</time>
      </trkpt>
      <trkpt lat="48.75075" lon="7.38458">
        <ele>184</ele>
        <time>2020-08-08T15:12:11Z</time>
      </trkpt>
      <trkpt lat="48.75069" lon="7.38449">
        <ele>184</ele>
        <time>2020-08-08T15:12:13Z</time>
      </trkpt>
      <trkpt lat="48.75061" lon="7.38443">
        <ele>184</ele>
        <time>2020-08-08T15:12:15Z</time>
      </trkpt>
      <trkpt lat="48.75054" lon="7.38437">
        <ele>184</ele>
        <time>2020-08-08T15:12:17Z</time>
      </trkpt>
      <trkpt lat="48.75047" lon="7.3843">
        <ele>184</ele>
        <time>2020-08-08T15:12:19Z</time>
      </trkpt>
      <trkpt lat="48.75036" lon="7.3842">
        <ele>184</ele>
        <time>2020-08-08T15:12:22Z</time>
      </trkpt>
      <trkpt lat="48.7503" lon="7.38412">
        <ele>185</ele>
        <time>2020-08-08T15:12:24Z</time>
      </trkpt>
      <trkpt lat="48.75022" lon="7.38405">
        <ele>185</ele>
        <time>2020-08-08T15:12:26Z</time>
      </trkpt>
      <trkpt lat="48.75018" lon="7.38402">
        <ele>185</ele>
        <time>2020-08-08T15:12:27Z</time>
      </trkpt>
      <trkpt lat="48.75011" lon="7.38394">
        <ele>185</ele>
        <time>2020-08-08T15:12:29Z</time>
      </trkpt>
      <trkpt lat="48.75004" lon="7.38387">
        <ele>185</ele>
        <time>2020-08-08T15:12:31Z</time>
      </trkpt>
      <trkpt lat="48.75" lon="7.38383">
        <ele>185</ele>
        <time>2020-08-08T15:12:32Z</time>
      </trkpt>
      <trkpt lat="48.74993" lon="7.38376">
        <ele>185</ele>
        <time>2020-08-08T15:12:34Z</time>
      </trkpt>
      <trkpt lat="48.74986" lon="7.38367">
        <ele>185</ele>
        <time>2020-08-08T15:12:36Z</time>
      </trkpt>
      <trkpt lat="48.74981" lon="7.38358">
        <ele>185</ele>
        <time>2020-08-08T15:12:38Z</time>
      </trkpt>
      <trkpt lat="48.74977" lon="7.38353">
        <ele>185</ele>
        <time>2020-08-08T15:12:39Z</time>
      </trkpt>
      <trkpt lat="48.7497" lon="7.38343">
        <ele>185</ele>
        <time>2020-08-08T15:12:41Z</time>
      </trkpt>
      <trkpt lat="48.74966" lon="7.38338">
        <ele>185</ele>
        <time>2020-08-08T15:12:42Z</time>
      </trkpt>
      <trkpt lat="48.74962" lon="7.38333">
        <ele>185</ele>
        <time>2020-08-08T15:12:43Z</time>
      </trkpt>
      <trkpt lat="48.74955" lon="7.38324">
        <ele>185</ele>
        <time>2020-08-08T15:12:45Z</time>
      </trkpt>
      <trkpt lat="48.7495" lon="7.38319">
        <ele>185</ele>
        <time>2020-08-08T15:12:46Z</time>
      </trkpt>
      <trkpt lat="48.74944" lon="7.3831">
        <ele>185</ele>
        <time>2020-08-08T15:12:48Z</time>
      </trkpt>
      <trkpt lat="48.7494" lon="7.38305">
        <ele>185</ele>
        <time>2020-08-08T15:12:49Z</time>
      </trkpt>
      <trkpt lat="48.74936" lon="7.38299">
        <ele>185</ele>
        <time>2020-08-08T15:12:50Z</time>
      </trkpt>
      <trkpt lat="48.7493" lon="7.38291">
        <ele>185</ele>
        <time>2020-08-08T15:12:52Z</time>
      </trkpt>
      <trkpt lat="48.74925" lon="7.38286">
        <ele>185</ele>
        <time>2020-08-08T15:12:53Z</time>
      </trkpt>
      <trkpt lat="48.74922" lon="7.3828">
        <ele>185</ele>
        <time>2020-08-08T15:12:54Z</time>
      </trkpt>
      <trkpt lat="48.74918" lon="7.38274">
        <ele>185</ele>
        <time>2020-08-08T15:12:55Z</time>
      </trkpt>
      <trkpt lat="48.74913" lon="7.38269">
        <ele>185</ele>
        <time>2020-08-08T15:12:56Z</time>
      </trkpt>
      <trkpt lat="48.7491" lon="7.38262">
        <ele>185</ele>
        <time>2020-08-08T15:12:57Z</time>
      </trkpt>
      <trkpt lat="48.74906" lon="7.38256">
        <ele>185</ele>
        <time>2020-08-08T15:12:58Z</time>
      </trkpt>
      <trkpt lat="48.74902" lon="7.38251">
        <ele>185</ele>
        <time>2020-08-08T15:12:59Z</time>
      </trkpt>
      <trkpt lat="48.74897" lon="7.38247">
        <ele>185</ele>
        <time>2020-08-08T15:13:00Z</time>
      </trkpt>
      <trkpt lat="48.74894" lon="7.38241">
        <ele>185</ele>
        <time>2020-08-08T15:13:01Z</time>
      </trkpt>
      <trkpt lat="48.7489" lon="7.38236">
        <ele>185</ele>
        <time>2020-08-08T15:13:02Z</time>
      </trkpt>
      <trkpt lat="48.74887" lon="7.3823">
        <ele>185</ele>
        <time>2020-08-08T15:13:03Z</time>
      </trkpt>
      <trkpt lat="48.74883" lon="7.38225">
        <ele>185</ele>
        <time>2020-08-08T15:13:04Z</time>
      </trkpt>
      <trkpt lat="48.74878" lon="7.38219">
        <ele>185</ele>
        <time>2020-08-08T15:13:05Z</time>
      </trkpt>
      <trkpt lat="48.74874" lon="7.38213">
        <ele>185</ele>
        <time>2020-08-08T15:13:06Z</time>
      </trkpt>
      <trkpt lat="48.7487" lon="7.38207">
        <ele>185</ele>
        <time>2020-08-08T15:13:07Z</time>
      </trkpt>
      <trkpt lat="48.74865" lon="7.38201">
        <ele>185</ele>
        <time>2020-08-08T15:13:08Z</time>
      </trkpt>
      <trkpt lat="48.74862" lon="7.38195">
        <ele>185</ele>
        <time>2020-08-08T15:13:09Z</time>
      </trkpt>
      <trkpt lat="48.74859" lon="7.38188">
        <ele>185</ele>
        <time>2020-08-08T15:13:10Z</time>
      </trkpt>
      <trkpt lat="48.74855" lon="7.38181">
        <ele>185</ele>
        <time>2020-08-08T15:13:11Z</time>
      </trkpt>
      <trkpt lat="48.74851" lon="7.38176">
        <ele>185</ele>
        <time>2020-08-08T15:13:12Z</time>
      </trkpt>
      <trkpt lat="48.74846" lon="7.38171">
        <ele>185</ele>
        <time>2020-08-08T15:13:13Z</time>
      </trkpt>
      <trkpt lat="48.74839" lon="7.38161">
        <ele>185</ele>
        <time>2020-08-08T15:13:15Z</time>
      </trkpt>
      <trkpt lat="48.74836" lon="7.38155">
        <ele>185</ele>
        <time>2020-08-08T15:13:16Z</time>
      </trkpt>
      <trkpt lat="48.74832" lon="7.38149">
        <ele>185</ele>
        <time>2020-08-08T15:13:17Z</time>
      </trkpt>
      <trkpt lat="48.74829" lon="7.38144">
        <ele>185</ele>
        <time>2020-08-08T15:13:18Z</time>
      </trkpt>
      <trkpt lat="48.74825" lon="7.38139">
        <ele>185</ele>
        <time>2020-08-08T15:13:19Z</time>
      </trkpt>
      <trkpt lat="48.74822" lon="7.38132">
        <ele>185</ele>
        <time>2020-08-08T15:13:20Z</time>
      </trkpt>
      <trkpt lat="48.74818" lon="7.38126">
        <ele>184</ele>
        <time>2020-08-08T15:13:21Z</time>
      </trkpt>
      <trkpt lat="48.74813" lon="7.38117">
        <ele>185</ele>
        <time>2020-08-08T15:13:23Z</time>
      </trkpt>
      <trkpt lat="48.7481" lon="7.38111">
        <ele>185</ele>
        <time>2020-08-08T15:13:24Z</time>
      </trkpt>
      <trkpt lat="48.74807" lon="7.38105">
        <ele>185</ele>
        <time>2020-08-08T15:13:25Z</time>
      </trkpt>
      <trkpt lat="48.74802" lon="7.38102">
        <ele>185</ele>
        <time>2020-08-08T15:13:26Z</time>
      </trkpt>
      <trkpt lat="48.74799" lon="7.38097">
        <ele>184</ele>
        <time>2020-08-08T15:13:27Z</time>
      </trkpt>
      <trkpt lat="48.74796" lon="7.38091">
        <ele>184</ele>
        <time>2020-08-08T15:13:28Z</time>
      </trkpt>
      <trkpt lat="48.74792" lon="7.38085">
        <ele>184</ele>
        <time>2020-08-08T15:13:29Z</time>
      </trkpt>
      <trkpt lat="48.74788" lon="7.38079">
        <ele>184</ele>
        <time>2020-08-08T15:13:30Z</time>
      </trkpt>
      <trkpt lat="48.74785" lon="7.38073">
        <ele>184</ele>
        <time>2020-08-08T15:13:31Z</time>
      </trkpt>
      <trkpt lat="48.74781" lon="7.38068">
        <ele>184</ele>
        <time>2020-08-08T15:13:32Z</time>
      </trkpt>
      <trkpt lat="48.74775" lon="7.3806">
        <ele>184</ele>
        <time>2020-08-08T15:13:34Z</time>
      </trkpt>
      <trkpt lat="48.74773" lon="7.38054">
        <ele>184</ele>
        <time>2020-08-08T15:13:35Z</time>
      </trkpt>
      <trkpt lat="48.74767" lon="7.38043">
        <ele>184</ele>
        <time>2020-08-08T15:13:37Z</time>
      </trkpt>
      <trkpt lat="48.74763" lon="7.38037">
        <ele>184</ele>
        <time>2020-08-08T15:13:38Z</time>
      </trkpt>
      <trkpt lat="48.7476" lon="7.3803">
        <ele>184</ele>
        <time>2020-08-08T15:13:39Z</time>
      </trkpt>
      <trkpt lat="48.74756" lon="7.38025">
        <ele>184</ele>
        <time>2020-08-08T15:13:40Z</time>
      </trkpt>
      <trkpt lat="48.74753" lon="7.3802">
        <ele>184</ele>
        <time>2020-08-08T15:13:41Z</time>
      </trkpt>
      <trkpt lat="48.74751" lon="7.3801">
        <ele>184</ele>
        <time>2020-08-08T15:13:43Z</time>
      </trkpt>
      <trkpt lat="48.74748" lon="7.38004">
        <ele>184</ele>
        <time>2020-08-08T15:13:44Z</time>
      </trkpt>
      <trkpt lat="48.74742" lon="7.37994">
        <ele>184</ele>
        <time>2020-08-08T15:13:46Z</time>
      </trkpt>
      <trkpt lat="48.74738" lon="7.37989">
        <ele>184</ele>
        <time>2020-08-08T15:13:47Z</time>
      </trkpt>
      <trkpt lat="48.74735" lon="7.37984">
        <ele>184</ele>
        <time>2020-08-08T15:13:48Z</time>
      </trkpt>
      <trkpt lat="48.7473" lon="7.37973">
        <ele>184</ele>
        <time>2020-08-08T15:13:50Z</time>
      </trkpt>
      <trkpt lat="48.74728" lon="7.37967">
        <ele>184</ele>
        <time>2020-08-08T15:13:51Z</time>
      </trkpt>
      <trkpt lat="48.74725" lon="7.37961">
        <ele>183</ele>
        <time>2020-08-08T15:13:52Z</time>
      </trkpt>
      <trkpt lat="48.74722" lon="7.37955">
        <ele>183</ele>
        <time>2020-08-08T15:13:53Z</time>
      </trkpt>
      <trkpt lat="48.74718" lon="7.37948">
        <ele>183</ele>
        <time>2020-08-08T15:13:54Z</time>
      </trkpt>
      <trkpt lat="48.74715" lon="7.37942">
        <ele>183</ele>
        <time>2020-08-08T15:13:55Z</time>
      </trkpt>
      <trkpt lat="48.74711" lon="7.37935">
        <ele>183</ele>
        <time>2020-08-08T15:13:56Z</time>
      </trkpt>
      <trkpt lat="48.74707" lon="7.37929">
        <ele>183</ele>
        <time>2020-08-08T15:13:57Z</time>
      </trkpt>
      <trkpt lat="48.74704" lon="7.37923">
        <ele>183</ele>
        <time>2020-08-08T15:13:58Z</time>
      </trkpt>
      <trkpt lat="48.747" lon="7.37917">
        <ele>183</ele>
        <time>2020-08-08T15:13:59Z</time>
      </trkpt>
      <trkpt lat="48.74697" lon="7.37907">
        <ele>183</ele>
        <time>2020-08-08T15:14:01Z</time>
      </trkpt>
      <trkpt lat="48.74693" lon="7.37901">
        <ele>183</ele>
        <time>2020-08-08T15:14:02Z</time>
      </trkpt>
      <trkpt lat="48.74689" lon="7.37895">
        <ele>183</ele>
        <time>2020-08-08T15:14:03Z</time>
      </trkpt>
      <trkpt lat="48.74686" lon="7.37889">
        <ele>183</ele>
        <time>2020-08-08T15:14:04Z</time>
      </trkpt>
      <trkpt lat="48.74683" lon="7.37883">
        <ele>183</ele>
        <time>2020-08-08T15:14:05Z</time>
      </trkpt>
      <trkpt lat="48.74679" lon="7.37877">
        <ele>184</ele>
        <time>2020-08-08T15:14:06Z</time>
      </trkpt>
      <trkpt lat="48.74675" lon="7.37872">
        <ele>184</ele>
        <time>2020-08-08T15:14:07Z</time>
      </trkpt>
      <trkpt lat="48.74672" lon="7.37864">
        <ele>184</ele>
        <time>2020-08-08T15:14:08Z</time>
      </trkpt>
      <trkpt lat="48.74667" lon="7.37854">
        <ele>184</ele>
        <time>2020-08-08T15:14:10Z</time>
      </trkpt>
      <trkpt lat="48.74661" lon="7.37844">
        <ele>184</ele>
        <time>2020-08-08T15:14:12Z</time>
      </trkpt>
      <trkpt lat="48.74658" lon="7.37836">
        <ele>184</ele>
        <time>2020-08-08T15:14:13Z</time>
      </trkpt>
      <trkpt lat="48.74653" lon="7.37823">
        <ele>184</ele>
        <time>2020-08-08T15:14:15Z</time>
      </trkpt>
      <trkpt lat="48.74649" lon="7.37813">
        <ele>184</ele>
        <time>2020-08-08T15:14:17Z</time>
      </trkpt>
      <trkpt lat="48.74644" lon="7.37803">
        <ele>185</ele>
        <time>2020-08-08T15:14:19Z</time>
      </trkpt>
      <trkpt lat="48.7464" lon="7.37799">
        <ele>185</ele>
        <time>2020-08-08T15:14:20Z</time>
      </trkpt>
      <trkpt lat="48.74633" lon="7.37788">
        <ele>186</ele>
        <time>2020-08-08T15:14:22Z</time>
      </trkpt>
      <trkpt lat="48.74628" lon="7.37779">
        <ele>186</ele>
        <time>2020-08-08T15:14:24Z</time>
      </trkpt>
      <trkpt lat="48.74625" lon="7.37773">
        <ele>186</ele>
        <time>2020-08-08T15:14:25Z</time>
      </trkpt>
      <trkpt lat="48.74622" lon="7.37767">
        <ele>186</ele>
        <time>2020-08-08T15:14:26Z</time>
      </trkpt>
      <trkpt lat="48.74616" lon="7.37757">
        <ele>185</ele>
        <time>2020-08-08T15:14:28Z</time>
      </trkpt>
      <trkpt lat="48.74612" lon="7.37752">
        <ele>185</ele>
        <time>2020-08-08T15:14:29Z</time>
      </trkpt>
      <trkpt lat="48.74609" lon="7.37747">
        <ele>185</ele>
        <time>2020-08-08T15:14:30Z</time>
      </trkpt>
      <trkpt lat="48.74606" lon="7.37741">
        <ele>185</ele>
        <time>2020-08-08T15:14:31Z</time>
      </trkpt>
      <trkpt lat="48.74603" lon="7.37736">
        <ele>185</ele>
        <time>2020-08-08T15:14:32Z</time>
      </trkpt>
      <trkpt lat="48.74599" lon="7.37729">
        <ele>185</ele>
        <time>2020-08-08T15:14:33Z</time>
      </trkpt>
      <trkpt lat="48.74596" lon="7.37724">
        <ele>185</ele>
        <time>2020-08-08T15:14:34Z</time>
      </trkpt>
      <trkpt lat="48.74593" lon="7.37718">
        <ele>185</ele>
        <time>2020-08-08T15:14:35Z</time>
      </trkpt>
      <trkpt lat="48.74589" lon="7.37713">
        <ele>185</ele>
        <time>2020-08-08T15:14:36Z</time>
      </trkpt>
      <trkpt lat="48.74586" lon="7.37707">
        <ele>185</ele>
        <time>2020-08-08T15:14:37Z</time>
      </trkpt>
      <trkpt lat="48.74581" lon="7.37694">
        <ele>185</ele>
        <time>2020-08-08T15:14:39Z</time>
      </trkpt>
      <trkpt lat="48.74577" lon="7.37684">
        <ele>185</ele>
        <time>2020-08-08T15:14:41Z</time>
      </trkpt>
      <trkpt lat="48.74571" lon="7.37675">
        <ele>185</ele>
        <time>2020-08-08T15:14:43Z</time>
      </trkpt>
      <trkpt lat="48.74565" lon="7.37667">
        <ele>186</ele>
        <time>2020-08-08T15:14:45Z</time>
      </trkpt>
      <trkpt lat="48.74563" lon="7.37659">
        <ele>186</ele>
        <time>2020-08-08T15:14:47Z</time>
      </trkpt>
      <trkpt lat="48.74562" lon="7.37649">
        <ele>186</ele>
        <time>2020-08-08T15:14:49Z</time>
      </trkpt>
      <trkpt lat="48.7456" lon="7.37641">
        <ele>186</ele>
        <time>2020-08-08T15:14:51Z</time>
      </trkpt>
      <trkpt lat="48.74556" lon="7.37633">
        <ele>186</ele>
        <time>2020-08-08T15:14:53Z</time>
      </trkpt>
      <trkpt lat="48.74552" lon="7.37624">
        <ele>186</ele>
        <time>2020-08-08T15:14:55Z</time>
      </trkpt>
      <trkpt lat="48.74549" lon="7.37618">
        <ele>186</ele>
        <time>2020-08-08T15:14:57Z</time>
      </trkpt>
      <trkpt lat="48.74546" lon="7.37611">
        <ele>187</ele>
        <time>2020-08-08T15:14:59Z</time>
      </trkpt>
      <trkpt lat="48.74541" lon="7.37602">
        <ele>187</ele>
        <time>2020-08-08T15:15:01Z</time>
      </trkpt>
      <trkpt lat="48.74539" lon="7.37596">
        <ele>187</ele>
        <time>2020-08-08T15:15:03Z</time>
      </trkpt>
      <trkpt lat="48.74535" lon="7.37591">
        <ele>187</ele>
        <time>2020-08-08T15:15:05Z</time>
      </trkpt>
      <trkpt lat="48.74529" lon="7.37586">
        <ele>187</ele>
        <time>2020-08-08T15:15:07Z</time>
      </trkpt>
      <trkpt lat="48.74522" lon="7.37583">
        <ele>187</ele>
        <time>2020-08-08T15:15:09Z</time>
      </trkpt>
      <trkpt lat="48.74517" lon="7.37576">
        <ele>187</ele>
        <time>2020-08-08T15:15:11Z</time>
      </trkpt>
      <trkpt lat="48.74513" lon="7.37567">
        <ele>187</ele>
        <time>2020-08-08T15:15:13Z</time>
      </trkpt>
      <trkpt lat="48.74508" lon="7.37559">
        <ele>186</ele>
        <time>2020-08-08T15:15:15Z</time>
      </trkpt>
      <trkpt lat="48.74502" lon="7.3755">
        <ele>186</ele>
        <time>2020-08-08T15:15:17Z</time>
      </trkpt>
      <trkpt lat="48.74496" lon="7.37541">
        <ele>186</ele>
        <time>2020-08-08T15:15:19Z</time>
      </trkpt>
      <trkpt lat="48.7449" lon="7.37531">
        <ele>187</ele>
        <time>2020-08-08T15:15:21Z</time>
      </trkpt>
      <trkpt lat="48.74484" lon="7.37522">
        <ele>187</ele>
        <time>2020-08-08T15:15:23Z</time>
      </trkpt>
      <trkpt lat="48.74479" lon="7.37511">
        <ele>187</ele>
        <time>2020-08-08T15:15:25Z</time>
      </trkpt>
      <trkpt lat="48.74474" lon="7.37502">
        <ele>186</ele>
        <time>2020-08-08T15:15:27Z</time>
      </trkpt>
      <trkpt lat="48.74469" lon="7.37493">
        <ele>186</ele>
        <time>2020-08-08T15:15:29Z</time>
      </trkpt>
      <trkpt lat="48.74466" lon="7.37488">
        <ele>186</ele>
        <time>2020-08-08T15:15:30Z</time>
      </trkpt>
      <trkpt lat="48.74461" lon="7.37478">
        <ele>186</ele>
        <time>2020-08-08T15:15:32Z</time>
      </trkpt>
      <trkpt lat="48.74455" lon="7.37468">
        <ele>187</ele>
        <time>2020-08-08T15:15:34Z</time>
      </trkpt>
      <trkpt lat="48.7445" lon="7.37458">
        <ele>187</ele>
        <time>2020-08-08T15:15:36Z</time>
      </trkpt>
      <trkpt lat="48.74446" lon="7.37448">
        <ele>187</ele>
        <time>2020-08-08T15:15:38Z</time>
      </trkpt>
      <trkpt lat="48.74443" lon="7.37443">
        <ele>187</ele>
        <time>2020-08-08T15:15:39Z</time>
      </trkpt>
      <trkpt lat="48.74439" lon="7.37434">
        <ele>187</ele>
        <time>2020-08-08T15:15:41Z</time>
      </trkpt>
      <trkpt lat="48.74433" lon="7.37425">
        <ele>187</ele>
        <time>2020-08-08T15:15:43Z</time>
      </trkpt>
      <trkpt lat="48.74429" lon="7.37417">
        <ele>187</ele>
        <time>2020-08-08T15:15:45Z</time>
      </trkpt>
      <trkpt lat="48.74425" lon="7.3741">
        <ele>187</ele>
        <time>2020-08-08T15:15:47Z</time>
      </trkpt>
      <trkpt lat="48.74421" lon="7.37401">
        <ele>187</ele>
        <time>2020-08-08T15:15:49Z</time>
      </trkpt>
      <trkpt lat="48.74416" lon="7.37392">
        <ele>187</ele>
        <time>2020-08-08T15:15:51Z</time>
      </trkpt>
      <trkpt lat="48.74411" lon="7.37383">
        <ele>187</ele>
        <time>2020-08-08T15:15:53Z</time>
      </trkpt>
      <trkpt lat="48.74405" lon="7.37373">
        <ele>187</ele>
        <time>2020-08-08T15:15:55Z</time>
      </trkpt>
      <trkpt lat="48.74403" lon="7.37367">
        <ele>186</ele>
        <time>2020-08-08T15:15:56Z</time>
      </trkpt>
      <trkpt lat="48.74398" lon="7.37357">
        <ele>187</ele>
        <time>2020-08-08T15:15:58Z</time>
      </trkpt>
      <trkpt lat="48.74394" lon="7.37351">
        <ele>187</ele>
        <time>2020-08-08T15:15:59Z</time>
      </trkpt>
      <trkpt lat="48.7439" lon="7.37341">
        <ele>187</ele>
        <time>2020-08-08T15:16:01Z</time>
      </trkpt>
      <trkpt lat="48.74385" lon="7.37332">
        <ele>187</ele>
        <time>2020-08-08T15:16:03Z</time>
      </trkpt>
      <trkpt lat="48.74381" lon="7.37322">
        <ele>187</ele>
        <time>2020-08-08T15:16:05Z</time>
      </trkpt>
      <trkpt lat="48.74375" lon="7.37312">
        <ele>188</ele>
        <time>2020-08-08T15:16:07Z</time>
      </trkpt>
      <trkpt lat="48.74373" lon="7.37306">
        <ele>188</ele>
        <time>2020-08-08T15:16:08Z</time>
      </trkpt>
      <trkpt lat="48.7437" lon="7.373">
        <ele>187</ele>
        <time>2020-08-08T15:16:09Z</time>
      </trkpt>
      <trkpt lat="48.74365" lon="7.3729">
        <ele>187</ele>
        <time>2020-08-08T15:16:11Z</time>
      </trkpt>
      <trkpt lat="48.7436" lon="7.37282">
        <ele>187</ele>
        <time>2020-08-08T15:16:13Z</time>
      </trkpt>
      <trkpt lat="48.74355" lon="7.37273">
        <ele>187</ele>
        <time>2020-08-08T15:16:15Z</time>
      </trkpt>
      <trkpt lat="48.7435" lon="7.37265">
        <ele>187</ele>
        <time>2020-08-08T15:16:17Z</time>
      </trkpt>
      <trkpt lat="48.74345" lon="7.37256">
        <ele>187</ele>
        <time>2020-08-08T15:16:19Z</time>
      </trkpt>
      <trkpt lat="48.74341" lon="7.37247">
        <ele>187</ele>
        <time>2020-08-08T15:16:21Z</time>
      </trkpt>
      <trkpt lat="48.74337" lon="7.37242">
        <ele>187</ele>
        <time>2020-08-08T15:16:22Z</time>
      </trkpt>
      <trkpt lat="48.74332" lon="7.37232">
        <ele>187</ele>
        <time>2020-08-08T15:16:24Z</time>
      </trkpt>
      <trkpt lat="48.7433" lon="7.37226">
        <ele>188</ele>
        <time>2020-08-08T15:16:25Z</time>
      </trkpt>
      <trkpt lat="48.74326" lon="7.3722">
        <ele>188</ele>
        <time>2020-08-08T15:16:26Z</time>
      </trkpt>
      <trkpt lat="48.74321" lon="7.3721">
        <ele>190</ele>
        <time>2020-08-08T15:16:28Z</time>
      </trkpt>
      <trkpt lat="48.74318" lon="7.37204">
        <ele>190</ele>
        <time>2020-08-08T15:16:29Z</time>
      </trkpt>
      <trkpt lat="48.74313" lon="7.37194">
        <ele>189</ele>
        <time>2020-08-08T15:16:31Z</time>
      </trkpt>
      <trkpt lat="48.7431" lon="7.37188">
        <ele>189</ele>
        <time>2020-08-08T15:16:32Z</time>
      </trkpt>
      <trkpt lat="48.74307" lon="7.37183">
        <ele>189</ele>
        <time>2020-08-08T15:16:33Z</time>
      </trkpt>
      <trkpt lat="48.74304" lon="7.37177">
        <ele>188</ele>
        <time>2020-08-08T15:16:34Z</time>
      </trkpt>
      <trkpt lat="48.74301" lon="7.37171">
        <ele>188</ele>
        <time>2020-08-08T15:16:35Z</time>
      </trkpt>
      <trkpt lat="48.74298" lon="7.37166">
        <ele>188</ele>
        <time>2020-08-08T15:16:36Z</time>
      </trkpt>
      <trkpt lat="48.74293" lon="7.37154">
        <ele>188</ele>
        <time>2020-08-08T15:16:38Z</time>
      </trkpt>
      <trkpt lat="48.74287" lon="7.37144">
        <ele>188</ele>
        <time>2020-08-08T15:16:40Z</time>
      </trkpt>
      <trkpt lat="48.74282" lon="7.37134">
        <ele>189</ele>
        <time>2020-08-08T15:16:42Z</time>
      </trkpt>
      <trkpt lat="48.74276" lon="7.37124">
        <ele>188</ele>
        <time>2020-08-08T15:16:44Z</time>
      </trkpt>
      <trkpt lat="48.74274" lon="7.37118">
        <ele>188</ele>
        <time>2020-08-08T15:16:45Z</time>
      </trkpt>
      <trkpt lat="48.74268" lon="7.37107">
        <ele>188</ele>
        <time>2020-08-08T15:16:47Z</time>
      </trkpt>
      <trkpt lat="48.74265" lon="7.37101">
        <ele>187</ele>
        <time>2020-08-08T15:16:48Z</time>
      </trkpt>
      <trkpt lat="48.7426" lon="7.37091">
        <ele>187</ele>
        <time>2020-08-08T15:16:50Z</time>
      </trkpt>
      <trkpt lat="48.74251" lon="7.37076">
        <ele>188</ele>
        <time>2020-08-08T15:16:53Z</time>
      </trkpt>
      <trkpt lat="48.74248" lon="7.3707">
        <ele>188</ele>
        <time>2020-08-08T15:16:54Z</time>
      </trkpt>
      <trkpt lat="48.74245" lon="7.37065">
        <ele>188</ele>
        <time>2020-08-08T15:16:55Z</time>
      </trkpt>
      <trkpt lat="48.74242" lon="7.37059">
        <ele>187</ele>
        <time>2020-08-08T15:16:56Z</time>
      </trkpt>
      <trkpt lat="48.74239" lon="7.37054">
        <ele>187</ele>
        <time>2020-08-08T15:16:57Z</time>
      </trkpt>
      <trkpt lat="48.74236" lon="7.37049">
        <ele>187</ele>
        <time>2020-08-08T15:16:58Z</time>
      </trkpt>
      <trkpt lat="48.74232" lon="7.37043">
        <ele>187</ele>
        <time>2020-08-08T15:16:59Z</time>
      </trkpt>
      <trkpt lat="48.74228" lon="7.37037">
        <ele>187</ele>
        <time>2020-08-08T15:17:00Z</time>
      </trkpt>
      <trkpt lat="48.74225" lon="7.37031">
        <ele>187</ele>
        <time>2020-08-08T15:17:01Z</time>
      </trkpt>
      <trkpt lat="48.74222" lon="7.37025">
        <ele>188</ele>
        <time>2020-08-08T15:17:02Z</time>
      </trkpt>
      <trkpt lat="48.7422" lon="7.37019">
        <ele>188</ele>
        <time>2020-08-08T15:17:03Z</time>
      </trkpt>
      <trkpt lat="48.74217" lon="7.37013">
        <ele>188</ele>
        <time>2020-08-08T15:17:04Z</time>
      </trkpt>
      <trkpt lat="48.74213" lon="7.37006">
        <ele>188</ele>
        <time>2020-08-08T15:17:05Z</time>
      </trkpt>
      <trkpt lat="48.74208" lon="7.36996">
        <ele>188</ele>
        <time>2020-08-08T15:17:07Z</time>
      </trkpt>
      <trkpt lat="48.74204" lon="7.36989">
        <ele>188</ele>
        <time>2020-08-08T15:17:08Z</time>
      </trkpt>
      <trkpt lat="48.74201" lon="7.36983">
        <ele>188</ele>
        <time>2020-08-08T15:17:09Z</time>
      </trkpt>
      <trkpt lat="48.74194" lon="7.36974">
        <ele>188</ele>
        <time>2020-08-08T15:17:11Z</time>
      </trkpt>
      <trkpt lat="48.74191" lon="7.36968">
        <ele>188</ele>
        <time>2020-08-08T15:17:12Z</time>
      </trkpt>
      <trkpt lat="48.74188" lon="7.36963">
        <ele>188</ele>
        <time>2020-08-08T15:17:13Z</time>
      </trkpt>
      <trkpt lat="48.74183" lon="7.36952">
        <ele>188</ele>
        <time>2020-08-08T15:17:15Z</time>
      </trkpt>
      <trkpt lat="48.74176" lon="7.36942">
        <ele>188</ele>
        <time>2020-08-08T15:17:17Z</time>
      </trkpt>
      <trkpt lat="48.74173" lon="7.36937">
        <ele>188</ele>
        <time>2020-08-08T15:17:18Z</time>
      </trkpt>
      <trkpt lat="48.74169" lon="7.36925">
        <ele>188</ele>
        <time>2020-08-08T15:17:20Z</time>
      </trkpt>
      <trkpt lat="48.74166" lon="7.36916">
        <ele>189</ele>
        <time>2020-08-08T15:17:22Z</time>
      </trkpt>
      <trkpt lat="48.74163" lon="7.36905">
        <ele>190</ele>
        <time>2020-08-08T15:17:24Z</time>
      </trkpt>
      <trkpt lat="48.7416" lon="7.36895">
        <ele>190</ele>
        <time>2020-08-08T15:17:26Z</time>
      </trkpt>
      <trkpt lat="48.74154" lon="7.36888">
        <ele>190</ele>
        <time>2020-08-08T15:17:28Z</time>
      </trkpt>
      <trkpt lat="48.74148" lon="7.3688">
        <ele>189</ele>
        <time>2020-08-08T15:17:30Z</time>
      </trkpt>
      <trkpt lat="48.74141" lon="7.36873">
        <ele>188</ele>
        <time>2020-08-08T15:17:32Z</time>
      </trkpt>
      <trkpt lat="48.74136" lon="7.36867">
        <ele>188</ele>
        <time>2020-08-08T15:17:34Z</time>
      </trkpt>
      <trkpt lat="48.74131" lon="7.36861">
        <ele>188</ele>
        <time>2020-08-08T15:17:36Z</time>
      </trkpt>
      <trkpt lat="48.74128" lon="7.36855">
        <ele>188</ele>
        <time>2020-08-08T15:17:38Z</time>
      </trkpt>
      <trkpt lat="48.74132" lon="7.36862">
        <ele>188</ele>
        <time>2020-08-08T15:17:42Z</time>
      </trkpt>
      <trkpt lat="48.74137" lon="7.36871">
        <ele>188</ele>
        <time>2020-08-08T15:17:45Z</time>
      </trkpt>
      <trkpt lat="48.74142" lon="7.36878">
        <ele>188</ele>
        <time>2020-08-08T15:17:47Z</time>
      </trkpt>
      <trkpt lat="48.74148" lon="7.36883">
        <ele>189</ele>
        <time>2020-08-08T15:17:49Z</time>
      </trkpt>
      <trkpt lat="48.74155" lon="7.36887">
        <ele>190</ele>
        <time>2020-08-08T15:17:51Z</time>
      </trkpt>
      <trkpt lat="48.74161" lon="7.36897">
        <ele>191</ele>
        <time>2020-08-08T15:17:54Z</time>
      </trkpt>
      <trkpt lat="48.74165" lon="7.36903">
        <ele>190</ele>
        <time>2020-08-08T15:17:56Z</time>
      </trkpt>
      <trkpt lat="48.74167" lon="7.3691">
        <ele>190</ele>
        <time>2020-08-08T15:17:58Z</time>
      </trkpt>
      <trkpt lat="48.74168" lon="7.36918">
        <ele>189</ele>
        <time>2020-08-08T15:18:01Z</time>
      </trkpt>
      <trkpt lat="48.74163" lon="7.36919">
        <ele>189</ele>
        <time>2020-08-08T15:18:09Z</time>
      </trkpt>
      <trkpt lat="48.74162" lon="7.36912">
        <ele>190</ele>
        <time>2020-08-08T15:18:33Z</time>
      </trkpt>
      <trkpt lat="48.74133" lon="7.36867">
        <ele>188</ele>
        <time>2020-08-08T15:36:01Z</time>
      </trkpt>
      <trkpt lat="48.7413" lon="7.36862">
        <ele>188</ele>
        <time>2020-08-08T15:36:03Z</time>
      </trkpt>
      <trkpt lat="48.74127" lon="7.36855">
        <ele>188</ele>
        <time>2020-08-08T15:36:05Z</time>
      </trkpt>
      <trkpt lat="48.74125" lon="7.36849">
        <ele>188</ele>
        <time>2020-08-08T15:36:07Z</time>
      </trkpt>
      <trkpt lat="48.74121" lon="7.36842">
        <ele>188</ele>
        <time>2020-08-08T15:36:09Z</time>
      </trkpt>
      <trkpt lat="48.74119" lon="7.36835">
        <ele>188</ele>
        <time>2020-08-08T15:36:11Z</time>
      </trkpt>
      <trkpt lat="48.74115" lon="7.36825">
        <ele>188</ele>
        <time>2020-08-08T15:36:14Z</time>
      </trkpt>
      <trkpt lat="48.74111" lon="7.36817">
        <ele>188</ele>
        <time>2020-08-08T15:36:16Z</time>
      </trkpt>
      <trkpt lat="48.74108" lon="7.36811">
        <ele>188</ele>
        <time>2020-08-08T15:36:18Z</time>
      </trkpt>
      <trkpt lat="48.74104" lon="7.36801">
        <ele>189</ele>
        <time>2020-08-08T15:36:21Z</time>
      </trkpt>
      <trkpt lat="48.74104" lon="7.36791">
        <ele>188</ele>
        <time>2020-08-08T15:36:23Z</time>
      </trkpt>
      <trkpt lat="48.74105" lon="7.36782">
        <ele>188</ele>
        <time>2020-08-08T15:36:25Z</time>
      </trkpt>
      <trkpt lat="48.74108" lon="7.36773">
        <ele>188</ele>
        <time>2020-08-08T15:36:27Z</time>
      </trkpt>
      <trkpt lat="48.74113" lon="7.36766">
        <ele>188</ele>
        <time>2020-08-08T15:36:29Z</time>
      </trkpt>
      <trkpt lat="48.74118" lon="7.36758">
        <ele>188</ele>
        <time>2020-08-08T15:36:31Z</time>
      </trkpt>
      <trkpt lat="48.74122" lon="7.3675">
        <ele>188</ele>
        <time>2020-08-08T15:36:33Z</time>
      </trkpt>
      <trkpt lat="48.74129" lon="7.36742">
        <ele>188</ele>
        <time>2020-08-08T15:36:35Z</time>
      </trkpt>
      <trkpt lat="48.74135" lon="7.36733">
        <ele>188</ele>
        <time>2020-08-08T15:36:37Z</time>
      </trkpt>
      <trkpt lat="48.7414" lon="7.36725">
        <ele>189</ele>
        <time>2020-08-08T15:36:39Z</time>
      </trkpt>
      <trkpt lat="48.74146" lon="7.36718">
        <ele>189</ele>
        <time>2020-08-08T15:36:41Z</time>
      </trkpt>
      <trkpt lat="48.74152" lon="7.36712">
        <ele>188</ele>
        <time>2020-08-08T15:36:43Z</time>
      </trkpt>
      <trkpt lat="48.74156" lon="7.36705">
        <ele>189</ele>
        <time>2020-08-08T15:36:45Z</time>
      </trkpt>
      <trkpt lat="48.74161" lon="7.36698">
        <ele>189</ele>
        <time>2020-08-08T15:36:47Z</time>
      </trkpt>
      <trkpt lat="48.74165" lon="7.36693">
        <ele>189</ele>
        <time>2020-08-08T15:36:48Z</time>
      </trkpt>
      <trkpt lat="48.7417" lon="7.36685">
        <ele>189</ele>
        <time>2020-08-08T15:36:50Z</time>
      </trkpt>
      <trkpt lat="48.74176" lon="7.36678">
        <ele>188</ele>
        <time>2020-08-08T15:36:52Z</time>
      </trkpt>
      <trkpt lat="48.74182" lon="7.36671">
        <ele>188</ele>
        <time>2020-08-08T15:36:54Z</time>
      </trkpt>
      <trkpt lat="48.74186" lon="7.36665">
        <ele>189</ele>
        <time>2020-08-08T15:36:56Z</time>
      </trkpt>
      <trkpt lat="48.74191" lon="7.3666">
        <ele>189</ele>
        <time>2020-08-08T15:36:58Z</time>
      </trkpt>
      <trkpt lat="48.74196" lon="7.36654">
        <ele>189</ele>
        <time>2020-08-08T15:37:00Z</time>
      </trkpt>
      <trkpt lat="48.74201" lon="7.36648">
        <ele>189</ele>
        <time>2020-08-08T15:37:02Z</time>
      </trkpt>
      <trkpt lat="48.74207" lon="7.36641">
        <ele>189</ele>
        <time>2020-08-08T15:37:04Z</time>
      </trkpt>
      <trkpt lat="48.74213" lon="7.36635">
        <ele>189</ele>
        <time>2020-08-08T15:37:06Z</time>
      </trkpt>
      <trkpt lat="48.74217" lon="7.3663">
        <ele>188</ele>
        <time>2020-08-08T15:37:07Z</time>
      </trkpt>
      <trkpt lat="48.74225" lon="7.36622">
        <ele>188</ele>
        <time>2020-08-08T15:37:09Z</time>
      </trkpt>
      <trkpt lat="48.74231" lon="7.36614">
        <ele>188</ele>
        <time>2020-08-08T15:37:11Z</time>
      </trkpt>
      <trkpt lat="48.74235" lon="7.36609">
        <ele>187</ele>
        <time>2020-08-08T15:37:12Z</time>
      </trkpt>
      <trkpt lat="48.74239" lon="7.36604">
        <ele>187</ele>
        <time>2020-08-08T15:37:13Z</time>
      </trkpt>
      <trkpt lat="48.74243" lon="7.366">
        <ele>187</ele>
        <time>2020-08-08T15:37:14Z</time>
      </trkpt>
      <trkpt lat="48.74248" lon="7.36597">
        <ele>187</ele>
        <time>2020-08-08T15:37:15Z</time>
      </trkpt>
      <trkpt lat="48.74252" lon="7.36592">
        <ele>187</ele>
        <time>2020-08-08T15:37:16Z</time>
      </trkpt>
      <trkpt lat="48.74255" lon="7.36588">
        <ele>187</ele>
        <time>2020-08-08T15:37:17Z</time>
      </trkpt>
      <trkpt lat="48.74259" lon="7.36584">
        <ele>187</ele>
        <time>2020-08-08T15:37:18Z</time>
      </trkpt>
      <trkpt lat="48.74263" lon="7.36579">
        <ele>187</ele>
        <time>2020-08-08T15:37:19Z</time>
      </trkpt>
      <trkpt lat="48.74273" lon="7.36576">
        <ele>187</ele>
        <time>2020-08-08T15:37:21Z</time>
      </trkpt>
      <trkpt lat="48.74277" lon="7.36571">
        <ele>187</ele>
        <time>2020-08-08T15:37:22Z</time>
      </trkpt>
      <trkpt lat="48.74281" lon="7.36566">
        <ele>187</ele>
        <time>2020-08-08T15:37:23Z</time>
      </trkpt>
      <trkpt lat="48.74287" lon="7.36556">
        <ele>187</ele>
        <time>2020-08-08T15:37:25Z</time>
      </trkpt>
      <trkpt lat="48.74293" lon="7.36547">
        <ele>187</ele>
        <time>2020-08-08T15:37:27Z</time>
      </trkpt>
      <trkpt lat="48.74297" lon="7.36543">
        <ele>187</ele>
        <time>2020-08-08T15:37:28Z</time>
      </trkpt>
      <trkpt lat="48.74302" lon="7.36535">
        <ele>186</ele>
        <time>2020-08-08T15:37:30Z</time>
      </trkpt>
      <trkpt lat="48.74308" lon="7.36527">
        <ele>186</ele>
        <time>2020-08-08T15:37:32Z</time>
      </trkpt>
      <trkpt lat="48.74314" lon="7.36519">
        <ele>186</ele>
        <time>2020-08-08T15:37:34Z</time>
      </trkpt>
      <trkpt lat="48.7432" lon="7.36511">
        <ele>186</ele>
        <time>2020-08-08T15:37:36Z</time>
      </trkpt>
      <trkpt lat="48.74326" lon="7.36504">
        <ele>187</ele>
        <time>2020-08-08T15:37:38Z</time>
      </trkpt>
      <trkpt lat="48.74333" lon="7.36498">
        <ele>187</ele>
        <time>2020-08-08T15:37:40Z</time>
      </trkpt>
      <trkpt lat="48.74339" lon="7.36491">
        <ele>187</ele>
        <time>2020-08-08T15:37:42Z</time>
      </trkpt>
      <trkpt lat="48.74345" lon="7.36482">
        <ele>187</ele>
        <time>2020-08-08T15:37:44Z</time>
      </trkpt>
      <trkpt lat="48.74348" lon="7.36477">
        <ele>187</ele>
        <time>2020-08-08T15:37:45Z</time>
      </trkpt>
      <trkpt lat="48.74352" lon="7.36472">
        <ele>187</ele>
        <time>2020-08-08T15:37:46Z</time>
      </trkpt>
      <trkpt lat="48.74357" lon="7.36463">
        <ele>187</ele>
        <time>2020-08-08T15:37:48Z</time>
      </trkpt>
      <trkpt lat="48.74359" lon="7.36453">
        <ele>187</ele>
        <time>2020-08-08T15:37:50Z</time>
      </trkpt>
      <trkpt lat="48.7436" lon="7.36446">
        <ele>187</ele>
        <time>2020-08-08T15:37:51Z</time>
      </trkpt>
      <trkpt lat="48.74358" lon="7.36434">
        <ele>187</ele>
        <time>2020-08-08T15:37:53Z</time>
      </trkpt>
      <trkpt lat="48.74355" lon="7.36424">
        <ele>187</ele>
        <time>2020-08-08T15:37:55Z</time>
      </trkpt>
      <trkpt lat="48.7435" lon="7.36414">
        <ele>187</ele>
        <time>2020-08-08T15:37:57Z</time>
      </trkpt>
      <trkpt lat="48.74345" lon="7.36404">
        <ele>188</ele>
        <time>2020-08-08T15:37:59Z</time>
      </trkpt>
      <trkpt lat="48.7434" lon="7.36395">
        <ele>188</ele>
        <time>2020-08-08T15:38:01Z</time>
      </trkpt>
      <trkpt lat="48.74337" lon="7.36389">
        <ele>188</ele>
        <time>2020-08-08T15:38:02Z</time>
      </trkpt>
      <trkpt lat="48.74332" lon="7.36378">
        <ele>187</ele>
        <time>2020-08-08T15:38:04Z</time>
      </trkpt>
      <trkpt lat="48.74327" lon="7.36368">
        <ele>188</ele>
        <time>2020-08-08T15:38:06Z</time>
      </trkpt>
      <trkpt lat="48.74321" lon="7.36358">
        <ele>188</ele>
        <time>2020-08-08T15:38:08Z</time>
      </trkpt>
      <trkpt lat="48.74317" lon="7.36348">
        <ele>188</ele>
        <time>2020-08-08T15:38:10Z</time>
      </trkpt>
      <trkpt lat="48.7431" lon="7.3634">
        <ele>188</ele>
        <time>2020-08-08T15:38:12Z</time>
      </trkpt>
      <trkpt lat="48.74305" lon="7.36329">
        <ele>188</ele>
        <time>2020-08-08T15:38:14Z</time>
      </trkpt>
      <trkpt lat="48.74302" lon="7.36324">
        <ele>188</ele>
        <time>2020-08-08T15:38:15Z</time>
      </trkpt>
      <trkpt lat="48.74299" lon="7.36317">
        <ele>188</ele>
        <time>2020-08-08T15:38:16Z</time>
      </trkpt>
      <trkpt lat="48.74294" lon="7.36307">
        <ele>188</ele>
        <time>2020-08-08T15:38:18Z</time>
      </trkpt>
      <trkpt lat="48.7429" lon="7.36299">
        <ele>188</ele>
        <time>2020-08-08T15:38:20Z</time>
      </trkpt>
      <trkpt lat="48.74285" lon="7.3629">
        <ele>188</ele>
        <time>2020-08-08T15:38:22Z</time>
      </trkpt>
      <trkpt lat="48.74282" lon="7.36285">
        <ele>188</ele>
        <time>2020-08-08T15:38:23Z</time>
      </trkpt>
      <trkpt lat="48.74279" lon="7.3628">
        <ele>188</ele>
        <time>2020-08-08T15:38:24Z</time>
      </trkpt>
      <trkpt lat="48.74272" lon="7.3627">
        <ele>188</ele>
        <time>2020-08-08T15:38:26Z</time>
      </trkpt>
      <trkpt lat="48.74269" lon="7.36264">
        <ele>188</ele>
        <time>2020-08-08T15:38:27Z</time>
      </trkpt>
      <trkpt lat="48.74265" lon="7.36256">
        <ele>188</ele>
        <time>2020-08-08T15:38:29Z</time>
      </trkpt>
      <trkpt lat="48.74262" lon="7.36251">
        <ele>188</ele>
        <time>2020-08-08T15:38:30Z</time>
      </trkpt>
      <trkpt lat="48.74259" lon="7.36246">
        <ele>188</ele>
        <time>2020-08-08T15:38:31Z</time>
      </trkpt>
      <trkpt lat="48.74257" lon="7.36237">
        <ele>188</ele>
        <time>2020-08-08T15:38:33Z</time>
      </trkpt>
      <trkpt lat="48.74253" lon="7.36226">
        <ele>188</ele>
        <time>2020-08-08T15:38:35Z</time>
      </trkpt>
      <trkpt lat="48.74249" lon="7.36218">
        <ele>188</ele>
        <time>2020-08-08T15:38:37Z</time>
      </trkpt>
      <trkpt lat="48.74244" lon="7.3621">
        <ele>189</ele>
        <time>2020-08-08T15:38:39Z</time>
      </trkpt>
      <trkpt lat="48.74237" lon="7.36203">
        <ele>190</ele>
        <time>2020-08-08T15:38:41Z</time>
      </trkpt>
      <trkpt lat="48.74231" lon="7.36195">
        <ele>191</ele>
        <time>2020-08-08T15:38:43Z</time>
      </trkpt>
      <trkpt lat="48.74227" lon="7.36187">
        <ele>191</ele>
        <time>2020-08-08T15:38:45Z</time>
      </trkpt>
      <trkpt lat="48.74222" lon="7.3618">
        <ele>191</ele>
        <time>2020-08-08T15:38:47Z</time>
      </trkpt>
      <trkpt lat="48.7422" lon="7.36171">
        <ele>191</ele>
        <time>2020-08-08T15:38:50Z</time>
      </trkpt>
      <trkpt lat="48.74216" lon="7.36165">
        <ele>192</ele>
        <time>2020-08-08T15:38:52Z</time>
      </trkpt>
      <trkpt lat="48.74213" lon="7.36157">
        <ele>192</ele>
        <time>2020-08-08T15:38:54Z</time>
      </trkpt>
      <trkpt lat="48.7421" lon="7.36148">
        <ele>191</ele>
        <time>2020-08-08T15:38:57Z</time>
      </trkpt>
      <trkpt lat="48.74205" lon="7.36142">
        <ele>192</ele>
        <time>2020-08-08T15:39:00Z</time>
      </trkpt>
      <trkpt lat="48.74201" lon="7.36142">
        <ele>192</ele>
        <time>2020-08-08T15:39:15Z</time>
      </trkpt>
      <trkpt lat="48.74194" lon="7.36148">
        <ele>193</ele>
        <time>2020-08-08T15:40:00Z</time>
      </trkpt>
      <trkpt lat="48.74192" lon="7.36157">
        <ele>194</ele>
        <time>2020-08-08T15:40:44Z</time>
      </trkpt>
      <trkpt lat="48.74207" lon="7.36164">
        <ele>193</ele>
        <time>2020-08-08T16:44:17Z</time>
      </trkpt>
      <trkpt lat="48.74196" lon="7.36168">
        <ele>194</ele>
        <time>2020-08-08T16:44:20Z</time>
      </trkpt>
      <trkpt lat="48.74191" lon="7.36167">
        <ele>194</ele>
        <time>2020-08-08T16:44:23Z</time>
      </trkpt>
      <trkpt lat="48.74199" lon="7.36155">
        <ele>193</ele>
        <time>2020-08-08T16:44:24Z</time>
      </trkpt>
      <trkpt lat="48.74192" lon="7.36159">
        <ele>194</ele>
        <time>2020-08-08T16:44:25Z</time>
      </trkpt>
      <trkpt lat="48.74196" lon="7.36153">
        <ele>193</ele>
        <time>2020-08-08T16:44:25Z</time>
      </trkpt>
      <trkpt lat="48.74197" lon="7.3616">
        <ele>194</ele>
        <time>2020-08-08T16:44:27Z</time>
      </trkpt>
      <trkpt lat="48.74197" lon="7.36169">
        <ele>194</ele>
        <time>2020-08-08T16:44:32Z</time>
      </trkpt>
      <trkpt lat="48.74192" lon="7.36172">
        <ele>194</ele>
        <time>2020-08-08T16:44:37Z</time>
      </trkpt>
      <trkpt lat="48.74191" lon="7.36163">
        <ele>194</ele>
        <time>2020-08-08T16:45:00Z</time>
      </trkpt>
      <trkpt lat="48.74194" lon="7.36158">
        <ele>194</ele>
        <time>2020-08-08T16:45:02Z</time>
      </trkpt>
      <trkpt lat="48.74196" lon="7.36151">
        <ele>193</ele>
        <time>2020-08-08T16:45:05Z</time>
      </trkpt>
      <trkpt lat="48.742" lon="7.36144">
        <ele>192</ele>
        <time>2020-08-08T16:45:08Z</time>
      </trkpt>
      <trkpt lat="48.74201" lon="7.36136">
        <ele>192</ele>
        <time>2020-08-08T16:45:11Z</time>
      </trkpt>
      <trkpt lat="48.74197" lon="7.36131">
        <ele>193</ele>
        <time>2020-08-08T16:45:13Z</time>
      </trkpt>
      <trkpt lat="48.74194" lon="7.36125">
        <ele>193</ele>
        <time>2020-08-08T16:45:16Z</time>
      </trkpt>
      <trkpt lat="48.74191" lon="7.36119">
        <ele>193</ele>
        <time>2020-08-08T16:45:19Z</time>
      </trkpt>
      <trkpt lat="48.74184" lon="7.36106">
        <ele>193</ele>
        <time>2020-08-08T16:45:24Z</time>
      </trkpt>
      <trkpt lat="48.7418" lon="7.36099">
        <ele>193</ele>
        <time>2020-08-08T16:45:27Z</time>
      </trkpt>
      <trkpt lat="48.74176" lon="7.36093">
        <ele>193</ele>
        <time>2020-08-08T16:45:30Z</time>
      </trkpt>
      <trkpt lat="48.74173" lon="7.36087">
        <ele>194</ele>
        <time>2020-08-08T16:45:33Z</time>
      </trkpt>
      <trkpt lat="48.7417" lon="7.36082">
        <ele>194</ele>
        <time>2020-08-08T16:45:36Z</time>
      </trkpt>
      <trkpt lat="48.74167" lon="7.36076">
        <ele>194</ele>
        <time>2020-08-08T16:45:38Z</time>
      </trkpt>
      <trkpt lat="48.74163" lon="7.36068">
        <ele>194</ele>
        <time>2020-08-08T16:45:40Z</time>
      </trkpt>
      <trkpt lat="48.74159" lon="7.3606">
        <ele>195</ele>
        <time>2020-08-08T16:45:42Z</time>
      </trkpt>
      <trkpt lat="48.74155" lon="7.36052">
        <ele>196</ele>
        <time>2020-08-08T16:45:44Z</time>
      </trkpt>
      <trkpt lat="48.74151" lon="7.36043">
        <ele>196</ele>
        <time>2020-08-08T16:45:46Z</time>
      </trkpt>
      <trkpt lat="48.74147" lon="7.36035">
        <ele>196</ele>
        <time>2020-08-08T16:45:48Z</time>
      </trkpt>
      <trkpt lat="48.74142" lon="7.36026">
        <ele>196</ele>
        <time>2020-08-08T16:45:50Z</time>
      </trkpt>
      <trkpt lat="48.74137" lon="7.36016">
        <ele>195</ele>
        <time>2020-08-08T16:45:52Z</time>
      </trkpt>
      <trkpt lat="48.74131" lon="7.36007">
        <ele>195</ele>
        <time>2020-08-08T16:45:54Z</time>
      </trkpt>
      <trkpt lat="48.74126" lon="7.35998">
        <ele>195</ele>
        <time>2020-08-08T16:45:56Z</time>
      </trkpt>
      <trkpt lat="48.74122" lon="7.35988">
        <ele>195</ele>
        <time>2020-08-08T16:45:58Z</time>
      </trkpt>
      <trkpt lat="48.74117" lon="7.35979">
        <ele>195</ele>
        <time>2020-08-08T16:46:00Z</time>
      </trkpt>
      <trkpt lat="48.74112" lon="7.3597">
        <ele>197</ele>
        <time>2020-08-08T16:46:02Z</time>
      </trkpt>
      <trkpt lat="48.74107" lon="7.35962">
        <ele>198</ele>
        <time>2020-08-08T16:46:04Z</time>
      </trkpt>
      <trkpt lat="48.74102" lon="7.35953">
        <ele>197</ele>
        <time>2020-08-08T16:46:06Z</time>
      </trkpt>
      <trkpt lat="48.74097" lon="7.35943">
        <ele>196</ele>
        <time>2020-08-08T16:46:08Z</time>
      </trkpt>
      <trkpt lat="48.74092" lon="7.35933">
        <ele>196</ele>
        <time>2020-08-08T16:46:10Z</time>
      </trkpt>
      <trkpt lat="48.74086" lon="7.35923">
        <ele>197</ele>
        <time>2020-08-08T16:46:12Z</time>
      </trkpt>
      <trkpt lat="48.74085" lon="7.35913">
        <ele>196</ele>
        <time>2020-08-08T16:46:14Z</time>
      </trkpt>
      <trkpt lat="48.74085" lon="7.35901">
        <ele>195</ele>
        <time>2020-08-08T16:46:16Z</time>
      </trkpt>
      <trkpt lat="48.74086" lon="7.35888">
        <ele>195</ele>
        <time>2020-08-08T16:46:18Z</time>
      </trkpt>
      <trkpt lat="48.74086" lon="7.35876">
        <ele>194</ele>
        <time>2020-08-08T16:46:20Z</time>
      </trkpt>
      <trkpt lat="48.74087" lon="7.35862">
        <ele>194</ele>
        <time>2020-08-08T16:46:22Z</time>
      </trkpt>
      <trkpt lat="48.74087" lon="7.35855">
        <ele>194</ele>
        <time>2020-08-08T16:46:23Z</time>
      </trkpt>
      <trkpt lat="48.74087" lon="7.35842">
        <ele>194</ele>
        <time>2020-08-08T16:46:25Z</time>
      </trkpt>
      <trkpt lat="48.74088" lon="7.35829">
        <ele>194</ele>
        <time>2020-08-08T16:46:27Z</time>
      </trkpt>
      <trkpt lat="48.74088" lon="7.35816">
        <ele>194</ele>
        <time>2020-08-08T16:46:29Z</time>
      </trkpt>
      <trkpt lat="48.74088" lon="7.35802">
        <ele>194</ele>
        <time>2020-08-08T16:46:31Z</time>
      </trkpt>
      <trkpt lat="48.74089" lon="7.35789">
        <ele>194</ele>
        <time>2020-08-08T16:46:33Z</time>
      </trkpt>
      <trkpt lat="48.74089" lon="7.35776">
        <ele>194</ele>
        <time>2020-08-08T16:46:35Z</time>
      </trkpt>
      <trkpt lat="48.74089" lon="7.35764">
        <ele>194</ele>
        <time>2020-08-08T16:46:37Z</time>
      </trkpt>
      <trkpt lat="48.74089" lon="7.35751">
        <ele>194</ele>
        <time>2020-08-08T16:46:39Z</time>
      </trkpt>
      <trkpt lat="48.74089" lon="7.35738">
        <ele>194</ele>
        <time>2020-08-08T16:46:41Z</time>
      </trkpt>
      <trkpt lat="48.74089" lon="7.35727">
        <ele>194</ele>
        <time>2020-08-08T16:46:43Z</time>
      </trkpt>
      <trkpt lat="48.7409" lon="7.35715">
        <ele>194</ele>
        <time>2020-08-08T16:46:45Z</time>
      </trkpt>
      <trkpt lat="48.7409" lon="7.35701">
        <ele>194</ele>
        <time>2020-08-08T16:46:47Z</time>
      </trkpt>
      <trkpt lat="48.7409" lon="7.35688">
        <ele>194</ele>
        <time>2020-08-08T16:46:49Z</time>
      </trkpt>
      <trkpt lat="48.7409" lon="7.35675">
        <ele>195</ele>
        <time>2020-08-08T16:46:51Z</time>
      </trkpt>
      <trkpt lat="48.7409" lon="7.35661">
        <ele>194</ele>
        <time>2020-08-08T16:46:53Z</time>
      </trkpt>
      <trkpt lat="48.74091" lon="7.35647">
        <ele>193</ele>
        <time>2020-08-08T16:46:55Z</time>
      </trkpt>
      <trkpt lat="48.74089" lon="7.35634">
        <ele>193</ele>
        <time>2020-08-08T16:46:57Z</time>
      </trkpt>
      <trkpt lat="48.74087" lon="7.35622">
        <ele>194</ele>
        <time>2020-08-08T16:46:59Z</time>
      </trkpt>
      <trkpt lat="48.74087" lon="7.35609">
        <ele>194</ele>
        <time>2020-08-08T16:47:01Z</time>
      </trkpt>
      <trkpt lat="48.74088" lon="7.35596">
        <ele>193</ele>
        <time>2020-08-08T16:47:03Z</time>
      </trkpt>
      <trkpt lat="48.74088" lon="7.35582">
        <ele>194</ele>
        <time>2020-08-08T16:47:05Z</time>
      </trkpt>
      <trkpt lat="48.74088" lon="7.35576">
        <ele>194</ele>
        <time>2020-08-08T16:47:06Z</time>
      </trkpt>
      <trkpt lat="48.74089" lon="7.35563">
        <ele>193</ele>
        <time>2020-08-08T16:47:08Z</time>
      </trkpt>
      <trkpt lat="48.74089" lon="7.35555">
        <ele>193</ele>
        <time>2020-08-08T16:47:09Z</time>
      </trkpt>
      <trkpt lat="48.74089" lon="7.35547">
        <ele>193</ele>
        <time>2020-08-08T16:47:10Z</time>
      </trkpt>
      <trkpt lat="48.74089" lon="7.3554">
        <ele>193</ele>
        <time>2020-08-08T16:47:11Z</time>
      </trkpt>
      <trkpt lat="48.74089" lon="7.35533">
        <ele>193</ele>
        <time>2020-08-08T16:47:12Z</time>
      </trkpt>
      <trkpt lat="48.7409" lon="7.3552">
        <ele>193</ele>
        <time>2020-08-08T16:47:14Z</time>
      </trkpt>
      <trkpt lat="48.74089" lon="7.35512">
        <ele>193</ele>
        <time>2020-08-08T16:47:15Z</time>
      </trkpt>
      <trkpt lat="48.74089" lon="7.35505">
        <ele>193</ele>
        <time>2020-08-08T16:47:16Z</time>
      </trkpt>
      <trkpt lat="48.74089" lon="7.35497">
        <ele>193</ele>
        <time>2020-08-08T16:47:17Z</time>
      </trkpt>
      <trkpt lat="48.74089" lon="7.3549">
        <ele>193</ele>
        <time>2020-08-08T16:47:18Z</time>
      </trkpt>
      <trkpt lat="48.74089" lon="7.35483">
        <ele>193</ele>
        <time>2020-08-08T16:47:19Z</time>
      </trkpt>
      <trkpt lat="48.74089" lon="7.35476">
        <ele>192</ele>
        <time>2020-08-08T16:47:20Z</time>
      </trkpt>
      <trkpt lat="48.74089" lon="7.35468">
        <ele>192</ele>
        <time>2020-08-08T16:47:21Z</time>
      </trkpt>
      <trkpt lat="48.7409" lon="7.35461">
        <ele>191</ele>
        <time>2020-08-08T16:47:22Z</time>
      </trkpt>
      <trkpt lat="48.7409" lon="7.35453">
        <ele>191</ele>
        <time>2020-08-08T16:47:23Z</time>
      </trkpt>
      <trkpt lat="48.7409" lon="7.35446">
        <ele>191</ele>
        <time>2020-08-08T16:47:24Z</time>
      </trkpt>
      <trkpt lat="48.7409" lon="7.35439">
        <ele>191</ele>
        <time>2020-08-08T16:47:25Z</time>
      </trkpt>
      <trkpt lat="48.74091" lon="7.35432">
        <ele>191</ele>
        <time>2020-08-08T16:47:26Z</time>
      </trkpt>
      <trkpt lat="48.74091" lon="7.35425">
        <ele>191</ele>
        <time>2020-08-08T16:47:27Z</time>
      </trkpt>
      <trkpt lat="48.74091" lon="7.35417">
        <ele>192</ele>
        <time>2020-08-08T16:47:28Z</time>
      </trkpt>
      <trkpt lat="48.74091" lon="7.3541">
        <ele>192</ele>
        <time>2020-08-08T16:47:29Z</time>
      </trkpt>
      <trkpt lat="48.74092" lon="7.35403">
        <ele>192</ele>
        <time>2020-08-08T16:47:30Z</time>
      </trkpt>
      <trkpt lat="48.74092" lon="7.35395">
        <ele>192</ele>
        <time>2020-08-08T16:47:31Z</time>
      </trkpt>
      <trkpt lat="48.74092" lon="7.35388">
        <ele>192</ele>
        <time>2020-08-08T16:47:32Z</time>
      </trkpt>
      <trkpt lat="48.74092" lon="7.3538">
        <ele>192</ele>
        <time>2020-08-08T16:47:33Z</time>
      </trkpt>
      <trkpt lat="48.74092" lon="7.35373">
        <ele>192</ele>
        <time>2020-08-08T16:47:34Z</time>
      </trkpt>
      <trkpt lat="48.74092" lon="7.35365">
        <ele>193</ele>
        <time>2020-08-08T16:47:35Z</time>
      </trkpt>
      <trkpt lat="48.74092" lon="7.35345">
        <ele>194</ele>
        <time>2020-08-08T16:47:38Z</time>
      </trkpt>
      <trkpt lat="48.74093" lon="7.35333">
        <ele>194</ele>
        <time>2020-08-08T16:47:40Z</time>
      </trkpt>
      <trkpt lat="48.74093" lon="7.3532">
        <ele>195</ele>
        <time>2020-08-08T16:47:42Z</time>
      </trkpt>
      <trkpt lat="48.74093" lon="7.35307">
        <ele>195</ele>
        <time>2020-08-08T16:47:44Z</time>
      </trkpt>
      <trkpt lat="48.74093" lon="7.353">
        <ele>195</ele>
        <time>2020-08-08T16:47:45Z</time>
      </trkpt>
      <trkpt lat="48.74093" lon="7.35293">
        <ele>195</ele>
        <time>2020-08-08T16:47:46Z</time>
      </trkpt>
      <trkpt lat="48.74094" lon="7.35279">
        <ele>194</ele>
        <time>2020-08-08T16:47:48Z</time>
      </trkpt>
      <trkpt lat="48.74094" lon="7.35272">
        <ele>194</ele>
        <time>2020-08-08T16:47:49Z</time>
      </trkpt>
      <trkpt lat="48.74094" lon="7.35265">
        <ele>194</ele>
        <time>2020-08-08T16:47:50Z</time>
      </trkpt>
      <trkpt lat="48.74094" lon="7.35258">
        <ele>194</ele>
        <time>2020-08-08T16:47:51Z</time>
      </trkpt>
      <trkpt lat="48.74095" lon="7.35251">
        <ele>193</ele>
        <time>2020-08-08T16:47:52Z</time>
      </trkpt>
      <trkpt lat="48.74096" lon="7.35237">
        <ele>193</ele>
        <time>2020-08-08T16:47:54Z</time>
      </trkpt>
      <trkpt lat="48.74096" lon="7.35231">
        <ele>193</ele>
        <time>2020-08-08T16:47:55Z</time>
      </trkpt>
      <trkpt lat="48.74096" lon="7.35223">
        <ele>193</ele>
        <time>2020-08-08T16:47:56Z</time>
      </trkpt>
      <trkpt lat="48.74095" lon="7.35216">
        <ele>194</ele>
        <time>2020-08-08T16:47:57Z</time>
      </trkpt>
      <trkpt lat="48.74095" lon="7.35204">
        <ele>194</ele>
        <time>2020-08-08T16:47:59Z</time>
      </trkpt>
      <trkpt lat="48.74095" lon="7.35197">
        <ele>194</ele>
        <time>2020-08-08T16:48:00Z</time>
      </trkpt>
      <trkpt lat="48.74095" lon="7.35189">
        <ele>193</ele>
        <time>2020-08-08T16:48:01Z</time>
      </trkpt>
      <trkpt lat="48.74094" lon="7.35182">
        <ele>194</ele>
        <time>2020-08-08T16:48:02Z</time>
      </trkpt>
      <trkpt lat="48.74094" lon="7.35175">
        <ele>193</ele>
        <time>2020-08-08T16:48:03Z</time>
      </trkpt>
      <trkpt lat="48.74093" lon="7.35168">
        <ele>193</ele>
        <time>2020-08-08T16:48:04Z</time>
      </trkpt>
      <trkpt lat="48.74093" lon="7.35161">
        <ele>192</ele>
        <time>2020-08-08T16:48:05Z</time>
      </trkpt>
      <trkpt lat="48.74091" lon="7.35148">
        <ele>192</ele>
        <time>2020-08-08T16:48:07Z</time>
      </trkpt>
      <trkpt lat="48.7409" lon="7.3514">
        <ele>192</ele>
        <time>2020-08-08T16:48:08Z</time>
      </trkpt>
      <trkpt lat="48.74089" lon="7.35133">
        <ele>193</ele>
        <time>2020-08-08T16:48:09Z</time>
      </trkpt>
      <trkpt lat="48.74088" lon="7.35126">
        <ele>193</ele>
        <time>2020-08-08T16:48:10Z</time>
      </trkpt>
      <trkpt lat="48.74087" lon="7.35119">
        <ele>193</ele>
        <time>2020-08-08T16:48:11Z</time>
      </trkpt>
      <trkpt lat="48.74085" lon="7.35113">
        <ele>193</ele>
        <time>2020-08-08T16:48:12Z</time>
      </trkpt>
      <trkpt lat="48.74083" lon="7.35099">
        <ele>192</ele>
        <time>2020-08-08T16:48:14Z</time>
      </trkpt>
      <trkpt lat="48.7408" lon="7.35087">
        <ele>193</ele>
        <time>2020-08-08T16:48:16Z</time>
      </trkpt>
      <trkpt lat="48.74078" lon="7.3508">
        <ele>193</ele>
        <time>2020-08-08T16:48:17Z</time>
      </trkpt>
      <trkpt lat="48.74075" lon="7.35072">
        <ele>194</ele>
        <time>2020-08-08T16:48:18Z</time>
      </trkpt>
      <trkpt lat="48.74073" lon="7.35066">
        <ele>194</ele>
        <time>2020-08-08T16:48:19Z</time>
      </trkpt>
      <trkpt lat="48.74069" lon="7.35053">
        <ele>195</ele>
        <time>2020-08-08T16:48:21Z</time>
      </trkpt>
      <trkpt lat="48.74064" lon="7.35041">
        <ele>195</ele>
        <time>2020-08-08T16:48:23Z</time>
      </trkpt>
      <trkpt lat="48.74062" lon="7.35035">
        <ele>195</ele>
        <time>2020-08-08T16:48:24Z</time>
      </trkpt>
      <trkpt lat="48.7406" lon="7.35029">
        <ele>195</ele>
        <time>2020-08-08T16:48:25Z</time>
      </trkpt>
      <trkpt lat="48.74054" lon="7.35018">
        <ele>196</ele>
        <time>2020-08-08T16:48:27Z</time>
      </trkpt>
      <trkpt lat="48.74052" lon="7.35011">
        <ele>196</ele>
        <time>2020-08-08T16:48:28Z</time>
      </trkpt>
      <trkpt lat="48.74049" lon="7.35004">
        <ele>196</ele>
        <time>2020-08-08T16:48:29Z</time>
      </trkpt>
      <trkpt lat="48.74046" lon="7.34998">
        <ele>196</ele>
        <time>2020-08-08T16:48:30Z</time>
      </trkpt>
      <trkpt lat="48.74044" lon="7.34992">
        <ele>196</ele>
        <time>2020-08-08T16:48:31Z</time>
      </trkpt>
      <trkpt lat="48.74041" lon="7.34987">
        <ele>197</ele>
        <time>2020-08-08T16:48:32Z</time>
      </trkpt>
      <trkpt lat="48.74038" lon="7.34981">
        <ele>197</ele>
        <time>2020-08-08T16:48:33Z</time>
      </trkpt>
      <trkpt lat="48.74035" lon="7.34975">
        <ele>197</ele>
        <time>2020-08-08T16:48:34Z</time>
      </trkpt>
      <trkpt lat="48.74031" lon="7.34969">
        <ele>198</ele>
        <time>2020-08-08T16:48:35Z</time>
      </trkpt>
      <trkpt lat="48.74029" lon="7.34964">
        <ele>197</ele>
        <time>2020-08-08T16:48:36Z</time>
      </trkpt>
      <trkpt lat="48.74025" lon="7.34959">
        <ele>199</ele>
        <time>2020-08-08T16:48:37Z</time>
      </trkpt>
      <trkpt lat="48.74022" lon="7.34955">
        <ele>200</ele>
        <time>2020-08-08T16:48:38Z</time>
      </trkpt>
      <trkpt lat="48.74018" lon="7.3495">
        <ele>201</ele>
        <time>2020-08-08T16:48:39Z</time>
      </trkpt>
      <trkpt lat="48.74011" lon="7.34941">
        <ele>202</ele>
        <time>2020-08-08T16:48:41Z</time>
      </trkpt>
      <trkpt lat="48.74007" lon="7.34936">
        <ele>203</ele>
        <time>2020-08-08T16:48:42Z</time>
      </trkpt>
      <trkpt lat="48.74" lon="7.34928">
        <ele>203</ele>
        <time>2020-08-08T16:48:44Z</time>
      </trkpt>
      <trkpt lat="48.73996" lon="7.34923">
        <ele>203</ele>
        <time>2020-08-08T16:48:45Z</time>
      </trkpt>
      <trkpt lat="48.73992" lon="7.34919">
        <ele>204</ele>
        <time>2020-08-08T16:48:46Z</time>
      </trkpt>
      <trkpt lat="48.73988" lon="7.34916">
        <ele>205</ele>
        <time>2020-08-08T16:48:47Z</time>
      </trkpt>
      <trkpt lat="48.73984" lon="7.34912">
        <ele>205</ele>
        <time>2020-08-08T16:48:48Z</time>
      </trkpt>
      <trkpt lat="48.7398" lon="7.34907">
        <ele>206</ele>
        <time>2020-08-08T16:48:49Z</time>
      </trkpt>
      <trkpt lat="48.73976" lon="7.34903">
        <ele>206</ele>
        <time>2020-08-08T16:48:50Z</time>
      </trkpt>
      <trkpt lat="48.73972" lon="7.34899">
        <ele>207</ele>
        <time>2020-08-08T16:48:51Z</time>
      </trkpt>
      <trkpt lat="48.73968" lon="7.34895">
        <ele>207</ele>
        <time>2020-08-08T16:48:52Z</time>
      </trkpt>
      <trkpt lat="48.73964" lon="7.34891">
        <ele>208</ele>
        <time>2020-08-08T16:48:53Z</time>
      </trkpt>
      <trkpt lat="48.73956" lon="7.34884">
        <ele>209</ele>
        <time>2020-08-08T16:48:55Z</time>
      </trkpt>
      <trkpt lat="48.73953" lon="7.3488">
        <ele>209</ele>
        <time>2020-08-08T16:48:56Z</time>
      </trkpt>
      <trkpt lat="48.73948" lon="7.34876">
        <ele>209</ele>
        <time>2020-08-08T16:48:57Z</time>
      </trkpt>
      <trkpt lat="48.73944" lon="7.34872">
        <ele>209</ele>
        <time>2020-08-08T16:48:58Z</time>
      </trkpt>
      <trkpt lat="48.73937" lon="7.34864">
        <ele>209</ele>
        <time>2020-08-08T16:49:00Z</time>
      </trkpt>
      <trkpt lat="48.7393" lon="7.34857">
        <ele>209</ele>
        <time>2020-08-08T16:49:02Z</time>
      </trkpt>
      <trkpt lat="48.73923" lon="7.3485">
        <ele>209</ele>
        <time>2020-08-08T16:49:04Z</time>
      </trkpt>
      <trkpt lat="48.73917" lon="7.34844">
        <ele>209</ele>
        <time>2020-08-08T16:49:06Z</time>
      </trkpt>
      <trkpt lat="48.73911" lon="7.34838">
        <ele>211</ele>
        <time>2020-08-08T16:49:08Z</time>
      </trkpt>
      <trkpt lat="48.73905" lon="7.34833">
        <ele>211</ele>
        <time>2020-08-08T16:49:10Z</time>
      </trkpt>
      <trkpt lat="48.73898" lon="7.34828">
        <ele>212</ele>
        <time>2020-08-08T16:49:12Z</time>
      </trkpt>
      <trkpt lat="48.73892" lon="7.34822">
        <ele>213</ele>
        <time>2020-08-08T16:49:14Z</time>
      </trkpt>
      <trkpt lat="48.73885" lon="7.34816">
        <ele>214</ele>
        <time>2020-08-08T16:49:16Z</time>
      </trkpt>
      <trkpt lat="48.73881" lon="7.34812">
        <ele>214</ele>
        <time>2020-08-08T16:49:17Z</time>
      </trkpt>
      <trkpt lat="48.73877" lon="7.34808">
        <ele>215</ele>
        <time>2020-08-08T16:49:18Z</time>
      </trkpt>
      <trkpt lat="48.73871" lon="7.34802">
        <ele>216</ele>
        <time>2020-08-08T16:49:20Z</time>
      </trkpt>
      <trkpt lat="48.73863" lon="7.34795">
        <ele>215</ele>
        <time>2020-08-08T16:49:22Z</time>
      </trkpt>
      <trkpt lat="48.73856" lon="7.34788">
        <ele>215</ele>
        <time>2020-08-08T16:49:24Z</time>
      </trkpt>
      <trkpt lat="48.73851" lon="7.34785">
        <ele>215</ele>
        <time>2020-08-08T16:49:25Z</time>
      </trkpt>
      <trkpt lat="48.73844" lon="7.34777">
        <ele>214</ele>
        <time>2020-08-08T16:49:27Z</time>
      </trkpt>
      <trkpt lat="48.73836" lon="7.34771">
        <ele>214</ele>
        <time>2020-08-08T16:49:29Z</time>
      </trkpt>
      <trkpt lat="48.73829" lon="7.34765">
        <ele>211</ele>
        <time>2020-08-08T16:49:31Z</time>
      </trkpt>
      <trkpt lat="48.73824" lon="7.34762">
        <ele>213</ele>
        <time>2020-08-08T16:49:32Z</time>
      </trkpt>
      <trkpt lat="48.73817" lon="7.34756">
        <ele>212</ele>
        <time>2020-08-08T16:49:34Z</time>
      </trkpt>
      <trkpt lat="48.73813" lon="7.34753">
        <ele>212</ele>
        <time>2020-08-08T16:49:35Z</time>
      </trkpt>
      <trkpt lat="48.73804" lon="7.34749">
        <ele>212</ele>
        <time>2020-08-08T16:49:37Z</time>
      </trkpt>
      <trkpt lat="48.738" lon="7.34745">
        <ele>212</ele>
        <time>2020-08-08T16:49:38Z</time>
      </trkpt>
      <trkpt lat="48.73796" lon="7.34741">
        <ele>208</ele>
        <time>2020-08-08T16:49:39Z</time>
      </trkpt>
      <trkpt lat="48.73788" lon="7.34736">
        <ele>211</ele>
        <time>2020-08-08T16:49:41Z</time>
      </trkpt>
      <trkpt lat="48.73784" lon="7.34733">
        <ele>212</ele>
        <time>2020-08-08T16:49:42Z</time>
      </trkpt>
      <trkpt lat="48.73776" lon="7.34728">
        <ele>218</ele>
        <time>2020-08-08T16:49:44Z</time>
      </trkpt>
      <trkpt lat="48.73771" lon="7.34725">
        <ele>217</ele>
        <time>2020-08-08T16:49:45Z</time>
      </trkpt>
      <trkpt lat="48.73763" lon="7.34719">
        <ele>217</ele>
        <time>2020-08-08T16:49:47Z</time>
      </trkpt>
      <trkpt lat="48.73756" lon="7.34711">
        <ele>214</ele>
        <time>2020-08-08T16:49:49Z</time>
      </trkpt>
      <trkpt lat="48.73748" lon="7.34706">
        <ele>213</ele>
        <time>2020-08-08T16:49:51Z</time>
      </trkpt>
      <trkpt lat="48.7374" lon="7.347">
        <ele>213</ele>
        <time>2020-08-08T16:49:53Z</time>
      </trkpt>
      <trkpt lat="48.73735" lon="7.34697">
        <ele>214</ele>
        <time>2020-08-08T16:49:54Z</time>
      </trkpt>
      <trkpt lat="48.73728" lon="7.3469">
        <ele>213</ele>
        <time>2020-08-08T16:49:56Z</time>
      </trkpt>
      <trkpt lat="48.73721" lon="7.34683">
        <ele>213</ele>
        <time>2020-08-08T16:49:58Z</time>
      </trkpt>
      <trkpt lat="48.73714" lon="7.34675">
        <ele>212</ele>
        <time>2020-08-08T16:50:00Z</time>
      </trkpt>
      <trkpt lat="48.73708" lon="7.34667">
        <ele>211</ele>
        <time>2020-08-08T16:50:02Z</time>
      </trkpt>
      <trkpt lat="48.73704" lon="7.34663">
        <ele>210</ele>
        <time>2020-08-08T16:50:03Z</time>
      </trkpt>
      <trkpt lat="48.73697" lon="7.34655">
        <ele>210</ele>
        <time>2020-08-08T16:50:05Z</time>
      </trkpt>
      <trkpt lat="48.73691" lon="7.34647">
        <ele>210</ele>
        <time>2020-08-08T16:50:07Z</time>
      </trkpt>
      <trkpt lat="48.73687" lon="7.34642">
        <ele>210</ele>
        <time>2020-08-08T16:50:08Z</time>
      </trkpt>
      <trkpt lat="48.73681" lon="7.34633">
        <ele>211</ele>
        <time>2020-08-08T16:50:10Z</time>
      </trkpt>
      <trkpt lat="48.73677" lon="7.34627">
        <ele>208</ele>
        <time>2020-08-08T16:50:11Z</time>
      </trkpt>
      <trkpt lat="48.7367" lon="7.34618">
        <ele>209</ele>
        <time>2020-08-08T16:50:13Z</time>
      </trkpt>
      <trkpt lat="48.7366" lon="7.34606">
        <ele>210</ele>
        <time>2020-08-08T16:50:16Z</time>
      </trkpt>
      <trkpt lat="48.73656" lon="7.34602">
        <ele>211</ele>
        <time>2020-08-08T16:50:17Z</time>
      </trkpt>
      <trkpt lat="48.73652" lon="7.34597">
        <ele>211</ele>
        <time>2020-08-08T16:50:18Z</time>
      </trkpt>
      <trkpt lat="48.73648" lon="7.34592">
        <ele>212</ele>
        <time>2020-08-08T16:50:19Z</time>
      </trkpt>
      <trkpt lat="48.73642" lon="7.34583">
        <ele>213</ele>
        <time>2020-08-08T16:50:21Z</time>
      </trkpt>
      <trkpt lat="48.73639" lon="7.34578">
        <ele>213</ele>
        <time>2020-08-08T16:50:22Z</time>
      </trkpt>
      <trkpt lat="48.7363" lon="7.34563">
        <ele>215</ele>
        <time>2020-08-08T16:50:25Z</time>
      </trkpt>
      <trkpt lat="48.73624" lon="7.34554">
        <ele>215</ele>
        <time>2020-08-08T16:50:27Z</time>
      </trkpt>
      <trkpt lat="48.73617" lon="7.34544">
        <ele>216</ele>
        <time>2020-08-08T16:50:29Z</time>
      </trkpt>
      <trkpt lat="48.73614" lon="7.34539">
        <ele>216</ele>
        <time>2020-08-08T16:50:30Z</time>
      </trkpt>
      <trkpt lat="48.73612" lon="7.34532">
        <ele>213</ele>
        <time>2020-08-08T16:50:31Z</time>
      </trkpt>
      <trkpt lat="48.73608" lon="7.34526">
        <ele>210</ele>
        <time>2020-08-08T16:50:32Z</time>
      </trkpt>
      <trkpt lat="48.73603" lon="7.34516">
        <ele>206</ele>
        <time>2020-08-08T16:50:34Z</time>
      </trkpt>
      <trkpt lat="48.73599" lon="7.34511">
        <ele>209</ele>
        <time>2020-08-08T16:50:35Z</time>
      </trkpt>
      <trkpt lat="48.73595" lon="7.34505">
        <ele>209</ele>
        <time>2020-08-08T16:50:36Z</time>
      </trkpt>
      <trkpt lat="48.73592" lon="7.345">
        <ele>208</ele>
        <time>2020-08-08T16:50:37Z</time>
      </trkpt>
      <trkpt lat="48.73587" lon="7.34491">
        <ele>210</ele>
        <time>2020-08-08T16:50:39Z</time>
      </trkpt>
      <trkpt lat="48.73582" lon="7.34482">
        <ele>209</ele>
        <time>2020-08-08T16:50:41Z</time>
      </trkpt>
      <trkpt lat="48.73576" lon="7.34472">
        <ele>211</ele>
        <time>2020-08-08T16:50:43Z</time>
      </trkpt>
      <trkpt lat="48.73573" lon="7.34467">
        <ele>212</ele>
        <time>2020-08-08T16:50:44Z</time>
      </trkpt>
      <trkpt lat="48.7357" lon="7.34461">
        <ele>213</ele>
        <time>2020-08-08T16:50:45Z</time>
      </trkpt>
      <trkpt lat="48.73565" lon="7.34452">
        <ele>210</ele>
        <time>2020-08-08T16:50:47Z</time>
      </trkpt>
      <trkpt lat="48.7356" lon="7.34442">
        <ele>210</ele>
        <time>2020-08-08T16:50:49Z</time>
      </trkpt>
      <trkpt lat="48.73557" lon="7.34437">
        <ele>209</ele>
        <time>2020-08-08T16:50:50Z</time>
      </trkpt>
      <trkpt lat="48.73551" lon="7.34427">
        <ele>210</ele>
        <time>2020-08-08T16:50:52Z</time>
      </trkpt>
      <trkpt lat="48.73547" lon="7.34423">
        <ele>211</ele>
        <time>2020-08-08T16:50:53Z</time>
      </trkpt>
      <trkpt lat="48.73544" lon="7.34417">
        <ele>210</ele>
        <time>2020-08-08T16:50:54Z</time>
      </trkpt>
      <trkpt lat="48.7354" lon="7.34413">
        <ele>210</ele>
        <time>2020-08-08T16:50:55Z</time>
      </trkpt>
      <trkpt lat="48.73538" lon="7.34406">
        <ele>208</ele>
        <time>2020-08-08T16:50:56Z</time>
      </trkpt>
      <trkpt lat="48.73531" lon="7.344">
        <ele>210</ele>
        <time>2020-08-08T16:50:58Z</time>
      </trkpt>
      <trkpt lat="48.73528" lon="7.34393">
        <ele>209</ele>
        <time>2020-08-08T16:50:59Z</time>
      </trkpt>
      <trkpt lat="48.73524" lon="7.34381">
        <ele>205</ele>
        <time>2020-08-08T16:51:01Z</time>
      </trkpt>
      <trkpt lat="48.73521" lon="7.34375">
        <ele>204</ele>
        <time>2020-08-08T16:51:02Z</time>
      </trkpt>
      <trkpt lat="48.73516" lon="7.34364">
        <ele>200</ele>
        <time>2020-08-08T16:51:04Z</time>
      </trkpt>
      <trkpt lat="48.73512" lon="7.3436">
        <ele>201</ele>
        <time>2020-08-08T16:51:05Z</time>
      </trkpt>
      <trkpt lat="48.73505" lon="7.34353">
        <ele>203</ele>
        <time>2020-08-08T16:51:07Z</time>
      </trkpt>
      <trkpt lat="48.73503" lon="7.34347">
        <ele>201</ele>
        <time>2020-08-08T16:51:08Z</time>
      </trkpt>
      <trkpt lat="48.73501" lon="7.3434">
        <ele>197</ele>
        <time>2020-08-08T16:51:09Z</time>
      </trkpt>
      <trkpt lat="48.73497" lon="7.34331">
        <ele>195</ele>
        <time>2020-08-08T16:51:11Z</time>
      </trkpt>
      <trkpt lat="48.7349" lon="7.34323">
        <ele>195</ele>
        <time>2020-08-08T16:51:13Z</time>
      </trkpt>
      <trkpt lat="48.73484" lon="7.34314">
        <ele>194</ele>
        <time>2020-08-08T16:51:15Z</time>
      </trkpt>
      <trkpt lat="48.73478" lon="7.34303">
        <ele>194</ele>
        <time>2020-08-08T16:51:17Z</time>
      </trkpt>
      <trkpt lat="48.73473" lon="7.343">
        <ele>197</ele>
        <time>2020-08-08T16:51:18Z</time>
      </trkpt>
      <trkpt lat="48.73467" lon="7.34291">
        <ele>199</ele>
        <time>2020-08-08T16:51:20Z</time>
      </trkpt>
      <trkpt lat="48.73462" lon="7.34289">
        <ele>201</ele>
        <time>2020-08-08T16:51:21Z</time>
      </trkpt>
      <trkpt lat="48.73457" lon="7.34279">
        <ele>200</ele>
        <time>2020-08-08T16:51:23Z</time>
      </trkpt>
      <trkpt lat="48.73452" lon="7.34269">
        <ele>198</ele>
        <time>2020-08-08T16:51:25Z</time>
      </trkpt>
      <trkpt lat="48.73448" lon="7.34258">
        <ele>195</ele>
        <time>2020-08-08T16:51:27Z</time>
      </trkpt>
      <trkpt lat="48.73444" lon="7.34254">
        <ele>196</ele>
        <time>2020-08-08T16:51:28Z</time>
      </trkpt>
      <trkpt lat="48.7344" lon="7.3425">
        <ele>196</ele>
        <time>2020-08-08T16:51:29Z</time>
      </trkpt>
      <trkpt lat="48.73429" lon="7.34241">
        <ele>197</ele>
        <time>2020-08-08T16:51:32Z</time>
      </trkpt>
      <trkpt lat="48.73422" lon="7.34234">
        <ele>196</ele>
        <time>2020-08-08T16:51:34Z</time>
      </trkpt>
      <trkpt lat="48.73417" lon="7.34237">
        <ele>198</ele>
        <time>2020-08-08T16:51:35Z</time>
      </trkpt>
      <trkpt lat="48.73411" lon="7.34232">
        <ele>198</ele>
        <time>2020-08-08T16:51:37Z</time>
      </trkpt>
      <trkpt lat="48.73405" lon="7.34224">
        <ele>198</ele>
        <time>2020-08-08T16:51:39Z</time>
      </trkpt>
      <trkpt lat="48.734" lon="7.3422">
        <ele>199</ele>
        <time>2020-08-08T16:51:40Z</time>
      </trkpt>
      <trkpt lat="48.73394" lon="7.34213">
        <ele>199</ele>
        <time>2020-08-08T16:51:42Z</time>
      </trkpt>
      <trkpt lat="48.73389" lon="7.34206">
        <ele>198</ele>
        <time>2020-08-08T16:51:44Z</time>
      </trkpt>
      <trkpt lat="48.73384" lon="7.34198">
        <ele>197</ele>
        <time>2020-08-08T16:51:46Z</time>
      </trkpt>
      <trkpt lat="48.73376" lon="7.34192">
        <ele>199</ele>
        <time>2020-08-08T16:51:48Z</time>
      </trkpt>
      <trkpt lat="48.73371" lon="7.34184">
        <ele>197</ele>
        <time>2020-08-08T16:51:50Z</time>
      </trkpt>
      <trkpt lat="48.73367" lon="7.34175">
        <ele>194</ele>
        <time>2020-08-08T16:51:52Z</time>
      </trkpt>
      <trkpt lat="48.73363" lon="7.34171">
        <ele>192</ele>
        <time>2020-08-08T16:51:53Z</time>
      </trkpt>
      <trkpt lat="48.73358" lon="7.34171">
        <ele>195</ele>
        <time>2020-08-08T16:51:54Z</time>
      </trkpt>
      <trkpt lat="48.73352" lon="7.34172">
        <ele>199</ele>
        <time>2020-08-08T16:51:56Z</time>
      </trkpt>
      <trkpt lat="48.73347" lon="7.34169">
        <ele>200</ele>
        <time>2020-08-08T16:51:57Z</time>
      </trkpt>
      <trkpt lat="48.73342" lon="7.34166">
        <ele>200</ele>
        <time>2020-08-08T16:51:58Z</time>
      </trkpt>
      <trkpt lat="48.73334" lon="7.34164">
        <ele>203</ele>
        <time>2020-08-08T16:52:00Z</time>
      </trkpt>
      <trkpt lat="48.73327" lon="7.34161">
        <ele>207</ele>
        <time>2020-08-08T16:52:02Z</time>
      </trkpt>
      <trkpt lat="48.73323" lon="7.34159">
        <ele>207</ele>
        <time>2020-08-08T16:52:03Z</time>
      </trkpt>
      <trkpt lat="48.73314" lon="7.34157">
        <ele>211</ele>
        <time>2020-08-08T16:52:05Z</time>
      </trkpt>
      <trkpt lat="48.7331" lon="7.34155">
        <ele>212</ele>
        <time>2020-08-08T16:52:06Z</time>
      </trkpt>
      <trkpt lat="48.73302" lon="7.34151">
        <ele>213</ele>
        <time>2020-08-08T16:52:08Z</time>
      </trkpt>
      <trkpt lat="48.73296" lon="7.34148">
        <ele>213</ele>
        <time>2020-08-08T16:52:09Z</time>
      </trkpt>
      <trkpt lat="48.73288" lon="7.34142">
        <ele>211</ele>
        <time>2020-08-08T16:52:11Z</time>
      </trkpt>
      <trkpt lat="48.7328" lon="7.34139">
        <ele>212</ele>
        <time>2020-08-08T16:52:13Z</time>
      </trkpt>
      <trkpt lat="48.73267" lon="7.34132">
        <ele>215</ele>
        <time>2020-08-08T16:52:16Z</time>
      </trkpt>
      <trkpt lat="48.7326" lon="7.34126">
        <ele>214</ele>
        <time>2020-08-08T16:52:18Z</time>
      </trkpt>
      <trkpt lat="48.73256" lon="7.34123">
        <ele>214</ele>
        <time>2020-08-08T16:52:19Z</time>
      </trkpt>
      <trkpt lat="48.73251" lon="7.3412">
        <ele>215</ele>
        <time>2020-08-08T16:52:20Z</time>
      </trkpt>
      <trkpt lat="48.73246" lon="7.34117">
        <ele>215</ele>
        <time>2020-08-08T16:52:21Z</time>
      </trkpt>
      <trkpt lat="48.73238" lon="7.34114">
        <ele>218</ele>
        <time>2020-08-08T16:52:23Z</time>
      </trkpt>
      <trkpt lat="48.73234" lon="7.34111">
        <ele>217</ele>
        <time>2020-08-08T16:52:24Z</time>
      </trkpt>
      <trkpt lat="48.73225" lon="7.34106">
        <ele>218</ele>
        <time>2020-08-08T16:52:26Z</time>
      </trkpt>
      <trkpt lat="48.7322" lon="7.34103">
        <ele>218</ele>
        <time>2020-08-08T16:52:27Z</time>
      </trkpt>
      <trkpt lat="48.73216" lon="7.34098">
        <ele>216</ele>
        <time>2020-08-08T16:52:28Z</time>
      </trkpt>
      <trkpt lat="48.73209" lon="7.34089">
        <ele>213</ele>
        <time>2020-08-08T16:52:30Z</time>
      </trkpt>
      <trkpt lat="48.73206" lon="7.34084">
        <ele>211</ele>
        <time>2020-08-08T16:52:31Z</time>
      </trkpt>
      <trkpt lat="48.73203" lon="7.34079">
        <ele>210</ele>
        <time>2020-08-08T16:52:32Z</time>
      </trkpt>
      <trkpt lat="48.73196" lon="7.34071">
        <ele>210</ele>
        <time>2020-08-08T16:52:34Z</time>
      </trkpt>
      <trkpt lat="48.73189" lon="7.34062">
        <ele>210</ele>
        <time>2020-08-08T16:52:36Z</time>
      </trkpt>
      <trkpt lat="48.73186" lon="7.34056">
        <ele>209</ele>
        <time>2020-08-08T16:52:37Z</time>
      </trkpt>
      <trkpt lat="48.73182" lon="7.34052">
        <ele>211</ele>
        <time>2020-08-08T16:52:38Z</time>
      </trkpt>
      <trkpt lat="48.73179" lon="7.34046">
        <ele>210</ele>
        <time>2020-08-08T16:52:39Z</time>
      </trkpt>
      <trkpt lat="48.73176" lon="7.34041">
        <ele>211</ele>
        <time>2020-08-08T16:52:40Z</time>
      </trkpt>
      <trkpt lat="48.73171" lon="7.34031">
        <ele>211</ele>
        <time>2020-08-08T16:52:42Z</time>
      </trkpt>
      <trkpt lat="48.73167" lon="7.34026">
        <ele>213</ele>
        <time>2020-08-08T16:52:43Z</time>
      </trkpt>
      <trkpt lat="48.73164" lon="7.34018">
        <ele>211</ele>
        <time>2020-08-08T16:52:45Z</time>
      </trkpt>
      <trkpt lat="48.73163" lon="7.34008">
        <ele>206</ele>
        <time>2020-08-08T16:52:47Z</time>
      </trkpt>
      <trkpt lat="48.7316" lon="7.33996">
        <ele>205</ele>
        <time>2020-08-08T16:52:49Z</time>
      </trkpt>
      <trkpt lat="48.73158" lon="7.33985">
        <ele>203</ele>
        <time>2020-08-08T16:52:51Z</time>
      </trkpt>
      <trkpt lat="48.73154" lon="7.33974">
        <ele>205</ele>
        <time>2020-08-08T16:52:53Z</time>
      </trkpt>
      <trkpt lat="48.73153" lon="7.33961">
        <ele>201</ele>
        <time>2020-08-08T16:52:55Z</time>
      </trkpt>
      <trkpt lat="48.73151" lon="7.33949">
        <ele>200</ele>
        <time>2020-08-08T16:52:57Z</time>
      </trkpt>
      <trkpt lat="48.7315" lon="7.33942">
        <ele>199</ele>
        <time>2020-08-08T16:52:58Z</time>
      </trkpt>
      <trkpt lat="48.73148" lon="7.33935">
        <ele>199</ele>
        <time>2020-08-08T16:52:59Z</time>
      </trkpt>
      <trkpt lat="48.73147" lon="7.33929">
        <ele>198</ele>
        <time>2020-08-08T16:53:00Z</time>
      </trkpt>
      <trkpt lat="48.73145" lon="7.33917">
        <ele>198</ele>
        <time>2020-08-08T16:53:02Z</time>
      </trkpt>
      <trkpt lat="48.73141" lon="7.33905">
        <ele>200</ele>
        <time>2020-08-08T16:53:04Z</time>
      </trkpt>
      <trkpt lat="48.73137" lon="7.33899">
        <ele>202</ele>
        <time>2020-08-08T16:53:05Z</time>
      </trkpt>
      <trkpt lat="48.73134" lon="7.33887">
        <ele>203</ele>
        <time>2020-08-08T16:53:07Z</time>
      </trkpt>
      <trkpt lat="48.73132" lon="7.3388">
        <ele>202</ele>
        <time>2020-08-08T16:53:08Z</time>
      </trkpt>
      <trkpt lat="48.73129" lon="7.33872">
        <ele>201</ele>
        <time>2020-08-08T16:53:09Z</time>
      </trkpt>
      <trkpt lat="48.73128" lon="7.33865">
        <ele>201</ele>
        <time>2020-08-08T16:53:10Z</time>
      </trkpt>
      <trkpt lat="48.73129" lon="7.33858">
        <ele>200</ele>
        <time>2020-08-08T16:53:11Z</time>
      </trkpt>
      <trkpt lat="48.7313" lon="7.33844">
        <ele>199</ele>
        <time>2020-08-08T16:53:13Z</time>
      </trkpt>
      <trkpt lat="48.7313" lon="7.33832">
        <ele>198</ele>
        <time>2020-08-08T16:53:15Z</time>
      </trkpt>
      <trkpt lat="48.73131" lon="7.3382">
        <ele>197</ele>
        <time>2020-08-08T16:53:17Z</time>
      </trkpt>
      <trkpt lat="48.7313" lon="7.33807">
        <ele>197</ele>
        <time>2020-08-08T16:53:19Z</time>
      </trkpt>
      <trkpt lat="48.7313" lon="7.33796">
        <ele>196</ele>
        <time>2020-08-08T16:53:21Z</time>
      </trkpt>
      <trkpt lat="48.73129" lon="7.33784">
        <ele>196</ele>
        <time>2020-08-08T16:53:23Z</time>
      </trkpt>
      <trkpt lat="48.73128" lon="7.33772">
        <ele>197</ele>
        <time>2020-08-08T16:53:25Z</time>
      </trkpt>
      <trkpt lat="48.73127" lon="7.33759">
        <ele>197</ele>
        <time>2020-08-08T16:53:27Z</time>
      </trkpt>
      <trkpt lat="48.73127" lon="7.33753">
        <ele>196</ele>
        <time>2020-08-08T16:53:28Z</time>
      </trkpt>
      <trkpt lat="48.73126" lon="7.3374">
        <ele>196</ele>
        <time>2020-08-08T16:53:30Z</time>
      </trkpt>
      <trkpt lat="48.73126" lon="7.33728">
        <ele>196</ele>
        <time>2020-08-08T16:53:32Z</time>
      </trkpt>
      <trkpt lat="48.73127" lon="7.33716">
        <ele>193</ele>
        <time>2020-08-08T16:53:34Z</time>
      </trkpt>
      <trkpt lat="48.73123" lon="7.33704">
        <ele>193</ele>
        <time>2020-08-08T16:53:36Z</time>
      </trkpt>
      <trkpt lat="48.73121" lon="7.33698">
        <ele>194</ele>
        <time>2020-08-08T16:53:37Z</time>
      </trkpt>
      <trkpt lat="48.73119" lon="7.33685">
        <ele>195</ele>
        <time>2020-08-08T16:53:39Z</time>
      </trkpt>
      <trkpt lat="48.73117" lon="7.33673">
        <ele>196</ele>
        <time>2020-08-08T16:53:41Z</time>
      </trkpt>
      <trkpt lat="48.73117" lon="7.33662">
        <ele>196</ele>
        <time>2020-08-08T16:53:43Z</time>
      </trkpt>
      <trkpt lat="48.73116" lon="7.3365">
        <ele>196</ele>
        <time>2020-08-08T16:53:45Z</time>
      </trkpt>
      <trkpt lat="48.73114" lon="7.3364">
        <ele>197</ele>
        <time>2020-08-08T16:53:47Z</time>
      </trkpt>
      <trkpt lat="48.73113" lon="7.33628">
        <ele>197</ele>
        <time>2020-08-08T16:53:49Z</time>
      </trkpt>
      <trkpt lat="48.7311" lon="7.33617">
        <ele>198</ele>
        <time>2020-08-08T16:53:51Z</time>
      </trkpt>
      <trkpt lat="48.7311" lon="7.33608">
        <ele>198</ele>
        <time>2020-08-08T16:53:53Z</time>
      </trkpt>
      <trkpt lat="48.73109" lon="7.33599">
        <ele>198</ele>
        <time>2020-08-08T16:53:55Z</time>
      </trkpt>
      <trkpt lat="48.73109" lon="7.33589">
        <ele>198</ele>
        <time>2020-08-08T16:53:57Z</time>
      </trkpt>
      <trkpt lat="48.73109" lon="7.33579">
        <ele>197</ele>
        <time>2020-08-08T16:53:59Z</time>
      </trkpt>
      <trkpt lat="48.73107" lon="7.33566">
        <ele>195</ele>
        <time>2020-08-08T16:54:01Z</time>
      </trkpt>
      <trkpt lat="48.73105" lon="7.33556">
        <ele>195</ele>
        <time>2020-08-08T16:54:03Z</time>
      </trkpt>
      <trkpt lat="48.73103" lon="7.33546">
        <ele>195</ele>
        <time>2020-08-08T16:54:05Z</time>
      </trkpt>
      <trkpt lat="48.731" lon="7.33535">
        <ele>195</ele>
        <time>2020-08-08T16:54:07Z</time>
      </trkpt>
      <trkpt lat="48.73099" lon="7.33526">
        <ele>195</ele>
        <time>2020-08-08T16:54:09Z</time>
      </trkpt>
      <trkpt lat="48.73098" lon="7.33518">
        <ele>195</ele>
        <time>2020-08-08T16:54:11Z</time>
      </trkpt>
      <trkpt lat="48.73097" lon="7.3351">
        <ele>195</ele>
        <time>2020-08-08T16:54:13Z</time>
      </trkpt>
      <trkpt lat="48.73096" lon="7.33501">
        <ele>195</ele>
        <time>2020-08-08T16:54:15Z</time>
      </trkpt>
      <trkpt lat="48.73095" lon="7.33492">
        <ele>195</ele>
        <time>2020-08-08T16:54:17Z</time>
      </trkpt>
      <trkpt lat="48.73093" lon="7.33482">
        <ele>195</ele>
        <time>2020-08-08T16:54:19Z</time>
      </trkpt>
      <trkpt lat="48.7309" lon="7.33472">
        <ele>195</ele>
        <time>2020-08-08T16:54:21Z</time>
      </trkpt>
      <trkpt lat="48.73088" lon="7.33466">
        <ele>195</ele>
        <time>2020-08-08T16:54:22Z</time>
      </trkpt>
      <trkpt lat="48.73083" lon="7.33455">
        <ele>196</ele>
        <time>2020-08-08T16:54:24Z</time>
      </trkpt>
      <trkpt lat="48.7308" lon="7.33446">
        <ele>196</ele>
        <time>2020-08-08T16:54:26Z</time>
      </trkpt>
      <trkpt lat="48.73079" lon="7.33436">
        <ele>196</ele>
        <time>2020-08-08T16:54:28Z</time>
      </trkpt>
      <trkpt lat="48.73077" lon="7.33427">
        <ele>196</ele>
        <time>2020-08-08T16:54:30Z</time>
      </trkpt>
      <trkpt lat="48.73074" lon="7.33418">
        <ele>195</ele>
        <time>2020-08-08T16:54:32Z</time>
      </trkpt>
      <trkpt lat="48.73072" lon="7.3341">
        <ele>194</ele>
        <time>2020-08-08T16:54:34Z</time>
      </trkpt>
      <trkpt lat="48.73071" lon="7.33401">
        <ele>194</ele>
        <time>2020-08-08T16:54:36Z</time>
      </trkpt>
      <trkpt lat="48.73069" lon="7.33391">
        <ele>194</ele>
        <time>2020-08-08T16:54:38Z</time>
      </trkpt>
      <trkpt lat="48.73067" lon="7.3338">
        <ele>194</ele>
        <time>2020-08-08T16:54:40Z</time>
      </trkpt>
      <trkpt lat="48.73064" lon="7.3337">
        <ele>194</ele>
        <time>2020-08-08T16:54:42Z</time>
      </trkpt>
      <trkpt lat="48.7306" lon="7.33359">
        <ele>193</ele>
        <time>2020-08-08T16:54:44Z</time>
      </trkpt>
      <trkpt lat="48.73057" lon="7.33349">
        <ele>194</ele>
        <time>2020-08-08T16:54:46Z</time>
      </trkpt>
      <trkpt lat="48.73053" lon="7.33339">
        <ele>194</ele>
        <time>2020-08-08T16:54:48Z</time>
      </trkpt>
      <trkpt lat="48.73048" lon="7.3333">
        <ele>194</ele>
        <time>2020-08-08T16:54:50Z</time>
      </trkpt>
      <trkpt lat="48.73043" lon="7.33321">
        <ele>194</ele>
        <time>2020-08-08T16:54:52Z</time>
      </trkpt>
      <trkpt lat="48.73038" lon="7.33313">
        <ele>194</ele>
        <time>2020-08-08T16:54:54Z</time>
      </trkpt>
      <trkpt lat="48.73033" lon="7.33306">
        <ele>195</ele>
        <time>2020-08-08T16:54:56Z</time>
      </trkpt>
      <trkpt lat="48.73027" lon="7.33299">
        <ele>196</ele>
        <time>2020-08-08T16:54:58Z</time>
      </trkpt>
      <trkpt lat="48.73022" lon="7.33292">
        <ele>196</ele>
        <time>2020-08-08T16:55:00Z</time>
      </trkpt>
      <trkpt lat="48.73015" lon="7.33286">
        <ele>196</ele>
        <time>2020-08-08T16:55:02Z</time>
      </trkpt>
      <trkpt lat="48.7301" lon="7.33281">
        <ele>196</ele>
        <time>2020-08-08T16:55:04Z</time>
      </trkpt>
      <trkpt lat="48.73003" lon="7.33275">
        <ele>195</ele>
        <time>2020-08-08T16:55:06Z</time>
      </trkpt>
      <trkpt lat="48.72995" lon="7.33271">
        <ele>195</ele>
        <time>2020-08-08T16:55:08Z</time>
      </trkpt>
      <trkpt lat="48.72987" lon="7.33266">
        <ele>194</ele>
        <time>2020-08-08T16:55:10Z</time>
      </trkpt>
      <trkpt lat="48.7298" lon="7.33262">
        <ele>194</ele>
        <time>2020-08-08T16:55:12Z</time>
      </trkpt>
      <trkpt lat="48.72972" lon="7.33259">
        <ele>195</ele>
        <time>2020-08-08T16:55:14Z</time>
      </trkpt>
      <trkpt lat="48.72964" lon="7.33255">
        <ele>194</ele>
        <time>2020-08-08T16:55:16Z</time>
      </trkpt>
      <trkpt lat="48.72957" lon="7.33252">
        <ele>194</ele>
        <time>2020-08-08T16:55:18Z</time>
      </trkpt>
      <trkpt lat="48.72949" lon="7.33249">
        <ele>194</ele>
        <time>2020-08-08T16:55:20Z</time>
      </trkpt>
      <trkpt lat="48.72941" lon="7.33246">
        <ele>194</ele>
        <time>2020-08-08T16:55:22Z</time>
      </trkpt>
      <trkpt lat="48.72932" lon="7.33244">
        <ele>193</ele>
        <time>2020-08-08T16:55:24Z</time>
      </trkpt>
      <trkpt lat="48.72925" lon="7.33242">
        <ele>193</ele>
        <time>2020-08-08T16:55:26Z</time>
      </trkpt>
      <trkpt lat="48.72916" lon="7.33239">
        <ele>194</ele>
        <time>2020-08-08T16:55:28Z</time>
      </trkpt>
      <trkpt lat="48.72909" lon="7.33237">
        <ele>194</ele>
        <time>2020-08-08T16:55:30Z</time>
      </trkpt>
      <trkpt lat="48.72901" lon="7.33235">
        <ele>194</ele>
        <time>2020-08-08T16:55:32Z</time>
      </trkpt>
      <trkpt lat="48.72893" lon="7.33232">
        <ele>194</ele>
        <time>2020-08-08T16:55:34Z</time>
      </trkpt>
      <trkpt lat="48.72884" lon="7.33229">
        <ele>194</ele>
        <time>2020-08-08T16:55:36Z</time>
      </trkpt>
      <trkpt lat="48.72876" lon="7.33227">
        <ele>194</ele>
        <time>2020-08-08T16:55:38Z</time>
      </trkpt>
      <trkpt lat="48.72869" lon="7.33224">
        <ele>194</ele>
        <time>2020-08-08T16:55:40Z</time>
      </trkpt>
      <trkpt lat="48.72861" lon="7.33221">
        <ele>195</ele>
        <time>2020-08-08T16:55:42Z</time>
      </trkpt>
      <trkpt lat="48.72849" lon="7.33214">
        <ele>195</ele>
        <time>2020-08-08T16:55:45Z</time>
      </trkpt>
      <trkpt lat="48.72842" lon="7.3321">
        <ele>195</ele>
        <time>2020-08-08T16:55:47Z</time>
      </trkpt>
      <trkpt lat="48.72836" lon="7.33205">
        <ele>194</ele>
        <time>2020-08-08T16:55:49Z</time>
      </trkpt>
      <trkpt lat="48.7283" lon="7.332">
        <ele>194</ele>
        <time>2020-08-08T16:55:51Z</time>
      </trkpt>
      <trkpt lat="48.72825" lon="7.33194">
        <ele>194</ele>
        <time>2020-08-08T16:55:53Z</time>
      </trkpt>
      <trkpt lat="48.72821" lon="7.33192">
        <ele>194</ele>
        <time>2020-08-08T16:55:54Z</time>
      </trkpt>
      <trkpt lat="48.72815" lon="7.33186">
        <ele>194</ele>
        <time>2020-08-08T16:55:56Z</time>
      </trkpt>
      <trkpt lat="48.72809" lon="7.33181">
        <ele>194</ele>
        <time>2020-08-08T16:55:58Z</time>
      </trkpt>
      <trkpt lat="48.72801" lon="7.33175">
        <ele>194</ele>
        <time>2020-08-08T16:56:00Z</time>
      </trkpt>
      <trkpt lat="48.72794" lon="7.33169">
        <ele>194</ele>
        <time>2020-08-08T16:56:02Z</time>
      </trkpt>
      <trkpt lat="48.72787" lon="7.33163">
        <ele>194</ele>
        <time>2020-08-08T16:56:04Z</time>
      </trkpt>
      <trkpt lat="48.72782" lon="7.33159">
        <ele>194</ele>
        <time>2020-08-08T16:56:05Z</time>
      </trkpt>
      <trkpt lat="48.72778" lon="7.33155">
        <ele>194</ele>
        <time>2020-08-08T16:56:06Z</time>
      </trkpt>
      <trkpt lat="48.72773" lon="7.33152">
        <ele>194</ele>
        <time>2020-08-08T16:56:07Z</time>
      </trkpt>
      <trkpt lat="48.72769" lon="7.33149">
        <ele>194</ele>
        <time>2020-08-08T16:56:08Z</time>
      </trkpt>
      <trkpt lat="48.72762" lon="7.33142">
        <ele>194</ele>
        <time>2020-08-08T16:56:10Z</time>
      </trkpt>
      <trkpt lat="48.72758" lon="7.33138">
        <ele>194</ele>
        <time>2020-08-08T16:56:11Z</time>
      </trkpt>
      <trkpt lat="48.72753" lon="7.3313">
        <ele>194</ele>
        <time>2020-08-08T16:56:13Z</time>
      </trkpt>
      <trkpt lat="48.72747" lon="7.3312">
        <ele>194</ele>
        <time>2020-08-08T16:56:15Z</time>
      </trkpt>
      <trkpt lat="48.72744" lon="7.33115">
        <ele>194</ele>
        <time>2020-08-08T16:56:16Z</time>
      </trkpt>
      <trkpt lat="48.72738" lon="7.33105">
        <ele>194</ele>
        <time>2020-08-08T16:56:18Z</time>
      </trkpt>
      <trkpt lat="48.72735" lon="7.331">
        <ele>194</ele>
        <time>2020-08-08T16:56:19Z</time>
      </trkpt>
      <trkpt lat="48.72728" lon="7.3309">
        <ele>194</ele>
        <time>2020-08-08T16:56:21Z</time>
      </trkpt>
      <trkpt lat="48.72725" lon="7.33078">
        <ele>194</ele>
        <time>2020-08-08T16:56:23Z</time>
      </trkpt>
      <trkpt lat="48.72722" lon="7.33072">
        <ele>194</ele>
        <time>2020-08-08T16:56:24Z</time>
      </trkpt>
      <trkpt lat="48.72719" lon="7.33067">
        <ele>194</ele>
        <time>2020-08-08T16:56:25Z</time>
      </trkpt>
      <trkpt lat="48.72714" lon="7.33056">
        <ele>194</ele>
        <time>2020-08-08T16:56:27Z</time>
      </trkpt>
      <trkpt lat="48.72709" lon="7.33046">
        <ele>194</ele>
        <time>2020-08-08T16:56:29Z</time>
      </trkpt>
      <trkpt lat="48.72704" lon="7.33036">
        <ele>194</ele>
        <time>2020-08-08T16:56:31Z</time>
      </trkpt>
      <trkpt lat="48.72699" lon="7.33024">
        <ele>194</ele>
        <time>2020-08-08T16:56:33Z</time>
      </trkpt>
      <trkpt lat="48.72696" lon="7.33012">
        <ele>194</ele>
        <time>2020-08-08T16:56:35Z</time>
      </trkpt>
      <trkpt lat="48.72691" lon="7.33">
        <ele>194</ele>
        <time>2020-08-08T16:56:37Z</time>
      </trkpt>
      <trkpt lat="48.72688" lon="7.32993">
        <ele>194</ele>
        <time>2020-08-08T16:56:38Z</time>
      </trkpt>
      <trkpt lat="48.72682" lon="7.32983">
        <ele>194</ele>
        <time>2020-08-08T16:56:40Z</time>
      </trkpt>
      <trkpt lat="48.72678" lon="7.32972">
        <ele>195</ele>
        <time>2020-08-08T16:56:42Z</time>
      </trkpt>
      <trkpt lat="48.72677" lon="7.32959">
        <ele>194</ele>
        <time>2020-08-08T16:56:44Z</time>
      </trkpt>
      <trkpt lat="48.72673" lon="7.32947">
        <ele>194</ele>
        <time>2020-08-08T16:56:46Z</time>
      </trkpt>
      <trkpt lat="48.7267" lon="7.32938">
        <ele>194</ele>
        <time>2020-08-08T16:56:48Z</time>
      </trkpt>
      <trkpt lat="48.72669" lon="7.32925">
        <ele>194</ele>
        <time>2020-08-08T16:56:50Z</time>
      </trkpt>
      <trkpt lat="48.72666" lon="7.32913">
        <ele>194</ele>
        <time>2020-08-08T16:56:52Z</time>
      </trkpt>
      <trkpt lat="48.72663" lon="7.329">
        <ele>194</ele>
        <time>2020-08-08T16:56:54Z</time>
      </trkpt>
      <trkpt lat="48.72662" lon="7.32893">
        <ele>194</ele>
        <time>2020-08-08T16:56:55Z</time>
      </trkpt>
      <trkpt lat="48.7266" lon="7.32886">
        <ele>195</ele>
        <time>2020-08-08T16:56:56Z</time>
      </trkpt>
      <trkpt lat="48.72662" lon="7.32879">
        <ele>194</ele>
        <time>2020-08-08T16:56:57Z</time>
      </trkpt>
      <trkpt lat="48.7266" lon="7.32867">
        <ele>194</ele>
        <time>2020-08-08T16:56:59Z</time>
      </trkpt>
      <trkpt lat="48.72659" lon="7.32854">
        <ele>194</ele>
        <time>2020-08-08T16:57:01Z</time>
      </trkpt>
      <trkpt lat="48.72658" lon="7.32847">
        <ele>194</ele>
        <time>2020-08-08T16:57:02Z</time>
      </trkpt>
      <trkpt lat="48.72659" lon="7.32835">
        <ele>194</ele>
        <time>2020-08-08T16:57:04Z</time>
      </trkpt>
      <trkpt lat="48.72654" lon="7.3283">
        <ele>194</ele>
        <time>2020-08-08T16:57:05Z</time>
      </trkpt>
      <trkpt lat="48.72653" lon="7.32816">
        <ele>194</ele>
        <time>2020-08-08T16:57:07Z</time>
      </trkpt>
      <trkpt lat="48.72652" lon="7.32804">
        <ele>194</ele>
        <time>2020-08-08T16:57:09Z</time>
      </trkpt>
      <trkpt lat="48.72651" lon="7.32793">
        <ele>194</ele>
        <time>2020-08-08T16:57:11Z</time>
      </trkpt>
      <trkpt lat="48.72649" lon="7.32781">
        <ele>194</ele>
        <time>2020-08-08T16:57:13Z</time>
      </trkpt>
      <trkpt lat="48.72645" lon="7.32768">
        <ele>194</ele>
        <time>2020-08-08T16:57:15Z</time>
      </trkpt>
      <trkpt lat="48.72644" lon="7.32755">
        <ele>194</ele>
        <time>2020-08-08T16:57:17Z</time>
      </trkpt>
      <trkpt lat="48.72643" lon="7.32748">
        <ele>194</ele>
        <time>2020-08-08T16:57:18Z</time>
      </trkpt>
      <trkpt lat="48.7264" lon="7.32735">
        <ele>194</ele>
        <time>2020-08-08T16:57:20Z</time>
      </trkpt>
      <trkpt lat="48.72639" lon="7.32723">
        <ele>194</ele>
        <time>2020-08-08T16:57:22Z</time>
      </trkpt>
      <trkpt lat="48.72636" lon="7.32714">
        <ele>194</ele>
        <time>2020-08-08T16:57:23Z</time>
      </trkpt>
      <trkpt lat="48.72634" lon="7.32707">
        <ele>194</ele>
        <time>2020-08-08T16:57:24Z</time>
      </trkpt>
      <trkpt lat="48.72634" lon="7.327">
        <ele>194</ele>
        <time>2020-08-08T16:57:25Z</time>
      </trkpt>
      <trkpt lat="48.72633" lon="7.32693">
        <ele>194</ele>
        <time>2020-08-08T16:57:26Z</time>
      </trkpt>
      <trkpt lat="48.72632" lon="7.32681">
        <ele>194</ele>
        <time>2020-08-08T16:57:28Z</time>
      </trkpt>
      <trkpt lat="48.72633" lon="7.32673">
        <ele>194</ele>
        <time>2020-08-08T16:57:29Z</time>
      </trkpt>
      <trkpt lat="48.72629" lon="7.32666">
        <ele>194</ele>
        <time>2020-08-08T16:57:30Z</time>
      </trkpt>
      <trkpt lat="48.72627" lon="7.32659">
        <ele>194</ele>
        <time>2020-08-08T16:57:31Z</time>
      </trkpt>
      <trkpt lat="48.72625" lon="7.32653">
        <ele>194</ele>
        <time>2020-08-08T16:57:32Z</time>
      </trkpt>
      <trkpt lat="48.72623" lon="7.32647">
        <ele>194</ele>
        <time>2020-08-08T16:57:33Z</time>
      </trkpt>
      <trkpt lat="48.72621" lon="7.32641">
        <ele>195</ele>
        <time>2020-08-08T16:57:34Z</time>
      </trkpt>
      <trkpt lat="48.72621" lon="7.32634">
        <ele>195</ele>
        <time>2020-08-08T16:57:35Z</time>
      </trkpt>
      <trkpt lat="48.7262" lon="7.32627">
        <ele>195</ele>
        <time>2020-08-08T16:57:36Z</time>
      </trkpt>
      <trkpt lat="48.72618" lon="7.32615">
        <ele>195</ele>
        <time>2020-08-08T16:57:38Z</time>
      </trkpt>
      <trkpt lat="48.72616" lon="7.32606">
        <ele>194</ele>
        <time>2020-08-08T16:57:40Z</time>
      </trkpt>
      <trkpt lat="48.72612" lon="7.32595">
        <ele>195</ele>
        <time>2020-08-08T16:57:42Z</time>
      </trkpt>
      <trkpt lat="48.72607" lon="7.32585">
        <ele>194</ele>
        <time>2020-08-08T16:57:44Z</time>
      </trkpt>
      <trkpt lat="48.72604" lon="7.3258">
        <ele>195</ele>
        <time>2020-08-08T16:57:45Z</time>
      </trkpt>
      <trkpt lat="48.72598" lon="7.3257">
        <ele>194</ele>
        <time>2020-08-08T16:57:47Z</time>
      </trkpt>
      <trkpt lat="48.72589" lon="7.32556">
        <ele>195</ele>
        <time>2020-08-08T16:57:50Z</time>
      </trkpt>
      <trkpt lat="48.72586" lon="7.32551">
        <ele>196</ele>
        <time>2020-08-08T16:57:51Z</time>
      </trkpt>
      <trkpt lat="48.72583" lon="7.32546">
        <ele>196</ele>
        <time>2020-08-08T16:57:52Z</time>
      </trkpt>
      <trkpt lat="48.72579" lon="7.32541">
        <ele>196</ele>
        <time>2020-08-08T16:57:53Z</time>
      </trkpt>
      <trkpt lat="48.72573" lon="7.32532">
        <ele>196</ele>
        <time>2020-08-08T16:57:55Z</time>
      </trkpt>
      <trkpt lat="48.72566" lon="7.32524">
        <ele>197</ele>
        <time>2020-08-08T16:57:57Z</time>
      </trkpt>
      <trkpt lat="48.7256" lon="7.32515">
        <ele>197</ele>
        <time>2020-08-08T16:57:59Z</time>
      </trkpt>
      <trkpt lat="48.72554" lon="7.32506">
        <ele>196</ele>
        <time>2020-08-08T16:58:01Z</time>
      </trkpt>
      <trkpt lat="48.72551" lon="7.32501">
        <ele>196</ele>
        <time>2020-08-08T16:58:02Z</time>
      </trkpt>
      <trkpt lat="48.72547" lon="7.32496">
        <ele>196</ele>
        <time>2020-08-08T16:58:03Z</time>
      </trkpt>
      <trkpt lat="48.72541" lon="7.32487">
        <ele>196</ele>
        <time>2020-08-08T16:58:05Z</time>
      </trkpt>
      <trkpt lat="48.72534" lon="7.32479">
        <ele>196</ele>
        <time>2020-08-08T16:58:07Z</time>
      </trkpt>
      <trkpt lat="48.72527" lon="7.3247">
        <ele>195</ele>
        <time>2020-08-08T16:58:09Z</time>
      </trkpt>
      <trkpt lat="48.72521" lon="7.32461">
        <ele>195</ele>
        <time>2020-08-08T16:58:11Z</time>
      </trkpt>
      <trkpt lat="48.72515" lon="7.32453">
        <ele>196</ele>
        <time>2020-08-08T16:58:13Z</time>
      </trkpt>
      <trkpt lat="48.72508" lon="7.32444">
        <ele>196</ele>
        <time>2020-08-08T16:58:15Z</time>
      </trkpt>
      <trkpt lat="48.72502" lon="7.32434">
        <ele>195</ele>
        <time>2020-08-08T16:58:17Z</time>
      </trkpt>
      <trkpt lat="48.72495" lon="7.32425">
        <ele>196</ele>
        <time>2020-08-08T16:58:19Z</time>
      </trkpt>
      <trkpt lat="48.72486" lon="7.32412">
        <ele>196</ele>
        <time>2020-08-08T16:58:22Z</time>
      </trkpt>
      <trkpt lat="48.72482" lon="7.32407">
        <ele>196</ele>
        <time>2020-08-08T16:58:23Z</time>
      </trkpt>
      <trkpt lat="48.72476" lon="7.32398">
        <ele>196</ele>
        <time>2020-08-08T16:58:25Z</time>
      </trkpt>
      <trkpt lat="48.72469" lon="7.32389">
        <ele>196</ele>
        <time>2020-08-08T16:58:27Z</time>
      </trkpt>
      <trkpt lat="48.72466" lon="7.32384">
        <ele>195</ele>
        <time>2020-08-08T16:58:28Z</time>
      </trkpt>
      <trkpt lat="48.72463" lon="7.3238">
        <ele>195</ele>
        <time>2020-08-08T16:58:29Z</time>
      </trkpt>
      <trkpt lat="48.72459" lon="7.32375">
        <ele>195</ele>
        <time>2020-08-08T16:58:30Z</time>
      </trkpt>
      <trkpt lat="48.72455" lon="7.32371">
        <ele>196</ele>
        <time>2020-08-08T16:58:31Z</time>
      </trkpt>
      <trkpt lat="48.7245" lon="7.32363">
        <ele>196</ele>
        <time>2020-08-08T16:58:33Z</time>
      </trkpt>
      <trkpt lat="48.72445" lon="7.32357">
        <ele>197</ele>
        <time>2020-08-08T16:58:35Z</time>
      </trkpt>
      <trkpt lat="48.72442" lon="7.32352">
        <ele>197</ele>
        <time>2020-08-08T16:58:37Z</time>
      </trkpt>
      <trkpt lat="48.7244" lon="7.32344">
        <ele>196</ele>
        <time>2020-08-08T16:58:40Z</time>
      </trkpt>
      <trkpt lat="48.72438" lon="7.32337">
        <ele>196</ele>
        <time>2020-08-08T16:58:43Z</time>
      </trkpt>
      <trkpt lat="48.72432" lon="7.32335">
        <ele>198</ele>
        <time>2020-08-08T16:59:37Z</time>
      </trkpt>
      <trkpt lat="48.72398" lon="7.3229">
        <ele>196</ele>
        <time>2020-08-08T17:01:53Z</time>
      </trkpt>
      <trkpt lat="48.72394" lon="7.32284">
        <ele>197</ele>
        <time>2020-08-08T17:01:55Z</time>
      </trkpt>
      <trkpt lat="48.72389" lon="7.32277">
        <ele>197</ele>
        <time>2020-08-08T17:01:57Z</time>
      </trkpt>
      <trkpt lat="48.72384" lon="7.3227">
        <ele>197</ele>
        <time>2020-08-08T17:01:59Z</time>
      </trkpt>
      <trkpt lat="48.72379" lon="7.32263">
        <ele>196</ele>
        <time>2020-08-08T17:02:01Z</time>
      </trkpt>
      <trkpt lat="48.72374" lon="7.32256">
        <ele>196</ele>
        <time>2020-08-08T17:02:03Z</time>
      </trkpt>
      <trkpt lat="48.72369" lon="7.32248">
        <ele>196</ele>
        <time>2020-08-08T17:02:05Z</time>
      </trkpt>
      <trkpt lat="48.72363" lon="7.3224">
        <ele>196</ele>
        <time>2020-08-08T17:02:07Z</time>
      </trkpt>
      <trkpt lat="48.72358" lon="7.32233">
        <ele>196</ele>
        <time>2020-08-08T17:02:09Z</time>
      </trkpt>
      <trkpt lat="48.72352" lon="7.32224">
        <ele>197</ele>
        <time>2020-08-08T17:02:11Z</time>
      </trkpt>
      <trkpt lat="48.72347" lon="7.32216">
        <ele>197</ele>
        <time>2020-08-08T17:02:13Z</time>
      </trkpt>
      <trkpt lat="48.7234" lon="7.32208">
        <ele>197</ele>
        <time>2020-08-08T17:02:15Z</time>
      </trkpt>
      <trkpt lat="48.72335" lon="7.322">
        <ele>196</ele>
        <time>2020-08-08T17:02:17Z</time>
      </trkpt>
      <trkpt lat="48.72329" lon="7.32192">
        <ele>196</ele>
        <time>2020-08-08T17:02:19Z</time>
      </trkpt>
      <trkpt lat="48.72324" lon="7.32184">
        <ele>196</ele>
        <time>2020-08-08T17:02:21Z</time>
      </trkpt>
      <trkpt lat="48.72319" lon="7.32176">
        <ele>196</ele>
        <time>2020-08-08T17:02:23Z</time>
      </trkpt>
      <trkpt lat="48.72313" lon="7.32168">
        <ele>197</ele>
        <time>2020-08-08T17:02:25Z</time>
      </trkpt>
      <trkpt lat="48.72307" lon="7.3216">
        <ele>197</ele>
        <time>2020-08-08T17:02:27Z</time>
      </trkpt>
      <trkpt lat="48.72302" lon="7.32151">
        <ele>197</ele>
        <time>2020-08-08T17:02:29Z</time>
      </trkpt>
      <trkpt lat="48.72297" lon="7.32143">
        <ele>197</ele>
        <time>2020-08-08T17:02:31Z</time>
      </trkpt>
      <trkpt lat="48.72291" lon="7.32134">
        <ele>197</ele>
        <time>2020-08-08T17:02:33Z</time>
      </trkpt>
      <trkpt lat="48.72286" lon="7.32125">
        <ele>196</ele>
        <time>2020-08-08T17:02:35Z</time>
      </trkpt>
      <trkpt lat="48.72281" lon="7.32117">
        <ele>196</ele>
        <time>2020-08-08T17:02:37Z</time>
      </trkpt>
      <trkpt lat="48.72275" lon="7.32108">
        <ele>196</ele>
        <time>2020-08-08T17:02:39Z</time>
      </trkpt>
      <trkpt lat="48.7227" lon="7.32099">
        <ele>196</ele>
        <time>2020-08-08T17:02:41Z</time>
      </trkpt>
      <trkpt lat="48.72265" lon="7.3209">
        <ele>196</ele>
        <time>2020-08-08T17:02:43Z</time>
      </trkpt>
      <trkpt lat="48.7226" lon="7.3208">
        <ele>196</ele>
        <time>2020-08-08T17:02:45Z</time>
      </trkpt>
      <trkpt lat="48.72254" lon="7.32071">
        <ele>197</ele>
        <time>2020-08-08T17:02:47Z</time>
      </trkpt>
      <trkpt lat="48.72249" lon="7.32061">
        <ele>197</ele>
        <time>2020-08-08T17:02:49Z</time>
      </trkpt>
      <trkpt lat="48.72244" lon="7.32051">
        <ele>197</ele>
        <time>2020-08-08T17:02:51Z</time>
      </trkpt>
      <trkpt lat="48.72239" lon="7.32041">
        <ele>197</ele>
        <time>2020-08-08T17:02:53Z</time>
      </trkpt>
      <trkpt lat="48.72235" lon="7.32031">
        <ele>196</ele>
        <time>2020-08-08T17:02:55Z</time>
      </trkpt>
      <trkpt lat="48.7223" lon="7.32021">
        <ele>197</ele>
        <time>2020-08-08T17:02:57Z</time>
      </trkpt>
      <trkpt lat="48.72225" lon="7.3201">
        <ele>197</ele>
        <time>2020-08-08T17:02:59Z</time>
      </trkpt>
      <trkpt lat="48.72221" lon="7.31999">
        <ele>197</ele>
        <time>2020-08-08T17:03:01Z</time>
      </trkpt>
      <trkpt lat="48.72217" lon="7.31987">
        <ele>197</ele>
        <time>2020-08-08T17:03:03Z</time>
      </trkpt>
      <trkpt lat="48.72213" lon="7.31977">
        <ele>198</ele>
        <time>2020-08-08T17:03:05Z</time>
      </trkpt>
      <trkpt lat="48.72209" lon="7.31965">
        <ele>198</ele>
        <time>2020-08-08T17:03:07Z</time>
      </trkpt>
      <trkpt lat="48.72205" lon="7.31954">
        <ele>198</ele>
        <time>2020-08-08T17:03:09Z</time>
      </trkpt>
      <trkpt lat="48.72202" lon="7.31942">
        <ele>198</ele>
        <time>2020-08-08T17:03:11Z</time>
      </trkpt>
      <trkpt lat="48.72199" lon="7.31931">
        <ele>198</ele>
        <time>2020-08-08T17:03:13Z</time>
      </trkpt>
      <trkpt lat="48.72197" lon="7.31919">
        <ele>198</ele>
        <time>2020-08-08T17:03:15Z</time>
      </trkpt>
      <trkpt lat="48.72194" lon="7.31907">
        <ele>197</ele>
        <time>2020-08-08T17:03:17Z</time>
      </trkpt>
      <trkpt lat="48.72192" lon="7.31895">
        <ele>197</ele>
        <time>2020-08-08T17:03:19Z</time>
      </trkpt>
      <trkpt lat="48.72191" lon="7.31883">
        <ele>197</ele>
        <time>2020-08-08T17:03:21Z</time>
      </trkpt>
      <trkpt lat="48.7219" lon="7.31871">
        <ele>197</ele>
        <time>2020-08-08T17:03:23Z</time>
      </trkpt>
      <trkpt lat="48.72189" lon="7.31859">
        <ele>197</ele>
        <time>2020-08-08T17:03:25Z</time>
      </trkpt>
      <trkpt lat="48.72188" lon="7.31847">
        <ele>197</ele>
        <time>2020-08-08T17:03:27Z</time>
      </trkpt>
      <trkpt lat="48.72187" lon="7.31835">
        <ele>196</ele>
        <time>2020-08-08T17:03:29Z</time>
      </trkpt>
      <trkpt lat="48.72185" lon="7.31822">
        <ele>196</ele>
        <time>2020-08-08T17:03:31Z</time>
      </trkpt>
      <trkpt lat="48.72184" lon="7.31809">
        <ele>196</ele>
        <time>2020-08-08T17:03:33Z</time>
      </trkpt>
      <trkpt lat="48.72183" lon="7.31796">
        <ele>196</ele>
        <time>2020-08-08T17:03:35Z</time>
      </trkpt>
      <trkpt lat="48.72182" lon="7.31784">
        <ele>196</ele>
        <time>2020-08-08T17:03:37Z</time>
      </trkpt>
      <trkpt lat="48.72181" lon="7.31772">
        <ele>197</ele>
        <time>2020-08-08T17:03:39Z</time>
      </trkpt>
      <trkpt lat="48.7218" lon="7.31765">
        <ele>197</ele>
        <time>2020-08-08T17:03:40Z</time>
      </trkpt>
      <trkpt lat="48.72178" lon="7.31753">
        <ele>197</ele>
        <time>2020-08-08T17:03:42Z</time>
      </trkpt>
      <trkpt lat="48.72177" lon="7.31741">
        <ele>197</ele>
        <time>2020-08-08T17:03:44Z</time>
      </trkpt>
      <trkpt lat="48.72176" lon="7.31729">
        <ele>196</ele>
        <time>2020-08-08T17:03:46Z</time>
      </trkpt>
      <trkpt lat="48.72176" lon="7.31718">
        <ele>195</ele>
        <time>2020-08-08T17:03:48Z</time>
      </trkpt>
      <trkpt lat="48.72175" lon="7.31707">
        <ele>195</ele>
        <time>2020-08-08T17:03:50Z</time>
      </trkpt>
      <trkpt lat="48.72174" lon="7.31695">
        <ele>195</ele>
        <time>2020-08-08T17:03:52Z</time>
      </trkpt>
      <trkpt lat="48.72173" lon="7.31684">
        <ele>196</ele>
        <time>2020-08-08T17:03:54Z</time>
      </trkpt>
      <trkpt lat="48.72172" lon="7.31677">
        <ele>196</ele>
        <time>2020-08-08T17:03:55Z</time>
      </trkpt>
      <trkpt lat="48.7217" lon="7.31664">
        <ele>197</ele>
        <time>2020-08-08T17:03:57Z</time>
      </trkpt>
      <trkpt lat="48.7217" lon="7.31657">
        <ele>198</ele>
        <time>2020-08-08T17:03:58Z</time>
      </trkpt>
      <trkpt lat="48.72168" lon="7.31645">
        <ele>198</ele>
        <time>2020-08-08T17:04:00Z</time>
      </trkpt>
      <trkpt lat="48.72165" lon="7.31635">
        <ele>198</ele>
        <time>2020-08-08T17:04:02Z</time>
      </trkpt>
      <trkpt lat="48.72163" lon="7.31627">
        <ele>199</ele>
        <time>2020-08-08T17:04:04Z</time>
      </trkpt>
      <trkpt lat="48.72163" lon="7.31621">
        <ele>199</ele>
        <time>2020-08-08T17:04:06Z</time>
      </trkpt>
      <trkpt lat="48.72162" lon="7.31612">
        <ele>199</ele>
        <time>2020-08-08T17:04:09Z</time>
      </trkpt>
      <trkpt lat="48.7216" lon="7.31605">
        <ele>199</ele>
        <time>2020-08-08T17:04:11Z</time>
      </trkpt>
      <trkpt lat="48.72158" lon="7.31598">
        <ele>200</ele>
        <time>2020-08-08T17:04:13Z</time>
      </trkpt>
      <trkpt lat="48.72157" lon="7.31589">
        <ele>200</ele>
        <time>2020-08-08T17:04:15Z</time>
      </trkpt>
      <trkpt lat="48.72154" lon="7.3158">
        <ele>200</ele>
        <time>2020-08-08T17:04:17Z</time>
      </trkpt>
      <trkpt lat="48.72153" lon="7.31571">
        <ele>199</ele>
        <time>2020-08-08T17:04:19Z</time>
      </trkpt>
      <trkpt lat="48.72151" lon="7.31563">
        <ele>199</ele>
        <time>2020-08-08T17:04:21Z</time>
      </trkpt>
      <trkpt lat="48.72149" lon="7.31555">
        <ele>199</ele>
        <time>2020-08-08T17:04:23Z</time>
      </trkpt>
      <trkpt lat="48.72147" lon="7.31546">
        <ele>199</ele>
        <time>2020-08-08T17:04:25Z</time>
      </trkpt>
      <trkpt lat="48.72144" lon="7.31538">
        <ele>199</ele>
        <time>2020-08-08T17:04:27Z</time>
      </trkpt>
      <trkpt lat="48.72142" lon="7.31528">
        <ele>199</ele>
        <time>2020-08-08T17:04:29Z</time>
      </trkpt>
      <trkpt lat="48.72139" lon="7.31518">
        <ele>199</ele>
        <time>2020-08-08T17:04:31Z</time>
      </trkpt>
      <trkpt lat="48.72136" lon="7.31509">
        <ele>199</ele>
        <time>2020-08-08T17:04:33Z</time>
      </trkpt>
      <trkpt lat="48.72133" lon="7.31501">
        <ele>199</ele>
        <time>2020-08-08T17:04:35Z</time>
      </trkpt>
      <trkpt lat="48.72131" lon="7.31491">
        <ele>199</ele>
        <time>2020-08-08T17:04:37Z</time>
      </trkpt>
      <trkpt lat="48.72128" lon="7.3148">
        <ele>199</ele>
        <time>2020-08-08T17:04:39Z</time>
      </trkpt>
      <trkpt lat="48.72125" lon="7.3147">
        <ele>199</ele>
        <time>2020-08-08T17:04:41Z</time>
      </trkpt>
      <trkpt lat="48.72121" lon="7.31461">
        <ele>199</ele>
        <time>2020-08-08T17:04:43Z</time>
      </trkpt>
      <trkpt lat="48.72118" lon="7.31451">
        <ele>199</ele>
        <time>2020-08-08T17:04:45Z</time>
      </trkpt>
      <trkpt lat="48.72115" lon="7.31442">
        <ele>199</ele>
        <time>2020-08-08T17:04:47Z</time>
      </trkpt>
      <trkpt lat="48.72112" lon="7.31433">
        <ele>199</ele>
        <time>2020-08-08T17:04:49Z</time>
      </trkpt>
      <trkpt lat="48.7211" lon="7.31424">
        <ele>199</ele>
        <time>2020-08-08T17:04:51Z</time>
      </trkpt>
      <trkpt lat="48.72106" lon="7.31414">
        <ele>199</ele>
        <time>2020-08-08T17:04:53Z</time>
      </trkpt>
      <trkpt lat="48.72102" lon="7.31404">
        <ele>199</ele>
        <time>2020-08-08T17:04:55Z</time>
      </trkpt>
      <trkpt lat="48.72101" lon="7.31394">
        <ele>199</ele>
        <time>2020-08-08T17:04:57Z</time>
      </trkpt>
      <trkpt lat="48.72099" lon="7.31385">
        <ele>199</ele>
        <time>2020-08-08T17:04:59Z</time>
      </trkpt>
      <trkpt lat="48.72095" lon="7.31374">
        <ele>199</ele>
        <time>2020-08-08T17:05:01Z</time>
      </trkpt>
      <trkpt lat="48.72092" lon="7.31363">
        <ele>199</ele>
        <time>2020-08-08T17:05:03Z</time>
      </trkpt>
      <trkpt lat="48.72088" lon="7.31352">
        <ele>199</ele>
        <time>2020-08-08T17:05:05Z</time>
      </trkpt>
      <trkpt lat="48.72084" lon="7.31341">
        <ele>199</ele>
        <time>2020-08-08T17:05:07Z</time>
      </trkpt>
      <trkpt lat="48.72081" lon="7.31331">
        <ele>199</ele>
        <time>2020-08-08T17:05:09Z</time>
      </trkpt>
      <trkpt lat="48.72078" lon="7.31322">
        <ele>199</ele>
        <time>2020-08-08T17:05:11Z</time>
      </trkpt>
      <trkpt lat="48.72075" lon="7.31312">
        <ele>199</ele>
        <time>2020-08-08T17:05:13Z</time>
      </trkpt>
      <trkpt lat="48.72072" lon="7.31303">
        <ele>199</ele>
        <time>2020-08-08T17:05:15Z</time>
      </trkpt>
      <trkpt lat="48.7207" lon="7.31293">
        <ele>199</ele>
        <time>2020-08-08T17:05:17Z</time>
      </trkpt>
      <trkpt lat="48.72067" lon="7.31282">
        <ele>198</ele>
        <time>2020-08-08T17:05:19Z</time>
      </trkpt>
      <trkpt lat="48.72065" lon="7.31271">
        <ele>198</ele>
        <time>2020-08-08T17:05:21Z</time>
      </trkpt>
      <trkpt lat="48.72063" lon="7.31259">
        <ele>199</ele>
        <time>2020-08-08T17:05:23Z</time>
      </trkpt>
      <trkpt lat="48.72062" lon="7.31248">
        <ele>199</ele>
        <time>2020-08-08T17:05:25Z</time>
      </trkpt>
      <trkpt lat="48.7206" lon="7.31237">
        <ele>199</ele>
        <time>2020-08-08T17:05:27Z</time>
      </trkpt>
      <trkpt lat="48.7206" lon="7.31225">
        <ele>199</ele>
        <time>2020-08-08T17:05:29Z</time>
      </trkpt>
      <trkpt lat="48.7206" lon="7.31213">
        <ele>199</ele>
        <time>2020-08-08T17:05:31Z</time>
      </trkpt>
      <trkpt lat="48.7206" lon="7.31201">
        <ele>199</ele>
        <time>2020-08-08T17:05:33Z</time>
      </trkpt>
      <trkpt lat="48.72061" lon="7.31189">
        <ele>199</ele>
        <time>2020-08-08T17:05:35Z</time>
      </trkpt>
      <trkpt lat="48.72062" lon="7.31177">
        <ele>199</ele>
        <time>2020-08-08T17:05:37Z</time>
      </trkpt>
      <trkpt lat="48.72063" lon="7.31166">
        <ele>200</ele>
        <time>2020-08-08T17:05:39Z</time>
      </trkpt>
      <trkpt lat="48.72065" lon="7.31156">
        <ele>200</ele>
        <time>2020-08-08T17:05:41Z</time>
      </trkpt>
      <trkpt lat="48.72066" lon="7.31145">
        <ele>200</ele>
        <time>2020-08-08T17:05:43Z</time>
      </trkpt>
      <trkpt lat="48.72068" lon="7.31134">
        <ele>201</ele>
        <time>2020-08-08T17:05:45Z</time>
      </trkpt>
      <trkpt lat="48.72069" lon="7.31127">
        <ele>201</ele>
        <time>2020-08-08T17:05:46Z</time>
      </trkpt>
      <trkpt lat="48.7207" lon="7.3112">
        <ele>202</ele>
        <time>2020-08-08T17:05:47Z</time>
      </trkpt>
      <trkpt lat="48.72072" lon="7.31108">
        <ele>202</ele>
        <time>2020-08-08T17:05:49Z</time>
      </trkpt>
      <trkpt lat="48.72074" lon="7.31097">
        <ele>202</ele>
        <time>2020-08-08T17:05:51Z</time>
      </trkpt>
      <trkpt lat="48.72075" lon="7.31087">
        <ele>203</ele>
        <time>2020-08-08T17:05:53Z</time>
      </trkpt>
      <trkpt lat="48.72077" lon="7.31076">
        <ele>204</ele>
        <time>2020-08-08T17:05:55Z</time>
      </trkpt>
      <trkpt lat="48.72079" lon="7.31064">
        <ele>204</ele>
        <time>2020-08-08T17:05:57Z</time>
      </trkpt>
      <trkpt lat="48.7208" lon="7.31053">
        <ele>204</ele>
        <time>2020-08-08T17:05:59Z</time>
      </trkpt>
      <trkpt lat="48.7208" lon="7.3104">
        <ele>203</ele>
        <time>2020-08-08T17:06:01Z</time>
      </trkpt>
      <trkpt lat="48.72081" lon="7.31027">
        <ele>203</ele>
        <time>2020-08-08T17:06:03Z</time>
      </trkpt>
      <trkpt lat="48.72082" lon="7.31016">
        <ele>202</ele>
        <time>2020-08-08T17:06:05Z</time>
      </trkpt>
      <trkpt lat="48.72082" lon="7.31004">
        <ele>202</ele>
        <time>2020-08-08T17:06:07Z</time>
      </trkpt>
      <trkpt lat="48.72082" lon="7.30992">
        <ele>202</ele>
        <time>2020-08-08T17:06:09Z</time>
      </trkpt>
      <trkpt lat="48.72081" lon="7.3098">
        <ele>202</ele>
        <time>2020-08-08T17:06:11Z</time>
      </trkpt>
      <trkpt lat="48.72081" lon="7.30969">
        <ele>203</ele>
        <time>2020-08-08T17:06:13Z</time>
      </trkpt>
      <trkpt lat="48.72081" lon="7.30957">
        <ele>203</ele>
        <time>2020-08-08T17:06:15Z</time>
      </trkpt>
      <trkpt lat="48.72081" lon="7.30945">
        <ele>202</ele>
        <time>2020-08-08T17:06:17Z</time>
      </trkpt>
      <trkpt lat="48.7208" lon="7.30933">
        <ele>202</ele>
        <time>2020-08-08T17:06:19Z</time>
      </trkpt>
      <trkpt lat="48.7208" lon="7.30921">
        <ele>201</ele>
        <time>2020-08-08T17:06:21Z</time>
      </trkpt>
      <trkpt lat="48.7208" lon="7.30909">
        <ele>201</ele>
        <time>2020-08-08T17:06:23Z</time>
      </trkpt>
      <trkpt lat="48.72079" lon="7.30897">
        <ele>200</ele>
        <time>2020-08-08T17:06:25Z</time>
      </trkpt>
      <trkpt lat="48.72078" lon="7.30884">
        <ele>200</ele>
        <time>2020-08-08T17:06:27Z</time>
      </trkpt>
      <trkpt lat="48.72078" lon="7.30872">
        <ele>199</ele>
        <time>2020-08-08T17:06:29Z</time>
      </trkpt>
      <trkpt lat="48.72077" lon="7.30859">
        <ele>199</ele>
        <time>2020-08-08T17:06:31Z</time>
      </trkpt>
      <trkpt lat="48.72077" lon="7.30847">
        <ele>199</ele>
        <time>2020-08-08T17:06:33Z</time>
      </trkpt>
      <trkpt lat="48.72076" lon="7.30835">
        <ele>199</ele>
        <time>2020-08-08T17:06:35Z</time>
      </trkpt>
      <trkpt lat="48.72075" lon="7.30823">
        <ele>199</ele>
        <time>2020-08-08T17:06:37Z</time>
      </trkpt>
      <trkpt lat="48.72076" lon="7.30811">
        <ele>199</ele>
        <time>2020-08-08T17:06:39Z</time>
      </trkpt>
      <trkpt lat="48.72076" lon="7.30799">
        <ele>199</ele>
        <time>2020-08-08T17:06:41Z</time>
      </trkpt>
      <trkpt lat="48.72076" lon="7.30787">
        <ele>199</ele>
        <time>2020-08-08T17:06:43Z</time>
      </trkpt>
      <trkpt lat="48.72078" lon="7.30776">
        <ele>199</ele>
        <time>2020-08-08T17:06:45Z</time>
      </trkpt>
      <trkpt lat="48.7208" lon="7.30765">
        <ele>199</ele>
        <time>2020-08-08T17:06:47Z</time>
      </trkpt>
      <trkpt lat="48.72081" lon="7.30755">
        <ele>199</ele>
        <time>2020-08-08T17:06:49Z</time>
      </trkpt>
      <trkpt lat="48.72084" lon="7.30743">
        <ele>199</ele>
        <time>2020-08-08T17:06:51Z</time>
      </trkpt>
      <trkpt lat="48.72086" lon="7.30732">
        <ele>199</ele>
        <time>2020-08-08T17:06:53Z</time>
      </trkpt>
      <trkpt lat="48.72089" lon="7.30722">
        <ele>199</ele>
        <time>2020-08-08T17:06:55Z</time>
      </trkpt>
      <trkpt lat="48.72092" lon="7.30711">
        <ele>200</ele>
        <time>2020-08-08T17:06:57Z</time>
      </trkpt>
      <trkpt lat="48.72096" lon="7.30701">
        <ele>200</ele>
        <time>2020-08-08T17:06:59Z</time>
      </trkpt>
      <trkpt lat="48.72101" lon="7.30691">
        <ele>200</ele>
        <time>2020-08-08T17:07:01Z</time>
      </trkpt>
      <trkpt lat="48.72105" lon="7.30682">
        <ele>200</ele>
        <time>2020-08-08T17:07:03Z</time>
      </trkpt>
      <trkpt lat="48.7211" lon="7.30673">
        <ele>201</ele>
        <time>2020-08-08T17:07:05Z</time>
      </trkpt>
      <trkpt lat="48.72116" lon="7.30664">
        <ele>200</ele>
        <time>2020-08-08T17:07:07Z</time>
      </trkpt>
      <trkpt lat="48.72122" lon="7.30656">
        <ele>201</ele>
        <time>2020-08-08T17:07:09Z</time>
      </trkpt>
      <trkpt lat="48.72128" lon="7.30649">
        <ele>201</ele>
        <time>2020-08-08T17:07:11Z</time>
      </trkpt>
      <trkpt lat="48.72134" lon="7.30642">
        <ele>201</ele>
        <time>2020-08-08T17:07:13Z</time>
      </trkpt>
      <trkpt lat="48.72141" lon="7.30635">
        <ele>202</ele>
        <time>2020-08-08T17:07:15Z</time>
      </trkpt>
      <trkpt lat="48.72147" lon="7.3063">
        <ele>202</ele>
        <time>2020-08-08T17:07:17Z</time>
      </trkpt>
      <trkpt lat="48.72155" lon="7.30624">
        <ele>202</ele>
        <time>2020-08-08T17:07:19Z</time>
      </trkpt>
      <trkpt lat="48.72162" lon="7.30619">
        <ele>202</ele>
        <time>2020-08-08T17:07:21Z</time>
      </trkpt>
      <trkpt lat="48.72169" lon="7.30615">
        <ele>202</ele>
        <time>2020-08-08T17:07:23Z</time>
      </trkpt>
      <trkpt lat="48.72176" lon="7.30611">
        <ele>203</ele>
        <time>2020-08-08T17:07:25Z</time>
      </trkpt>
      <trkpt lat="48.72181" lon="7.30606">
        <ele>205</ele>
        <time>2020-08-08T17:07:27Z</time>
      </trkpt>
      <trkpt lat="48.72188" lon="7.30602">
        <ele>205</ele>
        <time>2020-08-08T17:07:29Z</time>
      </trkpt>
      <trkpt lat="48.72196" lon="7.30601">
        <ele>206</ele>
        <time>2020-08-08T17:07:31Z</time>
      </trkpt>
      <trkpt lat="48.72205" lon="7.30598">
        <ele>207</ele>
        <time>2020-08-08T17:07:33Z</time>
      </trkpt>
      <trkpt lat="48.72213" lon="7.30595">
        <ele>207</ele>
        <time>2020-08-08T17:07:35Z</time>
      </trkpt>
      <trkpt lat="48.72222" lon="7.30593">
        <ele>207</ele>
        <time>2020-08-08T17:07:37Z</time>
      </trkpt>
      <trkpt lat="48.72229" lon="7.30588">
        <ele>207</ele>
        <time>2020-08-08T17:07:39Z</time>
      </trkpt>
      <trkpt lat="48.72239" lon="7.30587">
        <ele>207</ele>
        <time>2020-08-08T17:07:41Z</time>
      </trkpt>
      <trkpt lat="48.72245" lon="7.30585">
        <ele>207</ele>
        <time>2020-08-08T17:07:43Z</time>
      </trkpt>
      <trkpt lat="48.72253" lon="7.30582">
        <ele>206</ele>
        <time>2020-08-08T17:07:45Z</time>
      </trkpt>
      <trkpt lat="48.72261" lon="7.30579">
        <ele>205</ele>
        <time>2020-08-08T17:07:47Z</time>
      </trkpt>
      <trkpt lat="48.72268" lon="7.30576">
        <ele>205</ele>
        <time>2020-08-08T17:07:49Z</time>
      </trkpt>
      <trkpt lat="48.72273" lon="7.30575">
        <ele>205</ele>
        <time>2020-08-08T17:07:50Z</time>
      </trkpt>
      <trkpt lat="48.7228" lon="7.30572">
        <ele>203</ele>
        <time>2020-08-08T17:07:52Z</time>
      </trkpt>
      <trkpt lat="48.72288" lon="7.30568">
        <ele>202</ele>
        <time>2020-08-08T17:07:54Z</time>
      </trkpt>
      <trkpt lat="48.72295" lon="7.30562">
        <ele>202</ele>
        <time>2020-08-08T17:07:56Z</time>
      </trkpt>
      <trkpt lat="48.72303" lon="7.30558">
        <ele>202</ele>
        <time>2020-08-08T17:07:58Z</time>
      </trkpt>
      <trkpt lat="48.7231" lon="7.30554">
        <ele>201</ele>
        <time>2020-08-08T17:08:00Z</time>
      </trkpt>
      <trkpt lat="48.72318" lon="7.30548">
        <ele>201</ele>
        <time>2020-08-08T17:08:02Z</time>
      </trkpt>
      <trkpt lat="48.72324" lon="7.30542">
        <ele>201</ele>
        <time>2020-08-08T17:08:04Z</time>
      </trkpt>
      <trkpt lat="48.72331" lon="7.30537">
        <ele>201</ele>
        <time>2020-08-08T17:08:06Z</time>
      </trkpt>
      <trkpt lat="48.72337" lon="7.3053">
        <ele>201</ele>
        <time>2020-08-08T17:08:08Z</time>
      </trkpt>
      <trkpt lat="48.72344" lon="7.30524">
        <ele>201</ele>
        <time>2020-08-08T17:08:10Z</time>
      </trkpt>
      <trkpt lat="48.7235" lon="7.30517">
        <ele>202</ele>
        <time>2020-08-08T17:08:12Z</time>
      </trkpt>
      <trkpt lat="48.72356" lon="7.30512">
        <ele>202</ele>
        <time>2020-08-08T17:08:14Z</time>
      </trkpt>
      <trkpt lat="48.7236" lon="7.30507">
        <ele>202</ele>
        <time>2020-08-08T17:08:15Z</time>
      </trkpt>
      <trkpt lat="48.72367" lon="7.30501">
        <ele>202</ele>
        <time>2020-08-08T17:08:17Z</time>
      </trkpt>
      <trkpt lat="48.72373" lon="7.30493">
        <ele>202</ele>
        <time>2020-08-08T17:08:19Z</time>
      </trkpt>
      <trkpt lat="48.72379" lon="7.30486">
        <ele>202</ele>
        <time>2020-08-08T17:08:21Z</time>
      </trkpt>
      <trkpt lat="48.72384" lon="7.30479">
        <ele>202</ele>
        <time>2020-08-08T17:08:23Z</time>
      </trkpt>
      <trkpt lat="48.7239" lon="7.30471">
        <ele>202</ele>
        <time>2020-08-08T17:08:25Z</time>
      </trkpt>
      <trkpt lat="48.72393" lon="7.30466">
        <ele>202</ele>
        <time>2020-08-08T17:08:26Z</time>
      </trkpt>
      <trkpt lat="48.724" lon="7.30457">
        <ele>202</ele>
        <time>2020-08-08T17:08:28Z</time>
      </trkpt>
      <trkpt lat="48.72406" lon="7.30448">
        <ele>202</ele>
        <time>2020-08-08T17:08:30Z</time>
      </trkpt>
      <trkpt lat="48.72411" lon="7.30438">
        <ele>202</ele>
        <time>2020-08-08T17:08:32Z</time>
      </trkpt>
      <trkpt lat="48.72417" lon="7.3043">
        <ele>201</ele>
        <time>2020-08-08T17:08:34Z</time>
      </trkpt>
      <trkpt lat="48.72424" lon="7.30421">
        <ele>201</ele>
        <time>2020-08-08T17:08:36Z</time>
      </trkpt>
      <trkpt lat="48.72429" lon="7.30414">
        <ele>201</ele>
        <time>2020-08-08T17:08:38Z</time>
      </trkpt>
      <trkpt lat="48.72434" lon="7.30406">
        <ele>201</ele>
        <time>2020-08-08T17:08:40Z</time>
      </trkpt>
      <trkpt lat="48.72439" lon="7.30399">
        <ele>201</ele>
        <time>2020-08-08T17:08:42Z</time>
      </trkpt>
      <trkpt lat="48.72444" lon="7.30391">
        <ele>201</ele>
        <time>2020-08-08T17:08:44Z</time>
      </trkpt>
      <trkpt lat="48.72448" lon="7.30384">
        <ele>200</ele>
        <time>2020-08-08T17:08:46Z</time>
      </trkpt>
      <trkpt lat="48.72453" lon="7.30375">
        <ele>200</ele>
        <time>2020-08-08T17:08:48Z</time>
      </trkpt>
      <trkpt lat="48.72458" lon="7.30366">
        <ele>200</ele>
        <time>2020-08-08T17:08:50Z</time>
      </trkpt>
      <trkpt lat="48.72463" lon="7.30358">
        <ele>200</ele>
        <time>2020-08-08T17:08:52Z</time>
      </trkpt>
      <trkpt lat="48.72467" lon="7.30349">
        <ele>200</ele>
        <time>2020-08-08T17:08:54Z</time>
      </trkpt>
      <trkpt lat="48.72471" lon="7.3034">
        <ele>200</ele>
        <time>2020-08-08T17:08:56Z</time>
      </trkpt>
      <trkpt lat="48.72474" lon="7.30331">
        <ele>199</ele>
        <time>2020-08-08T17:08:58Z</time>
      </trkpt>
      <trkpt lat="48.72477" lon="7.30323">
        <ele>200</ele>
        <time>2020-08-08T17:09:00Z</time>
      </trkpt>
      <trkpt lat="48.72481" lon="7.30315">
        <ele>200</ele>
        <time>2020-08-08T17:09:02Z</time>
      </trkpt>
      <trkpt lat="48.72485" lon="7.30307">
        <ele>200</ele>
        <time>2020-08-08T17:09:04Z</time>
      </trkpt>
      <trkpt lat="48.72488" lon="7.30298">
        <ele>200</ele>
        <time>2020-08-08T17:09:06Z</time>
      </trkpt>
      <trkpt lat="48.72492" lon="7.30289">
        <ele>200</ele>
        <time>2020-08-08T17:09:08Z</time>
      </trkpt>
      <trkpt lat="48.72495" lon="7.30279">
        <ele>201</ele>
        <time>2020-08-08T17:09:10Z</time>
      </trkpt>
      <trkpt lat="48.72498" lon="7.30271">
        <ele>201</ele>
        <time>2020-08-08T17:09:12Z</time>
      </trkpt>
      <trkpt lat="48.725" lon="7.30264">
        <ele>203</ele>
        <time>2020-08-08T17:09:14Z</time>
      </trkpt>
      <trkpt lat="48.72504" lon="7.30256">
        <ele>203</ele>
        <time>2020-08-08T17:09:17Z</time>
      </trkpt>
      <trkpt lat="48.72506" lon="7.30247">
        <ele>203</ele>
        <time>2020-08-08T17:09:19Z</time>
      </trkpt>
      <trkpt lat="48.72509" lon="7.3024">
        <ele>203</ele>
        <time>2020-08-08T17:09:21Z</time>
      </trkpt>
      <trkpt lat="48.72512" lon="7.30231">
        <ele>203</ele>
        <time>2020-08-08T17:09:23Z</time>
      </trkpt>
      <trkpt lat="48.72516" lon="7.30223">
        <ele>203</ele>
        <time>2020-08-08T17:09:25Z</time>
      </trkpt>
      <trkpt lat="48.72518" lon="7.30214">
        <ele>203</ele>
        <time>2020-08-08T17:09:27Z</time>
      </trkpt>
      <trkpt lat="48.7252" lon="7.30204">
        <ele>203</ele>
        <time>2020-08-08T17:09:29Z</time>
      </trkpt>
      <trkpt lat="48.72522" lon="7.30196">
        <ele>203</ele>
        <time>2020-08-08T17:09:31Z</time>
      </trkpt>
      <trkpt lat="48.72524" lon="7.30188">
        <ele>202</ele>
        <time>2020-08-08T17:09:33Z</time>
      </trkpt>
      <trkpt lat="48.72525" lon="7.30178">
        <ele>202</ele>
        <time>2020-08-08T17:09:35Z</time>
      </trkpt>
      <trkpt lat="48.72527" lon="7.30169">
        <ele>202</ele>
        <time>2020-08-08T17:09:37Z</time>
      </trkpt>
      <trkpt lat="48.7253" lon="7.30159">
        <ele>202</ele>
        <time>2020-08-08T17:09:39Z</time>
      </trkpt>
      <trkpt lat="48.72531" lon="7.30149">
        <ele>202</ele>
        <time>2020-08-08T17:09:41Z</time>
      </trkpt>
      <trkpt lat="48.72533" lon="7.3014">
        <ele>202</ele>
        <time>2020-08-08T17:09:43Z</time>
      </trkpt>
      <trkpt lat="48.72535" lon="7.3013">
        <ele>202</ele>
        <time>2020-08-08T17:09:45Z</time>
      </trkpt>
      <trkpt lat="48.72537" lon="7.30121">
        <ele>202</ele>
        <time>2020-08-08T17:09:47Z</time>
      </trkpt>
      <trkpt lat="48.72539" lon="7.3011">
        <ele>202</ele>
        <time>2020-08-08T17:09:49Z</time>
      </trkpt>
      <trkpt lat="48.72541" lon="7.301">
        <ele>202</ele>
        <time>2020-08-08T17:09:51Z</time>
      </trkpt>
      <trkpt lat="48.72542" lon="7.3009">
        <ele>201</ele>
        <time>2020-08-08T17:09:53Z</time>
      </trkpt>
      <trkpt lat="48.72545" lon="7.30081">
        <ele>202</ele>
        <time>2020-08-08T17:09:55Z</time>
      </trkpt>
      <trkpt lat="48.72546" lon="7.30071">
        <ele>202</ele>
        <time>2020-08-08T17:09:57Z</time>
      </trkpt>
      <trkpt lat="48.72548" lon="7.30061">
        <ele>202</ele>
        <time>2020-08-08T17:09:59Z</time>
      </trkpt>
      <trkpt lat="48.72551" lon="7.30051">
        <ele>202</ele>
        <time>2020-08-08T17:10:01Z</time>
      </trkpt>
      <trkpt lat="48.72553" lon="7.3004">
        <ele>203</ele>
        <time>2020-08-08T17:10:03Z</time>
      </trkpt>
      <trkpt lat="48.72555" lon="7.3003">
        <ele>203</ele>
        <time>2020-08-08T17:10:05Z</time>
      </trkpt>
      <trkpt lat="48.72558" lon="7.3002">
        <ele>203</ele>
        <time>2020-08-08T17:10:07Z</time>
      </trkpt>
      <trkpt lat="48.72561" lon="7.3001">
        <ele>203</ele>
        <time>2020-08-08T17:10:09Z</time>
      </trkpt>
      <trkpt lat="48.72564" lon="7.3">
        <ele>203</ele>
        <time>2020-08-08T17:10:11Z</time>
      </trkpt>
      <trkpt lat="48.72568" lon="7.2999">
        <ele>203</ele>
        <time>2020-08-08T17:10:13Z</time>
      </trkpt>
      <trkpt lat="48.72572" lon="7.2998">
        <ele>203</ele>
        <time>2020-08-08T17:10:15Z</time>
      </trkpt>
      <trkpt lat="48.72575" lon="7.29974">
        <ele>203</ele>
        <time>2020-08-08T17:10:16Z</time>
      </trkpt>
      <trkpt lat="48.7258" lon="7.29964">
        <ele>203</ele>
        <time>2020-08-08T17:10:18Z</time>
      </trkpt>
      <trkpt lat="48.72585" lon="7.29954">
        <ele>203</ele>
        <time>2020-08-08T17:10:20Z</time>
      </trkpt>
      <trkpt lat="48.7259" lon="7.29944">
        <ele>203</ele>
        <time>2020-08-08T17:10:22Z</time>
      </trkpt>
      <trkpt lat="48.72595" lon="7.29936">
        <ele>203</ele>
        <time>2020-08-08T17:10:24Z</time>
      </trkpt>
      <trkpt lat="48.72601" lon="7.29927">
        <ele>203</ele>
        <time>2020-08-08T17:10:26Z</time>
      </trkpt>
      <trkpt lat="48.72606" lon="7.29919">
        <ele>203</ele>
        <time>2020-08-08T17:10:28Z</time>
      </trkpt>
      <trkpt lat="48.72612" lon="7.29912">
        <ele>203</ele>
        <time>2020-08-08T17:10:30Z</time>
      </trkpt>
      <trkpt lat="48.72619" lon="7.29905">
        <ele>203</ele>
        <time>2020-08-08T17:10:32Z</time>
      </trkpt>
      <trkpt lat="48.72625" lon="7.29899">
        <ele>204</ele>
        <time>2020-08-08T17:10:34Z</time>
      </trkpt>
      <trkpt lat="48.72632" lon="7.29892">
        <ele>204</ele>
        <time>2020-08-08T17:10:36Z</time>
      </trkpt>
      <trkpt lat="48.7264" lon="7.29887">
        <ele>204</ele>
        <time>2020-08-08T17:10:38Z</time>
      </trkpt>
      <trkpt lat="48.72647" lon="7.29883">
        <ele>204</ele>
        <time>2020-08-08T17:10:40Z</time>
      </trkpt>
      <trkpt lat="48.72655" lon="7.2988">
        <ele>204</ele>
        <time>2020-08-08T17:10:42Z</time>
      </trkpt>
      <trkpt lat="48.72663" lon="7.29876">
        <ele>205</ele>
        <time>2020-08-08T17:10:44Z</time>
      </trkpt>
      <trkpt lat="48.72672" lon="7.29874">
        <ele>205</ele>
        <time>2020-08-08T17:10:46Z</time>
      </trkpt>
      <trkpt lat="48.7268" lon="7.29873">
        <ele>205</ele>
        <time>2020-08-08T17:10:48Z</time>
      </trkpt>
      <trkpt lat="48.72688" lon="7.29873">
        <ele>205</ele>
        <time>2020-08-08T17:10:50Z</time>
      </trkpt>
      <trkpt lat="48.72696" lon="7.29873">
        <ele>206</ele>
        <time>2020-08-08T17:10:52Z</time>
      </trkpt>
      <trkpt lat="48.72704" lon="7.29874">
        <ele>206</ele>
        <time>2020-08-08T17:10:54Z</time>
      </trkpt>
      <trkpt lat="48.72713" lon="7.29875">
        <ele>207</ele>
        <time>2020-08-08T17:10:56Z</time>
      </trkpt>
      <trkpt lat="48.72718" lon="7.29875">
        <ele>207</ele>
        <time>2020-08-08T17:10:57Z</time>
      </trkpt>
      <trkpt lat="48.72725" lon="7.29879">
        <ele>206</ele>
        <time>2020-08-08T17:10:59Z</time>
      </trkpt>
      <trkpt lat="48.72733" lon="7.29882">
        <ele>206</ele>
        <time>2020-08-08T17:11:01Z</time>
      </trkpt>
      <trkpt lat="48.7274" lon="7.29886">
        <ele>206</ele>
        <time>2020-08-08T17:11:03Z</time>
      </trkpt>
      <trkpt lat="48.72749" lon="7.2989">
        <ele>206</ele>
        <time>2020-08-08T17:11:05Z</time>
      </trkpt>
      <trkpt lat="48.72756" lon="7.29894">
        <ele>205</ele>
        <time>2020-08-08T17:11:07Z</time>
      </trkpt>
      <trkpt lat="48.72764" lon="7.29898">
        <ele>205</ele>
        <time>2020-08-08T17:11:09Z</time>
      </trkpt>
      <trkpt lat="48.72771" lon="7.29902">
        <ele>205</ele>
        <time>2020-08-08T17:11:11Z</time>
      </trkpt>
      <trkpt lat="48.72779" lon="7.29906">
        <ele>205</ele>
        <time>2020-08-08T17:11:13Z</time>
      </trkpt>
      <trkpt lat="48.72786" lon="7.29909">
        <ele>205</ele>
        <time>2020-08-08T17:11:15Z</time>
      </trkpt>
      <trkpt lat="48.72794" lon="7.2991">
        <ele>205</ele>
        <time>2020-08-08T17:11:17Z</time>
      </trkpt>
      <trkpt lat="48.72802" lon="7.2991">
        <ele>205</ele>
        <time>2020-08-08T17:11:19Z</time>
      </trkpt>
      <trkpt lat="48.7281" lon="7.2991">
        <ele>205</ele>
        <time>2020-08-08T17:11:21Z</time>
      </trkpt>
      <trkpt lat="48.72818" lon="7.29909">
        <ele>205</ele>
        <time>2020-08-08T17:11:23Z</time>
      </trkpt>
      <trkpt lat="48.72826" lon="7.29907">
        <ele>205</ele>
        <time>2020-08-08T17:11:25Z</time>
      </trkpt>
      <trkpt lat="48.72833" lon="7.29905">
        <ele>205</ele>
        <time>2020-08-08T17:11:27Z</time>
      </trkpt>
      <trkpt lat="48.72841" lon="7.29902">
        <ele>205</ele>
        <time>2020-08-08T17:11:29Z</time>
      </trkpt>
      <trkpt lat="48.72847" lon="7.29898">
        <ele>205</ele>
        <time>2020-08-08T17:11:31Z</time>
      </trkpt>
      <trkpt lat="48.72855" lon="7.29893">
        <ele>204</ele>
        <time>2020-08-08T17:11:33Z</time>
      </trkpt>
      <trkpt lat="48.72862" lon="7.29888">
        <ele>204</ele>
        <time>2020-08-08T17:11:35Z</time>
      </trkpt>
      <trkpt lat="48.72868" lon="7.29879">
        <ele>204</ele>
        <time>2020-08-08T17:11:37Z</time>
      </trkpt>
      <trkpt lat="48.72874" lon="7.29871">
        <ele>204</ele>
        <time>2020-08-08T17:11:39Z</time>
      </trkpt>
      <trkpt lat="48.72878" lon="7.29862">
        <ele>204</ele>
        <time>2020-08-08T17:11:41Z</time>
      </trkpt>
      <trkpt lat="48.72884" lon="7.29853">
        <ele>204</ele>
        <time>2020-08-08T17:11:43Z</time>
      </trkpt>
      <trkpt lat="48.72887" lon="7.29844">
        <ele>204</ele>
        <time>2020-08-08T17:11:45Z</time>
      </trkpt>
      <trkpt lat="48.7289" lon="7.29837">
        <ele>204</ele>
        <time>2020-08-08T17:11:47Z</time>
      </trkpt>
      <trkpt lat="48.72892" lon="7.29825">
        <ele>205</ele>
        <time>2020-08-08T17:11:49Z</time>
      </trkpt>
      <trkpt lat="48.72897" lon="7.29814">
        <ele>204</ele>
        <time>2020-08-08T17:11:51Z</time>
      </trkpt>
      <trkpt lat="48.72901" lon="7.29803">
        <ele>204</ele>
        <time>2020-08-08T17:11:53Z</time>
      </trkpt>
      <trkpt lat="48.72904" lon="7.29793">
        <ele>204</ele>
        <time>2020-08-08T17:11:55Z</time>
      </trkpt>
      <trkpt lat="48.72907" lon="7.29782">
        <ele>204</ele>
        <time>2020-08-08T17:11:57Z</time>
      </trkpt>
      <trkpt lat="48.72908" lon="7.29769">
        <ele>204</ele>
        <time>2020-08-08T17:11:59Z</time>
      </trkpt>
      <trkpt lat="48.7291" lon="7.29757">
        <ele>205</ele>
        <time>2020-08-08T17:12:01Z</time>
      </trkpt>
      <trkpt lat="48.72913" lon="7.29745">
        <ele>205</ele>
        <time>2020-08-08T17:12:03Z</time>
      </trkpt>
      <trkpt lat="48.72915" lon="7.29733">
        <ele>205</ele>
        <time>2020-08-08T17:12:05Z</time>
      </trkpt>
      <trkpt lat="48.72918" lon="7.29727">
        <ele>205</ele>
        <time>2020-08-08T17:12:06Z</time>
      </trkpt>
      <trkpt lat="48.7292" lon="7.29714">
        <ele>206</ele>
        <time>2020-08-08T17:12:08Z</time>
      </trkpt>
      <trkpt lat="48.7292" lon="7.29701">
        <ele>208</ele>
        <time>2020-08-08T17:12:10Z</time>
      </trkpt>
      <trkpt lat="48.72922" lon="7.29695">
        <ele>208</ele>
        <time>2020-08-08T17:12:11Z</time>
      </trkpt>
      <trkpt lat="48.72926" lon="7.29684">
        <ele>206</ele>
        <time>2020-08-08T17:12:13Z</time>
      </trkpt>
      <trkpt lat="48.7293" lon="7.29672">
        <ele>205</ele>
        <time>2020-08-08T17:12:15Z</time>
      </trkpt>
      <trkpt lat="48.72933" lon="7.29661">
        <ele>205</ele>
        <time>2020-08-08T17:12:17Z</time>
      </trkpt>
      <trkpt lat="48.72934" lon="7.29651">
        <ele>207</ele>
        <time>2020-08-08T17:12:19Z</time>
      </trkpt>
      <trkpt lat="48.72936" lon="7.29642">
        <ele>208</ele>
        <time>2020-08-08T17:12:21Z</time>
      </trkpt>
      <trkpt lat="48.72939" lon="7.29637">
        <ele>207</ele>
        <time>2020-08-08T17:12:23Z</time>
      </trkpt>
      <trkpt lat="48.72943" lon="7.2963">
        <ele>206</ele>
        <time>2020-08-08T17:12:25Z</time>
      </trkpt>
      <trkpt lat="48.72944" lon="7.29621">
        <ele>206</ele>
        <time>2020-08-08T17:12:27Z</time>
      </trkpt>
      <trkpt lat="48.72946" lon="7.29612">
        <ele>206</ele>
        <time>2020-08-08T17:12:29Z</time>
      </trkpt>
      <trkpt lat="48.72951" lon="7.29599">
        <ele>204</ele>
        <time>2020-08-08T17:12:33Z</time>
      </trkpt>
      <trkpt lat="48.72952" lon="7.29587">
        <ele>205</ele>
        <time>2020-08-08T17:12:35Z</time>
      </trkpt>
      <trkpt lat="48.72955" lon="7.29576">
        <ele>205</ele>
        <time>2020-08-08T17:12:37Z</time>
      </trkpt>
      <trkpt lat="48.72955" lon="7.29566">
        <ele>206</ele>
        <time>2020-08-08T17:12:39Z</time>
      </trkpt>
      <trkpt lat="48.72955" lon="7.29558">
        <ele>207</ele>
        <time>2020-08-08T17:12:41Z</time>
      </trkpt>
      <trkpt lat="48.72958" lon="7.2955">
        <ele>207</ele>
        <time>2020-08-08T17:12:43Z</time>
      </trkpt>
      <trkpt lat="48.7296" lon="7.29541">
        <ele>206</ele>
        <time>2020-08-08T17:12:45Z</time>
      </trkpt>
      <trkpt lat="48.7296" lon="7.29532">
        <ele>206</ele>
        <time>2020-08-08T17:12:47Z</time>
      </trkpt>
      <trkpt lat="48.72963" lon="7.29523">
        <ele>206</ele>
        <time>2020-08-08T17:12:49Z</time>
      </trkpt>
      <trkpt lat="48.72965" lon="7.29515">
        <ele>207</ele>
        <time>2020-08-08T17:12:51Z</time>
      </trkpt>
      <trkpt lat="48.72967" lon="7.29507">
        <ele>207</ele>
        <time>2020-08-08T17:12:53Z</time>
      </trkpt>
      <trkpt lat="48.72967" lon="7.29495">
        <ele>209</ele>
        <time>2020-08-08T17:12:55Z</time>
      </trkpt>
      <trkpt lat="48.72971" lon="7.29487">
        <ele>209</ele>
        <time>2020-08-08T17:12:57Z</time>
      </trkpt>
      <trkpt lat="48.72973" lon="7.29476">
        <ele>210</ele>
        <time>2020-08-08T17:12:59Z</time>
      </trkpt>
      <trkpt lat="48.72976" lon="7.29467">
        <ele>208</ele>
        <time>2020-08-08T17:13:01Z</time>
      </trkpt>
      <trkpt lat="48.72977" lon="7.29459">
        <ele>209</ele>
        <time>2020-08-08T17:13:03Z</time>
      </trkpt>
      <trkpt lat="48.72977" lon="7.29447">
        <ele>210</ele>
        <time>2020-08-08T17:13:05Z</time>
      </trkpt>
      <trkpt lat="48.72981" lon="7.29437">
        <ele>209</ele>
        <time>2020-08-08T17:13:07Z</time>
      </trkpt>
      <trkpt lat="48.72983" lon="7.29427">
        <ele>209</ele>
        <time>2020-08-08T17:13:09Z</time>
      </trkpt>
      <trkpt lat="48.72984" lon="7.29418">
        <ele>210</ele>
        <time>2020-08-08T17:13:11Z</time>
      </trkpt>
      <trkpt lat="48.72987" lon="7.29407">
        <ele>210</ele>
        <time>2020-08-08T17:13:13Z</time>
      </trkpt>
      <trkpt lat="48.72991" lon="7.29397">
        <ele>208</ele>
        <time>2020-08-08T17:13:15Z</time>
      </trkpt>
      <trkpt lat="48.72994" lon="7.29386">
        <ele>208</ele>
        <time>2020-08-08T17:13:17Z</time>
      </trkpt>
      <trkpt lat="48.72998" lon="7.29375">
        <ele>208</ele>
        <time>2020-08-08T17:13:19Z</time>
      </trkpt>
      <trkpt lat="48.73002" lon="7.29366">
        <ele>208</ele>
        <time>2020-08-08T17:13:21Z</time>
      </trkpt>
      <trkpt lat="48.73003" lon="7.29355">
        <ele>208</ele>
        <time>2020-08-08T17:13:23Z</time>
      </trkpt>
      <trkpt lat="48.73005" lon="7.29345">
        <ele>208</ele>
        <time>2020-08-08T17:13:25Z</time>
      </trkpt>
      <trkpt lat="48.73008" lon="7.29335">
        <ele>207</ele>
        <time>2020-08-08T17:13:27Z</time>
      </trkpt>
      <trkpt lat="48.7301" lon="7.29327">
        <ele>207</ele>
        <time>2020-08-08T17:13:29Z</time>
      </trkpt>
      <trkpt lat="48.73012" lon="7.29317">
        <ele>208</ele>
        <time>2020-08-08T17:13:31Z</time>
      </trkpt>
      <trkpt lat="48.73015" lon="7.29308">
        <ele>207</ele>
        <time>2020-08-08T17:13:33Z</time>
      </trkpt>
      <trkpt lat="48.73019" lon="7.29298">
        <ele>207</ele>
        <time>2020-08-08T17:13:35Z</time>
      </trkpt>
      <trkpt lat="48.73023" lon="7.29289">
        <ele>207</ele>
        <time>2020-08-08T17:13:37Z</time>
      </trkpt>
      <trkpt lat="48.73026" lon="7.29279">
        <ele>207</ele>
        <time>2020-08-08T17:13:39Z</time>
      </trkpt>
      <trkpt lat="48.73027" lon="7.29268">
        <ele>208</ele>
        <time>2020-08-08T17:13:41Z</time>
      </trkpt>
      <trkpt lat="48.73031" lon="7.29263">
        <ele>207</ele>
        <time>2020-08-08T17:13:42Z</time>
      </trkpt>
      <trkpt lat="48.73033" lon="7.29257">
        <ele>207</ele>
        <time>2020-08-08T17:13:43Z</time>
      </trkpt>
      <trkpt lat="48.73035" lon="7.29248">
        <ele>207</ele>
        <time>2020-08-08T17:13:45Z</time>
      </trkpt>
      <trkpt lat="48.73038" lon="7.29238">
        <ele>207</ele>
        <time>2020-08-08T17:13:47Z</time>
      </trkpt>
      <trkpt lat="48.73041" lon="7.29229">
        <ele>207</ele>
        <time>2020-08-08T17:13:49Z</time>
      </trkpt>
      <trkpt lat="48.73045" lon="7.29219">
        <ele>206</ele>
        <time>2020-08-08T17:13:51Z</time>
      </trkpt>
      <trkpt lat="48.73048" lon="7.29208">
        <ele>206</ele>
        <time>2020-08-08T17:13:53Z</time>
      </trkpt>
      <trkpt lat="48.7305" lon="7.29197">
        <ele>206</ele>
        <time>2020-08-08T17:13:55Z</time>
      </trkpt>
      <trkpt lat="48.73051" lon="7.29187">
        <ele>207</ele>
        <time>2020-08-08T17:13:57Z</time>
      </trkpt>
      <trkpt lat="48.73053" lon="7.29175">
        <ele>207</ele>
        <time>2020-08-08T17:13:59Z</time>
      </trkpt>
      <trkpt lat="48.73056" lon="7.29164">
        <ele>207</ele>
        <time>2020-08-08T17:14:01Z</time>
      </trkpt>
      <trkpt lat="48.73059" lon="7.29153">
        <ele>206</ele>
        <time>2020-08-08T17:14:03Z</time>
      </trkpt>
      <trkpt lat="48.73061" lon="7.29142">
        <ele>206</ele>
        <time>2020-08-08T17:14:05Z</time>
      </trkpt>
      <trkpt lat="48.73064" lon="7.29132">
        <ele>206</ele>
        <time>2020-08-08T17:14:07Z</time>
      </trkpt>
      <trkpt lat="48.73066" lon="7.2912">
        <ele>206</ele>
        <time>2020-08-08T17:14:09Z</time>
      </trkpt>
      <trkpt lat="48.73069" lon="7.29109">
        <ele>206</ele>
        <time>2020-08-08T17:14:11Z</time>
      </trkpt>
      <trkpt lat="48.73072" lon="7.29098">
        <ele>206</ele>
        <time>2020-08-08T17:14:13Z</time>
      </trkpt>
      <trkpt lat="48.73073" lon="7.29087">
        <ele>206</ele>
        <time>2020-08-08T17:14:15Z</time>
      </trkpt>
      <trkpt lat="48.73074" lon="7.29076">
        <ele>207</ele>
        <time>2020-08-08T17:14:17Z</time>
      </trkpt>
      <trkpt lat="48.73076" lon="7.29065">
        <ele>207</ele>
        <time>2020-08-08T17:14:19Z</time>
      </trkpt>
      <trkpt lat="48.73079" lon="7.29052">
        <ele>207</ele>
        <time>2020-08-08T17:14:21Z</time>
      </trkpt>
      <trkpt lat="48.7308" lon="7.29041">
        <ele>207</ele>
        <time>2020-08-08T17:14:23Z</time>
      </trkpt>
      <trkpt lat="48.73082" lon="7.29031">
        <ele>208</ele>
        <time>2020-08-08T17:14:25Z</time>
      </trkpt>
      <trkpt lat="48.73084" lon="7.2902">
        <ele>208</ele>
        <time>2020-08-08T17:14:27Z</time>
      </trkpt>
      <trkpt lat="48.73084" lon="7.29009">
        <ele>208</ele>
        <time>2020-08-08T17:14:29Z</time>
      </trkpt>
      <trkpt lat="48.73086" lon="7.28998">
        <ele>207</ele>
        <time>2020-08-08T17:14:31Z</time>
      </trkpt>
      <trkpt lat="48.73089" lon="7.28986">
        <ele>207</ele>
        <time>2020-08-08T17:14:33Z</time>
      </trkpt>
      <trkpt lat="48.73091" lon="7.28974">
        <ele>206</ele>
        <time>2020-08-08T17:14:35Z</time>
      </trkpt>
      <trkpt lat="48.73093" lon="7.28963">
        <ele>206</ele>
        <time>2020-08-08T17:14:37Z</time>
      </trkpt>
      <trkpt lat="48.73095" lon="7.28952">
        <ele>206</ele>
        <time>2020-08-08T17:14:39Z</time>
      </trkpt>
      <trkpt lat="48.73098" lon="7.2894">
        <ele>206</ele>
        <time>2020-08-08T17:14:41Z</time>
      </trkpt>
      <trkpt lat="48.73101" lon="7.28929">
        <ele>206</ele>
        <time>2020-08-08T17:14:43Z</time>
      </trkpt>
      <trkpt lat="48.73103" lon="7.28918">
        <ele>206</ele>
        <time>2020-08-08T17:14:45Z</time>
      </trkpt>
      <trkpt lat="48.73106" lon="7.28906">
        <ele>207</ele>
        <time>2020-08-08T17:14:47Z</time>
      </trkpt>
      <trkpt lat="48.73108" lon="7.28896">
        <ele>207</ele>
        <time>2020-08-08T17:14:49Z</time>
      </trkpt>
      <trkpt lat="48.73111" lon="7.28884">
        <ele>207</ele>
        <time>2020-08-08T17:14:51Z</time>
      </trkpt>
      <trkpt lat="48.73113" lon="7.28872">
        <ele>207</ele>
        <time>2020-08-08T17:14:53Z</time>
      </trkpt>
      <trkpt lat="48.73115" lon="7.28862">
        <ele>207</ele>
        <time>2020-08-08T17:14:55Z</time>
      </trkpt>
      <trkpt lat="48.73118" lon="7.28856">
        <ele>207</ele>
        <time>2020-08-08T17:14:56Z</time>
      </trkpt>
      <trkpt lat="48.73122" lon="7.28845">
        <ele>205</ele>
        <time>2020-08-08T17:14:58Z</time>
      </trkpt>
      <trkpt lat="48.73124" lon="7.28839">
        <ele>205</ele>
        <time>2020-08-08T17:14:59Z</time>
      </trkpt>
      <trkpt lat="48.73125" lon="7.28827">
        <ele>206</ele>
        <time>2020-08-08T17:15:01Z</time>
      </trkpt>
      <trkpt lat="48.73127" lon="7.28813">
        <ele>206</ele>
        <time>2020-08-08T17:15:03Z</time>
      </trkpt>
      <trkpt lat="48.7313" lon="7.288">
        <ele>207</ele>
        <time>2020-08-08T17:15:05Z</time>
      </trkpt>
      <trkpt lat="48.73134" lon="7.28789">
        <ele>207</ele>
        <time>2020-08-08T17:15:07Z</time>
      </trkpt>
      <trkpt lat="48.73135" lon="7.28782">
        <ele>207</ele>
        <time>2020-08-08T17:15:08Z</time>
      </trkpt>
      <trkpt lat="48.73137" lon="7.28775">
        <ele>207</ele>
        <time>2020-08-08T17:15:09Z</time>
      </trkpt>
      <trkpt lat="48.73139" lon="7.28763">
        <ele>207</ele>
        <time>2020-08-08T17:15:11Z</time>
      </trkpt>
      <trkpt lat="48.73143" lon="7.28751">
        <ele>207</ele>
        <time>2020-08-08T17:15:13Z</time>
      </trkpt>
      <trkpt lat="48.73146" lon="7.2874">
        <ele>207</ele>
        <time>2020-08-08T17:15:15Z</time>
      </trkpt>
      <trkpt lat="48.73148" lon="7.28731">
        <ele>207</ele>
        <time>2020-08-08T17:15:17Z</time>
      </trkpt>
      <trkpt lat="48.7315" lon="7.28719">
        <ele>208</ele>
        <time>2020-08-08T17:15:19Z</time>
      </trkpt>
      <trkpt lat="48.73153" lon="7.28708">
        <ele>207</ele>
        <time>2020-08-08T17:15:21Z</time>
      </trkpt>
      <trkpt lat="48.73156" lon="7.28699">
        <ele>206</ele>
        <time>2020-08-08T17:15:23Z</time>
      </trkpt>
      <trkpt lat="48.73159" lon="7.28686">
        <ele>206</ele>
        <time>2020-08-08T17:15:25Z</time>
      </trkpt>
      <trkpt lat="48.73158" lon="7.28676">
        <ele>206</ele>
        <time>2020-08-08T17:15:27Z</time>
      </trkpt>
      <trkpt lat="48.73161" lon="7.28665">
        <ele>206</ele>
        <time>2020-08-08T17:15:29Z</time>
      </trkpt>
      <trkpt lat="48.73164" lon="7.28654">
        <ele>206</ele>
        <time>2020-08-08T17:15:31Z</time>
      </trkpt>
      <trkpt lat="48.73166" lon="7.28645">
        <ele>207</ele>
        <time>2020-08-08T17:15:33Z</time>
      </trkpt>
      <trkpt lat="48.73169" lon="7.28636">
        <ele>207</ele>
        <time>2020-08-08T17:15:35Z</time>
      </trkpt>
      <trkpt lat="48.73171" lon="7.28627">
        <ele>207</ele>
        <time>2020-08-08T17:15:37Z</time>
      </trkpt>
      <trkpt lat="48.73175" lon="7.28617">
        <ele>206</ele>
        <time>2020-08-08T17:15:39Z</time>
      </trkpt>
      <trkpt lat="48.73179" lon="7.28608">
        <ele>206</ele>
        <time>2020-08-08T17:15:41Z</time>
      </trkpt>
      <trkpt lat="48.73182" lon="7.28598">
        <ele>206</ele>
        <time>2020-08-08T17:15:43Z</time>
      </trkpt>
      <trkpt lat="48.73185" lon="7.2859">
        <ele>206</ele>
        <time>2020-08-08T17:15:45Z</time>
      </trkpt>
      <trkpt lat="48.73188" lon="7.2858">
        <ele>206</ele>
        <time>2020-08-08T17:15:47Z</time>
      </trkpt>
      <trkpt lat="48.73193" lon="7.28562">
        <ele>206</ele>
        <time>2020-08-08T17:15:50Z</time>
      </trkpt>
      <trkpt lat="48.73196" lon="7.28551">
        <ele>206</ele>
        <time>2020-08-08T17:15:52Z</time>
      </trkpt>
      <trkpt lat="48.732" lon="7.28539">
        <ele>206</ele>
        <time>2020-08-08T17:15:54Z</time>
      </trkpt>
      <trkpt lat="48.73201" lon="7.28533">
        <ele>207</ele>
        <time>2020-08-08T17:15:55Z</time>
      </trkpt>
      <trkpt lat="48.73205" lon="7.28522">
        <ele>207</ele>
        <time>2020-08-08T17:15:57Z</time>
      </trkpt>
      <trkpt lat="48.73209" lon="7.28518">
        <ele>206</ele>
        <time>2020-08-08T17:15:58Z</time>
      </trkpt>
      <trkpt lat="48.73211" lon="7.2851">
        <ele>206</ele>
        <time>2020-08-08T17:16:00Z</time>
      </trkpt>
      <trkpt lat="48.73215" lon="7.28499">
        <ele>206</ele>
        <time>2020-08-08T17:16:02Z</time>
      </trkpt>
      <trkpt lat="48.73219" lon="7.28488">
        <ele>206</ele>
        <time>2020-08-08T17:16:04Z</time>
      </trkpt>
      <trkpt lat="48.73222" lon="7.28477">
        <ele>206</ele>
        <time>2020-08-08T17:16:06Z</time>
      </trkpt>
      <trkpt lat="48.73225" lon="7.28467">
        <ele>206</ele>
        <time>2020-08-08T17:16:08Z</time>
      </trkpt>
      <trkpt lat="48.73227" lon="7.28459">
        <ele>206</ele>
        <time>2020-08-08T17:16:10Z</time>
      </trkpt>
      <trkpt lat="48.7323" lon="7.28446">
        <ele>206</ele>
        <time>2020-08-08T17:16:12Z</time>
      </trkpt>
      <trkpt lat="48.73232" lon="7.28436">
        <ele>206</ele>
        <time>2020-08-08T17:16:14Z</time>
      </trkpt>
      <trkpt lat="48.73235" lon="7.2843">
        <ele>206</ele>
        <time>2020-08-08T17:16:15Z</time>
      </trkpt>
      <trkpt lat="48.73237" lon="7.2842">
        <ele>207</ele>
        <time>2020-08-08T17:16:17Z</time>
      </trkpt>
      <trkpt lat="48.73241" lon="7.28409">
        <ele>207</ele>
        <time>2020-08-08T17:16:19Z</time>
      </trkpt>
      <trkpt lat="48.73245" lon="7.28398">
        <ele>208</ele>
        <time>2020-08-08T17:16:21Z</time>
      </trkpt>
      <trkpt lat="48.73245" lon="7.28391">
        <ele>208</ele>
        <time>2020-08-08T17:16:22Z</time>
      </trkpt>
      <trkpt lat="48.73248" lon="7.2838">
        <ele>208</ele>
        <time>2020-08-08T17:16:24Z</time>
      </trkpt>
      <trkpt lat="48.73252" lon="7.28371">
        <ele>208</ele>
        <time>2020-08-08T17:16:26Z</time>
      </trkpt>
      <trkpt lat="48.73256" lon="7.28366">
        <ele>208</ele>
        <time>2020-08-08T17:16:27Z</time>
      </trkpt>
      <trkpt lat="48.7326" lon="7.28356">
        <ele>208</ele>
        <time>2020-08-08T17:16:29Z</time>
      </trkpt>
      <trkpt lat="48.73263" lon="7.28347">
        <ele>208</ele>
        <time>2020-08-08T17:16:31Z</time>
      </trkpt>
      <trkpt lat="48.73267" lon="7.28337">
        <ele>207</ele>
        <time>2020-08-08T17:16:33Z</time>
      </trkpt>
      <trkpt lat="48.7327" lon="7.28326">
        <ele>207</ele>
        <time>2020-08-08T17:16:35Z</time>
      </trkpt>
      <trkpt lat="48.73274" lon="7.28314">
        <ele>207</ele>
        <time>2020-08-08T17:16:37Z</time>
      </trkpt>
      <trkpt lat="48.73277" lon="7.28304">
        <ele>208</ele>
        <time>2020-08-08T17:16:39Z</time>
      </trkpt>
      <trkpt lat="48.73282" lon="7.28293">
        <ele>208</ele>
        <time>2020-08-08T17:16:41Z</time>
      </trkpt>
      <trkpt lat="48.73286" lon="7.28282">
        <ele>209</ele>
        <time>2020-08-08T17:16:43Z</time>
      </trkpt>
      <trkpt lat="48.7329" lon="7.2827">
        <ele>209</ele>
        <time>2020-08-08T17:16:45Z</time>
      </trkpt>
      <trkpt lat="48.73293" lon="7.28263">
        <ele>209</ele>
        <time>2020-08-08T17:16:46Z</time>
      </trkpt>
      <trkpt lat="48.73298" lon="7.28253">
        <ele>209</ele>
        <time>2020-08-08T17:16:48Z</time>
      </trkpt>
      <trkpt lat="48.73301" lon="7.28242">
        <ele>209</ele>
        <time>2020-08-08T17:16:50Z</time>
      </trkpt>
      <trkpt lat="48.73304" lon="7.28234">
        <ele>209</ele>
        <time>2020-08-08T17:16:52Z</time>
      </trkpt>
      <trkpt lat="48.73307" lon="7.28227">
        <ele>209</ele>
        <time>2020-08-08T17:16:54Z</time>
      </trkpt>
      <trkpt lat="48.73309" lon="7.2822">
        <ele>209</ele>
        <time>2020-08-08T17:16:56Z</time>
      </trkpt>
      <trkpt lat="48.73312" lon="7.28212">
        <ele>209</ele>
        <time>2020-08-08T17:16:59Z</time>
      </trkpt>
      <trkpt lat="48.73315" lon="7.28204">
        <ele>209</ele>
        <time>2020-08-08T17:17:02Z</time>
      </trkpt>
      <trkpt lat="48.73317" lon="7.28195">
        <ele>209</ele>
        <time>2020-08-08T17:17:05Z</time>
      </trkpt>
      <trkpt lat="48.7332" lon="7.28188">
        <ele>209</ele>
        <time>2020-08-08T17:17:07Z</time>
      </trkpt>
      <trkpt lat="48.73322" lon="7.28181">
        <ele>209</ele>
        <time>2020-08-08T17:17:09Z</time>
      </trkpt>
      <trkpt lat="48.73325" lon="7.28173">
        <ele>208</ele>
        <time>2020-08-08T17:17:11Z</time>
      </trkpt>
      <trkpt lat="48.73328" lon="7.28165">
        <ele>208</ele>
        <time>2020-08-08T17:17:13Z</time>
      </trkpt>
      <trkpt lat="48.73332" lon="7.28158">
        <ele>208</ele>
        <time>2020-08-08T17:17:15Z</time>
      </trkpt>
      <trkpt lat="48.73334" lon="7.2815">
        <ele>208</ele>
        <time>2020-08-08T17:17:17Z</time>
      </trkpt>
      <trkpt lat="48.73336" lon="7.28143">
        <ele>208</ele>
        <time>2020-08-08T17:17:19Z</time>
      </trkpt>
      <trkpt lat="48.7334" lon="7.28136">
        <ele>208</ele>
        <time>2020-08-08T17:17:21Z</time>
      </trkpt>
      <trkpt lat="48.73343" lon="7.28128">
        <ele>208</ele>
        <time>2020-08-08T17:17:23Z</time>
      </trkpt>
      <trkpt lat="48.73345" lon="7.28119">
        <ele>208</ele>
        <time>2020-08-08T17:17:25Z</time>
      </trkpt>
      <trkpt lat="48.73348" lon="7.28111">
        <ele>208</ele>
        <time>2020-08-08T17:17:27Z</time>
      </trkpt>
      <trkpt lat="48.7335" lon="7.28102">
        <ele>208</ele>
        <time>2020-08-08T17:17:29Z</time>
      </trkpt>
      <trkpt lat="48.73353" lon="7.28094">
        <ele>209</ele>
        <time>2020-08-08T17:17:31Z</time>
      </trkpt>
      <trkpt lat="48.73357" lon="7.28085">
        <ele>209</ele>
        <time>2020-08-08T17:17:33Z</time>
      </trkpt>
      <trkpt lat="48.7336" lon="7.28076">
        <ele>209</ele>
        <time>2020-08-08T17:17:35Z</time>
      </trkpt>
      <trkpt lat="48.73363" lon="7.28067">
        <ele>210</ele>
        <time>2020-08-08T17:17:37Z</time>
      </trkpt>
      <trkpt lat="48.73366" lon="7.28058">
        <ele>210</ele>
        <time>2020-08-08T17:17:39Z</time>
      </trkpt>
      <trkpt lat="48.73369" lon="7.28048">
        <ele>210</ele>
        <time>2020-08-08T17:17:41Z</time>
      </trkpt>
      <trkpt lat="48.73372" lon="7.28039">
        <ele>209</ele>
        <time>2020-08-08T17:17:43Z</time>
      </trkpt>
      <trkpt lat="48.73375" lon="7.2803">
        <ele>209</ele>
        <time>2020-08-08T17:17:45Z</time>
      </trkpt>
      <trkpt lat="48.73379" lon="7.2802">
        <ele>208</ele>
        <time>2020-08-08T17:17:47Z</time>
      </trkpt>
      <trkpt lat="48.73382" lon="7.2801">
        <ele>208</ele>
        <time>2020-08-08T17:17:49Z</time>
      </trkpt>
      <trkpt lat="48.73386" lon="7.28">
        <ele>209</ele>
        <time>2020-08-08T17:17:51Z</time>
      </trkpt>
      <trkpt lat="48.73389" lon="7.27991">
        <ele>209</ele>
        <time>2020-08-08T17:17:53Z</time>
      </trkpt>
      <trkpt lat="48.73393" lon="7.27981">
        <ele>209</ele>
        <time>2020-08-08T17:17:55Z</time>
      </trkpt>
      <trkpt lat="48.73397" lon="7.27971">
        <ele>210</ele>
        <time>2020-08-08T17:17:57Z</time>
      </trkpt>
      <trkpt lat="48.734" lon="7.27962">
        <ele>211</ele>
        <time>2020-08-08T17:17:59Z</time>
      </trkpt>
      <trkpt lat="48.73403" lon="7.27951">
        <ele>211</ele>
        <time>2020-08-08T17:18:01Z</time>
      </trkpt>
      <trkpt lat="48.73407" lon="7.27939">
        <ele>211</ele>
        <time>2020-08-08T17:18:03Z</time>
      </trkpt>
      <trkpt lat="48.7341" lon="7.27928">
        <ele>211</ele>
        <time>2020-08-08T17:18:05Z</time>
      </trkpt>
      <trkpt lat="48.73414" lon="7.27917">
        <ele>210</ele>
        <time>2020-08-08T17:18:07Z</time>
      </trkpt>
      <trkpt lat="48.73417" lon="7.27906">
        <ele>211</ele>
        <time>2020-08-08T17:18:09Z</time>
      </trkpt>
      <trkpt lat="48.73421" lon="7.27896">
        <ele>210</ele>
        <time>2020-08-08T17:18:11Z</time>
      </trkpt>
      <trkpt lat="48.73425" lon="7.27884">
        <ele>210</ele>
        <time>2020-08-08T17:18:13Z</time>
      </trkpt>
      <trkpt lat="48.73428" lon="7.27873">
        <ele>210</ele>
        <time>2020-08-08T17:18:15Z</time>
      </trkpt>
      <trkpt lat="48.73432" lon="7.27862">
        <ele>210</ele>
        <time>2020-08-08T17:18:17Z</time>
      </trkpt>
      <trkpt lat="48.73436" lon="7.27852">
        <ele>211</ele>
        <time>2020-08-08T17:18:19Z</time>
      </trkpt>
      <trkpt lat="48.73438" lon="7.27846">
        <ele>211</ele>
        <time>2020-08-08T17:18:20Z</time>
      </trkpt>
      <trkpt lat="48.73441" lon="7.27835">
        <ele>211</ele>
        <time>2020-08-08T17:18:22Z</time>
      </trkpt>
      <trkpt lat="48.73446" lon="7.27825">
        <ele>210</ele>
        <time>2020-08-08T17:18:24Z</time>
      </trkpt>
      <trkpt lat="48.73449" lon="7.27814">
        <ele>210</ele>
        <time>2020-08-08T17:18:26Z</time>
      </trkpt>
      <trkpt lat="48.73452" lon="7.27804">
        <ele>210</ele>
        <time>2020-08-08T17:18:28Z</time>
      </trkpt>
      <trkpt lat="48.73456" lon="7.27794">
        <ele>210</ele>
        <time>2020-08-08T17:18:30Z</time>
      </trkpt>
      <trkpt lat="48.73459" lon="7.27784">
        <ele>210</ele>
        <time>2020-08-08T17:18:32Z</time>
      </trkpt>
      <trkpt lat="48.73462" lon="7.27774">
        <ele>210</ele>
        <time>2020-08-08T17:18:34Z</time>
      </trkpt>
      <trkpt lat="48.73466" lon="7.27764">
        <ele>209</ele>
        <time>2020-08-08T17:18:36Z</time>
      </trkpt>
      <trkpt lat="48.7347" lon="7.27753">
        <ele>209</ele>
        <time>2020-08-08T17:18:38Z</time>
      </trkpt>
      <trkpt lat="48.73474" lon="7.27742">
        <ele>209</ele>
        <time>2020-08-08T17:18:40Z</time>
      </trkpt>
      <trkpt lat="48.73478" lon="7.27731">
        <ele>209</ele>
        <time>2020-08-08T17:18:42Z</time>
      </trkpt>
      <trkpt lat="48.73482" lon="7.2772">
        <ele>208</ele>
        <time>2020-08-08T17:18:44Z</time>
      </trkpt>
      <trkpt lat="48.73485" lon="7.27709">
        <ele>208</ele>
        <time>2020-08-08T17:18:46Z</time>
      </trkpt>
      <trkpt lat="48.73489" lon="7.27699">
        <ele>208</ele>
        <time>2020-08-08T17:18:48Z</time>
      </trkpt>
      <trkpt lat="48.73493" lon="7.27688">
        <ele>209</ele>
        <time>2020-08-08T17:18:50Z</time>
      </trkpt>
      <trkpt lat="48.73497" lon="7.27679">
        <ele>209</ele>
        <time>2020-08-08T17:18:52Z</time>
      </trkpt>
      <trkpt lat="48.735" lon="7.27669">
        <ele>210</ele>
        <time>2020-08-08T17:18:54Z</time>
      </trkpt>
      <trkpt lat="48.73504" lon="7.2766">
        <ele>210</ele>
        <time>2020-08-08T17:18:56Z</time>
      </trkpt>
      <trkpt lat="48.73508" lon="7.2765">
        <ele>210</ele>
        <time>2020-08-08T17:18:58Z</time>
      </trkpt>
      <trkpt lat="48.73512" lon="7.27641">
        <ele>210</ele>
        <time>2020-08-08T17:19:00Z</time>
      </trkpt>
      <trkpt lat="48.73516" lon="7.27631">
        <ele>209</ele>
        <time>2020-08-08T17:19:02Z</time>
      </trkpt>
      <trkpt lat="48.7352" lon="7.27621">
        <ele>209</ele>
        <time>2020-08-08T17:19:04Z</time>
      </trkpt>
      <trkpt lat="48.73525" lon="7.27611">
        <ele>209</ele>
        <time>2020-08-08T17:19:06Z</time>
      </trkpt>
      <trkpt lat="48.73529" lon="7.27601">
        <ele>209</ele>
        <time>2020-08-08T17:19:08Z</time>
      </trkpt>
      <trkpt lat="48.73534" lon="7.27592">
        <ele>209</ele>
        <time>2020-08-08T17:19:10Z</time>
      </trkpt>
      <trkpt lat="48.73538" lon="7.27583">
        <ele>209</ele>
        <time>2020-08-08T17:19:12Z</time>
      </trkpt>
      <trkpt lat="48.73544" lon="7.27574">
        <ele>209</ele>
        <time>2020-08-08T17:19:14Z</time>
      </trkpt>
      <trkpt lat="48.73549" lon="7.27565">
        <ele>209</ele>
        <time>2020-08-08T17:19:16Z</time>
      </trkpt>
      <trkpt lat="48.73554" lon="7.27556">
        <ele>210</ele>
        <time>2020-08-08T17:19:18Z</time>
      </trkpt>
      <trkpt lat="48.73558" lon="7.27547">
        <ele>210</ele>
        <time>2020-08-08T17:19:20Z</time>
      </trkpt>
      <trkpt lat="48.73563" lon="7.2754">
        <ele>210</ele>
        <time>2020-08-08T17:19:22Z</time>
      </trkpt>
      <trkpt lat="48.73568" lon="7.27531">
        <ele>211</ele>
        <time>2020-08-08T17:19:24Z</time>
      </trkpt>
      <trkpt lat="48.73573" lon="7.27522">
        <ele>211</ele>
        <time>2020-08-08T17:19:26Z</time>
      </trkpt>
      <trkpt lat="48.73579" lon="7.27514">
        <ele>211</ele>
        <time>2020-08-08T17:19:28Z</time>
      </trkpt>
      <trkpt lat="48.73584" lon="7.27504">
        <ele>211</ele>
        <time>2020-08-08T17:19:30Z</time>
      </trkpt>
      <trkpt lat="48.73589" lon="7.27496">
        <ele>212</ele>
        <time>2020-08-08T17:19:32Z</time>
      </trkpt>
      <trkpt lat="48.73594" lon="7.27487">
        <ele>212</ele>
        <time>2020-08-08T17:19:34Z</time>
      </trkpt>
      <trkpt lat="48.736" lon="7.27479">
        <ele>212</ele>
        <time>2020-08-08T17:19:36Z</time>
      </trkpt>
      <trkpt lat="48.73604" lon="7.2747">
        <ele>212</ele>
        <time>2020-08-08T17:19:38Z</time>
      </trkpt>
      <trkpt lat="48.7361" lon="7.27462">
        <ele>211</ele>
        <time>2020-08-08T17:19:40Z</time>
      </trkpt>
      <trkpt lat="48.73615" lon="7.27453">
        <ele>211</ele>
        <time>2020-08-08T17:19:42Z</time>
      </trkpt>
      <trkpt lat="48.7362" lon="7.27445">
        <ele>211</ele>
        <time>2020-08-08T17:19:44Z</time>
      </trkpt>
      <trkpt lat="48.73625" lon="7.27437">
        <ele>211</ele>
        <time>2020-08-08T17:19:46Z</time>
      </trkpt>
      <trkpt lat="48.73629" lon="7.27428">
        <ele>211</ele>
        <time>2020-08-08T17:19:48Z</time>
      </trkpt>
      <trkpt lat="48.73635" lon="7.2742">
        <ele>211</ele>
        <time>2020-08-08T17:19:50Z</time>
      </trkpt>
      <trkpt lat="48.7364" lon="7.27411">
        <ele>212</ele>
        <time>2020-08-08T17:19:52Z</time>
      </trkpt>
      <trkpt lat="48.73645" lon="7.27402">
        <ele>212</ele>
        <time>2020-08-08T17:19:54Z</time>
      </trkpt>
      <trkpt lat="48.73647" lon="7.27396">
        <ele>212</ele>
        <time>2020-08-08T17:19:55Z</time>
      </trkpt>
      <trkpt lat="48.73652" lon="7.27387">
        <ele>212</ele>
        <time>2020-08-08T17:19:57Z</time>
      </trkpt>
      <trkpt lat="48.73656" lon="7.27379">
        <ele>212</ele>
        <time>2020-08-08T17:19:59Z</time>
      </trkpt>
      <trkpt lat="48.73661" lon="7.27371">
        <ele>212</ele>
        <time>2020-08-08T17:20:01Z</time>
      </trkpt>
      <trkpt lat="48.73666" lon="7.27363">
        <ele>212</ele>
        <time>2020-08-08T17:20:03Z</time>
      </trkpt>
      <trkpt lat="48.73672" lon="7.27354">
        <ele>211</ele>
        <time>2020-08-08T17:20:05Z</time>
      </trkpt>
      <trkpt lat="48.73678" lon="7.27346">
        <ele>212</ele>
        <time>2020-08-08T17:20:07Z</time>
      </trkpt>
      <trkpt lat="48.73683" lon="7.27339">
        <ele>211</ele>
        <time>2020-08-08T17:20:09Z</time>
      </trkpt>
      <trkpt lat="48.73687" lon="7.27331">
        <ele>211</ele>
        <time>2020-08-08T17:20:11Z</time>
      </trkpt>
      <trkpt lat="48.73692" lon="7.27324">
        <ele>211</ele>
        <time>2020-08-08T17:20:13Z</time>
      </trkpt>
      <trkpt lat="48.73695" lon="7.27317">
        <ele>210</ele>
        <time>2020-08-08T17:20:15Z</time>
      </trkpt>
      <trkpt lat="48.73699" lon="7.27311">
        <ele>210</ele>
        <time>2020-08-08T17:20:17Z</time>
      </trkpt>
      <trkpt lat="48.73703" lon="7.27306">
        <ele>210</ele>
        <time>2020-08-08T17:20:21Z</time>
      </trkpt>
      <trkpt lat="48.73707" lon="7.273">
        <ele>210</ele>
        <time>2020-08-08T17:20:25Z</time>
      </trkpt>
      <trkpt lat="48.73711" lon="7.27296">
        <ele>211</ele>
        <time>2020-08-08T17:20:27Z</time>
      </trkpt>
      <trkpt lat="48.73715" lon="7.27292">
        <ele>211</ele>
        <time>2020-08-08T17:20:29Z</time>
      </trkpt>
      <trkpt lat="48.73719" lon="7.27286">
        <ele>212</ele>
        <time>2020-08-08T17:20:31Z</time>
      </trkpt>
      <trkpt lat="48.73723" lon="7.2728">
        <ele>212</ele>
        <time>2020-08-08T17:20:33Z</time>
      </trkpt>
      <trkpt lat="48.73726" lon="7.27275">
        <ele>212</ele>
        <time>2020-08-08T17:20:35Z</time>
      </trkpt>
      <trkpt lat="48.7373" lon="7.27268">
        <ele>212</ele>
        <time>2020-08-08T17:20:37Z</time>
      </trkpt>
      <trkpt lat="48.73732" lon="7.27262">
        <ele>211</ele>
        <time>2020-08-08T17:20:39Z</time>
      </trkpt>
      <trkpt lat="48.73737" lon="7.27254">
        <ele>211</ele>
        <time>2020-08-08T17:20:41Z</time>
      </trkpt>
      <trkpt lat="48.7374" lon="7.27246">
        <ele>211</ele>
        <time>2020-08-08T17:20:43Z</time>
      </trkpt>
      <trkpt lat="48.73744" lon="7.27238">
        <ele>211</ele>
        <time>2020-08-08T17:20:45Z</time>
      </trkpt>
      <trkpt lat="48.73747" lon="7.2723">
        <ele>212</ele>
        <time>2020-08-08T17:20:47Z</time>
      </trkpt>
      <trkpt lat="48.73751" lon="7.27222">
        <ele>213</ele>
        <time>2020-08-08T17:20:49Z</time>
      </trkpt>
      <trkpt lat="48.73755" lon="7.27214">
        <ele>213</ele>
        <time>2020-08-08T17:20:51Z</time>
      </trkpt>
      <trkpt lat="48.73758" lon="7.27204">
        <ele>214</ele>
        <time>2020-08-08T17:20:53Z</time>
      </trkpt>
      <trkpt lat="48.73762" lon="7.27195">
        <ele>214</ele>
        <time>2020-08-08T17:20:55Z</time>
      </trkpt>
      <trkpt lat="48.73766" lon="7.27186">
        <ele>214</ele>
        <time>2020-08-08T17:20:57Z</time>
      </trkpt>
      <trkpt lat="48.73769" lon="7.27178">
        <ele>214</ele>
        <time>2020-08-08T17:20:59Z</time>
      </trkpt>
      <trkpt lat="48.73772" lon="7.27168">
        <ele>215</ele>
        <time>2020-08-08T17:21:01Z</time>
      </trkpt>
      <trkpt lat="48.73776" lon="7.27159">
        <ele>215</ele>
        <time>2020-08-08T17:21:03Z</time>
      </trkpt>
      <trkpt lat="48.73778" lon="7.2715">
        <ele>216</ele>
        <time>2020-08-08T17:21:05Z</time>
      </trkpt>
      <trkpt lat="48.7378" lon="7.2714">
        <ele>216</ele>
        <time>2020-08-08T17:21:07Z</time>
      </trkpt>
      <trkpt lat="48.73783" lon="7.2713">
        <ele>216</ele>
        <time>2020-08-08T17:21:09Z</time>
      </trkpt>
      <trkpt lat="48.73786" lon="7.27119">
        <ele>215</ele>
        <time>2020-08-08T17:21:11Z</time>
      </trkpt>
      <trkpt lat="48.73788" lon="7.27108">
        <ele>214</ele>
        <time>2020-08-08T17:21:13Z</time>
      </trkpt>
      <trkpt lat="48.7379" lon="7.27097">
        <ele>214</ele>
        <time>2020-08-08T17:21:15Z</time>
      </trkpt>
      <trkpt lat="48.73792" lon="7.27086">
        <ele>214</ele>
        <time>2020-08-08T17:21:17Z</time>
      </trkpt>
      <trkpt lat="48.73794" lon="7.27074">
        <ele>213</ele>
        <time>2020-08-08T17:21:19Z</time>
      </trkpt>
      <trkpt lat="48.73795" lon="7.27063">
        <ele>212</ele>
        <time>2020-08-08T17:21:21Z</time>
      </trkpt>
      <trkpt lat="48.73796" lon="7.27052">
        <ele>212</ele>
        <time>2020-08-08T17:21:23Z</time>
      </trkpt>
      <trkpt lat="48.73797" lon="7.2704">
        <ele>212</ele>
        <time>2020-08-08T17:21:25Z</time>
      </trkpt>
      <trkpt lat="48.73797" lon="7.27028">
        <ele>212</ele>
        <time>2020-08-08T17:21:27Z</time>
      </trkpt>
      <trkpt lat="48.73798" lon="7.27016">
        <ele>211</ele>
        <time>2020-08-08T17:21:29Z</time>
      </trkpt>
      <trkpt lat="48.73798" lon="7.27004">
        <ele>211</ele>
        <time>2020-08-08T17:21:31Z</time>
      </trkpt>
      <trkpt lat="48.73799" lon="7.26991">
        <ele>211</ele>
        <time>2020-08-08T17:21:33Z</time>
      </trkpt>
      <trkpt lat="48.738" lon="7.26979">
        <ele>211</ele>
        <time>2020-08-08T17:21:35Z</time>
      </trkpt>
      <trkpt lat="48.738" lon="7.26967">
        <ele>211</ele>
        <time>2020-08-08T17:21:37Z</time>
      </trkpt>
      <trkpt lat="48.73801" lon="7.26954">
        <ele>210</ele>
        <time>2020-08-08T17:21:39Z</time>
      </trkpt>
      <trkpt lat="48.73801" lon="7.26942">
        <ele>211</ele>
        <time>2020-08-08T17:21:41Z</time>
      </trkpt>
      <trkpt lat="48.73801" lon="7.2693">
        <ele>211</ele>
        <time>2020-08-08T17:21:43Z</time>
      </trkpt>
      <trkpt lat="48.73802" lon="7.26918">
        <ele>212</ele>
        <time>2020-08-08T17:21:45Z</time>
      </trkpt>
      <trkpt lat="48.73803" lon="7.26907">
        <ele>212</ele>
        <time>2020-08-08T17:21:47Z</time>
      </trkpt>
      <trkpt lat="48.73803" lon="7.26895">
        <ele>211</ele>
        <time>2020-08-08T17:21:49Z</time>
      </trkpt>
      <trkpt lat="48.73803" lon="7.26882">
        <ele>211</ele>
        <time>2020-08-08T17:21:51Z</time>
      </trkpt>
      <trkpt lat="48.73805" lon="7.26869">
        <ele>211</ele>
        <time>2020-08-08T17:21:53Z</time>
      </trkpt>
      <trkpt lat="48.73805" lon="7.26858">
        <ele>211</ele>
        <time>2020-08-08T17:21:55Z</time>
      </trkpt>
      <trkpt lat="48.73805" lon="7.26846">
        <ele>211</ele>
        <time>2020-08-08T17:21:57Z</time>
      </trkpt>
      <trkpt lat="48.73806" lon="7.26834">
        <ele>211</ele>
        <time>2020-08-08T17:21:59Z</time>
      </trkpt>
      <trkpt lat="48.73807" lon="7.26821">
        <ele>211</ele>
        <time>2020-08-08T17:22:01Z</time>
      </trkpt>
      <trkpt lat="48.73808" lon="7.26809">
        <ele>211</ele>
        <time>2020-08-08T17:22:03Z</time>
      </trkpt>
      <trkpt lat="48.73808" lon="7.26796">
        <ele>211</ele>
        <time>2020-08-08T17:22:05Z</time>
      </trkpt>
      <trkpt lat="48.73809" lon="7.26784">
        <ele>210</ele>
        <time>2020-08-08T17:22:07Z</time>
      </trkpt>
      <trkpt lat="48.73809" lon="7.26772">
        <ele>210</ele>
        <time>2020-08-08T17:22:09Z</time>
      </trkpt>
      <trkpt lat="48.7381" lon="7.2676">
        <ele>210</ele>
        <time>2020-08-08T17:22:11Z</time>
      </trkpt>
      <trkpt lat="48.73811" lon="7.26748">
        <ele>210</ele>
        <time>2020-08-08T17:22:13Z</time>
      </trkpt>
      <trkpt lat="48.73811" lon="7.26736">
        <ele>210</ele>
        <time>2020-08-08T17:22:15Z</time>
      </trkpt>
      <trkpt lat="48.73811" lon="7.26724">
        <ele>210</ele>
        <time>2020-08-08T17:22:17Z</time>
      </trkpt>
      <trkpt lat="48.73812" lon="7.26712">
        <ele>210</ele>
        <time>2020-08-08T17:22:19Z</time>
      </trkpt>
      <trkpt lat="48.73812" lon="7.267">
        <ele>210</ele>
        <time>2020-08-08T17:22:21Z</time>
      </trkpt>
      <trkpt lat="48.73813" lon="7.26688">
        <ele>209</ele>
        <time>2020-08-08T17:22:23Z</time>
      </trkpt>
      <trkpt lat="48.73813" lon="7.26675">
        <ele>209</ele>
        <time>2020-08-08T17:22:25Z</time>
      </trkpt>
      <trkpt lat="48.73814" lon="7.26664">
        <ele>210</ele>
        <time>2020-08-08T17:22:27Z</time>
      </trkpt>
      <trkpt lat="48.73814" lon="7.26653">
        <ele>209</ele>
        <time>2020-08-08T17:22:29Z</time>
      </trkpt>
      <trkpt lat="48.73815" lon="7.26641">
        <ele>209</ele>
        <time>2020-08-08T17:22:31Z</time>
      </trkpt>
      <trkpt lat="48.73816" lon="7.2663">
        <ele>209</ele>
        <time>2020-08-08T17:22:33Z</time>
      </trkpt>
      <trkpt lat="48.73816" lon="7.26618">
        <ele>209</ele>
        <time>2020-08-08T17:22:35Z</time>
      </trkpt>
      <trkpt lat="48.73816" lon="7.26606">
        <ele>209</ele>
        <time>2020-08-08T17:22:37Z</time>
      </trkpt>
      <trkpt lat="48.73816" lon="7.26595">
        <ele>209</ele>
        <time>2020-08-08T17:22:39Z</time>
      </trkpt>
      <trkpt lat="48.73817" lon="7.26583">
        <ele>210</ele>
        <time>2020-08-08T17:22:41Z</time>
      </trkpt>
      <trkpt lat="48.73817" lon="7.26571">
        <ele>210</ele>
        <time>2020-08-08T17:22:43Z</time>
      </trkpt>
      <trkpt lat="48.73817" lon="7.26559">
        <ele>210</ele>
        <time>2020-08-08T17:22:45Z</time>
      </trkpt>
      <trkpt lat="48.73817" lon="7.26548">
        <ele>210</ele>
        <time>2020-08-08T17:22:47Z</time>
      </trkpt>
      <trkpt lat="48.73816" lon="7.26536">
        <ele>210</ele>
        <time>2020-08-08T17:22:49Z</time>
      </trkpt>
      <trkpt lat="48.73816" lon="7.26525">
        <ele>209</ele>
        <time>2020-08-08T17:22:51Z</time>
      </trkpt>
      <trkpt lat="48.73815" lon="7.26514">
        <ele>209</ele>
        <time>2020-08-08T17:22:53Z</time>
      </trkpt>
      <trkpt lat="48.73814" lon="7.26504">
        <ele>209</ele>
        <time>2020-08-08T17:22:55Z</time>
      </trkpt>
      <trkpt lat="48.73813" lon="7.26492">
        <ele>209</ele>
        <time>2020-08-08T17:22:57Z</time>
      </trkpt>
      <trkpt lat="48.73811" lon="7.26481">
        <ele>209</ele>
        <time>2020-08-08T17:22:59Z</time>
      </trkpt>
      <trkpt lat="48.73809" lon="7.26469">
        <ele>210</ele>
        <time>2020-08-08T17:23:01Z</time>
      </trkpt>
      <trkpt lat="48.73806" lon="7.26458">
        <ele>210</ele>
        <time>2020-08-08T17:23:03Z</time>
      </trkpt>
      <trkpt lat="48.73804" lon="7.26446">
        <ele>210</ele>
        <time>2020-08-08T17:23:05Z</time>
      </trkpt>
      <trkpt lat="48.73802" lon="7.26434">
        <ele>210</ele>
        <time>2020-08-08T17:23:07Z</time>
      </trkpt>
      <trkpt lat="48.73799" lon="7.26423">
        <ele>210</ele>
        <time>2020-08-08T17:23:09Z</time>
      </trkpt>
      <trkpt lat="48.73796" lon="7.26412">
        <ele>210</ele>
        <time>2020-08-08T17:23:11Z</time>
      </trkpt>
      <trkpt lat="48.73793" lon="7.264">
        <ele>210</ele>
        <time>2020-08-08T17:23:13Z</time>
      </trkpt>
      <trkpt lat="48.7379" lon="7.26389">
        <ele>210</ele>
        <time>2020-08-08T17:23:15Z</time>
      </trkpt>
      <trkpt lat="48.73786" lon="7.26379">
        <ele>210</ele>
        <time>2020-08-08T17:23:17Z</time>
      </trkpt>
      <trkpt lat="48.73783" lon="7.26369">
        <ele>210</ele>
        <time>2020-08-08T17:23:19Z</time>
      </trkpt>
      <trkpt lat="48.7378" lon="7.26358">
        <ele>210</ele>
        <time>2020-08-08T17:23:21Z</time>
      </trkpt>
      <trkpt lat="48.73776" lon="7.26348">
        <ele>210</ele>
        <time>2020-08-08T17:23:23Z</time>
      </trkpt>
      <trkpt lat="48.73771" lon="7.26338">
        <ele>210</ele>
        <time>2020-08-08T17:23:25Z</time>
      </trkpt>
      <trkpt lat="48.73767" lon="7.26328">
        <ele>210</ele>
        <time>2020-08-08T17:23:27Z</time>
      </trkpt>
      <trkpt lat="48.73762" lon="7.26319">
        <ele>210</ele>
        <time>2020-08-08T17:23:29Z</time>
      </trkpt>
      <trkpt lat="48.73758" lon="7.26309">
        <ele>210</ele>
        <time>2020-08-08T17:23:31Z</time>
      </trkpt>
      <trkpt lat="48.73753" lon="7.263">
        <ele>210</ele>
        <time>2020-08-08T17:23:33Z</time>
      </trkpt>
      <trkpt lat="48.73749" lon="7.26291">
        <ele>210</ele>
        <time>2020-08-08T17:23:35Z</time>
      </trkpt>
      <trkpt lat="48.73745" lon="7.26281">
        <ele>210</ele>
        <time>2020-08-08T17:23:37Z</time>
      </trkpt>
      <trkpt lat="48.7374" lon="7.26273">
        <ele>210</ele>
        <time>2020-08-08T17:23:39Z</time>
      </trkpt>
      <trkpt lat="48.73736" lon="7.26264">
        <ele>209</ele>
        <time>2020-08-08T17:23:41Z</time>
      </trkpt>
      <trkpt lat="48.73732" lon="7.26254">
        <ele>209</ele>
        <time>2020-08-08T17:23:43Z</time>
      </trkpt>
      <trkpt lat="48.73727" lon="7.26245">
        <ele>208</ele>
        <time>2020-08-08T17:23:45Z</time>
      </trkpt>
      <trkpt lat="48.73723" lon="7.26236">
        <ele>208</ele>
        <time>2020-08-08T17:23:47Z</time>
      </trkpt>
      <trkpt lat="48.73719" lon="7.26227">
        <ele>209</ele>
        <time>2020-08-08T17:23:49Z</time>
      </trkpt>
      <trkpt lat="48.73715" lon="7.26218">
        <ele>209</ele>
        <time>2020-08-08T17:23:51Z</time>
      </trkpt>
      <trkpt lat="48.73711" lon="7.26209">
        <ele>209</ele>
        <time>2020-08-08T17:23:53Z</time>
      </trkpt>
      <trkpt lat="48.73707" lon="7.262">
        <ele>209</ele>
        <time>2020-08-08T17:23:55Z</time>
      </trkpt>
      <trkpt lat="48.73703" lon="7.26191">
        <ele>209</ele>
        <time>2020-08-08T17:23:57Z</time>
      </trkpt>
      <trkpt lat="48.73699" lon="7.26181">
        <ele>209</ele>
        <time>2020-08-08T17:23:59Z</time>
      </trkpt>
      <trkpt lat="48.73695" lon="7.26173">
        <ele>209</ele>
        <time>2020-08-08T17:24:01Z</time>
      </trkpt>
      <trkpt lat="48.73691" lon="7.26163">
        <ele>209</ele>
        <time>2020-08-08T17:24:03Z</time>
      </trkpt>
      <trkpt lat="48.73687" lon="7.26154">
        <ele>209</ele>
        <time>2020-08-08T17:24:05Z</time>
      </trkpt>
      <trkpt lat="48.73682" lon="7.26145">
        <ele>209</ele>
        <time>2020-08-08T17:24:07Z</time>
      </trkpt>
      <trkpt lat="48.73678" lon="7.26137">
        <ele>209</ele>
        <time>2020-08-08T17:24:09Z</time>
      </trkpt>
      <trkpt lat="48.73674" lon="7.26128">
        <ele>208</ele>
        <time>2020-08-08T17:24:11Z</time>
      </trkpt>
      <trkpt lat="48.7367" lon="7.26119">
        <ele>208</ele>
        <time>2020-08-08T17:24:13Z</time>
      </trkpt>
      <trkpt lat="48.73666" lon="7.26111">
        <ele>208</ele>
        <time>2020-08-08T17:24:15Z</time>
      </trkpt>
      <trkpt lat="48.73662" lon="7.26102">
        <ele>209</ele>
        <time>2020-08-08T17:24:17Z</time>
      </trkpt>
      <trkpt lat="48.73658" lon="7.26093">
        <ele>209</ele>
        <time>2020-08-08T17:24:19Z</time>
      </trkpt>
      <trkpt lat="48.73653" lon="7.26083">
        <ele>210</ele>
        <time>2020-08-08T17:24:21Z</time>
      </trkpt>
      <trkpt lat="48.73649" lon="7.26073">
        <ele>210</ele>
        <time>2020-08-08T17:24:23Z</time>
      </trkpt>
      <trkpt lat="48.73645" lon="7.26063">
        <ele>210</ele>
        <time>2020-08-08T17:24:25Z</time>
      </trkpt>
      <trkpt lat="48.7364" lon="7.26054">
        <ele>210</ele>
        <time>2020-08-08T17:24:27Z</time>
      </trkpt>
      <trkpt lat="48.73636" lon="7.26044">
        <ele>210</ele>
        <time>2020-08-08T17:24:29Z</time>
      </trkpt>
      <trkpt lat="48.73631" lon="7.26035">
        <ele>210</ele>
        <time>2020-08-08T17:24:31Z</time>
      </trkpt>
      <trkpt lat="48.73627" lon="7.26025">
        <ele>210</ele>
        <time>2020-08-08T17:24:33Z</time>
      </trkpt>
      <trkpt lat="48.73623" lon="7.26016">
        <ele>209</ele>
        <time>2020-08-08T17:24:35Z</time>
      </trkpt>
      <trkpt lat="48.73619" lon="7.26007">
        <ele>209</ele>
        <time>2020-08-08T17:24:37Z</time>
      </trkpt>
      <trkpt lat="48.73614" lon="7.25997">
        <ele>209</ele>
        <time>2020-08-08T17:24:39Z</time>
      </trkpt>
      <trkpt lat="48.7361" lon="7.25988">
        <ele>209</ele>
        <time>2020-08-08T17:24:41Z</time>
      </trkpt>
      <trkpt lat="48.73605" lon="7.25978">
        <ele>209</ele>
        <time>2020-08-08T17:24:43Z</time>
      </trkpt>
      <trkpt lat="48.73601" lon="7.25968">
        <ele>209</ele>
        <time>2020-08-08T17:24:45Z</time>
      </trkpt>
      <trkpt lat="48.73597" lon="7.25957">
        <ele>209</ele>
        <time>2020-08-08T17:24:47Z</time>
      </trkpt>
      <trkpt lat="48.73594" lon="7.25947">
        <ele>210</ele>
        <time>2020-08-08T17:24:49Z</time>
      </trkpt>
      <trkpt lat="48.73592" lon="7.25937">
        <ele>210</ele>
        <time>2020-08-08T17:24:51Z</time>
      </trkpt>
      <trkpt lat="48.73591" lon="7.25927">
        <ele>210</ele>
        <time>2020-08-08T17:24:53Z</time>
      </trkpt>
      <trkpt lat="48.73588" lon="7.25918">
        <ele>210</ele>
        <time>2020-08-08T17:24:55Z</time>
      </trkpt>
      <trkpt lat="48.73586" lon="7.2591">
        <ele>211</ele>
        <time>2020-08-08T17:24:57Z</time>
      </trkpt>
      <trkpt lat="48.73585" lon="7.25902">
        <ele>211</ele>
        <time>2020-08-08T17:24:59Z</time>
      </trkpt>
      <trkpt lat="48.73584" lon="7.25895">
        <ele>212</ele>
        <time>2020-08-08T17:25:01Z</time>
      </trkpt>
      <trkpt lat="48.73586" lon="7.25888">
        <ele>213</ele>
        <time>2020-08-08T17:25:04Z</time>
      </trkpt>
      <trkpt lat="48.73589" lon="7.25883">
        <ele>213</ele>
        <time>2020-08-08T17:25:08Z</time>
      </trkpt>
      <trkpt lat="48.73595" lon="7.25883">
        <ele>212</ele>
        <time>2020-08-08T17:25:12Z</time>
      </trkpt>
      <trkpt lat="48.736" lon="7.25882">
        <ele>212</ele>
        <time>2020-08-08T17:25:16Z</time>
      </trkpt>
      <trkpt lat="48.73605" lon="7.25881">
        <ele>212</ele>
        <time>2020-08-08T17:25:19Z</time>
      </trkpt>
      <trkpt lat="48.73612" lon="7.25879">
        <ele>212</ele>
        <time>2020-08-08T17:25:21Z</time>
      </trkpt>
      <trkpt lat="48.73618" lon="7.25876">
        <ele>212</ele>
        <time>2020-08-08T17:25:23Z</time>
      </trkpt>
      <trkpt lat="48.73623" lon="7.25871">
        <ele>213</ele>
        <time>2020-08-08T17:25:25Z</time>
      </trkpt>
      <trkpt lat="48.73626" lon="7.25864">
        <ele>213</ele>
        <time>2020-08-08T17:25:34Z</time>
      </trkpt>
      <trkpt lat="48.73624" lon="7.25856">
        <ele>213</ele>
        <time>2020-08-08T17:25:37Z</time>
      </trkpt>
      <trkpt lat="48.73621" lon="7.25849">
        <ele>213</ele>
        <time>2020-08-08T17:25:39Z</time>
      </trkpt>
      <trkpt lat="48.73618" lon="7.25841">
        <ele>213</ele>
        <time>2020-08-08T17:25:41Z</time>
      </trkpt>
      <trkpt lat="48.73616" lon="7.25832">
        <ele>213</ele>
        <time>2020-08-08T17:25:43Z</time>
      </trkpt>
      <trkpt lat="48.73613" lon="7.25823">
        <ele>213</ele>
        <time>2020-08-08T17:25:45Z</time>
      </trkpt>
      <trkpt lat="48.73611" lon="7.25813">
        <ele>213</ele>
        <time>2020-08-08T17:25:47Z</time>
      </trkpt>
      <trkpt lat="48.73608" lon="7.25802">
        <ele>213</ele>
        <time>2020-08-08T17:25:49Z</time>
      </trkpt>
      <trkpt lat="48.73607" lon="7.25791">
        <ele>213</ele>
        <time>2020-08-08T17:25:51Z</time>
      </trkpt>
      <trkpt lat="48.73606" lon="7.25779">
        <ele>213</ele>
        <time>2020-08-08T17:25:53Z</time>
      </trkpt>
      <trkpt lat="48.73605" lon="7.25769">
        <ele>213</ele>
        <time>2020-08-08T17:25:55Z</time>
      </trkpt>
      <trkpt lat="48.73604" lon="7.25757">
        <ele>213</ele>
        <time>2020-08-08T17:25:57Z</time>
      </trkpt>
      <trkpt lat="48.73603" lon="7.25745">
        <ele>213</ele>
        <time>2020-08-08T17:25:59Z</time>
      </trkpt>
      <trkpt lat="48.73603" lon="7.25734">
        <ele>214</ele>
        <time>2020-08-08T17:26:01Z</time>
      </trkpt>
      <trkpt lat="48.73603" lon="7.25722">
        <ele>213</ele>
        <time>2020-08-08T17:26:03Z</time>
      </trkpt>
      <trkpt lat="48.73604" lon="7.25711">
        <ele>214</ele>
        <time>2020-08-08T17:26:05Z</time>
      </trkpt>
      <trkpt lat="48.73605" lon="7.257">
        <ele>214</ele>
        <time>2020-08-08T17:26:07Z</time>
      </trkpt>
      <trkpt lat="48.73606" lon="7.25691">
        <ele>213</ele>
        <time>2020-08-08T17:26:09Z</time>
      </trkpt>
      <trkpt lat="48.73607" lon="7.25683">
        <ele>213</ele>
        <time>2020-08-08T17:26:11Z</time>
      </trkpt>
      <trkpt lat="48.73607" lon="7.25674">
        <ele>213</ele>
        <time>2020-08-08T17:26:14Z</time>
      </trkpt>
      <trkpt lat="48.73608" lon="7.25663">
        <ele>214</ele>
        <time>2020-08-08T17:26:17Z</time>
      </trkpt>
      <trkpt lat="48.73609" lon="7.25654">
        <ele>215</ele>
        <time>2020-08-08T17:26:19Z</time>
      </trkpt>
      <trkpt lat="48.7361" lon="7.25646">
        <ele>215</ele>
        <time>2020-08-08T17:26:21Z</time>
      </trkpt>
      <trkpt lat="48.73611" lon="7.25637">
        <ele>215</ele>
        <time>2020-08-08T17:26:23Z</time>
      </trkpt>
      <trkpt lat="48.73612" lon="7.25627">
        <ele>215</ele>
        <time>2020-08-08T17:26:25Z</time>
      </trkpt>
      <trkpt lat="48.73613" lon="7.25617">
        <ele>215</ele>
        <time>2020-08-08T17:26:27Z</time>
      </trkpt>
      <trkpt lat="48.73614" lon="7.25607">
        <ele>215</ele>
        <time>2020-08-08T17:26:29Z</time>
      </trkpt>
      <trkpt lat="48.73615" lon="7.25597">
        <ele>215</ele>
        <time>2020-08-08T17:26:31Z</time>
      </trkpt>
      <trkpt lat="48.73616" lon="7.25588">
        <ele>214</ele>
        <time>2020-08-08T17:26:33Z</time>
      </trkpt>
      <trkpt lat="48.73615" lon="7.25581">
        <ele>213</ele>
        <time>2020-08-08T17:26:35Z</time>
      </trkpt>
      <trkpt lat="48.73613" lon="7.25574">
        <ele>213</ele>
        <time>2020-08-08T17:26:37Z</time>
      </trkpt>
      <trkpt lat="48.73608" lon="7.2557">
        <ele>212</ele>
        <time>2020-08-08T17:26:39Z</time>
      </trkpt>
      <trkpt lat="48.73602" lon="7.25568">
        <ele>212</ele>
        <time>2020-08-08T17:26:41Z</time>
      </trkpt>
      <trkpt lat="48.73596" lon="7.25564">
        <ele>212</ele>
        <time>2020-08-08T17:26:43Z</time>
      </trkpt>
      <trkpt lat="48.73591" lon="7.25562">
        <ele>212</ele>
        <time>2020-08-08T17:26:45Z</time>
      </trkpt>
      <trkpt lat="48.73585" lon="7.25558">
        <ele>212</ele>
        <time>2020-08-08T17:26:47Z</time>
      </trkpt>
      <trkpt lat="48.7358" lon="7.25553">
        <ele>212</ele>
        <time>2020-08-08T17:26:49Z</time>
      </trkpt>
      <trkpt lat="48.73577" lon="7.25545">
        <ele>212</ele>
        <time>2020-08-08T17:26:51Z</time>
      </trkpt>
      <trkpt lat="48.73576" lon="7.25536">
        <ele>213</ele>
        <time>2020-08-08T17:26:53Z</time>
      </trkpt>
      <trkpt lat="48.73575" lon="7.25526">
        <ele>213</ele>
        <time>2020-08-08T17:26:55Z</time>
      </trkpt>
      <trkpt lat="48.73574" lon="7.25514">
        <ele>213</ele>
        <time>2020-08-08T17:26:57Z</time>
      </trkpt>
      <trkpt lat="48.73573" lon="7.25503">
        <ele>213</ele>
        <time>2020-08-08T17:26:59Z</time>
      </trkpt>
      <trkpt lat="48.73571" lon="7.25492">
        <ele>213</ele>
        <time>2020-08-08T17:27:01Z</time>
      </trkpt>
      <trkpt lat="48.73571" lon="7.25482">
        <ele>213</ele>
        <time>2020-08-08T17:27:03Z</time>
      </trkpt>
      <trkpt lat="48.7357" lon="7.25472">
        <ele>213</ele>
        <time>2020-08-08T17:27:05Z</time>
      </trkpt>
      <trkpt lat="48.7357" lon="7.25462">
        <ele>213</ele>
        <time>2020-08-08T17:27:07Z</time>
      </trkpt>
      <trkpt lat="48.73568" lon="7.25451">
        <ele>213</ele>
        <time>2020-08-08T17:27:09Z</time>
      </trkpt>
      <trkpt lat="48.73566" lon="7.2544">
        <ele>213</ele>
        <time>2020-08-08T17:27:11Z</time>
      </trkpt>
      <trkpt lat="48.73566" lon="7.2543">
        <ele>213</ele>
        <time>2020-08-08T17:27:13Z</time>
      </trkpt>
      <trkpt lat="48.73565" lon="7.2542">
        <ele>213</ele>
        <time>2020-08-08T17:27:15Z</time>
      </trkpt>
      <trkpt lat="48.73563" lon="7.25412">
        <ele>214</ele>
        <time>2020-08-08T17:27:17Z</time>
      </trkpt>
      <trkpt lat="48.73563" lon="7.25402">
        <ele>214</ele>
        <time>2020-08-08T17:27:19Z</time>
      </trkpt>
      <trkpt lat="48.73563" lon="7.25391">
        <ele>214</ele>
        <time>2020-08-08T17:27:21Z</time>
      </trkpt>
      <trkpt lat="48.73562" lon="7.25379">
        <ele>214</ele>
        <time>2020-08-08T17:27:23Z</time>
      </trkpt>
      <trkpt lat="48.73561" lon="7.25368">
        <ele>214</ele>
        <time>2020-08-08T17:27:25Z</time>
      </trkpt>
      <trkpt lat="48.7356" lon="7.25358">
        <ele>214</ele>
        <time>2020-08-08T17:27:27Z</time>
      </trkpt>
      <trkpt lat="48.73559" lon="7.25347">
        <ele>214</ele>
        <time>2020-08-08T17:27:29Z</time>
      </trkpt>
      <trkpt lat="48.73558" lon="7.25337">
        <ele>214</ele>
        <time>2020-08-08T17:27:31Z</time>
      </trkpt>
      <trkpt lat="48.73557" lon="7.25326">
        <ele>214</ele>
        <time>2020-08-08T17:27:33Z</time>
      </trkpt>
      <trkpt lat="48.73557" lon="7.25315">
        <ele>214</ele>
        <time>2020-08-08T17:27:35Z</time>
      </trkpt>
      <trkpt lat="48.73556" lon="7.25304">
        <ele>214</ele>
        <time>2020-08-08T17:27:37Z</time>
      </trkpt>
      <trkpt lat="48.73556" lon="7.25293">
        <ele>214</ele>
        <time>2020-08-08T17:27:39Z</time>
      </trkpt>
      <trkpt lat="48.73555" lon="7.25282">
        <ele>214</ele>
        <time>2020-08-08T17:27:41Z</time>
      </trkpt>
      <trkpt lat="48.73555" lon="7.25272">
        <ele>213</ele>
        <time>2020-08-08T17:27:43Z</time>
      </trkpt>
      <trkpt lat="48.73554" lon="7.25262">
        <ele>213</ele>
        <time>2020-08-08T17:27:45Z</time>
      </trkpt>
      <trkpt lat="48.73553" lon="7.25253">
        <ele>213</ele>
        <time>2020-08-08T17:27:47Z</time>
      </trkpt>
      <trkpt lat="48.73552" lon="7.25244">
        <ele>213</ele>
        <time>2020-08-08T17:27:49Z</time>
      </trkpt>
      <trkpt lat="48.73551" lon="7.25234">
        <ele>213</ele>
        <time>2020-08-08T17:27:51Z</time>
      </trkpt>
      <trkpt lat="48.7355" lon="7.25225">
        <ele>213</ele>
        <time>2020-08-08T17:27:53Z</time>
      </trkpt>
      <trkpt lat="48.73549" lon="7.25217">
        <ele>213</ele>
        <time>2020-08-08T17:27:55Z</time>
      </trkpt>
      <trkpt lat="48.73548" lon="7.25208">
        <ele>213</ele>
        <time>2020-08-08T17:27:57Z</time>
      </trkpt>
      <trkpt lat="48.73548" lon="7.252">
        <ele>213</ele>
        <time>2020-08-08T17:27:59Z</time>
      </trkpt>
      <trkpt lat="48.73547" lon="7.25191">
        <ele>213</ele>
        <time>2020-08-08T17:28:01Z</time>
      </trkpt>
      <trkpt lat="48.73547" lon="7.25181">
        <ele>213</ele>
        <time>2020-08-08T17:28:03Z</time>
      </trkpt>
      <trkpt lat="48.73546" lon="7.25172">
        <ele>213</ele>
        <time>2020-08-08T17:28:05Z</time>
      </trkpt>
      <trkpt lat="48.73546" lon="7.25164">
        <ele>213</ele>
        <time>2020-08-08T17:28:07Z</time>
      </trkpt>
      <trkpt lat="48.73546" lon="7.25157">
        <ele>214</ele>
        <time>2020-08-08T17:28:09Z</time>
      </trkpt>
      <trkpt lat="48.73545" lon="7.25149">
        <ele>214</ele>
        <time>2020-08-08T17:28:11Z</time>
      </trkpt>
      <trkpt lat="48.73544" lon="7.25142">
        <ele>214</ele>
        <time>2020-08-08T17:28:13Z</time>
      </trkpt>
      <trkpt lat="48.73542" lon="7.25135">
        <ele>214</ele>
        <time>2020-08-08T17:28:15Z</time>
      </trkpt>
      <trkpt lat="48.73538" lon="7.25127">
        <ele>214</ele>
        <time>2020-08-08T17:28:18Z</time>
      </trkpt>
      <trkpt lat="48.73534" lon="7.2512">
        <ele>215</ele>
        <time>2020-08-08T17:28:21Z</time>
      </trkpt>
      <trkpt lat="48.73531" lon="7.25114">
        <ele>215</ele>
        <time>2020-08-08T17:28:24Z</time>
      </trkpt>
      <trkpt lat="48.73527" lon="7.25108">
        <ele>216</ele>
        <time>2020-08-08T17:28:27Z</time>
      </trkpt>
      <trkpt lat="48.73522" lon="7.25104">
        <ele>216</ele>
        <time>2020-08-08T17:28:31Z</time>
      </trkpt>
      <trkpt lat="48.73518" lon="7.25103">
        <ele>216</ele>
        <time>2020-08-08T17:28:45Z</time>
      </trkpt>
      <trkpt lat="48.73552" lon="7.25064">
        <ele>217</ele>
        <time>2020-08-08T17:30:26Z</time>
      </trkpt>
      <trkpt lat="48.73447" lon="7.2496">
        <ele>215</ele>
        <time>2020-08-08T17:48:59Z</time>
      </trkpt>
      <trkpt lat="48.7344" lon="7.24953">
        <ele>215</ele>
        <time>2020-08-08T17:49:01Z</time>
      </trkpt>
      <trkpt lat="48.73433" lon="7.24945">
        <ele>216</ele>
        <time>2020-08-08T17:49:03Z</time>
      </trkpt>
      <trkpt lat="48.73429" lon="7.24941">
        <ele>216</ele>
        <time>2020-08-08T17:49:04Z</time>
      </trkpt>
      <trkpt lat="48.73424" lon="7.24937">
        <ele>216</ele>
        <time>2020-08-08T17:49:05Z</time>
      </trkpt>
      <trkpt lat="48.73417" lon="7.2493">
        <ele>216</ele>
        <time>2020-08-08T17:49:07Z</time>
      </trkpt>
      <trkpt lat="48.73412" lon="7.24927">
        <ele>216</ele>
        <time>2020-08-08T17:49:08Z</time>
      </trkpt>
      <trkpt lat="48.73408" lon="7.24923">
        <ele>217</ele>
        <time>2020-08-08T17:49:09Z</time>
      </trkpt>
      <trkpt lat="48.73404" lon="7.2492">
        <ele>217</ele>
        <time>2020-08-08T17:49:10Z</time>
      </trkpt>
      <trkpt lat="48.73395" lon="7.24916">
        <ele>217</ele>
        <time>2020-08-08T17:49:12Z</time>
      </trkpt>
      <trkpt lat="48.73391" lon="7.24913">
        <ele>217</ele>
        <time>2020-08-08T17:49:13Z</time>
      </trkpt>
      <trkpt lat="48.73386" lon="7.24911">
        <ele>217</ele>
        <time>2020-08-08T17:49:14Z</time>
      </trkpt>
      <trkpt lat="48.73382" lon="7.24909">
        <ele>217</ele>
        <time>2020-08-08T17:49:15Z</time>
      </trkpt>
      <trkpt lat="48.73377" lon="7.24908">
        <ele>217</ele>
        <time>2020-08-08T17:49:16Z</time>
      </trkpt>
      <trkpt lat="48.73373" lon="7.24906">
        <ele>217</ele>
        <time>2020-08-08T17:49:17Z</time>
      </trkpt>
      <trkpt lat="48.73368" lon="7.24906">
        <ele>216</ele>
        <time>2020-08-08T17:49:18Z</time>
      </trkpt>
      <trkpt lat="48.73363" lon="7.24906">
        <ele>216</ele>
        <time>2020-08-08T17:49:19Z</time>
      </trkpt>
      <trkpt lat="48.73359" lon="7.24905">
        <ele>216</ele>
        <time>2020-08-08T17:49:20Z</time>
      </trkpt>
      <trkpt lat="48.7335" lon="7.24905">
        <ele>216</ele>
        <time>2020-08-08T17:49:22Z</time>
      </trkpt>
      <trkpt lat="48.73341" lon="7.24905">
        <ele>216</ele>
        <time>2020-08-08T17:49:24Z</time>
      </trkpt>
      <trkpt lat="48.73336" lon="7.24905">
        <ele>216</ele>
        <time>2020-08-08T17:49:25Z</time>
      </trkpt>
      <trkpt lat="48.73331" lon="7.24906">
        <ele>215</ele>
        <time>2020-08-08T17:49:26Z</time>
      </trkpt>
      <trkpt lat="48.73327" lon="7.24907">
        <ele>215</ele>
        <time>2020-08-08T17:49:27Z</time>
      </trkpt>
      <trkpt lat="48.73322" lon="7.24908">
        <ele>215</ele>
        <time>2020-08-08T17:49:28Z</time>
      </trkpt>
      <trkpt lat="48.73317" lon="7.2491">
        <ele>216</ele>
        <time>2020-08-08T17:49:29Z</time>
      </trkpt>
      <trkpt lat="48.73312" lon="7.24911">
        <ele>216</ele>
        <time>2020-08-08T17:49:30Z</time>
      </trkpt>
      <trkpt lat="48.73304" lon="7.24915">
        <ele>216</ele>
        <time>2020-08-08T17:49:32Z</time>
      </trkpt>
      <trkpt lat="48.73295" lon="7.24918">
        <ele>216</ele>
        <time>2020-08-08T17:49:34Z</time>
      </trkpt>
      <trkpt lat="48.73288" lon="7.24922">
        <ele>216</ele>
        <time>2020-08-08T17:49:36Z</time>
      </trkpt>
      <trkpt lat="48.7328" lon="7.24928">
        <ele>216</ele>
        <time>2020-08-08T17:49:38Z</time>
      </trkpt>
      <trkpt lat="48.73272" lon="7.24934">
        <ele>216</ele>
        <time>2020-08-08T17:49:40Z</time>
      </trkpt>
      <trkpt lat="48.73265" lon="7.24941">
        <ele>216</ele>
        <time>2020-08-08T17:49:42Z</time>
      </trkpt>
      <trkpt lat="48.73259" lon="7.24948">
        <ele>216</ele>
        <time>2020-08-08T17:49:44Z</time>
      </trkpt>
      <trkpt lat="48.73253" lon="7.24955">
        <ele>215</ele>
        <time>2020-08-08T17:49:46Z</time>
      </trkpt>
      <trkpt lat="48.73246" lon="7.24963">
        <ele>215</ele>
        <time>2020-08-08T17:49:48Z</time>
      </trkpt>
      <trkpt lat="48.7324" lon="7.24972">
        <ele>216</ele>
        <time>2020-08-08T17:49:50Z</time>
      </trkpt>
      <trkpt lat="48.73233" lon="7.2498">
        <ele>216</ele>
        <time>2020-08-08T17:49:52Z</time>
      </trkpt>
      <trkpt lat="48.73227" lon="7.24988">
        <ele>216</ele>
        <time>2020-08-08T17:49:54Z</time>
      </trkpt>
      <trkpt lat="48.73221" lon="7.24995">
        <ele>217</ele>
        <time>2020-08-08T17:49:56Z</time>
      </trkpt>
      <trkpt lat="48.73216" lon="7.24999">
        <ele>218</ele>
        <time>2020-08-08T17:49:58Z</time>
      </trkpt>
      <trkpt lat="48.73208" lon="7.25007">
        <ele>220</ele>
        <time>2020-08-08T17:50:43Z</time>
      </trkpt>
      <trkpt lat="48.73203" lon="7.25011">
        <ele>220</ele>
        <time>2020-08-08T17:50:45Z</time>
      </trkpt>
      <trkpt lat="48.73198" lon="7.25016">
        <ele>220</ele>
        <time>2020-08-08T17:50:47Z</time>
      </trkpt>
      <trkpt lat="48.7319" lon="7.2502">
        <ele>220</ele>
        <time>2020-08-08T17:50:49Z</time>
      </trkpt>
      <trkpt lat="48.73183" lon="7.25025">
        <ele>220</ele>
        <time>2020-08-08T17:50:51Z</time>
      </trkpt>
      <trkpt lat="48.73175" lon="7.25029">
        <ele>218</ele>
        <time>2020-08-08T17:50:53Z</time>
      </trkpt>
      <trkpt lat="48.73166" lon="7.25032">
        <ele>218</ele>
        <time>2020-08-08T17:50:55Z</time>
      </trkpt>
      <trkpt lat="48.73161" lon="7.25033">
        <ele>218</ele>
        <time>2020-08-08T17:50:56Z</time>
      </trkpt>
      <trkpt lat="48.73156" lon="7.25033">
        <ele>219</ele>
        <time>2020-08-08T17:50:57Z</time>
      </trkpt>
      <trkpt lat="48.73151" lon="7.25033">
        <ele>219</ele>
        <time>2020-08-08T17:50:58Z</time>
      </trkpt>
      <trkpt lat="48.73146" lon="7.25033">
        <ele>219</ele>
        <time>2020-08-08T17:50:59Z</time>
      </trkpt>
      <trkpt lat="48.7314" lon="7.25032">
        <ele>220</ele>
        <time>2020-08-08T17:51:00Z</time>
      </trkpt>
      <trkpt lat="48.73135" lon="7.2503">
        <ele>220</ele>
        <time>2020-08-08T17:51:01Z</time>
      </trkpt>
      <trkpt lat="48.73129" lon="7.2503">
        <ele>220</ele>
        <time>2020-08-08T17:51:02Z</time>
      </trkpt>
      <trkpt lat="48.73124" lon="7.25028">
        <ele>221</ele>
        <time>2020-08-08T17:51:03Z</time>
      </trkpt>
      <trkpt lat="48.73119" lon="7.25027">
        <ele>221</ele>
        <time>2020-08-08T17:51:04Z</time>
      </trkpt>
      <trkpt lat="48.73114" lon="7.25025">
        <ele>221</ele>
        <time>2020-08-08T17:51:05Z</time>
      </trkpt>
      <trkpt lat="48.73109" lon="7.25023">
        <ele>221</ele>
        <time>2020-08-08T17:51:06Z</time>
      </trkpt>
      <trkpt lat="48.73105" lon="7.2502">
        <ele>221</ele>
        <time>2020-08-08T17:51:07Z</time>
      </trkpt>
      <trkpt lat="48.731" lon="7.25018">
        <ele>221</ele>
        <time>2020-08-08T17:51:08Z</time>
      </trkpt>
      <trkpt lat="48.73092" lon="7.25012">
        <ele>222</ele>
        <time>2020-08-08T17:51:10Z</time>
      </trkpt>
      <trkpt lat="48.73088" lon="7.2501">
        <ele>221</ele>
        <time>2020-08-08T17:51:11Z</time>
      </trkpt>
      <trkpt lat="48.73084" lon="7.25007">
        <ele>221</ele>
        <time>2020-08-08T17:51:12Z</time>
      </trkpt>
      <trkpt lat="48.7308" lon="7.25003">
        <ele>221</ele>
        <time>2020-08-08T17:51:13Z</time>
      </trkpt>
      <trkpt lat="48.73075" lon="7.24999">
        <ele>221</ele>
        <time>2020-08-08T17:51:14Z</time>
      </trkpt>
      <trkpt lat="48.73071" lon="7.24995">
        <ele>220</ele>
        <time>2020-08-08T17:51:15Z</time>
      </trkpt>
      <trkpt lat="48.73068" lon="7.24991">
        <ele>220</ele>
        <time>2020-08-08T17:51:16Z</time>
      </trkpt>
      <trkpt lat="48.73064" lon="7.24986">
        <ele>220</ele>
        <time>2020-08-08T17:51:17Z</time>
      </trkpt>
      <trkpt lat="48.7306" lon="7.24982">
        <ele>219</ele>
        <time>2020-08-08T17:51:18Z</time>
      </trkpt>
      <trkpt lat="48.73057" lon="7.24977">
        <ele>219</ele>
        <time>2020-08-08T17:51:19Z</time>
      </trkpt>
      <trkpt lat="48.73053" lon="7.24972">
        <ele>218</ele>
        <time>2020-08-08T17:51:20Z</time>
      </trkpt>
      <trkpt lat="48.7305" lon="7.24967">
        <ele>219</ele>
        <time>2020-08-08T17:51:21Z</time>
      </trkpt>
      <trkpt lat="48.73047" lon="7.24959">
        <ele>218</ele>
        <time>2020-08-08T17:51:22Z</time>
      </trkpt>
      <trkpt lat="48.73044" lon="7.24954">
        <ele>218</ele>
        <time>2020-08-08T17:51:23Z</time>
      </trkpt>
      <trkpt lat="48.73041" lon="7.24948">
        <ele>218</ele>
        <time>2020-08-08T17:51:24Z</time>
      </trkpt>
      <trkpt lat="48.73039" lon="7.24941">
        <ele>217</ele>
        <time>2020-08-08T17:51:25Z</time>
      </trkpt>
      <trkpt lat="48.73036" lon="7.24934">
        <ele>218</ele>
        <time>2020-08-08T17:51:26Z</time>
      </trkpt>
      <trkpt lat="48.73035" lon="7.24926">
        <ele>218</ele>
        <time>2020-08-08T17:51:27Z</time>
      </trkpt>
      <trkpt lat="48.73034" lon="7.24917">
        <ele>218</ele>
        <time>2020-08-08T17:51:28Z</time>
      </trkpt>
      <trkpt lat="48.73032" lon="7.2491">
        <ele>218</ele>
        <time>2020-08-08T17:51:29Z</time>
      </trkpt>
      <trkpt lat="48.73027" lon="7.24899">
        <ele>217</ele>
        <time>2020-08-08T17:51:31Z</time>
      </trkpt>
      <trkpt lat="48.73024" lon="7.24892">
        <ele>216</ele>
        <time>2020-08-08T17:51:32Z</time>
      </trkpt>
      <trkpt lat="48.73023" lon="7.24884">
        <ele>217</ele>
        <time>2020-08-08T17:51:33Z</time>
      </trkpt>
      <trkpt lat="48.7302" lon="7.24877">
        <ele>217</ele>
        <time>2020-08-08T17:51:34Z</time>
      </trkpt>
      <trkpt lat="48.73018" lon="7.2487">
        <ele>217</ele>
        <time>2020-08-08T17:51:35Z</time>
      </trkpt>
      <trkpt lat="48.73015" lon="7.24864">
        <ele>217</ele>
        <time>2020-08-08T17:51:36Z</time>
      </trkpt>
      <trkpt lat="48.73013" lon="7.24856">
        <ele>217</ele>
        <time>2020-08-08T17:51:37Z</time>
      </trkpt>
      <trkpt lat="48.7301" lon="7.24849">
        <ele>217</ele>
        <time>2020-08-08T17:51:38Z</time>
      </trkpt>
      <trkpt lat="48.73008" lon="7.24842">
        <ele>220</ele>
        <time>2020-08-08T17:51:39Z</time>
      </trkpt>
      <trkpt lat="48.73005" lon="7.24835">
        <ele>220</ele>
        <time>2020-08-08T17:51:40Z</time>
      </trkpt>
      <trkpt lat="48.73003" lon="7.24829">
        <ele>219</ele>
        <time>2020-08-08T17:51:41Z</time>
      </trkpt>
      <trkpt lat="48.73" lon="7.24822">
        <ele>220</ele>
        <time>2020-08-08T17:51:42Z</time>
      </trkpt>
      <trkpt lat="48.72998" lon="7.24814">
        <ele>222</ele>
        <time>2020-08-08T17:51:43Z</time>
      </trkpt>
      <trkpt lat="48.72996" lon="7.24808">
        <ele>221</ele>
        <time>2020-08-08T17:51:44Z</time>
      </trkpt>
      <trkpt lat="48.72994" lon="7.24801">
        <ele>220</ele>
        <time>2020-08-08T17:51:45Z</time>
      </trkpt>
      <trkpt lat="48.72992" lon="7.24795">
        <ele>220</ele>
        <time>2020-08-08T17:51:46Z</time>
      </trkpt>
      <trkpt lat="48.7299" lon="7.24788">
        <ele>221</ele>
        <time>2020-08-08T17:51:47Z</time>
      </trkpt>
      <trkpt lat="48.72988" lon="7.24781">
        <ele>221</ele>
        <time>2020-08-08T17:51:48Z</time>
      </trkpt>
      <trkpt lat="48.72986" lon="7.24775">
        <ele>220</ele>
        <time>2020-08-08T17:51:49Z</time>
      </trkpt>
      <trkpt lat="48.72984" lon="7.24768">
        <ele>221</ele>
        <time>2020-08-08T17:51:50Z</time>
      </trkpt>
      <trkpt lat="48.72981" lon="7.24762">
        <ele>220</ele>
        <time>2020-08-08T17:51:51Z</time>
      </trkpt>
      <trkpt lat="48.72979" lon="7.24757">
        <ele>219</ele>
        <time>2020-08-08T17:51:52Z</time>
      </trkpt>
      <trkpt lat="48.72977" lon="7.2475">
        <ele>219</ele>
        <time>2020-08-08T17:51:53Z</time>
      </trkpt>
      <trkpt lat="48.72974" lon="7.24743">
        <ele>220</ele>
        <time>2020-08-08T17:51:54Z</time>
      </trkpt>
      <trkpt lat="48.7297" lon="7.24731">
        <ele>220</ele>
        <time>2020-08-08T17:51:56Z</time>
      </trkpt>
      <trkpt lat="48.72966" lon="7.2472">
        <ele>221</ele>
        <time>2020-08-08T17:51:58Z</time>
      </trkpt>
      <trkpt lat="48.72961" lon="7.24701">
        <ele>221</ele>
        <time>2020-08-08T17:52:01Z</time>
      </trkpt>
      <trkpt lat="48.72957" lon="7.24689">
        <ele>221</ele>
        <time>2020-08-08T17:52:03Z</time>
      </trkpt>
      <trkpt lat="48.72954" lon="7.24683">
        <ele>220</ele>
        <time>2020-08-08T17:52:04Z</time>
      </trkpt>
      <trkpt lat="48.7295" lon="7.24672">
        <ele>221</ele>
        <time>2020-08-08T17:52:06Z</time>
      </trkpt>
      <trkpt lat="48.72949" lon="7.24665">
        <ele>223</ele>
        <time>2020-08-08T17:52:07Z</time>
      </trkpt>
      <trkpt lat="48.72945" lon="7.24652">
        <ele>222</ele>
        <time>2020-08-08T17:52:09Z</time>
      </trkpt>
      <trkpt lat="48.72942" lon="7.24646">
        <ele>220</ele>
        <time>2020-08-08T17:52:10Z</time>
      </trkpt>
      <trkpt lat="48.7294" lon="7.2464">
        <ele>220</ele>
        <time>2020-08-08T17:52:11Z</time>
      </trkpt>
      <trkpt lat="48.72939" lon="7.24633">
        <ele>219</ele>
        <time>2020-08-08T17:52:12Z</time>
      </trkpt>
      <trkpt lat="48.72936" lon="7.24625">
        <ele>218</ele>
        <time>2020-08-08T17:52:13Z</time>
      </trkpt>
      <trkpt lat="48.72934" lon="7.24618">
        <ele>218</ele>
        <time>2020-08-08T17:52:14Z</time>
      </trkpt>
      <trkpt lat="48.72932" lon="7.24612">
        <ele>220</ele>
        <time>2020-08-08T17:52:15Z</time>
      </trkpt>
      <trkpt lat="48.72927" lon="7.24601">
        <ele>220</ele>
        <time>2020-08-08T17:52:17Z</time>
      </trkpt>
      <trkpt lat="48.72924" lon="7.24595">
        <ele>219</ele>
        <time>2020-08-08T17:52:18Z</time>
      </trkpt>
      <trkpt lat="48.72923" lon="7.24589">
        <ele>219</ele>
        <time>2020-08-08T17:52:19Z</time>
      </trkpt>
      <trkpt lat="48.72921" lon="7.24582">
        <ele>219</ele>
        <time>2020-08-08T17:52:20Z</time>
      </trkpt>
      <trkpt lat="48.72919" lon="7.24575">
        <ele>219</ele>
        <time>2020-08-08T17:52:21Z</time>
      </trkpt>
      <trkpt lat="48.72912" lon="7.24556">
        <ele>220</ele>
        <time>2020-08-08T17:52:24Z</time>
      </trkpt>
      <trkpt lat="48.7291" lon="7.24548">
        <ele>220</ele>
        <time>2020-08-08T17:52:25Z</time>
      </trkpt>
      <trkpt lat="48.72908" lon="7.24542">
        <ele>218</ele>
        <time>2020-08-08T17:52:26Z</time>
      </trkpt>
      <trkpt lat="48.72903" lon="7.24531">
        <ele>217</ele>
        <time>2020-08-08T17:52:28Z</time>
      </trkpt>
      <trkpt lat="48.72899" lon="7.2452">
        <ele>217</ele>
        <time>2020-08-08T17:52:30Z</time>
      </trkpt>
      <trkpt lat="48.72894" lon="7.24509">
        <ele>218</ele>
        <time>2020-08-08T17:52:32Z</time>
      </trkpt>
      <trkpt lat="48.72889" lon="7.24498">
        <ele>219</ele>
        <time>2020-08-08T17:52:34Z</time>
      </trkpt>
      <trkpt lat="48.72886" lon="7.24487">
        <ele>219</ele>
        <time>2020-08-08T17:52:36Z</time>
      </trkpt>
      <trkpt lat="48.72885" lon="7.24477">
        <ele>219</ele>
        <time>2020-08-08T17:52:38Z</time>
      </trkpt>
      <trkpt lat="48.72882" lon="7.24468">
        <ele>218</ele>
        <time>2020-08-08T17:52:40Z</time>
      </trkpt>
      <trkpt lat="48.72877" lon="7.24461">
        <ele>218</ele>
        <time>2020-08-08T17:52:42Z</time>
      </trkpt>
      <trkpt lat="48.72873" lon="7.24453">
        <ele>218</ele>
        <time>2020-08-08T17:52:44Z</time>
      </trkpt>
      <trkpt lat="48.7287" lon="7.24444">
        <ele>218</ele>
        <time>2020-08-08T17:52:46Z</time>
      </trkpt>
      <trkpt lat="48.72867" lon="7.24435">
        <ele>218</ele>
        <time>2020-08-08T17:52:48Z</time>
      </trkpt>
      <trkpt lat="48.72865" lon="7.24426">
        <ele>218</ele>
        <time>2020-08-08T17:52:50Z</time>
      </trkpt>
      <trkpt lat="48.72862" lon="7.24417">
        <ele>218</ele>
        <time>2020-08-08T17:52:52Z</time>
      </trkpt>
      <trkpt lat="48.7286" lon="7.24408">
        <ele>219</ele>
        <time>2020-08-08T17:52:54Z</time>
      </trkpt>
      <trkpt lat="48.72858" lon="7.24399">
        <ele>221</ele>
        <time>2020-08-08T17:52:56Z</time>
      </trkpt>
      <trkpt lat="48.72856" lon="7.2439">
        <ele>222</ele>
        <time>2020-08-08T17:52:58Z</time>
      </trkpt>
      <trkpt lat="48.72854" lon="7.24383">
        <ele>223</ele>
        <time>2020-08-08T17:53:00Z</time>
      </trkpt>
      <trkpt lat="48.72852" lon="7.24376">
        <ele>224</ele>
        <time>2020-08-08T17:53:02Z</time>
      </trkpt>
      <trkpt lat="48.7285" lon="7.24369">
        <ele>224</ele>
        <time>2020-08-08T17:53:04Z</time>
      </trkpt>
      <trkpt lat="48.72847" lon="7.24361">
        <ele>224</ele>
        <time>2020-08-08T17:53:06Z</time>
      </trkpt>
      <trkpt lat="48.72844" lon="7.24352">
        <ele>224</ele>
        <time>2020-08-08T17:53:08Z</time>
      </trkpt>
      <trkpt lat="48.72842" lon="7.24344">
        <ele>224</ele>
        <time>2020-08-08T17:53:10Z</time>
      </trkpt>
      <trkpt lat="48.72839" lon="7.24335">
        <ele>223</ele>
        <time>2020-08-08T17:53:12Z</time>
      </trkpt>
      <trkpt lat="48.72836" lon="7.24325">
        <ele>222</ele>
        <time>2020-08-08T17:53:14Z</time>
      </trkpt>
      <trkpt lat="48.72834" lon="7.24316">
        <ele>222</ele>
        <time>2020-08-08T17:53:16Z</time>
      </trkpt>
      <trkpt lat="48.72832" lon="7.24307">
        <ele>222</ele>
        <time>2020-08-08T17:53:18Z</time>
      </trkpt>
      <trkpt lat="48.72829" lon="7.24297">
        <ele>223</ele>
        <time>2020-08-08T17:53:20Z</time>
      </trkpt>
      <trkpt lat="48.72827" lon="7.24287">
        <ele>224</ele>
        <time>2020-08-08T17:53:22Z</time>
      </trkpt>
      <trkpt lat="48.72824" lon="7.24278">
        <ele>223</ele>
        <time>2020-08-08T17:53:24Z</time>
      </trkpt>
      <trkpt lat="48.72822" lon="7.24269">
        <ele>223</ele>
        <time>2020-08-08T17:53:26Z</time>
      </trkpt>
      <trkpt lat="48.72821" lon="7.2426">
        <ele>224</ele>
        <time>2020-08-08T17:53:28Z</time>
      </trkpt>
      <trkpt lat="48.72819" lon="7.24253">
        <ele>224</ele>
        <time>2020-08-08T17:53:30Z</time>
      </trkpt>
      <trkpt lat="48.72818" lon="7.24245">
        <ele>224</ele>
        <time>2020-08-08T17:53:32Z</time>
      </trkpt>
      <trkpt lat="48.72818" lon="7.24237">
        <ele>225</ele>
        <time>2020-08-08T17:53:34Z</time>
      </trkpt>
      <trkpt lat="48.72816" lon="7.24228">
        <ele>223</ele>
        <time>2020-08-08T17:53:36Z</time>
      </trkpt>
      <trkpt lat="48.72816" lon="7.24218">
        <ele>223</ele>
        <time>2020-08-08T17:53:38Z</time>
      </trkpt>
      <trkpt lat="48.72814" lon="7.24208">
        <ele>220</ele>
        <time>2020-08-08T17:53:40Z</time>
      </trkpt>
      <trkpt lat="48.72813" lon="7.24196">
        <ele>220</ele>
        <time>2020-08-08T17:53:42Z</time>
      </trkpt>
      <trkpt lat="48.72812" lon="7.24189">
        <ele>221</ele>
        <time>2020-08-08T17:53:43Z</time>
      </trkpt>
      <trkpt lat="48.7281" lon="7.24176">
        <ele>223</ele>
        <time>2020-08-08T17:53:45Z</time>
      </trkpt>
      <trkpt lat="48.72809" lon="7.24163">
        <ele>223</ele>
        <time>2020-08-08T17:53:47Z</time>
      </trkpt>
      <trkpt lat="48.72808" lon="7.24156">
        <ele>224</ele>
        <time>2020-08-08T17:53:48Z</time>
      </trkpt>
      <trkpt lat="48.72807" lon="7.24149">
        <ele>224</ele>
        <time>2020-08-08T17:53:49Z</time>
      </trkpt>
      <trkpt lat="48.72806" lon="7.24142">
        <ele>223</ele>
        <time>2020-08-08T17:53:50Z</time>
      </trkpt>
      <trkpt lat="48.72805" lon="7.24135">
        <ele>222</ele>
        <time>2020-08-08T17:53:51Z</time>
      </trkpt>
      <trkpt lat="48.72803" lon="7.24121">
        <ele>222</ele>
        <time>2020-08-08T17:53:53Z</time>
      </trkpt>
      <trkpt lat="48.72802" lon="7.24114">
        <ele>221</ele>
        <time>2020-08-08T17:53:54Z</time>
      </trkpt>
      <trkpt lat="48.728" lon="7.24101">
        <ele>220</ele>
        <time>2020-08-08T17:53:56Z</time>
      </trkpt>
      <trkpt lat="48.728" lon="7.24094">
        <ele>220</ele>
        <time>2020-08-08T17:53:57Z</time>
      </trkpt>
      <trkpt lat="48.72799" lon="7.24087">
        <ele>220</ele>
        <time>2020-08-08T17:53:58Z</time>
      </trkpt>
      <trkpt lat="48.72798" lon="7.2408">
        <ele>221</ele>
        <time>2020-08-08T17:53:59Z</time>
      </trkpt>
      <trkpt lat="48.72796" lon="7.24066">
        <ele>223</ele>
        <time>2020-08-08T17:54:01Z</time>
      </trkpt>
      <trkpt lat="48.72796" lon="7.24059">
        <ele>225</ele>
        <time>2020-08-08T17:54:02Z</time>
      </trkpt>
      <trkpt lat="48.72795" lon="7.24052">
        <ele>225</ele>
        <time>2020-08-08T17:54:03Z</time>
      </trkpt>
      <trkpt lat="48.72795" lon="7.24044">
        <ele>225</ele>
        <time>2020-08-08T17:54:04Z</time>
      </trkpt>
      <trkpt lat="48.72794" lon="7.24037">
        <ele>224</ele>
        <time>2020-08-08T17:54:05Z</time>
      </trkpt>
      <trkpt lat="48.72794" lon="7.2403">
        <ele>224</ele>
        <time>2020-08-08T17:54:06Z</time>
      </trkpt>
      <trkpt lat="48.72794" lon="7.24023">
        <ele>225</ele>
        <time>2020-08-08T17:54:07Z</time>
      </trkpt>
      <trkpt lat="48.72794" lon="7.24016">
        <ele>225</ele>
        <time>2020-08-08T17:54:08Z</time>
      </trkpt>
      <trkpt lat="48.72794" lon="7.24008">
        <ele>226</ele>
        <time>2020-08-08T17:54:09Z</time>
      </trkpt>
      <trkpt lat="48.72793" lon="7.24">
        <ele>225</ele>
        <time>2020-08-08T17:54:10Z</time>
      </trkpt>
      <trkpt lat="48.72792" lon="7.23992">
        <ele>224</ele>
        <time>2020-08-08T17:54:11Z</time>
      </trkpt>
      <trkpt lat="48.72792" lon="7.23985">
        <ele>224</ele>
        <time>2020-08-08T17:54:12Z</time>
      </trkpt>
      <trkpt lat="48.72792" lon="7.23977">
        <ele>224</ele>
        <time>2020-08-08T17:54:13Z</time>
      </trkpt>
      <trkpt lat="48.72793" lon="7.23964">
        <ele>225</ele>
        <time>2020-08-08T17:54:15Z</time>
      </trkpt>
      <trkpt lat="48.72792" lon="7.23957">
        <ele>223</ele>
        <time>2020-08-08T17:54:16Z</time>
      </trkpt>
      <trkpt lat="48.72792" lon="7.23951">
        <ele>223</ele>
        <time>2020-08-08T17:54:17Z</time>
      </trkpt>
      <trkpt lat="48.72792" lon="7.23943">
        <ele>223</ele>
        <time>2020-08-08T17:54:18Z</time>
      </trkpt>
      <trkpt lat="48.72793" lon="7.23936">
        <ele>223</ele>
        <time>2020-08-08T17:54:19Z</time>
      </trkpt>
      <trkpt lat="48.72794" lon="7.23929">
        <ele>224</ele>
        <time>2020-08-08T17:54:20Z</time>
      </trkpt>
      <trkpt lat="48.72794" lon="7.23922">
        <ele>223</ele>
        <time>2020-08-08T17:54:21Z</time>
      </trkpt>
      <trkpt lat="48.72794" lon="7.23915">
        <ele>222</ele>
        <time>2020-08-08T17:54:22Z</time>
      </trkpt>
      <trkpt lat="48.72795" lon="7.23908">
        <ele>221</ele>
        <time>2020-08-08T17:54:23Z</time>
      </trkpt>
      <trkpt lat="48.72796" lon="7.23901">
        <ele>221</ele>
        <time>2020-08-08T17:54:24Z</time>
      </trkpt>
      <trkpt lat="48.72796" lon="7.23894">
        <ele>220</ele>
        <time>2020-08-08T17:54:25Z</time>
      </trkpt>
      <trkpt lat="48.72796" lon="7.23887">
        <ele>220</ele>
        <time>2020-08-08T17:54:26Z</time>
      </trkpt>
      <trkpt lat="48.72797" lon="7.23879">
        <ele>219</ele>
        <time>2020-08-08T17:54:27Z</time>
      </trkpt>
      <trkpt lat="48.72797" lon="7.23872">
        <ele>219</ele>
        <time>2020-08-08T17:54:28Z</time>
      </trkpt>
      <trkpt lat="48.72797" lon="7.23864">
        <ele>219</ele>
        <time>2020-08-08T17:54:29Z</time>
      </trkpt>
      <trkpt lat="48.72797" lon="7.23857">
        <ele>219</ele>
        <time>2020-08-08T17:54:30Z</time>
      </trkpt>
      <trkpt lat="48.72798" lon="7.2385">
        <ele>219</ele>
        <time>2020-08-08T17:54:31Z</time>
      </trkpt>
      <trkpt lat="48.72798" lon="7.23842">
        <ele>220</ele>
        <time>2020-08-08T17:54:32Z</time>
      </trkpt>
      <trkpt lat="48.72798" lon="7.23835">
        <ele>220</ele>
        <time>2020-08-08T17:54:33Z</time>
      </trkpt>
      <trkpt lat="48.72798" lon="7.23822">
        <ele>221</ele>
        <time>2020-08-08T17:54:35Z</time>
      </trkpt>
      <trkpt lat="48.72798" lon="7.23814">
        <ele>221</ele>
        <time>2020-08-08T17:54:36Z</time>
      </trkpt>
      <trkpt lat="48.72798" lon="7.23807">
        <ele>222</ele>
        <time>2020-08-08T17:54:37Z</time>
      </trkpt>
      <trkpt lat="48.72799" lon="7.23793">
        <ele>223</ele>
        <time>2020-08-08T17:54:39Z</time>
      </trkpt>
      <trkpt lat="48.72799" lon="7.23786">
        <ele>223</ele>
        <time>2020-08-08T17:54:40Z</time>
      </trkpt>
      <trkpt lat="48.72799" lon="7.23779">
        <ele>223</ele>
        <time>2020-08-08T17:54:41Z</time>
      </trkpt>
      <trkpt lat="48.72799" lon="7.23772">
        <ele>223</ele>
        <time>2020-08-08T17:54:42Z</time>
      </trkpt>
      <trkpt lat="48.72799" lon="7.23765">
        <ele>223</ele>
        <time>2020-08-08T17:54:43Z</time>
      </trkpt>
      <trkpt lat="48.72799" lon="7.23758">
        <ele>223</ele>
        <time>2020-08-08T17:54:44Z</time>
      </trkpt>
      <trkpt lat="48.72798" lon="7.23751">
        <ele>222</ele>
        <time>2020-08-08T17:54:45Z</time>
      </trkpt>
      <trkpt lat="48.72799" lon="7.23738">
        <ele>224</ele>
        <time>2020-08-08T17:54:47Z</time>
      </trkpt>
      <trkpt lat="48.72797" lon="7.23725">
        <ele>222</ele>
        <time>2020-08-08T17:54:49Z</time>
      </trkpt>
      <trkpt lat="48.72797" lon="7.23714">
        <ele>222</ele>
        <time>2020-08-08T17:54:51Z</time>
      </trkpt>
      <trkpt lat="48.72796" lon="7.23701">
        <ele>223</ele>
        <time>2020-08-08T17:54:53Z</time>
      </trkpt>
      <trkpt lat="48.72795" lon="7.23695">
        <ele>223</ele>
        <time>2020-08-08T17:54:54Z</time>
      </trkpt>
      <trkpt lat="48.72794" lon="7.23687">
        <ele>223</ele>
        <time>2020-08-08T17:54:55Z</time>
      </trkpt>
      <trkpt lat="48.72794" lon="7.23679">
        <ele>222</ele>
        <time>2020-08-08T17:54:56Z</time>
      </trkpt>
      <trkpt lat="48.72793" lon="7.23671">
        <ele>221</ele>
        <time>2020-08-08T17:54:57Z</time>
      </trkpt>
      <trkpt lat="48.72792" lon="7.23664">
        <ele>221</ele>
        <time>2020-08-08T17:54:58Z</time>
      </trkpt>
      <trkpt lat="48.72792" lon="7.23656">
        <ele>222</ele>
        <time>2020-08-08T17:54:59Z</time>
      </trkpt>
      <trkpt lat="48.72791" lon="7.2365">
        <ele>221</ele>
        <time>2020-08-08T17:55:00Z</time>
      </trkpt>
      <trkpt lat="48.7279" lon="7.23642">
        <ele>221</ele>
        <time>2020-08-08T17:55:01Z</time>
      </trkpt>
      <trkpt lat="48.72789" lon="7.23635">
        <ele>220</ele>
        <time>2020-08-08T17:55:02Z</time>
      </trkpt>
      <trkpt lat="48.72788" lon="7.23628">
        <ele>219</ele>
        <time>2020-08-08T17:55:03Z</time>
      </trkpt>
      <trkpt lat="48.72788" lon="7.23621">
        <ele>220</ele>
        <time>2020-08-08T17:55:04Z</time>
      </trkpt>
      <trkpt lat="48.72787" lon="7.23614">
        <ele>220</ele>
        <time>2020-08-08T17:55:05Z</time>
      </trkpt>
      <trkpt lat="48.72786" lon="7.23606">
        <ele>220</ele>
        <time>2020-08-08T17:55:06Z</time>
      </trkpt>
      <trkpt lat="48.72786" lon="7.23599">
        <ele>221</ele>
        <time>2020-08-08T17:55:07Z</time>
      </trkpt>
      <trkpt lat="48.72785" lon="7.23591">
        <ele>222</ele>
        <time>2020-08-08T17:55:08Z</time>
      </trkpt>
      <trkpt lat="48.72784" lon="7.23584">
        <ele>221</ele>
        <time>2020-08-08T17:55:09Z</time>
      </trkpt>
      <trkpt lat="48.72784" lon="7.23577">
        <ele>222</ele>
        <time>2020-08-08T17:55:10Z</time>
      </trkpt>
      <trkpt lat="48.72783" lon="7.2357">
        <ele>221</ele>
        <time>2020-08-08T17:55:11Z</time>
      </trkpt>
      <trkpt lat="48.72782" lon="7.23556">
        <ele>220</ele>
        <time>2020-08-08T17:55:13Z</time>
      </trkpt>
      <trkpt lat="48.72781" lon="7.23549">
        <ele>220</ele>
        <time>2020-08-08T17:55:14Z</time>
      </trkpt>
      <trkpt lat="48.72781" lon="7.23542">
        <ele>220</ele>
        <time>2020-08-08T17:55:15Z</time>
      </trkpt>
      <trkpt lat="48.72781" lon="7.23535">
        <ele>220</ele>
        <time>2020-08-08T17:55:16Z</time>
      </trkpt>
      <trkpt lat="48.72781" lon="7.23528">
        <ele>220</ele>
        <time>2020-08-08T17:55:17Z</time>
      </trkpt>
      <trkpt lat="48.7278" lon="7.23521">
        <ele>219</ele>
        <time>2020-08-08T17:55:18Z</time>
      </trkpt>
      <trkpt lat="48.7278" lon="7.23514">
        <ele>219</ele>
        <time>2020-08-08T17:55:19Z</time>
      </trkpt>
      <trkpt lat="48.72779" lon="7.23506">
        <ele>220</ele>
        <time>2020-08-08T17:55:20Z</time>
      </trkpt>
      <trkpt lat="48.72778" lon="7.23493">
        <ele>221</ele>
        <time>2020-08-08T17:55:22Z</time>
      </trkpt>
      <trkpt lat="48.72778" lon="7.23486">
        <ele>222</ele>
        <time>2020-08-08T17:55:23Z</time>
      </trkpt>
      <trkpt lat="48.72777" lon="7.23479">
        <ele>221</ele>
        <time>2020-08-08T17:55:24Z</time>
      </trkpt>
      <trkpt lat="48.72776" lon="7.23472">
        <ele>220</ele>
        <time>2020-08-08T17:55:25Z</time>
      </trkpt>
      <trkpt lat="48.72776" lon="7.23465">
        <ele>220</ele>
        <time>2020-08-08T17:55:26Z</time>
      </trkpt>
      <trkpt lat="48.72775" lon="7.23458">
        <ele>220</ele>
        <time>2020-08-08T17:55:27Z</time>
      </trkpt>
      <trkpt lat="48.72774" lon="7.23444">
        <ele>220</ele>
        <time>2020-08-08T17:55:29Z</time>
      </trkpt>
      <trkpt lat="48.72774" lon="7.23437">
        <ele>220</ele>
        <time>2020-08-08T17:55:30Z</time>
      </trkpt>
      <trkpt lat="48.72773" lon="7.23424">
        <ele>219</ele>
        <time>2020-08-08T17:55:32Z</time>
      </trkpt>
      <trkpt lat="48.72772" lon="7.23417">
        <ele>219</ele>
        <time>2020-08-08T17:55:33Z</time>
      </trkpt>
      <trkpt lat="48.72772" lon="7.23405">
        <ele>219</ele>
        <time>2020-08-08T17:55:35Z</time>
      </trkpt>
      <trkpt lat="48.72771" lon="7.23392">
        <ele>219</ele>
        <time>2020-08-08T17:55:37Z</time>
      </trkpt>
      <trkpt lat="48.72771" lon="7.23381">
        <ele>220</ele>
        <time>2020-08-08T17:55:39Z</time>
      </trkpt>
      <trkpt lat="48.7277" lon="7.23372">
        <ele>219</ele>
        <time>2020-08-08T17:55:41Z</time>
      </trkpt>
      <trkpt lat="48.7277" lon="7.23365">
        <ele>220</ele>
        <time>2020-08-08T17:55:43Z</time>
      </trkpt>
      <trkpt lat="48.7277" lon="7.23358">
        <ele>220</ele>
        <time>2020-08-08T17:55:46Z</time>
      </trkpt>
      <trkpt lat="48.72772" lon="7.23351">
        <ele>220</ele>
        <time>2020-08-08T17:55:51Z</time>
      </trkpt>
      <trkpt lat="48.72777" lon="7.2335">
        <ele>220</ele>
        <time>2020-08-08T17:55:53Z</time>
      </trkpt>
      <trkpt lat="48.72782" lon="7.23339">
        <ele>220</ele>
        <time>2020-08-08T17:55:55Z</time>
      </trkpt>
      <trkpt lat="48.72783" lon="7.23333">
        <ele>220</ele>
        <time>2020-08-08T17:55:56Z</time>
      </trkpt>
      <trkpt lat="48.72783" lon="7.23325">
        <ele>220</ele>
        <time>2020-08-08T17:55:57Z</time>
      </trkpt>
      <trkpt lat="48.72784" lon="7.23318">
        <ele>221</ele>
        <time>2020-08-08T17:55:58Z</time>
      </trkpt>
      <trkpt lat="48.72784" lon="7.23311">
        <ele>221</ele>
        <time>2020-08-08T17:55:59Z</time>
      </trkpt>
      <trkpt lat="48.72785" lon="7.23304">
        <ele>222</ele>
        <time>2020-08-08T17:56:00Z</time>
      </trkpt>
      <trkpt lat="48.72785" lon="7.23292">
        <ele>225</ele>
        <time>2020-08-08T17:56:02Z</time>
      </trkpt>
      <trkpt lat="48.72786" lon="7.23282">
        <ele>228</ele>
        <time>2020-08-08T17:56:04Z</time>
      </trkpt>
      <trkpt lat="48.72785" lon="7.23271">
        <ele>230</ele>
        <time>2020-08-08T17:56:06Z</time>
      </trkpt>
      <trkpt lat="48.72782" lon="7.23262">
        <ele>229</ele>
        <time>2020-08-08T17:56:08Z</time>
      </trkpt>
      <trkpt lat="48.72777" lon="7.23256">
        <ele>226</ele>
        <time>2020-08-08T17:56:10Z</time>
      </trkpt>
      <trkpt lat="48.7277" lon="7.23255">
        <ele>221</ele>
        <time>2020-08-08T17:56:12Z</time>
      </trkpt>
      <trkpt lat="48.72763" lon="7.23255">
        <ele>220</ele>
        <time>2020-08-08T17:56:14Z</time>
      </trkpt>
      <trkpt lat="48.72758" lon="7.23247">
        <ele>220</ele>
        <time>2020-08-08T17:56:16Z</time>
      </trkpt>
      <trkpt lat="48.72755" lon="7.23237">
        <ele>220</ele>
        <time>2020-08-08T17:56:18Z</time>
      </trkpt>
      <trkpt lat="48.72754" lon="7.23226">
        <ele>220</ele>
        <time>2020-08-08T17:56:20Z</time>
      </trkpt>
      <trkpt lat="48.72752" lon="7.23215">
        <ele>220</ele>
        <time>2020-08-08T17:56:22Z</time>
      </trkpt>
      <trkpt lat="48.7275" lon="7.23204">
        <ele>221</ele>
        <time>2020-08-08T17:56:24Z</time>
      </trkpt>
      <trkpt lat="48.72747" lon="7.23192">
        <ele>224</ele>
        <time>2020-08-08T17:56:26Z</time>
      </trkpt>
      <trkpt lat="48.72745" lon="7.23182">
        <ele>225</ele>
        <time>2020-08-08T17:56:28Z</time>
      </trkpt>
      <trkpt lat="48.72741" lon="7.23172">
        <ele>227</ele>
        <time>2020-08-08T17:56:30Z</time>
      </trkpt>
      <trkpt lat="48.72738" lon="7.23162">
        <ele>227</ele>
        <time>2020-08-08T17:56:32Z</time>
      </trkpt>
      <trkpt lat="48.72733" lon="7.23152">
        <ele>225</ele>
        <time>2020-08-08T17:56:34Z</time>
      </trkpt>
      <trkpt lat="48.72729" lon="7.23143">
        <ele>224</ele>
        <time>2020-08-08T17:56:36Z</time>
      </trkpt>
      <trkpt lat="48.72724" lon="7.23134">
        <ele>224</ele>
        <time>2020-08-08T17:56:38Z</time>
      </trkpt>
      <trkpt lat="48.72719" lon="7.23123">
        <ele>223</ele>
        <time>2020-08-08T17:56:40Z</time>
      </trkpt>
      <trkpt lat="48.72714" lon="7.23113">
        <ele>224</ele>
        <time>2020-08-08T17:56:42Z</time>
      </trkpt>
      <trkpt lat="48.72707" lon="7.23105">
        <ele>224</ele>
        <time>2020-08-08T17:56:44Z</time>
      </trkpt>
      <trkpt lat="48.72699" lon="7.23091">
        <ele>223</ele>
        <time>2020-08-08T17:56:47Z</time>
      </trkpt>
      <trkpt lat="48.72692" lon="7.23083">
        <ele>223</ele>
        <time>2020-08-08T17:56:49Z</time>
      </trkpt>
      <trkpt lat="48.72685" lon="7.23076">
        <ele>223</ele>
        <time>2020-08-08T17:56:51Z</time>
      </trkpt>
      <trkpt lat="48.72677" lon="7.23069">
        <ele>223</ele>
        <time>2020-08-08T17:56:53Z</time>
      </trkpt>
      <trkpt lat="48.7267" lon="7.23061">
        <ele>223</ele>
        <time>2020-08-08T17:56:55Z</time>
      </trkpt>
      <trkpt lat="48.72663" lon="7.23054">
        <ele>223</ele>
        <time>2020-08-08T17:56:57Z</time>
      </trkpt>
      <trkpt lat="48.72659" lon="7.23052">
        <ele>223</ele>
        <time>2020-08-08T17:56:58Z</time>
      </trkpt>
      <trkpt lat="48.72651" lon="7.23046">
        <ele>224</ele>
        <time>2020-08-08T17:57:00Z</time>
      </trkpt>
      <trkpt lat="48.72643" lon="7.23041">
        <ele>226</ele>
        <time>2020-08-08T17:57:02Z</time>
      </trkpt>
      <trkpt lat="48.72638" lon="7.23039">
        <ele>226</ele>
        <time>2020-08-08T17:57:03Z</time>
      </trkpt>
      <trkpt lat="48.72635" lon="7.23033">
        <ele>227</ele>
        <time>2020-08-08T17:57:04Z</time>
      </trkpt>
      <trkpt lat="48.72627" lon="7.23029">
        <ele>228</ele>
        <time>2020-08-08T17:57:06Z</time>
      </trkpt>
      <trkpt lat="48.72619" lon="7.23026">
        <ele>229</ele>
        <time>2020-08-08T17:57:08Z</time>
      </trkpt>
      <trkpt lat="48.72611" lon="7.23024">
        <ele>230</ele>
        <time>2020-08-08T17:57:10Z</time>
      </trkpt>
      <trkpt lat="48.72606" lon="7.23024">
        <ele>230</ele>
        <time>2020-08-08T17:57:11Z</time>
      </trkpt>
      <trkpt lat="48.72602" lon="7.23022">
        <ele>230</ele>
        <time>2020-08-08T17:57:12Z</time>
      </trkpt>
      <trkpt lat="48.72597" lon="7.23022">
        <ele>229</ele>
        <time>2020-08-08T17:57:13Z</time>
      </trkpt>
      <trkpt lat="48.72589" lon="7.2302">
        <ele>228</ele>
        <time>2020-08-08T17:57:15Z</time>
      </trkpt>
      <trkpt lat="48.7258" lon="7.23019">
        <ele>227</ele>
        <time>2020-08-08T17:57:17Z</time>
      </trkpt>
      <trkpt lat="48.72572" lon="7.23016">
        <ele>227</ele>
        <time>2020-08-08T17:57:19Z</time>
      </trkpt>
      <trkpt lat="48.72564" lon="7.23014">
        <ele>226</ele>
        <time>2020-08-08T17:57:21Z</time>
      </trkpt>
      <trkpt lat="48.72559" lon="7.23012">
        <ele>226</ele>
        <time>2020-08-08T17:57:22Z</time>
      </trkpt>
      <trkpt lat="48.7255" lon="7.23009">
        <ele>226</ele>
        <time>2020-08-08T17:57:24Z</time>
      </trkpt>
      <trkpt lat="48.72541" lon="7.23008">
        <ele>225</ele>
        <time>2020-08-08T17:57:26Z</time>
      </trkpt>
      <trkpt lat="48.72532" lon="7.23005">
        <ele>224</ele>
        <time>2020-08-08T17:57:28Z</time>
      </trkpt>
      <trkpt lat="48.72527" lon="7.23005">
        <ele>224</ele>
        <time>2020-08-08T17:57:29Z</time>
      </trkpt>
      <trkpt lat="48.72519" lon="7.23002">
        <ele>225</ele>
        <time>2020-08-08T17:57:31Z</time>
      </trkpt>
      <trkpt lat="48.72514" lon="7.23">
        <ele>226</ele>
        <time>2020-08-08T17:57:32Z</time>
      </trkpt>
      <trkpt lat="48.72506" lon="7.22998">
        <ele>227</ele>
        <time>2020-08-08T17:57:34Z</time>
      </trkpt>
      <trkpt lat="48.72501" lon="7.22998">
        <ele>226</ele>
        <time>2020-08-08T17:57:35Z</time>
      </trkpt>
      <trkpt lat="48.72497" lon="7.22996">
        <ele>226</ele>
        <time>2020-08-08T17:57:36Z</time>
      </trkpt>
      <trkpt lat="48.72484" lon="7.22992">
        <ele>226</ele>
        <time>2020-08-08T17:57:39Z</time>
      </trkpt>
      <trkpt lat="48.72479" lon="7.22991">
        <ele>226</ele>
        <time>2020-08-08T17:57:40Z</time>
      </trkpt>
      <trkpt lat="48.7247" lon="7.22989">
        <ele>226</ele>
        <time>2020-08-08T17:57:42Z</time>
      </trkpt>
      <trkpt lat="48.72466" lon="7.22986">
        <ele>228</ele>
        <time>2020-08-08T17:57:43Z</time>
      </trkpt>
      <trkpt lat="48.72461" lon="7.22984">
        <ele>229</ele>
        <time>2020-08-08T17:57:44Z</time>
      </trkpt>
      <trkpt lat="48.72456" lon="7.22984">
        <ele>229</ele>
        <time>2020-08-08T17:57:45Z</time>
      </trkpt>
      <trkpt lat="48.72447" lon="7.22981">
        <ele>229</ele>
        <time>2020-08-08T17:57:47Z</time>
      </trkpt>
      <trkpt lat="48.72438" lon="7.22976">
        <ele>229</ele>
        <time>2020-08-08T17:57:49Z</time>
      </trkpt>
      <trkpt lat="48.72434" lon="7.22975">
        <ele>228</ele>
        <time>2020-08-08T17:57:50Z</time>
      </trkpt>
      <trkpt lat="48.72425" lon="7.22973">
        <ele>228</ele>
        <time>2020-08-08T17:57:52Z</time>
      </trkpt>
      <trkpt lat="48.72416" lon="7.22971">
        <ele>227</ele>
        <time>2020-08-08T17:57:54Z</time>
      </trkpt>
      <trkpt lat="48.72411" lon="7.2297">
        <ele>226</ele>
        <time>2020-08-08T17:57:55Z</time>
      </trkpt>
      <trkpt lat="48.72406" lon="7.22968">
        <ele>225</ele>
        <time>2020-08-08T17:57:56Z</time>
      </trkpt>
      <trkpt lat="48.72398" lon="7.22966">
        <ele>225</ele>
        <time>2020-08-08T17:57:58Z</time>
      </trkpt>
      <trkpt lat="48.72393" lon="7.22965">
        <ele>225</ele>
        <time>2020-08-08T17:57:59Z</time>
      </trkpt>
      <trkpt lat="48.72384" lon="7.22963">
        <ele>226</ele>
        <time>2020-08-08T17:58:01Z</time>
      </trkpt>
      <trkpt lat="48.7238" lon="7.22962">
        <ele>226</ele>
        <time>2020-08-08T17:58:02Z</time>
      </trkpt>
      <trkpt lat="48.72371" lon="7.2296">
        <ele>225</ele>
        <time>2020-08-08T17:58:04Z</time>
      </trkpt>
      <trkpt lat="48.72362" lon="7.22958">
        <ele>224</ele>
        <time>2020-08-08T17:58:06Z</time>
      </trkpt>
      <trkpt lat="48.72353" lon="7.22956">
        <ele>224</ele>
        <time>2020-08-08T17:58:08Z</time>
      </trkpt>
      <trkpt lat="48.72348" lon="7.22954">
        <ele>225</ele>
        <time>2020-08-08T17:58:09Z</time>
      </trkpt>
      <trkpt lat="48.72339" lon="7.22951">
        <ele>224</ele>
        <time>2020-08-08T17:58:11Z</time>
      </trkpt>
      <trkpt lat="48.72335" lon="7.2295">
        <ele>225</ele>
        <time>2020-08-08T17:58:12Z</time>
      </trkpt>
      <trkpt lat="48.72326" lon="7.22947">
        <ele>225</ele>
        <time>2020-08-08T17:58:14Z</time>
      </trkpt>
      <trkpt lat="48.72314" lon="7.22946">
        <ele>227</ele>
        <time>2020-08-08T17:58:17Z</time>
      </trkpt>
      <trkpt lat="48.72308" lon="7.22955">
        <ele>227</ele>
        <time>2020-08-08T17:58:19Z</time>
      </trkpt>
      <trkpt lat="48.72305" lon="7.22962">
        <ele>228</ele>
        <time>2020-08-08T17:58:20Z</time>
      </trkpt>
      <trkpt lat="48.72302" lon="7.2297">
        <ele>229</ele>
        <time>2020-08-08T17:58:21Z</time>
      </trkpt>
      <trkpt lat="48.723" lon="7.2298">
        <ele>229</ele>
        <time>2020-08-08T17:58:23Z</time>
      </trkpt>
      <trkpt lat="48.72298" lon="7.22989">
        <ele>228</ele>
        <time>2020-08-08T17:58:25Z</time>
      </trkpt>
      <trkpt lat="48.72293" lon="7.23">
        <ele>228</ele>
        <time>2020-08-08T17:58:27Z</time>
      </trkpt>
      <trkpt lat="48.72288" lon="7.23003">
        <ele>227</ele>
        <time>2020-08-08T17:58:28Z</time>
      </trkpt>
      <trkpt lat="48.72282" lon="7.23011">
        <ele>224</ele>
        <time>2020-08-08T17:58:30Z</time>
      </trkpt>
      <trkpt lat="48.72274" lon="7.23015">
        <ele>223</ele>
        <time>2020-08-08T17:58:32Z</time>
      </trkpt>
      <trkpt lat="48.72267" lon="7.2301">
        <ele>224</ele>
        <time>2020-08-08T17:58:34Z</time>
      </trkpt>
      <trkpt lat="48.7226" lon="7.23004">
        <ele>224</ele>
        <time>2020-08-08T17:58:36Z</time>
      </trkpt>
      <trkpt lat="48.72253" lon="7.22996">
        <ele>225</ele>
        <time>2020-08-08T17:58:38Z</time>
      </trkpt>
      <trkpt lat="48.72247" lon="7.22987">
        <ele>225</ele>
        <time>2020-08-08T17:58:40Z</time>
      </trkpt>
      <trkpt lat="48.72242" lon="7.22979">
        <ele>225</ele>
        <time>2020-08-08T17:58:42Z</time>
      </trkpt>
      <trkpt lat="48.72238" lon="7.22974">
        <ele>225</ele>
        <time>2020-08-08T17:58:44Z</time>
      </trkpt>
      <trkpt lat="48.72234" lon="7.22966">
        <ele>225</ele>
        <time>2020-08-08T17:58:47Z</time>
      </trkpt>
      <trkpt lat="48.72229" lon="7.2296">
        <ele>224</ele>
        <time>2020-08-08T17:58:51Z</time>
      </trkpt>
      <trkpt lat="48.72222" lon="7.2295">
        <ele>225</ele>
        <time>2020-08-08T17:58:55Z</time>
      </trkpt>
      <trkpt lat="48.72217" lon="7.22945">
        <ele>225</ele>
        <time>2020-08-08T17:58:57Z</time>
      </trkpt>
      <trkpt lat="48.72214" lon="7.22939">
        <ele>226</ele>
        <time>2020-08-08T17:58:59Z</time>
      </trkpt>
      <trkpt lat="48.7221" lon="7.22933">
        <ele>226</ele>
        <time>2020-08-08T17:59:01Z</time>
      </trkpt>
      <trkpt lat="48.72204" lon="7.22926">
        <ele>224</ele>
        <time>2020-08-08T17:59:03Z</time>
      </trkpt>
      <trkpt lat="48.722" lon="7.22919">
        <ele>224</ele>
        <time>2020-08-08T17:59:05Z</time>
      </trkpt>
      <trkpt lat="48.72197" lon="7.22914">
        <ele>224</ele>
        <time>2020-08-08T17:59:07Z</time>
      </trkpt>
      <trkpt lat="48.72192" lon="7.22908">
        <ele>224</ele>
        <time>2020-08-08T17:59:09Z</time>
      </trkpt>
      <trkpt lat="48.72188" lon="7.22901">
        <ele>224</ele>
        <time>2020-08-08T17:59:11Z</time>
      </trkpt>
      <trkpt lat="48.72184" lon="7.22894">
        <ele>225</ele>
        <time>2020-08-08T17:59:13Z</time>
      </trkpt>
      <trkpt lat="48.7218" lon="7.22888">
        <ele>225</ele>
        <time>2020-08-08T17:59:15Z</time>
      </trkpt>
      <trkpt lat="48.72177" lon="7.2288">
        <ele>226</ele>
        <time>2020-08-08T17:59:17Z</time>
      </trkpt>
      <trkpt lat="48.72173" lon="7.22873">
        <ele>225</ele>
        <time>2020-08-08T17:59:19Z</time>
      </trkpt>
      <trkpt lat="48.72168" lon="7.22865">
        <ele>225</ele>
        <time>2020-08-08T17:59:21Z</time>
      </trkpt>
      <trkpt lat="48.72165" lon="7.22857">
        <ele>226</ele>
        <time>2020-08-08T17:59:23Z</time>
      </trkpt>
      <trkpt lat="48.72161" lon="7.2285">
        <ele>226</ele>
        <time>2020-08-08T17:59:25Z</time>
      </trkpt>
      <trkpt lat="48.72158" lon="7.22843">
        <ele>226</ele>
        <time>2020-08-08T17:59:27Z</time>
      </trkpt>
      <trkpt lat="48.72155" lon="7.22837">
        <ele>226</ele>
        <time>2020-08-08T17:59:29Z</time>
      </trkpt>
      <trkpt lat="48.72151" lon="7.2283">
        <ele>227</ele>
        <time>2020-08-08T17:59:31Z</time>
      </trkpt>
      <trkpt lat="48.72147" lon="7.22822">
        <ele>229</ele>
        <time>2020-08-08T17:59:33Z</time>
      </trkpt>
      <trkpt lat="48.72144" lon="7.22814">
        <ele>229</ele>
        <time>2020-08-08T17:59:35Z</time>
      </trkpt>
      <trkpt lat="48.72139" lon="7.22807">
        <ele>229</ele>
        <time>2020-08-08T17:59:37Z</time>
      </trkpt>
      <trkpt lat="48.72136" lon="7.22798">
        <ele>229</ele>
        <time>2020-08-08T17:59:39Z</time>
      </trkpt>
      <trkpt lat="48.72132" lon="7.22788">
        <ele>229</ele>
        <time>2020-08-08T17:59:41Z</time>
      </trkpt>
      <trkpt lat="48.72129" lon="7.2278">
        <ele>229</ele>
        <time>2020-08-08T17:59:43Z</time>
      </trkpt>
      <trkpt lat="48.72124" lon="7.22771">
        <ele>229</ele>
        <time>2020-08-08T17:59:45Z</time>
      </trkpt>
      <trkpt lat="48.7212" lon="7.22761">
        <ele>229</ele>
        <time>2020-08-08T17:59:47Z</time>
      </trkpt>
      <trkpt lat="48.72116" lon="7.22753">
        <ele>229</ele>
        <time>2020-08-08T17:59:49Z</time>
      </trkpt>
      <trkpt lat="48.72112" lon="7.22745">
        <ele>229</ele>
        <time>2020-08-08T17:59:51Z</time>
      </trkpt>
      <trkpt lat="48.72108" lon="7.22734">
        <ele>228</ele>
        <time>2020-08-08T17:59:53Z</time>
      </trkpt>
      <trkpt lat="48.72104" lon="7.22725">
        <ele>229</ele>
        <time>2020-08-08T17:59:55Z</time>
      </trkpt>
      <trkpt lat="48.72099" lon="7.22717">
        <ele>228</ele>
        <time>2020-08-08T17:59:57Z</time>
      </trkpt>
      <trkpt lat="48.72094" lon="7.22708">
        <ele>228</ele>
        <time>2020-08-08T17:59:59Z</time>
      </trkpt>
      <trkpt lat="48.72091" lon="7.22699">
        <ele>228</ele>
        <time>2020-08-08T18:00:01Z</time>
      </trkpt>
      <trkpt lat="48.72087" lon="7.22689">
        <ele>228</ele>
        <time>2020-08-08T18:00:03Z</time>
      </trkpt>
      <trkpt lat="48.72082" lon="7.2268">
        <ele>227</ele>
        <time>2020-08-08T18:00:05Z</time>
      </trkpt>
      <trkpt lat="48.72078" lon="7.22671">
        <ele>226</ele>
        <time>2020-08-08T18:00:07Z</time>
      </trkpt>
      <trkpt lat="48.72075" lon="7.2266">
        <ele>225</ele>
        <time>2020-08-08T18:00:09Z</time>
      </trkpt>
      <trkpt lat="48.72072" lon="7.22649">
        <ele>226</ele>
        <time>2020-08-08T18:00:11Z</time>
      </trkpt>
      <trkpt lat="48.72068" lon="7.22638">
        <ele>225</ele>
        <time>2020-08-08T18:00:13Z</time>
      </trkpt>
      <trkpt lat="48.72065" lon="7.22629">
        <ele>226</ele>
        <time>2020-08-08T18:00:15Z</time>
      </trkpt>
      <trkpt lat="48.72063" lon="7.22621">
        <ele>226</ele>
        <time>2020-08-08T18:00:17Z</time>
      </trkpt>
      <trkpt lat="48.72062" lon="7.22613">
        <ele>226</ele>
        <time>2020-08-08T18:00:19Z</time>
      </trkpt>
      <trkpt lat="48.7206" lon="7.22606">
        <ele>226</ele>
        <time>2020-08-08T18:00:21Z</time>
      </trkpt>
      <trkpt lat="48.72059" lon="7.22598">
        <ele>227</ele>
        <time>2020-08-08T18:00:23Z</time>
      </trkpt>
      <trkpt lat="48.72057" lon="7.2259">
        <ele>227</ele>
        <time>2020-08-08T18:00:26Z</time>
      </trkpt>
      <trkpt lat="48.72052" lon="7.2259">
        <ele>225</ele>
        <time>2020-08-08T18:00:29Z</time>
      </trkpt>
      <trkpt lat="48.72047" lon="7.22591">
        <ele>224</ele>
        <time>2020-08-08T18:00:33Z</time>
      </trkpt>
      <trkpt lat="48.72043" lon="7.22592">
        <ele>224</ele>
        <time>2020-08-08T18:00:37Z</time>
      </trkpt>
      <trkpt lat="48.72038" lon="7.22593">
        <ele>224</ele>
        <time>2020-08-08T18:00:41Z</time>
      </trkpt>
      <trkpt lat="48.72038" lon="7.22601">
        <ele>224</ele>
        <time>2020-08-08T18:00:57Z</time>
      </trkpt>
      <trkpt lat="48.72039" lon="7.22609">
        <ele>224</ele>
        <time>2020-08-08T18:00:59Z</time>
      </trkpt>
      <trkpt lat="48.72041" lon="7.22619">
        <ele>224</ele>
        <time>2020-08-08T18:01:01Z</time>
      </trkpt>
      <trkpt lat="48.72041" lon="7.22631">
        <ele>224</ele>
        <time>2020-08-08T18:01:03Z</time>
      </trkpt>
      <trkpt lat="48.72036" lon="7.22638">
        <ele>224</ele>
        <time>2020-08-08T18:01:05Z</time>
      </trkpt>
      <trkpt lat="48.7203" lon="7.22633">
        <ele>224</ele>
        <time>2020-08-08T18:01:07Z</time>
      </trkpt>
      <trkpt lat="48.72025" lon="7.22626">
        <ele>224</ele>
        <time>2020-08-08T18:01:09Z</time>
      </trkpt>
      <trkpt lat="48.72022" lon="7.22619">
        <ele>224</ele>
        <time>2020-08-08T18:01:11Z</time>
      </trkpt>
      <trkpt lat="48.72017" lon="7.22612">
        <ele>224</ele>
        <time>2020-08-08T18:01:13Z</time>
      </trkpt>
      <trkpt lat="48.72012" lon="7.22604">
        <ele>224</ele>
        <time>2020-08-08T18:01:15Z</time>
      </trkpt>
      <trkpt lat="48.72007" lon="7.22596">
        <ele>224</ele>
        <time>2020-08-08T18:01:17Z</time>
      </trkpt>
      <trkpt lat="48.72002" lon="7.22586">
        <ele>224</ele>
        <time>2020-08-08T18:01:19Z</time>
      </trkpt>
      <trkpt lat="48.71996" lon="7.22577">
        <ele>224</ele>
        <time>2020-08-08T18:01:21Z</time>
      </trkpt>
      <trkpt lat="48.7199" lon="7.22568">
        <ele>225</ele>
        <time>2020-08-08T18:01:23Z</time>
      </trkpt>
      <trkpt lat="48.71985" lon="7.22559">
        <ele>225</ele>
        <time>2020-08-08T18:01:25Z</time>
      </trkpt>
      <trkpt lat="48.71979" lon="7.2255">
        <ele>225</ele>
        <time>2020-08-08T18:01:27Z</time>
      </trkpt>
      <trkpt lat="48.71973" lon="7.2254">
        <ele>224</ele>
        <time>2020-08-08T18:01:29Z</time>
      </trkpt>
      <trkpt lat="48.71967" lon="7.22531">
        <ele>224</ele>
        <time>2020-08-08T18:01:31Z</time>
      </trkpt>
      <trkpt lat="48.71961" lon="7.22521">
        <ele>224</ele>
        <time>2020-08-08T18:01:33Z</time>
      </trkpt>
      <trkpt lat="48.71958" lon="7.22515">
        <ele>224</ele>
        <time>2020-08-08T18:01:34Z</time>
      </trkpt>
      <trkpt lat="48.7195" lon="7.225">
        <ele>224</ele>
        <time>2020-08-08T18:01:37Z</time>
      </trkpt>
      <trkpt lat="48.71941" lon="7.22486">
        <ele>224</ele>
        <time>2020-08-08T18:01:40Z</time>
      </trkpt>
      <trkpt lat="48.71935" lon="7.22477">
        <ele>225</ele>
        <time>2020-08-08T18:01:42Z</time>
      </trkpt>
      <trkpt lat="48.7193" lon="7.22468">
        <ele>225</ele>
        <time>2020-08-08T18:01:44Z</time>
      </trkpt>
      <trkpt lat="48.71925" lon="7.22459">
        <ele>225</ele>
        <time>2020-08-08T18:01:46Z</time>
      </trkpt>
      <trkpt lat="48.7192" lon="7.22452">
        <ele>225</ele>
        <time>2020-08-08T18:01:48Z</time>
      </trkpt>
      <trkpt lat="48.71916" lon="7.22445">
        <ele>225</ele>
        <time>2020-08-08T18:01:50Z</time>
      </trkpt>
      <trkpt lat="48.7191" lon="7.22439">
        <ele>225</ele>
        <time>2020-08-08T18:01:52Z</time>
      </trkpt>
      <trkpt lat="48.71904" lon="7.22431">
        <ele>225</ele>
        <time>2020-08-08T18:01:54Z</time>
      </trkpt>
      <trkpt lat="48.71899" lon="7.22422">
        <ele>226</ele>
        <time>2020-08-08T18:01:56Z</time>
      </trkpt>
      <trkpt lat="48.71893" lon="7.22416">
        <ele>226</ele>
        <time>2020-08-08T18:01:58Z</time>
      </trkpt>
      <trkpt lat="48.71889" lon="7.22405">
        <ele>226</ele>
        <time>2020-08-08T18:02:00Z</time>
      </trkpt>
      <trkpt lat="48.71884" lon="7.22396">
        <ele>226</ele>
        <time>2020-08-08T18:02:02Z</time>
      </trkpt>
      <trkpt lat="48.71878" lon="7.22388">
        <ele>226</ele>
        <time>2020-08-08T18:02:04Z</time>
      </trkpt>
      <trkpt lat="48.71874" lon="7.22381">
        <ele>226</ele>
        <time>2020-08-08T18:02:06Z</time>
      </trkpt>
      <trkpt lat="48.71869" lon="7.22373">
        <ele>226</ele>
        <time>2020-08-08T18:02:08Z</time>
      </trkpt>
      <trkpt lat="48.71865" lon="7.22366">
        <ele>225</ele>
        <time>2020-08-08T18:02:10Z</time>
      </trkpt>
      <trkpt lat="48.7186" lon="7.2236">
        <ele>225</ele>
        <time>2020-08-08T18:02:12Z</time>
      </trkpt>
      <trkpt lat="48.71856" lon="7.22354">
        <ele>225</ele>
        <time>2020-08-08T18:02:14Z</time>
      </trkpt>
      <trkpt lat="48.71854" lon="7.22348">
        <ele>225</ele>
        <time>2020-08-08T18:02:16Z</time>
      </trkpt>
      <trkpt lat="48.71859" lon="7.22346">
        <ele>225</ele>
        <time>2020-08-08T18:02:19Z</time>
      </trkpt>
      <trkpt lat="48.71864" lon="7.22352">
        <ele>225</ele>
        <time>2020-08-08T18:02:22Z</time>
      </trkpt>
      <trkpt lat="48.71868" lon="7.22358">
        <ele>225</ele>
        <time>2020-08-08T18:02:25Z</time>
      </trkpt>
      <trkpt lat="48.71872" lon="7.22364">
        <ele>225</ele>
        <time>2020-08-08T18:02:27Z</time>
      </trkpt>
      <trkpt lat="48.71876" lon="7.22369">
        <ele>226</ele>
        <time>2020-08-08T18:02:29Z</time>
      </trkpt>
      <trkpt lat="48.7188" lon="7.22374">
        <ele>226</ele>
        <time>2020-08-08T18:02:31Z</time>
      </trkpt>
      <trkpt lat="48.71885" lon="7.22379">
        <ele>227</ele>
        <time>2020-08-08T18:02:33Z</time>
      </trkpt>
      <trkpt lat="48.71889" lon="7.22384">
        <ele>227</ele>
        <time>2020-08-08T18:02:35Z</time>
      </trkpt>
      <trkpt lat="48.71893" lon="7.22388">
        <ele>227</ele>
        <time>2020-08-08T18:02:37Z</time>
      </trkpt>
      <trkpt lat="48.71896" lon="7.22394">
        <ele>227</ele>
        <time>2020-08-08T18:02:39Z</time>
      </trkpt>
      <trkpt lat="48.71896" lon="7.22403">
        <ele>227</ele>
        <time>2020-08-08T18:02:42Z</time>
      </trkpt>
      <trkpt lat="48.71893" lon="7.2241">
        <ele>226</ele>
        <time>2020-08-08T18:02:45Z</time>
      </trkpt>
      <trkpt lat="48.71888" lon="7.22417">
        <ele>226</ele>
        <time>2020-08-08T18:02:48Z</time>
      </trkpt>
      <trkpt lat="48.71883" lon="7.22422">
        <ele>226</ele>
        <time>2020-08-08T18:02:50Z</time>
      </trkpt>
      <trkpt lat="48.7188" lon="7.22427">
        <ele>226</ele>
        <time>2020-08-08T18:02:52Z</time>
      </trkpt>
      <trkpt lat="48.71876" lon="7.22433">
        <ele>226</ele>
        <time>2020-08-08T18:02:54Z</time>
      </trkpt>
      <trkpt lat="48.71872" lon="7.22438">
        <ele>226</ele>
        <time>2020-08-08T18:02:56Z</time>
      </trkpt>
      <trkpt lat="48.71869" lon="7.22445">
        <ele>226</ele>
        <time>2020-08-08T18:02:58Z</time>
      </trkpt>
      <trkpt lat="48.71864" lon="7.22449">
        <ele>227</ele>
        <time>2020-08-08T18:03:00Z</time>
      </trkpt>
      <trkpt lat="48.7186" lon="7.22454">
        <ele>228</ele>
        <time>2020-08-08T18:03:02Z</time>
      </trkpt>
      <trkpt lat="48.71855" lon="7.22459">
        <ele>229</ele>
        <time>2020-08-08T18:03:04Z</time>
      </trkpt>
      <trkpt lat="48.71851" lon="7.22465">
        <ele>230</ele>
        <time>2020-08-08T18:03:07Z</time>
      </trkpt>
      <trkpt lat="48.71848" lon="7.2247">
        <ele>232</ele>
        <time>2020-08-08T18:03:15Z</time>
      </trkpt>
      <trkpt lat="48.71848" lon="7.22478">
        <ele>232</ele>
        <time>2020-08-08T18:03:18Z</time>
      </trkpt>
      <trkpt lat="48.7185" lon="7.22487">
        <ele>230</ele>
        <time>2020-08-08T18:03:20Z</time>
      </trkpt>
      <trkpt lat="48.71853" lon="7.22497">
        <ele>229</ele>
        <time>2020-08-08T18:03:22Z</time>
      </trkpt>
      <trkpt lat="48.71858" lon="7.22508">
        <ele>228</ele>
        <time>2020-08-08T18:03:24Z</time>
      </trkpt>
      <trkpt lat="48.71861" lon="7.2252">
        <ele>227</ele>
        <time>2020-08-08T18:03:26Z</time>
      </trkpt>
      <trkpt lat="48.71863" lon="7.22527">
        <ele>227</ele>
        <time>2020-08-08T18:03:27Z</time>
      </trkpt>
      <trkpt lat="48.71868" lon="7.22539">
        <ele>227</ele>
        <time>2020-08-08T18:03:29Z</time>
      </trkpt>
      <trkpt lat="48.71872" lon="7.2255">
        <ele>226</ele>
        <time>2020-08-08T18:03:31Z</time>
      </trkpt>
      <trkpt lat="48.71876" lon="7.22561">
        <ele>226</ele>
        <time>2020-08-08T18:03:33Z</time>
      </trkpt>
      <trkpt lat="48.71882" lon="7.22572">
        <ele>227</ele>
        <time>2020-08-08T18:03:35Z</time>
      </trkpt>
      <trkpt lat="48.71885" lon="7.22579">
        <ele>226</ele>
        <time>2020-08-08T18:03:36Z</time>
      </trkpt>
      <trkpt lat="48.71888" lon="7.22585">
        <ele>226</ele>
        <time>2020-08-08T18:03:37Z</time>
      </trkpt>
      <trkpt lat="48.71891" lon="7.22592">
        <ele>227</ele>
        <time>2020-08-08T18:03:38Z</time>
      </trkpt>
      <trkpt lat="48.71895" lon="7.226">
        <ele>228</ele>
        <time>2020-08-08T18:03:39Z</time>
      </trkpt>
      <trkpt lat="48.71898" lon="7.22607">
        <ele>228</ele>
        <time>2020-08-08T18:03:40Z</time>
      </trkpt>
      <trkpt lat="48.71901" lon="7.22613">
        <ele>228</ele>
        <time>2020-08-08T18:03:41Z</time>
      </trkpt>
      <trkpt lat="48.71903" lon="7.22619">
        <ele>228</ele>
        <time>2020-08-08T18:03:42Z</time>
      </trkpt>
      <trkpt lat="48.71906" lon="7.22625">
        <ele>228</ele>
        <time>2020-08-08T18:03:43Z</time>
      </trkpt>
      <trkpt lat="48.71909" lon="7.2263">
        <ele>227</ele>
        <time>2020-08-08T18:03:44Z</time>
      </trkpt>
      <trkpt lat="48.71915" lon="7.2264">
        <ele>226</ele>
        <time>2020-08-08T18:03:46Z</time>
      </trkpt>
      <trkpt lat="48.7192" lon="7.22644">
        <ele>225</ele>
        <time>2020-08-08T18:03:48Z</time>
      </trkpt>
      <trkpt lat="48.71925" lon="7.22642">
        <ele>224</ele>
        <time>2020-08-08T18:03:50Z</time>
      </trkpt>
      <trkpt lat="48.7193" lon="7.22638">
        <ele>223</ele>
        <time>2020-08-08T18:03:52Z</time>
      </trkpt>
      <trkpt lat="48.71934" lon="7.22633">
        <ele>223</ele>
        <time>2020-08-08T18:03:55Z</time>
      </trkpt>
      <trkpt lat="48.7194" lon="7.2263">
        <ele>223</ele>
        <time>2020-08-08T18:03:58Z</time>
      </trkpt>
      <trkpt lat="48.71944" lon="7.22636">
        <ele>222</ele>
        <time>2020-08-08T18:04:01Z</time>
      </trkpt>
      <trkpt lat="48.71947" lon="7.22643">
        <ele>222</ele>
        <time>2020-08-08T18:04:03Z</time>
      </trkpt>
      <trkpt lat="48.7195" lon="7.2265">
        <ele>222</ele>
        <time>2020-08-08T18:04:05Z</time>
      </trkpt>
      <trkpt lat="48.71954" lon="7.22658">
        <ele>221</ele>
        <time>2020-08-08T18:04:08Z</time>
      </trkpt>
      <trkpt lat="48.71956" lon="7.22664">
        <ele>222</ele>
        <time>2020-08-08T18:04:10Z</time>
      </trkpt>
      <trkpt lat="48.71959" lon="7.22671">
        <ele>222</ele>
        <time>2020-08-08T18:04:13Z</time>
      </trkpt>
      <trkpt lat="48.71964" lon="7.22675">
        <ele>222</ele>
        <time>2020-08-08T18:04:16Z</time>
      </trkpt>
      <trkpt lat="48.71967" lon="7.22671">
        <ele>222</ele>
        <time>2020-08-08T18:04:24Z</time>
      </trkpt>
      <trkpt lat="48.71962" lon="7.22667">
        <ele>221</ele>
        <time>2020-08-08T18:05:23Z</time>
      </trkpt>
      <trkpt lat="48.71958" lon="7.2267">
        <ele>222</ele>
        <time>2020-08-08T18:05:30Z</time>
      </trkpt>
      <trkpt lat="48.72047" lon="7.22737">
        <ele>224</ele>
        <time>2020-08-08T18:20:14Z</time>
      </trkpt>
      <trkpt lat="48.72043" lon="7.22736">
        <ele>223</ele>
        <time>2020-08-08T18:20:17Z</time>
      </trkpt>
    </trkseg>
  </trk>
</gpx>